<?xml version='1.0' encoding='UTF-8'?><gpx version="1.1" creator="JPX - https://github.com/jenetics/jpx" xmlns="http://www.topografix.com/GPX/1/1"><trk><trkseg><trkpt lat="43.8829726" lon="10.2979945"><ele>-1.0</ele><time>2026-04-12T06:48:01.026Z</time></trkpt><trkpt lat="43.8829891" lon="10.2981114"><ele>-1.0</ele><time>2026-04-12T06:57:57.036Z</time></trkpt><trkpt lat="43.8830166" lon="10.2982108"><ele>-1.0</ele><time>2026-04-12T06:57:59.039Z</time></trkpt><trkpt lat="43.8830644" lon="10.2983247"><ele>-1.0</ele><time>2026-04-12T06:58:02.036Z</time></trkpt><trkpt lat="43.8831238" lon="10.298493"><ele>-1.0</ele><time>2026-04-12T06:58:04.037Z</time></trkpt><trkpt lat="43.8831739" lon="10.2986084"><ele>-1.0</ele><time>2026-04-12T06:58:05.034Z</time></trkpt><trkpt lat="43.883233" lon="10.2987495"><ele>-1.0</ele><time>2026-04-12T06:58:06.038Z</time></trkpt><trkpt lat="43.8832955" lon="10.2989075"><ele>-1.0</ele><time>2026-04-12T06:58:07.037Z</time></trkpt><trkpt lat="43.8833518" lon="10.2990858"><ele>-1.0</ele><time>2026-04-12T06:58:08.038Z</time></trkpt><trkpt lat="43.8834029" lon="10.2992757"><ele>3.0</ele><time>2026-04-12T06:58:09.041Z</time></trkpt><trkpt lat="43.88346" lon="10.2994669"><ele>7.0</ele><time>2026-04-12T06:58:10.053Z</time></trkpt><trkpt lat="43.8835309" lon="10.2996605"><ele>11.0</ele><time>2026-04-12T06:58:11.052Z</time></trkpt><trkpt lat="43.883615" lon="10.2998532"><ele>12.666666666666666</ele><time>2026-04-12T06:58:12.051Z</time></trkpt><trkpt lat="43.8837082" lon="10.3000498"><ele>14.333333333333332</ele><time>2026-04-12T06:58:13.054Z</time></trkpt><trkpt lat="43.8838126" lon="10.3002539"><ele>16.0</ele><time>2026-04-12T06:58:14.051Z</time></trkpt><trkpt lat="43.8839223" lon="10.3004663"><ele>13.666666666666666</ele><time>2026-04-12T06:58:15.05Z</time></trkpt><trkpt lat="43.8840319" lon="10.3006791"><ele>11.333333333333332</ele><time>2026-04-12T06:58:16.049Z</time></trkpt><trkpt lat="43.8841356" lon="10.3008844"><ele>9.0</ele><time>2026-04-12T06:58:17.049Z</time></trkpt><trkpt lat="43.884224" lon="10.3010897"><ele>10.666666666666668</ele><time>2026-04-12T06:58:18.046Z</time></trkpt><trkpt lat="43.8842992" lon="10.3012938"><ele>12.333333333333334</ele><time>2026-04-12T06:58:19.048Z</time></trkpt><trkpt lat="43.884364" lon="10.3014968"><ele>14.0</ele><time>2026-04-12T06:58:20.05Z</time></trkpt><trkpt lat="43.8844135" lon="10.3017065"><ele>14.666666666666668</ele><time>2026-04-12T06:58:21.051Z</time></trkpt><trkpt lat="43.884452" lon="10.3019212"><ele>15.333333333333332</ele><time>2026-04-12T06:58:22.05Z</time></trkpt><trkpt lat="43.8844806" lon="10.3021397"><ele>16.0</ele><time>2026-04-12T06:58:23.054Z</time></trkpt><trkpt lat="43.884498" lon="10.3023592"><ele>16.0</ele><time>2026-04-12T06:58:24.048Z</time></trkpt><trkpt lat="43.8845055" lon="10.3025854"><ele>16.0</ele><time>2026-04-12T06:58:25.048Z</time></trkpt><trkpt lat="43.8845079" lon="10.3028183"><ele>16.0</ele><time>2026-04-12T06:58:26.048Z</time></trkpt><trkpt lat="43.8845098" lon="10.3030521"><ele>17.0</ele><time>2026-04-12T06:58:27.049Z</time></trkpt><trkpt lat="43.8845141" lon="10.3032843"><ele>18.0</ele><time>2026-04-12T06:58:28.049Z</time></trkpt><trkpt lat="43.8845184" lon="10.3035143"><ele>19.0</ele><time>2026-04-12T06:58:29.049Z</time></trkpt><trkpt lat="43.8845163" lon="10.3037423"><ele>21.333333333333332</ele><time>2026-04-12T06:58:30.049Z</time></trkpt><trkpt lat="43.8845057" lon="10.3039712"><ele>23.666666666666664</ele><time>2026-04-12T06:58:31.05Z</time></trkpt><trkpt lat="43.8844855" lon="10.3041997"><ele>26.0</ele><time>2026-04-12T06:58:32.042Z</time></trkpt><trkpt lat="43.8844547" lon="10.3044295"><ele>26.0</ele><time>2026-04-12T06:58:33.048Z</time></trkpt><trkpt lat="43.884411" lon="10.3046601"><ele>26.0</ele><time>2026-04-12T06:58:34.047Z</time></trkpt><trkpt lat="43.8843574" lon="10.3048967"><ele>26.0</ele><time>2026-04-12T06:58:35.048Z</time></trkpt><trkpt lat="43.8842969" lon="10.3051309"><ele>20.666666666666664</ele><time>2026-04-12T06:58:36.046Z</time></trkpt><trkpt lat="43.8842329" lon="10.3053623"><ele>15.333333333333332</ele><time>2026-04-12T06:58:37.048Z</time></trkpt><trkpt lat="43.8841662" lon="10.305594"><ele>10.0</ele><time>2026-04-12T06:58:38.049Z</time></trkpt><trkpt lat="43.8840969" lon="10.3058315"><ele>10.0</ele><time>2026-04-12T06:58:39.05Z</time></trkpt><trkpt lat="43.8840284" lon="10.3060708"><ele>10.0</ele><time>2026-04-12T06:58:40.048Z</time></trkpt><trkpt lat="43.8839614" lon="10.3063063"><ele>10.0</ele><time>2026-04-12T06:58:41.048Z</time></trkpt><trkpt lat="43.8838919" lon="10.3065419"><ele>13.666666666666668</ele><time>2026-04-12T06:58:42.045Z</time></trkpt><trkpt lat="43.8838199" lon="10.3067736"><ele>17.333333333333332</ele><time>2026-04-12T06:58:43.049Z</time></trkpt><trkpt lat="43.8837383" lon="10.3069986"><ele>21.0</ele><time>2026-04-12T06:58:44.046Z</time></trkpt><trkpt lat="43.8836506" lon="10.3072211"><ele>23.333333333333336</ele><time>2026-04-12T06:58:45.047Z</time></trkpt><trkpt lat="43.883557" lon="10.3074409"><ele>25.666666666666668</ele><time>2026-04-12T06:58:46.048Z</time></trkpt><trkpt lat="43.8834611" lon="10.3076625"><ele>28.0</ele><time>2026-04-12T06:58:47.049Z</time></trkpt><trkpt lat="43.8833668" lon="10.3078815"><ele>21.0</ele><time>2026-04-12T06:58:48.048Z</time></trkpt><trkpt lat="43.8832728" lon="10.3080961"><ele>14.0</ele><time>2026-04-12T06:58:49.048Z</time></trkpt><trkpt lat="43.8831782" lon="10.3083074"><ele>7.0</ele><time>2026-04-12T06:58:50.047Z</time></trkpt><trkpt lat="43.8830856" lon="10.3085184"><ele>7.0</ele><time>2026-04-12T06:58:51.046Z</time></trkpt><trkpt lat="43.8829962" lon="10.3087265"><ele>7.0</ele><time>2026-04-12T06:58:52.047Z</time></trkpt><trkpt lat="43.8829096" lon="10.3089313"><ele>7.0</ele><time>2026-04-12T06:58:53.055Z</time></trkpt><trkpt lat="43.8828314" lon="10.3091276"><ele>8.0</ele><time>2026-04-12T06:58:54.045Z</time></trkpt><trkpt lat="43.8827699" lon="10.3093193"><ele>9.0</ele><time>2026-04-12T06:58:55.047Z</time></trkpt><trkpt lat="43.8827265" lon="10.3095073"><ele>10.0</ele><time>2026-04-12T06:58:56.05Z</time></trkpt><trkpt lat="43.8827142" lon="10.3096929"><ele>11.0</ele><time>2026-04-12T06:58:57.046Z</time></trkpt><trkpt lat="43.8827476" lon="10.30988"><ele>11.0</ele><time>2026-04-12T06:58:58.046Z</time></trkpt><trkpt lat="43.882819" lon="10.3100628"><ele>11.0</ele><time>2026-04-12T06:58:59.04Z</time></trkpt><trkpt lat="43.8829177" lon="10.310236"><ele>11.0</ele><time>2026-04-12T06:59:00.05Z</time></trkpt><trkpt lat="43.8830351" lon="10.310396"><ele>11.0</ele><time>2026-04-12T06:59:01.036Z</time></trkpt><trkpt lat="43.8831625" lon="10.3105495"><ele>11.0</ele><time>2026-04-12T06:59:02.052Z</time></trkpt><trkpt lat="43.8832836" lon="10.3107061"><ele>11.0</ele><time>2026-04-12T06:59:03.054Z</time></trkpt><trkpt lat="43.8833917" lon="10.3108702"><ele>9.0</ele><time>2026-04-12T06:59:04.035Z</time></trkpt><trkpt lat="43.8834825" lon="10.3110486"><ele>7.0</ele><time>2026-04-12T06:59:05.051Z</time></trkpt><trkpt lat="43.8835425" lon="10.3112502"><ele>5.0</ele><time>2026-04-12T06:59:06.049Z</time></trkpt><trkpt lat="43.8835675" lon="10.3114588"><ele>5.0</ele><time>2026-04-12T06:59:07.049Z</time></trkpt><trkpt lat="43.8835744" lon="10.3116666"><ele>5.0</ele><time>2026-04-12T06:59:08.05Z</time></trkpt><trkpt lat="43.8835822" lon="10.311876"><ele>5.0</ele><time>2026-04-12T06:59:09.055Z</time></trkpt><trkpt lat="43.8835836" lon="10.3120778"><ele>5.0</ele><time>2026-04-12T06:59:10.054Z</time></trkpt><trkpt lat="43.8835627" lon="10.312278"><ele>5.333333333333334</ele><time>2026-04-12T06:59:11.05Z</time></trkpt><trkpt lat="43.883512" lon="10.3124818"><ele>5.666666666666667</ele><time>2026-04-12T06:59:12.04Z</time></trkpt><trkpt lat="43.8834346" lon="10.3126867"><ele>6.0</ele><time>2026-04-12T06:59:13.055Z</time></trkpt><trkpt lat="43.883351" lon="10.3129002"><ele>4.666666666666667</ele><time>2026-04-12T06:59:14.052Z</time></trkpt><trkpt lat="43.8832747" lon="10.3131254"><ele>3.333333333333333</ele><time>2026-04-12T06:59:15.052Z</time></trkpt><trkpt lat="43.8832169" lon="10.3133647"><ele>2.0</ele><time>2026-04-12T06:59:16.051Z</time></trkpt><trkpt lat="43.8831682" lon="10.3136109"><ele>2.0</ele><time>2026-04-12T06:59:17.047Z</time></trkpt><trkpt lat="43.883125" lon="10.3138498"><ele>2.0</ele><time>2026-04-12T06:59:18.048Z</time></trkpt><trkpt lat="43.883088" lon="10.3140805"><ele>2.0</ele><time>2026-04-12T06:59:19.054Z</time></trkpt><trkpt lat="43.8830557" lon="10.3143056"><ele>2.6666666666666665</ele><time>2026-04-12T06:59:20.037Z</time></trkpt><trkpt lat="43.8830314" lon="10.314534"><ele>3.333333333333333</ele><time>2026-04-12T06:59:21.05Z</time></trkpt><trkpt lat="43.8830149" lon="10.3147709"><ele>4.0</ele><time>2026-04-12T06:59:22.045Z</time></trkpt><trkpt lat="43.8830003" lon="10.3150122"><ele>6.666666666666666</ele><time>2026-04-12T06:59:23.054Z</time></trkpt><trkpt lat="43.8829048" lon="10.3152419"><ele>9.333333333333334</ele><time>2026-04-12T06:59:24.051Z</time></trkpt><trkpt lat="43.8828811" lon="10.3154842"><ele>12.0</ele><time>2026-04-12T06:59:25.05Z</time></trkpt><trkpt lat="43.8828575" lon="10.3157238"><ele>13.333333333333332</ele><time>2026-04-12T06:59:26.052Z</time></trkpt><trkpt lat="43.8828326" lon="10.3159522"><ele>14.666666666666666</ele><time>2026-04-12T06:59:27.05Z</time></trkpt><trkpt lat="43.8828088" lon="10.3161637"><ele>16.0</ele><time>2026-04-12T06:59:28.048Z</time></trkpt><trkpt lat="43.8827765" lon="10.3163537"><ele>17.0</ele><time>2026-04-12T06:59:29.047Z</time></trkpt><trkpt lat="43.8827171" lon="10.3165142"><ele>18.0</ele><time>2026-04-12T06:59:30.051Z</time></trkpt><trkpt lat="43.8826429" lon="10.3166491"><ele>19.0</ele><time>2026-04-12T06:59:31.05Z</time></trkpt><trkpt lat="43.8825372" lon="10.3167581"><ele>20.0</ele><time>2026-04-12T06:59:32.049Z</time></trkpt><trkpt lat="43.8824246" lon="10.3168539"><ele>18.2</ele><time>2026-04-12T06:59:33.055Z</time></trkpt><trkpt lat="43.8823181" lon="10.3169435"><ele>16.4</ele><time>2026-04-12T06:59:34.05Z</time></trkpt><trkpt lat="43.8822349" lon="10.3170273"><ele>14.600000000000001</ele><time>2026-04-12T06:59:35.051Z</time></trkpt><trkpt lat="43.8821728" lon="10.3170964"><ele>12.8</ele><time>2026-04-12T06:59:36.046Z</time></trkpt><trkpt lat="43.8821649" lon="10.3172546"><ele>11.0</ele><time>2026-04-12T06:59:38.035Z</time></trkpt><trkpt lat="43.8822125" lon="10.317333"><ele>11.0</ele><time>2026-04-12T06:59:39.036Z</time></trkpt><trkpt lat="43.8822831" lon="10.3174135"><ele>11.0</ele><time>2026-04-12T06:59:40.038Z</time></trkpt><trkpt lat="43.8823824" lon="10.3174996"><ele>11.0</ele><time>2026-04-12T06:59:41.037Z</time></trkpt><trkpt lat="43.8824817" lon="10.3175814"><ele>11.0</ele><time>2026-04-12T06:59:42.035Z</time></trkpt><trkpt lat="43.882581" lon="10.3176783"><ele>11.0</ele><time>2026-04-12T06:59:43.04Z</time></trkpt><trkpt lat="43.8826815" lon="10.3177798"><ele>13.200000000000001</ele><time>2026-04-12T06:59:44.037Z</time></trkpt><trkpt lat="43.8827765" lon="10.3178833"><ele>15.400000000000002</ele><time>2026-04-12T06:59:45.035Z</time></trkpt><trkpt lat="43.8828603" lon="10.3179802"><ele>17.6</ele><time>2026-04-12T06:59:46.035Z</time></trkpt><trkpt lat="43.8829322" lon="10.3180661"><ele>19.8</ele><time>2026-04-12T06:59:47.036Z</time></trkpt><trkpt lat="43.8829906" lon="10.3181378"><ele>22.0</ele><time>2026-04-12T06:59:48.035Z</time></trkpt><trkpt lat="43.8830836" lon="10.318146"><ele>22.400000000000002</ele><time>2026-04-12T06:59:50.034Z</time></trkpt><trkpt lat="43.8830847" lon="10.3179981"><ele>22.8</ele><time>2026-04-12T06:59:52.035Z</time></trkpt><trkpt lat="43.8830354" lon="10.3178916"><ele>23.2</ele><time>2026-04-12T06:59:53.038Z</time></trkpt><trkpt lat="43.8829799" lon="10.3177771"><ele>23.6</ele><time>2026-04-12T06:59:54.034Z</time></trkpt><trkpt lat="43.8829519" lon="10.3176661"><ele>24.0</ele><time>2026-04-12T06:59:55.032Z</time></trkpt><trkpt lat="43.8829586" lon="10.3175618"><ele>24.0</ele><time>2026-04-12T06:59:56.034Z</time></trkpt><trkpt lat="43.8829988" lon="10.3174734"><ele>24.0</ele><time>2026-04-12T06:59:57.035Z</time></trkpt><trkpt lat="43.8830666" lon="10.3174108"><ele>24.0</ele><time>2026-04-12T06:59:58.035Z</time></trkpt><trkpt lat="43.8831596" lon="10.3173727"><ele>24.0</ele><time>2026-04-12T06:59:59.036Z</time></trkpt><trkpt lat="43.8832492" lon="10.3173277"><ele>24.0</ele><time>2026-04-12T07:00:00.036Z</time></trkpt><trkpt lat="43.8833268" lon="10.3172985"><ele>24.0</ele><time>2026-04-12T07:00:01.03Z</time></trkpt><trkpt lat="43.8833959" lon="10.3174026"><ele>24.0</ele><time>2026-04-12T07:00:03.03Z</time></trkpt><trkpt lat="43.8833864" lon="10.317506"><ele>24.0</ele><time>2026-04-12T07:00:04.029Z</time></trkpt><trkpt lat="43.8833752" lon="10.3176169"><ele>24.0</ele><time>2026-04-12T07:00:05.03Z</time></trkpt><trkpt lat="43.8833771" lon="10.3177303"><ele>24.0</ele><time>2026-04-12T07:00:06.031Z</time></trkpt><trkpt lat="43.883412" lon="10.3178373"><ele>24.0</ele><time>2026-04-12T07:00:07.029Z</time></trkpt><trkpt lat="43.8834848" lon="10.3179197"><ele>24.0</ele><time>2026-04-12T07:00:08.03Z</time></trkpt><trkpt lat="43.8835837" lon="10.3179977"><ele>27.75</ele><time>2026-04-12T07:00:09.032Z</time></trkpt><trkpt lat="43.8836985" lon="10.3180837"><ele>31.5</ele><time>2026-04-12T07:00:10.03Z</time></trkpt><trkpt lat="43.8838241" lon="10.3181868"><ele>35.25</ele><time>2026-04-12T07:00:11.036Z</time></trkpt><trkpt lat="43.8839519" lon="10.3183054"><ele>39.0</ele><time>2026-04-12T07:00:12.036Z</time></trkpt><trkpt lat="43.8840916" lon="10.3184286"><ele>39.0</ele><time>2026-04-12T07:00:13.036Z</time></trkpt><trkpt lat="43.8842319" lon="10.318545"><ele>39.0</ele><time>2026-04-12T07:00:14.036Z</time></trkpt><trkpt lat="43.8843751" lon="10.3186526"><ele>39.0</ele><time>2026-04-12T07:00:15.034Z</time></trkpt><trkpt lat="43.8845085" lon="10.3187513"><ele>43.25</ele><time>2026-04-12T07:00:16.033Z</time></trkpt><trkpt lat="43.8846261" lon="10.3188582"><ele>47.5</ele><time>2026-04-12T07:00:17.036Z</time></trkpt><trkpt lat="43.8847189" lon="10.3189815"><ele>51.75</ele><time>2026-04-12T07:00:18.033Z</time></trkpt><trkpt lat="43.8847858" lon="10.3191227"><ele>56.0</ele><time>2026-04-12T07:00:19.034Z</time></trkpt><trkpt lat="43.8848239" lon="10.3192567"><ele>56.0</ele><time>2026-04-12T07:00:20.034Z</time></trkpt><trkpt lat="43.8848398" lon="10.3193513"><ele>55.99999999999999</ele><time>2026-04-12T07:00:21.033Z</time></trkpt><trkpt lat="43.8848883" lon="10.3194213"><ele>55.99999999999999</ele><time>2026-04-12T07:00:23.034Z</time></trkpt><trkpt lat="43.8849368" lon="10.3192659"><ele>56.0</ele><time>2026-04-12T07:00:25.034Z</time></trkpt><trkpt lat="43.8849187" lon="10.3191294"><ele>56.0</ele><time>2026-04-12T07:00:26.034Z</time></trkpt><trkpt lat="43.8848851" lon="10.3189777"><ele>57.4</ele><time>2026-04-12T07:00:27.033Z</time></trkpt><trkpt lat="43.8848453" lon="10.3188319"><ele>58.8</ele><time>2026-04-12T07:00:28.034Z</time></trkpt><trkpt lat="43.8848045" lon="10.3186863"><ele>60.199999999999996</ele><time>2026-04-12T07:00:29.036Z</time></trkpt><trkpt lat="43.8847635" lon="10.318545"><ele>61.599999999999994</ele><time>2026-04-12T07:00:30.036Z</time></trkpt><trkpt lat="43.8847219" lon="10.3184211"><ele>63.0</ele><time>2026-04-12T07:00:31.028Z</time></trkpt><trkpt lat="43.8846851" lon="10.3183134"><ele>63.0</ele><time>2026-04-12T07:00:32.028Z</time></trkpt><trkpt lat="43.8846505" lon="10.3182139"><ele>63.0</ele><time>2026-04-12T07:00:33.03Z</time></trkpt><trkpt lat="43.8846116" lon="10.3181355"><ele>63.0</ele><time>2026-04-12T07:00:34.027Z</time></trkpt><trkpt lat="43.8845581" lon="10.3180844"><ele>63.0</ele><time>2026-04-12T07:00:35.027Z</time></trkpt><trkpt lat="43.8844929" lon="10.3180462"><ele>63.0</ele><time>2026-04-12T07:00:36.027Z</time></trkpt><trkpt lat="43.8844298" lon="10.3180076"><ele>63.0</ele><time>2026-04-12T07:00:37.028Z</time></trkpt><trkpt lat="43.8843559" lon="10.3178951"><ele>63.5</ele><time>2026-04-12T07:00:39.031Z</time></trkpt><trkpt lat="43.8843746" lon="10.3177166"><ele>64.0</ele><time>2026-04-12T07:00:41.034Z</time></trkpt><trkpt lat="43.8844098" lon="10.3175707"><ele>64.5</ele><time>2026-04-12T07:00:42.035Z</time></trkpt><trkpt lat="43.8844434" lon="10.317401"><ele>65.0</ele><time>2026-04-12T07:00:43.038Z</time></trkpt><trkpt lat="43.8844709" lon="10.3172254"><ele>62.4</ele><time>2026-04-12T07:00:44.036Z</time></trkpt><trkpt lat="43.884494" lon="10.3170654"><ele>59.8</ele><time>2026-04-12T07:00:45.037Z</time></trkpt><trkpt lat="43.8845043" lon="10.3169184"><ele>57.2</ele><time>2026-04-12T07:00:46.035Z</time></trkpt><trkpt lat="43.8845094" lon="10.3167929"><ele>54.6</ele><time>2026-04-12T07:00:47.034Z</time></trkpt><trkpt lat="43.8845279" lon="10.316702"><ele>52.0</ele><time>2026-04-12T07:00:48.033Z</time></trkpt><trkpt lat="43.8846186" lon="10.3166515"><ele>52.0</ele><time>2026-04-12T07:00:50.036Z</time></trkpt><trkpt lat="43.8846928" lon="10.3166833"><ele>52.0</ele><time>2026-04-12T07:00:51.036Z</time></trkpt><trkpt lat="43.8847789" lon="10.3167431"><ele>52.0</ele><time>2026-04-12T07:00:52.035Z</time></trkpt><trkpt lat="43.8848729" lon="10.3168145"><ele>52.0</ele><time>2026-04-12T07:00:53.037Z</time></trkpt><trkpt lat="43.8849728" lon="10.3168995"><ele>52.0</ele><time>2026-04-12T07:00:54.036Z</time></trkpt><trkpt lat="43.8850746" lon="10.3169905"><ele>53.0</ele><time>2026-04-12T07:00:55.037Z</time></trkpt><trkpt lat="43.8851717" lon="10.3170815"><ele>54.0</ele><time>2026-04-12T07:00:56.034Z</time></trkpt><trkpt lat="43.885263" lon="10.3171708"><ele>55.0</ele><time>2026-04-12T07:00:57.037Z</time></trkpt><trkpt lat="43.8853433" lon="10.3172462"><ele>56.0</ele><time>2026-04-12T07:00:58.036Z</time></trkpt><trkpt lat="43.8854128" lon="10.3173068"><ele>57.0</ele><time>2026-04-12T07:00:59.039Z</time></trkpt><trkpt lat="43.8854736" lon="10.3173502"><ele>59.5</ele><time>2026-04-12T07:01:00.036Z</time></trkpt><trkpt lat="43.8855408" lon="10.3173898"><ele>62.0</ele><time>2026-04-12T07:01:01.03Z</time></trkpt><trkpt lat="43.8856231" lon="10.3174227"><ele>64.5</ele><time>2026-04-12T07:01:02.031Z</time></trkpt><trkpt lat="43.8857074" lon="10.3174328"><ele>67.0</ele><time>2026-04-12T07:01:03.033Z</time></trkpt><trkpt lat="43.8857919" lon="10.3174266"><ele>69.5</ele><time>2026-04-12T07:01:04.033Z</time></trkpt><trkpt lat="43.8858747" lon="10.3174176"><ele>72.0</ele><time>2026-04-12T07:01:05.032Z</time></trkpt><trkpt lat="43.8859574" lon="10.3174188"><ele>72.0</ele><time>2026-04-12T07:01:06.032Z</time></trkpt><trkpt lat="43.8860347" lon="10.3174321"><ele>72.0</ele><time>2026-04-12T07:01:07.029Z</time></trkpt><trkpt lat="43.8861137" lon="10.3174546"><ele>72.0</ele><time>2026-04-12T07:01:08.031Z</time></trkpt><trkpt lat="43.8861978" lon="10.3174849"><ele>72.0</ele><time>2026-04-12T07:01:09.033Z</time></trkpt><trkpt lat="43.8862793" lon="10.3175188"><ele>72.0</ele><time>2026-04-12T07:01:10.032Z</time></trkpt><trkpt lat="43.8863424" lon="10.3175549"><ele>72.0</ele><time>2026-04-12T07:01:11.035Z</time></trkpt><trkpt lat="43.8864142" lon="10.3176267"><ele>72.0</ele><time>2026-04-12T07:01:13.03Z</time></trkpt><trkpt lat="43.8864574" lon="10.3177539"><ele>72.0</ele><time>2026-04-12T07:01:15.037Z</time></trkpt><trkpt lat="43.8864842" lon="10.3178416"><ele>72.0</ele><time>2026-04-12T07:01:16.039Z</time></trkpt><trkpt lat="43.8865133" lon="10.3179553"><ele>72.0</ele><time>2026-04-12T07:01:17.038Z</time></trkpt><trkpt lat="43.8865417" lon="10.3180803"><ele>72.0</ele><time>2026-04-12T07:01:18.036Z</time></trkpt><trkpt lat="43.8865695" lon="10.3182061"><ele>72.0</ele><time>2026-04-12T07:01:19.037Z</time></trkpt><trkpt lat="43.8866055" lon="10.3183201"><ele>71.0</ele><time>2026-04-12T07:01:20.038Z</time></trkpt><trkpt lat="43.8866477" lon="10.3184203"><ele>70.0</ele><time>2026-04-12T07:01:21.036Z</time></trkpt><trkpt lat="43.8866849" lon="10.3185141"><ele>69.0</ele><time>2026-04-12T07:01:22.037Z</time></trkpt><trkpt lat="43.886714" lon="10.3186175"><ele>68.0</ele><time>2026-04-12T07:01:23.038Z</time></trkpt><trkpt lat="43.8867455" lon="10.3187315"><ele>67.0</ele><time>2026-04-12T07:01:24.034Z</time></trkpt><trkpt lat="43.8867873" lon="10.3188587"><ele>66.0</ele><time>2026-04-12T07:01:25.036Z</time></trkpt><trkpt lat="43.8868323" lon="10.3189912"><ele>68.39999999999999</ele><time>2026-04-12T07:01:26.036Z</time></trkpt><trkpt lat="43.8868731" lon="10.3191262"><ele>70.8</ele><time>2026-04-12T07:01:27.038Z</time></trkpt><trkpt lat="43.8869191" lon="10.3192541"><ele>73.19999999999999</ele><time>2026-04-12T07:01:28.031Z</time></trkpt><trkpt lat="43.8869658" lon="10.3193723"><ele>75.6</ele><time>2026-04-12T07:01:29.035Z</time></trkpt><trkpt lat="43.8870086" lon="10.3194772"><ele>78.0</ele><time>2026-04-12T07:01:30.037Z</time></trkpt><trkpt lat="43.8870455" lon="10.3195729"><ele>78.0</ele><time>2026-04-12T07:01:31.031Z</time></trkpt><trkpt lat="43.8870803" lon="10.3197251"><ele>78.0</ele><time>2026-04-12T07:01:33.026Z</time></trkpt><trkpt lat="43.887103" lon="10.3198725"><ele>78.0</ele><time>2026-04-12T07:01:35.03Z</time></trkpt><trkpt lat="43.8871446" lon="10.3200109"><ele>78.0</ele><time>2026-04-12T07:01:37.029Z</time></trkpt><trkpt lat="43.887182" lon="10.3201448"><ele>78.0</ele><time>2026-04-12T07:01:39.03Z</time></trkpt><trkpt lat="43.8872304" lon="10.32027"><ele>80.83333333333333</ele><time>2026-04-12T07:01:41.034Z</time></trkpt><trkpt lat="43.8872927" lon="10.320364"><ele>83.66666666666667</ele><time>2026-04-12T07:01:43.037Z</time></trkpt><trkpt lat="43.8873854" lon="10.3204706"><ele>86.5</ele><time>2026-04-12T07:01:45.036Z</time></trkpt><trkpt lat="43.8874369" lon="10.3205217"><ele>89.33333333333334</ele><time>2026-04-12T07:01:46.037Z</time></trkpt><trkpt lat="43.8874956" lon="10.3205717"><ele>92.16666666666667</ele><time>2026-04-12T07:01:47.037Z</time></trkpt><trkpt lat="43.8875549" lon="10.3206196"><ele>95.0</ele><time>2026-04-12T07:01:48.037Z</time></trkpt><trkpt lat="43.8876153" lon="10.320667"><ele>97.0</ele><time>2026-04-12T07:01:49.039Z</time></trkpt><trkpt lat="43.8876708" lon="10.3207215"><ele>99.0</ele><time>2026-04-12T07:01:50.038Z</time></trkpt><trkpt lat="43.8877241" lon="10.3207836"><ele>101.0</ele><time>2026-04-12T07:01:51.032Z</time></trkpt><trkpt lat="43.887781" lon="10.3208467"><ele>103.0</ele><time>2026-04-12T07:01:52.036Z</time></trkpt><trkpt lat="43.8878443" lon="10.3209004"><ele>105.0</ele><time>2026-04-12T07:01:53.037Z</time></trkpt><trkpt lat="43.8879138" lon="10.3209428"><ele>107.0</ele><time>2026-04-12T07:01:54.038Z</time></trkpt><trkpt lat="43.8879834" lon="10.3209801"><ele>109.0</ele><time>2026-04-12T07:01:55.039Z</time></trkpt><trkpt lat="43.8880535" lon="10.3210125"><ele>109.0</ele><time>2026-04-12T07:01:56.037Z</time></trkpt><trkpt lat="43.888124" lon="10.321039"><ele>109.0</ele><time>2026-04-12T07:01:57.036Z</time></trkpt><trkpt lat="43.8881898" lon="10.3210664"><ele>109.0</ele><time>2026-04-12T07:01:58.036Z</time></trkpt><trkpt lat="43.8882542" lon="10.3210987"><ele>109.0</ele><time>2026-04-12T07:01:59.039Z</time></trkpt><trkpt lat="43.8883168" lon="10.32114"><ele>109.0</ele><time>2026-04-12T07:02:00.039Z</time></trkpt><trkpt lat="43.8883776" lon="10.3211884"><ele>109.0</ele><time>2026-04-12T07:02:01.032Z</time></trkpt><trkpt lat="43.8884301" lon="10.3212399"><ele>109.0</ele><time>2026-04-12T07:02:02.033Z</time></trkpt><trkpt lat="43.8885207" lon="10.3213025"><ele>109.00000000000001</ele><time>2026-04-12T07:02:04.033Z</time></trkpt><trkpt lat="43.8886253" lon="10.3212871"><ele>109.0</ele><time>2026-04-12T07:02:06.03Z</time></trkpt><trkpt lat="43.8887522" lon="10.3212877"><ele>109.0</ele><time>2026-04-12T07:02:08.031Z</time></trkpt><trkpt lat="43.8888145" lon="10.321303"><ele>109.0</ele><time>2026-04-12T07:02:09.031Z</time></trkpt><trkpt lat="43.8888762" lon="10.3213318"><ele>109.00000000000001</ele><time>2026-04-12T07:02:10.032Z</time></trkpt><trkpt lat="43.8889402" lon="10.32138"><ele>109.0</ele><time>2026-04-12T07:02:11.037Z</time></trkpt><trkpt lat="43.8890035" lon="10.3214455"><ele>108.16666666666667</ele><time>2026-04-12T07:02:12.037Z</time></trkpt><trkpt lat="43.8890665" lon="10.3215286"><ele>107.33333333333334</ele><time>2026-04-12T07:02:13.038Z</time></trkpt><trkpt lat="43.8891289" lon="10.3216255"><ele>106.5</ele><time>2026-04-12T07:02:14.039Z</time></trkpt><trkpt lat="43.8891912" lon="10.321725"><ele>105.66666666666666</ele><time>2026-04-12T07:02:15.038Z</time></trkpt><trkpt lat="43.8892457" lon="10.3218035"><ele>104.83333333333333</ele><time>2026-04-12T07:02:16.036Z</time></trkpt><trkpt lat="43.8892978" lon="10.3218703"><ele>104.0</ele><time>2026-04-12T07:02:17.038Z</time></trkpt><trkpt lat="43.8893756" lon="10.3219915"><ele>104.0</ele><time>2026-04-12T07:02:19.036Z</time></trkpt><trkpt lat="43.8893725" lon="10.322159"><ele>104.0</ele><time>2026-04-12T07:02:21.036Z</time></trkpt><trkpt lat="43.8893478" lon="10.3222605"><ele>104.0</ele><time>2026-04-12T07:02:22.036Z</time></trkpt><trkpt lat="43.8893244" lon="10.3223688"><ele>104.0</ele><time>2026-04-12T07:02:23.034Z</time></trkpt><trkpt lat="43.8892985" lon="10.3224656"><ele>104.0</ele><time>2026-04-12T07:02:24.035Z</time></trkpt><trkpt lat="43.8892653" lon="10.3226171"><ele>106.16666666666666</ele><time>2026-04-12T07:02:26.037Z</time></trkpt><trkpt lat="43.8892534" lon="10.3227187"><ele>108.33333333333333</ele><time>2026-04-12T07:02:28.039Z</time></trkpt><trkpt lat="43.8892519" lon="10.3228178"><ele>110.5</ele><time>2026-04-12T07:02:31.034Z</time></trkpt><trkpt lat="43.8892438" lon="10.3229507"><ele>112.66666666666666</ele><time>2026-04-12T07:02:43.042Z</time></trkpt><trkpt lat="43.8892498" lon="10.3230641"><ele>114.83333333333333</ele><time>2026-04-12T07:02:44.036Z</time></trkpt><trkpt lat="43.889266" lon="10.3231908"><ele>117.0</ele><time>2026-04-12T07:02:45.036Z</time></trkpt><trkpt lat="43.8892931" lon="10.3233033"><ele>117.0</ele><time>2026-04-12T07:02:46.037Z</time></trkpt><trkpt lat="43.8893297" lon="10.3234097"><ele>116.99999999999999</ele><time>2026-04-12T07:02:47.037Z</time></trkpt><trkpt lat="43.8893728" lon="10.3235114"><ele>116.99999999999999</ele><time>2026-04-12T07:02:48.036Z</time></trkpt><trkpt lat="43.8894107" lon="10.3236041"><ele>117.0</ele><time>2026-04-12T07:02:49.037Z</time></trkpt><trkpt lat="43.8894544" lon="10.3237608"><ele>117.0</ele><time>2026-04-12T07:02:51.035Z</time></trkpt><trkpt lat="43.8894864" lon="10.3239169"><ele>120.19999999999999</ele><time>2026-04-12T07:02:53.039Z</time></trkpt><trkpt lat="43.8895294" lon="10.3240896"><ele>123.39999999999999</ele><time>2026-04-12T07:02:55.035Z</time></trkpt><trkpt lat="43.8895562" lon="10.3241771"><ele>126.60000000000001</ele><time>2026-04-12T07:02:56.035Z</time></trkpt><trkpt lat="43.8895721" lon="10.3243344"><ele>129.8</ele><time>2026-04-12T07:02:58.036Z</time></trkpt><trkpt lat="43.8895092" lon="10.3244825"><ele>133.0</ele><time>2026-04-12T07:03:00.036Z</time></trkpt><trkpt lat="43.8894727" lon="10.3245836"><ele>133.0</ele><time>2026-04-12T07:03:01.034Z</time></trkpt><trkpt lat="43.8894431" lon="10.3246952"><ele>133.0</ele><time>2026-04-12T07:03:02.033Z</time></trkpt><trkpt lat="43.889409" lon="10.3248058"><ele>133.0</ele><time>2026-04-12T07:03:03.038Z</time></trkpt><trkpt lat="43.8893658" lon="10.3249035"><ele>133.0</ele><time>2026-04-12T07:03:04.033Z</time></trkpt><trkpt lat="43.8893162" lon="10.3249856"><ele>133.0</ele><time>2026-04-12T07:03:05.033Z</time></trkpt><trkpt lat="43.8892606" lon="10.3250407"><ele>133.0</ele><time>2026-04-12T07:03:06.033Z</time></trkpt><trkpt lat="43.8891948" lon="10.3250815"><ele>137.16666666666669</ele><time>2026-04-12T07:03:07.033Z</time></trkpt><trkpt lat="43.8891143" lon="10.3251205"><ele>141.33333333333334</ele><time>2026-04-12T07:03:08.034Z</time></trkpt><trkpt lat="43.8890333" lon="10.3251686"><ele>145.5</ele><time>2026-04-12T07:03:09.036Z</time></trkpt><trkpt lat="43.88895" lon="10.3252165"><ele>149.66666666666666</ele><time>2026-04-12T07:03:10.035Z</time></trkpt><trkpt lat="43.8888704" lon="10.3252603"><ele>153.83333333333331</ele><time>2026-04-12T07:03:11.035Z</time></trkpt><trkpt lat="43.888796" lon="10.3252985"><ele>158.0</ele><time>2026-04-12T07:03:12.034Z</time></trkpt><trkpt lat="43.8887337" lon="10.3253343"><ele>158.0</ele><time>2026-04-12T07:03:13.036Z</time></trkpt><trkpt lat="43.8886469" lon="10.3254344"><ele>158.0</ele><time>2026-04-12T07:03:15.037Z</time></trkpt><trkpt lat="43.8886081" lon="10.3255095"><ele>158.0</ele><time>2026-04-12T07:03:16.037Z</time></trkpt><trkpt lat="43.8885675" lon="10.325583"><ele>158.0</ele><time>2026-04-12T07:03:17.037Z</time></trkpt><trkpt lat="43.8885279" lon="10.325652"><ele>158.0</ele><time>2026-04-12T07:03:18.036Z</time></trkpt><trkpt lat="43.8884711" lon="10.3257727"><ele>158.0</ele><time>2026-04-12T07:03:20.037Z</time></trkpt><trkpt lat="43.888452" lon="10.3258853"><ele>161.5</ele><time>2026-04-12T07:03:22.035Z</time></trkpt><trkpt lat="43.8884187" lon="10.3259749"><ele>165.0</ele><time>2026-04-12T07:03:24.035Z</time></trkpt><trkpt lat="43.8883614" lon="10.3260568"><ele>168.5</ele><time>2026-04-12T07:03:26.034Z</time></trkpt><trkpt lat="43.8882998" lon="10.3261411"><ele>172.0</ele><time>2026-04-12T07:03:28.036Z</time></trkpt><trkpt lat="43.8882449" lon="10.3262369"><ele>175.5</ele><time>2026-04-12T07:03:30.037Z</time></trkpt><trkpt lat="43.8881908" lon="10.326356"><ele>179.0</ele><time>2026-04-12T07:03:32.036Z</time></trkpt><trkpt lat="43.8881325" lon="10.3265101"><ele>179.0</ele><time>2026-04-12T07:03:34.035Z</time></trkpt><trkpt lat="43.8880851" lon="10.3266584"><ele>179.0</ele><time>2026-04-12T07:03:36.036Z</time></trkpt><trkpt lat="43.8880636" lon="10.3268359"><ele>179.0</ele><time>2026-04-12T07:03:38.032Z</time></trkpt><trkpt lat="43.8880558" lon="10.3269287"><ele>179.0</ele><time>2026-04-12T07:03:39.035Z</time></trkpt><trkpt lat="43.8880444" lon="10.3270182"><ele>179.0</ele><time>2026-04-12T07:03:40.034Z</time></trkpt><trkpt lat="43.8880143" lon="10.3271941"><ele>178.5</ele><time>2026-04-12T07:03:42.034Z</time></trkpt><trkpt lat="43.888" lon="10.3272975"><ele>178.0</ele><time>2026-04-12T07:03:43.037Z</time></trkpt><trkpt lat="43.8879928" lon="10.3273976"><ele>177.5</ele><time>2026-04-12T07:03:44.037Z</time></trkpt><trkpt lat="43.8879918" lon="10.3274941"><ele>177.0</ele><time>2026-04-12T07:03:45.034Z</time></trkpt><trkpt lat="43.8879893" lon="10.3275864"><ele>176.5</ele><time>2026-04-12T07:03:46.035Z</time></trkpt><trkpt lat="43.8879636" lon="10.3277319"><ele>176.0</ele><time>2026-04-12T07:03:48.038Z</time></trkpt><trkpt lat="43.8879222" lon="10.3278186"><ele>176.0</ele><time>2026-04-12T07:03:50.041Z</time></trkpt><trkpt lat="43.8879047" lon="10.3279109"><ele>176.0</ele><time>2026-04-12T07:03:52.044Z</time></trkpt><trkpt lat="43.8879323" lon="10.3280415"><ele>176.0</ele><time>2026-04-12T07:03:54.04Z</time></trkpt><trkpt lat="43.8879653" lon="10.3281413"><ele>176.0</ele><time>2026-04-12T07:03:55.038Z</time></trkpt><trkpt lat="43.888007" lon="10.3282628"><ele>176.0</ele><time>2026-04-12T07:03:56.03Z</time></trkpt><trkpt lat="43.8880526" lon="10.3284033"><ele>177.0</ele><time>2026-04-12T07:03:57.038Z</time></trkpt><trkpt lat="43.8880992" lon="10.3285425"><ele>178.0</ele><time>2026-04-12T07:03:58.038Z</time></trkpt><trkpt lat="43.8881385" lon="10.3286684"><ele>179.0</ele><time>2026-04-12T07:03:59.04Z</time></trkpt><trkpt lat="43.8881645" lon="10.3287956"><ele>180.0</ele><time>2026-04-12T07:04:00.037Z</time></trkpt><trkpt lat="43.8881821" lon="10.3289345"><ele>181.0</ele><time>2026-04-12T07:04:01.034Z</time></trkpt><trkpt lat="43.8881995" lon="10.329083"><ele>181.60000000000002</ele><time>2026-04-12T07:04:02.037Z</time></trkpt><trkpt lat="43.8882151" lon="10.3292287"><ele>182.2</ele><time>2026-04-12T07:04:03.042Z</time></trkpt><trkpt lat="43.888234" lon="10.3293662"><ele>182.8</ele><time>2026-04-12T07:04:04.036Z</time></trkpt><trkpt lat="43.8882529" lon="10.3294902"><ele>183.39999999999998</ele><time>2026-04-12T07:04:05.035Z</time></trkpt><trkpt lat="43.8882693" lon="10.3296029"><ele>184.0</ele><time>2026-04-12T07:04:06.036Z</time></trkpt><trkpt lat="43.8882859" lon="10.329708"><ele>184.5</ele><time>2026-04-12T07:04:07.037Z</time></trkpt><trkpt lat="43.8883147" lon="10.3298064"><ele>185.0</ele><time>2026-04-12T07:04:08.036Z</time></trkpt><trkpt lat="43.8883628" lon="10.3299068"><ele>185.5</ele><time>2026-04-12T07:04:09.037Z</time></trkpt><trkpt lat="43.8884213" lon="10.3300089"><ele>186.0</ele><time>2026-04-12T07:04:10.037Z</time></trkpt><trkpt lat="43.8884782" lon="10.3301121"><ele>186.5</ele><time>2026-04-12T07:04:11.035Z</time></trkpt><trkpt lat="43.8885237" lon="10.3302187"><ele>187.0</ele><time>2026-04-12T07:04:12.029Z</time></trkpt><trkpt lat="43.8885496" lon="10.3303172"><ele>188.16666666666669</ele><time>2026-04-12T07:04:13.041Z</time></trkpt><trkpt lat="43.8885575" lon="10.330409"><ele>189.33333333333334</ele><time>2026-04-12T07:04:14.038Z</time></trkpt><trkpt lat="43.8886" lon="10.3305529"><ele>190.5</ele><time>2026-04-12T07:04:16.037Z</time></trkpt><trkpt lat="43.8886571" lon="10.3306114"><ele>191.66666666666669</ele><time>2026-04-12T07:04:17.036Z</time></trkpt><trkpt lat="43.8887231" lon="10.3306935"><ele>192.83333333333334</ele><time>2026-04-12T07:04:18.037Z</time></trkpt><trkpt lat="43.8887886" lon="10.3307824"><ele>194.0</ele><time>2026-04-12T07:04:19.036Z</time></trkpt><trkpt lat="43.888854" lon="10.3308822"><ele>194.0</ele><time>2026-04-12T07:04:20.038Z</time></trkpt><trkpt lat="43.8889145" lon="10.3309874"><ele>194.0</ele><time>2026-04-12T07:04:21.037Z</time></trkpt><trkpt lat="43.8889638" lon="10.3310892"><ele>194.0</ele><time>2026-04-12T07:04:22.036Z</time></trkpt><trkpt lat="43.8889937" lon="10.3311894"><ele>194.0</ele><time>2026-04-12T07:04:23.042Z</time></trkpt><trkpt lat="43.8889978" lon="10.3313113"><ele>194.0</ele><time>2026-04-12T07:04:24.038Z</time></trkpt><trkpt lat="43.8889831" lon="10.3314504"><ele>198.25</ele><time>2026-04-12T07:04:25.037Z</time></trkpt><trkpt lat="43.8889528" lon="10.3315873"><ele>202.5</ele><time>2026-04-12T07:04:26.037Z</time></trkpt><trkpt lat="43.8888997" lon="10.3317252"><ele>206.75</ele><time>2026-04-12T07:04:27.035Z</time></trkpt><trkpt lat="43.8888332" lon="10.3318683"><ele>211.0</ele><time>2026-04-12T07:04:28.035Z</time></trkpt><trkpt lat="43.8887723" lon="10.3320222"><ele>211.0</ele><time>2026-04-12T07:04:29.039Z</time></trkpt><trkpt lat="43.8887197" lon="10.3321818"><ele>211.0</ele><time>2026-04-12T07:04:30.037Z</time></trkpt><trkpt lat="43.8886768" lon="10.3323425"><ele>211.0</ele><time>2026-04-12T07:04:31.034Z</time></trkpt><trkpt lat="43.8886363" lon="10.3324941"><ele>211.0</ele><time>2026-04-12T07:04:32.033Z</time></trkpt><trkpt lat="43.8885883" lon="10.3326293"><ele>210.25</ele><time>2026-04-12T07:04:33.037Z</time></trkpt><trkpt lat="43.8885326" lon="10.3327531"><ele>209.5</ele><time>2026-04-12T07:04:34.036Z</time></trkpt><trkpt lat="43.888473" lon="10.3328865"><ele>208.75</ele><time>2026-04-12T07:04:35.037Z</time></trkpt><trkpt lat="43.8884242" lon="10.3330477"><ele>208.0</ele><time>2026-04-12T07:04:36.037Z</time></trkpt><trkpt lat="43.8883887" lon="10.3332328"><ele>208.0</ele><time>2026-04-12T07:04:37.035Z</time></trkpt><trkpt lat="43.888357" lon="10.333414"><ele>208.0</ele><time>2026-04-12T07:04:38.034Z</time></trkpt><trkpt lat="43.8883295" lon="10.3335615"><ele>208.0</ele><time>2026-04-12T07:04:39.029Z</time></trkpt><trkpt lat="43.8883138" lon="10.3336734"><ele>208.0</ele><time>2026-04-12T07:04:40.037Z</time></trkpt><trkpt lat="43.8883332" lon="10.333835"><ele>208.0</ele><time>2026-04-12T07:04:42.037Z</time></trkpt><trkpt lat="43.8883744" lon="10.3339116"><ele>209.0</ele><time>2026-04-12T07:04:43.045Z</time></trkpt><trkpt lat="43.8884413" lon="10.3339856"><ele>210.0</ele><time>2026-04-12T07:04:44.042Z</time></trkpt><trkpt lat="43.8885348" lon="10.3340401"><ele>211.0</ele><time>2026-04-12T07:04:45.04Z</time></trkpt><trkpt lat="43.8886642" lon="10.3340642"><ele>212.0</ele><time>2026-04-12T07:04:46.037Z</time></trkpt><trkpt lat="43.8888118" lon="10.3340693"><ele>212.0</ele><time>2026-04-12T07:04:47.036Z</time></trkpt><trkpt lat="43.8889643" lon="10.3340881"><ele>212.0</ele><time>2026-04-12T07:04:48.036Z</time></trkpt><trkpt lat="43.8891075" lon="10.3341282"><ele>212.0</ele><time>2026-04-12T07:04:49.031Z</time></trkpt><trkpt lat="43.8892239" lon="10.3341983"><ele>212.0</ele><time>2026-04-12T07:04:50.037Z</time></trkpt><trkpt lat="43.8893076" lon="10.3343124"><ele>214.0</ele><time>2026-04-12T07:04:51.037Z</time></trkpt><trkpt lat="43.8893686" lon="10.3344488"><ele>216.0</ele><time>2026-04-12T07:04:52.036Z</time></trkpt><trkpt lat="43.8894226" lon="10.3345728"><ele>218.0</ele><time>2026-04-12T07:04:53.038Z</time></trkpt><trkpt lat="43.8894704" lon="10.3346567"><ele>220.0</ele><time>2026-04-12T07:04:54.037Z</time></trkpt><trkpt lat="43.8895997" lon="10.3346748"><ele>222.0</ele><time>2026-04-12T07:04:56.039Z</time></trkpt><trkpt lat="43.8897012" lon="10.3346076"><ele>222.0</ele><time>2026-04-12T07:04:57.037Z</time></trkpt><trkpt lat="43.8898166" lon="10.3345181"><ele>222.0</ele><time>2026-04-12T07:04:58.034Z</time></trkpt><trkpt lat="43.8899224" lon="10.3344256"><ele>222.0</ele><time>2026-04-12T07:04:59.035Z</time></trkpt><trkpt lat="43.890026" lon="10.334361"><ele>222.0</ele><time>2026-04-12T07:05:00.036Z</time></trkpt><trkpt lat="43.890135" lon="10.3343314"><ele>224.25</ele><time>2026-04-12T07:05:01.033Z</time></trkpt><trkpt lat="43.8902538" lon="10.3343566"><ele>226.5</ele><time>2026-04-12T07:05:02.033Z</time></trkpt><trkpt lat="43.8903716" lon="10.3344479"><ele>228.75</ele><time>2026-04-12T07:05:03.034Z</time></trkpt><trkpt lat="43.8904811" lon="10.3345502"><ele>231.0</ele><time>2026-04-12T07:05:04.03Z</time></trkpt><trkpt lat="43.8905929" lon="10.3346463"><ele>224.75</ele><time>2026-04-12T07:05:05.031Z</time></trkpt><trkpt lat="43.890709" lon="10.3347249"><ele>218.5</ele><time>2026-04-12T07:05:06.033Z</time></trkpt><trkpt lat="43.8908281" lon="10.3347881"><ele>212.25</ele><time>2026-04-12T07:05:07.03Z</time></trkpt><trkpt lat="43.8909518" lon="10.3348311"><ele>206.0</ele><time>2026-04-12T07:05:08.03Z</time></trkpt><trkpt lat="43.8910802" lon="10.3348511"><ele>206.00000000000003</ele><time>2026-04-12T07:05:09.03Z</time></trkpt><trkpt lat="43.8911981" lon="10.3348488"><ele>206.0</ele><time>2026-04-12T07:05:10.03Z</time></trkpt><trkpt lat="43.8913015" lon="10.3348399"><ele>206.0</ele><time>2026-04-12T07:05:11.03Z</time></trkpt><trkpt lat="43.8913838" lon="10.334837"><ele>206.0</ele><time>2026-04-12T07:05:12.035Z</time></trkpt><trkpt lat="43.8914545" lon="10.3348488"><ele>206.00000000000003</ele><time>2026-04-12T07:05:13.036Z</time></trkpt><trkpt lat="43.8915225" lon="10.3348789"><ele>206.0</ele><time>2026-04-12T07:05:14.036Z</time></trkpt><trkpt lat="43.8915954" lon="10.3349521"><ele>206.0</ele><time>2026-04-12T07:05:15.029Z</time></trkpt><trkpt lat="43.8916814" lon="10.3350441"><ele>206.0</ele><time>2026-04-12T07:05:16.037Z</time></trkpt><trkpt lat="43.8917813" lon="10.3351133"><ele>206.0</ele><time>2026-04-12T07:05:17.038Z</time></trkpt><trkpt lat="43.8918848" lon="10.3351544"><ele>206.0</ele><time>2026-04-12T07:05:18.037Z</time></trkpt><trkpt lat="43.8919767" lon="10.3351841"><ele>206.0</ele><time>2026-04-12T07:05:19.037Z</time></trkpt><trkpt lat="43.892058" lon="10.3352285"><ele>202.33333333333334</ele><time>2026-04-12T07:05:20.038Z</time></trkpt><trkpt lat="43.8921324" lon="10.3352931"><ele>198.66666666666669</ele><time>2026-04-12T07:05:21.039Z</time></trkpt><trkpt lat="43.8921977" lon="10.3353671"><ele>195.0</ele><time>2026-04-12T07:05:23.037Z</time></trkpt><trkpt lat="43.8922866" lon="10.3354109"><ele>191.33333333333334</ele><time>2026-04-12T07:05:25.038Z</time></trkpt><trkpt lat="43.8923635" lon="10.3354347"><ele>187.66666666666669</ele><time>2026-04-12T07:05:26.035Z</time></trkpt><trkpt lat="43.8924445" lon="10.3354746"><ele>184.0</ele><time>2026-04-12T07:05:27.037Z</time></trkpt><trkpt lat="43.8925244" lon="10.3355458"><ele>184.2</ele><time>2026-04-12T07:05:28.038Z</time></trkpt><trkpt lat="43.8925928" lon="10.3356326"><ele>184.39999999999998</ele><time>2026-04-12T07:05:29.035Z</time></trkpt><trkpt lat="43.8926433" lon="10.3357559"><ele>184.6</ele><time>2026-04-12T07:05:30.037Z</time></trkpt><trkpt lat="43.8926933" lon="10.335897"><ele>184.8</ele><time>2026-04-12T07:05:31.037Z</time></trkpt><trkpt lat="43.8927361" lon="10.3360502"><ele>185.0</ele><time>2026-04-12T07:05:32.034Z</time></trkpt><trkpt lat="43.8927838" lon="10.3362214"><ele>190.75</ele><time>2026-04-12T07:05:33.035Z</time></trkpt><trkpt lat="43.8928338" lon="10.3364065"><ele>196.5</ele><time>2026-04-12T07:05:34.035Z</time></trkpt><trkpt lat="43.8928996" lon="10.3365728"><ele>202.25</ele><time>2026-04-12T07:05:35.036Z</time></trkpt><trkpt lat="43.8929879" lon="10.3367161"><ele>208.0</ele><time>2026-04-12T07:05:36.035Z</time></trkpt><trkpt lat="43.8931051" lon="10.3368316"><ele>208.0</ele><time>2026-04-12T07:05:37.036Z</time></trkpt><trkpt lat="43.8932316" lon="10.3369302"><ele>208.0</ele><time>2026-04-12T07:05:38.034Z</time></trkpt><trkpt lat="43.89336" lon="10.3370262"><ele>208.0</ele><time>2026-04-12T07:05:39.034Z</time></trkpt><trkpt lat="43.8934843" lon="10.3371292"><ele>208.0</ele><time>2026-04-12T07:05:40.034Z</time></trkpt><trkpt lat="43.8935825" lon="10.337239"><ele>213.0</ele><time>2026-04-12T07:05:41.034Z</time></trkpt><trkpt lat="43.8936542" lon="10.3373745"><ele>218.0</ele><time>2026-04-12T07:05:42.032Z</time></trkpt><trkpt lat="43.8937218" lon="10.3375346"><ele>223.0</ele><time>2026-04-12T07:05:43.036Z</time></trkpt><trkpt lat="43.8938005" lon="10.3377065"><ele>228.0</ele><time>2026-04-12T07:05:44.03Z</time></trkpt><trkpt lat="43.8938774" lon="10.3378799"><ele>227.0</ele><time>2026-04-12T07:05:45.027Z</time></trkpt><trkpt lat="43.8939523" lon="10.3380585"><ele>226.0</ele><time>2026-04-12T07:05:46.035Z</time></trkpt><trkpt lat="43.894028" lon="10.3382336"><ele>225.0</ele><time>2026-04-12T07:05:47.03Z</time></trkpt><trkpt lat="43.8941114" lon="10.3383987"><ele>224.0</ele><time>2026-04-12T07:05:48.033Z</time></trkpt><trkpt lat="43.8941881" lon="10.3385437"><ele>224.6</ele><time>2026-04-12T07:05:49.033Z</time></trkpt><trkpt lat="43.894257" lon="10.3386649"><ele>225.2</ele><time>2026-04-12T07:05:50.033Z</time></trkpt><trkpt lat="43.8943139" lon="10.3387792"><ele>225.79999999999998</ele><time>2026-04-12T07:05:51.033Z</time></trkpt><trkpt lat="43.8943662" lon="10.3388769"><ele>226.39999999999998</ele><time>2026-04-12T07:05:52.032Z</time></trkpt><trkpt lat="43.8944092" lon="10.3389705"><ele>227.0</ele><time>2026-04-12T07:05:53.033Z</time></trkpt><trkpt lat="43.8944385" lon="10.3390723"><ele>227.0</ele><time>2026-04-12T07:05:54.032Z</time></trkpt><trkpt lat="43.8944584" lon="10.339196"><ele>227.0</ele><time>2026-04-12T07:05:55.034Z</time></trkpt><trkpt lat="43.8944797" lon="10.3393382"><ele>227.0</ele><time>2026-04-12T07:05:56.036Z</time></trkpt><trkpt lat="43.8945164" lon="10.3394661"><ele>227.0</ele><time>2026-04-12T07:05:57.035Z</time></trkpt><trkpt lat="43.8945503" lon="10.3395912"><ele>227.0</ele><time>2026-04-12T07:05:58.034Z</time></trkpt><trkpt lat="43.8945671" lon="10.339726"><ele>226.39999999999998</ele><time>2026-04-12T07:05:59.033Z</time></trkpt><trkpt lat="43.8945602" lon="10.339851"><ele>225.79999999999998</ele><time>2026-04-12T07:06:00.035Z</time></trkpt><trkpt lat="43.8945249" lon="10.3399552"><ele>225.2</ele><time>2026-04-12T07:06:01.034Z</time></trkpt><trkpt lat="43.8944623" lon="10.3400428"><ele>224.6</ele><time>2026-04-12T07:06:02.033Z</time></trkpt><trkpt lat="43.8943777" lon="10.3401432"><ele>224.0</ele><time>2026-04-12T07:06:03.034Z</time></trkpt><trkpt lat="43.894284" lon="10.34025"><ele>226.0</ele><time>2026-04-12T07:06:04.033Z</time></trkpt><trkpt lat="43.8941872" lon="10.3403759"><ele>228.0</ele><time>2026-04-12T07:06:05.034Z</time></trkpt><trkpt lat="43.8940909" lon="10.3405074"><ele>230.0</ele><time>2026-04-12T07:06:06.034Z</time></trkpt><trkpt lat="43.8939925" lon="10.340645"><ele>232.0</ele><time>2026-04-12T07:06:07.035Z</time></trkpt><trkpt lat="43.8938931" lon="10.3407782"><ele>232.75</ele><time>2026-04-12T07:06:08.034Z</time></trkpt><trkpt lat="43.8937972" lon="10.3409062"><ele>233.5</ele><time>2026-04-12T07:06:09.035Z</time></trkpt><trkpt lat="43.8937127" lon="10.3410432"><ele>234.25</ele><time>2026-04-12T07:06:10.034Z</time></trkpt><trkpt lat="43.8936433" lon="10.3412064"><ele>235.0</ele><time>2026-04-12T07:06:11.036Z</time></trkpt><trkpt lat="43.8935765" lon="10.3413775"><ele>236.75</ele><time>2026-04-12T07:06:12.035Z</time></trkpt><trkpt lat="43.8935134" lon="10.3415518"><ele>238.5</ele><time>2026-04-12T07:06:13.037Z</time></trkpt><trkpt lat="43.8934554" lon="10.3417243"><ele>240.25</ele><time>2026-04-12T07:06:14.036Z</time></trkpt><trkpt lat="43.8933949" lon="10.3418973"><ele>242.0</ele><time>2026-04-12T07:06:15.034Z</time></trkpt><trkpt lat="43.8933399" lon="10.3420666"><ele>246.0</ele><time>2026-04-12T07:06:16.029Z</time></trkpt><trkpt lat="43.8932929" lon="10.3422235"><ele>250.0</ele><time>2026-04-12T07:06:17.035Z</time></trkpt><trkpt lat="43.8932494" lon="10.3423525"><ele>254.0</ele><time>2026-04-12T07:06:18.035Z</time></trkpt><trkpt lat="43.8932079" lon="10.3424401"><ele>258.0</ele><time>2026-04-12T07:06:19.034Z</time></trkpt><trkpt lat="43.8931469" lon="10.3424962"><ele>262.0</ele><time>2026-04-12T07:06:20.038Z</time></trkpt><trkpt lat="43.8930483" lon="10.3425265"><ele>262.0</ele><time>2026-04-12T07:06:21.039Z</time></trkpt><trkpt lat="43.8929345" lon="10.3425115"><ele>262.0</ele><time>2026-04-12T07:06:22.042Z</time></trkpt><trkpt lat="43.8928227" lon="10.3424558"><ele>262.0</ele><time>2026-04-12T07:06:23.039Z</time></trkpt><trkpt lat="43.8927191" lon="10.3423624"><ele>262.0</ele><time>2026-04-12T07:06:24.044Z</time></trkpt><trkpt lat="43.8926394" lon="10.3422747"><ele>262.0</ele><time>2026-04-12T07:06:25.044Z</time></trkpt><trkpt lat="43.8925744" lon="10.3422254"><ele>262.0</ele><time>2026-04-12T07:06:26.041Z</time></trkpt><trkpt lat="43.8924983" lon="10.3422941"><ele>262.0</ele><time>2026-04-12T07:06:28.038Z</time></trkpt><trkpt lat="43.8925209" lon="10.3423853"><ele>262.0</ele><time>2026-04-12T07:06:29.043Z</time></trkpt><trkpt lat="43.8925784" lon="10.3424852"><ele>262.0</ele><time>2026-04-12T07:06:30.038Z</time></trkpt><trkpt lat="43.8926762" lon="10.3425941"><ele>262.0</ele><time>2026-04-12T07:06:31.033Z</time></trkpt><trkpt lat="43.892794" lon="10.3426808"><ele>262.0</ele><time>2026-04-12T07:06:32.034Z</time></trkpt><trkpt lat="43.8929041" lon="10.3427402"><ele>262.0</ele><time>2026-04-12T07:06:33.035Z</time></trkpt><trkpt lat="43.8929784" lon="10.3427731"><ele>262.0</ele><time>2026-04-12T07:06:34.034Z</time></trkpt><trkpt lat="43.8928396" lon="10.3427735"><ele>262.0</ele><time>2026-04-12T07:06:38.035Z</time></trkpt><trkpt lat="43.8927506" lon="10.342716"><ele>262.0</ele><time>2026-04-12T07:06:39.037Z</time></trkpt><trkpt lat="43.8926604" lon="10.3426286"><ele>262.0</ele><time>2026-04-12T07:06:40.035Z</time></trkpt><trkpt lat="43.8925609" lon="10.3425314"><ele>262.0</ele><time>2026-04-12T07:06:41.034Z</time></trkpt><trkpt lat="43.892454" lon="10.3424651"><ele>262.0</ele><time>2026-04-12T07:06:42.038Z</time></trkpt><trkpt lat="43.8923528" lon="10.342456"><ele>263.75</ele><time>2026-04-12T07:06:43.037Z</time></trkpt><trkpt lat="43.8922486" lon="10.3425076"><ele>265.5</ele><time>2026-04-12T07:06:44.037Z</time></trkpt><trkpt lat="43.8921468" lon="10.3426253"><ele>267.25</ele><time>2026-04-12T07:06:45.028Z</time></trkpt><trkpt lat="43.8920502" lon="10.3427684"><ele>269.0</ele><time>2026-04-12T07:06:46.038Z</time></trkpt><trkpt lat="43.8919489" lon="10.3428888"><ele>269.0</ele><time>2026-04-12T07:06:47.04Z</time></trkpt><trkpt lat="43.8918555" lon="10.3429713"><ele>269.0</ele><time>2026-04-12T07:06:48.039Z</time></trkpt><trkpt lat="43.8917509" lon="10.3430181"><ele>269.0</ele><time>2026-04-12T07:06:49.041Z</time></trkpt><trkpt lat="43.891642" lon="10.3430241"><ele>269.0</ele><time>2026-04-12T07:06:50.036Z</time></trkpt><trkpt lat="43.891537" lon="10.3429836"><ele>269.0</ele><time>2026-04-12T07:06:51.035Z</time></trkpt><trkpt lat="43.8914382" lon="10.3429197"><ele>270.2</ele><time>2026-04-12T07:06:52.035Z</time></trkpt><trkpt lat="43.8913435" lon="10.3428384"><ele>271.4</ele><time>2026-04-12T07:06:53.037Z</time></trkpt><trkpt lat="43.8912639" lon="10.3427634"><ele>272.6</ele><time>2026-04-12T07:06:54.034Z</time></trkpt><trkpt lat="43.8912042" lon="10.3426936"><ele>273.8</ele><time>2026-04-12T07:06:55.035Z</time></trkpt><trkpt lat="43.8911451" lon="10.3425996"><ele>275.0</ele><time>2026-04-12T07:06:57.034Z</time></trkpt><trkpt lat="43.8910958" lon="10.3426887"><ele>275.0</ele><time>2026-04-12T07:07:00.039Z</time></trkpt><trkpt lat="43.891124" lon="10.3428045"><ele>275.0</ele><time>2026-04-12T07:07:02.037Z</time></trkpt><trkpt lat="43.8911855" lon="10.3429071"><ele>275.0</ele><time>2026-04-12T07:07:04.037Z</time></trkpt><trkpt lat="43.8912461" lon="10.3429907"><ele>275.0</ele><time>2026-04-12T07:07:06.037Z</time></trkpt><trkpt lat="43.8912906" lon="10.3430925"><ele>275.0</ele><time>2026-04-12T07:07:08.028Z</time></trkpt><trkpt lat="43.8913252" lon="10.3432143"><ele>282.0</ele><time>2026-04-12T07:07:10.038Z</time></trkpt><trkpt lat="43.891326" lon="10.3433656"><ele>289.0</ele><time>2026-04-12T07:07:12.036Z</time></trkpt><trkpt lat="43.891281" lon="10.3435451"><ele>296.0</ele><time>2026-04-12T07:07:14.036Z</time></trkpt><trkpt lat="43.8912438" lon="10.3436838"><ele>303.0</ele><time>2026-04-12T07:07:15.038Z</time></trkpt><trkpt lat="43.8912043" lon="10.3438561"><ele>308.75</ele><time>2026-04-12T07:07:16.037Z</time></trkpt><trkpt lat="43.8911643" lon="10.344042"><ele>314.5</ele><time>2026-04-12T07:07:17.036Z</time></trkpt><trkpt lat="43.8911192" lon="10.3442254"><ele>320.25</ele><time>2026-04-12T07:07:18.036Z</time></trkpt><trkpt lat="43.8910652" lon="10.3444002"><ele>326.0</ele><time>2026-04-12T07:07:19.036Z</time></trkpt><trkpt lat="43.8910103" lon="10.3445651"><ele>327.8</ele><time>2026-04-12T07:07:20.038Z</time></trkpt><trkpt lat="43.8909728" lon="10.3447188"><ele>329.6</ele><time>2026-04-12T07:07:21.038Z</time></trkpt><trkpt lat="43.8909522" lon="10.3448666"><ele>331.4</ele><time>2026-04-12T07:07:22.036Z</time></trkpt><trkpt lat="43.8909556" lon="10.3450117"><ele>333.2</ele><time>2026-04-12T07:07:23.037Z</time></trkpt><trkpt lat="43.8909939" lon="10.3451596"><ele>335.0</ele><time>2026-04-12T07:07:24.036Z</time></trkpt><trkpt lat="43.891054" lon="10.3453"><ele>335.0</ele><time>2026-04-12T07:07:25.034Z</time></trkpt><trkpt lat="43.8911161" lon="10.3454216"><ele>335.0</ele><time>2026-04-12T07:07:26.037Z</time></trkpt><trkpt lat="43.8911535" lon="10.3455137"><ele>335.0</ele><time>2026-04-12T07:07:27.037Z</time></trkpt><trkpt lat="43.8911802" lon="10.3456023"><ele>335.0</ele><time>2026-04-12T07:07:29.037Z</time></trkpt><trkpt lat="43.8911012" lon="10.3457366"><ele>335.0</ele><time>2026-04-12T07:07:31.039Z</time></trkpt><trkpt lat="43.8910241" lon="10.345858"><ele>332.0</ele><time>2026-04-12T07:07:32.036Z</time></trkpt><trkpt lat="43.8909378" lon="10.3460309"><ele>329.0</ele><time>2026-04-12T07:07:33.039Z</time></trkpt><trkpt lat="43.8908572" lon="10.3462143"><ele>326.0</ele><time>2026-04-12T07:07:34.039Z</time></trkpt><trkpt lat="43.8907757" lon="10.3464053"><ele>326.0</ele><time>2026-04-12T07:07:35.037Z</time></trkpt><trkpt lat="43.8906964" lon="10.3465812"><ele>326.0</ele><time>2026-04-12T07:07:36.036Z</time></trkpt><trkpt lat="43.8906242" lon="10.3467531"><ele>326.0</ele><time>2026-04-12T07:07:37.038Z</time></trkpt><trkpt lat="43.8905562" lon="10.3469325"><ele>326.0</ele><time>2026-04-12T07:07:38.04Z</time></trkpt><trkpt lat="43.8904958" lon="10.3471129"><ele>326.0</ele><time>2026-04-12T07:07:39.038Z</time></trkpt><trkpt lat="43.8904418" lon="10.3472946"><ele>326.0</ele><time>2026-04-12T07:07:40.036Z</time></trkpt><trkpt lat="43.8903904" lon="10.34748"><ele>326.0</ele><time>2026-04-12T07:07:41.041Z</time></trkpt><trkpt lat="43.890346" lon="10.3476592"><ele>326.0</ele><time>2026-04-12T07:07:42.038Z</time></trkpt><trkpt lat="43.8903065" lon="10.347815"><ele>326.0</ele><time>2026-04-12T07:07:43.041Z</time></trkpt><trkpt lat="43.8902678" lon="10.3479556"><ele>326.0</ele><time>2026-04-12T07:07:44.036Z</time></trkpt><trkpt lat="43.8902167" lon="10.3480943"><ele>326.0</ele><time>2026-04-12T07:07:45.036Z</time></trkpt><trkpt lat="43.8901401" lon="10.3482321"><ele>326.0</ele><time>2026-04-12T07:07:46.037Z</time></trkpt><trkpt lat="43.890038" lon="10.3483472"><ele>327.25</ele><time>2026-04-12T07:07:47.039Z</time></trkpt><trkpt lat="43.88993" lon="10.3484659"><ele>328.5</ele><time>2026-04-12T07:07:48.038Z</time></trkpt><trkpt lat="43.8898211" lon="10.3485924"><ele>329.75</ele><time>2026-04-12T07:07:49.038Z</time></trkpt><trkpt lat="43.8897153" lon="10.3487226"><ele>331.0</ele><time>2026-04-12T07:07:50.039Z</time></trkpt><trkpt lat="43.8896206" lon="10.3488598"><ele>330.5</ele><time>2026-04-12T07:07:51.04Z</time></trkpt><trkpt lat="43.8895458" lon="10.3490079"><ele>330.0</ele><time>2026-04-12T07:07:52.04Z</time></trkpt><trkpt lat="43.8894912" lon="10.349166"><ele>329.5</ele><time>2026-04-12T07:07:53.045Z</time></trkpt><trkpt lat="43.8894386" lon="10.3493182"><ele>329.0</ele><time>2026-04-12T07:07:54.037Z</time></trkpt><trkpt lat="43.8893741" lon="10.3494577"><ele>329.0</ele><time>2026-04-12T07:07:55.038Z</time></trkpt><trkpt lat="43.8892963" lon="10.349597"><ele>329.0</ele><time>2026-04-12T07:07:56.036Z</time></trkpt><trkpt lat="43.8892093" lon="10.3497183"><ele>329.0</ele><time>2026-04-12T07:07:57.036Z</time></trkpt><trkpt lat="43.8891168" lon="10.3498235"><ele>329.0</ele><time>2026-04-12T07:07:58.037Z</time></trkpt><trkpt lat="43.889018" lon="10.3499245"><ele>333.75</ele><time>2026-04-12T07:07:59.038Z</time></trkpt><trkpt lat="43.8889269" lon="10.3500252"><ele>338.5</ele><time>2026-04-12T07:08:00.037Z</time></trkpt><trkpt lat="43.8888515" lon="10.3501313"><ele>343.25</ele><time>2026-04-12T07:08:01.036Z</time></trkpt><trkpt lat="43.8887801" lon="10.350245"><ele>348.0</ele><time>2026-04-12T07:08:02.038Z</time></trkpt><trkpt lat="43.8887169" lon="10.3503838"><ele>348.0</ele><time>2026-04-12T07:08:03.038Z</time></trkpt><trkpt lat="43.8886538" lon="10.350538"><ele>348.0</ele><time>2026-04-12T07:08:04.036Z</time></trkpt><trkpt lat="43.8885922" lon="10.3507075"><ele>348.0</ele><time>2026-04-12T07:08:05.037Z</time></trkpt><trkpt lat="43.8885376" lon="10.3508846"><ele>348.0</ele><time>2026-04-12T07:08:06.037Z</time></trkpt><trkpt lat="43.8884889" lon="10.3510685"><ele>348.75</ele><time>2026-04-12T07:08:07.037Z</time></trkpt><trkpt lat="43.8884474" lon="10.3512437"><ele>349.5</ele><time>2026-04-12T07:08:08.036Z</time></trkpt><trkpt lat="43.8884152" lon="10.3514099"><ele>350.25</ele><time>2026-04-12T07:08:09.038Z</time></trkpt><trkpt lat="43.8884046" lon="10.3515687"><ele>351.0</ele><time>2026-04-12T07:08:10.038Z</time></trkpt><trkpt lat="43.8884095" lon="10.351727"><ele>355.6</ele><time>2026-04-12T07:08:11.038Z</time></trkpt><trkpt lat="43.8884125" lon="10.3518704"><ele>360.20000000000005</ele><time>2026-04-12T07:08:12.04Z</time></trkpt><trkpt lat="43.8884076" lon="10.3519973"><ele>364.79999999999995</ele><time>2026-04-12T07:08:13.03Z</time></trkpt><trkpt lat="43.8884082" lon="10.3521213"><ele>369.4</ele><time>2026-04-12T07:08:14.039Z</time></trkpt><trkpt lat="43.888424" lon="10.3522419"><ele>374.0</ele><time>2026-04-12T07:08:15.038Z</time></trkpt><trkpt lat="43.8884704" lon="10.3523474"><ele>375.0</ele><time>2026-04-12T07:08:16.036Z</time></trkpt><trkpt lat="43.8885301" lon="10.352447"><ele>376.0</ele><time>2026-04-12T07:08:17.036Z</time></trkpt><trkpt lat="43.8885879" lon="10.3525499"><ele>377.0</ele><time>2026-04-12T07:08:18.035Z</time></trkpt><trkpt lat="43.8886296" lon="10.352649"><ele>378.0</ele><time>2026-04-12T07:08:19.037Z</time></trkpt><trkpt lat="43.8886526" lon="10.3527352"><ele>379.0</ele><time>2026-04-12T07:08:20.035Z</time></trkpt><trkpt lat="43.8887315" lon="10.3528437"><ele>380.0</ele><time>2026-04-12T07:08:22.038Z</time></trkpt><trkpt lat="43.8888047" lon="10.3528504"><ele>380.0</ele><time>2026-04-12T07:08:23.038Z</time></trkpt><trkpt lat="43.8889038" lon="10.3528314"><ele>380.0</ele><time>2026-04-12T07:08:24.035Z</time></trkpt><trkpt lat="43.8890174" lon="10.3528108"><ele>380.0</ele><time>2026-04-12T07:08:25.035Z</time></trkpt><trkpt lat="43.8891311" lon="10.3527817"><ele>380.0</ele><time>2026-04-12T07:08:26.036Z</time></trkpt><trkpt lat="43.8892467" lon="10.3527305"><ele>380.4</ele><time>2026-04-12T07:08:27.036Z</time></trkpt><trkpt lat="43.8893631" lon="10.3526576"><ele>380.8</ele><time>2026-04-12T07:08:28.037Z</time></trkpt><trkpt lat="43.8894623" lon="10.3525862"><ele>381.20000000000005</ele><time>2026-04-12T07:08:29.041Z</time></trkpt><trkpt lat="43.8895436" lon="10.3525367"><ele>381.6</ele><time>2026-04-12T07:08:30.041Z</time></trkpt><trkpt lat="43.8896206" lon="10.3525079"><ele>382.0</ele><time>2026-04-12T07:08:31.038Z</time></trkpt><trkpt lat="43.8897104" lon="10.3525125"><ele>382.0</ele><time>2026-04-12T07:08:32.041Z</time></trkpt><trkpt lat="43.8898212" lon="10.3525499"><ele>382.0</ele><time>2026-04-12T07:08:33.033Z</time></trkpt><trkpt lat="43.8899411" lon="10.3525889"><ele>382.0</ele><time>2026-04-12T07:08:34.035Z</time></trkpt><trkpt lat="43.890046" lon="10.352624"><ele>382.0</ele><time>2026-04-12T07:08:35.039Z</time></trkpt><trkpt lat="43.8901383" lon="10.3526741"><ele>382.0</ele><time>2026-04-12T07:08:36.039Z</time></trkpt><trkpt lat="43.8902039" lon="10.3527361"><ele>380.40000000000003</ele><time>2026-04-12T07:08:37.041Z</time></trkpt><trkpt lat="43.8901883" lon="10.3528973"><ele>378.8</ele><time>2026-04-12T07:08:39.041Z</time></trkpt><trkpt lat="43.8901177" lon="10.3529874"><ele>377.2</ele><time>2026-04-12T07:08:40.04Z</time></trkpt><trkpt lat="43.8900426" lon="10.3530869"><ele>375.6</ele><time>2026-04-12T07:08:41.039Z</time></trkpt><trkpt lat="43.8899957" lon="10.3532209"><ele>374.0</ele><time>2026-04-12T07:08:42.04Z</time></trkpt><trkpt lat="43.8899865" lon="10.3533737"><ele>379.0</ele><time>2026-04-12T07:08:43.042Z</time></trkpt><trkpt lat="43.8900004" lon="10.3535344"><ele>384.0</ele><time>2026-04-12T07:08:44.04Z</time></trkpt><trkpt lat="43.8900132" lon="10.3537019"><ele>389.0</ele><time>2026-04-12T07:08:45.037Z</time></trkpt><trkpt lat="43.8900171" lon="10.3538669"><ele>394.0</ele><time>2026-04-12T07:08:46.038Z</time></trkpt><trkpt lat="43.890011" lon="10.3540094"><ele>393.6666666666667</ele><time>2026-04-12T07:08:47.036Z</time></trkpt><trkpt lat="43.8899975" lon="10.3541197"><ele>393.33333333333337</ele><time>2026-04-12T07:08:48.038Z</time></trkpt><trkpt lat="43.8899877" lon="10.3542199"><ele>393.0</ele><time>2026-04-12T07:08:49.039Z</time></trkpt><trkpt lat="43.8900843" lon="10.3543317"><ele>392.66666666666663</ele><time>2026-04-12T07:08:51.032Z</time></trkpt><trkpt lat="43.890168" lon="10.3543475"><ele>392.3333333333333</ele><time>2026-04-12T07:08:52.036Z</time></trkpt><trkpt lat="43.8902474" lon="10.3543585"><ele>392.0</ele><time>2026-04-12T07:08:53.037Z</time></trkpt><trkpt lat="43.8903135" lon="10.3543819"><ele>391.99999999999994</ele><time>2026-04-12T07:08:54.039Z</time></trkpt><trkpt lat="43.8903671" lon="10.3544318"><ele>392.0</ele><time>2026-04-12T07:08:55.036Z</time></trkpt><trkpt lat="43.8904064" lon="10.354508"><ele>392.0</ele><time>2026-04-12T07:08:56.037Z</time></trkpt><trkpt lat="43.8904348" lon="10.3546246"><ele>392.0</ele><time>2026-04-12T07:08:57.04Z</time></trkpt><trkpt lat="43.8904668" lon="10.3547768"><ele>391.99999999999994</ele><time>2026-04-12T07:08:58.037Z</time></trkpt><trkpt lat="43.8905088" lon="10.3549208"><ele>392.0</ele><time>2026-04-12T07:08:59.038Z</time></trkpt><trkpt lat="43.8905557" lon="10.3550406"><ele>390.8333333333333</ele><time>2026-04-12T07:09:00.037Z</time></trkpt><trkpt lat="43.8906189" lon="10.355116"><ele>389.66666666666663</ele><time>2026-04-12T07:09:01.038Z</time></trkpt><trkpt lat="43.890714" lon="10.3551378"><ele>388.5</ele><time>2026-04-12T07:09:02.038Z</time></trkpt><trkpt lat="43.8908157" lon="10.3551401"><ele>387.33333333333337</ele><time>2026-04-12T07:09:03.037Z</time></trkpt><trkpt lat="43.890905" lon="10.3551542"><ele>386.1666666666667</ele><time>2026-04-12T07:09:04.039Z</time></trkpt><trkpt lat="43.8909669" lon="10.3551964"><ele>385.0</ele><time>2026-04-12T07:09:05.038Z</time></trkpt><trkpt lat="43.890954" lon="10.3553869"><ele>388.4</ele><time>2026-04-12T07:09:07.039Z</time></trkpt><trkpt lat="43.8908902" lon="10.3554731"><ele>391.8</ele><time>2026-04-12T07:09:08.038Z</time></trkpt><trkpt lat="43.8907836" lon="10.3555391"><ele>395.20000000000005</ele><time>2026-04-12T07:09:09.04Z</time></trkpt><trkpt lat="43.8906691" lon="10.3555898"><ele>398.6</ele><time>2026-04-12T07:09:10.038Z</time></trkpt><trkpt lat="43.8905559" lon="10.3556111"><ele>402.0</ele><time>2026-04-12T07:09:11.044Z</time></trkpt><trkpt lat="43.8904388" lon="10.3556394"><ele>402.25</ele><time>2026-04-12T07:09:12.037Z</time></trkpt><trkpt lat="43.8903382" lon="10.3556927"><ele>402.5</ele><time>2026-04-12T07:09:13.039Z</time></trkpt><trkpt lat="43.8902676" lon="10.3557985"><ele>402.75</ele><time>2026-04-12T07:09:14.039Z</time></trkpt><trkpt lat="43.8902056" lon="10.3559436"><ele>403.0</ele><time>2026-04-12T07:09:15.039Z</time></trkpt><trkpt lat="43.8901436" lon="10.3561004"><ele>406.75</ele><time>2026-04-12T07:09:16.037Z</time></trkpt><trkpt lat="43.890085" lon="10.3562401"><ele>410.5</ele><time>2026-04-12T07:09:17.035Z</time></trkpt><trkpt lat="43.8900436" lon="10.3563834"><ele>414.25</ele><time>2026-04-12T07:09:18.032Z</time></trkpt><trkpt lat="43.8900253" lon="10.3565356"><ele>418.0</ele><time>2026-04-12T07:09:19.04Z</time></trkpt><trkpt lat="43.8900149" lon="10.3566931"><ele>418.0</ele><time>2026-04-12T07:09:20.035Z</time></trkpt><trkpt lat="43.8899929" lon="10.3568516"><ele>418.0</ele><time>2026-04-12T07:09:21.036Z</time></trkpt><trkpt lat="43.889956" lon="10.357"><ele>418.0</ele><time>2026-04-12T07:09:22.035Z</time></trkpt><trkpt lat="43.8899084" lon="10.3571285"><ele>418.0</ele><time>2026-04-12T07:09:23.04Z</time></trkpt><trkpt lat="43.8898441" lon="10.3572285"><ele>418.0</ele><time>2026-04-12T07:09:24.037Z</time></trkpt><trkpt lat="43.8897796" lon="10.3573028"><ele>416.50000000000006</ele><time>2026-04-12T07:09:25.037Z</time></trkpt><trkpt lat="43.8897267" lon="10.3573853"><ele>415.0</ele><time>2026-04-12T07:09:26.04Z</time></trkpt><trkpt lat="43.8897032" lon="10.3574827"><ele>413.5</ele><time>2026-04-12T07:09:27.036Z</time></trkpt><trkpt lat="43.8897126" lon="10.3575867"><ele>412.0</ele><time>2026-04-12T07:09:28.036Z</time></trkpt><trkpt lat="43.8897403" lon="10.3576946"><ele>410.50000000000006</ele><time>2026-04-12T07:09:29.037Z</time></trkpt><trkpt lat="43.8897662" lon="10.3578061"><ele>409.0</ele><time>2026-04-12T07:09:30.041Z</time></trkpt><trkpt lat="43.8897739" lon="10.3579149"><ele>409.00000000000006</ele><time>2026-04-12T07:09:31.038Z</time></trkpt><trkpt lat="43.8897438" lon="10.3579983"><ele>409.0</ele><time>2026-04-12T07:09:32.039Z</time></trkpt><trkpt lat="43.8896831" lon="10.358051"><ele>409.0</ele><time>2026-04-12T07:09:33.039Z</time></trkpt><trkpt lat="43.8896073" lon="10.3580982"><ele>409.0</ele><time>2026-04-12T07:09:34.04Z</time></trkpt><trkpt lat="43.8895286" lon="10.3581524"><ele>409.00000000000006</ele><time>2026-04-12T07:09:35.04Z</time></trkpt><trkpt lat="43.8894656" lon="10.3582211"><ele>409.0</ele><time>2026-04-12T07:09:36.042Z</time></trkpt><trkpt lat="43.8894127" lon="10.3583052"><ele>411.0</ele><time>2026-04-12T07:09:37.039Z</time></trkpt><trkpt lat="43.8893674" lon="10.3584113"><ele>413.0</ele><time>2026-04-12T07:09:38.036Z</time></trkpt><trkpt lat="43.88933" lon="10.3585372"><ele>415.0</ele><time>2026-04-12T07:09:39.037Z</time></trkpt><trkpt lat="43.8892993" lon="10.3586633"><ele>417.0</ele><time>2026-04-12T07:09:40.037Z</time></trkpt><trkpt lat="43.8892703" lon="10.3587869"><ele>419.0</ele><time>2026-04-12T07:09:41.038Z</time></trkpt><trkpt lat="43.8892394" lon="10.3589057"><ele>419.0</ele><time>2026-04-12T07:09:42.037Z</time></trkpt><trkpt lat="43.8892011" lon="10.3590131"><ele>419.0</ele><time>2026-04-12T07:09:43.04Z</time></trkpt><trkpt lat="43.8891381" lon="10.3591046"><ele>419.0</ele><time>2026-04-12T07:09:44.036Z</time></trkpt><trkpt lat="43.8890542" lon="10.3591936"><ele>419.0</ele><time>2026-04-12T07:09:45.039Z</time></trkpt><trkpt lat="43.8889705" lon="10.3592833"><ele>419.0</ele><time>2026-04-12T07:09:46.035Z</time></trkpt><trkpt lat="43.8888998" lon="10.3593666"><ele>419.0</ele><time>2026-04-12T07:09:47.035Z</time></trkpt><trkpt lat="43.8888526" lon="10.3594331"><ele>419.0</ele><time>2026-04-12T07:09:48.034Z</time></trkpt><trkpt lat="43.8888054" lon="10.3595856"><ele>419.0</ele><time>2026-04-12T07:09:50.036Z</time></trkpt><trkpt lat="43.8887948" lon="10.3597034"><ele>419.0</ele><time>2026-04-12T07:09:51.035Z</time></trkpt><trkpt lat="43.8887895" lon="10.3598447"><ele>419.0</ele><time>2026-04-12T07:09:52.036Z</time></trkpt><trkpt lat="43.888786" lon="10.3599749"><ele>420.8333333333333</ele><time>2026-04-12T07:09:53.034Z</time></trkpt><trkpt lat="43.8887855" lon="10.3601033"><ele>422.66666666666663</ele><time>2026-04-12T07:09:54.036Z</time></trkpt><trkpt lat="43.8887851" lon="10.3602328"><ele>424.5</ele><time>2026-04-12T07:09:55.036Z</time></trkpt><trkpt lat="43.8887864" lon="10.3603531"><ele>426.33333333333337</ele><time>2026-04-12T07:09:56.035Z</time></trkpt><trkpt lat="43.888792" lon="10.3604654"><ele>428.1666666666667</ele><time>2026-04-12T07:09:57.034Z</time></trkpt><trkpt lat="43.8887848" lon="10.3605688"><ele>430.0</ele><time>2026-04-12T07:09:58.034Z</time></trkpt><trkpt lat="43.8887579" lon="10.360668"><ele>431.00000000000006</ele><time>2026-04-12T07:09:59.035Z</time></trkpt><trkpt lat="43.8887119" lon="10.3607585"><ele>432.0</ele><time>2026-04-12T07:10:00.035Z</time></trkpt><trkpt lat="43.8886504" lon="10.3608349"><ele>433.0</ele><time>2026-04-12T07:10:01.035Z</time></trkpt><trkpt lat="43.8885691" lon="10.3608992"><ele>434.0</ele><time>2026-04-12T07:10:02.035Z</time></trkpt><trkpt lat="43.8884794" lon="10.3609476"><ele>435.00000000000006</ele><time>2026-04-12T07:10:03.037Z</time></trkpt><trkpt lat="43.8883962" lon="10.3609943"><ele>436.0</ele><time>2026-04-12T07:10:04.035Z</time></trkpt><trkpt lat="43.8883266" lon="10.3610348"><ele>430.00000000000006</ele><time>2026-04-12T07:10:05.034Z</time></trkpt><trkpt lat="43.8882684" lon="10.3610847"><ele>424.0</ele><time>2026-04-12T07:10:06.036Z</time></trkpt><trkpt lat="43.8882113" lon="10.3612028"><ele>418.0</ele><time>2026-04-12T07:10:08.035Z</time></trkpt><trkpt lat="43.8882378" lon="10.3613387"><ele>412.0</ele><time>2026-04-12T07:10:10.037Z</time></trkpt><trkpt lat="43.8882705" lon="10.3614321"><ele>406.00000000000006</ele><time>2026-04-12T07:10:11.034Z</time></trkpt><trkpt lat="43.8882907" lon="10.3615246"><ele>400.0</ele><time>2026-04-12T07:10:12.038Z</time></trkpt><trkpt lat="43.8882728" lon="10.3616837"><ele>400.00000000000006</ele><time>2026-04-12T07:10:14.035Z</time></trkpt><trkpt lat="43.8882267" lon="10.3617537"><ele>400.0</ele><time>2026-04-12T07:10:15.033Z</time></trkpt><trkpt lat="43.8881608" lon="10.3618264"><ele>400.0</ele><time>2026-04-12T07:10:16.035Z</time></trkpt><trkpt lat="43.8880855" lon="10.3619041"><ele>400.0</ele><time>2026-04-12T07:10:17.035Z</time></trkpt><trkpt lat="43.8880045" lon="10.3619759"><ele>400.00000000000006</ele><time>2026-04-12T07:10:18.036Z</time></trkpt><trkpt lat="43.8879183" lon="10.3620305"><ele>400.0</ele><time>2026-04-12T07:10:19.037Z</time></trkpt><trkpt lat="43.8878366" lon="10.3620699"><ele>400.00000000000006</ele><time>2026-04-12T07:10:20.034Z</time></trkpt><trkpt lat="43.8877623" lon="10.362088"><ele>400.0</ele><time>2026-04-12T07:10:21.034Z</time></trkpt><trkpt lat="43.8876499" lon="10.3621444"><ele>400.0</ele><time>2026-04-12T07:10:23.037Z</time></trkpt><trkpt lat="43.8876001" lon="10.3622112"><ele>400.0</ele><time>2026-04-12T07:10:24.036Z</time></trkpt><trkpt lat="43.8875511" lon="10.3623083"><ele>400.00000000000006</ele><time>2026-04-12T07:10:25.036Z</time></trkpt><trkpt lat="43.8874983" lon="10.3624205"><ele>400.0</ele><time>2026-04-12T07:10:26.039Z</time></trkpt><trkpt lat="43.8874481" lon="10.3625295"><ele>397.50000000000006</ele><time>2026-04-12T07:10:27.034Z</time></trkpt><trkpt lat="43.887395" lon="10.36262"><ele>395.0</ele><time>2026-04-12T07:10:28.035Z</time></trkpt><trkpt lat="43.8873275" lon="10.3626872"><ele>392.5</ele><time>2026-04-12T07:10:29.035Z</time></trkpt><trkpt lat="43.8872433" lon="10.3627354"><ele>390.0</ele><time>2026-04-12T07:10:30.04Z</time></trkpt><trkpt lat="43.8871595" lon="10.3627722"><ele>387.50000000000006</ele><time>2026-04-12T07:10:31.038Z</time></trkpt><trkpt lat="43.8870773" lon="10.3627967"><ele>385.0</ele><time>2026-04-12T07:10:32.041Z</time></trkpt><trkpt lat="43.8870025" lon="10.3627948"><ele>385.00000000000006</ele><time>2026-04-12T07:10:33.04Z</time></trkpt><trkpt lat="43.8869282" lon="10.3627841"><ele>385.0</ele><time>2026-04-12T07:10:34.037Z</time></trkpt><trkpt lat="43.8868522" lon="10.3627879"><ele>385.0</ele><time>2026-04-12T07:10:35.038Z</time></trkpt><trkpt lat="43.8867744" lon="10.362812"><ele>385.0</ele><time>2026-04-12T07:10:36.034Z</time></trkpt><trkpt lat="43.8867042" lon="10.3628533"><ele>385.00000000000006</ele><time>2026-04-12T07:10:37.034Z</time></trkpt><trkpt lat="43.8866533" lon="10.36291"><ele>385.0</ele><time>2026-04-12T07:10:38.035Z</time></trkpt><trkpt lat="43.8866174" lon="10.3630603"><ele>386.2</ele><time>2026-04-12T07:10:40.038Z</time></trkpt><trkpt lat="43.8866746" lon="10.3632185"><ele>387.4</ele><time>2026-04-12T07:10:42.038Z</time></trkpt><trkpt lat="43.8867314" lon="10.3633216"><ele>388.6</ele><time>2026-04-12T07:10:43.037Z</time></trkpt><trkpt lat="43.8867758" lon="10.3634224"><ele>389.8</ele><time>2026-04-12T07:10:44.036Z</time></trkpt><trkpt lat="43.8868076" lon="10.3635164"><ele>391.0</ele><time>2026-04-12T07:10:45.036Z</time></trkpt><trkpt lat="43.8868234" lon="10.3636727"><ele>391.00000000000006</ele><time>2026-04-12T07:10:47.036Z</time></trkpt><trkpt lat="43.8868071" lon="10.3637738"><ele>391.0</ele><time>2026-04-12T07:10:49.038Z</time></trkpt><trkpt lat="43.8868609" lon="10.3638623"><ele>391.0</ele><time>2026-04-12T07:11:05.038Z</time></trkpt><trkpt lat="43.8869658" lon="10.3638818"><ele>391.0</ele><time>2026-04-12T07:11:07.039Z</time></trkpt><trkpt lat="43.8870453" lon="10.3638741"><ele>391.00000000000006</ele><time>2026-04-12T07:11:08.038Z</time></trkpt><trkpt lat="43.8871321" lon="10.3638549"><ele>391.0</ele><time>2026-04-12T07:11:09.038Z</time></trkpt><trkpt lat="43.8872214" lon="10.363826"><ele>391.00000000000006</ele><time>2026-04-12T07:11:10.036Z</time></trkpt><trkpt lat="43.8873047" lon="10.3637815"><ele>391.0</ele><time>2026-04-12T07:11:11.036Z</time></trkpt><trkpt lat="43.887375" lon="10.3637268"><ele>391.0</ele><time>2026-04-12T07:11:12.036Z</time></trkpt><trkpt lat="43.8874457" lon="10.3636572"><ele>391.0</ele><time>2026-04-12T07:11:13.038Z</time></trkpt><trkpt lat="43.8875271" lon="10.363589"><ele>391.00000000000006</ele><time>2026-04-12T07:11:14.034Z</time></trkpt><trkpt lat="43.8876154" lon="10.3635407"><ele>391.0</ele><time>2026-04-12T07:11:15.034Z</time></trkpt><trkpt lat="43.8877041" lon="10.3634942"><ele>393.20000000000005</ele><time>2026-04-12T07:11:16.032Z</time></trkpt><trkpt lat="43.8877814" lon="10.3634366"><ele>395.40000000000003</ele><time>2026-04-12T07:11:17.032Z</time></trkpt><trkpt lat="43.8878405" lon="10.3633848"><ele>397.6</ele><time>2026-04-12T07:11:18.031Z</time></trkpt><trkpt lat="43.8879237" lon="10.3633423"><ele>399.8</ele><time>2026-04-12T07:11:20.03Z</time></trkpt><trkpt lat="43.8879735" lon="10.3635184"><ele>402.0</ele><time>2026-04-12T07:11:23.036Z</time></trkpt><trkpt lat="43.887965" lon="10.3636169"><ele>402.0</ele><time>2026-04-12T07:11:24.031Z</time></trkpt><trkpt lat="43.8879893" lon="10.3637478"><ele>402.0</ele><time>2026-04-12T07:11:26.031Z</time></trkpt><trkpt lat="43.8881117" lon="10.3637789"><ele>402.0</ele><time>2026-04-12T07:11:28.033Z</time></trkpt><trkpt lat="43.8881936" lon="10.3637771"><ele>402.0</ele><time>2026-04-12T07:11:29.032Z</time></trkpt><trkpt lat="43.8882692" lon="10.3637907"><ele>402.0</ele><time>2026-04-12T07:11:30.032Z</time></trkpt><trkpt lat="43.8883347" lon="10.3638935"><ele>399.40000000000003</ele><time>2026-04-12T07:11:32.029Z</time></trkpt><trkpt lat="43.8883231" lon="10.3639907"><ele>396.8</ele><time>2026-04-12T07:11:33.034Z</time></trkpt><trkpt lat="43.8882884" lon="10.3641005"><ele>394.2</ele><time>2026-04-12T07:11:34.032Z</time></trkpt><trkpt lat="43.8882308" lon="10.3642223"><ele>391.6</ele><time>2026-04-12T07:11:35.033Z</time></trkpt><trkpt lat="43.8881613" lon="10.364335"><ele>389.0</ele><time>2026-04-12T07:11:36.033Z</time></trkpt><trkpt lat="43.8880988" lon="10.3644191"><ele>389.0</ele><time>2026-04-12T07:11:37.035Z</time></trkpt><trkpt lat="43.8880484" lon="10.3644887"><ele>389.0</ele><time>2026-04-12T07:11:38.034Z</time></trkpt><trkpt lat="43.8879994" lon="10.364643"><ele>389.0</ele><time>2026-04-12T07:11:40.034Z</time></trkpt><trkpt lat="43.8880162" lon="10.3648067"><ele>389.0</ele><time>2026-04-12T07:11:42.033Z</time></trkpt><trkpt lat="43.8880597" lon="10.3648831"><ele>389.0</ele><time>2026-04-12T07:11:43.034Z</time></trkpt><trkpt lat="43.8881176" lon="10.3649528"><ele>389.49999999999994</ele><time>2026-04-12T07:11:44.034Z</time></trkpt><trkpt lat="43.8881699" lon="10.3650201"><ele>390.0</ele><time>2026-04-12T07:11:45.034Z</time></trkpt><trkpt lat="43.8881918" lon="10.3651637"><ele>390.5</ele><time>2026-04-12T07:11:47.035Z</time></trkpt><trkpt lat="43.888114" lon="10.3653131"><ele>391.0</ele><time>2026-04-12T07:11:49.038Z</time></trkpt><trkpt lat="43.8880611" lon="10.3653804"><ele>391.49999999999994</ele><time>2026-04-12T07:11:50.036Z</time></trkpt><trkpt lat="43.8880156" lon="10.3654453"><ele>392.0</ele><time>2026-04-12T07:11:51.035Z</time></trkpt><trkpt lat="43.8879589" lon="10.3655762"><ele>391.99999999999994</ele><time>2026-04-12T07:11:53.034Z</time></trkpt><trkpt lat="43.8879593" lon="10.3656928"><ele>392.0</ele><time>2026-04-12T07:11:55.037Z</time></trkpt><trkpt lat="43.8880328" lon="10.3658055"><ele>392.0</ele><time>2026-04-12T07:11:57.033Z</time></trkpt><trkpt lat="43.8880921" lon="10.3658777"><ele>392.0</ele><time>2026-04-12T07:11:58.035Z</time></trkpt><trkpt lat="43.8881542" lon="10.3659567"><ele>391.99999999999994</ele><time>2026-04-12T07:11:59.037Z</time></trkpt><trkpt lat="43.8882156" lon="10.3660358"><ele>392.0</ele><time>2026-04-12T07:12:00.035Z</time></trkpt><trkpt lat="43.888274" lon="10.3661002"><ele>392.0</ele><time>2026-04-12T07:12:01.035Z</time></trkpt><trkpt lat="43.8883326" lon="10.3661488"><ele>392.0</ele><time>2026-04-12T07:12:02.034Z</time></trkpt><trkpt lat="43.8883918" lon="10.3661881"><ele>392.0</ele><time>2026-04-12T07:12:03.035Z</time></trkpt><trkpt lat="43.8884496" lon="10.3662232"><ele>392.0</ele><time>2026-04-12T07:12:04.036Z</time></trkpt><trkpt lat="43.8885055" lon="10.3662652"><ele>392.0</ele><time>2026-04-12T07:12:05.034Z</time></trkpt><trkpt lat="43.8885798" lon="10.3663927"><ele>392.0</ele><time>2026-04-12T07:12:07.032Z</time></trkpt><trkpt lat="43.8885821" lon="10.3664862"><ele>392.0</ele><time>2026-04-12T07:12:08.033Z</time></trkpt><trkpt lat="43.8885621" lon="10.3665818"><ele>390.8333333333333</ele><time>2026-04-12T07:12:09.033Z</time></trkpt><trkpt lat="43.8885329" lon="10.3666813"><ele>389.66666666666663</ele><time>2026-04-12T07:12:10.034Z</time></trkpt><trkpt lat="43.8884945" lon="10.3667696"><ele>388.5</ele><time>2026-04-12T07:12:11.033Z</time></trkpt><trkpt lat="43.8884382" lon="10.3668465"><ele>387.33333333333337</ele><time>2026-04-12T07:12:12.036Z</time></trkpt><trkpt lat="43.888362" lon="10.3669286"><ele>386.1666666666667</ele><time>2026-04-12T07:12:13.035Z</time></trkpt><trkpt lat="43.8882876" lon="10.3670153"><ele>385.0</ele><time>2026-04-12T07:12:14.034Z</time></trkpt><trkpt lat="43.8882116" lon="10.3671102"><ele>386.2</ele><time>2026-04-12T07:12:15.036Z</time></trkpt><trkpt lat="43.8881551" lon="10.3672015"><ele>387.4</ele><time>2026-04-12T07:12:16.036Z</time></trkpt><trkpt lat="43.8881136" lon="10.3672994"><ele>388.6</ele><time>2026-04-12T07:12:17.036Z</time></trkpt><trkpt lat="43.8880778" lon="10.3674112"><ele>389.8</ele><time>2026-04-12T07:12:18.035Z</time></trkpt><trkpt lat="43.8880439" lon="10.3675337"><ele>391.0</ele><time>2026-04-12T07:12:19.036Z</time></trkpt><trkpt lat="43.8880104" lon="10.3676648"><ele>391.0</ele><time>2026-04-12T07:12:20.036Z</time></trkpt><trkpt lat="43.8879797" lon="10.367794"><ele>391.0</ele><time>2026-04-12T07:12:21.036Z</time></trkpt><trkpt lat="43.8879469" lon="10.3678991"><ele>391.0</ele><time>2026-04-12T07:12:22.036Z</time></trkpt><trkpt lat="43.8879134" lon="10.3679877"><ele>391.0</ele><time>2026-04-12T07:12:23.039Z</time></trkpt><trkpt lat="43.8879186" lon="10.3681385"><ele>391.0</ele><time>2026-04-12T07:12:25.038Z</time></trkpt><trkpt lat="43.8880458" lon="10.3681894"><ele>389.25</ele><time>2026-04-12T07:12:27.044Z</time></trkpt><trkpt lat="43.8881482" lon="10.3681841"><ele>387.5</ele><time>2026-04-12T07:12:28.041Z</time></trkpt><trkpt lat="43.8882693" lon="10.368176"><ele>385.75</ele><time>2026-04-12T07:12:29.04Z</time></trkpt><trkpt lat="43.8883936" lon="10.3681744"><ele>384.0</ele><time>2026-04-12T07:12:30.037Z</time></trkpt><trkpt lat="43.8885026" lon="10.3681818"><ele>387.3333333333333</ele><time>2026-04-12T07:12:31.038Z</time></trkpt><trkpt lat="43.8885885" lon="10.3682034"><ele>390.66666666666663</ele><time>2026-04-12T07:12:32.037Z</time></trkpt><trkpt lat="43.8886458" lon="10.3682414"><ele>394.0</ele><time>2026-04-12T07:12:33.038Z</time></trkpt><trkpt lat="43.8886868" lon="10.3683623"><ele>397.3333333333333</ele><time>2026-04-12T07:12:35.035Z</time></trkpt><trkpt lat="43.8886868" lon="10.3685338"><ele>400.66666666666663</ele><time>2026-04-12T07:12:37.037Z</time></trkpt><trkpt lat="43.8887051" lon="10.3686206"><ele>404.0</ele><time>2026-04-12T07:12:38.034Z</time></trkpt><trkpt lat="43.8887792" lon="10.3687151"><ele>403.99999999999994</ele><time>2026-04-12T07:12:40.033Z</time></trkpt><trkpt lat="43.888907" lon="10.3687334"><ele>404.0</ele><time>2026-04-12T07:12:42.033Z</time></trkpt><trkpt lat="43.8889736" lon="10.3687665"><ele>404.0</ele><time>2026-04-12T07:12:43.034Z</time></trkpt><trkpt lat="43.8890181" lon="10.3688319"><ele>404.0</ele><time>2026-04-12T07:12:44.034Z</time></trkpt><trkpt lat="43.8890348" lon="10.3689222"><ele>403.99999999999994</ele><time>2026-04-12T07:12:45.034Z</time></trkpt><trkpt lat="43.889032" lon="10.3690252"><ele>404.0</ele><time>2026-04-12T07:12:46.034Z</time></trkpt><trkpt lat="43.8890162" lon="10.3691368"><ele>401.66666666666663</ele><time>2026-04-12T07:12:47.035Z</time></trkpt><trkpt lat="43.8889923" lon="10.3692366"><ele>399.3333333333333</ele><time>2026-04-12T07:12:48.035Z</time></trkpt><trkpt lat="43.8889754" lon="10.3693244"><ele>397.0</ele><time>2026-04-12T07:12:49.038Z</time></trkpt><trkpt lat="43.8889872" lon="10.3694686"><ele>394.66666666666663</ele><time>2026-04-12T07:12:51.035Z</time></trkpt><trkpt lat="43.8890795" lon="10.3695653"><ele>392.3333333333333</ele><time>2026-04-12T07:12:53.037Z</time></trkpt><trkpt lat="43.8891531" lon="10.3695997"><ele>390.0</ele><time>2026-04-12T07:12:54.037Z</time></trkpt><trkpt lat="43.8892191" lon="10.3696354"><ele>386.2</ele><time>2026-04-12T07:12:55.035Z</time></trkpt><trkpt lat="43.8893056" lon="10.3697601"><ele>382.4</ele><time>2026-04-12T07:12:57.034Z</time></trkpt><trkpt lat="43.8893262" lon="10.369852"><ele>378.6</ele><time>2026-04-12T07:12:58.035Z</time></trkpt><trkpt lat="43.8893353" lon="10.3699642"><ele>374.8</ele><time>2026-04-12T07:12:59.035Z</time></trkpt><trkpt lat="43.8893444" lon="10.3701026"><ele>371.0</ele><time>2026-04-12T07:13:00.036Z</time></trkpt><trkpt lat="43.8893531" lon="10.3702439"><ele>371.0</ele><time>2026-04-12T07:13:01.035Z</time></trkpt><trkpt lat="43.8893584" lon="10.3703862"><ele>371.0</ele><time>2026-04-12T07:13:02.035Z</time></trkpt><trkpt lat="43.8893604" lon="10.3705193"><ele>371.0</ele><time>2026-04-12T07:13:03.043Z</time></trkpt><trkpt lat="43.8893665" lon="10.3706419"><ele>371.0</ele><time>2026-04-12T07:13:04.037Z</time></trkpt><trkpt lat="43.8893731" lon="10.3707505"><ele>371.0</ele><time>2026-04-12T07:13:05.037Z</time></trkpt><trkpt lat="43.8893777" lon="10.3708454"><ele>371.0</ele><time>2026-04-12T07:13:06.035Z</time></trkpt><trkpt lat="43.889348" lon="10.3710071"><ele>371.6666666666667</ele><time>2026-04-12T07:13:08.029Z</time></trkpt><trkpt lat="43.8892795" lon="10.3711253"><ele>372.33333333333337</ele><time>2026-04-12T07:13:10.038Z</time></trkpt><trkpt lat="43.8892361" lon="10.3712152"><ele>373.0</ele><time>2026-04-12T07:13:12.03Z</time></trkpt><trkpt lat="43.8892304" lon="10.3713595"><ele>373.6666666666667</ele><time>2026-04-12T07:13:14.038Z</time></trkpt><trkpt lat="43.8892331" lon="10.371467"><ele>374.3333333333333</ele><time>2026-04-12T07:13:15.036Z</time></trkpt><trkpt lat="43.8892291" lon="10.3715744"><ele>375.0</ele><time>2026-04-12T07:13:16.039Z</time></trkpt><trkpt lat="43.8892133" lon="10.3716717"><ele>375.0</ele><time>2026-04-12T07:13:17.038Z</time></trkpt><trkpt lat="43.8891801" lon="10.3717536"><ele>375.0</ele><time>2026-04-12T07:13:18.038Z</time></trkpt><trkpt lat="43.8890724" lon="10.3718269"><ele>375.0</ele><time>2026-04-12T07:13:20.041Z</time></trkpt><trkpt lat="43.8890019" lon="10.3718399"><ele>375.0</ele><time>2026-04-12T07:13:21.038Z</time></trkpt><trkpt lat="43.8889323" lon="10.3718505"><ele>375.0</ele><time>2026-04-12T07:13:22.038Z</time></trkpt><trkpt lat="43.8888225" lon="10.3719414"><ele>375.0</ele><time>2026-04-12T07:13:24.04Z</time></trkpt><trkpt lat="43.8887718" lon="10.3720937"><ele>375.0</ele><time>2026-04-12T07:13:26.039Z</time></trkpt><trkpt lat="43.8887681" lon="10.3721821"><ele>375.0</ele><time>2026-04-12T07:13:27.04Z</time></trkpt><trkpt lat="43.8887793" lon="10.3722794"><ele>375.0</ele><time>2026-04-12T07:13:28.038Z</time></trkpt><trkpt lat="43.8888045" lon="10.3723761"><ele>375.0</ele><time>2026-04-12T07:13:29.037Z</time></trkpt><trkpt lat="43.888846" lon="10.3724623"><ele>375.0</ele><time>2026-04-12T07:13:30.042Z</time></trkpt><trkpt lat="43.8889002" lon="10.3725466"><ele>374.8</ele><time>2026-04-12T07:13:31.041Z</time></trkpt><trkpt lat="43.8889639" lon="10.3726312"><ele>374.6</ele><time>2026-04-12T07:13:32.039Z</time></trkpt><trkpt lat="43.8890268" lon="10.3727117"><ele>374.4</ele><time>2026-04-12T07:13:33.037Z</time></trkpt><trkpt lat="43.8890776" lon="10.3727867"><ele>374.2</ele><time>2026-04-12T07:13:34.034Z</time></trkpt><trkpt lat="43.8891305" lon="10.3729323"><ele>374.0</ele><time>2026-04-12T07:13:36.039Z</time></trkpt><trkpt lat="43.8890843" lon="10.3730789"><ele>374.0</ele><time>2026-04-12T07:13:38.03Z</time></trkpt><trkpt lat="43.8890373" lon="10.3731473"><ele>374.0</ele><time>2026-04-12T07:13:39.035Z</time></trkpt><trkpt lat="43.8889899" lon="10.3732127"><ele>374.0</ele><time>2026-04-12T07:13:40.035Z</time></trkpt><trkpt lat="43.8889233" lon="10.3733562"><ele>374.0</ele><time>2026-04-12T07:13:42.035Z</time></trkpt><trkpt lat="43.8889014" lon="10.3734406"><ele>374.0</ele><time>2026-04-12T07:13:43.037Z</time></trkpt><trkpt lat="43.8888692" lon="10.3735828"><ele>374.0</ele><time>2026-04-12T07:13:45.035Z</time></trkpt><trkpt lat="43.8888085" lon="10.3736599"><ele>374.0</ele><time>2026-04-12T07:13:47.036Z</time></trkpt><trkpt lat="43.8887288" lon="10.3736377"><ele>374.0</ele><time>2026-04-12T07:13:49.037Z</time></trkpt><trkpt lat="43.8886821" lon="10.3735786"><ele>374.0</ele><time>2026-04-12T07:13:50.04Z</time></trkpt><trkpt lat="43.8886316" lon="10.373501"><ele>374.0</ele><time>2026-04-12T07:13:51.038Z</time></trkpt><trkpt lat="43.8885718" lon="10.373428"><ele>374.0</ele><time>2026-04-12T07:13:52.036Z</time></trkpt><trkpt lat="43.8885146" lon="10.3733649"><ele>374.0</ele><time>2026-04-12T07:13:53.035Z</time></trkpt><trkpt lat="43.8884569" lon="10.3733081"><ele>374.0</ele><time>2026-04-12T07:13:54.039Z</time></trkpt><trkpt lat="43.8883891" lon="10.3732582"><ele>370.0</ele><time>2026-04-12T07:13:55.04Z</time></trkpt><trkpt lat="43.8883097" lon="10.3732113"><ele>366.0</ele><time>2026-04-12T07:13:56.036Z</time></trkpt><trkpt lat="43.8882328" lon="10.3731608"><ele>362.0</ele><time>2026-04-12T07:13:57.037Z</time></trkpt><trkpt lat="43.8881542" lon="10.3731187"><ele>358.0</ele><time>2026-04-12T07:13:58.04Z</time></trkpt><trkpt lat="43.8880712" lon="10.3730909"><ele>354.0</ele><time>2026-04-12T07:13:59.039Z</time></trkpt><trkpt lat="43.8879895" lon="10.3730845"><ele>350.0</ele><time>2026-04-12T07:14:00.033Z</time></trkpt><trkpt lat="43.8879157" lon="10.3731013"><ele>350.0</ele><time>2026-04-12T07:14:01.036Z</time></trkpt><trkpt lat="43.8878507" lon="10.3731348"><ele>350.0</ele><time>2026-04-12T07:14:02.036Z</time></trkpt><trkpt lat="43.8877909" lon="10.3731929"><ele>350.0</ele><time>2026-04-12T07:14:03.038Z</time></trkpt><trkpt lat="43.8877412" lon="10.3732776"><ele>350.0</ele><time>2026-04-12T07:14:04.038Z</time></trkpt><trkpt lat="43.8877033" lon="10.3733609"><ele>350.0</ele><time>2026-04-12T07:14:05.037Z</time></trkpt><trkpt lat="43.8876823" lon="10.3734588"><ele>350.0</ele><time>2026-04-12T07:14:06.039Z</time></trkpt><trkpt lat="43.8876786" lon="10.3735761"><ele>350.0</ele><time>2026-04-12T07:14:07.039Z</time></trkpt><trkpt lat="43.8876841" lon="10.3737063"><ele>350.0</ele><time>2026-04-12T07:14:08.038Z</time></trkpt><trkpt lat="43.8876878" lon="10.3738466"><ele>350.0</ele><time>2026-04-12T07:14:09.041Z</time></trkpt><trkpt lat="43.8876871" lon="10.3739896"><ele>350.0</ele><time>2026-04-12T07:14:10.04Z</time></trkpt><trkpt lat="43.8876816" lon="10.3741286"><ele>350.0</ele><time>2026-04-12T07:14:11.037Z</time></trkpt><trkpt lat="43.8876749" lon="10.374254"><ele>349.2</ele><time>2026-04-12T07:14:12.034Z</time></trkpt><trkpt lat="43.8876639" lon="10.3743665"><ele>348.4</ele><time>2026-04-12T07:14:13.037Z</time></trkpt><trkpt lat="43.8876479" lon="10.3744594"><ele>347.6</ele><time>2026-04-12T07:14:14.037Z</time></trkpt><trkpt lat="43.8875759" lon="10.3745943"><ele>346.8</ele><time>2026-04-12T07:14:16.039Z</time></trkpt><trkpt lat="43.8874779" lon="10.3746969"><ele>346.0</ele><time>2026-04-12T07:14:18.038Z</time></trkpt><trkpt lat="43.8873873" lon="10.3747969"><ele>346.0</ele><time>2026-04-12T07:14:20.037Z</time></trkpt><trkpt lat="43.8873051" lon="10.374906"><ele>346.0</ele><time>2026-04-12T07:14:22.038Z</time></trkpt><trkpt lat="43.8872304" lon="10.3750154"><ele>346.0</ele><time>2026-04-12T07:14:24.037Z</time></trkpt><trkpt lat="43.8871495" lon="10.3751248"><ele>346.0</ele><time>2026-04-12T07:14:26.037Z</time></trkpt><trkpt lat="43.8870653" lon="10.3752492"><ele>346.0</ele><time>2026-04-12T07:14:28.037Z</time></trkpt><trkpt lat="43.8870257" lon="10.3753204"><ele>346.0</ele><time>2026-04-12T07:14:29.04Z</time></trkpt><trkpt lat="43.8869914" lon="10.3754035"><ele>346.0</ele><time>2026-04-12T07:14:30.04Z</time></trkpt><trkpt lat="43.8869636" lon="10.3754986"><ele>346.0</ele><time>2026-04-12T07:14:31.041Z</time></trkpt><trkpt lat="43.8869445" lon="10.3755934"><ele>346.0</ele><time>2026-04-12T07:14:32.038Z</time></trkpt><trkpt lat="43.8869412" lon="10.3757515"><ele>346.0</ele><time>2026-04-12T07:14:34.044Z</time></trkpt><trkpt lat="43.8870087" lon="10.375915"><ele>345.66666666666663</ele><time>2026-04-12T07:14:36.046Z</time></trkpt><trkpt lat="43.8870552" lon="10.3760065"><ele>345.3333333333333</ele><time>2026-04-12T07:14:37.045Z</time></trkpt><trkpt lat="43.8871083" lon="10.3761019"><ele>345.0</ele><time>2026-04-12T07:14:38.044Z</time></trkpt><trkpt lat="43.8871649" lon="10.3761853"><ele>344.6666666666667</ele><time>2026-04-12T07:14:39.041Z</time></trkpt><trkpt lat="43.8872314" lon="10.3762591"><ele>344.33333333333337</ele><time>2026-04-12T07:14:40.04Z</time></trkpt><trkpt lat="43.8873054" lon="10.3763197"><ele>344.0</ele><time>2026-04-12T07:14:41.039Z</time></trkpt><trkpt lat="43.8873831" lon="10.3763617"><ele>340.0</ele><time>2026-04-12T07:14:42.039Z</time></trkpt><trkpt lat="43.887463" lon="10.3763859"><ele>336.0</ele><time>2026-04-12T07:14:43.038Z</time></trkpt><trkpt lat="43.8875417" lon="10.3763915"><ele>332.0</ele><time>2026-04-12T07:14:44.038Z</time></trkpt><trkpt lat="43.8876228" lon="10.3763952"><ele>328.0</ele><time>2026-04-12T07:14:45.038Z</time></trkpt><trkpt lat="43.8877017" lon="10.3764159"><ele>324.0</ele><time>2026-04-12T07:14:46.036Z</time></trkpt><trkpt lat="43.887769" lon="10.3764654"><ele>320.0</ele><time>2026-04-12T07:14:47.036Z</time></trkpt><trkpt lat="43.8878162" lon="10.3765337"><ele>320.0</ele><time>2026-04-12T07:14:48.038Z</time></trkpt><trkpt lat="43.8878673" lon="10.3765881"><ele>320.0</ele><time>2026-04-12T07:14:49.043Z</time></trkpt><trkpt lat="43.8879311" lon="10.3766207"><ele>320.0</ele><time>2026-04-12T07:14:50.037Z</time></trkpt><trkpt lat="43.8880021" lon="10.3766476"><ele>320.0</ele><time>2026-04-12T07:14:51.034Z</time></trkpt><trkpt lat="43.8880747" lon="10.3766745"><ele>320.0</ele><time>2026-04-12T07:14:52.037Z</time></trkpt><trkpt lat="43.8881468" lon="10.3767161"><ele>320.0</ele><time>2026-04-12T07:14:53.034Z</time></trkpt><trkpt lat="43.8882219" lon="10.3767804"><ele>320.0</ele><time>2026-04-12T07:14:54.034Z</time></trkpt><trkpt lat="43.8882908" lon="10.3768586"><ele>320.0</ele><time>2026-04-12T07:14:55.033Z</time></trkpt><trkpt lat="43.8883472" lon="10.3769348"><ele>320.0</ele><time>2026-04-12T07:14:56.033Z</time></trkpt><trkpt lat="43.8883997" lon="10.3769883"><ele>320.0</ele><time>2026-04-12T07:14:57.034Z</time></trkpt><trkpt lat="43.8885179" lon="10.377005"><ele>320.0</ele><time>2026-04-12T07:14:59.036Z</time></trkpt><trkpt lat="43.8885885" lon="10.3770003"><ele>320.0</ele><time>2026-04-12T07:15:00.033Z</time></trkpt><trkpt lat="43.8886564" lon="10.3770135"><ele>320.0</ele><time>2026-04-12T07:15:01.033Z</time></trkpt><trkpt lat="43.8887615" lon="10.3770954"><ele>319.0</ele><time>2026-04-12T07:15:03.034Z</time></trkpt><trkpt lat="43.8888371" lon="10.3772183"><ele>318.0</ele><time>2026-04-12T07:15:05.03Z</time></trkpt><trkpt lat="43.8888993" lon="10.3772883"><ele>317.0</ele><time>2026-04-12T07:15:07.031Z</time></trkpt><trkpt lat="43.8890087" lon="10.3773754"><ele>316.0</ele><time>2026-04-12T07:15:09.031Z</time></trkpt><trkpt lat="43.889056" lon="10.3774403"><ele>315.0</ele><time>2026-04-12T07:15:10.03Z</time></trkpt><trkpt lat="43.8890478" lon="10.3775769"><ele>315.0</ele><time>2026-04-12T07:15:12.036Z</time></trkpt><trkpt lat="43.8889558" lon="10.377685"><ele>315.0</ele><time>2026-04-12T07:15:14.035Z</time></trkpt><trkpt lat="43.8888928" lon="10.3777384"><ele>315.0</ele><time>2026-04-12T07:15:15.032Z</time></trkpt><trkpt lat="43.888829" lon="10.3777928"><ele>315.0</ele><time>2026-04-12T07:15:16.03Z</time></trkpt><trkpt lat="43.8887675" lon="10.3778495"><ele>315.0</ele><time>2026-04-12T07:15:17.032Z</time></trkpt><trkpt lat="43.8887216" lon="10.3779122"><ele>315.0</ele><time>2026-04-12T07:15:18.033Z</time></trkpt><trkpt lat="43.8886866" lon="10.3780518"><ele>312.8</ele><time>2026-04-12T07:15:20.033Z</time></trkpt><trkpt lat="43.8887183" lon="10.3781738"><ele>310.6</ele><time>2026-04-12T07:15:22.044Z</time></trkpt><trkpt lat="43.8887478" lon="10.3782709"><ele>308.4</ele><time>2026-04-12T07:15:24.041Z</time></trkpt><trkpt lat="43.8886879" lon="10.3784232"><ele>306.2</ele><time>2026-04-12T07:15:26.035Z</time></trkpt><trkpt lat="43.8886372" lon="10.3785245"><ele>304.0</ele><time>2026-04-12T07:15:27.034Z</time></trkpt><trkpt lat="43.8885911" lon="10.3786468"><ele>304.0</ele><time>2026-04-12T07:15:28.035Z</time></trkpt><trkpt lat="43.8885434" lon="10.3787761"><ele>304.0</ele><time>2026-04-12T07:15:29.038Z</time></trkpt><trkpt lat="43.8884988" lon="10.3788937"><ele>304.0</ele><time>2026-04-12T07:15:30.036Z</time></trkpt><trkpt lat="43.8884452" lon="10.3789772"><ele>304.0</ele><time>2026-04-12T07:15:31.034Z</time></trkpt><trkpt lat="43.8883887" lon="10.3790384"><ele>304.0</ele><time>2026-04-12T07:15:32.035Z</time></trkpt><trkpt lat="43.8883152" lon="10.3790805"><ele>304.0</ele><time>2026-04-12T07:15:33.033Z</time></trkpt><trkpt lat="43.8882137" lon="10.3791038"><ele>298.2</ele><time>2026-04-12T07:15:34.033Z</time></trkpt><trkpt lat="43.888099" lon="10.3791105"><ele>292.4</ele><time>2026-04-12T07:15:35.032Z</time></trkpt><trkpt lat="43.887981" lon="10.3791269"><ele>286.6</ele><time>2026-04-12T07:15:36.032Z</time></trkpt><trkpt lat="43.887876" lon="10.379143"><ele>280.8</ele><time>2026-04-12T07:15:37.033Z</time></trkpt><trkpt lat="43.8877907" lon="10.3791601"><ele>275.0</ele><time>2026-04-12T07:15:38.033Z</time></trkpt><trkpt lat="43.8877184" lon="10.3792023"><ele>275.0</ele><time>2026-04-12T07:15:39.037Z</time></trkpt><trkpt lat="43.8876495" lon="10.3792449"><ele>275.0</ele><time>2026-04-12T07:15:40.034Z</time></trkpt><trkpt lat="43.8875779" lon="10.3792667"><ele>275.0</ele><time>2026-04-12T07:15:41.036Z</time></trkpt><trkpt lat="43.8874706" lon="10.3792982"><ele>275.0</ele><time>2026-04-12T07:15:43.043Z</time></trkpt><trkpt lat="43.8873839" lon="10.3793961"><ele>275.0</ele><time>2026-04-12T07:15:45.037Z</time></trkpt><trkpt lat="43.8873225" lon="10.3795251"><ele>274.2</ele><time>2026-04-12T07:15:47.03Z</time></trkpt><trkpt lat="43.8872742" lon="10.3796722"><ele>273.4</ele><time>2026-04-12T07:15:49.035Z</time></trkpt><trkpt lat="43.8872314" lon="10.379808"><ele>272.6</ele><time>2026-04-12T07:15:51.036Z</time></trkpt><trkpt lat="43.887199" lon="10.3799087"><ele>271.8</ele><time>2026-04-12T07:15:53.035Z</time></trkpt><trkpt lat="43.8871109" lon="10.3799087"><ele>271.0</ele><time>2026-04-12T07:15:59.04Z</time></trkpt><trkpt lat="43.8870413" lon="10.379902"><ele>271.0</ele><time>2026-04-12T07:16:01.036Z</time></trkpt><trkpt lat="43.8869775" lon="10.3799499"><ele>271.0</ele><time>2026-04-12T07:16:03.041Z</time></trkpt><trkpt lat="43.8869124" lon="10.379978"><ele>271.0</ele><time>2026-04-12T07:16:05.038Z</time></trkpt><trkpt lat="43.8868755" lon="10.3798681"><ele>271.0</ele><time>2026-04-12T07:16:08.033Z</time></trkpt><trkpt lat="43.886904" lon="10.3797461"><ele>271.0</ele><time>2026-04-12T07:16:10.035Z</time></trkpt><trkpt lat="43.8869196" lon="10.379601"><ele>271.0</ele><time>2026-04-12T07:16:12.038Z</time></trkpt><trkpt lat="43.8868896" lon="10.3794628"><ele>271.0</ele><time>2026-04-12T07:16:14.04Z</time></trkpt><trkpt lat="43.8868638" lon="10.3793787"><ele>271.0</ele><time>2026-04-12T07:16:15.041Z</time></trkpt><trkpt lat="43.8868452" lon="10.3792802"><ele>271.0</ele><time>2026-04-12T07:16:16.042Z</time></trkpt><trkpt lat="43.8868247" lon="10.3791752"><ele>271.0</ele><time>2026-04-12T07:16:17.041Z</time></trkpt><trkpt lat="43.8868081" lon="10.3790756"><ele>271.0</ele><time>2026-04-12T07:16:18.035Z</time></trkpt><trkpt lat="43.8867919" lon="10.378922"><ele>271.0</ele><time>2026-04-12T07:16:20.034Z</time></trkpt><trkpt lat="43.8867966" lon="10.3788201"><ele>271.16666666666663</ele><time>2026-04-12T07:16:22.034Z</time></trkpt><trkpt lat="43.8867961" lon="10.3786862"><ele>271.3333333333333</ele><time>2026-04-12T07:16:25.036Z</time></trkpt><trkpt lat="43.8867726" lon="10.3785922"><ele>271.5</ele><time>2026-04-12T07:16:27.039Z</time></trkpt><trkpt lat="43.8867575" lon="10.3785011"><ele>271.6666666666667</ele><time>2026-04-12T07:16:29.035Z</time></trkpt><trkpt lat="43.8867773" lon="10.378415"><ele>271.83333333333337</ele><time>2026-04-12T07:16:31.03Z</time></trkpt><trkpt lat="43.886826" lon="10.3782804"><ele>272.0</ele><time>2026-04-12T07:16:33.031Z</time></trkpt><trkpt lat="43.88687" lon="10.3781416"><ele>271.99999999999994</ele><time>2026-04-12T07:16:35.032Z</time></trkpt><trkpt lat="43.8868414" lon="10.3780462"><ele>272.0</ele><time>2026-04-12T07:16:38.031Z</time></trkpt><trkpt lat="43.8867494" lon="10.3780167"><ele>272.0</ele><time>2026-04-12T07:16:40.029Z</time></trkpt><trkpt lat="43.8866783" lon="10.3780032"><ele>272.0</ele><time>2026-04-12T07:16:41.029Z</time></trkpt><trkpt lat="43.8866067" lon="10.3779869"><ele>272.0</ele><time>2026-04-12T07:16:42.03Z</time></trkpt><trkpt lat="43.8865399" lon="10.377974"><ele>271.99999999999994</ele><time>2026-04-12T07:16:43.031Z</time></trkpt><trkpt lat="43.8864739" lon="10.3779652"><ele>272.0</ele><time>2026-04-12T07:16:44.031Z</time></trkpt><trkpt lat="43.8863569" lon="10.3779813"><ele>270.5</ele><time>2026-04-12T07:16:46.03Z</time></trkpt><trkpt lat="43.8862839" lon="10.3780154"><ele>269.0</ele><time>2026-04-12T07:16:48.033Z</time></trkpt><trkpt lat="43.886204" lon="10.378012"><ele>267.5</ele><time>2026-04-12T07:16:50.029Z</time></trkpt><trkpt lat="43.8861022" lon="10.3779968"><ele>266.0</ele><time>2026-04-12T07:16:52.029Z</time></trkpt><trkpt lat="43.8860031" lon="10.3779997"><ele>264.5</ele><time>2026-04-12T07:16:54.03Z</time></trkpt><trkpt lat="43.8859312" lon="10.377998"><ele>263.0</ele><time>2026-04-12T07:16:56.028Z</time></trkpt><trkpt lat="43.8858656" lon="10.3779911"><ele>262.5</ele><time>2026-04-12T07:16:58.034Z</time></trkpt><trkpt lat="43.8857666" lon="10.3780238"><ele>262.0</ele><time>2026-04-12T07:17:00.029Z</time></trkpt><trkpt lat="43.8856796" lon="10.3780623"><ele>261.5</ele><time>2026-04-12T07:17:02.022Z</time></trkpt><trkpt lat="43.8856011" lon="10.3780892"><ele>261.0</ele><time>2026-04-12T07:17:05.029Z</time></trkpt><trkpt lat="43.8855134" lon="10.378082"><ele>260.5</ele><time>2026-04-12T07:17:08.029Z</time></trkpt><trkpt lat="43.8854281" lon="10.3780542"><ele>260.0</ele><time>2026-04-12T07:17:10.03Z</time></trkpt><trkpt lat="43.8853375" lon="10.3780058"><ele>260.0</ele><time>2026-04-12T07:17:12.03Z</time></trkpt><trkpt lat="43.8852403" lon="10.3779655"><ele>260.0</ele><time>2026-04-12T07:17:14.03Z</time></trkpt><trkpt lat="43.8851653" lon="10.3779181"><ele>260.0</ele><time>2026-04-12T07:17:16.031Z</time></trkpt><trkpt lat="43.8850804" lon="10.3778724"><ele>260.0</ele><time>2026-04-12T07:17:18.03Z</time></trkpt><trkpt lat="43.8850017" lon="10.3778261"><ele>260.0</ele><time>2026-04-12T07:17:20.033Z</time></trkpt><trkpt lat="43.8849039" lon="10.3778043"><ele>256.8</ele><time>2026-04-12T07:17:22.033Z</time></trkpt><trkpt lat="43.8848107" lon="10.3777971"><ele>253.6</ele><time>2026-04-12T07:17:24.032Z</time></trkpt><trkpt lat="43.8847126" lon="10.3777554"><ele>250.39999999999998</ele><time>2026-04-12T07:17:26.034Z</time></trkpt><trkpt lat="43.8846201" lon="10.3777205"><ele>247.2</ele><time>2026-04-12T07:17:28.034Z</time></trkpt><trkpt lat="43.8845352" lon="10.3776597"><ele>244.0</ele><time>2026-04-12T07:17:30.034Z</time></trkpt><trkpt lat="43.8844679" lon="10.3776084"><ele>243.99999999999997</ele><time>2026-04-12T07:17:32.035Z</time></trkpt><trkpt lat="43.8844036" lon="10.3775465"><ele>244.0</ele><time>2026-04-12T07:17:34.032Z</time></trkpt><trkpt lat="43.8843476" lon="10.3774396"><ele>244.0</ele><time>2026-04-12T07:17:36.035Z</time></trkpt><trkpt lat="43.8843021" lon="10.3773352"><ele>244.0</ele><time>2026-04-12T07:17:38.038Z</time></trkpt><trkpt lat="43.8842692" lon="10.3772245"><ele>243.99999999999997</ele><time>2026-04-12T07:17:41.034Z</time></trkpt><trkpt lat="43.8842633" lon="10.3771347"><ele>244.0</ele><time>2026-04-12T07:17:43.042Z</time></trkpt><trkpt lat="43.8842562" lon="10.3770134"><ele>238.99999999999997</ele><time>2026-04-12T07:17:45.035Z</time></trkpt><trkpt lat="43.8842325" lon="10.3769004"><ele>234.0</ele><time>2026-04-12T07:17:47.036Z</time></trkpt><trkpt lat="43.884198" lon="10.3767883"><ele>229.0</ele><time>2026-04-12T07:17:49.034Z</time></trkpt><trkpt lat="43.884156" lon="10.3766816"><ele>224.0</ele><time>2026-04-12T07:17:51.034Z</time></trkpt><trkpt lat="43.8841229" lon="10.3765909"><ele>218.99999999999997</ele><time>2026-04-12T07:17:54.034Z</time></trkpt><trkpt lat="43.8840888" lon="10.3764687"><ele>214.0</ele><time>2026-04-12T07:17:57.035Z</time></trkpt><trkpt lat="43.8840552" lon="10.3763576"><ele>215.66666666666666</ele><time>2026-04-12T07:17:59.034Z</time></trkpt><trkpt lat="43.8840331" lon="10.3762582"><ele>217.33333333333331</ele><time>2026-04-12T07:18:01.031Z</time></trkpt><trkpt lat="43.8840001" lon="10.3761798"><ele>219.0</ele><time>2026-04-12T07:18:03.034Z</time></trkpt><trkpt lat="43.8839455" lon="10.3760771"><ele>220.66666666666669</ele><time>2026-04-12T07:18:06.034Z</time></trkpt><trkpt lat="43.8839056" lon="10.3759729"><ele>222.33333333333334</ele><time>2026-04-12T07:18:09.04Z</time></trkpt><trkpt lat="43.8838687" lon="10.3758802"><ele>224.0</ele><time>2026-04-12T07:18:13.043Z</time></trkpt><trkpt lat="43.8838345" lon="10.3757645"><ele>224.0</ele><time>2026-04-12T07:18:16.038Z</time></trkpt><trkpt lat="43.8838053" lon="10.3756854"><ele>224.0</ele><time>2026-04-12T07:18:38.035Z</time></trkpt><trkpt lat="43.883762" lon="10.3756192"><ele>224.0</ele><time>2026-04-12T07:18:41.041Z</time></trkpt><trkpt lat="43.8837199" lon="10.3755489"><ele>224.0</ele><time>2026-04-12T07:18:43.043Z</time></trkpt><trkpt lat="43.8836612" lon="10.3755123"><ele>224.0</ele><time>2026-04-12T07:18:46.044Z</time></trkpt><trkpt lat="43.8836042" lon="10.3755642"><ele>224.0</ele><time>2026-04-12T07:18:54.04Z</time></trkpt><trkpt lat="43.8835393" lon="10.3755484"><ele>224.0</ele><time>2026-04-12T07:18:57.035Z</time></trkpt><trkpt lat="43.8835043" lon="10.375421"><ele>224.2</ele><time>2026-04-12T07:22:37.05Z</time></trkpt><trkpt lat="43.8834737" lon="10.3752925"><ele>224.39999999999998</ele><time>2026-04-12T07:22:39.055Z</time></trkpt><trkpt lat="43.8834284" lon="10.3751577"><ele>224.6</ele><time>2026-04-12T07:22:41.046Z</time></trkpt><trkpt lat="43.8833626" lon="10.3750359"><ele>224.8</ele><time>2026-04-12T07:22:43.05Z</time></trkpt><trkpt lat="43.8832971" lon="10.3749412"><ele>225.0</ele><time>2026-04-12T07:22:45.044Z</time></trkpt><trkpt lat="43.8832432" lon="10.3748398"><ele>219.33333333333334</ele><time>2026-04-12T07:22:47.054Z</time></trkpt><trkpt lat="43.8831959" lon="10.3746901"><ele>213.66666666666666</ele><time>2026-04-12T07:22:49.048Z</time></trkpt><trkpt lat="43.8831778" lon="10.374596"><ele>208.0</ele><time>2026-04-12T07:22:50.044Z</time></trkpt><trkpt lat="43.8831625" lon="10.3744944"><ele>202.33333333333331</ele><time>2026-04-12T07:22:51.043Z</time></trkpt><trkpt lat="43.8831491" lon="10.374384"><ele>196.66666666666666</ele><time>2026-04-12T07:22:52.043Z</time></trkpt><trkpt lat="43.8831324" lon="10.3742782"><ele>191.0</ele><time>2026-04-12T07:22:53.046Z</time></trkpt><trkpt lat="43.883117" lon="10.374178"><ele>191.0</ele><time>2026-04-12T07:22:54.048Z</time></trkpt><trkpt lat="43.883096" lon="10.3740886"><ele>191.0</ele><time>2026-04-12T07:22:55.042Z</time></trkpt><trkpt lat="43.8830612" lon="10.3739411"><ele>191.0</ele><time>2026-04-12T07:22:57.055Z</time></trkpt><trkpt lat="43.8830056" lon="10.3738685"><ele>191.0</ele><time>2026-04-12T07:23:00.052Z</time></trkpt><trkpt lat="43.8829304" lon="10.3739372"><ele>191.0</ele><time>2026-04-12T07:23:03.043Z</time></trkpt><trkpt lat="43.882907" lon="10.3740579"><ele>191.0</ele><time>2026-04-12T07:23:05.046Z</time></trkpt><trkpt lat="43.8829055" lon="10.3741488"><ele>191.0</ele><time>2026-04-12T07:23:06.045Z</time></trkpt><trkpt lat="43.8829058" lon="10.3742562"><ele>191.0</ele><time>2026-04-12T07:23:07.038Z</time></trkpt><trkpt lat="43.8829067" lon="10.3743677"><ele>191.0</ele><time>2026-04-12T07:23:08.04Z</time></trkpt><trkpt lat="43.8828983" lon="10.3744805"><ele>191.0</ele><time>2026-04-12T07:23:09.041Z</time></trkpt><trkpt lat="43.8828786" lon="10.3745885"><ele>191.0</ele><time>2026-04-12T07:23:10.04Z</time></trkpt><trkpt lat="43.8828528" lon="10.3746859"><ele>191.0</ele><time>2026-04-12T07:23:11.045Z</time></trkpt><trkpt lat="43.8828187" lon="10.3747704"><ele>190.5</ele><time>2026-04-12T07:23:12.039Z</time></trkpt><trkpt lat="43.8827824" lon="10.3749057"><ele>190.0</ele><time>2026-04-12T07:23:14.047Z</time></trkpt><trkpt lat="43.8828157" lon="10.3750229"><ele>189.5</ele><time>2026-04-12T07:23:16.049Z</time></trkpt><trkpt lat="43.8828546" lon="10.375098"><ele>189.0</ele><time>2026-04-12T07:23:17.046Z</time></trkpt><trkpt lat="43.8829006" lon="10.3751705"><ele>188.5</ele><time>2026-04-12T07:23:18.045Z</time></trkpt><trkpt lat="43.8829492" lon="10.375238"><ele>188.0</ele><time>2026-04-12T07:23:19.048Z</time></trkpt><trkpt lat="43.8830111" lon="10.3753674"><ele>188.0</ele><time>2026-04-12T07:23:21.038Z</time></trkpt><trkpt lat="43.8829987" lon="10.3754987"><ele>188.0</ele><time>2026-04-12T07:23:23.051Z</time></trkpt><trkpt lat="43.8829307" lon="10.3756259"><ele>188.0</ele><time>2026-04-12T07:23:25.045Z</time></trkpt><trkpt lat="43.8828908" lon="10.3757693"><ele>188.0</ele><time>2026-04-12T07:23:27.048Z</time></trkpt><trkpt lat="43.8829019" lon="10.3759475"><ele>188.0</ele><time>2026-04-12T07:23:29.041Z</time></trkpt><trkpt lat="43.8829287" lon="10.3760445"><ele>186.57142857142856</ele><time>2026-04-12T07:23:30.046Z</time></trkpt><trkpt lat="43.8829632" lon="10.3761396"><ele>185.14285714285714</ele><time>2026-04-12T07:23:31.044Z</time></trkpt><trkpt lat="43.8829898" lon="10.3762249"><ele>183.71428571428572</ele><time>2026-04-12T07:23:32.044Z</time></trkpt><trkpt lat="43.8830142" lon="10.3763205"><ele>182.28571428571428</ele><time>2026-04-12T07:23:33.046Z</time></trkpt><trkpt lat="43.8830398" lon="10.3764131"><ele>180.85714285714286</ele><time>2026-04-12T07:23:34.044Z</time></trkpt><trkpt lat="43.883064" lon="10.3765029"><ele>179.42857142857142</ele><time>2026-04-12T07:23:35.043Z</time></trkpt><trkpt lat="43.8830808" lon="10.3765965"><ele>178.0</ele><time>2026-04-12T07:23:36.05Z</time></trkpt><trkpt lat="43.8830884" lon="10.37669"><ele>177.0</ele><time>2026-04-12T07:23:37.044Z</time></trkpt><trkpt lat="43.8830875" lon="10.3767808"><ele>176.0</ele><time>2026-04-12T07:23:38.039Z</time></trkpt><trkpt lat="43.883075" lon="10.3768781"><ele>175.0</ele><time>2026-04-12T07:23:39.045Z</time></trkpt><trkpt lat="43.8830541" lon="10.376977"><ele>174.0</ele><time>2026-04-12T07:23:40.042Z</time></trkpt><trkpt lat="43.8830305" lon="10.3770756"><ele>173.0</ele><time>2026-04-12T07:23:41.045Z</time></trkpt><trkpt lat="43.8830021" lon="10.3771786"><ele>172.0</ele><time>2026-04-12T07:23:42.048Z</time></trkpt><trkpt lat="43.8829692" lon="10.3772876"><ele>172.0</ele><time>2026-04-12T07:23:43.054Z</time></trkpt><trkpt lat="43.8829408" lon="10.3774004"><ele>172.0</ele><time>2026-04-12T07:23:44.047Z</time></trkpt><trkpt lat="43.8829216" lon="10.3775038"><ele>172.0</ele><time>2026-04-12T07:23:45.045Z</time></trkpt><trkpt lat="43.8829103" lon="10.3776085"><ele>172.0</ele><time>2026-04-12T07:23:46.049Z</time></trkpt><trkpt lat="43.8829057" lon="10.3777224"><ele>172.0</ele><time>2026-04-12T07:23:47.049Z</time></trkpt><trkpt lat="43.882907" lon="10.3778326"><ele>172.0</ele><time>2026-04-12T07:23:48.049Z</time></trkpt><trkpt lat="43.8829099" lon="10.3779299"><ele>170.0</ele><time>2026-04-12T07:23:49.045Z</time></trkpt><trkpt lat="43.8829084" lon="10.3780205"><ele>168.0</ele><time>2026-04-12T07:23:50.047Z</time></trkpt><trkpt lat="43.8829131" lon="10.378161"><ele>166.0</ele><time>2026-04-12T07:23:52.045Z</time></trkpt><trkpt lat="43.8829502" lon="10.3782671"><ele>164.0</ele><time>2026-04-12T07:23:54.05Z</time></trkpt><trkpt lat="43.8829972" lon="10.3783484"><ele>162.0</ele><time>2026-04-12T07:23:56.041Z</time></trkpt><trkpt lat="43.8830634" lon="10.3784598"><ele>160.0</ele><time>2026-04-12T07:23:58.048Z</time></trkpt><trkpt lat="43.8831035" lon="10.3785305"><ele>160.0</ele><time>2026-04-12T07:23:59.046Z</time></trkpt><trkpt lat="43.8831402" lon="10.3786936"><ele>160.0</ele><time>2026-04-12T07:24:01.047Z</time></trkpt><trkpt lat="43.8831398" lon="10.3788062"><ele>160.0</ele><time>2026-04-12T07:24:02.048Z</time></trkpt><trkpt lat="43.8831324" lon="10.3789424"><ele>160.0</ele><time>2026-04-12T07:24:03.05Z</time></trkpt><trkpt lat="43.8831173" lon="10.3790833"><ele>160.0</ele><time>2026-04-12T07:24:04.044Z</time></trkpt><trkpt lat="43.8831018" lon="10.3792097"><ele>158.33333333333334</ele><time>2026-04-12T07:24:05.039Z</time></trkpt><trkpt lat="43.8830839" lon="10.3793194"><ele>156.66666666666669</ele><time>2026-04-12T07:24:06.041Z</time></trkpt><trkpt lat="43.8830681" lon="10.3794236"><ele>155.0</ele><time>2026-04-12T07:24:07.044Z</time></trkpt><trkpt lat="43.8830599" lon="10.3795178"><ele>153.33333333333334</ele><time>2026-04-12T07:24:08.037Z</time></trkpt><trkpt lat="43.8830796" lon="10.3796513"><ele>151.66666666666666</ele><time>2026-04-12T07:24:10.042Z</time></trkpt><trkpt lat="43.8831134" lon="10.3797413"><ele>150.0</ele><time>2026-04-12T07:24:12.039Z</time></trkpt><trkpt lat="43.8831314" lon="10.3798267"><ele>149.16666666666666</ele><time>2026-04-12T07:24:14.04Z</time></trkpt><trkpt lat="43.8830873" lon="10.3799272"><ele>148.33333333333334</ele><time>2026-04-12T07:24:16.048Z</time></trkpt><trkpt lat="43.8830218" lon="10.3799844"><ele>147.5</ele><time>2026-04-12T07:24:18.049Z</time></trkpt><trkpt lat="43.8829382" lon="10.3800134"><ele>146.66666666666669</ele><time>2026-04-12T07:24:20.042Z</time></trkpt><trkpt lat="43.8829246" lon="10.3801122"><ele>145.83333333333334</ele><time>2026-04-12T07:24:23.037Z</time></trkpt><trkpt lat="43.8830036" lon="10.3801592"><ele>145.0</ele><time>2026-04-12T07:24:25.034Z</time></trkpt><trkpt lat="43.8830755" lon="10.38021"><ele>145.0</ele><time>2026-04-12T07:24:27.034Z</time></trkpt><trkpt lat="43.8830971" lon="10.3803089"><ele>145.0</ele><time>2026-04-12T07:24:29.033Z</time></trkpt><trkpt lat="43.8830932" lon="10.380477"><ele>145.0</ele><time>2026-04-12T07:24:31.033Z</time></trkpt><trkpt lat="43.8830771" lon="10.3805783"><ele>145.0</ele><time>2026-04-12T07:24:32.032Z</time></trkpt><trkpt lat="43.8830542" lon="10.3806977"><ele>145.0</ele><time>2026-04-12T07:24:33.037Z</time></trkpt><trkpt lat="43.8830352" lon="10.3808254"><ele>144.6</ele><time>2026-04-12T07:24:34.035Z</time></trkpt><trkpt lat="43.8830236" lon="10.3809573"><ele>144.2</ele><time>2026-04-12T07:24:35.031Z</time></trkpt><trkpt lat="43.8830201" lon="10.3811049"><ele>143.8</ele><time>2026-04-12T07:24:36.034Z</time></trkpt><trkpt lat="43.8830161" lon="10.381238"><ele>143.4</ele><time>2026-04-12T07:24:37.034Z</time></trkpt><trkpt lat="43.8830069" lon="10.3813584"><ele>143.0</ele><time>2026-04-12T07:24:38.034Z</time></trkpt><trkpt lat="43.8829954" lon="10.3814546"><ele>141.66666666666666</ele><time>2026-04-12T07:24:39.031Z</time></trkpt><trkpt lat="43.8829579" lon="10.3815759"><ele>140.33333333333331</ele><time>2026-04-12T07:24:41.032Z</time></trkpt><trkpt lat="43.8828896" lon="10.3816676"><ele>139.0</ele><time>2026-04-12T07:24:43.041Z</time></trkpt><trkpt lat="43.8828343" lon="10.3817876"><ele>137.66666666666666</ele><time>2026-04-12T07:24:45.034Z</time></trkpt><trkpt lat="43.8828168" lon="10.3818724"><ele>136.33333333333334</ele><time>2026-04-12T07:24:46.034Z</time></trkpt><trkpt lat="43.8828024" lon="10.38198"><ele>135.0</ele><time>2026-04-12T07:24:47.035Z</time></trkpt><trkpt lat="43.8827962" lon="10.382097"><ele>134.5</ele><time>2026-04-12T07:24:48.036Z</time></trkpt><trkpt lat="43.8827917" lon="10.3822163"><ele>134.0</ele><time>2026-04-12T07:24:49.034Z</time></trkpt><trkpt lat="43.8827858" lon="10.3823195"><ele>133.5</ele><time>2026-04-12T07:24:50.035Z</time></trkpt><trkpt lat="43.8827813" lon="10.3824137"><ele>133.0</ele><time>2026-04-12T07:24:51.035Z</time></trkpt><trkpt lat="43.8827733" lon="10.3825013"><ele>132.5</ele><time>2026-04-12T07:24:52.035Z</time></trkpt><trkpt lat="43.8827629" lon="10.3825892"><ele>132.0</ele><time>2026-04-12T07:24:53.042Z</time></trkpt><trkpt lat="43.8827389" lon="10.3827593"><ele>132.0</ele><time>2026-04-12T07:24:55.036Z</time></trkpt><trkpt lat="43.8827294" lon="10.3828461"><ele>132.0</ele><time>2026-04-12T07:24:56.038Z</time></trkpt><trkpt lat="43.8827073" lon="10.3830036"><ele>132.0</ele><time>2026-04-12T07:24:58.03Z</time></trkpt><trkpt lat="43.8826492" lon="10.3831525"><ele>132.0</ele><time>2026-04-12T07:25:00.034Z</time></trkpt><trkpt lat="43.882576" lon="10.3832834"><ele>132.0</ele><time>2026-04-12T07:25:02.04Z</time></trkpt><trkpt lat="43.8824984" lon="10.3834"><ele>131.16666666666666</ele><time>2026-04-12T07:25:04.035Z</time></trkpt><trkpt lat="43.8824316" lon="10.3835036"><ele>130.33333333333334</ele><time>2026-04-12T07:25:06.037Z</time></trkpt><trkpt lat="43.8823725" lon="10.3835469"><ele>129.5</ele><time>2026-04-12T07:25:08.034Z</time></trkpt><trkpt lat="43.8823002" lon="10.3835809"><ele>128.66666666666669</ele><time>2026-04-12T07:25:11.041Z</time></trkpt><trkpt lat="43.8823513" lon="10.3836946"><ele>127.83333333333334</ele><time>2026-04-12T07:25:14.038Z</time></trkpt><trkpt lat="43.882419" lon="10.3837834"><ele>127.0</ele><time>2026-04-12T07:25:16.034Z</time></trkpt><trkpt lat="43.8824874" lon="10.3838966"><ele>125.83333333333334</ele><time>2026-04-12T07:25:18.035Z</time></trkpt><trkpt lat="43.8826016" lon="10.3839668"><ele>124.66666666666667</ele><time>2026-04-12T07:25:20.034Z</time></trkpt><trkpt lat="43.882664" lon="10.3839879"><ele>123.5</ele><time>2026-04-12T07:25:21.036Z</time></trkpt><trkpt lat="43.8827324" lon="10.3840004"><ele>122.33333333333334</ele><time>2026-04-12T07:25:22.033Z</time></trkpt><trkpt lat="43.8827958" lon="10.3840091"><ele>121.16666666666667</ele><time>2026-04-12T07:25:23.035Z</time></trkpt><trkpt lat="43.8828695" lon="10.3840289"><ele>120.0</ele><time>2026-04-12T07:25:24.035Z</time></trkpt><trkpt lat="43.8829467" lon="10.3840487"><ele>120.0</ele><time>2026-04-12T07:25:25.033Z</time></trkpt><trkpt lat="43.8830184" lon="10.3840517"><ele>120.0</ele><time>2026-04-12T07:25:26.036Z</time></trkpt><trkpt lat="43.8830858" lon="10.3840331"><ele>120.0</ele><time>2026-04-12T07:25:27.035Z</time></trkpt><trkpt lat="43.883145" lon="10.3839939"><ele>120.0</ele><time>2026-04-12T07:25:28.036Z</time></trkpt><trkpt lat="43.883197" lon="10.3839409"><ele>120.0</ele><time>2026-04-12T07:25:29.039Z</time></trkpt><trkpt lat="43.8832472" lon="10.3838829"><ele>120.0</ele><time>2026-04-12T07:25:30.037Z</time></trkpt><trkpt lat="43.8832998" lon="10.3838264"><ele>120.0</ele><time>2026-04-12T07:25:31.037Z</time></trkpt><trkpt lat="43.8834075" lon="10.3837379"><ele>122.0</ele><time>2026-04-12T07:25:33.036Z</time></trkpt><trkpt lat="43.8835138" lon="10.3837299"><ele>124.0</ele><time>2026-04-12T07:25:35.036Z</time></trkpt><trkpt lat="43.8835998" lon="10.3838242"><ele>126.0</ele><time>2026-04-12T07:25:37.033Z</time></trkpt><trkpt lat="43.8836366" lon="10.3839127"><ele>128.0</ele><time>2026-04-12T07:25:38.037Z</time></trkpt><trkpt lat="43.8836796" lon="10.3840203"><ele>130.0</ele><time>2026-04-12T07:25:39.038Z</time></trkpt><trkpt lat="43.8837288" lon="10.3841287"><ele>130.0</ele><time>2026-04-12T07:25:40.035Z</time></trkpt><trkpt lat="43.8837808" lon="10.3842249"><ele>130.0</ele><time>2026-04-12T07:25:41.033Z</time></trkpt><trkpt lat="43.8838382" lon="10.384328"><ele>130.0</ele><time>2026-04-12T07:25:42.036Z</time></trkpt><trkpt lat="43.8839046" lon="10.3844272"><ele>130.0</ele><time>2026-04-12T07:25:43.04Z</time></trkpt><trkpt lat="43.8839764" lon="10.38452"><ele>130.0</ele><time>2026-04-12T07:25:44.038Z</time></trkpt><trkpt lat="43.8840578" lon="10.3846125"><ele>131.8</ele><time>2026-04-12T07:25:45.034Z</time></trkpt><trkpt lat="43.8841421" lon="10.3847011"><ele>133.6</ele><time>2026-04-12T07:25:46.039Z</time></trkpt><trkpt lat="43.8842225" lon="10.3847814"><ele>135.4</ele><time>2026-04-12T07:25:47.038Z</time></trkpt><trkpt lat="43.8843001" lon="10.3848507"><ele>137.2</ele><time>2026-04-12T07:25:48.036Z</time></trkpt><trkpt lat="43.8843736" lon="10.3849215"><ele>139.0</ele><time>2026-04-12T07:25:49.039Z</time></trkpt><trkpt lat="43.8844425" lon="10.3850041"><ele>139.0</ele><time>2026-04-12T07:25:50.037Z</time></trkpt><trkpt lat="43.8845015" lon="10.3851045"><ele>139.0</ele><time>2026-04-12T07:25:51.036Z</time></trkpt><trkpt lat="43.8845394" lon="10.3852266"><ele>139.0</ele><time>2026-04-12T07:25:52.036Z</time></trkpt><trkpt lat="43.8845586" lon="10.3853591"><ele>139.0</ele><time>2026-04-12T07:25:53.035Z</time></trkpt><trkpt lat="43.8845724" lon="10.3854794"><ele>139.0</ele><time>2026-04-12T07:25:54.035Z</time></trkpt><trkpt lat="43.8845903" lon="10.3855953"><ele>135.8</ele><time>2026-04-12T07:25:55.039Z</time></trkpt><trkpt lat="43.884628" lon="10.385716"><ele>132.60000000000002</ele><time>2026-04-12T07:25:56.041Z</time></trkpt><trkpt lat="43.8846857" lon="10.3858383"><ele>129.4</ele><time>2026-04-12T07:25:57.036Z</time></trkpt><trkpt lat="43.8847631" lon="10.385967"><ele>126.2</ele><time>2026-04-12T07:25:58.035Z</time></trkpt><trkpt lat="43.8848412" lon="10.3860979"><ele>123.0</ele><time>2026-04-12T07:25:59.038Z</time></trkpt><trkpt lat="43.8849164" lon="10.3862319"><ele>123.5</ele><time>2026-04-12T07:26:00.033Z</time></trkpt><trkpt lat="43.8849898" lon="10.3863635"><ele>124.0</ele><time>2026-04-12T07:26:01.035Z</time></trkpt><trkpt lat="43.8850639" lon="10.3864929"><ele>124.5</ele><time>2026-04-12T07:26:02.035Z</time></trkpt><trkpt lat="43.8851373" lon="10.3866176"><ele>125.0</ele><time>2026-04-12T07:26:03.036Z</time></trkpt><trkpt lat="43.8852047" lon="10.3867376"><ele>125.0</ele><time>2026-04-12T07:26:04.033Z</time></trkpt><trkpt lat="43.8852668" lon="10.3868588"><ele>125.0</ele><time>2026-04-12T07:26:05.036Z</time></trkpt><trkpt lat="43.8853227" lon="10.3869878"><ele>125.0</ele><time>2026-04-12T07:26:06.035Z</time></trkpt><trkpt lat="43.8853743" lon="10.3871172"><ele>125.0</ele><time>2026-04-12T07:26:07.036Z</time></trkpt><trkpt lat="43.8854283" lon="10.3872393"><ele>125.0</ele><time>2026-04-12T07:26:08.036Z</time></trkpt><trkpt lat="43.885489" lon="10.3873687"><ele>123.0</ele><time>2026-04-12T07:26:09.036Z</time></trkpt><trkpt lat="43.8855453" lon="10.3875027"><ele>121.0</ele><time>2026-04-12T07:26:10.035Z</time></trkpt><trkpt lat="43.8855945" lon="10.3876504"><ele>119.0</ele><time>2026-04-12T07:26:11.037Z</time></trkpt><trkpt lat="43.8856361" lon="10.3878109"><ele>117.0</ele><time>2026-04-12T07:26:12.037Z</time></trkpt><trkpt lat="43.8856768" lon="10.3879656"><ele>117.33333333333333</ele><time>2026-04-12T07:26:13.036Z</time></trkpt><trkpt lat="43.8857188" lon="10.3881095"><ele>117.66666666666666</ele><time>2026-04-12T07:26:14.035Z</time></trkpt><trkpt lat="43.8857543" lon="10.3882271"><ele>118.0</ele><time>2026-04-12T07:26:15.035Z</time></trkpt><trkpt lat="43.8857907" lon="10.3883245"><ele>118.33333333333333</ele><time>2026-04-12T07:26:16.035Z</time></trkpt><trkpt lat="43.8858395" lon="10.3883968"><ele>118.66666666666666</ele><time>2026-04-12T07:26:17.032Z</time></trkpt><trkpt lat="43.8858964" lon="10.3884358"><ele>119.0</ele><time>2026-04-12T07:26:18.035Z</time></trkpt><trkpt lat="43.8860086" lon="10.3884892"><ele>119.0</ele><time>2026-04-12T07:26:20.037Z</time></trkpt><trkpt lat="43.8860675" lon="10.3885816"><ele>119.0</ele><time>2026-04-12T07:26:22.036Z</time></trkpt><trkpt lat="43.8860217" lon="10.3887642"><ele>119.0</ele><time>2026-04-12T07:26:24.036Z</time></trkpt><trkpt lat="43.8859526" lon="10.3888822"><ele>119.0</ele><time>2026-04-12T07:26:25.037Z</time></trkpt><trkpt lat="43.8858666" lon="10.3889899"><ele>116.6</ele><time>2026-04-12T07:26:26.037Z</time></trkpt><trkpt lat="43.8857751" lon="10.3890814"><ele>114.2</ele><time>2026-04-12T07:26:27.037Z</time></trkpt><trkpt lat="43.8856957" lon="10.3891662"><ele>111.79999999999998</ele><time>2026-04-12T07:26:28.033Z</time></trkpt><trkpt lat="43.885633" lon="10.3892604"><ele>109.39999999999999</ele><time>2026-04-12T07:26:29.039Z</time></trkpt><trkpt lat="43.8855849" lon="10.3893854"><ele>107.0</ele><time>2026-04-12T07:26:30.038Z</time></trkpt><trkpt lat="43.8855442" lon="10.3895458"><ele>107.0</ele><time>2026-04-12T07:26:31.035Z</time></trkpt><trkpt lat="43.8855113" lon="10.3897072"><ele>107.0</ele><time>2026-04-12T07:26:32.04Z</time></trkpt><trkpt lat="43.8854737" lon="10.3898653"><ele>107.0</ele><time>2026-04-12T07:26:33.037Z</time></trkpt><trkpt lat="43.885431" lon="10.3900129"><ele>107.0</ele><time>2026-04-12T07:26:34.036Z</time></trkpt><trkpt lat="43.8853879" lon="10.3901641"><ele>107.0</ele><time>2026-04-12T07:26:35.04Z</time></trkpt><trkpt lat="43.8853503" lon="10.3903299"><ele>107.0</ele><time>2026-04-12T07:26:36.04Z</time></trkpt><trkpt lat="43.8853206" lon="10.3905039"><ele>107.0</ele><time>2026-04-12T07:26:37.036Z</time></trkpt><trkpt lat="43.8852975" lon="10.3906771"><ele>107.0</ele><time>2026-04-12T07:26:38.039Z</time></trkpt><trkpt lat="43.8852785" lon="10.3908538"><ele>106.39999999999999</ele><time>2026-04-12T07:26:39.039Z</time></trkpt><trkpt lat="43.8852619" lon="10.391022"><ele>105.79999999999998</ele><time>2026-04-12T07:26:40.037Z</time></trkpt><trkpt lat="43.8852478" lon="10.3911763"><ele>105.2</ele><time>2026-04-12T07:26:41.038Z</time></trkpt><trkpt lat="43.8852353" lon="10.3913221"><ele>104.6</ele><time>2026-04-12T07:26:42.031Z</time></trkpt><trkpt lat="43.8852146" lon="10.3914564"><ele>104.0</ele><time>2026-04-12T07:26:43.038Z</time></trkpt><trkpt lat="43.8851737" lon="10.3915857"><ele>103.6</ele><time>2026-04-12T07:26:44.038Z</time></trkpt><trkpt lat="43.8851132" lon="10.3917158"><ele>103.2</ele><time>2026-04-12T07:26:45.039Z</time></trkpt><trkpt lat="43.8850474" lon="10.3918407"><ele>102.8</ele><time>2026-04-12T07:26:46.038Z</time></trkpt><trkpt lat="43.8849941" lon="10.3919607"><ele>102.39999999999999</ele><time>2026-04-12T07:26:47.038Z</time></trkpt><trkpt lat="43.8849536" lon="10.3920884"><ele>102.0</ele><time>2026-04-12T07:26:48.039Z</time></trkpt><trkpt lat="43.8849303" lon="10.3922247"><ele>99.19999999999999</ele><time>2026-04-12T07:26:49.039Z</time></trkpt><trkpt lat="43.884923" lon="10.3923545"><ele>96.4</ele><time>2026-04-12T07:26:50.04Z</time></trkpt><trkpt lat="43.8849226" lon="10.3924824"><ele>93.6</ele><time>2026-04-12T07:26:51.039Z</time></trkpt><trkpt lat="43.8849307" lon="10.3926085"><ele>90.80000000000001</ele><time>2026-04-12T07:26:52.038Z</time></trkpt><trkpt lat="43.8849518" lon="10.3927347"><ele>88.0</ele><time>2026-04-12T07:26:53.04Z</time></trkpt><trkpt lat="43.884986" lon="10.3928659"><ele>88.0</ele><time>2026-04-12T07:26:54.043Z</time></trkpt><trkpt lat="43.8850346" lon="10.392998"><ele>88.0</ele><time>2026-04-12T07:26:55.039Z</time></trkpt><trkpt lat="43.8850873" lon="10.3931264"><ele>88.0</ele><time>2026-04-12T07:26:56.041Z</time></trkpt><trkpt lat="43.8851437" lon="10.3932531"><ele>88.0</ele><time>2026-04-12T07:26:57.042Z</time></trkpt><trkpt lat="43.8852004" lon="10.3933758"><ele>88.0</ele><time>2026-04-12T07:26:58.039Z</time></trkpt><trkpt lat="43.885257" lon="10.3934859"><ele>88.4</ele><time>2026-04-12T07:26:59.042Z</time></trkpt><trkpt lat="43.8853063" lon="10.3935846"><ele>88.80000000000001</ele><time>2026-04-12T07:27:00.035Z</time></trkpt><trkpt lat="43.8853486" lon="10.393667"><ele>89.2</ele><time>2026-04-12T07:27:01.039Z</time></trkpt><trkpt lat="43.8854087" lon="10.3937732"><ele>89.6</ele><time>2026-04-12T07:27:03.04Z</time></trkpt><trkpt lat="43.8854851" lon="10.3939217"><ele>90.0</ele><time>2026-04-12T07:27:05.044Z</time></trkpt><trkpt lat="43.8855419" lon="10.3940343"><ele>90.0</ele><time>2026-04-12T07:27:06.039Z</time></trkpt><trkpt lat="43.8856036" lon="10.3941635"><ele>90.0</ele><time>2026-04-12T07:27:07.036Z</time></trkpt><trkpt lat="43.8856537" lon="10.3942979"><ele>90.0</ele><time>2026-04-12T07:27:08.037Z</time></trkpt><trkpt lat="43.8856857" lon="10.3944268"><ele>90.0</ele><time>2026-04-12T07:27:09.036Z</time></trkpt><trkpt lat="43.8856964" lon="10.3945571"><ele>90.0</ele><time>2026-04-12T07:27:10.038Z</time></trkpt><trkpt lat="43.8856931" lon="10.3946833"><ele>89.5</ele><time>2026-04-12T07:27:11.037Z</time></trkpt><trkpt lat="43.8856883" lon="10.394826"><ele>89.0</ele><time>2026-04-12T07:27:12.038Z</time></trkpt><trkpt lat="43.8856842" lon="10.3950024"><ele>88.5</ele><time>2026-04-12T07:27:13.042Z</time></trkpt><trkpt lat="43.8857083" lon="10.395174"><ele>88.0</ele><time>2026-04-12T07:27:14.041Z</time></trkpt><trkpt lat="43.8857594" lon="10.3953164"><ele>88.0</ele><time>2026-04-12T07:27:15.038Z</time></trkpt><trkpt lat="43.8858221" lon="10.395431"><ele>88.0</ele><time>2026-04-12T07:27:16.038Z</time></trkpt><trkpt lat="43.8859115" lon="10.3955095"><ele>88.0</ele><time>2026-04-12T07:27:17.038Z</time></trkpt><trkpt lat="43.8860284" lon="10.3955295"><ele>88.0</ele><time>2026-04-12T07:27:18.038Z</time></trkpt><trkpt lat="43.8861688" lon="10.3955243"><ele>92.0</ele><time>2026-04-12T07:27:19.038Z</time></trkpt><trkpt lat="43.8863457" lon="10.3955166"><ele>96.0</ele><time>2026-04-12T07:27:20.04Z</time></trkpt><trkpt lat="43.886504" lon="10.395502"><ele>100.0</ele><time>2026-04-12T07:27:21.039Z</time></trkpt><trkpt lat="43.8866367" lon="10.3954957"><ele>100.2</ele><time>2026-04-12T07:27:22.035Z</time></trkpt><trkpt lat="43.886749" lon="10.3955021"><ele>100.4</ele><time>2026-04-12T07:27:23.037Z</time></trkpt><trkpt lat="43.88684" lon="10.3955215"><ele>100.6</ele><time>2026-04-12T07:27:24.041Z</time></trkpt><trkpt lat="43.886913" lon="10.3955361"><ele>100.8</ele><time>2026-04-12T07:27:25.039Z</time></trkpt><trkpt lat="43.8870107" lon="10.3954953"><ele>101.0</ele><time>2026-04-12T07:27:27.039Z</time></trkpt><trkpt lat="43.8869623" lon="10.3953609"><ele>101.0</ele><time>2026-04-12T07:27:29.044Z</time></trkpt><trkpt lat="43.8868786" lon="10.3953032"><ele>101.0</ele><time>2026-04-12T07:27:30.039Z</time></trkpt><trkpt lat="43.8867866" lon="10.3952509"><ele>101.0</ele><time>2026-04-12T07:27:31.041Z</time></trkpt><trkpt lat="43.8867144" lon="10.3951823"><ele>101.0</ele><time>2026-04-12T07:27:32.04Z</time></trkpt><trkpt lat="43.8866867" lon="10.3950835"><ele>101.0</ele><time>2026-04-12T07:27:33.039Z</time></trkpt><trkpt lat="43.8867219" lon="10.3949571"><ele>103.8</ele><time>2026-04-12T07:27:34.043Z</time></trkpt><trkpt lat="43.8867912" lon="10.3948373"><ele>106.6</ele><time>2026-04-12T07:27:35.041Z</time></trkpt><trkpt lat="43.8868667" lon="10.3947452"><ele>109.4</ele><time>2026-04-12T07:27:36.041Z</time></trkpt><trkpt lat="43.8869656" lon="10.3946807"><ele>112.2</ele><time>2026-04-12T07:27:37.041Z</time></trkpt><trkpt lat="43.8870867" lon="10.3946311"><ele>115.0</ele><time>2026-04-12T07:27:38.042Z</time></trkpt><trkpt lat="43.8872346" lon="10.3945988"><ele>115.0</ele><time>2026-04-12T07:27:39.042Z</time></trkpt><trkpt lat="43.8873837" lon="10.3945778"><ele>115.0</ele><time>2026-04-12T07:27:40.041Z</time></trkpt><trkpt lat="43.8875181" lon="10.3945405"><ele>115.0</ele><time>2026-04-12T07:27:41.038Z</time></trkpt><trkpt lat="43.8876242" lon="10.3944852"><ele>115.0</ele><time>2026-04-12T07:27:42.033Z</time></trkpt><trkpt lat="43.8877026" lon="10.394414"><ele>117.6</ele><time>2026-04-12T07:27:43.044Z</time></trkpt><trkpt lat="43.8877348" lon="10.3943043"><ele>120.2</ele><time>2026-04-12T07:27:44.041Z</time></trkpt><trkpt lat="43.8877281" lon="10.3941498"><ele>122.80000000000001</ele><time>2026-04-12T07:27:45.041Z</time></trkpt><trkpt lat="43.8877044" lon="10.3940051"><ele>125.4</ele><time>2026-04-12T07:27:46.042Z</time></trkpt><trkpt lat="43.8877078" lon="10.3938983"><ele>128.0</ele><time>2026-04-12T07:27:47.036Z</time></trkpt><trkpt lat="43.8878309" lon="10.3938526"><ele>128.0</ele><time>2026-04-12T07:27:49.044Z</time></trkpt><trkpt lat="43.8879319" lon="10.3939224"><ele>128.0</ele><time>2026-04-12T07:27:50.037Z</time></trkpt><trkpt lat="43.8880544" lon="10.3940175"><ele>128.0</ele><time>2026-04-12T07:27:51.039Z</time></trkpt><trkpt lat="43.8881831" lon="10.3941085"><ele>128.0</ele><time>2026-04-12T07:27:52.042Z</time></trkpt><trkpt lat="43.8883058" lon="10.3941826"><ele>128.0</ele><time>2026-04-12T07:27:53.046Z</time></trkpt><trkpt lat="43.888414" lon="10.3942385"><ele>128.0</ele><time>2026-04-12T07:27:54.041Z</time></trkpt><trkpt lat="43.8885093" lon="10.3942753"><ele>128.0</ele><time>2026-04-12T07:27:55.042Z</time></trkpt><trkpt lat="43.888601" lon="10.3942965"><ele>128.0</ele><time>2026-04-12T07:27:56.04Z</time></trkpt><trkpt lat="43.8886865" lon="10.3942897"><ele>128.0</ele><time>2026-04-12T07:27:57.04Z</time></trkpt><trkpt lat="43.8887705" lon="10.3942496"><ele>129.4</ele><time>2026-04-12T07:27:58.041Z</time></trkpt><trkpt lat="43.8888565" lon="10.3941913"><ele>130.8</ele><time>2026-04-12T07:27:59.041Z</time></trkpt><trkpt lat="43.8889496" lon="10.3941328"><ele>132.2</ele><time>2026-04-12T07:28:00.04Z</time></trkpt><trkpt lat="43.8890487" lon="10.394074"><ele>133.6</ele><time>2026-04-12T07:28:01.039Z</time></trkpt><trkpt lat="43.8891522" lon="10.3939998"><ele>135.0</ele><time>2026-04-12T07:28:02.038Z</time></trkpt><trkpt lat="43.8892459" lon="10.3939164"><ele>138.33333333333334</ele><time>2026-04-12T07:28:03.039Z</time></trkpt><trkpt lat="43.8893215" lon="10.3938269"><ele>141.66666666666666</ele><time>2026-04-12T07:28:04.04Z</time></trkpt><trkpt lat="43.8893711" lon="10.3937301"><ele>145.0</ele><time>2026-04-12T07:28:05.039Z</time></trkpt><trkpt lat="43.8893861" lon="10.3936251"><ele>148.33333333333331</ele><time>2026-04-12T07:28:06.039Z</time></trkpt><trkpt lat="43.8893668" lon="10.3935023"><ele>151.66666666666666</ele><time>2026-04-12T07:28:07.04Z</time></trkpt><trkpt lat="43.8893364" lon="10.3933812"><ele>155.0</ele><time>2026-04-12T07:28:08.038Z</time></trkpt><trkpt lat="43.8893073" lon="10.3932592"><ele>155.0</ele><time>2026-04-12T07:28:09.043Z</time></trkpt><trkpt lat="43.8892944" lon="10.3931502"><ele>155.0</ele><time>2026-04-12T07:28:10.041Z</time></trkpt><trkpt lat="43.8893222" lon="10.3930616"><ele>155.0</ele><time>2026-04-12T07:28:11.04Z</time></trkpt><trkpt lat="43.8894029" lon="10.3930208"><ele>155.0</ele><time>2026-04-12T07:28:12.039Z</time></trkpt><trkpt lat="43.8894664" lon="10.3929982"><ele>155.0</ele><time>2026-04-12T07:28:13.038Z</time></trkpt><trkpt lat="43.8895377" lon="10.3930178"><ele>155.0</ele><time>2026-04-12T07:28:14.04Z</time></trkpt><trkpt lat="43.8895881" lon="10.3931555"><ele>155.0</ele><time>2026-04-12T07:28:16.043Z</time></trkpt><trkpt lat="43.8895596" lon="10.3932512"><ele>155.0</ele><time>2026-04-12T07:28:17.041Z</time></trkpt><trkpt lat="43.8895156" lon="10.3933487"><ele>155.0</ele><time>2026-04-12T07:28:18.041Z</time></trkpt><trkpt lat="43.8894847" lon="10.3934374"><ele>155.0</ele><time>2026-04-12T07:28:19.043Z</time></trkpt><trkpt lat="43.8894799" lon="10.3935705"><ele>155.0</ele><time>2026-04-12T07:28:21.041Z</time></trkpt><trkpt lat="43.8895846" lon="10.3936272"><ele>155.0</ele><time>2026-04-12T07:28:23.041Z</time></trkpt><trkpt lat="43.8896715" lon="10.3936102"><ele>155.0</ele><time>2026-04-12T07:28:24.04Z</time></trkpt><trkpt lat="43.8897613" lon="10.3935809"><ele>155.0</ele><time>2026-04-12T07:28:25.039Z</time></trkpt><trkpt lat="43.8898452" lon="10.3935579"><ele>155.0</ele><time>2026-04-12T07:28:26.04Z</time></trkpt><trkpt lat="43.8899243" lon="10.3935504"><ele>155.0</ele><time>2026-04-12T07:28:27.038Z</time></trkpt><trkpt lat="43.8899941" lon="10.3935461"><ele>155.0</ele><time>2026-04-12T07:28:28.039Z</time></trkpt><trkpt lat="43.8900909" lon="10.3935434"><ele>155.0</ele><time>2026-04-12T07:28:30.04Z</time></trkpt><trkpt lat="43.8901511" lon="10.3934696"><ele>155.0</ele><time>2026-04-12T07:28:32.041Z</time></trkpt><trkpt lat="43.8901" lon="10.3933964"><ele>155.0</ele><time>2026-04-12T07:28:34.04Z</time></trkpt><trkpt lat="43.8900262" lon="10.3934125"><ele>155.0</ele><time>2026-04-12T07:28:35.041Z</time></trkpt><trkpt lat="43.8899486" lon="10.3934151"><ele>155.0</ele><time>2026-04-12T07:28:36.039Z</time></trkpt><trkpt lat="43.8898804" lon="10.3933754"><ele>155.0</ele><time>2026-04-12T07:28:37.041Z</time></trkpt><trkpt lat="43.8898629" lon="10.3932889"><ele>155.0</ele><time>2026-04-12T07:28:38.041Z</time></trkpt><trkpt lat="43.8899099" lon="10.3931583"><ele>155.0</ele><time>2026-04-12T07:28:39.042Z</time></trkpt><trkpt lat="43.889992" lon="10.3930294"><ele>155.0</ele><time>2026-04-12T07:28:40.042Z</time></trkpt><trkpt lat="43.8900925" lon="10.3929085"><ele>155.0</ele><time>2026-04-12T07:28:41.041Z</time></trkpt><trkpt lat="43.8901913" lon="10.3927923"><ele>155.0</ele><time>2026-04-12T07:28:42.041Z</time></trkpt><trkpt lat="43.8902932" lon="10.392656"><ele>157.8</ele><time>2026-04-12T07:28:43.04Z</time></trkpt><trkpt lat="43.8903743" lon="10.3925271"><ele>160.6</ele><time>2026-04-12T07:28:44.043Z</time></trkpt><trkpt lat="43.8904434" lon="10.3924202"><ele>163.39999999999998</ele><time>2026-04-12T07:28:45.04Z</time></trkpt><trkpt lat="43.8905128" lon="10.3923427"><ele>166.2</ele><time>2026-04-12T07:28:46.037Z</time></trkpt><trkpt lat="43.8905792" lon="10.3923046"><ele>169.0</ele><time>2026-04-12T07:28:47.042Z</time></trkpt><trkpt lat="43.8906592" lon="10.3923673"><ele>169.0</ele><time>2026-04-12T07:28:49.042Z</time></trkpt><trkpt lat="43.8906464" lon="10.392454"><ele>169.0</ele><time>2026-04-12T07:28:50.043Z</time></trkpt><trkpt lat="43.8905821" lon="10.3925563"><ele>169.0</ele><time>2026-04-12T07:28:51.044Z</time></trkpt><trkpt lat="43.8904863" lon="10.3926676"><ele>169.0</ele><time>2026-04-12T07:28:52.041Z</time></trkpt><trkpt lat="43.8903968" lon="10.3927801"><ele>169.0</ele><time>2026-04-12T07:28:53.042Z</time></trkpt><trkpt lat="43.8903301" lon="10.3928748"><ele>169.0</ele><time>2026-04-12T07:28:54.039Z</time></trkpt><trkpt lat="43.8902837" lon="10.3929583"><ele>169.0</ele><time>2026-04-12T07:28:55.042Z</time></trkpt><trkpt lat="43.8903234" lon="10.3930687"><ele>169.0</ele><time>2026-04-12T07:28:57.04Z</time></trkpt><trkpt lat="43.8904091" lon="10.3930508"><ele>169.0</ele><time>2026-04-12T07:28:58.042Z</time></trkpt><trkpt lat="43.8905285" lon="10.3929908"><ele>169.0</ele><time>2026-04-12T07:28:59.044Z</time></trkpt><trkpt lat="43.8906635" lon="10.3929217"><ele>169.0</ele><time>2026-04-12T07:29:00.04Z</time></trkpt><trkpt lat="43.8907995" lon="10.3928683"><ele>169.0</ele><time>2026-04-12T07:29:01.04Z</time></trkpt><trkpt lat="43.8909208" lon="10.3928347"><ele>169.0</ele><time>2026-04-12T07:29:02.041Z</time></trkpt><trkpt lat="43.8910217" lon="10.3928354"><ele>169.0</ele><time>2026-04-12T07:29:03.042Z</time></trkpt><trkpt lat="43.8911135" lon="10.3928829"><ele>172.16666666666669</ele><time>2026-04-12T07:29:04.041Z</time></trkpt><trkpt lat="43.8911943" lon="10.3929599"><ele>175.33333333333334</ele><time>2026-04-12T07:29:05.04Z</time></trkpt><trkpt lat="43.8912501" lon="10.3930433"><ele>178.5</ele><time>2026-04-12T07:29:06.042Z</time></trkpt><trkpt lat="43.8913019" lon="10.3931162"><ele>181.66666666666666</ele><time>2026-04-12T07:29:07.04Z</time></trkpt><trkpt lat="43.8913623" lon="10.3931435"><ele>184.83333333333331</ele><time>2026-04-12T07:29:08.042Z</time></trkpt><trkpt lat="43.8913836" lon="10.3930479"><ele>188.0</ele><time>2026-04-12T07:29:10.041Z</time></trkpt><trkpt lat="43.8913157" lon="10.3929477"><ele>188.60000000000002</ele><time>2026-04-12T07:29:11.041Z</time></trkpt><trkpt lat="43.8912311" lon="10.3928426"><ele>189.20000000000002</ele><time>2026-04-12T07:29:12.042Z</time></trkpt><trkpt lat="43.8911664" lon="10.392762"><ele>189.8</ele><time>2026-04-12T07:29:13.037Z</time></trkpt><trkpt lat="43.8911625" lon="10.3925978"><ele>190.4</ele><time>2026-04-12T07:29:15.043Z</time></trkpt><trkpt lat="43.8912216" lon="10.3925322"><ele>191.0</ele><time>2026-04-12T07:29:16.043Z</time></trkpt><trkpt lat="43.8912896" lon="10.3925019"><ele>191.0</ele><time>2026-04-12T07:29:17.043Z</time></trkpt><trkpt lat="43.8913554" lon="10.3925688"><ele>191.0</ele><time>2026-04-12T07:29:19.045Z</time></trkpt><trkpt lat="43.8913124" lon="10.3926787"><ele>191.0</ele><time>2026-04-12T07:29:21.046Z</time></trkpt><trkpt lat="43.8912882" lon="10.3927811"><ele>191.0</ele><time>2026-04-12T07:29:23.044Z</time></trkpt><trkpt lat="43.8913863" lon="10.3929312"><ele>191.0</ele><time>2026-04-12T07:29:25.042Z</time></trkpt><trkpt lat="43.8914558" lon="10.3930175"><ele>190.71428571428572</ele><time>2026-04-12T07:29:26.043Z</time></trkpt><trkpt lat="43.8915151" lon="10.3930936"><ele>190.42857142857142</ele><time>2026-04-12T07:29:27.041Z</time></trkpt><trkpt lat="43.8915724" lon="10.3931474"><ele>190.14285714285714</ele><time>2026-04-12T07:29:28.043Z</time></trkpt><trkpt lat="43.8916364" lon="10.3931466"><ele>189.85714285714286</ele><time>2026-04-12T07:29:29.045Z</time></trkpt><trkpt lat="43.8917129" lon="10.3931178"><ele>189.57142857142856</ele><time>2026-04-12T07:29:30.042Z</time></trkpt><trkpt lat="43.8917857" lon="10.3930904"><ele>189.28571428571428</ele><time>2026-04-12T07:29:31.044Z</time></trkpt><trkpt lat="43.8918567" lon="10.3930926"><ele>189.0</ele><time>2026-04-12T07:29:32.045Z</time></trkpt><trkpt lat="43.8919414" lon="10.3931701"><ele>189.0</ele><time>2026-04-12T07:29:33.044Z</time></trkpt><trkpt lat="43.8920213" lon="10.3933062"><ele>189.0</ele><time>2026-04-12T07:29:34.046Z</time></trkpt><trkpt lat="43.8920967" lon="10.3934533"><ele>189.0</ele><time>2026-04-12T07:29:35.038Z</time></trkpt><trkpt lat="43.892175" lon="10.393596"><ele>189.0</ele><time>2026-04-12T07:29:36.047Z</time></trkpt><trkpt lat="43.892257" lon="10.3937135"><ele>189.0</ele><time>2026-04-12T07:29:37.05Z</time></trkpt><trkpt lat="43.8923389" lon="10.3938106"><ele>189.0</ele><time>2026-04-12T07:29:38.045Z</time></trkpt><trkpt lat="43.8924089" lon="10.3938884"><ele>189.0</ele><time>2026-04-12T07:29:39.045Z</time></trkpt><trkpt lat="43.8924578" lon="10.3939447"><ele>189.0</ele><time>2026-04-12T07:29:40.046Z</time></trkpt><trkpt lat="43.892515" lon="10.3940242"><ele>189.0</ele><time>2026-04-12T07:29:42.044Z</time></trkpt><trkpt lat="43.8925561" lon="10.3941"><ele>189.0</ele><time>2026-04-12T07:29:44.044Z</time></trkpt><trkpt lat="43.892615" lon="10.3942141"><ele>189.57142857142858</ele><time>2026-04-12T07:29:46.049Z</time></trkpt><trkpt lat="43.8926714" lon="10.3942631"><ele>190.14285714285714</ele><time>2026-04-12T07:29:47.045Z</time></trkpt><trkpt lat="43.8927472" lon="10.3942956"><ele>190.71428571428572</ele><time>2026-04-12T07:29:48.044Z</time></trkpt><trkpt lat="43.8928221" lon="10.3943225"><ele>191.28571428571428</ele><time>2026-04-12T07:29:49.038Z</time></trkpt><trkpt lat="43.892888" lon="10.3943544"><ele>191.85714285714286</ele><time>2026-04-12T07:29:50.047Z</time></trkpt><trkpt lat="43.8929481" lon="10.3943891"><ele>192.42857142857144</ele><time>2026-04-12T07:29:51.045Z</time></trkpt><trkpt lat="43.893011" lon="10.3944074"><ele>193.0</ele><time>2026-04-12T07:29:52.046Z</time></trkpt><trkpt lat="43.8930859" lon="10.3943758"><ele>193.0</ele><time>2026-04-12T07:29:53.047Z</time></trkpt><trkpt lat="43.893173" lon="10.3943138"><ele>193.0</ele><time>2026-04-12T07:29:54.044Z</time></trkpt><trkpt lat="43.893288" lon="10.3942459"><ele>193.0</ele><time>2026-04-12T07:29:55.045Z</time></trkpt><trkpt lat="43.8934112" lon="10.3941968"><ele>193.0</ele><time>2026-04-12T07:29:56.048Z</time></trkpt><trkpt lat="43.8935282" lon="10.3941642"><ele>192.99999999999997</ele><time>2026-04-12T07:29:57.047Z</time></trkpt><trkpt lat="43.8936272" lon="10.3941519"><ele>193.0</ele><time>2026-04-12T07:29:58.046Z</time></trkpt><trkpt lat="43.893708" lon="10.3941706"><ele>193.0</ele><time>2026-04-12T07:29:59.04Z</time></trkpt><trkpt lat="43.8937753" lon="10.3942366"><ele>193.0</ele><time>2026-04-12T07:30:00.045Z</time></trkpt><trkpt lat="43.8938114" lon="10.394338"><ele>192.99999999999997</ele><time>2026-04-12T07:30:01.045Z</time></trkpt><trkpt lat="43.8938021" lon="10.3944604"><ele>193.0</ele><time>2026-04-12T07:30:02.043Z</time></trkpt><trkpt lat="43.8937454" lon="10.3945662"><ele>193.0</ele><time>2026-04-12T07:30:03.045Z</time></trkpt><trkpt lat="43.8936673" lon="10.3946632"><ele>193.0</ele><time>2026-04-12T07:30:04.044Z</time></trkpt><trkpt lat="43.8935828" lon="10.3947576"><ele>193.0</ele><time>2026-04-12T07:30:05.042Z</time></trkpt><trkpt lat="43.8934979" lon="10.3948505"><ele>193.0</ele><time>2026-04-12T07:30:06.043Z</time></trkpt><trkpt lat="43.8934109" lon="10.3949324"><ele>193.0</ele><time>2026-04-12T07:30:07.043Z</time></trkpt><trkpt lat="43.8933182" lon="10.3949912"><ele>195.0</ele><time>2026-04-12T07:30:08.042Z</time></trkpt><trkpt lat="43.893226" lon="10.3950447"><ele>197.0</ele><time>2026-04-12T07:30:09.042Z</time></trkpt><trkpt lat="43.8931502" lon="10.3951382"><ele>199.0</ele><time>2026-04-12T07:30:10.044Z</time></trkpt><trkpt lat="43.8930821" lon="10.3952753"><ele>201.0</ele><time>2026-04-12T07:30:11.046Z</time></trkpt><trkpt lat="43.893011" lon="10.3954397"><ele>198.75</ele><time>2026-04-12T07:30:12.045Z</time></trkpt><trkpt lat="43.8929352" lon="10.3956068"><ele>196.5</ele><time>2026-04-12T07:30:13.048Z</time></trkpt><trkpt lat="43.8928618" lon="10.3957655"><ele>194.25</ele><time>2026-04-12T07:30:14.045Z</time></trkpt><trkpt lat="43.8928043" lon="10.3959052"><ele>192.0</ele><time>2026-04-12T07:30:15.043Z</time></trkpt><trkpt lat="43.8927638" lon="10.3960293"><ele>192.0</ele><time>2026-04-12T07:30:16.044Z</time></trkpt><trkpt lat="43.8927315" lon="10.3961411"><ele>192.0</ele><time>2026-04-12T07:30:17.044Z</time></trkpt><trkpt lat="43.8927098" lon="10.3962644"><ele>192.0</ele><time>2026-04-12T07:30:18.05Z</time></trkpt><trkpt lat="43.8926973" lon="10.3964113"><ele>192.0</ele><time>2026-04-12T07:30:19.052Z</time></trkpt><trkpt lat="43.8927025" lon="10.3965648"><ele>192.0</ele><time>2026-04-12T07:30:20.046Z</time></trkpt><trkpt lat="43.8927209" lon="10.3967134"><ele>192.0</ele><time>2026-04-12T07:30:21.045Z</time></trkpt><trkpt lat="43.892745" lon="10.3968413"><ele>192.0</ele><time>2026-04-12T07:30:22.045Z</time></trkpt><trkpt lat="43.8927624" lon="10.3969555"><ele>192.0</ele><time>2026-04-12T07:30:23.043Z</time></trkpt><trkpt lat="43.8927605" lon="10.3970651"><ele>192.0</ele><time>2026-04-12T07:30:24.045Z</time></trkpt><trkpt lat="43.8927355" lon="10.3971811"><ele>192.0</ele><time>2026-04-12T07:30:25.044Z</time></trkpt><trkpt lat="43.8926937" lon="10.3973023"><ele>192.0</ele><time>2026-04-12T07:30:26.045Z</time></trkpt><trkpt lat="43.8926511" lon="10.3974302"><ele>192.0</ele><time>2026-04-12T07:30:27.045Z</time></trkpt><trkpt lat="43.8926205" lon="10.3975645"><ele>192.0</ele><time>2026-04-12T07:30:28.048Z</time></trkpt><trkpt lat="43.892606" lon="10.3976959"><ele>192.0</ele><time>2026-04-12T07:30:29.044Z</time></trkpt><trkpt lat="43.8925998" lon="10.3978117"><ele>192.0</ele><time>2026-04-12T07:30:30.044Z</time></trkpt><trkpt lat="43.8925919" lon="10.3979151"><ele>192.0</ele><time>2026-04-12T07:30:31.042Z</time></trkpt><trkpt lat="43.8925824" lon="10.3980044"><ele>192.0</ele><time>2026-04-12T07:30:32.043Z</time></trkpt><trkpt lat="43.8925935" lon="10.3981438"><ele>195.0</ele><time>2026-04-12T07:30:34.041Z</time></trkpt><trkpt lat="43.8926552" lon="10.3982779"><ele>198.0</ele><time>2026-04-12T07:30:36.041Z</time></trkpt><trkpt lat="43.8927338" lon="10.3984028"><ele>201.0</ele><time>2026-04-12T07:30:38.04Z</time></trkpt><trkpt lat="43.892798" lon="10.3984902"><ele>204.0</ele><time>2026-04-12T07:30:40.042Z</time></trkpt><trkpt lat="43.8928763" lon="10.3985631"><ele>207.0</ele><time>2026-04-12T07:30:44.045Z</time></trkpt><trkpt lat="43.8929714" lon="10.3986798"><ele>207.0</ele><time>2026-04-12T07:30:46.045Z</time></trkpt><trkpt lat="43.8930255" lon="10.3987653"><ele>207.0</ele><time>2026-04-12T07:30:47.047Z</time></trkpt><trkpt lat="43.8930812" lon="10.3988641"><ele>207.0</ele><time>2026-04-12T07:30:48.046Z</time></trkpt><trkpt lat="43.8931344" lon="10.3989459"><ele>207.0</ele><time>2026-04-12T07:30:49.046Z</time></trkpt><trkpt lat="43.893189" lon="10.3990311"><ele>207.0</ele><time>2026-04-12T07:30:50.048Z</time></trkpt><trkpt lat="43.8932276" lon="10.399121"><ele>207.0</ele><time>2026-04-12T07:30:51.047Z</time></trkpt><trkpt lat="43.893259" lon="10.3992172"><ele>209.16666666666666</ele><time>2026-04-12T07:30:52.045Z</time></trkpt><trkpt lat="43.8932765" lon="10.399324"><ele>211.33333333333331</ele><time>2026-04-12T07:30:53.047Z</time></trkpt><trkpt lat="43.8932914" lon="10.3994363"><ele>213.5</ele><time>2026-04-12T07:30:54.047Z</time></trkpt><trkpt lat="43.8933074" lon="10.3995429"><ele>215.66666666666666</ele><time>2026-04-12T07:30:55.048Z</time></trkpt><trkpt lat="43.8933285" lon="10.3996469"><ele>217.83333333333331</ele><time>2026-04-12T07:30:56.048Z</time></trkpt><trkpt lat="43.8933514" lon="10.3997452"><ele>220.0</ele><time>2026-04-12T07:30:57.046Z</time></trkpt><trkpt lat="43.8933761" lon="10.3998346"><ele>221.0</ele><time>2026-04-12T07:30:58.05Z</time></trkpt><trkpt lat="43.8934044" lon="10.4000051"><ele>222.0</ele><time>2026-04-12T07:31:00.046Z</time></trkpt><trkpt lat="43.8934162" lon="10.4001731"><ele>223.0</ele><time>2026-04-12T07:31:02.046Z</time></trkpt><trkpt lat="43.8934181" lon="10.4002672"><ele>224.0</ele><time>2026-04-12T07:31:03.048Z</time></trkpt><trkpt lat="43.893418" lon="10.400369"><ele>225.0</ele><time>2026-04-12T07:31:04.044Z</time></trkpt><trkpt lat="43.8934224" lon="10.4004625"><ele>228.33333333333334</ele><time>2026-04-12T07:31:05.043Z</time></trkpt><trkpt lat="43.8934454" lon="10.4005927"><ele>231.66666666666669</ele><time>2026-04-12T07:31:07.047Z</time></trkpt><trkpt lat="43.8935042" lon="10.4006904"><ele>235.0</ele><time>2026-04-12T07:31:09.043Z</time></trkpt><trkpt lat="43.893603" lon="10.4007882"><ele>238.33333333333334</ele><time>2026-04-12T07:31:11.046Z</time></trkpt><trkpt lat="43.8936541" lon="10.4008449"><ele>241.66666666666669</ele><time>2026-04-12T07:31:12.046Z</time></trkpt><trkpt lat="43.8937072" lon="10.4009062"><ele>245.0</ele><time>2026-04-12T07:31:13.046Z</time></trkpt><trkpt lat="43.8937595" lon="10.4009647"><ele>245.00000000000003</ele><time>2026-04-12T07:31:14.046Z</time></trkpt><trkpt lat="43.8938074" lon="10.4010268"><ele>245.0</ele><time>2026-04-12T07:31:15.048Z</time></trkpt><trkpt lat="43.8938524" lon="10.4011289"><ele>245.0</ele><time>2026-04-12T07:31:17.047Z</time></trkpt><trkpt lat="43.8937935" lon="10.4012348"><ele>245.0</ele><time>2026-04-12T07:31:20.048Z</time></trkpt><trkpt lat="43.8937061" lon="10.4012947"><ele>245.00000000000003</ele><time>2026-04-12T07:31:22.047Z</time></trkpt><trkpt lat="43.8936418" lon="10.401336"><ele>245.0</ele><time>2026-04-12T07:31:23.048Z</time></trkpt><trkpt lat="43.8935829" lon="10.4013847"><ele>247.2</ele><time>2026-04-12T07:31:24.048Z</time></trkpt><trkpt lat="43.8934985" lon="10.4015164"><ele>249.4</ele><time>2026-04-12T07:31:26.049Z</time></trkpt><trkpt lat="43.8934667" lon="10.401611"><ele>251.60000000000002</ele><time>2026-04-12T07:31:27.05Z</time></trkpt><trkpt lat="43.893433" lon="10.4017168"><ele>253.8</ele><time>2026-04-12T07:31:28.043Z</time></trkpt><trkpt lat="43.8933918" lon="10.401829"><ele>256.0</ele><time>2026-04-12T07:31:29.05Z</time></trkpt><trkpt lat="43.8933528" lon="10.4019266"><ele>256.8333333333333</ele><time>2026-04-12T07:31:30.048Z</time></trkpt><trkpt lat="43.8933197" lon="10.4020086"><ele>257.66666666666663</ele><time>2026-04-12T07:31:31.047Z</time></trkpt><trkpt lat="43.8932899" lon="10.4021543"><ele>258.5</ele><time>2026-04-12T07:31:33.045Z</time></trkpt><trkpt lat="43.8932907" lon="10.4022751"><ele>259.3333333333333</ele><time>2026-04-12T07:31:35.046Z</time></trkpt><trkpt lat="43.8932879" lon="10.4024288"><ele>260.1666666666667</ele><time>2026-04-12T07:31:37.045Z</time></trkpt><trkpt lat="43.8932844" lon="10.4025285"><ele>261.0</ele><time>2026-04-12T07:31:38.048Z</time></trkpt><trkpt lat="43.8932862" lon="10.4026383"><ele>263.3333333333333</ele><time>2026-04-12T07:31:39.046Z</time></trkpt><trkpt lat="43.8932964" lon="10.4027458"><ele>265.6666666666667</ele><time>2026-04-12T07:31:40.048Z</time></trkpt><trkpt lat="43.8933025" lon="10.4028391"><ele>268.0</ele><time>2026-04-12T07:31:41.046Z</time></trkpt><trkpt lat="43.8933321" lon="10.4029973"><ele>270.33333333333337</ele><time>2026-04-12T07:31:43.047Z</time></trkpt><trkpt lat="43.8933594" lon="10.4030777"><ele>272.6666666666667</ele><time>2026-04-12T07:31:44.048Z</time></trkpt><trkpt lat="43.8933902" lon="10.403206"><ele>275.0</ele><time>2026-04-12T07:31:46.042Z</time></trkpt><trkpt lat="43.8933705" lon="10.4032919"><ele>276.5</ele><time>2026-04-12T07:31:48.046Z</time></trkpt><trkpt lat="43.8933456" lon="10.4034336"><ele>278.0</ele><time>2026-04-12T07:31:50.048Z</time></trkpt><trkpt lat="43.8933347" lon="10.4035449"><ele>279.5</ele><time>2026-04-12T07:31:51.046Z</time></trkpt><trkpt lat="43.8933167" lon="10.4036593"><ele>281.0</ele><time>2026-04-12T07:31:52.045Z</time></trkpt><trkpt lat="43.893295" lon="10.4037728"><ele>282.5</ele><time>2026-04-12T07:31:53.049Z</time></trkpt><trkpt lat="43.893279" lon="10.4038669"><ele>284.0</ele><time>2026-04-12T07:31:54.049Z</time></trkpt><trkpt lat="43.8932787" lon="10.4040035"><ele>286.0</ele><time>2026-04-12T07:31:56.048Z</time></trkpt><trkpt lat="43.8932046" lon="10.4041249"><ele>288.0</ele><time>2026-04-12T07:31:59.045Z</time></trkpt><trkpt lat="43.8931243" lon="10.4041905"><ele>290.0</ele><time>2026-04-12T07:32:00.043Z</time></trkpt><trkpt lat="43.8930389" lon="10.4042611"><ele>292.0</ele><time>2026-04-12T07:32:01.044Z</time></trkpt><trkpt lat="43.8929582" lon="10.4043217"><ele>294.0</ele><time>2026-04-12T07:32:02.043Z</time></trkpt><trkpt lat="43.892887" lon="10.4043805"><ele>294.0</ele><time>2026-04-12T07:32:03.041Z</time></trkpt><trkpt lat="43.8928241" lon="10.404437"><ele>294.0</ele><time>2026-04-12T07:32:04.045Z</time></trkpt><trkpt lat="43.8927636" lon="10.4044796"><ele>294.0</ele><time>2026-04-12T07:32:05.045Z</time></trkpt><trkpt lat="43.8926932" lon="10.4044954"><ele>294.0</ele><time>2026-04-12T07:32:06.043Z</time></trkpt><trkpt lat="43.8926142" lon="10.4045014"><ele>294.0</ele><time>2026-04-12T07:32:07.043Z</time></trkpt><trkpt lat="43.892537" lon="10.4045003"><ele>294.0</ele><time>2026-04-12T07:32:08.042Z</time></trkpt><trkpt lat="43.8924693" lon="10.4044973"><ele>294.0</ele><time>2026-04-12T07:32:09.043Z</time></trkpt><trkpt lat="43.892353" lon="10.4045201"><ele>291.59999999999997</ele><time>2026-04-12T07:32:11.05Z</time></trkpt><trkpt lat="43.8922403" lon="10.4045744"><ele>289.2</ele><time>2026-04-12T07:32:13.044Z</time></trkpt><trkpt lat="43.8921732" lon="10.4046258"><ele>286.79999999999995</ele><time>2026-04-12T07:32:14.043Z</time></trkpt><trkpt lat="43.8920984" lon="10.404681"><ele>284.4</ele><time>2026-04-12T07:32:15.045Z</time></trkpt><trkpt lat="43.8920251" lon="10.4047435"><ele>282.0</ele><time>2026-04-12T07:32:16.044Z</time></trkpt><trkpt lat="43.8919485" lon="10.4048152"><ele>282.3333333333333</ele><time>2026-04-12T07:32:17.047Z</time></trkpt><trkpt lat="43.8918755" lon="10.4048794"><ele>282.6666666666667</ele><time>2026-04-12T07:32:18.044Z</time></trkpt><trkpt lat="43.8918063" lon="10.4049403"><ele>283.0</ele><time>2026-04-12T07:32:19.044Z</time></trkpt><trkpt lat="43.8917435" lon="10.4049956"><ele>283.33333333333337</ele><time>2026-04-12T07:32:20.045Z</time></trkpt><trkpt lat="43.8916465" lon="10.4050781"><ele>283.6666666666667</ele><time>2026-04-12T07:32:22.044Z</time></trkpt><trkpt lat="43.8915841" lon="10.4051568"><ele>284.0</ele><time>2026-04-12T07:32:24.044Z</time></trkpt><trkpt lat="43.8915118" lon="10.405269"><ele>284.0</ele><time>2026-04-12T07:32:26.048Z</time></trkpt><trkpt lat="43.891479" lon="10.4053484"><ele>284.0</ele><time>2026-04-12T07:32:27.046Z</time></trkpt><trkpt lat="43.8914369" lon="10.4054415"><ele>284.0</ele><time>2026-04-12T07:32:29.044Z</time></trkpt><trkpt lat="43.8913768" lon="10.4054908"><ele>284.0</ele><time>2026-04-12T07:32:33.043Z</time></trkpt><trkpt lat="43.8913216" lon="10.4055601"><ele>284.0</ele><time>2026-04-12T07:32:35.044Z</time></trkpt><trkpt lat="43.8912958" lon="10.4056591"><ele>284.0</ele><time>2026-04-12T07:32:37.047Z</time></trkpt><trkpt lat="43.8913155" lon="10.4057528"><ele>284.0</ele><time>2026-04-12T07:32:39.043Z</time></trkpt><trkpt lat="43.8913997" lon="10.4058247"><ele>286.5</ele><time>2026-04-12T07:32:42.047Z</time></trkpt><trkpt lat="43.8914567" lon="10.4058772"><ele>289.0</ele><time>2026-04-12T07:32:44.045Z</time></trkpt><trkpt lat="43.8914668" lon="10.4059971"><ele>291.5</ele><time>2026-04-12T07:32:46.046Z</time></trkpt><trkpt lat="43.8914803" lon="10.406147"><ele>294.0</ele><time>2026-04-12T07:32:48.045Z</time></trkpt><trkpt lat="43.8914921" lon="10.4062394"><ele>296.5</ele><time>2026-04-12T07:32:49.047Z</time></trkpt><trkpt lat="43.8915116" lon="10.4063393"><ele>299.0</ele><time>2026-04-12T07:32:50.046Z</time></trkpt><trkpt lat="43.8915325" lon="10.4064382"><ele>300.0</ele><time>2026-04-12T07:32:51.042Z</time></trkpt><trkpt lat="43.8915538" lon="10.4065401"><ele>301.0</ele><time>2026-04-12T07:32:52.044Z</time></trkpt><trkpt lat="43.8915688" lon="10.4066374"><ele>302.0</ele><time>2026-04-12T07:32:53.045Z</time></trkpt><trkpt lat="43.8915684" lon="10.4067267"><ele>303.0</ele><time>2026-04-12T07:32:54.045Z</time></trkpt><trkpt lat="43.8915478" lon="10.4068211"><ele>304.0</ele><time>2026-04-12T07:32:55.044Z</time></trkpt><trkpt lat="43.8915054" lon="10.4069246"><ele>305.0</ele><time>2026-04-12T07:32:56.045Z</time></trkpt><trkpt lat="43.8914544" lon="10.407036"><ele>305.0</ele><time>2026-04-12T07:32:57.047Z</time></trkpt><trkpt lat="43.8914001" lon="10.4071465"><ele>305.0</ele><time>2026-04-12T07:32:58.047Z</time></trkpt><trkpt lat="43.8913466" lon="10.4072583"><ele>305.0</ele><time>2026-04-12T07:32:59.045Z</time></trkpt><trkpt lat="43.8912982" lon="10.4073758"><ele>305.0</ele><time>2026-04-12T07:33:00.044Z</time></trkpt><trkpt lat="43.8912595" lon="10.4074923"><ele>305.0</ele><time>2026-04-12T07:33:01.041Z</time></trkpt><trkpt lat="43.8912313" lon="10.4076059"><ele>307.0</ele><time>2026-04-12T07:33:02.041Z</time></trkpt><trkpt lat="43.8912119" lon="10.4077338"><ele>309.0</ele><time>2026-04-12T07:33:03.045Z</time></trkpt><trkpt lat="43.8911981" lon="10.4078838"><ele>311.0</ele><time>2026-04-12T07:33:04.041Z</time></trkpt><trkpt lat="43.8911865" lon="10.4080488"><ele>313.0</ele><time>2026-04-12T07:33:05.043Z</time></trkpt><trkpt lat="43.8911787" lon="10.4082301"><ele>315.25</ele><time>2026-04-12T07:33:06.043Z</time></trkpt><trkpt lat="43.891169" lon="10.4084158"><ele>317.5</ele><time>2026-04-12T07:33:07.046Z</time></trkpt><trkpt lat="43.8911624" lon="10.4085818"><ele>319.75</ele><time>2026-04-12T07:33:08.042Z</time></trkpt><trkpt lat="43.8911587" lon="10.408741"><ele>322.0</ele><time>2026-04-12T07:33:09.045Z</time></trkpt><trkpt lat="43.8911473" lon="10.4089024"><ele>322.25</ele><time>2026-04-12T07:33:10.045Z</time></trkpt><trkpt lat="43.891134" lon="10.4090762"><ele>322.5</ele><time>2026-04-12T07:33:11.045Z</time></trkpt><trkpt lat="43.8911216" lon="10.4092453"><ele>322.75</ele><time>2026-04-12T07:33:12.044Z</time></trkpt><trkpt lat="43.8911112" lon="10.4093968"><ele>323.0</ele><time>2026-04-12T07:33:13.044Z</time></trkpt><trkpt lat="43.8911116" lon="10.4095272"><ele>323.0</ele><time>2026-04-12T07:33:14.044Z</time></trkpt><trkpt lat="43.8911176" lon="10.4096563"><ele>323.0</ele><time>2026-04-12T07:33:15.046Z</time></trkpt><trkpt lat="43.8911249" lon="10.4098017"><ele>323.0</ele><time>2026-04-12T07:33:16.045Z</time></trkpt><trkpt lat="43.8911322" lon="10.4099444"><ele>323.0</ele><time>2026-04-12T07:33:17.044Z</time></trkpt><trkpt lat="43.8911285" lon="10.4100821"><ele>323.0</ele><time>2026-04-12T07:33:18.043Z</time></trkpt><trkpt lat="43.8911195" lon="10.4102125"><ele>323.33333333333337</ele><time>2026-04-12T07:33:19.045Z</time></trkpt><trkpt lat="43.8911113" lon="10.4103342"><ele>323.6666666666667</ele><time>2026-04-12T07:33:20.045Z</time></trkpt><trkpt lat="43.8911018" lon="10.4104551"><ele>324.0</ele><time>2026-04-12T07:33:21.044Z</time></trkpt><trkpt lat="43.8910917" lon="10.4105691"><ele>324.3333333333333</ele><time>2026-04-12T07:33:22.043Z</time></trkpt><trkpt lat="43.8910814" lon="10.4106734"><ele>324.66666666666663</ele><time>2026-04-12T07:33:23.046Z</time></trkpt><trkpt lat="43.8910738" lon="10.4107779"><ele>325.0</ele><time>2026-04-12T07:33:24.046Z</time></trkpt><trkpt lat="43.891068" lon="10.4108976"><ele>326.16666666666663</ele><time>2026-04-12T07:33:25.048Z</time></trkpt><trkpt lat="43.8910624" lon="10.4110226"><ele>327.3333333333333</ele><time>2026-04-12T07:33:26.045Z</time></trkpt><trkpt lat="43.8910552" lon="10.4111376"><ele>328.5</ele><time>2026-04-12T07:33:27.044Z</time></trkpt><trkpt lat="43.8910414" lon="10.4112409"><ele>329.6666666666667</ele><time>2026-04-12T07:33:28.045Z</time></trkpt><trkpt lat="43.8910076" lon="10.4113288"><ele>330.83333333333337</ele><time>2026-04-12T07:33:29.045Z</time></trkpt><trkpt lat="43.8909626" lon="10.4114102"><ele>332.0</ele><time>2026-04-12T07:33:30.039Z</time></trkpt><trkpt lat="43.890926" lon="10.4114941"><ele>332.33333333333337</ele><time>2026-04-12T07:33:31.043Z</time></trkpt><trkpt lat="43.8909011" lon="10.4115914"><ele>332.6666666666667</ele><time>2026-04-12T07:33:32.046Z</time></trkpt><trkpt lat="43.8908903" lon="10.4117088"><ele>333.0</ele><time>2026-04-12T07:33:33.046Z</time></trkpt><trkpt lat="43.890892" lon="10.4118219"><ele>333.3333333333333</ele><time>2026-04-12T07:33:34.048Z</time></trkpt><trkpt lat="43.8909071" lon="10.4119344"><ele>333.66666666666663</ele><time>2026-04-12T07:33:35.04Z</time></trkpt><trkpt lat="43.8909324" lon="10.4120441"><ele>334.0</ele><time>2026-04-12T07:33:36.043Z</time></trkpt><trkpt lat="43.8909711" lon="10.4121496"><ele>333.66666666666663</ele><time>2026-04-12T07:33:37.045Z</time></trkpt><trkpt lat="43.891018" lon="10.412236"><ele>333.3333333333333</ele><time>2026-04-12T07:33:38.044Z</time></trkpt><trkpt lat="43.8910711" lon="10.4123055"><ele>333.0</ele><time>2026-04-12T07:33:39.045Z</time></trkpt><trkpt lat="43.8911321" lon="10.4123596"><ele>332.6666666666667</ele><time>2026-04-12T07:33:40.047Z</time></trkpt><trkpt lat="43.8911862" lon="10.4124107"><ele>332.33333333333337</ele><time>2026-04-12T07:33:41.044Z</time></trkpt><trkpt lat="43.8912682" lon="10.4125365"><ele>332.0</ele><time>2026-04-12T07:33:43.043Z</time></trkpt><trkpt lat="43.8912922" lon="10.4126267"><ele>332.0</ele><time>2026-04-12T07:33:44.044Z</time></trkpt><trkpt lat="43.8913077" lon="10.4127339"><ele>332.0</ele><time>2026-04-12T07:33:45.047Z</time></trkpt><trkpt lat="43.8913037" lon="10.4128546"><ele>332.0</ele><time>2026-04-12T07:33:46.043Z</time></trkpt><trkpt lat="43.8912878" lon="10.4129742"><ele>332.0</ele><time>2026-04-12T07:33:47.045Z</time></trkpt><trkpt lat="43.8912715" lon="10.4130734"><ele>332.0</ele><time>2026-04-12T07:33:48.045Z</time></trkpt><trkpt lat="43.8912731" lon="10.4131891"><ele>332.0</ele><time>2026-04-12T07:33:50.047Z</time></trkpt><trkpt lat="43.891312" lon="10.4132632"><ele>329.8</ele><time>2026-04-12T07:33:52.043Z</time></trkpt><trkpt lat="43.8913153" lon="10.4133693"><ele>327.6</ele><time>2026-04-12T07:33:54.05Z</time></trkpt><trkpt lat="43.8912233" lon="10.4135075"><ele>325.40000000000003</ele><time>2026-04-12T07:33:56.046Z</time></trkpt><trkpt lat="43.8911499" lon="10.4135883"><ele>323.20000000000005</ele><time>2026-04-12T07:33:57.047Z</time></trkpt><trkpt lat="43.8910734" lon="10.4136821"><ele>321.0</ele><time>2026-04-12T07:33:58.048Z</time></trkpt><trkpt lat="43.8909992" lon="10.4137769"><ele>320.5</ele><time>2026-04-12T07:33:59.048Z</time></trkpt><trkpt lat="43.8909231" lon="10.4138728"><ele>320.0</ele><time>2026-04-12T07:34:00.048Z</time></trkpt><trkpt lat="43.8908378" lon="10.4139782"><ele>319.5</ele><time>2026-04-12T07:34:01.049Z</time></trkpt><trkpt lat="43.8907396" lon="10.4140948"><ele>319.0</ele><time>2026-04-12T07:34:02.054Z</time></trkpt><trkpt lat="43.8906393" lon="10.4142166"><ele>319.0</ele><time>2026-04-12T07:34:03.055Z</time></trkpt><trkpt lat="43.8905361" lon="10.4143293"><ele>319.0</ele><time>2026-04-12T07:34:04.05Z</time></trkpt><trkpt lat="43.8904362" lon="10.4144356"><ele>319.0</ele><time>2026-04-12T07:34:05.05Z</time></trkpt><trkpt lat="43.8903517" lon="10.4145298"><ele>319.0</ele><time>2026-04-12T07:34:06.05Z</time></trkpt><trkpt lat="43.8902838" lon="10.4146176"><ele>319.6</ele><time>2026-04-12T07:34:07.043Z</time></trkpt><trkpt lat="43.8902305" lon="10.4146949"><ele>320.2</ele><time>2026-04-12T07:34:08.055Z</time></trkpt><trkpt lat="43.8901934" lon="10.4147903"><ele>320.8</ele><time>2026-04-12T07:34:09.048Z</time></trkpt><trkpt lat="43.8901572" lon="10.4149028"><ele>321.40000000000003</ele><time>2026-04-12T07:34:10.047Z</time></trkpt><trkpt lat="43.8901" lon="10.4150253"><ele>322.0</ele><time>2026-04-12T07:34:11.049Z</time></trkpt><trkpt lat="43.8900186" lon="10.4151605"><ele>322.0</ele><time>2026-04-12T07:34:12.046Z</time></trkpt><trkpt lat="43.8899259" lon="10.4152943"><ele>322.0</ele><time>2026-04-12T07:34:13.047Z</time></trkpt><trkpt lat="43.8898299" lon="10.415431"><ele>322.0</ele><time>2026-04-12T07:34:14.049Z</time></trkpt><trkpt lat="43.8897338" lon="10.4155677"><ele>322.0</ele><time>2026-04-12T07:34:15.048Z</time></trkpt><trkpt lat="43.8896353" lon="10.4157057"><ele>319.75</ele><time>2026-04-12T07:34:16.048Z</time></trkpt><trkpt lat="43.8895397" lon="10.415837"><ele>317.5</ele><time>2026-04-12T07:34:17.047Z</time></trkpt><trkpt lat="43.8894509" lon="10.4159611"><ele>315.25</ele><time>2026-04-12T07:34:18.05Z</time></trkpt><trkpt lat="43.8893703" lon="10.4160771"><ele>313.0</ele><time>2026-04-12T07:34:19.051Z</time></trkpt><trkpt lat="43.889299" lon="10.4161803"><ele>314.0</ele><time>2026-04-12T07:34:20.051Z</time></trkpt><trkpt lat="43.8892347" lon="10.4162638"><ele>315.0</ele><time>2026-04-12T07:34:21.05Z</time></trkpt><trkpt lat="43.8891675" lon="10.4163258"><ele>316.0</ele><time>2026-04-12T07:34:22.05Z</time></trkpt><trkpt lat="43.8890852" lon="10.4163683"><ele>317.0</ele><time>2026-04-12T07:34:23.045Z</time></trkpt><trkpt lat="43.8889884" lon="10.4164016"><ele>318.0</ele><time>2026-04-12T07:34:24.045Z</time></trkpt><trkpt lat="43.888891" lon="10.4164451"><ele>318.0</ele><time>2026-04-12T07:34:25.045Z</time></trkpt><trkpt lat="43.8888011" lon="10.4165017"><ele>318.0</ele><time>2026-04-12T07:34:26.046Z</time></trkpt><trkpt lat="43.8887184" lon="10.416585"><ele>318.0</ele><time>2026-04-12T07:34:27.05Z</time></trkpt><trkpt lat="43.8886395" lon="10.4166981"><ele>318.0</ele><time>2026-04-12T07:34:28.047Z</time></trkpt><trkpt lat="43.8885535" lon="10.4168248"><ele>318.0</ele><time>2026-04-12T07:34:29.049Z</time></trkpt><trkpt lat="43.8884708" lon="10.4169604"><ele>318.8</ele><time>2026-04-12T07:34:30.046Z</time></trkpt><trkpt lat="43.8883895" lon="10.4170882"><ele>319.6</ele><time>2026-04-12T07:34:31.045Z</time></trkpt><trkpt lat="43.8883133" lon="10.4172094"><ele>320.40000000000003</ele><time>2026-04-12T07:34:32.047Z</time></trkpt><trkpt lat="43.8882553" lon="10.4173206"><ele>321.20000000000005</ele><time>2026-04-12T07:34:33.047Z</time></trkpt><trkpt lat="43.8882254" lon="10.4174294"><ele>322.0</ele><time>2026-04-12T07:34:34.047Z</time></trkpt><trkpt lat="43.8882276" lon="10.4175327"><ele>322.8</ele><time>2026-04-12T07:34:35.045Z</time></trkpt><trkpt lat="43.8882585" lon="10.4176518"><ele>323.6</ele><time>2026-04-12T07:34:36.047Z</time></trkpt><trkpt lat="43.8883063" lon="10.4177918"><ele>324.40000000000003</ele><time>2026-04-12T07:34:37.045Z</time></trkpt><trkpt lat="43.8883544" lon="10.4179404"><ele>325.20000000000005</ele><time>2026-04-12T07:34:38.046Z</time></trkpt><trkpt lat="43.8883718" lon="10.4180765"><ele>326.0</ele><time>2026-04-12T07:34:39.046Z</time></trkpt><trkpt lat="43.8883723" lon="10.4181871"><ele>327.20000000000005</ele><time>2026-04-12T07:34:40.048Z</time></trkpt><trkpt lat="43.8883591" lon="10.4182825"><ele>328.40000000000003</ele><time>2026-04-12T07:34:43.048Z</time></trkpt><trkpt lat="43.8883361" lon="10.4183715"><ele>329.6</ele><time>2026-04-12T07:34:46.049Z</time></trkpt><trkpt lat="43.8883092" lon="10.4185009"><ele>330.8</ele><time>2026-04-12T07:34:48.046Z</time></trkpt><trkpt lat="43.888281" lon="10.4186882"><ele>332.0</ele><time>2026-04-12T07:34:50.047Z</time></trkpt><trkpt lat="43.8882676" lon="10.4188081"><ele>333.0</ele><time>2026-04-12T07:34:51.047Z</time></trkpt><trkpt lat="43.8882628" lon="10.41894"><ele>334.0</ele><time>2026-04-12T07:34:52.045Z</time></trkpt><trkpt lat="43.8882698" lon="10.4190716"><ele>335.0</ele><time>2026-04-12T07:34:53.045Z</time></trkpt><trkpt lat="43.8882803" lon="10.4192084"><ele>336.0</ele><time>2026-04-12T07:34:54.044Z</time></trkpt><trkpt lat="43.8882862" lon="10.419375"><ele>337.0</ele><time>2026-04-12T07:34:55.044Z</time></trkpt><trkpt lat="43.8882864" lon="10.419569"><ele>339.0</ele><time>2026-04-12T07:34:56.047Z</time></trkpt><trkpt lat="43.8882861" lon="10.4197862"><ele>341.0</ele><time>2026-04-12T07:34:57.046Z</time></trkpt><trkpt lat="43.8882808" lon="10.4200161"><ele>343.0</ele><time>2026-04-12T07:34:58.044Z</time></trkpt><trkpt lat="43.8882775" lon="10.4202352"><ele>343.0</ele><time>2026-04-12T07:34:59.046Z</time></trkpt><trkpt lat="43.8882691" lon="10.4204418"><ele>343.0</ele><time>2026-04-12T07:35:00.045Z</time></trkpt><trkpt lat="43.8882597" lon="10.4206343"><ele>343.0</ele><time>2026-04-12T07:35:01.044Z</time></trkpt><trkpt lat="43.8882469" lon="10.4208129"><ele>343.0</ele><time>2026-04-12T07:35:02.044Z</time></trkpt><trkpt lat="43.8882266" lon="10.4209921"><ele>343.0</ele><time>2026-04-12T07:35:03.046Z</time></trkpt><trkpt lat="43.8882076" lon="10.421164"><ele>343.0</ele><time>2026-04-12T07:35:04.045Z</time></trkpt><trkpt lat="43.8882051" lon="10.4213344"><ele>343.0</ele><time>2026-04-12T07:35:05.044Z</time></trkpt><trkpt lat="43.8882231" lon="10.4215181"><ele>343.0</ele><time>2026-04-12T07:35:06.044Z</time></trkpt><trkpt lat="43.8882667" lon="10.4217129"><ele>343.75</ele><time>2026-04-12T07:35:07.043Z</time></trkpt><trkpt lat="43.8883248" lon="10.4219012"><ele>344.5</ele><time>2026-04-12T07:35:08.043Z</time></trkpt><trkpt lat="43.8883771" lon="10.4220908"><ele>345.25</ele><time>2026-04-12T07:35:09.044Z</time></trkpt><trkpt lat="43.888429" lon="10.4222658"><ele>346.0</ele><time>2026-04-12T07:35:10.041Z</time></trkpt><trkpt lat="43.888483" lon="10.4224221"><ele>345.0</ele><time>2026-04-12T07:35:11.042Z</time></trkpt><trkpt lat="43.8885403" lon="10.4225706"><ele>344.0</ele><time>2026-04-12T07:35:12.048Z</time></trkpt><trkpt lat="43.8886051" lon="10.4227242"><ele>343.0</ele><time>2026-04-12T07:35:13.046Z</time></trkpt><trkpt lat="43.8886787" lon="10.4228815"><ele>342.0</ele><time>2026-04-12T07:35:14.044Z</time></trkpt><trkpt lat="43.8887643" lon="10.4230297"><ele>342.0</ele><time>2026-04-12T07:35:15.044Z</time></trkpt><trkpt lat="43.8888555" lon="10.4231609"><ele>342.0</ele><time>2026-04-12T07:35:16.044Z</time></trkpt><trkpt lat="43.8889501" lon="10.4232734"><ele>342.0</ele><time>2026-04-12T07:35:17.042Z</time></trkpt><trkpt lat="43.8890474" lon="10.4233795"><ele>342.0</ele><time>2026-04-12T07:35:18.043Z</time></trkpt><trkpt lat="43.8891492" lon="10.4234923"><ele>342.0</ele><time>2026-04-12T07:35:19.049Z</time></trkpt><trkpt lat="43.8892486" lon="10.4236049"><ele>342.0</ele><time>2026-04-12T07:35:20.048Z</time></trkpt><trkpt lat="43.8893428" lon="10.4237036"><ele>342.0</ele><time>2026-04-12T07:35:21.054Z</time></trkpt><trkpt lat="43.8894536" lon="10.4237909"><ele>342.0</ele><time>2026-04-12T07:35:22.051Z</time></trkpt><trkpt lat="43.8895816" lon="10.4238591"><ele>341.0</ele><time>2026-04-12T07:35:23.043Z</time></trkpt><trkpt lat="43.8897187" lon="10.4239029"><ele>340.0</ele><time>2026-04-12T07:35:24.051Z</time></trkpt><trkpt lat="43.8898553" lon="10.4239271"><ele>339.0</ele><time>2026-04-12T07:35:25.049Z</time></trkpt><trkpt lat="43.8899846" lon="10.4239426"><ele>338.0</ele><time>2026-04-12T07:35:26.049Z</time></trkpt><trkpt lat="43.8900984" lon="10.4239511"><ele>335.79999999999995</ele><time>2026-04-12T07:35:27.044Z</time></trkpt><trkpt lat="43.8901939" lon="10.4239557"><ele>333.6</ele><time>2026-04-12T07:35:28.038Z</time></trkpt><trkpt lat="43.8902703" lon="10.4239722"><ele>331.4</ele><time>2026-04-12T07:35:29.045Z</time></trkpt><trkpt lat="43.8903426" lon="10.4240973"><ele>329.20000000000005</ele><time>2026-04-12T07:35:31.048Z</time></trkpt><trkpt lat="43.8903453" lon="10.42423"><ele>327.0</ele><time>2026-04-12T07:35:32.049Z</time></trkpt><trkpt lat="43.8903316" lon="10.424405"><ele>327.0</ele><time>2026-04-12T07:35:33.053Z</time></trkpt><trkpt lat="43.8903246" lon="10.4246142"><ele>327.0</ele><time>2026-04-12T07:35:34.047Z</time></trkpt><trkpt lat="43.890327" lon="10.4248181"><ele>327.0</ele><time>2026-04-12T07:35:35.045Z</time></trkpt><trkpt lat="43.8903348" lon="10.4250086"><ele>327.0</ele><time>2026-04-12T07:35:36.046Z</time></trkpt><trkpt lat="43.8903476" lon="10.4251888"><ele>325.25</ele><time>2026-04-12T07:35:37.046Z</time></trkpt><trkpt lat="43.8903553" lon="10.4253608"><ele>323.5</ele><time>2026-04-12T07:35:38.045Z</time></trkpt><trkpt lat="43.8903558" lon="10.4255328"><ele>321.75</ele><time>2026-04-12T07:35:39.048Z</time></trkpt><trkpt lat="43.8903511" lon="10.425701"><ele>320.0</ele><time>2026-04-12T07:35:40.047Z</time></trkpt><trkpt lat="43.8903467" lon="10.4258711"><ele>319.6</ele><time>2026-04-12T07:35:41.049Z</time></trkpt><trkpt lat="43.8903466" lon="10.4260269"><ele>319.2</ele><time>2026-04-12T07:35:42.046Z</time></trkpt><trkpt lat="43.8903526" lon="10.4261651"><ele>318.8</ele><time>2026-04-12T07:35:43.044Z</time></trkpt><trkpt lat="43.8903766" lon="10.4262891"><ele>318.4</ele><time>2026-04-12T07:35:44.051Z</time></trkpt><trkpt lat="43.8904231" lon="10.4264119"><ele>318.0</ele><time>2026-04-12T07:35:45.047Z</time></trkpt><trkpt lat="43.8904935" lon="10.4265243"><ele>317.25</ele><time>2026-04-12T07:35:46.053Z</time></trkpt><trkpt lat="43.8905797" lon="10.4266184"><ele>316.5</ele><time>2026-04-12T07:35:47.054Z</time></trkpt><trkpt lat="43.8906806" lon="10.4266869"><ele>315.75</ele><time>2026-04-12T07:35:48.046Z</time></trkpt><trkpt lat="43.8907885" lon="10.4267511"><ele>315.0</ele><time>2026-04-12T07:35:49.048Z</time></trkpt><trkpt lat="43.8908988" lon="10.4268357"><ele>313.75</ele><time>2026-04-12T07:35:50.045Z</time></trkpt><trkpt lat="43.8910102" lon="10.4269384"><ele>312.5</ele><time>2026-04-12T07:35:51.045Z</time></trkpt><trkpt lat="43.8911204" lon="10.4270483"><ele>311.25</ele><time>2026-04-12T07:35:52.046Z</time></trkpt><trkpt lat="43.8912383" lon="10.4271487"><ele>310.0</ele><time>2026-04-12T07:35:53.044Z</time></trkpt><trkpt lat="43.891358" lon="10.4272421"><ele>310.0</ele><time>2026-04-12T07:35:54.047Z</time></trkpt><trkpt lat="43.8914774" lon="10.4273384"><ele>310.0</ele><time>2026-04-12T07:35:55.046Z</time></trkpt><trkpt lat="43.8915965" lon="10.4274356"><ele>310.0</ele><time>2026-04-12T07:35:56.05Z</time></trkpt><trkpt lat="43.8917148" lon="10.4275212"><ele>310.0</ele><time>2026-04-12T07:35:57.047Z</time></trkpt><trkpt lat="43.8918366" lon="10.4275924"><ele>308.75</ele><time>2026-04-12T07:35:58.048Z</time></trkpt><trkpt lat="43.8919564" lon="10.4276434"><ele>307.5</ele><time>2026-04-12T07:35:59.048Z</time></trkpt><trkpt lat="43.8920755" lon="10.4276802"><ele>306.25</ele><time>2026-04-12T07:36:00.047Z</time></trkpt><trkpt lat="43.8921863" lon="10.4277075"><ele>305.0</ele><time>2026-04-12T07:36:01.049Z</time></trkpt><trkpt lat="43.8922924" lon="10.427748"><ele>305.0</ele><time>2026-04-12T07:36:02.05Z</time></trkpt><trkpt lat="43.892402" lon="10.4278219"><ele>305.0</ele><time>2026-04-12T07:36:03.051Z</time></trkpt><trkpt lat="43.8925228" lon="10.4279315"><ele>305.0</ele><time>2026-04-12T07:36:04.051Z</time></trkpt><trkpt lat="43.8926477" lon="10.4280496"><ele>305.0</ele><time>2026-04-12T07:36:05.04Z</time></trkpt><trkpt lat="43.8927748" lon="10.4281712"><ele>307.75</ele><time>2026-04-12T07:36:06.048Z</time></trkpt><trkpt lat="43.8928947" lon="10.4282783"><ele>310.5</ele><time>2026-04-12T07:36:07.041Z</time></trkpt><trkpt lat="43.8930045" lon="10.4283691"><ele>313.25</ele><time>2026-04-12T07:36:08.046Z</time></trkpt><trkpt lat="43.8931052" lon="10.4284453"><ele>316.0</ele><time>2026-04-12T07:36:09.046Z</time></trkpt><trkpt lat="43.8931983" lon="10.4284986"><ele>316.0</ele><time>2026-04-12T07:36:10.041Z</time></trkpt><trkpt lat="43.8933005" lon="10.4285342"><ele>316.0</ele><time>2026-04-12T07:36:11.045Z</time></trkpt><trkpt lat="43.8934027" lon="10.428556"><ele>316.0</ele><time>2026-04-12T07:36:12.041Z</time></trkpt><trkpt lat="43.8935034" lon="10.428571"><ele>316.0</ele><time>2026-04-12T07:36:13.045Z</time></trkpt><trkpt lat="43.8936097" lon="10.4285823"><ele>316.0</ele><time>2026-04-12T07:36:14.046Z</time></trkpt><trkpt lat="43.8937167" lon="10.4285873"><ele>315.6</ele><time>2026-04-12T07:36:15.046Z</time></trkpt><trkpt lat="43.8938117" lon="10.4285895"><ele>315.20000000000005</ele><time>2026-04-12T07:36:16.046Z</time></trkpt><trkpt lat="43.8938835" lon="10.4286042"><ele>314.79999999999995</ele><time>2026-04-12T07:36:17.046Z</time></trkpt><trkpt lat="43.8939858" lon="10.4287255"><ele>314.4</ele><time>2026-04-12T07:36:19.047Z</time></trkpt><trkpt lat="43.8940475" lon="10.4288028"><ele>314.0</ele><time>2026-04-12T07:36:20.051Z</time></trkpt><trkpt lat="43.8941024" lon="10.4288889"><ele>314.0</ele><time>2026-04-12T07:36:21.048Z</time></trkpt><trkpt lat="43.8941505" lon="10.428968"><ele>314.0</ele><time>2026-04-12T07:36:22.052Z</time></trkpt><trkpt lat="43.8941849" lon="10.429059"><ele>314.0</ele><time>2026-04-12T07:36:23.054Z</time></trkpt><trkpt lat="43.894189" lon="10.4291614"><ele>314.0</ele><time>2026-04-12T07:36:24.054Z</time></trkpt><trkpt lat="43.8941784" lon="10.4292842"><ele>314.0</ele><time>2026-04-12T07:36:25.052Z</time></trkpt><trkpt lat="43.8941498" lon="10.4294216"><ele>314.0</ele><time>2026-04-12T07:36:26.048Z</time></trkpt><trkpt lat="43.8941115" lon="10.4295635"><ele>312.4</ele><time>2026-04-12T07:36:27.045Z</time></trkpt><trkpt lat="43.8940743" lon="10.4296978"><ele>310.79999999999995</ele><time>2026-04-12T07:36:28.048Z</time></trkpt><trkpt lat="43.8940518" lon="10.4298229"><ele>309.20000000000005</ele><time>2026-04-12T07:36:29.053Z</time></trkpt><trkpt lat="43.8940558" lon="10.4299488"><ele>307.6</ele><time>2026-04-12T07:36:30.05Z</time></trkpt><trkpt lat="43.8940806" lon="10.4300774"><ele>306.0</ele><time>2026-04-12T07:36:31.047Z</time></trkpt><trkpt lat="43.8941205" lon="10.430213"><ele>306.0</ele><time>2026-04-12T07:36:32.05Z</time></trkpt><trkpt lat="43.8941679" lon="10.4303679"><ele>306.0</ele><time>2026-04-12T07:36:33.053Z</time></trkpt><trkpt lat="43.8942225" lon="10.4305338"><ele>306.0</ele><time>2026-04-12T07:36:34.053Z</time></trkpt><trkpt lat="43.8942736" lon="10.4307118"><ele>306.0</ele><time>2026-04-12T07:36:35.053Z</time></trkpt><trkpt lat="43.894325" lon="10.4308995"><ele>300.25</ele><time>2026-04-12T07:36:36.051Z</time></trkpt><trkpt lat="43.894378" lon="10.4310946"><ele>294.5</ele><time>2026-04-12T07:36:37.053Z</time></trkpt><trkpt lat="43.894425" lon="10.4312848"><ele>288.75</ele><time>2026-04-12T07:36:38.052Z</time></trkpt><trkpt lat="43.8944688" lon="10.4314612"><ele>283.0</ele><time>2026-04-12T07:36:39.046Z</time></trkpt><trkpt lat="43.8945058" lon="10.4316056"><ele>282.4</ele><time>2026-04-12T07:36:40.044Z</time></trkpt><trkpt lat="43.8945379" lon="10.431735"><ele>281.8</ele><time>2026-04-12T07:36:41.046Z</time></trkpt><trkpt lat="43.894569" lon="10.4318616"><ele>281.2</ele><time>2026-04-12T07:36:42.047Z</time></trkpt><trkpt lat="43.8946017" lon="10.4320005"><ele>280.6</ele><time>2026-04-12T07:36:43.047Z</time></trkpt><trkpt lat="43.8946333" lon="10.432153"><ele>280.0</ele><time>2026-04-12T07:36:44.047Z</time></trkpt><trkpt lat="43.8946659" lon="10.4323014"><ele>281.2</ele><time>2026-04-12T07:36:45.047Z</time></trkpt><trkpt lat="43.8946902" lon="10.4324426"><ele>282.4</ele><time>2026-04-12T07:36:46.046Z</time></trkpt><trkpt lat="43.8947015" lon="10.4325845"><ele>283.6</ele><time>2026-04-12T07:36:47.047Z</time></trkpt><trkpt lat="43.8947028" lon="10.4327304"><ele>284.8</ele><time>2026-04-12T07:36:48.048Z</time></trkpt><trkpt lat="43.8947155" lon="10.4328798"><ele>286.0</ele><time>2026-04-12T07:36:49.046Z</time></trkpt><trkpt lat="43.8947424" lon="10.4330357"><ele>289.0</ele><time>2026-04-12T07:36:50.049Z</time></trkpt><trkpt lat="43.8947798" lon="10.4331914"><ele>292.0</ele><time>2026-04-12T07:36:51.048Z</time></trkpt><trkpt lat="43.8948266" lon="10.4333452"><ele>295.0</ele><time>2026-04-12T07:36:52.047Z</time></trkpt><trkpt lat="43.894875" lon="10.4334959"><ele>298.0</ele><time>2026-04-12T07:36:53.047Z</time></trkpt><trkpt lat="43.8949198" lon="10.4336288"><ele>298.0</ele><time>2026-04-12T07:36:54.047Z</time></trkpt><trkpt lat="43.8949625" lon="10.4337424"><ele>298.0</ele><time>2026-04-12T07:36:55.047Z</time></trkpt><trkpt lat="43.8950085" lon="10.4338375"><ele>298.0</ele><time>2026-04-12T07:36:56.046Z</time></trkpt><trkpt lat="43.8950567" lon="10.4339082"><ele>298.0</ele><time>2026-04-12T07:36:57.045Z</time></trkpt><trkpt lat="43.8951117" lon="10.4340063"><ele>298.0</ele><time>2026-04-12T07:36:59.049Z</time></trkpt><trkpt lat="43.8950493" lon="10.4342001"><ele>300.25</ele><time>2026-04-12T07:37:01.047Z</time></trkpt><trkpt lat="43.8949986" lon="10.4343574"><ele>302.5</ele><time>2026-04-12T07:37:02.046Z</time></trkpt><trkpt lat="43.8949425" lon="10.4345444"><ele>304.75</ele><time>2026-04-12T07:37:03.046Z</time></trkpt><trkpt lat="43.8948904" lon="10.4347279"><ele>307.0</ele><time>2026-04-12T07:37:04.046Z</time></trkpt><trkpt lat="43.8948442" lon="10.4348907"><ele>307.6</ele><time>2026-04-12T07:37:05.048Z</time></trkpt><trkpt lat="43.8947979" lon="10.4350417"><ele>308.2</ele><time>2026-04-12T07:37:06.046Z</time></trkpt><trkpt lat="43.8947559" lon="10.4351695"><ele>308.8</ele><time>2026-04-12T07:37:07.052Z</time></trkpt><trkpt lat="43.8947193" lon="10.4352943"><ele>309.4</ele><time>2026-04-12T07:37:08.051Z</time></trkpt><trkpt lat="43.8946881" lon="10.4354162"><ele>310.0</ele><time>2026-04-12T07:37:09.049Z</time></trkpt><trkpt lat="43.8946641" lon="10.4355342"><ele>310.2</ele><time>2026-04-12T07:37:10.052Z</time></trkpt><trkpt lat="43.8946402" lon="10.4356663"><ele>310.4</ele><time>2026-04-12T07:37:11.05Z</time></trkpt><trkpt lat="43.8946295" lon="10.435815"><ele>310.6</ele><time>2026-04-12T07:37:12.052Z</time></trkpt><trkpt lat="43.8946184" lon="10.435954"><ele>310.8</ele><time>2026-04-12T07:37:13.052Z</time></trkpt><trkpt lat="43.8946017" lon="10.4360951"><ele>311.0</ele><time>2026-04-12T07:37:14.052Z</time></trkpt><trkpt lat="43.8945801" lon="10.4362477"><ele>311.25</ele><time>2026-04-12T07:37:15.054Z</time></trkpt><trkpt lat="43.8945573" lon="10.4364154"><ele>311.5</ele><time>2026-04-12T07:37:16.05Z</time></trkpt><trkpt lat="43.8945326" lon="10.436586"><ele>311.75</ele><time>2026-04-12T07:37:17.046Z</time></trkpt><trkpt lat="43.8945093" lon="10.4367441"><ele>312.0</ele><time>2026-04-12T07:37:18.051Z</time></trkpt><trkpt lat="43.8944889" lon="10.4368915"><ele>312.0</ele><time>2026-04-12T07:37:19.053Z</time></trkpt><trkpt lat="43.8944758" lon="10.4370321"><ele>312.0</ele><time>2026-04-12T07:37:20.051Z</time></trkpt><trkpt lat="43.8944746" lon="10.4371613"><ele>312.0</ele><time>2026-04-12T07:37:21.046Z</time></trkpt><trkpt lat="43.8944799" lon="10.4372791"><ele>312.0</ele><time>2026-04-12T07:37:22.046Z</time></trkpt><trkpt lat="43.8944855" lon="10.437394"><ele>312.0</ele><time>2026-04-12T07:37:23.05Z</time></trkpt><trkpt lat="43.8944979" lon="10.4375028"><ele>312.0</ele><time>2026-04-12T07:37:24.047Z</time></trkpt><trkpt lat="43.8945135" lon="10.4376005"><ele>310.6</ele><time>2026-04-12T07:37:25.045Z</time></trkpt><trkpt lat="43.8945363" lon="10.4377514"><ele>309.2</ele><time>2026-04-12T07:37:27.046Z</time></trkpt><trkpt lat="43.8944587" lon="10.4377097"><ele>307.8</ele><time>2026-04-12T07:37:31.052Z</time></trkpt><trkpt lat="43.8943838" lon="10.437604"><ele>306.4</ele><time>2026-04-12T07:37:33.053Z</time></trkpt><trkpt lat="43.8943272" lon="10.4375366"><ele>305.0</ele><time>2026-04-12T07:37:34.047Z</time></trkpt><trkpt lat="43.8942699" lon="10.4374647"><ele>300.8571428571429</ele><time>2026-04-12T07:37:35.046Z</time></trkpt><trkpt lat="43.8942155" lon="10.4373894"><ele>296.71428571428567</ele><time>2026-04-12T07:37:36.044Z</time></trkpt><trkpt lat="43.894164" lon="10.4373091"><ele>292.57142857142856</ele><time>2026-04-12T07:37:37.045Z</time></trkpt><trkpt lat="43.8941173" lon="10.4372267"><ele>288.42857142857144</ele><time>2026-04-12T07:37:38.044Z</time></trkpt><trkpt lat="43.8940761" lon="10.4371449"><ele>284.28571428571433</ele><time>2026-04-12T07:37:39.045Z</time></trkpt><trkpt lat="43.8940371" lon="10.4370686"><ele>280.14285714285717</ele><time>2026-04-12T07:37:40.044Z</time></trkpt><trkpt lat="43.893992" lon="10.4370032"><ele>276.0</ele><time>2026-04-12T07:37:41.043Z</time></trkpt><trkpt lat="43.893885" lon="10.4369365"><ele>276.0</ele><time>2026-04-12T07:37:43.044Z</time></trkpt><trkpt lat="43.8937981" lon="10.4369188"><ele>276.0</ele><time>2026-04-12T07:37:45.042Z</time></trkpt><trkpt lat="43.8937312" lon="10.4369102"><ele>276.0</ele><time>2026-04-12T07:37:49.05Z</time></trkpt><trkpt lat="43.8937569" lon="10.4370055"><ele>276.0</ele><time>2026-04-12T07:38:08.041Z</time></trkpt><trkpt lat="43.8937888" lon="10.437105"><ele>276.0</ele><time>2026-04-12T07:38:10.046Z</time></trkpt><trkpt lat="43.8938366" lon="10.437202"><ele>276.0</ele><time>2026-04-12T07:38:12.045Z</time></trkpt><trkpt lat="43.8938928" lon="10.4373043"><ele>274.3333333333333</ele><time>2026-04-12T07:38:14.044Z</time></trkpt><trkpt lat="43.8938984" lon="10.4373997"><ele>272.6666666666667</ele><time>2026-04-12T07:38:16.045Z</time></trkpt><trkpt lat="43.8938637" lon="10.437511"><ele>271.0</ele><time>2026-04-12T07:38:19.048Z</time></trkpt><trkpt lat="43.893842" lon="10.4376387"><ele>269.33333333333337</ele><time>2026-04-12T07:38:22.042Z</time></trkpt><trkpt lat="43.8938218" lon="10.4377246"><ele>267.6666666666667</ele><time>2026-04-12T07:38:24.038Z</time></trkpt><trkpt lat="43.8937823" lon="10.4377993"><ele>266.0</ele><time>2026-04-12T07:38:26.046Z</time></trkpt><trkpt lat="43.8937478" lon="10.4378826"><ele>265.33333333333337</ele><time>2026-04-12T07:38:28.05Z</time></trkpt><trkpt lat="43.8937814" lon="10.4379932"><ele>264.6666666666667</ele><time>2026-04-12T07:38:45.045Z</time></trkpt><trkpt lat="43.8937997" lon="10.4381189"><ele>264.0</ele><time>2026-04-12T07:38:47.046Z</time></trkpt><trkpt lat="43.8937999" lon="10.4382216"><ele>263.3333333333333</ele><time>2026-04-12T07:38:48.045Z</time></trkpt><trkpt lat="43.8937925" lon="10.4383237"><ele>262.66666666666663</ele><time>2026-04-12T07:38:49.044Z</time></trkpt><trkpt lat="43.8937772" lon="10.4384317"><ele>262.0</ele><time>2026-04-12T07:38:50.043Z</time></trkpt><trkpt lat="43.8937639" lon="10.4385402"><ele>262.0</ele><time>2026-04-12T07:38:51.046Z</time></trkpt><trkpt lat="43.893766" lon="10.4386542"><ele>262.0</ele><time>2026-04-12T07:38:52.046Z</time></trkpt><trkpt lat="43.893775" lon="10.4387624"><ele>262.0</ele><time>2026-04-12T07:38:53.049Z</time></trkpt><trkpt lat="43.8937749" lon="10.4388792"><ele>262.0</ele><time>2026-04-12T07:38:54.044Z</time></trkpt><trkpt lat="43.8937461" lon="10.439014"><ele>262.0</ele><time>2026-04-12T07:38:55.044Z</time></trkpt><trkpt lat="43.8936775" lon="10.439175"><ele>263.0</ele><time>2026-04-12T07:38:56.045Z</time></trkpt><trkpt lat="43.893609" lon="10.4393276"><ele>264.0</ele><time>2026-04-12T07:38:57.047Z</time></trkpt><trkpt lat="43.8935492" lon="10.4394732"><ele>265.0</ele><time>2026-04-12T07:38:58.044Z</time></trkpt><trkpt lat="43.893501" lon="10.4396107"><ele>266.0</ele><time>2026-04-12T07:38:59.045Z</time></trkpt><trkpt lat="43.8934671" lon="10.4397443"><ele>267.40000000000003</ele><time>2026-04-12T07:39:00.045Z</time></trkpt><trkpt lat="43.8934484" lon="10.4398731"><ele>268.8</ele><time>2026-04-12T07:39:01.045Z</time></trkpt><trkpt lat="43.8934488" lon="10.4400026"><ele>270.20000000000005</ele><time>2026-04-12T07:39:02.046Z</time></trkpt><trkpt lat="43.8934671" lon="10.4401419"><ele>271.6</ele><time>2026-04-12T07:39:03.046Z</time></trkpt><trkpt lat="43.8934947" lon="10.4402759"><ele>273.0</ele><time>2026-04-12T07:39:04.046Z</time></trkpt><trkpt lat="43.8935284" lon="10.4403918"><ele>273.42857142857144</ele><time>2026-04-12T07:39:05.044Z</time></trkpt><trkpt lat="43.8935537" lon="10.4404886"><ele>273.8571428571429</ele><time>2026-04-12T07:39:06.044Z</time></trkpt><trkpt lat="43.8935866" lon="10.4405672"><ele>274.2857142857143</ele><time>2026-04-12T07:39:07.037Z</time></trkpt><trkpt lat="43.8936253" lon="10.4406476"><ele>274.7142857142857</ele><time>2026-04-12T07:39:08.047Z</time></trkpt><trkpt lat="43.8936605" lon="10.440732"><ele>275.14285714285717</ele><time>2026-04-12T07:39:09.045Z</time></trkpt><trkpt lat="43.8936905" lon="10.4408163"><ele>275.57142857142856</ele><time>2026-04-12T07:39:10.045Z</time></trkpt><trkpt lat="43.8937212" lon="10.4408969"><ele>276.0</ele><time>2026-04-12T07:39:11.044Z</time></trkpt><trkpt lat="43.8937568" lon="10.4409808"><ele>276.0</ele><time>2026-04-12T07:39:12.044Z</time></trkpt><trkpt lat="43.8937929" lon="10.4411312"><ele>276.0</ele><time>2026-04-12T07:39:14.044Z</time></trkpt><trkpt lat="43.8938054" lon="10.4412796"><ele>276.0</ele><time>2026-04-12T07:39:16.044Z</time></trkpt><trkpt lat="43.8938189" lon="10.4414506"><ele>276.0</ele><time>2026-04-12T07:39:18.045Z</time></trkpt><trkpt lat="43.8938303" lon="10.441584"><ele>276.0</ele><time>2026-04-12T07:39:20.045Z</time></trkpt><trkpt lat="43.8937689" lon="10.4416438"><ele>278.40000000000003</ele><time>2026-04-12T07:39:23.046Z</time></trkpt><trkpt lat="43.8937054" lon="10.4416426"><ele>280.8</ele><time>2026-04-12T07:39:24.038Z</time></trkpt><trkpt lat="43.8936086" lon="10.44162"><ele>283.20000000000005</ele><time>2026-04-12T07:39:25.044Z</time></trkpt><trkpt lat="43.8934815" lon="10.4416001"><ele>285.6</ele><time>2026-04-12T07:39:26.045Z</time></trkpt><trkpt lat="43.8933451" lon="10.4416027"><ele>288.0</ele><time>2026-04-12T07:39:27.042Z</time></trkpt><trkpt lat="43.8932168" lon="10.441627"><ele>282.8</ele><time>2026-04-12T07:39:28.042Z</time></trkpt><trkpt lat="43.8931043" lon="10.4416634"><ele>277.6</ele><time>2026-04-12T07:39:29.045Z</time></trkpt><trkpt lat="43.8930068" lon="10.44171"><ele>272.4</ele><time>2026-04-12T07:39:30.044Z</time></trkpt><trkpt lat="43.8929144" lon="10.4417735"><ele>267.2</ele><time>2026-04-12T07:39:31.038Z</time></trkpt><trkpt lat="43.8928245" lon="10.4418545"><ele>262.0</ele><time>2026-04-12T07:39:32.044Z</time></trkpt><trkpt lat="43.8927389" lon="10.4419443"><ele>262.0</ele><time>2026-04-12T07:39:33.046Z</time></trkpt><trkpt lat="43.8926561" lon="10.4420478"><ele>262.0</ele><time>2026-04-12T07:39:34.048Z</time></trkpt><trkpt lat="43.8925752" lon="10.4421688"><ele>262.0</ele><time>2026-04-12T07:39:35.045Z</time></trkpt><trkpt lat="43.8924934" lon="10.4422816"><ele>262.0</ele><time>2026-04-12T07:39:36.047Z</time></trkpt><trkpt lat="43.8924076" lon="10.4423854"><ele>262.75</ele><time>2026-04-12T07:39:37.046Z</time></trkpt><trkpt lat="43.8923146" lon="10.4424947"><ele>263.5</ele><time>2026-04-12T07:39:38.046Z</time></trkpt><trkpt lat="43.8922226" lon="10.4426108"><ele>264.25</ele><time>2026-04-12T07:39:39.045Z</time></trkpt><trkpt lat="43.8921357" lon="10.4427393"><ele>265.0</ele><time>2026-04-12T07:39:40.047Z</time></trkpt><trkpt lat="43.892055" lon="10.4428787"><ele>269.0</ele><time>2026-04-12T07:39:41.045Z</time></trkpt><trkpt lat="43.8919851" lon="10.4430287"><ele>273.0</ele><time>2026-04-12T07:39:42.045Z</time></trkpt><trkpt lat="43.8919254" lon="10.4431822"><ele>277.0</ele><time>2026-04-12T07:39:43.048Z</time></trkpt><trkpt lat="43.8918736" lon="10.4433352"><ele>281.0</ele><time>2026-04-12T07:39:44.048Z</time></trkpt><trkpt lat="43.8918221" lon="10.4434809"><ele>281.0</ele><time>2026-04-12T07:39:45.046Z</time></trkpt><trkpt lat="43.8917601" lon="10.4436256"><ele>281.0</ele><time>2026-04-12T07:39:46.045Z</time></trkpt><trkpt lat="43.8916872" lon="10.4437644"><ele>281.0</ele><time>2026-04-12T07:39:47.045Z</time></trkpt><trkpt lat="43.8916149" lon="10.4439009"><ele>281.0</ele><time>2026-04-12T07:39:48.044Z</time></trkpt><trkpt lat="43.8915562" lon="10.4440486"><ele>278.6</ele><time>2026-04-12T07:39:49.045Z</time></trkpt><trkpt lat="43.8915075" lon="10.4441847"><ele>276.20000000000005</ele><time>2026-04-12T07:39:50.045Z</time></trkpt><trkpt lat="43.891465" lon="10.4443155"><ele>273.79999999999995</ele><time>2026-04-12T07:39:51.045Z</time></trkpt><trkpt lat="43.8914269" lon="10.444454"><ele>271.4</ele><time>2026-04-12T07:39:52.046Z</time></trkpt><trkpt lat="43.8913883" lon="10.4446088"><ele>269.0</ele><time>2026-04-12T07:39:53.043Z</time></trkpt><trkpt lat="43.8913422" lon="10.4447631"><ele>269.0</ele><time>2026-04-12T07:39:54.048Z</time></trkpt><trkpt lat="43.8912748" lon="10.4449147"><ele>269.0</ele><time>2026-04-12T07:39:55.046Z</time></trkpt><trkpt lat="43.891195" lon="10.4450645"><ele>269.0</ele><time>2026-04-12T07:39:56.047Z</time></trkpt><trkpt lat="43.8911101" lon="10.4452035"><ele>269.0</ele><time>2026-04-12T07:39:57.045Z</time></trkpt><trkpt lat="43.8910348" lon="10.4453362"><ele>269.0</ele><time>2026-04-12T07:39:58.043Z</time></trkpt><trkpt lat="43.890962" lon="10.4454587"><ele>269.0</ele><time>2026-04-12T07:39:59.044Z</time></trkpt><trkpt lat="43.8908959" lon="10.4455699"><ele>269.0</ele><time>2026-04-12T07:40:00.045Z</time></trkpt><trkpt lat="43.8908344" lon="10.4456712"><ele>269.0</ele><time>2026-04-12T07:40:01.045Z</time></trkpt><trkpt lat="43.8907611" lon="10.4457591"><ele>269.0</ele><time>2026-04-12T07:40:02.045Z</time></trkpt><trkpt lat="43.890673" lon="10.4458257"><ele>266.2</ele><time>2026-04-12T07:40:03.046Z</time></trkpt><trkpt lat="43.8905762" lon="10.4458799"><ele>263.4</ele><time>2026-04-12T07:40:04.052Z</time></trkpt><trkpt lat="43.8904797" lon="10.4459477"><ele>260.6</ele><time>2026-04-12T07:40:05.05Z</time></trkpt><trkpt lat="43.890403" lon="10.4460219"><ele>257.8</ele><time>2026-04-12T07:40:06.048Z</time></trkpt><trkpt lat="43.8903327" lon="10.4460854"><ele>255.0</ele><time>2026-04-12T07:40:07.045Z</time></trkpt><trkpt lat="43.8902569" lon="10.4461215"><ele>255.0</ele><time>2026-04-12T07:40:08.04Z</time></trkpt><trkpt lat="43.8901655" lon="10.446103"><ele>255.0</ele><time>2026-04-12T07:40:09.047Z</time></trkpt><trkpt lat="43.8900648" lon="10.4460341"><ele>255.0</ele><time>2026-04-12T07:40:10.045Z</time></trkpt><trkpt lat="43.8899602" lon="10.4459433"><ele>255.0</ele><time>2026-04-12T07:40:11.043Z</time></trkpt><trkpt lat="43.8898426" lon="10.4458319"><ele>251.0</ele><time>2026-04-12T07:40:12.046Z</time></trkpt><trkpt lat="43.8897225" lon="10.4457211"><ele>247.0</ele><time>2026-04-12T07:40:13.046Z</time></trkpt><trkpt lat="43.8896088" lon="10.4455981"><ele>243.0</ele><time>2026-04-12T07:40:14.047Z</time></trkpt><trkpt lat="43.8895032" lon="10.4454711"><ele>239.0</ele><time>2026-04-12T07:40:15.045Z</time></trkpt><trkpt lat="43.8894126" lon="10.445354"><ele>237.2</ele><time>2026-04-12T07:40:16.044Z</time></trkpt><trkpt lat="43.8893318" lon="10.4452531"><ele>235.39999999999998</ele><time>2026-04-12T07:40:17.046Z</time></trkpt><trkpt lat="43.889259" lon="10.4451698"><ele>233.6</ele><time>2026-04-12T07:40:18.045Z</time></trkpt><trkpt lat="43.889179" lon="10.4451192"><ele>231.8</ele><time>2026-04-12T07:40:19.047Z</time></trkpt><trkpt lat="43.8890874" lon="10.4451406"><ele>230.0</ele><time>2026-04-12T07:40:20.048Z</time></trkpt><trkpt lat="43.8889907" lon="10.4452284"><ele>230.0</ele><time>2026-04-12T07:40:21.046Z</time></trkpt><trkpt lat="43.8888937" lon="10.4453533"><ele>230.0</ele><time>2026-04-12T07:40:22.046Z</time></trkpt><trkpt lat="43.8888065" lon="10.4455149"><ele>230.0</ele><time>2026-04-12T07:40:23.049Z</time></trkpt><trkpt lat="43.8887377" lon="10.4456935"><ele>230.0</ele><time>2026-04-12T07:40:24.048Z</time></trkpt><trkpt lat="43.8886732" lon="10.4458724"><ele>234.33333333333334</ele><time>2026-04-12T07:40:25.049Z</time></trkpt><trkpt lat="43.8885949" lon="10.4460404"><ele>238.66666666666669</ele><time>2026-04-12T07:40:26.048Z</time></trkpt><trkpt lat="43.8884988" lon="10.4461973"><ele>243.0</ele><time>2026-04-12T07:40:27.049Z</time></trkpt><trkpt lat="43.8883889" lon="10.4463607"><ele>243.0</ele><time>2026-04-12T07:40:28.047Z</time></trkpt><trkpt lat="43.8882975" lon="10.4465171"><ele>243.0</ele><time>2026-04-12T07:40:29.047Z</time></trkpt><trkpt lat="43.8882191" lon="10.4466688"><ele>243.0</ele><time>2026-04-12T07:40:30.048Z</time></trkpt><trkpt lat="43.8881348" lon="10.446807"><ele>243.0</ele><time>2026-04-12T07:40:31.048Z</time></trkpt><trkpt lat="43.8880342" lon="10.4469303"><ele>243.0</ele><time>2026-04-12T07:40:32.049Z</time></trkpt><trkpt lat="43.8879247" lon="10.4470508"><ele>243.0</ele><time>2026-04-12T07:40:33.053Z</time></trkpt><trkpt lat="43.8878215" lon="10.4471804"><ele>243.0</ele><time>2026-04-12T07:40:34.051Z</time></trkpt><trkpt lat="43.8877301" lon="10.44733"><ele>243.0</ele><time>2026-04-12T07:40:35.047Z</time></trkpt><trkpt lat="43.8876452" lon="10.4474978"><ele>242.25</ele><time>2026-04-12T07:40:36.048Z</time></trkpt><trkpt lat="43.887559" lon="10.4476697"><ele>241.5</ele><time>2026-04-12T07:40:37.05Z</time></trkpt><trkpt lat="43.8874787" lon="10.4478172"><ele>240.75</ele><time>2026-04-12T07:40:38.049Z</time></trkpt><trkpt lat="43.8873966" lon="10.4479475"><ele>240.0</ele><time>2026-04-12T07:40:39.049Z</time></trkpt><trkpt lat="43.8873144" lon="10.4480609"><ele>242.25</ele><time>2026-04-12T07:40:40.048Z</time></trkpt><trkpt lat="43.8872346" lon="10.4481675"><ele>244.5</ele><time>2026-04-12T07:40:41.046Z</time></trkpt><trkpt lat="43.8871487" lon="10.4482665"><ele>246.75</ele><time>2026-04-12T07:40:42.046Z</time></trkpt><trkpt lat="43.887041" lon="10.4483406"><ele>249.0</ele><time>2026-04-12T07:40:43.046Z</time></trkpt><trkpt lat="43.8869073" lon="10.448366"><ele>248.0</ele><time>2026-04-12T07:40:44.048Z</time></trkpt><trkpt lat="43.8867543" lon="10.4483556"><ele>247.0</ele><time>2026-04-12T07:40:45.047Z</time></trkpt><trkpt lat="43.8866063" lon="10.448339"><ele>246.0</ele><time>2026-04-12T07:40:46.046Z</time></trkpt><trkpt lat="43.8864719" lon="10.448329"><ele>245.0</ele><time>2026-04-12T07:40:47.045Z</time></trkpt><trkpt lat="43.8863395" lon="10.4483182"><ele>245.0</ele><time>2026-04-12T07:40:48.046Z</time></trkpt><trkpt lat="43.8862097" lon="10.4483055"><ele>245.0</ele><time>2026-04-12T07:40:49.048Z</time></trkpt><trkpt lat="43.8860863" lon="10.4482971"><ele>245.0</ele><time>2026-04-12T07:40:50.046Z</time></trkpt><trkpt lat="43.8859719" lon="10.4482918"><ele>245.0</ele><time>2026-04-12T07:40:51.047Z</time></trkpt><trkpt lat="43.8858678" lon="10.4482878"><ele>244.83333333333334</ele><time>2026-04-12T07:40:52.046Z</time></trkpt><trkpt lat="43.8857747" lon="10.4482748"><ele>244.66666666666669</ele><time>2026-04-12T07:40:53.049Z</time></trkpt><trkpt lat="43.8856939" lon="10.448243"><ele>244.5</ele><time>2026-04-12T07:40:54.043Z</time></trkpt><trkpt lat="43.8856235" lon="10.4481866"><ele>244.33333333333331</ele><time>2026-04-12T07:40:55.045Z</time></trkpt><trkpt lat="43.8855559" lon="10.4481117"><ele>244.16666666666666</ele><time>2026-04-12T07:40:56.049Z</time></trkpt><trkpt lat="43.8854931" lon="10.4480323"><ele>244.0</ele><time>2026-04-12T07:40:57.048Z</time></trkpt><trkpt lat="43.8854309" lon="10.4479494"><ele>242.66666666666666</ele><time>2026-04-12T07:40:58.048Z</time></trkpt><trkpt lat="43.8853684" lon="10.4478748"><ele>241.33333333333331</ele><time>2026-04-12T07:40:59.041Z</time></trkpt><trkpt lat="43.8852923" lon="10.4478078"><ele>240.0</ele><time>2026-04-12T07:41:00.047Z</time></trkpt><trkpt lat="43.8852014" lon="10.4477826"><ele>238.66666666666669</ele><time>2026-04-12T07:41:01.053Z</time></trkpt><trkpt lat="43.8851052" lon="10.4477953"><ele>237.33333333333334</ele><time>2026-04-12T07:41:02.048Z</time></trkpt><trkpt lat="43.8850198" lon="10.4478185"><ele>236.0</ele><time>2026-04-12T07:41:03.049Z</time></trkpt><trkpt lat="43.8849522" lon="10.4478382"><ele>234.66666666666669</ele><time>2026-04-12T07:41:04.046Z</time></trkpt><trkpt lat="43.8848735" lon="10.4478574"><ele>233.33333333333334</ele><time>2026-04-12T07:41:06.051Z</time></trkpt><trkpt lat="43.8847939" lon="10.4477431"><ele>232.0</ele><time>2026-04-12T07:41:09.053Z</time></trkpt><trkpt lat="43.8847559" lon="10.4476649"><ele>230.66666666666669</ele><time>2026-04-12T07:41:10.052Z</time></trkpt><trkpt lat="43.8847077" lon="10.4475706"><ele>229.33333333333334</ele><time>2026-04-12T07:41:11.049Z</time></trkpt><trkpt lat="43.8846543" lon="10.4474565"><ele>228.0</ele><time>2026-04-12T07:41:12.047Z</time></trkpt><trkpt lat="43.8845967" lon="10.4473505"><ele>228.0</ele><time>2026-04-12T07:41:13.047Z</time></trkpt><trkpt lat="43.884534" lon="10.4472494"><ele>228.0</ele><time>2026-04-12T07:41:14.047Z</time></trkpt><trkpt lat="43.8844745" lon="10.4471589"><ele>228.0</ele><time>2026-04-12T07:41:15.044Z</time></trkpt><trkpt lat="43.8844267" lon="10.4470751"><ele>228.0</ele><time>2026-04-12T07:41:16.046Z</time></trkpt><trkpt lat="43.884386" lon="10.446986"><ele>228.0</ele><time>2026-04-12T07:41:17.05Z</time></trkpt><trkpt lat="43.8843292" lon="10.4468986"><ele>228.0</ele><time>2026-04-12T07:41:18.047Z</time></trkpt><trkpt lat="43.8842737" lon="10.4468168"><ele>226.14285714285714</ele><time>2026-04-12T07:41:19.044Z</time></trkpt><trkpt lat="43.8842244" lon="10.4467372"><ele>224.28571428571428</ele><time>2026-04-12T07:41:20.047Z</time></trkpt><trkpt lat="43.8841755" lon="10.4466549"><ele>222.42857142857142</ele><time>2026-04-12T07:41:21.046Z</time></trkpt><trkpt lat="43.8841219" lon="10.4465763"><ele>220.57142857142856</ele><time>2026-04-12T07:41:22.046Z</time></trkpt><trkpt lat="43.8840692" lon="10.4464995"><ele>218.71428571428572</ele><time>2026-04-12T07:41:23.047Z</time></trkpt><trkpt lat="43.8840234" lon="10.4464309"><ele>216.85714285714283</ele><time>2026-04-12T07:41:24.045Z</time></trkpt><trkpt lat="43.8839803" lon="10.4463555"><ele>215.0</ele><time>2026-04-12T07:41:25.047Z</time></trkpt><trkpt lat="43.8839347" lon="10.4462729"><ele>213.83333333333334</ele><time>2026-04-12T07:41:26.044Z</time></trkpt><trkpt lat="43.8838852" lon="10.4461906"><ele>212.66666666666669</ele><time>2026-04-12T07:41:27.05Z</time></trkpt><trkpt lat="43.8838345" lon="10.4461117"><ele>211.5</ele><time>2026-04-12T07:41:28.047Z</time></trkpt><trkpt lat="43.8837787" lon="10.4460322"><ele>210.33333333333331</ele><time>2026-04-12T07:41:29.051Z</time></trkpt><trkpt lat="43.8837092" lon="10.4459473"><ele>209.16666666666666</ele><time>2026-04-12T07:41:30.049Z</time></trkpt><trkpt lat="43.8836371" lon="10.4458609"><ele>208.0</ele><time>2026-04-12T07:41:31.048Z</time></trkpt><trkpt lat="43.8835718" lon="10.4457728"><ele>208.0</ele><time>2026-04-12T07:41:32.048Z</time></trkpt><trkpt lat="43.8835022" lon="10.445672"><ele>208.0</ele><time>2026-04-12T07:41:33.051Z</time></trkpt><trkpt lat="43.8834321" lon="10.4455487"><ele>208.0</ele><time>2026-04-12T07:41:34.05Z</time></trkpt><trkpt lat="43.8833632" lon="10.4454168"><ele>208.0</ele><time>2026-04-12T07:41:35.049Z</time></trkpt><trkpt lat="43.8832897" lon="10.4452867"><ele>205.4</ele><time>2026-04-12T07:41:36.049Z</time></trkpt><trkpt lat="43.8832203" lon="10.445163"><ele>202.8</ele><time>2026-04-12T07:41:37.047Z</time></trkpt><trkpt lat="43.8831563" lon="10.4450523"><ele>200.2</ele><time>2026-04-12T07:41:38.051Z</time></trkpt><trkpt lat="43.8830921" lon="10.4449531"><ele>197.6</ele><time>2026-04-12T07:41:39.05Z</time></trkpt><trkpt lat="43.8830263" lon="10.4448657"><ele>195.0</ele><time>2026-04-12T07:41:40.05Z</time></trkpt><trkpt lat="43.8829582" lon="10.4447918"><ele>195.0</ele><time>2026-04-12T07:41:41.047Z</time></trkpt><trkpt lat="43.8828942" lon="10.4447265"><ele>195.0</ele><time>2026-04-12T07:41:42.049Z</time></trkpt><trkpt lat="43.8828383" lon="10.4446617"><ele>195.0</ele><time>2026-04-12T07:41:43.05Z</time></trkpt><trkpt lat="43.8827938" lon="10.4445927"><ele>195.0</ele><time>2026-04-12T07:41:44.049Z</time></trkpt><trkpt lat="43.8827447" lon="10.4444667"><ele>195.0</ele><time>2026-04-12T07:41:46.039Z</time></trkpt><trkpt lat="43.8827518" lon="10.4443655"><ele>195.0</ele><time>2026-04-12T07:41:48.05Z</time></trkpt><trkpt lat="43.882762" lon="10.4442432"><ele>192.8</ele><time>2026-04-12T07:41:50.052Z</time></trkpt><trkpt lat="43.8826611" lon="10.4440959"><ele>190.6</ele><time>2026-04-12T07:41:52.049Z</time></trkpt><trkpt lat="43.88258" lon="10.4440087"><ele>188.39999999999998</ele><time>2026-04-12T07:41:53.052Z</time></trkpt><trkpt lat="43.8825079" lon="10.4439248"><ele>186.2</ele><time>2026-04-12T07:41:54.049Z</time></trkpt><trkpt lat="43.8824543" lon="10.443846"><ele>184.0</ele><time>2026-04-12T07:41:55.049Z</time></trkpt><trkpt lat="43.8824034" lon="10.4437533"><ele>183.33333333333334</ele><time>2026-04-12T07:41:56.047Z</time></trkpt><trkpt lat="43.8823502" lon="10.4436465"><ele>182.66666666666669</ele><time>2026-04-12T07:41:57.046Z</time></trkpt><trkpt lat="43.8822954" lon="10.4435449"><ele>182.0</ele><time>2026-04-12T07:41:58.046Z</time></trkpt><trkpt lat="43.8822436" lon="10.443456"><ele>181.33333333333334</ele><time>2026-04-12T07:41:59.048Z</time></trkpt><trkpt lat="43.8821943" lon="10.4433781"><ele>180.66666666666666</ele><time>2026-04-12T07:42:00.047Z</time></trkpt><trkpt lat="43.882145" lon="10.4433028"><ele>180.0</ele><time>2026-04-12T07:42:01.053Z</time></trkpt><trkpt lat="43.882099" lon="10.4432266"><ele>180.0</ele><time>2026-04-12T07:42:02.049Z</time></trkpt><trkpt lat="43.882021" lon="10.4430968"><ele>180.0</ele><time>2026-04-12T07:42:04.049Z</time></trkpt><trkpt lat="43.8819488" lon="10.4429912"><ele>180.0</ele><time>2026-04-12T07:42:06.05Z</time></trkpt><trkpt lat="43.8819002" lon="10.442911"><ele>180.0</ele><time>2026-04-12T07:42:08.048Z</time></trkpt><trkpt lat="43.8818482" lon="10.4428198"><ele>180.0</ele><time>2026-04-12T07:42:11.048Z</time></trkpt><trkpt lat="43.8818002" lon="10.4427452"><ele>179.2</ele><time>2026-04-12T07:42:13.05Z</time></trkpt><trkpt lat="43.8817496" lon="10.4426671"><ele>178.4</ele><time>2026-04-12T07:42:15.047Z</time></trkpt><trkpt lat="43.88169" lon="10.4425778"><ele>177.60000000000002</ele><time>2026-04-12T07:42:17.049Z</time></trkpt><trkpt lat="43.8816185" lon="10.4424726"><ele>176.8</ele><time>2026-04-12T07:42:19.046Z</time></trkpt><trkpt lat="43.8815414" lon="10.4423649"><ele>176.0</ele><time>2026-04-12T07:42:21.047Z</time></trkpt><trkpt lat="43.8814727" lon="10.442266"><ele>176.0</ele><time>2026-04-12T07:42:23.049Z</time></trkpt><trkpt lat="43.8814052" lon="10.442179"><ele>176.0</ele><time>2026-04-12T07:42:25.047Z</time></trkpt><trkpt lat="43.8813174" lon="10.4420898"><ele>176.0</ele><time>2026-04-12T07:42:27.047Z</time></trkpt><trkpt lat="43.8812152" lon="10.4419796"><ele>176.0</ele><time>2026-04-12T07:42:29.047Z</time></trkpt><trkpt lat="43.8811558" lon="10.4419182"><ele>176.0</ele><time>2026-04-12T07:42:30.048Z</time></trkpt><trkpt lat="43.8810998" lon="10.4418592"><ele>175.57142857142858</ele><time>2026-04-12T07:42:31.05Z</time></trkpt><trkpt lat="43.8810438" lon="10.441808"><ele>175.14285714285714</ele><time>2026-04-12T07:42:32.051Z</time></trkpt><trkpt lat="43.880983" lon="10.4417627"><ele>174.71428571428572</ele><time>2026-04-12T07:42:33.043Z</time></trkpt><trkpt lat="43.8809201" lon="10.4417194"><ele>174.28571428571428</ele><time>2026-04-12T07:42:34.051Z</time></trkpt><trkpt lat="43.8808554" lon="10.4416727"><ele>173.85714285714286</ele><time>2026-04-12T07:42:35.05Z</time></trkpt><trkpt lat="43.88079" lon="10.4416263"><ele>173.42857142857142</ele><time>2026-04-12T07:42:36.05Z</time></trkpt><trkpt lat="43.8807264" lon="10.4415819"><ele>173.0</ele><time>2026-04-12T07:42:37.053Z</time></trkpt><trkpt lat="43.8806621" lon="10.4415419"><ele>171.16666666666666</ele><time>2026-04-12T07:42:38.054Z</time></trkpt><trkpt lat="43.8805977" lon="10.4415028"><ele>169.33333333333331</ele><time>2026-04-12T07:42:39.05Z</time></trkpt><trkpt lat="43.8805323" lon="10.4414621"><ele>167.5</ele><time>2026-04-12T07:42:40.048Z</time></trkpt><trkpt lat="43.8804707" lon="10.4414274"><ele>165.66666666666666</ele><time>2026-04-12T07:42:41.046Z</time></trkpt><trkpt lat="43.880373" lon="10.4413619"><ele>163.83333333333334</ele><time>2026-04-12T07:42:43.052Z</time></trkpt><trkpt lat="43.8803132" lon="10.4412608"><ele>162.0</ele><time>2026-04-12T07:42:45.047Z</time></trkpt><trkpt lat="43.8802991" lon="10.4411404"><ele>161.16666666666666</ele><time>2026-04-12T07:42:47.048Z</time></trkpt><trkpt lat="43.8802859" lon="10.4410379"><ele>160.33333333333334</ele><time>2026-04-12T07:42:49.049Z</time></trkpt><trkpt lat="43.8802134" lon="10.4409311"><ele>159.5</ele><time>2026-04-12T07:42:51.046Z</time></trkpt><trkpt lat="43.8801512" lon="10.4408731"><ele>158.66666666666669</ele><time>2026-04-12T07:42:52.045Z</time></trkpt><trkpt lat="43.8800764" lon="10.440808"><ele>157.83333333333334</ele><time>2026-04-12T07:42:53.051Z</time></trkpt><trkpt lat="43.8799884" lon="10.4407388"><ele>157.0</ele><time>2026-04-12T07:42:54.048Z</time></trkpt><trkpt lat="43.879891" lon="10.4406699"><ele>156.6</ele><time>2026-04-12T07:42:55.049Z</time></trkpt><trkpt lat="43.8797881" lon="10.4406043"><ele>156.2</ele><time>2026-04-12T07:42:56.047Z</time></trkpt><trkpt lat="43.8796871" lon="10.4405435"><ele>155.8</ele><time>2026-04-12T07:42:57.047Z</time></trkpt><trkpt lat="43.879594" lon="10.4404893"><ele>155.4</ele><time>2026-04-12T07:42:58.047Z</time></trkpt><trkpt lat="43.8795103" lon="10.4404413"><ele>155.0</ele><time>2026-04-12T07:42:59.048Z</time></trkpt><trkpt lat="43.8794399" lon="10.4403971"><ele>154.16666666666666</ele><time>2026-04-12T07:43:00.047Z</time></trkpt><trkpt lat="43.8793821" lon="10.4403467"><ele>153.33333333333331</ele><time>2026-04-12T07:43:01.05Z</time></trkpt><trkpt lat="43.8793275" lon="10.4402904"><ele>152.5</ele><time>2026-04-12T07:43:02.051Z</time></trkpt><trkpt lat="43.8792737" lon="10.4402429"><ele>151.66666666666666</ele><time>2026-04-12T07:43:03.048Z</time></trkpt><trkpt lat="43.8791584" lon="10.4401633"><ele>150.83333333333334</ele><time>2026-04-12T07:43:05.052Z</time></trkpt><trkpt lat="43.8790995" lon="10.4401172"><ele>150.0</ele><time>2026-04-12T07:43:06.05Z</time></trkpt><trkpt lat="43.8790456" lon="10.440061"><ele>149.7142857142857</ele><time>2026-04-12T07:43:07.049Z</time></trkpt><trkpt lat="43.8789976" lon="10.439998"><ele>149.42857142857142</ele><time>2026-04-12T07:43:08.048Z</time></trkpt><trkpt lat="43.8789554" lon="10.4399276"><ele>149.14285714285714</ele><time>2026-04-12T07:43:09.052Z</time></trkpt><trkpt lat="43.8789162" lon="10.4398529"><ele>148.85714285714283</ele><time>2026-04-12T07:43:10.052Z</time></trkpt><trkpt lat="43.8788728" lon="10.4397809"><ele>148.57142857142856</ele><time>2026-04-12T07:43:11.05Z</time></trkpt><trkpt lat="43.8788205" lon="10.4397187"><ele>148.28571428571428</ele><time>2026-04-12T07:43:12.04Z</time></trkpt><trkpt lat="43.8787626" lon="10.4396713"><ele>148.0</ele><time>2026-04-12T07:43:13.041Z</time></trkpt><trkpt lat="43.8787036" lon="10.4396296"><ele>145.20000000000002</ele><time>2026-04-12T07:43:14.047Z</time></trkpt><trkpt lat="43.8786047" lon="10.4395612"><ele>142.4</ele><time>2026-04-12T07:43:16.048Z</time></trkpt><trkpt lat="43.8785282" lon="10.4395462"><ele>139.60000000000002</ele><time>2026-04-12T07:43:18.051Z</time></trkpt><trkpt lat="43.8784466" lon="10.4395752"><ele>136.8</ele><time>2026-04-12T07:43:20.048Z</time></trkpt><trkpt lat="43.8783562" lon="10.4396334"><ele>134.0</ele><time>2026-04-12T07:43:22.049Z</time></trkpt><trkpt lat="43.8782344" lon="10.4396701"><ele>134.0</ele><time>2026-04-12T07:43:24.048Z</time></trkpt><trkpt lat="43.8781694" lon="10.4396668"><ele>134.0</ele><time>2026-04-12T07:43:25.05Z</time></trkpt><trkpt lat="43.8781058" lon="10.4396488"><ele>134.0</ele><time>2026-04-12T07:43:26.047Z</time></trkpt><trkpt lat="43.8780415" lon="10.4396249"><ele>134.0</ele><time>2026-04-12T07:43:27.046Z</time></trkpt><trkpt lat="43.8779312" lon="10.4395706"><ele>134.0</ele><time>2026-04-12T07:43:29.049Z</time></trkpt><trkpt lat="43.8778655" lon="10.4395526"><ele>134.0</ele><time>2026-04-12T07:43:30.046Z</time></trkpt><trkpt lat="43.8777923" lon="10.4395388"><ele>134.0</ele><time>2026-04-12T07:43:31.05Z</time></trkpt><trkpt lat="43.8777207" lon="10.4395262"><ele>134.0</ele><time>2026-04-12T07:43:32.049Z</time></trkpt><trkpt lat="43.8776468" lon="10.4395135"><ele>134.0</ele><time>2026-04-12T07:43:33.051Z</time></trkpt><trkpt lat="43.8775807" lon="10.4394997"><ele>134.0</ele><time>2026-04-12T07:43:34.05Z</time></trkpt><trkpt lat="43.877517" lon="10.4395159"><ele>134.0</ele><time>2026-04-12T07:43:36.054Z</time></trkpt><trkpt lat="43.8775564" lon="10.4396408"><ele>134.0</ele><time>2026-04-12T07:43:39.049Z</time></trkpt><trkpt lat="43.8776059" lon="10.4397796"><ele>134.0</ele><time>2026-04-12T07:43:41.044Z</time></trkpt><trkpt lat="43.8776355" lon="10.4398674"><ele>134.0</ele><time>2026-04-12T07:43:42.045Z</time></trkpt><trkpt lat="43.8776615" lon="10.4399473"><ele>134.0</ele><time>2026-04-12T07:43:43.048Z</time></trkpt><trkpt lat="43.8776883" lon="10.4400704"><ele>134.0</ele><time>2026-04-12T07:43:45.047Z</time></trkpt><trkpt lat="43.8776021" lon="10.4401027"><ele>134.0</ele><time>2026-04-12T07:43:48.049Z</time></trkpt><trkpt lat="43.8774915" lon="10.4400498"><ele>134.0</ele><time>2026-04-12T07:43:50.048Z</time></trkpt><trkpt lat="43.8774126" lon="10.4400151"><ele>130.6</ele><time>2026-04-12T07:43:52.047Z</time></trkpt><trkpt lat="43.8773117" lon="10.4399871"><ele>127.2</ele><time>2026-04-12T07:43:56.047Z</time></trkpt><trkpt lat="43.8772108" lon="10.4399644"><ele>123.79999999999998</ele><time>2026-04-12T07:43:58.048Z</time></trkpt><trkpt lat="43.8771084" lon="10.4399526"><ele>120.39999999999999</ele><time>2026-04-12T07:44:00.046Z</time></trkpt><trkpt lat="43.8770409" lon="10.4400031"><ele>117.0</ele><time>2026-04-12T07:44:03.055Z</time></trkpt><trkpt lat="43.8770136" lon="10.4401103"><ele>117.0</ele><time>2026-04-12T07:44:05.047Z</time></trkpt><trkpt lat="43.8769726" lon="10.440248"><ele>116.99999999999999</ele><time>2026-04-12T07:44:07.047Z</time></trkpt><trkpt lat="43.8769372" lon="10.4404171"><ele>116.99999999999999</ele><time>2026-04-12T07:44:09.047Z</time></trkpt><trkpt lat="43.8769386" lon="10.4405055"><ele>117.0</ele><time>2026-04-12T07:44:10.048Z</time></trkpt><trkpt lat="43.8769514" lon="10.4406688"><ele>117.0</ele><time>2026-04-12T07:44:12.044Z</time></trkpt><trkpt lat="43.8769215" lon="10.4407948"><ele>116.6</ele><time>2026-04-12T07:44:14.049Z</time></trkpt><trkpt lat="43.8769074" lon="10.4408891"><ele>116.19999999999999</ele><time>2026-04-12T07:44:16.046Z</time></trkpt><trkpt lat="43.8769311" lon="10.4410078"><ele>115.8</ele><time>2026-04-12T07:44:18.046Z</time></trkpt><trkpt lat="43.8769812" lon="10.4411225"><ele>115.4</ele><time>2026-04-12T07:44:20.048Z</time></trkpt><trkpt lat="43.8770496" lon="10.4412484"><ele>115.0</ele><time>2026-04-12T07:44:22.049Z</time></trkpt><trkpt lat="43.8771063" lon="10.4413761"><ele>114.0</ele><time>2026-04-12T07:44:24.045Z</time></trkpt><trkpt lat="43.8771601" lon="10.4414565"><ele>113.0</ele><time>2026-04-12T07:44:26.047Z</time></trkpt><trkpt lat="43.8771314" lon="10.4415652"><ele>112.0</ele><time>2026-04-12T07:44:29.05Z</time></trkpt><trkpt lat="43.8770432" lon="10.4416081"><ele>111.0</ele><time>2026-04-12T07:44:32.052Z</time></trkpt><trkpt lat="43.8769468" lon="10.441585"><ele>110.0</ele><time>2026-04-12T07:44:34.048Z</time></trkpt><trkpt lat="43.876831" lon="10.4415355"><ele>108.49999999999999</ele><time>2026-04-12T07:44:36.044Z</time></trkpt><trkpt lat="43.8767226" lon="10.4414379"><ele>107.0</ele><time>2026-04-12T07:44:38.045Z</time></trkpt><trkpt lat="43.8766666" lon="10.4413735"><ele>105.5</ele><time>2026-04-12T07:44:39.046Z</time></trkpt><trkpt lat="43.8766042" lon="10.4413077"><ele>104.0</ele><time>2026-04-12T07:44:40.047Z</time></trkpt><trkpt lat="43.8765383" lon="10.441246"><ele>102.49999999999999</ele><time>2026-04-12T07:44:41.043Z</time></trkpt><trkpt lat="43.8764757" lon="10.4411921"><ele>101.0</ele><time>2026-04-12T07:44:42.044Z</time></trkpt><trkpt lat="43.876416" lon="10.4411488"><ele>101.0</ele><time>2026-04-12T07:44:43.046Z</time></trkpt><trkpt lat="43.8762963" lon="10.4411118"><ele>101.0</ele><time>2026-04-12T07:44:45.05Z</time></trkpt><trkpt lat="43.876224" lon="10.4411048"><ele>101.0</ele><time>2026-04-12T07:44:46.049Z</time></trkpt><trkpt lat="43.8761572" lon="10.441095"><ele>101.0</ele><time>2026-04-12T07:44:47.047Z</time></trkpt><trkpt lat="43.8760295" lon="10.4410947"><ele>101.0</ele><time>2026-04-12T07:44:49.044Z</time></trkpt><trkpt lat="43.8759152" lon="10.4410594"><ele>101.0</ele><time>2026-04-12T07:44:51.046Z</time></trkpt><trkpt lat="43.8758537" lon="10.4409635"><ele>101.0</ele><time>2026-04-12T07:44:53.047Z</time></trkpt><trkpt lat="43.8758677" lon="10.4408129"><ele>101.0</ele><time>2026-04-12T07:44:55.043Z</time></trkpt><trkpt lat="43.8758909" lon="10.4407288"><ele>101.0</ele><time>2026-04-12T07:44:56.044Z</time></trkpt><trkpt lat="43.8759219" lon="10.4406515"><ele>101.0</ele><time>2026-04-12T07:44:57.045Z</time></trkpt><trkpt lat="43.8759945" lon="10.4405201"><ele>101.8</ele><time>2026-04-12T07:44:59.044Z</time></trkpt><trkpt lat="43.8760102" lon="10.4403913"><ele>102.6</ele><time>2026-04-12T07:45:01.044Z</time></trkpt><trkpt lat="43.875976" lon="10.4402291"><ele>103.4</ele><time>2026-04-12T07:45:03.043Z</time></trkpt><trkpt lat="43.8759481" lon="10.4401495"><ele>104.2</ele><time>2026-04-12T07:45:04.044Z</time></trkpt><trkpt lat="43.8758705" lon="10.4400481"><ele>105.0</ele><time>2026-04-12T07:45:06.043Z</time></trkpt><trkpt lat="43.8758052" lon="10.4399373"><ele>103.33333333333333</ele><time>2026-04-12T07:45:08.051Z</time></trkpt><trkpt lat="43.8756919" lon="10.4398731"><ele>101.66666666666667</ele><time>2026-04-12T07:45:10.046Z</time></trkpt><trkpt lat="43.875621" lon="10.4398585"><ele>100.0</ele><time>2026-04-12T07:45:11.044Z</time></trkpt><trkpt lat="43.8755427" lon="10.4398568"><ele>98.33333333333334</ele><time>2026-04-12T07:45:12.044Z</time></trkpt><trkpt lat="43.8754697" lon="10.4398668"><ele>96.66666666666667</ele><time>2026-04-12T07:45:13.044Z</time></trkpt><trkpt lat="43.8754019" lon="10.4398739"><ele>95.0</ele><time>2026-04-12T07:45:14.043Z</time></trkpt><trkpt lat="43.8753326" lon="10.4398733"><ele>95.0</ele><time>2026-04-12T07:45:15.043Z</time></trkpt><trkpt lat="43.875263" lon="10.4398682"><ele>95.0</ele><time>2026-04-12T07:45:16.046Z</time></trkpt><trkpt lat="43.8751976" lon="10.439858"><ele>95.0</ele><time>2026-04-12T07:45:17.046Z</time></trkpt><trkpt lat="43.8750817" lon="10.4398369"><ele>95.0</ele><time>2026-04-12T07:45:19.046Z</time></trkpt><trkpt lat="43.8750148" lon="10.4398192"><ele>95.0</ele><time>2026-04-12T07:45:21.047Z</time></trkpt><trkpt lat="43.8749328" lon="10.4397904"><ele>95.0</ele><time>2026-04-12T07:45:25.046Z</time></trkpt><trkpt lat="43.8748495" lon="10.4398161"><ele>94.6</ele><time>2026-04-12T07:45:27.046Z</time></trkpt><trkpt lat="43.8747456" lon="10.4397808"><ele>94.2</ele><time>2026-04-12T07:45:29.051Z</time></trkpt><trkpt lat="43.8746784" lon="10.4397271"><ele>93.80000000000001</ele><time>2026-04-12T07:45:30.055Z</time></trkpt><trkpt lat="43.8746049" lon="10.4396607"><ele>93.4</ele><time>2026-04-12T07:45:31.054Z</time></trkpt><trkpt lat="43.8745178" lon="10.4395893"><ele>93.0</ele><time>2026-04-12T07:45:32.047Z</time></trkpt><trkpt lat="43.874446" lon="10.439526"><ele>93.0</ele><time>2026-04-12T07:45:33.051Z</time></trkpt><trkpt lat="43.8743915" lon="10.4394401"><ele>93.0</ele><time>2026-04-12T07:45:34.048Z</time></trkpt><trkpt lat="43.8743492" lon="10.43932"><ele>93.0</ele><time>2026-04-12T07:45:35.046Z</time></trkpt><trkpt lat="43.8743164" lon="10.4391855"><ele>93.0</ele><time>2026-04-12T07:45:36.048Z</time></trkpt><trkpt lat="43.8742892" lon="10.439047"><ele>93.0</ele><time>2026-04-12T07:45:37.047Z</time></trkpt><trkpt lat="43.8742728" lon="10.4389195"><ele>90.0</ele><time>2026-04-12T07:45:38.046Z</time></trkpt><trkpt lat="43.8742607" lon="10.4388215"><ele>87.0</ele><time>2026-04-12T07:45:39.048Z</time></trkpt><trkpt lat="43.8741761" lon="10.4387599"><ele>84.0</ele><time>2026-04-12T07:45:41.049Z</time></trkpt><trkpt lat="43.8741106" lon="10.438822"><ele>81.0</ele><time>2026-04-12T07:45:42.052Z</time></trkpt><trkpt lat="43.8740466" lon="10.4389499"><ele>78.0</ele><time>2026-04-12T07:45:43.054Z</time></trkpt><trkpt lat="43.8739838" lon="10.4391114"><ele>78.0</ele><time>2026-04-12T07:45:44.048Z</time></trkpt><trkpt lat="43.873925" lon="10.439271"><ele>78.0</ele><time>2026-04-12T07:45:45.048Z</time></trkpt><trkpt lat="43.8738732" lon="10.4394069"><ele>78.0</ele><time>2026-04-12T07:45:46.046Z</time></trkpt><trkpt lat="43.8738225" lon="10.4395373"><ele>78.0</ele><time>2026-04-12T07:45:47.048Z</time></trkpt><trkpt lat="43.873771" lon="10.4396271"><ele>78.0</ele><time>2026-04-12T07:45:48.047Z</time></trkpt><trkpt lat="43.8737048" lon="10.4396713"><ele>78.6</ele><time>2026-04-12T07:45:49.05Z</time></trkpt><trkpt lat="43.8736189" lon="10.4396804"><ele>79.19999999999999</ele><time>2026-04-12T07:45:50.047Z</time></trkpt><trkpt lat="43.8735309" lon="10.4396828"><ele>79.8</ele><time>2026-04-12T07:45:51.042Z</time></trkpt><trkpt lat="43.873429" lon="10.439688"><ele>80.39999999999999</ele><time>2026-04-12T07:45:52.047Z</time></trkpt><trkpt lat="43.8733157" lon="10.4396886"><ele>81.0</ele><time>2026-04-12T07:45:53.045Z</time></trkpt><trkpt lat="43.873199" lon="10.4396937"><ele>76.5</ele><time>2026-04-12T07:45:54.046Z</time></trkpt><trkpt lat="43.8730799" lon="10.4396813"><ele>72.0</ele><time>2026-04-12T07:45:55.046Z</time></trkpt><trkpt lat="43.87297" lon="10.439644"><ele>67.5</ele><time>2026-04-12T07:45:56.046Z</time></trkpt><trkpt lat="43.8728691" lon="10.4395872"><ele>63.0</ele><time>2026-04-12T07:45:57.043Z</time></trkpt><trkpt lat="43.8727743" lon="10.4395053"><ele>62.4</ele><time>2026-04-12T07:45:58.045Z</time></trkpt><trkpt lat="43.8726838" lon="10.4394021"><ele>61.8</ele><time>2026-04-12T07:45:59.046Z</time></trkpt><trkpt lat="43.8725959" lon="10.4393008"><ele>61.2</ele><time>2026-04-12T07:46:00.048Z</time></trkpt><trkpt lat="43.8725163" lon="10.4392108"><ele>60.6</ele><time>2026-04-12T07:46:01.04Z</time></trkpt><trkpt lat="43.8724364" lon="10.4391227"><ele>60.0</ele><time>2026-04-12T07:46:02.044Z</time></trkpt><trkpt lat="43.8723598" lon="10.4390337"><ele>56.75</ele><time>2026-04-12T07:46:03.046Z</time></trkpt><trkpt lat="43.8722855" lon="10.4389446"><ele>53.5</ele><time>2026-04-12T07:46:04.044Z</time></trkpt><trkpt lat="43.8722043" lon="10.438837"><ele>50.25</ele><time>2026-04-12T07:46:05.047Z</time></trkpt><trkpt lat="43.8721171" lon="10.4387094"><ele>47.0</ele><time>2026-04-12T07:46:06.05Z</time></trkpt><trkpt lat="43.8720324" lon="10.43858"><ele>46.2</ele><time>2026-04-12T07:46:07.049Z</time></trkpt><trkpt lat="43.8719556" lon="10.4384566"><ele>45.400000000000006</ele><time>2026-04-12T07:46:08.048Z</time></trkpt><trkpt lat="43.8718917" lon="10.4383521"><ele>44.599999999999994</ele><time>2026-04-12T07:46:09.047Z</time></trkpt><trkpt lat="43.8718288" lon="10.4382613"><ele>43.8</ele><time>2026-04-12T07:46:10.049Z</time></trkpt><trkpt lat="43.8717579" lon="10.4381756"><ele>43.0</ele><time>2026-04-12T07:46:11.048Z</time></trkpt><trkpt lat="43.8716839" lon="10.4380926"><ele>41.4</ele><time>2026-04-12T07:46:12.048Z</time></trkpt><trkpt lat="43.8716074" lon="10.438012"><ele>39.8</ele><time>2026-04-12T07:46:13.049Z</time></trkpt><trkpt lat="43.8715271" lon="10.4379357"><ele>38.2</ele><time>2026-04-12T07:46:14.052Z</time></trkpt><trkpt lat="43.8714448" lon="10.4378621"><ele>36.6</ele><time>2026-04-12T07:46:15.046Z</time></trkpt><trkpt lat="43.8713643" lon="10.4377909"><ele>35.0</ele><time>2026-04-12T07:46:16.048Z</time></trkpt><trkpt lat="43.8712873" lon="10.4377253"><ele>34.2</ele><time>2026-04-12T07:46:17.047Z</time></trkpt><trkpt lat="43.8712179" lon="10.4376707"><ele>33.4</ele><time>2026-04-12T07:46:18.047Z</time></trkpt><trkpt lat="43.8711308" lon="10.4376191"><ele>32.6</ele><time>2026-04-12T07:46:20.048Z</time></trkpt><trkpt lat="43.8710292" lon="10.4376495"><ele>31.8</ele><time>2026-04-12T07:46:23.051Z</time></trkpt><trkpt lat="43.8709191" lon="10.437715"><ele>31.0</ele><time>2026-04-12T07:46:25.049Z</time></trkpt><trkpt lat="43.8708302" lon="10.4377197"><ele>30.200000000000003</ele><time>2026-04-12T07:46:26.047Z</time></trkpt><trkpt lat="43.8707211" lon="10.4376932"><ele>29.400000000000002</ele><time>2026-04-12T07:46:27.046Z</time></trkpt><trkpt lat="43.8706089" lon="10.4376564"><ele>28.6</ele><time>2026-04-12T07:46:28.047Z</time></trkpt><trkpt lat="43.8705038" lon="10.437639"><ele>27.8</ele><time>2026-04-12T07:46:29.048Z</time></trkpt><trkpt lat="43.8704093" lon="10.4376371"><ele>27.0</ele><time>2026-04-12T07:46:30.047Z</time></trkpt><trkpt lat="43.8703183" lon="10.4376513"><ele>27.0</ele><time>2026-04-12T07:46:31.048Z</time></trkpt><trkpt lat="43.8702274" lon="10.4376484"><ele>27.000000000000004</ele><time>2026-04-12T07:46:32.051Z</time></trkpt><trkpt lat="43.8701397" lon="10.43762"><ele>27.000000000000004</ele><time>2026-04-12T07:46:33.053Z</time></trkpt><trkpt lat="43.8700593" lon="10.4375838"><ele>27.0</ele><time>2026-04-12T07:46:34.046Z</time></trkpt><trkpt lat="43.869988" lon="10.4375444"><ele>27.0</ele><time>2026-04-12T07:46:35.046Z</time></trkpt><trkpt lat="43.8698708" lon="10.4374618"><ele>26.666666666666668</ele><time>2026-04-12T07:46:37.047Z</time></trkpt><trkpt lat="43.8698043" lon="10.4374044"><ele>26.333333333333336</ele><time>2026-04-12T07:46:38.048Z</time></trkpt><trkpt lat="43.8697362" lon="10.4373391"><ele>26.0</ele><time>2026-04-12T07:46:39.047Z</time></trkpt><trkpt lat="43.8696652" lon="10.4372841"><ele>25.666666666666668</ele><time>2026-04-12T07:46:40.046Z</time></trkpt><trkpt lat="43.8695965" lon="10.4372337"><ele>25.333333333333336</ele><time>2026-04-12T07:46:41.043Z</time></trkpt><trkpt lat="43.8695194" lon="10.437175"><ele>25.0</ele><time>2026-04-12T07:46:42.043Z</time></trkpt><trkpt lat="43.8694258" lon="10.4371026"><ele>25.0</ele><time>2026-04-12T07:46:43.045Z</time></trkpt><trkpt lat="43.8693121" lon="10.4370146"><ele>25.0</ele><time>2026-04-12T07:46:44.046Z</time></trkpt><trkpt lat="43.8691848" lon="10.4369202"><ele>25.0</ele><time>2026-04-12T07:46:45.045Z</time></trkpt><trkpt lat="43.8690536" lon="10.436834"><ele>25.0</ele><time>2026-04-12T07:46:46.043Z</time></trkpt><trkpt lat="43.8689221" lon="10.4367624"><ele>25.75</ele><time>2026-04-12T07:46:47.043Z</time></trkpt><trkpt lat="43.868785" lon="10.4367295"><ele>26.5</ele><time>2026-04-12T07:46:48.044Z</time></trkpt><trkpt lat="43.8686388" lon="10.4367166"><ele>27.25</ele><time>2026-04-12T07:46:49.045Z</time></trkpt><trkpt lat="43.8684795" lon="10.4367128"><ele>28.0</ele><time>2026-04-12T07:46:50.047Z</time></trkpt><trkpt lat="43.8683092" lon="10.4367267"><ele>28.333333333333336</ele><time>2026-04-12T07:46:51.045Z</time></trkpt><trkpt lat="43.8681403" lon="10.4367542"><ele>28.666666666666664</ele><time>2026-04-12T07:46:52.044Z</time></trkpt><trkpt lat="43.8679849" lon="10.4367891"><ele>29.0</ele><time>2026-04-12T07:46:53.048Z</time></trkpt><trkpt lat="43.8678472" lon="10.43683"><ele>29.0</ele><time>2026-04-12T07:46:54.046Z</time></trkpt><trkpt lat="43.8677216" lon="10.4368763"><ele>29.0</ele><time>2026-04-12T07:46:55.045Z</time></trkpt><trkpt lat="43.867605" lon="10.4369453"><ele>29.0</ele><time>2026-04-12T07:46:56.045Z</time></trkpt><trkpt lat="43.8674896" lon="10.4370255"><ele>29.0</ele><time>2026-04-12T07:46:57.044Z</time></trkpt><trkpt lat="43.8673702" lon="10.4370791"><ele>28.2</ele><time>2026-04-12T07:46:58.046Z</time></trkpt><trkpt lat="43.8672601" lon="10.4370856"><ele>27.4</ele><time>2026-04-12T07:46:59.047Z</time></trkpt><trkpt lat="43.8671596" lon="10.4370437"><ele>26.6</ele><time>2026-04-12T07:47:00.046Z</time></trkpt><trkpt lat="43.8670644" lon="10.4369864"><ele>25.8</ele><time>2026-04-12T07:47:01.046Z</time></trkpt><trkpt lat="43.8669731" lon="10.4369247"><ele>25.0</ele><time>2026-04-12T07:47:02.048Z</time></trkpt><trkpt lat="43.8668794" lon="10.4369082"><ele>25.0</ele><time>2026-04-12T07:47:03.043Z</time></trkpt><trkpt lat="43.8667832" lon="10.4369405"><ele>25.0</ele><time>2026-04-12T07:47:04.048Z</time></trkpt><trkpt lat="43.8666898" lon="10.4370028"><ele>25.0</ele><time>2026-04-12T07:47:05.047Z</time></trkpt><trkpt lat="43.8666024" lon="10.4370693"><ele>25.0</ele><time>2026-04-12T07:47:06.05Z</time></trkpt><trkpt lat="43.8665141" lon="10.4371054"><ele>25.0</ele><time>2026-04-12T07:47:07.046Z</time></trkpt><trkpt lat="43.866432" lon="10.4370957"><ele>24.25</ele><time>2026-04-12T07:47:08.046Z</time></trkpt><trkpt lat="43.8663453" lon="10.4370157"><ele>23.5</ele><time>2026-04-12T07:47:09.047Z</time></trkpt><trkpt lat="43.8662501" lon="10.4369026"><ele>22.75</ele><time>2026-04-12T07:47:10.05Z</time></trkpt><trkpt lat="43.8661548" lon="10.4367942"><ele>22.0</ele><time>2026-04-12T07:47:11.047Z</time></trkpt><trkpt lat="43.8660657" lon="10.4366873"><ele>22.0</ele><time>2026-04-12T07:47:12.048Z</time></trkpt><trkpt lat="43.8659956" lon="10.4365762"><ele>22.0</ele><time>2026-04-12T07:47:13.053Z</time></trkpt><trkpt lat="43.8659573" lon="10.436456"><ele>22.0</ele><time>2026-04-12T07:47:14.048Z</time></trkpt><trkpt lat="43.8659519" lon="10.4363293"><ele>22.0</ele><time>2026-04-12T07:47:15.045Z</time></trkpt><trkpt lat="43.8659701" lon="10.4361882"><ele>22.0</ele><time>2026-04-12T07:47:16.047Z</time></trkpt><trkpt lat="43.866002" lon="10.4360107"><ele>22.333333333333332</ele><time>2026-04-12T07:47:17.047Z</time></trkpt><trkpt lat="43.8660378" lon="10.4358208"><ele>22.666666666666668</ele><time>2026-04-12T07:47:18.046Z</time></trkpt><trkpt lat="43.8660816" lon="10.4356133"><ele>23.0</ele><time>2026-04-12T07:47:19.047Z</time></trkpt><trkpt lat="43.8661283" lon="10.4354073"><ele>23.0</ele><time>2026-04-12T07:47:20.046Z</time></trkpt><trkpt lat="43.8661757" lon="10.4352004"><ele>23.0</ele><time>2026-04-12T07:47:21.046Z</time></trkpt><trkpt lat="43.8662183" lon="10.4350051"><ele>23.0</ele><time>2026-04-12T07:47:22.047Z</time></trkpt><trkpt lat="43.8662542" lon="10.4348301"><ele>23.0</ele><time>2026-04-12T07:47:23.05Z</time></trkpt><trkpt lat="43.8662875" lon="10.4346732"><ele>23.166666666666668</ele><time>2026-04-12T07:47:24.046Z</time></trkpt><trkpt lat="43.8663197" lon="10.4345252"><ele>23.333333333333336</ele><time>2026-04-12T07:47:25.047Z</time></trkpt><trkpt lat="43.8663477" lon="10.4343984"><ele>23.5</ele><time>2026-04-12T07:47:26.048Z</time></trkpt><trkpt lat="43.8663659" lon="10.4342928"><ele>23.666666666666668</ele><time>2026-04-12T07:47:27.046Z</time></trkpt><trkpt lat="43.8663827" lon="10.4341988"><ele>23.833333333333332</ele><time>2026-04-12T07:47:29.048Z</time></trkpt><trkpt lat="43.8663463" lon="10.4341155"><ele>24.0</ele><time>2026-04-12T07:47:32.053Z</time></trkpt><trkpt lat="43.8662144" lon="10.4340642"><ele>24.0</ele><time>2026-04-12T07:47:34.049Z</time></trkpt><trkpt lat="43.8661159" lon="10.4340558"><ele>24.0</ele><time>2026-04-12T07:47:35.046Z</time></trkpt><trkpt lat="43.866003" lon="10.4340409"><ele>24.0</ele><time>2026-04-12T07:47:36.047Z</time></trkpt><trkpt lat="43.8658753" lon="10.434011"><ele>24.0</ele><time>2026-04-12T07:47:37.046Z</time></trkpt><trkpt lat="43.8657421" lon="10.4339759"><ele>24.0</ele><time>2026-04-12T07:47:38.046Z</time></trkpt><trkpt lat="43.8656087" lon="10.4339258"><ele>24.0</ele><time>2026-04-12T07:47:39.055Z</time></trkpt><trkpt lat="43.8654742" lon="10.4338728"><ele>24.0</ele><time>2026-04-12T07:47:40.048Z</time></trkpt><trkpt lat="43.8653363" lon="10.4338281"><ele>24.0</ele><time>2026-04-12T07:47:41.046Z</time></trkpt><trkpt lat="43.8651949" lon="10.433791"><ele>22.666666666666668</ele><time>2026-04-12T07:47:42.041Z</time></trkpt><trkpt lat="43.8650489" lon="10.4337745"><ele>21.333333333333336</ele><time>2026-04-12T07:47:43.052Z</time></trkpt><trkpt lat="43.8648958" lon="10.433777"><ele>20.0</ele><time>2026-04-12T07:47:44.047Z</time></trkpt><trkpt lat="43.864737" lon="10.4337852"><ele>20.0</ele><time>2026-04-12T07:47:45.046Z</time></trkpt><trkpt lat="43.8645757" lon="10.433804"><ele>20.0</ele><time>2026-04-12T07:47:46.048Z</time></trkpt><trkpt lat="43.8644138" lon="10.4338295"><ele>20.0</ele><time>2026-04-12T07:47:47.047Z</time></trkpt><trkpt lat="43.8642506" lon="10.4338612"><ele>21.666666666666668</ele><time>2026-04-12T07:47:48.049Z</time></trkpt><trkpt lat="43.8640879" lon="10.4338928"><ele>23.333333333333336</ele><time>2026-04-12T07:47:49.047Z</time></trkpt><trkpt lat="43.8639246" lon="10.4339206"><ele>25.0</ele><time>2026-04-12T07:47:50.049Z</time></trkpt><trkpt lat="43.863758" lon="10.433947"><ele>25.0</ele><time>2026-04-12T07:47:51.049Z</time></trkpt><trkpt lat="43.8635896" lon="10.4339737"><ele>25.0</ele><time>2026-04-12T07:47:52.047Z</time></trkpt><trkpt lat="43.8634199" lon="10.4340012"><ele>25.0</ele><time>2026-04-12T07:47:53.047Z</time></trkpt><trkpt lat="43.8632511" lon="10.4340283"><ele>25.0</ele><time>2026-04-12T07:47:54.049Z</time></trkpt><trkpt lat="43.863081" lon="10.4340642"><ele>25.0</ele><time>2026-04-12T07:47:55.048Z</time></trkpt><trkpt lat="43.8629131" lon="10.4340996"><ele>25.0</ele><time>2026-04-12T07:47:56.049Z</time></trkpt><trkpt lat="43.8627457" lon="10.4341339"><ele>24.0</ele><time>2026-04-12T07:47:57.048Z</time></trkpt><trkpt lat="43.8625793" lon="10.4341705"><ele>23.0</ele><time>2026-04-12T07:47:58.05Z</time></trkpt><trkpt lat="43.8624149" lon="10.4342129"><ele>22.0</ele><time>2026-04-12T07:47:59.046Z</time></trkpt><trkpt lat="43.8622518" lon="10.4342626"><ele>22.0</ele><time>2026-04-12T07:48:00.048Z</time></trkpt><trkpt lat="43.8620881" lon="10.4343224"><ele>22.0</ele><time>2026-04-12T07:48:01.049Z</time></trkpt><trkpt lat="43.861928" lon="10.4343868"><ele>22.0</ele><time>2026-04-12T07:48:02.049Z</time></trkpt><trkpt lat="43.8617721" lon="10.434451"><ele>21.0</ele><time>2026-04-12T07:48:03.048Z</time></trkpt><trkpt lat="43.861616" lon="10.4345182"><ele>20.0</ele><time>2026-04-12T07:48:04.047Z</time></trkpt><trkpt lat="43.8614668" lon="10.4345993"><ele>19.0</ele><time>2026-04-12T07:48:05.048Z</time></trkpt><trkpt lat="43.8613268" lon="10.4346833"><ele>19.25</ele><time>2026-04-12T07:48:06.047Z</time></trkpt><trkpt lat="43.8612005" lon="10.4347684"><ele>19.5</ele><time>2026-04-12T07:48:07.045Z</time></trkpt><trkpt lat="43.86109" lon="10.4348694"><ele>19.75</ele><time>2026-04-12T07:48:08.046Z</time></trkpt><trkpt lat="43.8609985" lon="10.4349772"><ele>20.0</ele><time>2026-04-12T07:48:09.05Z</time></trkpt><trkpt lat="43.8609231" lon="10.435101"><ele>20.0</ele><time>2026-04-12T07:48:10.049Z</time></trkpt><trkpt lat="43.8608729" lon="10.4352583"><ele>20.0</ele><time>2026-04-12T07:48:11.046Z</time></trkpt><trkpt lat="43.8608372" lon="10.4354275"><ele>20.0</ele><time>2026-04-12T07:48:12.046Z</time></trkpt><trkpt lat="43.8608038" lon="10.4355822"><ele>20.0</ele><time>2026-04-12T07:48:13.047Z</time></trkpt><trkpt lat="43.8607727" lon="10.4357207"><ele>20.333333333333336</ele><time>2026-04-12T07:48:14.042Z</time></trkpt><trkpt lat="43.8607319" lon="10.4358282"><ele>20.666666666666668</ele><time>2026-04-12T07:48:15.047Z</time></trkpt><trkpt lat="43.8606885" lon="10.4359113"><ele>21.0</ele><time>2026-04-12T07:48:16.049Z</time></trkpt><trkpt lat="43.8606294" lon="10.4359632"><ele>21.333333333333332</ele><time>2026-04-12T07:48:17.046Z</time></trkpt><trkpt lat="43.8605489" lon="10.4359864"><ele>21.666666666666664</ele><time>2026-04-12T07:48:18.046Z</time></trkpt><trkpt lat="43.8604465" lon="10.4359998"><ele>22.0</ele><time>2026-04-12T07:48:19.046Z</time></trkpt><trkpt lat="43.8603228" lon="10.4360269"><ele>22.0</ele><time>2026-04-12T07:48:20.05Z</time></trkpt><trkpt lat="43.8601815" lon="10.4360497"><ele>22.0</ele><time>2026-04-12T07:48:21.047Z</time></trkpt><trkpt lat="43.8600301" lon="10.4360653"><ele>22.0</ele><time>2026-04-12T07:48:22.049Z</time></trkpt><trkpt lat="43.8598701" lon="10.4360897"><ele>20.333333333333332</ele><time>2026-04-12T07:48:23.053Z</time></trkpt><trkpt lat="43.8597119" lon="10.4361127"><ele>18.666666666666668</ele><time>2026-04-12T07:48:24.05Z</time></trkpt><trkpt lat="43.8595552" lon="10.4361404"><ele>17.0</ele><time>2026-04-12T07:48:25.046Z</time></trkpt><trkpt lat="43.859402" lon="10.4361659"><ele>16.75</ele><time>2026-04-12T07:48:26.046Z</time></trkpt><trkpt lat="43.8592582" lon="10.4361937"><ele>16.5</ele><time>2026-04-12T07:48:27.049Z</time></trkpt><trkpt lat="43.859128" lon="10.4362197"><ele>16.25</ele><time>2026-04-12T07:48:28.049Z</time></trkpt><trkpt lat="43.8590024" lon="10.4362393"><ele>16.0</ele><time>2026-04-12T07:48:29.05Z</time></trkpt><trkpt lat="43.8588735" lon="10.4362584"><ele>16.0</ele><time>2026-04-12T07:48:30.05Z</time></trkpt><trkpt lat="43.8587452" lon="10.4362847"><ele>16.0</ele><time>2026-04-12T07:48:31.052Z</time></trkpt><trkpt lat="43.8586235" lon="10.4363137"><ele>16.0</ele><time>2026-04-12T07:48:32.053Z</time></trkpt><trkpt lat="43.858509" lon="10.4363359"><ele>16.0</ele><time>2026-04-12T07:48:33.051Z</time></trkpt><trkpt lat="43.8583972" lon="10.4363581"><ele>15.5</ele><time>2026-04-12T07:48:34.051Z</time></trkpt><trkpt lat="43.8582807" lon="10.4363823"><ele>15.0</ele><time>2026-04-12T07:48:35.048Z</time></trkpt><trkpt lat="43.858161" lon="10.4364076"><ele>14.5</ele><time>2026-04-12T07:48:36.048Z</time></trkpt><trkpt lat="43.8580433" lon="10.4364305"><ele>14.0</ele><time>2026-04-12T07:48:37.051Z</time></trkpt><trkpt lat="43.857931" lon="10.43645"><ele>14.0</ele><time>2026-04-12T07:48:38.053Z</time></trkpt><trkpt lat="43.8578216" lon="10.4364713"><ele>13.999999999999998</ele><time>2026-04-12T07:48:39.054Z</time></trkpt><trkpt lat="43.8577195" lon="10.4364881"><ele>13.999999999999998</ele><time>2026-04-12T07:48:40.05Z</time></trkpt><trkpt lat="43.8576241" lon="10.4365026"><ele>14.0</ele><time>2026-04-12T07:48:41.05Z</time></trkpt><trkpt lat="43.8575383" lon="10.4365224"><ele>14.0</ele><time>2026-04-12T07:48:42.05Z</time></trkpt><trkpt lat="43.8574599" lon="10.4365416"><ele>14.0</ele><time>2026-04-12T07:48:43.049Z</time></trkpt><trkpt lat="43.8573896" lon="10.4365569"><ele>13.999999999999998</ele><time>2026-04-12T07:48:44.044Z</time></trkpt><trkpt lat="43.8572778" lon="10.436578"><ele>13.999999999999998</ele><time>2026-04-12T07:48:46.05Z</time></trkpt><trkpt lat="43.8572099" lon="10.4365774"><ele>14.0</ele><time>2026-04-12T07:48:48.048Z</time></trkpt><trkpt lat="43.8571695" lon="10.4364964"><ele>14.0</ele><time>2026-04-12T07:48:51.047Z</time></trkpt><trkpt lat="43.8571862" lon="10.4362828"><ele>14.5</ele><time>2026-04-12T07:48:53.051Z</time></trkpt><trkpt lat="43.8572087" lon="10.4361294"><ele>15.0</ele><time>2026-04-12T07:48:54.051Z</time></trkpt><trkpt lat="43.8572348" lon="10.4359541"><ele>15.5</ele><time>2026-04-12T07:48:55.048Z</time></trkpt><trkpt lat="43.8572582" lon="10.4357765"><ele>16.0</ele><time>2026-04-12T07:48:56.048Z</time></trkpt><trkpt lat="43.8572768" lon="10.4355917"><ele>16.0</ele><time>2026-04-12T07:48:57.051Z</time></trkpt><trkpt lat="43.8572849" lon="10.4353762"><ele>16.0</ele><time>2026-04-12T07:48:58.055Z</time></trkpt><trkpt lat="43.8572841" lon="10.4351342"><ele>16.0</ele><time>2026-04-12T07:48:59.05Z</time></trkpt><trkpt lat="43.8572804" lon="10.4349005"><ele>16.0</ele><time>2026-04-12T07:49:00.05Z</time></trkpt><trkpt lat="43.8572774" lon="10.4346779"><ele>16.0</ele><time>2026-04-12T07:49:01.049Z</time></trkpt><trkpt lat="43.8572706" lon="10.4344658"><ele>16.0</ele><time>2026-04-12T07:49:02.053Z</time></trkpt><trkpt lat="43.8572633" lon="10.4342557"><ele>16.0</ele><time>2026-04-12T07:49:03.054Z</time></trkpt><trkpt lat="43.8572547" lon="10.4340432"><ele>16.0</ele><time>2026-04-12T07:49:04.051Z</time></trkpt><trkpt lat="43.8572391" lon="10.4338272"><ele>16.0</ele><time>2026-04-12T07:49:05.054Z</time></trkpt><trkpt lat="43.8572172" lon="10.4336107"><ele>16.333333333333332</ele><time>2026-04-12T07:49:06.054Z</time></trkpt><trkpt lat="43.8571888" lon="10.4333969"><ele>16.666666666666668</ele><time>2026-04-12T07:49:07.053Z</time></trkpt><trkpt lat="43.8571568" lon="10.4331873"><ele>17.0</ele><time>2026-04-12T07:49:08.052Z</time></trkpt><trkpt lat="43.8571343" lon="10.4329899"><ele>17.0</ele><time>2026-04-12T07:49:09.052Z</time></trkpt><trkpt lat="43.8571287" lon="10.4327967"><ele>17.0</ele><time>2026-04-12T07:49:10.05Z</time></trkpt><trkpt lat="43.8571368" lon="10.4325915"><ele>17.0</ele><time>2026-04-12T07:49:11.05Z</time></trkpt><trkpt lat="43.857155" lon="10.432389"><ele>17.0</ele><time>2026-04-12T07:49:12.049Z</time></trkpt><trkpt lat="43.8571744" lon="10.4321855"><ele>17.0</ele><time>2026-04-12T07:49:13.048Z</time></trkpt><trkpt lat="43.8571926" lon="10.431989"><ele>17.0</ele><time>2026-04-12T07:49:14.05Z</time></trkpt><trkpt lat="43.8572087" lon="10.4318106"><ele>17.0</ele><time>2026-04-12T07:49:15.048Z</time></trkpt><trkpt lat="43.8572251" lon="10.4316466"><ele>17.0</ele><time>2026-04-12T07:49:16.05Z</time></trkpt><trkpt lat="43.8572396" lon="10.4314944"><ele>17.0</ele><time>2026-04-12T07:49:17.048Z</time></trkpt><trkpt lat="43.8572516" lon="10.431362"><ele>17.0</ele><time>2026-04-12T07:49:18.051Z</time></trkpt><trkpt lat="43.8572557" lon="10.4312406"><ele>17.0</ele><time>2026-04-12T07:49:19.05Z</time></trkpt><trkpt lat="43.8572497" lon="10.4311215"><ele>17.0</ele><time>2026-04-12T07:49:20.05Z</time></trkpt><trkpt lat="43.857241" lon="10.4310099"><ele>17.0</ele><time>2026-04-12T07:49:21.051Z</time></trkpt><trkpt lat="43.8572337" lon="10.4309049"><ele>17.0</ele><time>2026-04-12T07:49:22.047Z</time></trkpt><trkpt lat="43.8572256" lon="10.4307962"><ele>17.0</ele><time>2026-04-12T07:49:23.054Z</time></trkpt><trkpt lat="43.8572156" lon="10.4306807"><ele>17.0</ele><time>2026-04-12T07:49:24.05Z</time></trkpt><trkpt lat="43.8572027" lon="10.4305558"><ele>17.0</ele><time>2026-04-12T07:49:25.049Z</time></trkpt><trkpt lat="43.857191" lon="10.4304208"><ele>17.0</ele><time>2026-04-12T07:49:26.049Z</time></trkpt><trkpt lat="43.8571826" lon="10.4302826"><ele>17.0</ele><time>2026-04-12T07:49:27.048Z</time></trkpt><trkpt lat="43.8571728" lon="10.4301389"><ele>17.0</ele><time>2026-04-12T07:49:28.048Z</time></trkpt><trkpt lat="43.8571604" lon="10.4299817"><ele>17.0</ele><time>2026-04-12T07:49:29.051Z</time></trkpt><trkpt lat="43.8571429" lon="10.4298165"><ele>17.0</ele><time>2026-04-12T07:49:30.05Z</time></trkpt><trkpt lat="43.8571205" lon="10.4296451"><ele>17.0</ele><time>2026-04-12T07:49:31.051Z</time></trkpt><trkpt lat="43.8570961" lon="10.4294698"><ele>17.5</ele><time>2026-04-12T07:49:32.05Z</time></trkpt><trkpt lat="43.8570752" lon="10.4292932"><ele>18.0</ele><time>2026-04-12T07:49:33.056Z</time></trkpt><trkpt lat="43.8570596" lon="10.429108"><ele>18.5</ele><time>2026-04-12T07:49:34.053Z</time></trkpt><trkpt lat="43.8570606" lon="10.4289143"><ele>19.0</ele><time>2026-04-12T07:49:35.052Z</time></trkpt><trkpt lat="43.857079" lon="10.4287132"><ele>19.333333333333332</ele><time>2026-04-12T07:49:36.055Z</time></trkpt><trkpt lat="43.8571093" lon="10.4285016"><ele>19.666666666666668</ele><time>2026-04-12T07:49:37.052Z</time></trkpt><trkpt lat="43.8571468" lon="10.4282911"><ele>20.0</ele><time>2026-04-12T07:49:38.047Z</time></trkpt><trkpt lat="43.8571843" lon="10.4280865"><ele>20.0</ele><time>2026-04-12T07:49:39.049Z</time></trkpt><trkpt lat="43.8572217" lon="10.4278951"><ele>20.0</ele><time>2026-04-12T07:49:40.049Z</time></trkpt><trkpt lat="43.8572577" lon="10.4277108"><ele>20.0</ele><time>2026-04-12T07:49:41.049Z</time></trkpt><trkpt lat="43.8572903" lon="10.4275298"><ele>20.0</ele><time>2026-04-12T07:49:42.05Z</time></trkpt><trkpt lat="43.8573181" lon="10.4273502"><ele>20.0</ele><time>2026-04-12T07:49:43.054Z</time></trkpt><trkpt lat="43.8573387" lon="10.4271692"><ele>20.0</ele><time>2026-04-12T07:49:44.049Z</time></trkpt><trkpt lat="43.8573546" lon="10.4269863"><ele>20.0</ele><time>2026-04-12T07:49:45.05Z</time></trkpt><trkpt lat="43.8573627" lon="10.4268043"><ele>20.0</ele><time>2026-04-12T07:49:46.049Z</time></trkpt><trkpt lat="43.8573671" lon="10.4266265"><ele>19.5</ele><time>2026-04-12T07:49:47.053Z</time></trkpt><trkpt lat="43.8573681" lon="10.426449"><ele>19.0</ele><time>2026-04-12T07:49:48.051Z</time></trkpt><trkpt lat="43.8573698" lon="10.4262766"><ele>18.5</ele><time>2026-04-12T07:49:49.051Z</time></trkpt><trkpt lat="43.8573726" lon="10.4261028"><ele>18.0</ele><time>2026-04-12T07:49:50.052Z</time></trkpt><trkpt lat="43.8573783" lon="10.4259271"><ele>17.75</ele><time>2026-04-12T07:49:51.053Z</time></trkpt><trkpt lat="43.8573836" lon="10.4257492"><ele>17.5</ele><time>2026-04-12T07:49:52.05Z</time></trkpt><trkpt lat="43.8573877" lon="10.4255718"><ele>17.25</ele><time>2026-04-12T07:49:53.055Z</time></trkpt><trkpt lat="43.857389" lon="10.4253972"><ele>17.0</ele><time>2026-04-12T07:49:54.05Z</time></trkpt><trkpt lat="43.8573859" lon="10.4252304"><ele>17.75</ele><time>2026-04-12T07:49:55.05Z</time></trkpt><trkpt lat="43.857378" lon="10.4250626"><ele>18.5</ele><time>2026-04-12T07:49:56.052Z</time></trkpt><trkpt lat="43.857361" lon="10.4248984"><ele>19.25</ele><time>2026-04-12T07:49:57.051Z</time></trkpt><trkpt lat="43.8573334" lon="10.4247405"><ele>20.0</ele><time>2026-04-12T07:49:58.05Z</time></trkpt><trkpt lat="43.8572944" lon="10.4245839"><ele>20.0</ele><time>2026-04-12T07:49:59.051Z</time></trkpt><trkpt lat="43.8572464" lon="10.4244284"><ele>20.0</ele><time>2026-04-12T07:50:00.049Z</time></trkpt><trkpt lat="43.857193" lon="10.4242739"><ele>20.0</ele><time>2026-04-12T07:50:01.052Z</time></trkpt><trkpt lat="43.8571373" lon="10.4241231"><ele>20.0</ele><time>2026-04-12T07:50:02.051Z</time></trkpt><trkpt lat="43.8570818" lon="10.4239735"><ele>20.0</ele><time>2026-04-12T07:50:03.056Z</time></trkpt><trkpt lat="43.8570258" lon="10.4238297"><ele>20.0</ele><time>2026-04-12T07:50:04.051Z</time></trkpt><trkpt lat="43.8569715" lon="10.4236838"><ele>20.0</ele><time>2026-04-12T07:50:05.05Z</time></trkpt><trkpt lat="43.8569206" lon="10.4235377"><ele>20.0</ele><time>2026-04-12T07:50:06.049Z</time></trkpt><trkpt lat="43.8568782" lon="10.4233847"><ele>20.0</ele><time>2026-04-12T07:50:07.05Z</time></trkpt><trkpt lat="43.8568483" lon="10.4232231"><ele>20.0</ele><time>2026-04-12T07:50:08.051Z</time></trkpt><trkpt lat="43.8568315" lon="10.4230492"><ele>20.0</ele><time>2026-04-12T07:50:09.05Z</time></trkpt><trkpt lat="43.8568303" lon="10.4228602"><ele>20.0</ele><time>2026-04-12T07:50:10.051Z</time></trkpt><trkpt lat="43.8568356" lon="10.4226642"><ele>20.0</ele><time>2026-04-12T07:50:11.049Z</time></trkpt><trkpt lat="43.8568492" lon="10.4224632"><ele>20.0</ele><time>2026-04-12T07:50:12.045Z</time></trkpt><trkpt lat="43.8568619" lon="10.4222601"><ele>20.0</ele><time>2026-04-12T07:50:13.057Z</time></trkpt><trkpt lat="43.8568725" lon="10.4220634"><ele>20.0</ele><time>2026-04-12T07:50:14.049Z</time></trkpt><trkpt lat="43.856881" lon="10.4218821"><ele>20.0</ele><time>2026-04-12T07:50:15.051Z</time></trkpt><trkpt lat="43.8568878" lon="10.4217101"><ele>20.0</ele><time>2026-04-12T07:50:16.051Z</time></trkpt><trkpt lat="43.8568927" lon="10.421539"><ele>20.0</ele><time>2026-04-12T07:50:17.051Z</time></trkpt><trkpt lat="43.8568965" lon="10.4213574"><ele>20.0</ele><time>2026-04-12T07:50:18.051Z</time></trkpt><trkpt lat="43.8569011" lon="10.421165"><ele>20.0</ele><time>2026-04-12T07:50:19.051Z</time></trkpt><trkpt lat="43.8569062" lon="10.420967"><ele>20.0</ele><time>2026-04-12T07:50:20.05Z</time></trkpt><trkpt lat="43.8569112" lon="10.4207646"><ele>20.0</ele><time>2026-04-12T07:50:21.05Z</time></trkpt><trkpt lat="43.8569174" lon="10.4205628"><ele>20.0</ele><time>2026-04-12T07:50:22.051Z</time></trkpt><trkpt lat="43.8569244" lon="10.4203642"><ele>20.5</ele><time>2026-04-12T07:50:23.055Z</time></trkpt><trkpt lat="43.8569315" lon="10.4201738"><ele>21.0</ele><time>2026-04-12T07:50:24.05Z</time></trkpt><trkpt lat="43.8569362" lon="10.42"><ele>21.5</ele><time>2026-04-12T07:50:25.05Z</time></trkpt><trkpt lat="43.8569391" lon="10.4198386"><ele>22.0</ele><time>2026-04-12T07:50:26.051Z</time></trkpt><trkpt lat="43.8569427" lon="10.419683"><ele>22.5</ele><time>2026-04-12T07:50:27.048Z</time></trkpt><trkpt lat="43.8569446" lon="10.4195121"><ele>23.0</ele><time>2026-04-12T07:50:28.049Z</time></trkpt><trkpt lat="43.8569414" lon="10.4193205"><ele>23.5</ele><time>2026-04-12T07:50:29.049Z</time></trkpt><trkpt lat="43.8569338" lon="10.4191165"><ele>24.0</ele><time>2026-04-12T07:50:30.049Z</time></trkpt><trkpt lat="43.8569275" lon="10.4189018"><ele>24.666666666666664</ele><time>2026-04-12T07:50:31.05Z</time></trkpt><trkpt lat="43.8569247" lon="10.4186778"><ele>25.333333333333332</ele><time>2026-04-12T07:50:32.052Z</time></trkpt><trkpt lat="43.856923" lon="10.4184469"><ele>26.0</ele><time>2026-04-12T07:50:33.057Z</time></trkpt><trkpt lat="43.8569248" lon="10.4182171"><ele>26.0</ele><time>2026-04-12T07:50:34.052Z</time></trkpt><trkpt lat="43.856928" lon="10.4180056"><ele>26.0</ele><time>2026-04-12T07:50:35.051Z</time></trkpt><trkpt lat="43.8569288" lon="10.4178094"><ele>26.0</ele><time>2026-04-12T07:50:36.05Z</time></trkpt><trkpt lat="43.8569303" lon="10.4176189"><ele>26.0</ele><time>2026-04-12T07:50:37.049Z</time></trkpt><trkpt lat="43.8569307" lon="10.4174312"><ele>26.75</ele><time>2026-04-12T07:50:38.051Z</time></trkpt><trkpt lat="43.8569324" lon="10.4172393"><ele>27.5</ele><time>2026-04-12T07:50:39.053Z</time></trkpt><trkpt lat="43.8569315" lon="10.4170374"><ele>28.25</ele><time>2026-04-12T07:50:40.051Z</time></trkpt><trkpt lat="43.8569336" lon="10.4168282"><ele>29.0</ele><time>2026-04-12T07:50:41.05Z</time></trkpt><trkpt lat="43.8569361" lon="10.4166178"><ele>29.333333333333332</ele><time>2026-04-12T07:50:42.05Z</time></trkpt><trkpt lat="43.8569366" lon="10.4164063"><ele>29.666666666666664</ele><time>2026-04-12T07:50:43.051Z</time></trkpt><trkpt lat="43.8569304" lon="10.4161965"><ele>30.0</ele><time>2026-04-12T07:50:44.045Z</time></trkpt><trkpt lat="43.8569185" lon="10.415989"><ele>30.666666666666664</ele><time>2026-04-12T07:50:45.049Z</time></trkpt><trkpt lat="43.8568971" lon="10.4157641"><ele>31.333333333333332</ele><time>2026-04-12T07:50:46.05Z</time></trkpt><trkpt lat="43.8568704" lon="10.4155034"><ele>32.0</ele><time>2026-04-12T07:50:47.051Z</time></trkpt><trkpt lat="43.8568405" lon="10.4152081"><ele>33.5</ele><time>2026-04-12T07:50:48.049Z</time></trkpt><trkpt lat="43.8568128" lon="10.4148903"><ele>35.0</ele><time>2026-04-12T07:50:49.046Z</time></trkpt><trkpt lat="43.8567937" lon="10.4145833"><ele>36.33333333333333</ele><time>2026-04-12T07:50:50.052Z</time></trkpt><trkpt lat="43.8567741" lon="10.4142866"><ele>37.666666666666664</ele><time>2026-04-12T07:50:51.049Z</time></trkpt><trkpt lat="43.8567515" lon="10.414007"><ele>39.0</ele><time>2026-04-12T07:50:52.048Z</time></trkpt><trkpt lat="43.8567281" lon="10.4137531"><ele>40.0</ele><time>2026-04-12T07:50:53.056Z</time></trkpt><trkpt lat="43.8566994" lon="10.4135264"><ele>41.0</ele><time>2026-04-12T07:50:54.049Z</time></trkpt><trkpt lat="43.8566659" lon="10.4133252"><ele>42.0</ele><time>2026-04-12T07:50:55.049Z</time></trkpt><trkpt lat="43.8566238" lon="10.4131433"><ele>42.25</ele><time>2026-04-12T07:50:56.049Z</time></trkpt><trkpt lat="43.8565795" lon="10.4129654"><ele>42.5</ele><time>2026-04-12T07:50:57.048Z</time></trkpt><trkpt lat="43.8565323" lon="10.4128093"><ele>42.75</ele><time>2026-04-12T07:50:58.048Z</time></trkpt><trkpt lat="43.8564827" lon="10.4126711"><ele>43.0</ele><time>2026-04-12T07:50:59.049Z</time></trkpt><trkpt lat="43.8564381" lon="10.4125408"><ele>43.0</ele><time>2026-04-12T07:51:00.049Z</time></trkpt><trkpt lat="43.8563902" lon="10.4124043"><ele>43.0</ele><time>2026-04-12T07:51:01.05Z</time></trkpt><trkpt lat="43.8563395" lon="10.4122585"><ele>43.0</ele><time>2026-04-12T07:51:02.052Z</time></trkpt><trkpt lat="43.8562851" lon="10.4121042"><ele>43.0</ele><time>2026-04-12T07:51:03.054Z</time></trkpt><trkpt lat="43.8562273" lon="10.4119487"><ele>43.5</ele><time>2026-04-12T07:51:04.049Z</time></trkpt><trkpt lat="43.8561688" lon="10.4117908"><ele>44.0</ele><time>2026-04-12T07:51:05.051Z</time></trkpt><trkpt lat="43.8561183" lon="10.4116283"><ele>44.5</ele><time>2026-04-12T07:51:06.053Z</time></trkpt><trkpt lat="43.8560805" lon="10.4114539"><ele>45.0</ele><time>2026-04-12T07:51:07.05Z</time></trkpt><trkpt lat="43.85605" lon="10.4112565"><ele>45.333333333333336</ele><time>2026-04-12T07:51:08.05Z</time></trkpt><trkpt lat="43.8560173" lon="10.4110327"><ele>45.66666666666667</ele><time>2026-04-12T07:51:09.054Z</time></trkpt><trkpt lat="43.8559765" lon="10.4107732"><ele>46.0</ele><time>2026-04-12T07:51:10.051Z</time></trkpt><trkpt lat="43.8559425" lon="10.4104873"><ele>46.0</ele><time>2026-04-12T07:51:11.048Z</time></trkpt><trkpt lat="43.855912" lon="10.4101986"><ele>46.0</ele><time>2026-04-12T07:51:12.049Z</time></trkpt><trkpt lat="43.8558781" lon="10.4098934"><ele>46.0</ele><time>2026-04-12T07:51:13.054Z</time></trkpt><trkpt lat="43.8558356" lon="10.4095866"><ele>46.0</ele><time>2026-04-12T07:51:14.049Z</time></trkpt><trkpt lat="43.8557818" lon="10.4092656"><ele>46.0</ele><time>2026-04-12T07:51:15.047Z</time></trkpt><trkpt lat="43.855722" lon="10.4089499"><ele>47.0</ele><time>2026-04-12T07:51:16.05Z</time></trkpt><trkpt lat="43.8556565" lon="10.408642"><ele>48.0</ele><time>2026-04-12T07:51:17.049Z</time></trkpt><trkpt lat="43.8555914" lon="10.4083387"><ele>48.0</ele><time>2026-04-12T07:51:18.042Z</time></trkpt><trkpt lat="43.8555276" lon="10.4080331"><ele>48.0</ele><time>2026-04-12T07:51:19.05Z</time></trkpt><trkpt lat="43.8554665" lon="10.4077278"><ele>50.0</ele><time>2026-04-12T07:51:20.05Z</time></trkpt><trkpt lat="43.8554037" lon="10.4074248"><ele>52.0</ele><time>2026-04-12T07:51:21.049Z</time></trkpt><trkpt lat="43.8553399" lon="10.4071334"><ele>54.0</ele><time>2026-04-12T07:51:22.05Z</time></trkpt><trkpt lat="43.8552791" lon="10.4068547"><ele>54.33333333333333</ele><time>2026-04-12T07:51:23.057Z</time></trkpt><trkpt lat="43.8552215" lon="10.40658"><ele>54.666666666666664</ele><time>2026-04-12T07:51:24.05Z</time></trkpt><trkpt lat="43.8551668" lon="10.4063075"><ele>55.0</ele><time>2026-04-12T07:51:25.049Z</time></trkpt><trkpt lat="43.8551115" lon="10.4060366"><ele>55.0</ele><time>2026-04-12T07:51:26.049Z</time></trkpt><trkpt lat="43.8550546" lon="10.4057708"><ele>55.0</ele><time>2026-04-12T07:51:27.05Z</time></trkpt><trkpt lat="43.8549989" lon="10.4055065"><ele>55.0</ele><time>2026-04-12T07:51:28.05Z</time></trkpt><trkpt lat="43.8549473" lon="10.4052449"><ele>56.666666666666664</ele><time>2026-04-12T07:51:29.048Z</time></trkpt><trkpt lat="43.8549047" lon="10.4049871"><ele>58.33333333333333</ele><time>2026-04-12T07:51:30.049Z</time></trkpt><trkpt lat="43.8548756" lon="10.4047301"><ele>60.0</ele><time>2026-04-12T07:51:31.051Z</time></trkpt><trkpt lat="43.8548645" lon="10.4044681"><ele>61.66666666666667</ele><time>2026-04-12T07:51:32.052Z</time></trkpt><trkpt lat="43.8548627" lon="10.4041996"><ele>63.333333333333336</ele><time>2026-04-12T07:51:33.057Z</time></trkpt><trkpt lat="43.8548567" lon="10.4039311"><ele>65.0</ele><time>2026-04-12T07:51:34.05Z</time></trkpt><trkpt lat="43.8548389" lon="10.4036666"><ele>65.0</ele><time>2026-04-12T07:51:35.05Z</time></trkpt><trkpt lat="43.8548044" lon="10.4034155"><ele>65.0</ele><time>2026-04-12T07:51:36.049Z</time></trkpt><trkpt lat="43.8547659" lon="10.4031787"><ele>65.0</ele><time>2026-04-12T07:51:37.049Z</time></trkpt><trkpt lat="43.8547389" lon="10.4029544"><ele>65.33333333333334</ele><time>2026-04-12T07:51:38.05Z</time></trkpt><trkpt lat="43.8547366" lon="10.4027313"><ele>65.66666666666667</ele><time>2026-04-12T07:51:39.044Z</time></trkpt><trkpt lat="43.8547596" lon="10.4025071"><ele>66.0</ele><time>2026-04-12T07:51:40.049Z</time></trkpt><trkpt lat="43.8548073" lon="10.4022845"><ele>67.33333333333333</ele><time>2026-04-12T07:51:41.046Z</time></trkpt><trkpt lat="43.8548763" lon="10.4020704"><ele>68.66666666666666</ele><time>2026-04-12T07:51:42.046Z</time></trkpt><trkpt lat="43.854953" lon="10.4018611"><ele>70.0</ele><time>2026-04-12T07:51:43.056Z</time></trkpt><trkpt lat="43.8550157" lon="10.4016501"><ele>70.0</ele><time>2026-04-12T07:51:44.049Z</time></trkpt><trkpt lat="43.8550489" lon="10.4014448"><ele>70.0</ele><time>2026-04-12T07:51:45.051Z</time></trkpt><trkpt lat="43.8550439" lon="10.4012499"><ele>70.0</ele><time>2026-04-12T07:51:46.049Z</time></trkpt><trkpt lat="43.8550071" lon="10.4010832"><ele>70.0</ele><time>2026-04-12T07:51:47.049Z</time></trkpt><trkpt lat="43.8549379" lon="10.4009178"><ele>70.66666666666666</ele><time>2026-04-12T07:51:48.05Z</time></trkpt><trkpt lat="43.8548518" lon="10.4007433"><ele>71.33333333333333</ele><time>2026-04-12T07:51:49.043Z</time></trkpt><trkpt lat="43.8547697" lon="10.4005406"><ele>72.0</ele><time>2026-04-12T07:51:50.05Z</time></trkpt><trkpt lat="43.8547004" lon="10.4003153"><ele>74.66666666666667</ele><time>2026-04-12T07:51:51.048Z</time></trkpt><trkpt lat="43.8546421" lon="10.4000759"><ele>77.33333333333334</ele><time>2026-04-12T07:51:52.047Z</time></trkpt><trkpt lat="43.8545889" lon="10.39983"><ele>80.0</ele><time>2026-04-12T07:51:53.05Z</time></trkpt><trkpt lat="43.8545396" lon="10.3995787"><ele>85.33333333333334</ele><time>2026-04-12T07:51:54.049Z</time></trkpt><trkpt lat="43.8544985" lon="10.3993211"><ele>90.66666666666667</ele><time>2026-04-12T07:51:55.047Z</time></trkpt><trkpt lat="43.8544663" lon="10.3990588"><ele>96.0</ele><time>2026-04-12T07:51:56.045Z</time></trkpt><trkpt lat="43.8544484" lon="10.3987897"><ele>97.0</ele><time>2026-04-12T07:51:57.046Z</time></trkpt><trkpt lat="43.8544404" lon="10.3985147"><ele>98.0</ele><time>2026-04-12T07:51:58.048Z</time></trkpt><trkpt lat="43.8544323" lon="10.3982391"><ele>99.0</ele><time>2026-04-12T07:51:59.049Z</time></trkpt><trkpt lat="43.8544231" lon="10.397967"><ele>99.0</ele><time>2026-04-12T07:52:00.046Z</time></trkpt><trkpt lat="43.8544122" lon="10.3976941"><ele>99.0</ele><time>2026-04-12T07:52:01.049Z</time></trkpt><trkpt lat="43.8543993" lon="10.3974168"><ele>99.0</ele><time>2026-04-12T07:52:02.051Z</time></trkpt><trkpt lat="43.8543856" lon="10.3971398"><ele>97.66666666666667</ele><time>2026-04-12T07:52:03.051Z</time></trkpt><trkpt lat="43.8543723" lon="10.3968641"><ele>96.33333333333334</ele><time>2026-04-12T07:52:04.051Z</time></trkpt><trkpt lat="43.8543605" lon="10.3965905"><ele>95.0</ele><time>2026-04-12T07:52:05.048Z</time></trkpt><trkpt lat="43.8543485" lon="10.396319"><ele>95.0</ele><time>2026-04-12T07:52:06.046Z</time></trkpt><trkpt lat="43.854337" lon="10.3960483"><ele>95.0</ele><time>2026-04-12T07:52:07.048Z</time></trkpt><trkpt lat="43.8543264" lon="10.3957804"><ele>95.0</ele><time>2026-04-12T07:52:08.047Z</time></trkpt><trkpt lat="43.8543148" lon="10.3955151"><ele>95.0</ele><time>2026-04-12T07:52:09.045Z</time></trkpt><trkpt lat="43.8543021" lon="10.3952506"><ele>95.0</ele><time>2026-04-12T07:52:10.047Z</time></trkpt><trkpt lat="43.8542913" lon="10.3949868"><ele>95.0</ele><time>2026-04-12T07:52:11.044Z</time></trkpt><trkpt lat="43.8542801" lon="10.3947259"><ele>96.33333333333334</ele><time>2026-04-12T07:52:12.045Z</time></trkpt><trkpt lat="43.854269" lon="10.3944662"><ele>97.66666666666667</ele><time>2026-04-12T07:52:13.047Z</time></trkpt><trkpt lat="43.8542559" lon="10.3942068"><ele>99.0</ele><time>2026-04-12T07:52:14.044Z</time></trkpt><trkpt lat="43.8542366" lon="10.3939507"><ele>101.0</ele><time>2026-04-12T07:52:15.046Z</time></trkpt><trkpt lat="43.8542087" lon="10.3936976"><ele>103.0</ele><time>2026-04-12T07:52:16.045Z</time></trkpt><trkpt lat="43.8541734" lon="10.3934441"><ele>105.0</ele><time>2026-04-12T07:52:17.046Z</time></trkpt><trkpt lat="43.8541317" lon="10.3931881"><ele>108.0</ele><time>2026-04-12T07:52:18.045Z</time></trkpt><trkpt lat="43.8540883" lon="10.3929309"><ele>111.0</ele><time>2026-04-12T07:52:19.043Z</time></trkpt><trkpt lat="43.8540439" lon="10.3926738"><ele>114.0</ele><time>2026-04-12T07:52:20.041Z</time></trkpt><trkpt lat="43.854001" lon="10.392417"><ele>120.33333333333334</ele><time>2026-04-12T07:52:21.044Z</time></trkpt><trkpt lat="43.8539557" lon="10.3921605"><ele>126.66666666666667</ele><time>2026-04-12T07:52:22.043Z</time></trkpt><trkpt lat="43.8539089" lon="10.3919034"><ele>133.0</ele><time>2026-04-12T07:52:23.046Z</time></trkpt><trkpt lat="43.8538568" lon="10.3916503"><ele>133.0</ele><time>2026-04-12T07:52:24.043Z</time></trkpt><trkpt lat="43.8537936" lon="10.3914035"><ele>133.0</ele><time>2026-04-12T07:52:25.043Z</time></trkpt><trkpt lat="43.8537195" lon="10.3911675"><ele>133.0</ele><time>2026-04-12T07:52:26.043Z</time></trkpt><trkpt lat="43.8536406" lon="10.3909354"><ele>134.33333333333334</ele><time>2026-04-12T07:52:27.043Z</time></trkpt><trkpt lat="43.8535595" lon="10.3907018"><ele>135.66666666666666</ele><time>2026-04-12T07:52:28.043Z</time></trkpt><trkpt lat="43.8534749" lon="10.3904689"><ele>137.0</ele><time>2026-04-12T07:52:29.043Z</time></trkpt><trkpt lat="43.853388" lon="10.3902432"><ele>137.0</ele><time>2026-04-12T07:52:30.042Z</time></trkpt><trkpt lat="43.8532952" lon="10.3900253"><ele>137.0</ele><time>2026-04-12T07:52:31.044Z</time></trkpt><trkpt lat="43.8531948" lon="10.3898166"><ele>137.0</ele><time>2026-04-12T07:52:32.045Z</time></trkpt><trkpt lat="43.853093" lon="10.3896144"><ele>142.33333333333331</ele><time>2026-04-12T07:52:33.046Z</time></trkpt><trkpt lat="43.8529869" lon="10.3894145"><ele>147.66666666666666</ele><time>2026-04-12T07:52:34.041Z</time></trkpt><trkpt lat="43.8528853" lon="10.3891958"><ele>153.0</ele><time>2026-04-12T07:52:35.041Z</time></trkpt><trkpt lat="43.852808" lon="10.3889659"><ele>159.33333333333334</ele><time>2026-04-12T07:52:36.042Z</time></trkpt><trkpt lat="43.852734" lon="10.3887427"><ele>165.66666666666669</ele><time>2026-04-12T07:52:37.043Z</time></trkpt><trkpt lat="43.8526756" lon="10.3884856"><ele>172.0</ele><time>2026-04-12T07:52:38.042Z</time></trkpt><trkpt lat="43.8526277" lon="10.3882222"><ele>163.66666666666669</ele><time>2026-04-12T07:52:39.042Z</time></trkpt><trkpt lat="43.8525828" lon="10.3879635"><ele>155.33333333333334</ele><time>2026-04-12T07:52:40.04Z</time></trkpt><trkpt lat="43.852536" lon="10.3877076"><ele>147.0</ele><time>2026-04-12T07:52:41.038Z</time></trkpt><trkpt lat="43.8524855" lon="10.3874517"><ele>147.0</ele><time>2026-04-12T07:52:42.042Z</time></trkpt><trkpt lat="43.8524364" lon="10.3871933"><ele>147.0</ele><time>2026-04-12T07:52:43.044Z</time></trkpt><trkpt lat="43.8524007" lon="10.3869251"><ele>147.0</ele><time>2026-04-12T07:52:44.043Z</time></trkpt><trkpt lat="43.8523777" lon="10.3866544"><ele>147.0</ele><time>2026-04-12T07:52:45.043Z</time></trkpt><trkpt lat="43.8523479" lon="10.3863941"><ele>147.0</ele><time>2026-04-12T07:52:46.045Z</time></trkpt><trkpt lat="43.8523081" lon="10.3861361"><ele>147.0</ele><time>2026-04-12T07:52:47.044Z</time></trkpt><trkpt lat="43.8522667" lon="10.3858757"><ele>152.0</ele><time>2026-04-12T07:52:48.043Z</time></trkpt><trkpt lat="43.8522235" lon="10.3856197"><ele>157.0</ele><time>2026-04-12T07:52:49.046Z</time></trkpt><trkpt lat="43.852183" lon="10.3853707"><ele>162.0</ele><time>2026-04-12T07:52:50.044Z</time></trkpt><trkpt lat="43.8521539" lon="10.3851194"><ele>164.33333333333334</ele><time>2026-04-12T07:52:51.045Z</time></trkpt><trkpt lat="43.8521344" lon="10.3848628"><ele>166.66666666666669</ele><time>2026-04-12T07:52:52.044Z</time></trkpt><trkpt lat="43.8521229" lon="10.3846016"><ele>169.0</ele><time>2026-04-12T07:52:53.045Z</time></trkpt><trkpt lat="43.8521168" lon="10.3843369"><ele>169.33333333333334</ele><time>2026-04-12T07:52:54.041Z</time></trkpt><trkpt lat="43.8521136" lon="10.38407"><ele>169.66666666666666</ele><time>2026-04-12T07:52:55.042Z</time></trkpt><trkpt lat="43.8521112" lon="10.3838053"><ele>170.0</ele><time>2026-04-12T07:52:56.043Z</time></trkpt><trkpt lat="43.8521084" lon="10.3835386"><ele>169.33333333333331</ele><time>2026-04-12T07:52:57.042Z</time></trkpt><trkpt lat="43.8521095" lon="10.3832677"><ele>168.66666666666666</ele><time>2026-04-12T07:52:58.041Z</time></trkpt><trkpt lat="43.8521124" lon="10.3829948"><ele>168.0</ele><time>2026-04-12T07:52:59.044Z</time></trkpt><trkpt lat="43.8521103" lon="10.3827234"><ele>168.0</ele><time>2026-04-12T07:53:00.042Z</time></trkpt><trkpt lat="43.8521035" lon="10.3824528"><ele>168.0</ele><time>2026-04-12T07:53:01.043Z</time></trkpt><trkpt lat="43.8520867" lon="10.3821961"><ele>168.0</ele><time>2026-04-12T07:53:02.042Z</time></trkpt><trkpt lat="43.8520713" lon="10.3819607"><ele>167.25</ele><time>2026-04-12T07:53:03.046Z</time></trkpt><trkpt lat="43.8520709" lon="10.38175"><ele>166.5</ele><time>2026-04-12T07:53:04.042Z</time></trkpt><trkpt lat="43.8520888" lon="10.3815696"><ele>165.75</ele><time>2026-04-12T07:53:05.043Z</time></trkpt><trkpt lat="43.8521263" lon="10.3814371"><ele>165.0</ele><time>2026-04-12T07:53:06.043Z</time></trkpt><trkpt lat="43.8521817" lon="10.3813574"><ele>165.0</ele><time>2026-04-12T07:53:07.044Z</time></trkpt><trkpt lat="43.8522619" lon="10.381331"><ele>165.0</ele><time>2026-04-12T07:53:08.044Z</time></trkpt><trkpt lat="43.8523575" lon="10.3813712"><ele>165.0</ele><time>2026-04-12T07:53:09.047Z</time></trkpt><trkpt lat="43.8524571" lon="10.381451"><ele>165.0</ele><time>2026-04-12T07:53:10.047Z</time></trkpt><trkpt lat="43.8525394" lon="10.3814973"><ele>165.0</ele><time>2026-04-12T07:53:11.047Z</time></trkpt><trkpt lat="43.8526186" lon="10.3814863"><ele>166.2</ele><time>2026-04-12T07:53:12.04Z</time></trkpt><trkpt lat="43.8526819" lon="10.3814304"><ele>167.4</ele><time>2026-04-12T07:53:13.05Z</time></trkpt><trkpt lat="43.8526618" lon="10.3812422"><ele>168.60000000000002</ele><time>2026-04-12T07:53:15.05Z</time></trkpt><trkpt lat="43.8525897" lon="10.3811556"><ele>169.8</ele><time>2026-04-12T07:53:16.046Z</time></trkpt><trkpt lat="43.8525039" lon="10.3810737"><ele>171.0</ele><time>2026-04-12T07:53:17.046Z</time></trkpt><trkpt lat="43.8524382" lon="10.3809682"><ele>171.0</ele><time>2026-04-12T07:53:18.046Z</time></trkpt><trkpt lat="43.8524293" lon="10.3808493"><ele>171.0</ele><time>2026-04-12T07:53:19.05Z</time></trkpt><trkpt lat="43.8524454" lon="10.3807081"><ele>171.0</ele><time>2026-04-12T07:53:20.045Z</time></trkpt><trkpt lat="43.85247" lon="10.3805651"><ele>171.0</ele><time>2026-04-12T07:53:21.045Z</time></trkpt><trkpt lat="43.8524935" lon="10.3804297"><ele>171.0</ele><time>2026-04-12T07:53:22.044Z</time></trkpt><trkpt lat="43.8525008" lon="10.3802972"><ele>172.20000000000002</ele><time>2026-04-12T07:53:23.043Z</time></trkpt><trkpt lat="43.8524949" lon="10.3801584"><ele>173.4</ele><time>2026-04-12T07:53:24.044Z</time></trkpt><trkpt lat="43.8524832" lon="10.3800189"><ele>174.6</ele><time>2026-04-12T07:53:25.044Z</time></trkpt><trkpt lat="43.8524692" lon="10.3798788"><ele>175.8</ele><time>2026-04-12T07:53:26.044Z</time></trkpt><trkpt lat="43.8524555" lon="10.3797404"><ele>177.0</ele><time>2026-04-12T07:53:27.044Z</time></trkpt><trkpt lat="43.8524413" lon="10.3796041"><ele>177.0</ele><time>2026-04-12T07:53:28.045Z</time></trkpt><trkpt lat="43.8524247" lon="10.379471"><ele>177.0</ele><time>2026-04-12T07:53:29.045Z</time></trkpt><trkpt lat="43.8524075" lon="10.3793444"><ele>177.0</ele><time>2026-04-12T07:53:30.047Z</time></trkpt><trkpt lat="43.8523877" lon="10.3792226"><ele>177.0</ele><time>2026-04-12T07:53:31.042Z</time></trkpt><trkpt lat="43.8523627" lon="10.3790986"><ele>177.0</ele><time>2026-04-12T07:53:32.044Z</time></trkpt><trkpt lat="43.8523344" lon="10.3789779"><ele>177.0</ele><time>2026-04-12T07:53:33.048Z</time></trkpt><trkpt lat="43.8523031" lon="10.3788681"><ele>177.0</ele><time>2026-04-12T07:53:34.044Z</time></trkpt><trkpt lat="43.8522717" lon="10.3787705"><ele>177.0</ele><time>2026-04-12T07:53:35.044Z</time></trkpt><trkpt lat="43.8522384" lon="10.3786831"><ele>177.0</ele><time>2026-04-12T07:53:36.045Z</time></trkpt><trkpt lat="43.8521998" lon="10.3785999"><ele>177.0</ele><time>2026-04-12T07:53:37.046Z</time></trkpt><trkpt lat="43.8521551" lon="10.3785199"><ele>177.0</ele><time>2026-04-12T07:53:38.047Z</time></trkpt><trkpt lat="43.8521054" lon="10.3784349"><ele>175.75</ele><time>2026-04-12T07:53:39.048Z</time></trkpt><trkpt lat="43.8520431" lon="10.3783318"><ele>174.5</ele><time>2026-04-12T07:53:40.049Z</time></trkpt><trkpt lat="43.8519656" lon="10.378205"><ele>173.25</ele><time>2026-04-12T07:53:41.045Z</time></trkpt><trkpt lat="43.8518896" lon="10.3780501"><ele>172.0</ele><time>2026-04-12T07:53:42.043Z</time></trkpt><trkpt lat="43.85182" lon="10.3778795"><ele>169.0</ele><time>2026-04-12T07:53:43.046Z</time></trkpt><trkpt lat="43.8517449" lon="10.37771"><ele>166.0</ele><time>2026-04-12T07:53:44.047Z</time></trkpt><trkpt lat="43.85166" lon="10.3775594"><ele>163.0</ele><time>2026-04-12T07:53:45.045Z</time></trkpt><trkpt lat="43.8515794" lon="10.3774222"><ele>160.0</ele><time>2026-04-12T07:53:46.045Z</time></trkpt><trkpt lat="43.8515095" lon="10.3772829"><ele>156.0</ele><time>2026-04-12T07:53:47.045Z</time></trkpt><trkpt lat="43.8514512" lon="10.3771522"><ele>152.0</ele><time>2026-04-12T07:53:48.045Z</time></trkpt><trkpt lat="43.851388" lon="10.3770328"><ele>148.0</ele><time>2026-04-12T07:53:49.047Z</time></trkpt><trkpt lat="43.8513119" lon="10.3769163"><ele>144.0</ele><time>2026-04-12T07:53:50.048Z</time></trkpt><trkpt lat="43.8512216" lon="10.3768265"><ele>140.0</ele><time>2026-04-12T07:53:51.044Z</time></trkpt><trkpt lat="43.8511214" lon="10.3767714"><ele>140.0</ele><time>2026-04-12T07:53:52.047Z</time></trkpt><trkpt lat="43.8510176" lon="10.3767632"><ele>140.0</ele><time>2026-04-12T07:53:53.049Z</time></trkpt><trkpt lat="43.8509129" lon="10.3767979"><ele>140.0</ele><time>2026-04-12T07:53:54.045Z</time></trkpt><trkpt lat="43.8508092" lon="10.3768582"><ele>140.0</ele><time>2026-04-12T07:53:55.044Z</time></trkpt><trkpt lat="43.8507101" lon="10.3769253"><ele>140.0</ele><time>2026-04-12T07:53:56.043Z</time></trkpt><trkpt lat="43.8506257" lon="10.3769606"><ele>144.0</ele><time>2026-04-12T07:53:57.043Z</time></trkpt><trkpt lat="43.8505323" lon="10.3769013"><ele>148.0</ele><time>2026-04-12T07:53:59.044Z</time></trkpt><trkpt lat="43.8505208" lon="10.3767871"><ele>152.0</ele><time>2026-04-12T07:54:00.042Z</time></trkpt><trkpt lat="43.8505338" lon="10.3766064"><ele>156.0</ele><time>2026-04-12T07:54:01.043Z</time></trkpt><trkpt lat="43.8505728" lon="10.3764058"><ele>156.5</ele><time>2026-04-12T07:54:02.044Z</time></trkpt><trkpt lat="43.85063" lon="10.376207"><ele>157.0</ele><time>2026-04-12T07:54:03.043Z</time></trkpt><trkpt lat="43.8506964" lon="10.376036"><ele>157.5</ele><time>2026-04-12T07:54:04.044Z</time></trkpt><trkpt lat="43.8507675" lon="10.3758729"><ele>158.0</ele><time>2026-04-12T07:54:05.043Z</time></trkpt><trkpt lat="43.8508317" lon="10.375717"><ele>158.0</ele><time>2026-04-12T07:54:06.047Z</time></trkpt><trkpt lat="43.8508951" lon="10.3755345"><ele>158.0</ele><time>2026-04-12T07:54:07.047Z</time></trkpt><trkpt lat="43.8509473" lon="10.3753352"><ele>158.0</ele><time>2026-04-12T07:54:08.044Z</time></trkpt><trkpt lat="43.8509915" lon="10.3751457"><ele>158.0</ele><time>2026-04-12T07:54:09.044Z</time></trkpt><trkpt lat="43.8510212" lon="10.374974"><ele>148.75</ele><time>2026-04-12T07:54:10.043Z</time></trkpt><trkpt lat="43.8510482" lon="10.3748091"><ele>139.5</ele><time>2026-04-12T07:54:11.042Z</time></trkpt><trkpt lat="43.8510891" lon="10.3746539"><ele>130.25</ele><time>2026-04-12T07:54:12.041Z</time></trkpt><trkpt lat="43.8511431" lon="10.3745135"><ele>121.0</ele><time>2026-04-12T07:54:13.047Z</time></trkpt><trkpt lat="43.8512034" lon="10.3743883"><ele>121.0</ele><time>2026-04-12T07:54:14.046Z</time></trkpt><trkpt lat="43.8512471" lon="10.3742648"><ele>121.0</ele><time>2026-04-12T07:54:15.045Z</time></trkpt><trkpt lat="43.8512573" lon="10.3741251"><ele>121.0</ele><time>2026-04-12T07:54:16.052Z</time></trkpt><trkpt lat="43.8512316" lon="10.3739645"><ele>121.0</ele><time>2026-04-12T07:54:17.048Z</time></trkpt><trkpt lat="43.8511922" lon="10.3737997"><ele>121.0</ele><time>2026-04-12T07:54:18.051Z</time></trkpt><trkpt lat="43.8511422" lon="10.3736411"><ele>119.6</ele><time>2026-04-12T07:54:19.054Z</time></trkpt><trkpt lat="43.8511002" lon="10.3734972"><ele>118.19999999999999</ele><time>2026-04-12T07:54:20.05Z</time></trkpt><trkpt lat="43.8510692" lon="10.3733749"><ele>116.80000000000001</ele><time>2026-04-12T07:54:21.048Z</time></trkpt><trkpt lat="43.8510418" lon="10.3732533"><ele>115.4</ele><time>2026-04-12T07:54:22.047Z</time></trkpt><trkpt lat="43.8510208" lon="10.3731441"><ele>114.0</ele><time>2026-04-12T07:54:23.047Z</time></trkpt><trkpt lat="43.8509976" lon="10.3730062"><ele>114.0</ele><time>2026-04-12T07:54:25.048Z</time></trkpt><trkpt lat="43.8509442" lon="10.3729326"><ele>114.0</ele><time>2026-04-12T07:54:28.043Z</time></trkpt><trkpt lat="43.8509418" lon="10.3730506"><ele>114.0</ele><time>2026-04-12T07:54:41.05Z</time></trkpt><trkpt lat="43.8509649" lon="10.3731736"><ele>114.0</ele><time>2026-04-12T07:54:43.05Z</time></trkpt><trkpt lat="43.8509678" lon="10.3732615"><ele>114.0</ele><time>2026-04-12T07:54:45.05Z</time></trkpt><trkpt lat="43.8509115" lon="10.3732181"><ele>114.0</ele><time>2026-04-12T07:54:48.052Z</time></trkpt><trkpt lat="43.8508534" lon="10.3730415"><ele>116.16666666666667</ele><time>2026-04-12T07:54:50.048Z</time></trkpt><trkpt lat="43.8508192" lon="10.3729465"><ele>118.33333333333334</ele><time>2026-04-12T07:54:51.047Z</time></trkpt><trkpt lat="43.8507657" lon="10.3728623"><ele>120.5</ele><time>2026-04-12T07:54:52.049Z</time></trkpt><trkpt lat="43.8506931" lon="10.3727849"><ele>122.66666666666667</ele><time>2026-04-12T07:54:53.051Z</time></trkpt><trkpt lat="43.8506094" lon="10.3727259"><ele>124.83333333333334</ele><time>2026-04-12T07:54:54.048Z</time></trkpt><trkpt lat="43.850534" lon="10.3726779"><ele>127.0</ele><time>2026-04-12T07:54:55.048Z</time></trkpt><trkpt lat="43.8504739" lon="10.3726232"><ele>127.00000000000001</ele><time>2026-04-12T07:54:56.04Z</time></trkpt><trkpt lat="43.8504277" lon="10.3725464"><ele>127.0</ele><time>2026-04-12T07:54:57.047Z</time></trkpt><trkpt lat="43.8504021" lon="10.3724453"><ele>127.0</ele><time>2026-04-12T07:54:58.047Z</time></trkpt><trkpt lat="43.8503888" lon="10.3723249"><ele>127.0</ele><time>2026-04-12T07:54:59.045Z</time></trkpt><trkpt lat="43.8503792" lon="10.3721979"><ele>127.00000000000001</ele><time>2026-04-12T07:55:00.045Z</time></trkpt><trkpt lat="43.8503589" lon="10.3720656"><ele>127.0</ele><time>2026-04-12T07:55:01.041Z</time></trkpt><trkpt lat="43.850327" lon="10.3719319"><ele>124.8</ele><time>2026-04-12T07:55:02.046Z</time></trkpt><trkpt lat="43.8502983" lon="10.3717937"><ele>122.6</ele><time>2026-04-12T07:55:03.045Z</time></trkpt><trkpt lat="43.8502807" lon="10.3716529"><ele>120.39999999999999</ele><time>2026-04-12T07:55:04.047Z</time></trkpt><trkpt lat="43.8502683" lon="10.3715093"><ele>118.19999999999999</ele><time>2026-04-12T07:55:05.046Z</time></trkpt><trkpt lat="43.8502604" lon="10.3713669"><ele>116.0</ele><time>2026-04-12T07:55:06.048Z</time></trkpt><trkpt lat="43.850264" lon="10.3712337"><ele>115.16666666666666</ele><time>2026-04-12T07:55:07.05Z</time></trkpt><trkpt lat="43.8502734" lon="10.3711069"><ele>114.33333333333333</ele><time>2026-04-12T07:55:08.05Z</time></trkpt><trkpt lat="43.8502831" lon="10.3709921"><ele>113.5</ele><time>2026-04-12T07:55:09.046Z</time></trkpt><trkpt lat="43.8502919" lon="10.3708917"><ele>112.66666666666666</ele><time>2026-04-12T07:55:10.046Z</time></trkpt><trkpt lat="43.8502904" lon="10.3707956"><ele>111.83333333333333</ele><time>2026-04-12T07:55:11.045Z</time></trkpt><trkpt lat="43.8502753" lon="10.3706934"><ele>111.0</ele><time>2026-04-12T07:55:12.046Z</time></trkpt><trkpt lat="43.8502555" lon="10.3705908"><ele>110.0</ele><time>2026-04-12T07:55:13.049Z</time></trkpt><trkpt lat="43.8502311" lon="10.3704968"><ele>109.0</ele><time>2026-04-12T07:55:14.049Z</time></trkpt><trkpt lat="43.8501983" lon="10.3704139"><ele>108.0</ele><time>2026-04-12T07:55:15.048Z</time></trkpt><trkpt lat="43.8501082" lon="10.3703344"><ele>107.0</ele><time>2026-04-12T07:55:17.049Z</time></trkpt><trkpt lat="43.8500151" lon="10.3703895"><ele>106.0</ele><time>2026-04-12T07:55:19.05Z</time></trkpt><trkpt lat="43.8499649" lon="10.3704938"><ele>105.0</ele><time>2026-04-12T07:55:21.048Z</time></trkpt><trkpt lat="43.849944" lon="10.370593"><ele>109.66666666666667</ele><time>2026-04-12T07:55:23.05Z</time></trkpt><trkpt lat="43.8499261" lon="10.3707444"><ele>114.33333333333334</ele><time>2026-04-12T07:55:25.049Z</time></trkpt><trkpt lat="43.8499036" lon="10.3708304"><ele>119.0</ele><time>2026-04-12T07:55:26.049Z</time></trkpt><trkpt lat="43.8498735" lon="10.3709237"><ele>123.66666666666667</ele><time>2026-04-12T07:55:27.05Z</time></trkpt><trkpt lat="43.849842" lon="10.3710111"><ele>128.33333333333334</ele><time>2026-04-12T07:55:28.05Z</time></trkpt><trkpt lat="43.8497795" lon="10.3711525"><ele>133.0</ele><time>2026-04-12T07:55:30.051Z</time></trkpt><trkpt lat="43.8496984" lon="10.3712707"><ele>133.0</ele><time>2026-04-12T07:55:32.05Z</time></trkpt><trkpt lat="43.8496458" lon="10.3713267"><ele>133.0</ele><time>2026-04-12T07:55:33.053Z</time></trkpt><trkpt lat="43.8495902" lon="10.3713772"><ele>133.0</ele><time>2026-04-12T07:55:34.048Z</time></trkpt><trkpt lat="43.8495364" lon="10.3714346"><ele>133.0</ele><time>2026-04-12T07:55:35.047Z</time></trkpt><trkpt lat="43.8494913" lon="10.3715044"><ele>133.0</ele><time>2026-04-12T07:55:36.049Z</time></trkpt><trkpt lat="43.8494536" lon="10.3715957"><ele>133.0</ele><time>2026-04-12T07:55:37.048Z</time></trkpt><trkpt lat="43.8494251" lon="10.3717151"><ele>133.0</ele><time>2026-04-12T07:55:38.048Z</time></trkpt><trkpt lat="43.8494017" lon="10.3718394"><ele>132.66666666666669</ele><time>2026-04-12T07:55:39.048Z</time></trkpt><trkpt lat="43.8493816" lon="10.3719588"><ele>132.33333333333334</ele><time>2026-04-12T07:55:40.047Z</time></trkpt><trkpt lat="43.8493594" lon="10.3720754"><ele>132.0</ele><time>2026-04-12T07:55:41.046Z</time></trkpt><trkpt lat="43.8493342" lon="10.3721896"><ele>131.66666666666666</ele><time>2026-04-12T07:55:42.046Z</time></trkpt><trkpt lat="43.8493031" lon="10.3723006"><ele>131.33333333333331</ele><time>2026-04-12T07:55:43.046Z</time></trkpt><trkpt lat="43.8492695" lon="10.3724092"><ele>131.0</ele><time>2026-04-12T07:55:44.046Z</time></trkpt><trkpt lat="43.8492352" lon="10.3725118"><ele>131.0</ele><time>2026-04-12T07:55:45.045Z</time></trkpt><trkpt lat="43.8491944" lon="10.3726044"><ele>131.0</ele><time>2026-04-12T07:55:46.044Z</time></trkpt><trkpt lat="43.8491459" lon="10.3726897"><ele>131.0</ele><time>2026-04-12T07:55:47.046Z</time></trkpt><trkpt lat="43.8490973" lon="10.372773"><ele>131.0</ele><time>2026-04-12T07:55:48.045Z</time></trkpt><trkpt lat="43.8490537" lon="10.3728575"><ele>131.0</ele><time>2026-04-12T07:55:49.045Z</time></trkpt><trkpt lat="43.8490156" lon="10.3729479"><ele>131.0</ele><time>2026-04-12T07:55:50.045Z</time></trkpt><trkpt lat="43.8489831" lon="10.3730416"><ele>133.33333333333331</ele><time>2026-04-12T07:55:51.048Z</time></trkpt><trkpt lat="43.8489539" lon="10.3731422"><ele>135.66666666666666</ele><time>2026-04-12T07:55:52.044Z</time></trkpt><trkpt lat="43.8489231" lon="10.3732459"><ele>138.0</ele><time>2026-04-12T07:55:53.047Z</time></trkpt><trkpt lat="43.8488936" lon="10.3733465"><ele>140.33333333333334</ele><time>2026-04-12T07:55:54.046Z</time></trkpt><trkpt lat="43.8488686" lon="10.3734372"><ele>142.66666666666669</ele><time>2026-04-12T07:55:55.047Z</time></trkpt><trkpt lat="43.8488462" lon="10.3735195"><ele>145.0</ele><time>2026-04-12T07:55:56.045Z</time></trkpt><trkpt lat="43.8488053" lon="10.3736665"><ele>145.0</ele><time>2026-04-12T07:55:58.045Z</time></trkpt><trkpt lat="43.8487445" lon="10.3737342"><ele>145.0</ele><time>2026-04-12T07:56:17.043Z</time></trkpt><trkpt lat="43.8486586" lon="10.3738311"><ele>145.0</ele><time>2026-04-12T07:56:19.044Z</time></trkpt><trkpt lat="43.8485929" lon="10.373976"><ele>145.0</ele><time>2026-04-12T07:56:21.043Z</time></trkpt><trkpt lat="43.8485522" lon="10.3741288"><ele>145.0</ele><time>2026-04-12T07:56:23.044Z</time></trkpt><trkpt lat="43.8485038" lon="10.3742219"><ele>145.2</ele><time>2026-04-12T07:56:25.043Z</time></trkpt><trkpt lat="43.8484096" lon="10.3742014"><ele>145.4</ele><time>2026-04-12T07:56:28.043Z</time></trkpt><trkpt lat="43.8483251" lon="10.3741916"><ele>145.6</ele><time>2026-04-12T07:56:30.044Z</time></trkpt><trkpt lat="43.8482379" lon="10.3742746"><ele>145.8</ele><time>2026-04-12T07:56:32.047Z</time></trkpt><trkpt lat="43.8481632" lon="10.3743912"><ele>146.0</ele><time>2026-04-12T07:56:34.047Z</time></trkpt><trkpt lat="43.8481044" lon="10.3744427"><ele>146.0</ele><time>2026-04-12T07:56:36.046Z</time></trkpt><trkpt lat="43.8480165" lon="10.3743635"><ele>146.0</ele><time>2026-04-12T07:56:38.048Z</time></trkpt><trkpt lat="43.8479702" lon="10.3742922"><ele>146.0</ele><time>2026-04-12T07:56:39.046Z</time></trkpt><trkpt lat="43.8479199" lon="10.3742241"><ele>146.0</ele><time>2026-04-12T07:56:40.044Z</time></trkpt><trkpt lat="43.8478677" lon="10.3741601"><ele>146.0</ele><time>2026-04-12T07:56:41.044Z</time></trkpt><trkpt lat="43.8478106" lon="10.3741022"><ele>146.0</ele><time>2026-04-12T07:56:42.043Z</time></trkpt><trkpt lat="43.8477154" lon="10.3740092"><ele>146.0</ele><time>2026-04-12T07:56:44.043Z</time></trkpt><trkpt lat="43.8476662" lon="10.3738735"><ele>146.0</ele><time>2026-04-12T07:56:46.037Z</time></trkpt><trkpt lat="43.8476392" lon="10.3737851"><ele>146.0</ele><time>2026-04-12T07:56:47.036Z</time></trkpt><trkpt lat="43.8476031" lon="10.373694"><ele>146.0</ele><time>2026-04-12T07:56:48.037Z</time></trkpt><trkpt lat="43.84756" lon="10.3736127"><ele>146.0</ele><time>2026-04-12T07:56:49.042Z</time></trkpt><trkpt lat="43.8475098" lon="10.37354"><ele>146.0</ele><time>2026-04-12T07:56:50.041Z</time></trkpt><trkpt lat="43.8474603" lon="10.3734727"><ele>145.8</ele><time>2026-04-12T07:56:51.039Z</time></trkpt><trkpt lat="43.8473898" lon="10.3733553"><ele>145.6</ele><time>2026-04-12T07:56:53.045Z</time></trkpt><trkpt lat="43.8473504" lon="10.3732252"><ele>145.4</ele><time>2026-04-12T07:56:55.043Z</time></trkpt><trkpt lat="43.8473008" lon="10.3730785"><ele>145.2</ele><time>2026-04-12T07:56:57.043Z</time></trkpt><trkpt lat="43.8472614" lon="10.3729972"><ele>145.0</ele><time>2026-04-12T07:56:58.042Z</time></trkpt><trkpt lat="43.8472164" lon="10.372918"><ele>142.0</ele><time>2026-04-12T07:56:59.044Z</time></trkpt><trkpt lat="43.8471686" lon="10.3728433"><ele>139.0</ele><time>2026-04-12T07:57:00.042Z</time></trkpt><trkpt lat="43.847119" lon="10.3727796"><ele>136.0</ele><time>2026-04-12T07:57:01.044Z</time></trkpt><trkpt lat="43.8470321" lon="10.3726642"><ele>133.0</ele><time>2026-04-12T07:57:03.044Z</time></trkpt><trkpt lat="43.8469951" lon="10.3725132"><ele>130.0</ele><time>2026-04-12T07:57:05.045Z</time></trkpt><trkpt lat="43.8469881" lon="10.3724164"><ele>127.0</ele><time>2026-04-12T07:57:06.045Z</time></trkpt><trkpt lat="43.846998" lon="10.3722617"><ele>125.33333333333334</ele><time>2026-04-12T07:57:07.043Z</time></trkpt><trkpt lat="43.8470122" lon="10.372109"><ele>123.66666666666667</ele><time>2026-04-12T07:57:08.046Z</time></trkpt><trkpt lat="43.8470161" lon="10.3719941"><ele>122.0</ele><time>2026-04-12T07:57:09.045Z</time></trkpt><trkpt lat="43.8470031" lon="10.3719036"><ele>120.33333333333334</ele><time>2026-04-12T07:57:10.045Z</time></trkpt><trkpt lat="43.8469581" lon="10.3717485"><ele>118.66666666666667</ele><time>2026-04-12T07:57:12.044Z</time></trkpt><trkpt lat="43.8469293" lon="10.3716704"><ele>117.0</ele><time>2026-04-12T07:57:13.045Z</time></trkpt><trkpt lat="43.8468973" lon="10.3715947"><ele>117.0</ele><time>2026-04-12T07:57:14.043Z</time></trkpt><trkpt lat="43.8468106" lon="10.3715021"><ele>116.99999999999999</ele><time>2026-04-12T07:57:16.046Z</time></trkpt><trkpt lat="43.8467149" lon="10.3715001"><ele>116.99999999999999</ele><time>2026-04-12T07:57:18.045Z</time></trkpt><trkpt lat="43.8466528" lon="10.3716013"><ele>117.0</ele><time>2026-04-12T07:57:20.046Z</time></trkpt><trkpt lat="43.8466112" lon="10.3716945"><ele>117.0</ele><time>2026-04-12T07:57:22.046Z</time></trkpt><trkpt lat="43.8465669" lon="10.3717709"><ele>121.0</ele><time>2026-04-12T07:57:24.039Z</time></trkpt><trkpt lat="43.8464956" lon="10.3718181"><ele>125.00000000000001</ele><time>2026-04-12T07:57:26.046Z</time></trkpt><trkpt lat="43.8464006" lon="10.3717933"><ele>129.0</ele><time>2026-04-12T07:57:28.046Z</time></trkpt><trkpt lat="43.8463514" lon="10.3717243"><ele>133.0</ele><time>2026-04-12T07:57:29.046Z</time></trkpt><trkpt lat="43.8463013" lon="10.3716592"><ele>137.0</ele><time>2026-04-12T07:57:30.046Z</time></trkpt><trkpt lat="43.8462538" lon="10.3715943"><ele>141.0</ele><time>2026-04-12T07:57:31.047Z</time></trkpt><trkpt lat="43.8462066" lon="10.3715347"><ele>145.0</ele><time>2026-04-12T07:57:32.048Z</time></trkpt><trkpt lat="43.8461255" lon="10.3714289"><ele>145.0</ele><time>2026-04-12T07:57:34.047Z</time></trkpt><trkpt lat="43.8460373" lon="10.3713248"><ele>145.0</ele><time>2026-04-12T07:57:36.046Z</time></trkpt><trkpt lat="43.8459514" lon="10.3712514"><ele>145.0</ele><time>2026-04-12T07:57:38.049Z</time></trkpt><trkpt lat="43.8458686" lon="10.3713044"><ele>145.0</ele><time>2026-04-12T07:57:40.048Z</time></trkpt><trkpt lat="43.8458114" lon="10.3714591"><ele>145.0</ele><time>2026-04-12T07:57:42.049Z</time></trkpt><trkpt lat="43.8457944" lon="10.3715508"><ele>145.0</ele><time>2026-04-12T07:57:43.049Z</time></trkpt><trkpt lat="43.8457824" lon="10.3716424"><ele>145.0</ele><time>2026-04-12T07:57:44.047Z</time></trkpt><trkpt lat="43.8457766" lon="10.371806"><ele>145.0</ele><time>2026-04-12T07:57:46.046Z</time></trkpt><trkpt lat="43.8457491" lon="10.3719464"><ele>145.0</ele><time>2026-04-12T07:57:48.048Z</time></trkpt><trkpt lat="43.8456992" lon="10.372063"><ele>145.0</ele><time>2026-04-12T07:57:50.046Z</time></trkpt><trkpt lat="43.8456729" lon="10.3721564"><ele>148.16666666666669</ele><time>2026-04-12T07:57:52.047Z</time></trkpt><trkpt lat="43.8456964" lon="10.3723054"><ele>151.33333333333334</ele><time>2026-04-12T07:57:54.045Z</time></trkpt><trkpt lat="43.8457187" lon="10.3724582"><ele>154.5</ele><time>2026-04-12T07:57:56.046Z</time></trkpt><trkpt lat="43.8457018" lon="10.3725537"><ele>157.66666666666666</ele><time>2026-04-12T07:57:59.046Z</time></trkpt><trkpt lat="43.8456594" lon="10.3726423"><ele>160.83333333333331</ele><time>2026-04-12T07:58:01.05Z</time></trkpt><trkpt lat="43.8456245" lon="10.3727252"><ele>164.0</ele><time>2026-04-12T07:58:02.05Z</time></trkpt><trkpt lat="43.8455933" lon="10.3728103"><ele>164.0</ele><time>2026-04-12T07:58:03.049Z</time></trkpt><trkpt lat="43.8455634" lon="10.3729606"><ele>164.0</ele><time>2026-04-12T07:58:05.049Z</time></trkpt><trkpt lat="43.8455593" lon="10.3731177"><ele>164.0</ele><time>2026-04-12T07:58:07.046Z</time></trkpt><trkpt lat="43.845533" lon="10.3732264"><ele>164.0</ele><time>2026-04-12T07:58:09.048Z</time></trkpt><trkpt lat="43.8454734" lon="10.3732604"><ele>164.0</ele><time>2026-04-12T07:58:29.045Z</time></trkpt><trkpt lat="43.8453585" lon="10.3732926"><ele>164.5</ele><time>2026-04-12T07:58:31.048Z</time></trkpt><trkpt lat="43.8452916" lon="10.373263"><ele>165.0</ele><time>2026-04-12T07:58:32.047Z</time></trkpt><trkpt lat="43.8452224" lon="10.3732063"><ele>165.5</ele><time>2026-04-12T07:58:33.049Z</time></trkpt><trkpt lat="43.8451514" lon="10.3731479"><ele>166.0</ele><time>2026-04-12T07:58:34.047Z</time></trkpt><trkpt lat="43.8450753" lon="10.3731045"><ele>166.5</ele><time>2026-04-12T07:58:35.047Z</time></trkpt><trkpt lat="43.8449955" lon="10.3730799"><ele>167.0</ele><time>2026-04-12T07:58:36.047Z</time></trkpt><trkpt lat="43.8449207" lon="10.3730665"><ele>167.0</ele><time>2026-04-12T07:58:37.049Z</time></trkpt><trkpt lat="43.8448567" lon="10.3730619"><ele>167.0</ele><time>2026-04-12T07:58:38.048Z</time></trkpt><trkpt lat="43.8447797" lon="10.3730828"><ele>167.0</ele><time>2026-04-12T07:58:40.047Z</time></trkpt><trkpt lat="43.8447417" lon="10.3731532"><ele>167.0</ele><time>2026-04-12T07:58:42.05Z</time></trkpt><trkpt lat="43.8447365" lon="10.3732602"><ele>167.0</ele><time>2026-04-12T07:58:44.048Z</time></trkpt><trkpt lat="43.8447415" lon="10.3734208"><ele>167.0</ele><time>2026-04-12T07:58:46.047Z</time></trkpt><trkpt lat="43.8447324" lon="10.3735079"><ele>167.0</ele><time>2026-04-12T07:58:47.05Z</time></trkpt><trkpt lat="43.844721" lon="10.3736017"><ele>167.0</ele><time>2026-04-12T07:58:48.046Z</time></trkpt><trkpt lat="43.8447101" lon="10.3737055"><ele>167.0</ele><time>2026-04-12T07:58:49.048Z</time></trkpt><trkpt lat="43.8446935" lon="10.3738167"><ele>167.0</ele><time>2026-04-12T07:58:50.049Z</time></trkpt><trkpt lat="43.8446673" lon="10.3739415"><ele>167.0</ele><time>2026-04-12T07:58:51.047Z</time></trkpt><trkpt lat="43.8446368" lon="10.3740708"><ele>167.0</ele><time>2026-04-12T07:58:52.049Z</time></trkpt><trkpt lat="43.8446088" lon="10.3741946"><ele>171.0</ele><time>2026-04-12T07:58:53.05Z</time></trkpt><trkpt lat="43.8445901" lon="10.3743006"><ele>175.0</ele><time>2026-04-12T07:58:54.049Z</time></trkpt><trkpt lat="43.8445852" lon="10.3744478"><ele>179.0</ele><time>2026-04-12T07:58:56.049Z</time></trkpt><trkpt lat="43.8446165" lon="10.3745497"><ele>183.0</ele><time>2026-04-12T07:58:58.045Z</time></trkpt><trkpt lat="43.8454734" lon="10.3732604"><ele>183.0</ele><time>2026-04-12T07:58:29.045Z</time></trkpt><trkpt lat="43.8453585" lon="10.3732926"><ele>183.0</ele><time>2026-04-12T07:58:31.048Z</time></trkpt><trkpt lat="43.8452916" lon="10.373263"><ele>183.0</ele><time>2026-04-12T07:58:32.047Z</time></trkpt><trkpt lat="43.8452224" lon="10.3732063"><ele>183.0</ele><time>2026-04-12T07:58:33.049Z</time></trkpt><trkpt lat="43.8451514" lon="10.3731479"><ele>183.0</ele><time>2026-04-12T07:58:34.047Z</time></trkpt><trkpt lat="43.8450753" lon="10.3731045"><ele>183.0</ele><time>2026-04-12T07:58:35.047Z</time></trkpt><trkpt lat="43.8449955" lon="10.3730799"><ele>180.33333333333334</ele><time>2026-04-12T07:58:36.047Z</time></trkpt><trkpt lat="43.8449207" lon="10.3730665"><ele>177.66666666666666</ele><time>2026-04-12T07:58:37.049Z</time></trkpt><trkpt lat="43.8448567" lon="10.3730619"><ele>175.0</ele><time>2026-04-12T07:58:38.048Z</time></trkpt><trkpt lat="43.8447797" lon="10.3730828"><ele>172.33333333333331</ele><time>2026-04-12T07:58:40.047Z</time></trkpt><trkpt lat="43.8447417" lon="10.3731532"><ele>169.66666666666666</ele><time>2026-04-12T07:58:42.05Z</time></trkpt><trkpt lat="43.8447365" lon="10.3732602"><ele>167.0</ele><time>2026-04-12T07:58:44.048Z</time></trkpt><trkpt lat="43.8447415" lon="10.3734208"><ele>167.0</ele><time>2026-04-12T07:58:46.047Z</time></trkpt><trkpt lat="43.8447324" lon="10.3735079"><ele>167.0</ele><time>2026-04-12T07:58:47.05Z</time></trkpt><trkpt lat="43.844721" lon="10.3736017"><ele>167.0</ele><time>2026-04-12T07:58:48.046Z</time></trkpt><trkpt lat="43.8447101" lon="10.3737055"><ele>167.0</ele><time>2026-04-12T07:58:49.048Z</time></trkpt><trkpt lat="43.8446935" lon="10.3738167"><ele>167.0</ele><time>2026-04-12T07:58:50.049Z</time></trkpt><trkpt lat="43.8446673" lon="10.3739415"><ele>167.0</ele><time>2026-04-12T07:58:51.047Z</time></trkpt><trkpt lat="43.8446368" lon="10.3740708"><ele>170.2</ele><time>2026-04-12T07:58:52.049Z</time></trkpt><trkpt lat="43.8446088" lon="10.3741946"><ele>173.39999999999998</ele><time>2026-04-12T07:58:53.05Z</time></trkpt><trkpt lat="43.8445901" lon="10.3743006"><ele>176.60000000000002</ele><time>2026-04-12T07:58:54.049Z</time></trkpt><trkpt lat="43.8445852" lon="10.3744478"><ele>179.8</ele><time>2026-04-12T07:58:56.049Z</time></trkpt><trkpt lat="43.8446165" lon="10.3745497"><ele>183.0</ele><time>2026-04-12T07:58:58.045Z</time></trkpt><trkpt lat="43.8446745" lon="10.3746646"><ele>185.2</ele><time>2026-04-12T07:59:00.051Z</time></trkpt><trkpt lat="43.8447117" lon="10.374815"><ele>187.4</ele><time>2026-04-12T07:59:02.052Z</time></trkpt><trkpt lat="43.8447111" lon="10.3749521"><ele>189.6</ele><time>2026-04-12T07:59:04.052Z</time></trkpt><trkpt lat="43.8446511" lon="10.3750538"><ele>191.79999999999998</ele><time>2026-04-12T07:59:06.05Z</time></trkpt><trkpt lat="43.844545" lon="10.3751134"><ele>194.0</ele><time>2026-04-12T07:59:08.05Z</time></trkpt><trkpt lat="43.8444798" lon="10.375124"><ele>194.0</ele><time>2026-04-12T07:59:09.044Z</time></trkpt><trkpt lat="43.8444114" lon="10.3751323"><ele>194.0</ele><time>2026-04-12T07:59:10.05Z</time></trkpt><trkpt lat="43.844349" lon="10.3751499"><ele>194.0</ele><time>2026-04-12T07:59:11.046Z</time></trkpt><trkpt lat="43.8442522" lon="10.3752471"><ele>194.0</ele><time>2026-04-12T07:59:13.049Z</time></trkpt><trkpt lat="43.8442286" lon="10.3753995"><ele>194.0</ele><time>2026-04-12T07:59:15.048Z</time></trkpt><trkpt lat="43.8443053" lon="10.3755273"><ele>194.0</ele><time>2026-04-12T07:59:17.051Z</time></trkpt><trkpt lat="43.8443949" lon="10.3755894"><ele>194.0</ele><time>2026-04-12T07:59:19.053Z</time></trkpt><trkpt lat="43.8444877" lon="10.3755691"><ele>194.0</ele><time>2026-04-12T07:59:21.05Z</time></trkpt><trkpt lat="43.8445757" lon="10.3754871"><ele>194.0</ele><time>2026-04-12T07:59:23.05Z</time></trkpt><trkpt lat="43.8446774" lon="10.3754258"><ele>194.0</ele><time>2026-04-12T07:59:25.051Z</time></trkpt><trkpt lat="43.8447696" lon="10.3754098"><ele>194.0</ele><time>2026-04-12T07:59:27.052Z</time></trkpt><trkpt lat="43.844841" lon="10.3754701"><ele>194.0</ele><time>2026-04-12T07:59:29.051Z</time></trkpt><trkpt lat="43.8449084" lon="10.3756177"><ele>194.0</ele><time>2026-04-12T07:59:31.052Z</time></trkpt><trkpt lat="43.8449605" lon="10.3757018"><ele>194.0</ele><time>2026-04-12T07:59:32.051Z</time></trkpt><trkpt lat="43.8450103" lon="10.3757606"><ele>194.0</ele><time>2026-04-12T07:59:33.05Z</time></trkpt><trkpt lat="43.8451171" lon="10.3758077"><ele>199.16666666666669</ele><time>2026-04-12T07:59:35.053Z</time></trkpt><trkpt lat="43.8451894" lon="10.3758237"><ele>204.33333333333334</ele><time>2026-04-12T07:59:36.053Z</time></trkpt><trkpt lat="43.8452561" lon="10.375842"><ele>209.5</ele><time>2026-04-12T07:59:37.051Z</time></trkpt><trkpt lat="43.8453232" lon="10.375865"><ele>214.66666666666669</ele><time>2026-04-12T07:59:38.051Z</time></trkpt><trkpt lat="43.8454179" lon="10.3759122"><ele>219.83333333333334</ele><time>2026-04-12T07:59:40.052Z</time></trkpt><trkpt lat="43.8453881" lon="10.3757923"><ele>225.0</ele><time>2026-04-12T07:59:45.05Z</time></trkpt><trkpt lat="43.8453177" lon="10.3756594"><ele>225.00000000000003</ele><time>2026-04-12T07:59:47.05Z</time></trkpt><trkpt lat="43.8452941" lon="10.3755274"><ele>225.0</ele><time>2026-04-12T07:59:49.051Z</time></trkpt><trkpt lat="43.8453207" lon="10.3754413"><ele>225.00000000000003</ele><time>2026-04-12T08:00:00.051Z</time></trkpt><trkpt lat="43.845397" lon="10.3754416"><ele>225.00000000000003</ele><time>2026-04-12T08:00:03.047Z</time></trkpt><trkpt lat="43.8454248" lon="10.3755225"><ele>225.0</ele><time>2026-04-12T08:00:05.048Z</time></trkpt><trkpt lat="43.8454902" lon="10.3755137"><ele>225.00000000000003</ele><time>2026-04-12T08:00:09.05Z</time></trkpt><trkpt lat="43.8455046" lon="10.3754188"><ele>225.00000000000003</ele><time>2026-04-12T08:00:11.05Z</time></trkpt><trkpt lat="43.8455615" lon="10.375381"><ele>225.0</ele><time>2026-04-12T08:00:13.055Z</time></trkpt><trkpt lat="43.8456754" lon="10.3754853"><ele>225.0</ele><time>2026-04-12T08:00:15.05Z</time></trkpt><trkpt lat="43.8457292" lon="10.3755653"><ele>225.0</ele><time>2026-04-12T08:00:16.049Z</time></trkpt><trkpt lat="43.8457963" lon="10.3756432"><ele>225.0</ele><time>2026-04-12T08:00:17.05Z</time></trkpt><trkpt lat="43.8458708" lon="10.3757233"><ele>225.0</ele><time>2026-04-12T08:00:18.05Z</time></trkpt><trkpt lat="43.845945" lon="10.3757954"><ele>227.0</ele><time>2026-04-12T08:00:19.053Z</time></trkpt><trkpt lat="43.8460108" lon="10.3758452"><ele>229.0</ele><time>2026-04-12T08:00:20.051Z</time></trkpt><trkpt lat="43.8460762" lon="10.3758784"><ele>231.0</ele><time>2026-04-12T08:00:21.05Z</time></trkpt><trkpt lat="43.8461415" lon="10.3758998"><ele>233.0</ele><time>2026-04-12T08:00:22.051Z</time></trkpt><trkpt lat="43.8462701" lon="10.3759145"><ele>235.0</ele><time>2026-04-12T08:00:24.053Z</time></trkpt><trkpt lat="43.8463468" lon="10.3759219"><ele>237.0</ele><time>2026-04-12T08:00:25.05Z</time></trkpt><trkpt lat="43.8464297" lon="10.3759164"><ele>237.0</ele><time>2026-04-12T08:00:26.049Z</time></trkpt><trkpt lat="43.8465201" lon="10.3759076"><ele>237.0</ele><time>2026-04-12T08:00:27.049Z</time></trkpt><trkpt lat="43.8466082" lon="10.3759037"><ele>237.0</ele><time>2026-04-12T08:00:28.049Z</time></trkpt><trkpt lat="43.8466841" lon="10.3759078"><ele>237.0</ele><time>2026-04-12T08:00:29.053Z</time></trkpt><trkpt lat="43.8467503" lon="10.3759169"><ele>237.0</ele><time>2026-04-12T08:00:30.054Z</time></trkpt><trkpt lat="43.8468175" lon="10.3759506"><ele>237.0</ele><time>2026-04-12T08:00:31.048Z</time></trkpt><trkpt lat="43.8468772" lon="10.3759875"><ele>235.0</ele><time>2026-04-12T08:00:32.05Z</time></trkpt><trkpt lat="43.8469678" lon="10.3760698"><ele>233.0</ele><time>2026-04-12T08:00:34.051Z</time></trkpt><trkpt lat="43.8470051" lon="10.3761481"><ele>231.0</ele><time>2026-04-12T08:00:38.049Z</time></trkpt><trkpt lat="43.8470604" lon="10.3761933"><ele>229.0</ele><time>2026-04-12T08:09:41.06Z</time></trkpt><trkpt lat="43.8471383" lon="10.3762164"><ele>227.0</ele><time>2026-04-12T08:09:43.062Z</time></trkpt><trkpt lat="43.8472659" lon="10.3762307"><ele>225.0</ele><time>2026-04-12T08:09:45.055Z</time></trkpt><trkpt lat="43.8473396" lon="10.3762444"><ele>225.0</ele><time>2026-04-12T08:09:46.069Z</time></trkpt><trkpt lat="43.847413" lon="10.376264"><ele>225.0</ele><time>2026-04-12T08:09:47.069Z</time></trkpt><trkpt lat="43.8474929" lon="10.3762971"><ele>225.0</ele><time>2026-04-12T08:09:48.072Z</time></trkpt><trkpt lat="43.8475844" lon="10.3763352"><ele>225.0</ele><time>2026-04-12T08:09:49.074Z</time></trkpt><trkpt lat="43.8476821" lon="10.3763686"><ele>225.0</ele><time>2026-04-12T08:09:50.07Z</time></trkpt><trkpt lat="43.8477738" lon="10.3763882"><ele>225.0</ele><time>2026-04-12T08:09:51.067Z</time></trkpt><trkpt lat="43.8478611" lon="10.3763996"><ele>227.83333333333334</ele><time>2026-04-12T08:09:52.068Z</time></trkpt><trkpt lat="43.8479428" lon="10.3764148"><ele>230.66666666666669</ele><time>2026-04-12T08:09:53.071Z</time></trkpt><trkpt lat="43.8480229" lon="10.3764374"><ele>233.5</ele><time>2026-04-12T08:09:54.068Z</time></trkpt><trkpt lat="43.8480978" lon="10.3764723"><ele>236.33333333333334</ele><time>2026-04-12T08:09:55.069Z</time></trkpt><trkpt lat="43.8481598" lon="10.3765212"><ele>239.16666666666669</ele><time>2026-04-12T08:09:56.069Z</time></trkpt><trkpt lat="43.8482489" lon="10.3765964"><ele>242.0</ele><time>2026-04-12T08:09:58.072Z</time></trkpt><trkpt lat="43.8483428" lon="10.376538"><ele>242.0</ele><time>2026-04-12T08:10:00.061Z</time></trkpt><trkpt lat="43.8484057" lon="10.3764791"><ele>242.0</ele><time>2026-04-12T08:10:01.061Z</time></trkpt><trkpt lat="43.8484878" lon="10.3764464"><ele>242.0</ele><time>2026-04-12T08:10:02.066Z</time></trkpt><trkpt lat="43.8485866" lon="10.3764174"><ele>242.0</ele><time>2026-04-12T08:10:03.067Z</time></trkpt><trkpt lat="43.8486919" lon="10.3764013"><ele>242.0</ele><time>2026-04-12T08:10:04.064Z</time></trkpt><trkpt lat="43.8488022" lon="10.3763996"><ele>239.0</ele><time>2026-04-12T08:10:05.064Z</time></trkpt><trkpt lat="43.8489085" lon="10.3764018"><ele>236.0</ele><time>2026-04-12T08:10:06.067Z</time></trkpt><trkpt lat="43.8489984" lon="10.3764117"><ele>233.0</ele><time>2026-04-12T08:10:07.069Z</time></trkpt><trkpt lat="43.849072" lon="10.3764134"><ele>230.0</ele><time>2026-04-12T08:10:08.066Z</time></trkpt><trkpt lat="43.8491685" lon="10.3764412"><ele>227.0</ele><time>2026-04-12T08:10:10.068Z</time></trkpt><trkpt lat="43.8492077" lon="10.3765502"><ele>227.00000000000003</ele><time>2026-04-12T08:10:12.073Z</time></trkpt><trkpt lat="43.8492094" lon="10.3766401"><ele>227.0</ele><time>2026-04-12T08:10:13.075Z</time></trkpt><trkpt lat="43.8491982" lon="10.3767504"><ele>227.0</ele><time>2026-04-12T08:10:14.074Z</time></trkpt><trkpt lat="43.8491729" lon="10.3768676"><ele>227.0</ele><time>2026-04-12T08:10:15.071Z</time></trkpt><trkpt lat="43.8491351" lon="10.3769751"><ele>227.00000000000003</ele><time>2026-04-12T08:10:16.071Z</time></trkpt><trkpt lat="43.8490884" lon="10.3770649"><ele>227.0</ele><time>2026-04-12T08:10:17.073Z</time></trkpt><trkpt lat="43.8490354" lon="10.3771407"><ele>227.83333333333334</ele><time>2026-04-12T08:10:18.072Z</time></trkpt><trkpt lat="43.8489809" lon="10.3772122"><ele>228.66666666666669</ele><time>2026-04-12T08:10:19.071Z</time></trkpt><trkpt lat="43.8489327" lon="10.3772927"><ele>229.5</ele><time>2026-04-12T08:10:20.071Z</time></trkpt><trkpt lat="43.8488972" lon="10.3773784"><ele>230.33333333333331</ele><time>2026-04-12T08:10:21.071Z</time></trkpt><trkpt lat="43.8488677" lon="10.3774626"><ele>231.16666666666666</ele><time>2026-04-12T08:10:22.069Z</time></trkpt><trkpt lat="43.8488819" lon="10.3776165"><ele>232.0</ele><time>2026-04-12T08:10:24.078Z</time></trkpt><trkpt lat="43.8489333" lon="10.3776738"><ele>231.99999999999997</ele><time>2026-04-12T08:10:25.074Z</time></trkpt><trkpt lat="43.8490102" lon="10.3777201"><ele>232.0</ele><time>2026-04-12T08:10:26.071Z</time></trkpt><trkpt lat="43.8490983" lon="10.3777629"><ele>232.0</ele><time>2026-04-12T08:10:27.069Z</time></trkpt><trkpt lat="43.8491714" lon="10.3778011"><ele>232.0</ele><time>2026-04-12T08:10:28.071Z</time></trkpt><trkpt lat="43.8492305" lon="10.3778482"><ele>231.99999999999997</ele><time>2026-04-12T08:10:29.073Z</time></trkpt><trkpt lat="43.8492971" lon="10.3779732"><ele>232.0</ele><time>2026-04-12T08:10:31.07Z</time></trkpt><trkpt lat="43.8492961" lon="10.378146"><ele>233.0</ele><time>2026-04-12T08:10:33.064Z</time></trkpt><trkpt lat="43.8492829" lon="10.3782588"><ele>234.0</ele><time>2026-04-12T08:10:34.065Z</time></trkpt><trkpt lat="43.849261" lon="10.3783858"><ele>235.0</ele><time>2026-04-12T08:10:35.064Z</time></trkpt><trkpt lat="43.8492207" lon="10.3785249"><ele>236.0</ele><time>2026-04-12T08:10:36.061Z</time></trkpt><trkpt lat="43.8491653" lon="10.3786625"><ele>237.0</ele><time>2026-04-12T08:10:37.067Z</time></trkpt><trkpt lat="43.8490979" lon="10.3787899"><ele>236.0</ele><time>2026-04-12T08:10:38.071Z</time></trkpt><trkpt lat="43.8490219" lon="10.3789135"><ele>235.0</ele><time>2026-04-12T08:10:39.073Z</time></trkpt><trkpt lat="43.848953" lon="10.3790231"><ele>234.0</ele><time>2026-04-12T08:10:40.069Z</time></trkpt><trkpt lat="43.8488981" lon="10.3791185"><ele>233.0</ele><time>2026-04-12T08:10:41.063Z</time></trkpt><trkpt lat="43.8488623" lon="10.3792157"><ele>232.0</ele><time>2026-04-12T08:10:42.07Z</time></trkpt><trkpt lat="43.8488599" lon="10.3793142"><ele>231.99999999999997</ele><time>2026-04-12T08:10:43.058Z</time></trkpt><trkpt lat="43.84889" lon="10.3794131"><ele>232.0</ele><time>2026-04-12T08:10:44.058Z</time></trkpt><trkpt lat="43.8489334" lon="10.3795113"><ele>232.0</ele><time>2026-04-12T08:10:45.058Z</time></trkpt><trkpt lat="43.8489686" lon="10.3796152"><ele>232.0</ele><time>2026-04-12T08:10:46.058Z</time></trkpt><trkpt lat="43.8489779" lon="10.3797414"><ele>231.99999999999997</ele><time>2026-04-12T08:10:47.057Z</time></trkpt><trkpt lat="43.848959" lon="10.3798747"><ele>232.0</ele><time>2026-04-12T08:10:48.055Z</time></trkpt><trkpt lat="43.8489166" lon="10.3800087"><ele>231.83333333333331</ele><time>2026-04-12T08:10:49.058Z</time></trkpt><trkpt lat="43.8488736" lon="10.3801283"><ele>231.66666666666666</ele><time>2026-04-12T08:10:50.057Z</time></trkpt><trkpt lat="43.8488234" lon="10.3802218"><ele>231.5</ele><time>2026-04-12T08:10:51.056Z</time></trkpt><trkpt lat="43.848751" lon="10.3802851"><ele>231.33333333333331</ele><time>2026-04-12T08:10:52.057Z</time></trkpt><trkpt lat="43.8486636" lon="10.3803147"><ele>231.16666666666666</ele><time>2026-04-12T08:10:53.058Z</time></trkpt><trkpt lat="43.8485835" lon="10.3803167"><ele>231.0</ele><time>2026-04-12T08:10:54.057Z</time></trkpt><trkpt lat="43.848519" lon="10.3803377"><ele>230.20000000000002</ele><time>2026-04-12T08:10:55.06Z</time></trkpt><trkpt lat="43.8484539" lon="10.3804457"><ele>229.40000000000003</ele><time>2026-04-12T08:10:57.061Z</time></trkpt><trkpt lat="43.8484605" lon="10.3805501"><ele>228.6</ele><time>2026-04-12T08:10:58.058Z</time></trkpt><trkpt lat="43.8484853" lon="10.3806892"><ele>227.8</ele><time>2026-04-12T08:10:59.058Z</time></trkpt><trkpt lat="43.8485051" lon="10.3808328"><ele>227.0</ele><time>2026-04-12T08:11:00.059Z</time></trkpt><trkpt lat="43.8485003" lon="10.3809616"><ele>227.00000000000003</ele><time>2026-04-12T08:11:01.056Z</time></trkpt><trkpt lat="43.8484737" lon="10.3810629"><ele>227.0</ele><time>2026-04-12T08:11:02.056Z</time></trkpt><trkpt lat="43.8484235" lon="10.3811433"><ele>227.0</ele><time>2026-04-12T08:11:03.057Z</time></trkpt><trkpt lat="43.8483505" lon="10.381189"><ele>227.0</ele><time>2026-04-12T08:11:04.055Z</time></trkpt><trkpt lat="43.8482646" lon="10.3812052"><ele>227.00000000000003</ele><time>2026-04-12T08:11:05.055Z</time></trkpt><trkpt lat="43.848172" lon="10.3812079"><ele>227.0</ele><time>2026-04-12T08:11:06.056Z</time></trkpt><trkpt lat="43.8480889" lon="10.3812196"><ele>231.33333333333334</ele><time>2026-04-12T08:11:07.055Z</time></trkpt><trkpt lat="43.8480265" lon="10.3812655"><ele>235.66666666666669</ele><time>2026-04-12T08:11:08.057Z</time></trkpt><trkpt lat="43.8479903" lon="10.3813554"><ele>240.0</ele><time>2026-04-12T08:11:09.057Z</time></trkpt><trkpt lat="43.8479754" lon="10.3814723"><ele>244.33333333333331</ele><time>2026-04-12T08:11:10.055Z</time></trkpt><trkpt lat="43.8479685" lon="10.3816107"><ele>248.66666666666666</ele><time>2026-04-12T08:11:11.059Z</time></trkpt><trkpt lat="43.8479537" lon="10.3817455"><ele>253.0</ele><time>2026-04-12T08:11:12.058Z</time></trkpt><trkpt lat="43.8479452" lon="10.3818796"><ele>253.0</ele><time>2026-04-12T08:11:13.06Z</time></trkpt><trkpt lat="43.847959" lon="10.3820139"><ele>253.0</ele><time>2026-04-12T08:11:14.058Z</time></trkpt><trkpt lat="43.847984" lon="10.3821381"><ele>253.0</ele><time>2026-04-12T08:11:15.057Z</time></trkpt><trkpt lat="43.8480097" lon="10.3822452"><ele>253.0</ele><time>2026-04-12T08:11:16.06Z</time></trkpt><trkpt lat="43.8480265" lon="10.3823791"><ele>253.0</ele><time>2026-04-12T08:11:18.058Z</time></trkpt><trkpt lat="43.8479359" lon="10.3822808"><ele>252.99999999999997</ele><time>2026-04-12T08:11:21.057Z</time></trkpt><trkpt lat="43.8479042" lon="10.3821769"><ele>253.0</ele><time>2026-04-12T08:11:22.053Z</time></trkpt><trkpt lat="43.8478644" lon="10.3820988"><ele>253.0</ele><time>2026-04-12T08:11:23.059Z</time></trkpt><trkpt lat="43.8477967" lon="10.3821044"><ele>253.0</ele><time>2026-04-12T08:11:25.057Z</time></trkpt><trkpt lat="43.847796" lon="10.3821986"><ele>252.99999999999997</ele><time>2026-04-12T08:11:26.058Z</time></trkpt><trkpt lat="43.8478332" lon="10.3823617"><ele>253.0</ele><time>2026-04-12T08:11:27.058Z</time></trkpt><trkpt lat="43.847887" lon="10.3825485"><ele>253.75</ele><time>2026-04-12T08:11:28.059Z</time></trkpt><trkpt lat="43.8479339" lon="10.3827197"><ele>254.5</ele><time>2026-04-12T08:11:29.061Z</time></trkpt><trkpt lat="43.8479763" lon="10.3828853"><ele>255.25</ele><time>2026-04-12T08:11:30.058Z</time></trkpt><trkpt lat="43.8480151" lon="10.3830353"><ele>256.0</ele><time>2026-04-12T08:11:31.055Z</time></trkpt><trkpt lat="43.8480483" lon="10.3831713"><ele>256.66666666666663</ele><time>2026-04-12T08:11:32.057Z</time></trkpt><trkpt lat="43.8480727" lon="10.3832781"><ele>257.3333333333333</ele><time>2026-04-12T08:11:33.056Z</time></trkpt><trkpt lat="43.848087" lon="10.3833731"><ele>258.0</ele><time>2026-04-12T08:11:34.056Z</time></trkpt><trkpt lat="43.8480877" lon="10.3834619"><ele>258.6666666666667</ele><time>2026-04-12T08:11:35.055Z</time></trkpt><trkpt lat="43.8480292" lon="10.3836308"><ele>259.33333333333337</ele><time>2026-04-12T08:11:37.053Z</time></trkpt><trkpt lat="43.847978" lon="10.3837247"><ele>260.0</ele><time>2026-04-12T08:11:38.055Z</time></trkpt><trkpt lat="43.8479199" lon="10.3838282"><ele>258.8</ele><time>2026-04-12T08:11:39.056Z</time></trkpt><trkpt lat="43.8478696" lon="10.3839421"><ele>257.6</ele><time>2026-04-12T08:11:40.056Z</time></trkpt><trkpt lat="43.8478368" lon="10.3840735"><ele>256.4</ele><time>2026-04-12T08:11:41.057Z</time></trkpt><trkpt lat="43.8478163" lon="10.3842022"><ele>255.2</ele><time>2026-04-12T08:11:42.058Z</time></trkpt><trkpt lat="43.8478011" lon="10.3843276"><ele>254.0</ele><time>2026-04-12T08:11:43.061Z</time></trkpt><trkpt lat="43.8477847" lon="10.38442"><ele>254.00000000000003</ele><time>2026-04-12T08:11:44.058Z</time></trkpt><trkpt lat="43.8477147" lon="10.3844914"><ele>254.0</ele><time>2026-04-12T08:11:46.057Z</time></trkpt><trkpt lat="43.8475961" lon="10.3844296"><ele>254.0</ele><time>2026-04-12T08:11:48.057Z</time></trkpt><trkpt lat="43.8475289" lon="10.3843851"><ele>254.0</ele><time>2026-04-12T08:11:49.062Z</time></trkpt><trkpt lat="43.8474579" lon="10.38435"><ele>254.00000000000003</ele><time>2026-04-12T08:11:50.061Z</time></trkpt><trkpt lat="43.847387" lon="10.3843332"><ele>254.0</ele><time>2026-04-12T08:11:51.057Z</time></trkpt><trkpt lat="43.8473119" lon="10.3843446"><ele>256.6666666666667</ele><time>2026-04-12T08:11:52.057Z</time></trkpt><trkpt lat="43.8472358" lon="10.3843872"><ele>259.33333333333337</ele><time>2026-04-12T08:11:53.058Z</time></trkpt><trkpt lat="43.8471611" lon="10.3844424"><ele>262.0</ele><time>2026-04-12T08:11:54.06Z</time></trkpt><trkpt lat="43.8470878" lon="10.3844993"><ele>264.6666666666667</ele><time>2026-04-12T08:11:55.058Z</time></trkpt><trkpt lat="43.8470184" lon="10.3845467"><ele>267.3333333333333</ele><time>2026-04-12T08:11:56.057Z</time></trkpt><trkpt lat="43.8469445" lon="10.3845946"><ele>270.0</ele><time>2026-04-12T08:11:57.056Z</time></trkpt><trkpt lat="43.846869" lon="10.3846414"><ele>271.8</ele><time>2026-04-12T08:11:58.056Z</time></trkpt><trkpt lat="43.8467914" lon="10.3846903"><ele>273.6</ele><time>2026-04-12T08:11:59.058Z</time></trkpt><trkpt lat="43.8467034" lon="10.384739"><ele>275.4</ele><time>2026-04-12T08:12:00.057Z</time></trkpt><trkpt lat="43.8466093" lon="10.3847885"><ele>277.2</ele><time>2026-04-12T08:12:01.052Z</time></trkpt><trkpt lat="43.8465184" lon="10.3848322"><ele>279.0</ele><time>2026-04-12T08:12:02.051Z</time></trkpt><trkpt lat="43.8464329" lon="10.3848746"><ele>279.0</ele><time>2026-04-12T08:12:03.054Z</time></trkpt><trkpt lat="43.8463506" lon="10.384916"><ele>279.0</ele><time>2026-04-12T08:12:04.052Z</time></trkpt><trkpt lat="43.8462671" lon="10.3849611"><ele>279.0</ele><time>2026-04-12T08:12:05.052Z</time></trkpt><trkpt lat="43.8461814" lon="10.3850155"><ele>279.0</ele><time>2026-04-12T08:12:06.051Z</time></trkpt><trkpt lat="43.8460979" lon="10.385084"><ele>279.0</ele><time>2026-04-12T08:12:07.05Z</time></trkpt><trkpt lat="43.8460214" lon="10.3851624"><ele>278.0</ele><time>2026-04-12T08:12:08.052Z</time></trkpt><trkpt lat="43.8459516" lon="10.3852421"><ele>277.0</ele><time>2026-04-12T08:12:09.053Z</time></trkpt><trkpt lat="43.8458888" lon="10.3853118"><ele>276.0</ele><time>2026-04-12T08:12:10.053Z</time></trkpt><trkpt lat="43.8458373" lon="10.385383"><ele>275.0</ele><time>2026-04-12T08:12:11.053Z</time></trkpt><trkpt lat="43.8457884" lon="10.3854533"><ele>274.0</ele><time>2026-04-12T08:12:12.053Z</time></trkpt><trkpt lat="43.8457418" lon="10.3855235"><ele>273.0</ele><time>2026-04-12T08:12:13.06Z</time></trkpt><trkpt lat="43.8456899" lon="10.3855924"><ele>273.0</ele><time>2026-04-12T08:12:14.055Z</time></trkpt><trkpt lat="43.8456384" lon="10.3856628"><ele>273.0</ele><time>2026-04-12T08:12:15.057Z</time></trkpt><trkpt lat="43.845587" lon="10.3857352"><ele>273.0</ele><time>2026-04-12T08:12:16.056Z</time></trkpt><trkpt lat="43.8455351" lon="10.3858012"><ele>273.0</ele><time>2026-04-12T08:12:17.058Z</time></trkpt><trkpt lat="43.845483" lon="10.3858671"><ele>273.0</ele><time>2026-04-12T08:12:18.055Z</time></trkpt><trkpt lat="43.8454277" lon="10.3859366"><ele>273.0</ele><time>2026-04-12T08:12:19.056Z</time></trkpt><trkpt lat="43.8453713" lon="10.386013"><ele>273.0</ele><time>2026-04-12T08:12:20.055Z</time></trkpt><trkpt lat="43.8453064" lon="10.3860934"><ele>273.0</ele><time>2026-04-12T08:12:21.053Z</time></trkpt><trkpt lat="43.8452359" lon="10.3861969"><ele>273.0</ele><time>2026-04-12T08:12:22.053Z</time></trkpt><trkpt lat="43.8451697" lon="10.3863233"><ele>273.0</ele><time>2026-04-12T08:12:23.055Z</time></trkpt><trkpt lat="43.8451086" lon="10.3864492"><ele>273.0</ele><time>2026-04-12T08:12:24.054Z</time></trkpt><trkpt lat="43.8450541" lon="10.3865634"><ele>273.0</ele><time>2026-04-12T08:12:25.055Z</time></trkpt><trkpt lat="43.8450095" lon="10.386674"><ele>273.0</ele><time>2026-04-12T08:12:26.055Z</time></trkpt><trkpt lat="43.8449709" lon="10.3867885"><ele>273.0</ele><time>2026-04-12T08:12:27.056Z</time></trkpt><trkpt lat="43.8449391" lon="10.3869116"><ele>273.0</ele><time>2026-04-12T08:12:28.054Z</time></trkpt><trkpt lat="43.8449114" lon="10.3870349"><ele>273.0</ele><time>2026-04-12T08:12:29.054Z</time></trkpt><trkpt lat="43.8448841" lon="10.3871575"><ele>273.0</ele><time>2026-04-12T08:12:30.054Z</time></trkpt><trkpt lat="43.8448654" lon="10.3872736"><ele>273.0</ele><time>2026-04-12T08:12:31.053Z</time></trkpt><trkpt lat="43.8448577" lon="10.3873852"><ele>273.0</ele><time>2026-04-12T08:12:32.052Z</time></trkpt><trkpt lat="43.8448596" lon="10.3874966"><ele>273.0</ele><time>2026-04-12T08:12:33.056Z</time></trkpt><trkpt lat="43.8448633" lon="10.3876016"><ele>273.0</ele><time>2026-04-12T08:12:34.054Z</time></trkpt><trkpt lat="43.8448639" lon="10.3876937"><ele>273.0</ele><time>2026-04-12T08:12:35.055Z</time></trkpt><trkpt lat="43.8448589" lon="10.3877813"><ele>273.0</ele><time>2026-04-12T08:12:36.054Z</time></trkpt><trkpt lat="43.8448061" lon="10.3878994"><ele>273.0</ele><time>2026-04-12T08:12:38.058Z</time></trkpt><trkpt lat="43.8446939" lon="10.3878851"><ele>273.0</ele><time>2026-04-12T08:12:40.057Z</time></trkpt><trkpt lat="43.8445914" lon="10.3878111"><ele>273.0</ele><time>2026-04-12T08:12:42.061Z</time></trkpt><trkpt lat="43.8445296" lon="10.3877914"><ele>273.0</ele><time>2026-04-12T08:12:43.062Z</time></trkpt><trkpt lat="43.844407" lon="10.387826"><ele>273.0</ele><time>2026-04-12T08:12:45.057Z</time></trkpt><trkpt lat="43.8443467" lon="10.387867"><ele>271.4</ele><time>2026-04-12T08:12:46.056Z</time></trkpt><trkpt lat="43.8442868" lon="10.3879038"><ele>269.8</ele><time>2026-04-12T08:12:47.058Z</time></trkpt><trkpt lat="43.8441864" lon="10.3879496"><ele>268.2</ele><time>2026-04-12T08:12:49.061Z</time></trkpt><trkpt lat="43.8441432" lon="10.3880363"><ele>266.6</ele><time>2026-04-12T08:12:51.058Z</time></trkpt><trkpt lat="43.8441404" lon="10.3882219"><ele>265.0</ele><time>2026-04-12T08:12:53.062Z</time></trkpt><trkpt lat="43.8441443" lon="10.3883352"><ele>265.0</ele><time>2026-04-12T08:12:54.06Z</time></trkpt><trkpt lat="43.8441497" lon="10.3884471"><ele>265.0</ele><time>2026-04-12T08:12:55.059Z</time></trkpt><trkpt lat="43.8441546" lon="10.3885577"><ele>265.0</ele><time>2026-04-12T08:12:56.058Z</time></trkpt><trkpt lat="43.8441589" lon="10.3886618"><ele>265.0</ele><time>2026-04-12T08:12:57.058Z</time></trkpt><trkpt lat="43.8441637" lon="10.3887548"><ele>265.0</ele><time>2026-04-12T08:12:58.06Z</time></trkpt><trkpt lat="43.8441797" lon="10.388916"><ele>265.0</ele><time>2026-04-12T08:13:00.067Z</time></trkpt><trkpt lat="43.8442174" lon="10.3890114"><ele>264.16666666666663</ele><time>2026-04-12T08:13:01.059Z</time></trkpt><trkpt lat="43.8442576" lon="10.38911"><ele>263.3333333333333</ele><time>2026-04-12T08:13:02.058Z</time></trkpt><trkpt lat="43.8443027" lon="10.3892086"><ele>262.5</ele><time>2026-04-12T08:13:03.062Z</time></trkpt><trkpt lat="43.8443542" lon="10.3893048"><ele>261.6666666666667</ele><time>2026-04-12T08:13:04.057Z</time></trkpt><trkpt lat="43.8444098" lon="10.3893977"><ele>260.83333333333337</ele><time>2026-04-12T08:13:05.054Z</time></trkpt><trkpt lat="43.8444613" lon="10.3894847"><ele>260.0</ele><time>2026-04-12T08:13:06.055Z</time></trkpt><trkpt lat="43.8445071" lon="10.3895545"><ele>263.6</ele><time>2026-04-12T08:13:07.058Z</time></trkpt><trkpt lat="43.8445191" lon="10.3897064"><ele>267.2</ele><time>2026-04-12T08:13:09.056Z</time></trkpt><trkpt lat="43.8444401" lon="10.3898453"><ele>270.8</ele><time>2026-04-12T08:13:11.059Z</time></trkpt><trkpt lat="43.8443918" lon="10.3899271"><ele>274.4</ele><time>2026-04-12T08:13:12.057Z</time></trkpt><trkpt lat="43.8443491" lon="10.3900254"><ele>278.0</ele><time>2026-04-12T08:13:13.053Z</time></trkpt><trkpt lat="43.8443172" lon="10.3901283"><ele>274.33333333333337</ele><time>2026-04-12T08:13:14.06Z</time></trkpt><trkpt lat="43.8442925" lon="10.3902382"><ele>270.6666666666667</ele><time>2026-04-12T08:13:15.06Z</time></trkpt><trkpt lat="43.844274" lon="10.3903528"><ele>267.0</ele><time>2026-04-12T08:13:16.061Z</time></trkpt><trkpt lat="43.8442574" lon="10.3904716"><ele>263.3333333333333</ele><time>2026-04-12T08:13:17.058Z</time></trkpt><trkpt lat="43.8442497" lon="10.3905832"><ele>259.66666666666663</ele><time>2026-04-12T08:13:18.058Z</time></trkpt><trkpt lat="43.8442407" lon="10.3906927"><ele>256.0</ele><time>2026-04-12T08:13:19.058Z</time></trkpt><trkpt lat="43.8442325" lon="10.3908022"><ele>255.99999999999997</ele><time>2026-04-12T08:13:20.06Z</time></trkpt><trkpt lat="43.8442249" lon="10.3909086"><ele>256.0</ele><time>2026-04-12T08:13:21.058Z</time></trkpt><trkpt lat="43.8442197" lon="10.3910077"><ele>256.0</ele><time>2026-04-12T08:13:22.058Z</time></trkpt><trkpt lat="43.8442242" lon="10.3911013"><ele>256.0</ele><time>2026-04-12T08:13:23.061Z</time></trkpt><trkpt lat="43.8442399" lon="10.3911962"><ele>255.99999999999997</ele><time>2026-04-12T08:13:24.06Z</time></trkpt><trkpt lat="43.8442645" lon="10.3912995"><ele>256.0</ele><time>2026-04-12T08:13:25.063Z</time></trkpt><trkpt lat="43.8442932" lon="10.391414"><ele>260.66666666666663</ele><time>2026-04-12T08:13:26.059Z</time></trkpt><trkpt lat="43.8443236" lon="10.3915331"><ele>265.3333333333333</ele><time>2026-04-12T08:13:27.057Z</time></trkpt><trkpt lat="43.8443555" lon="10.3916424"><ele>270.0</ele><time>2026-04-12T08:13:28.059Z</time></trkpt><trkpt lat="43.8443862" lon="10.3917388"><ele>274.6666666666667</ele><time>2026-04-12T08:13:29.058Z</time></trkpt><trkpt lat="43.844407" lon="10.3918309"><ele>279.33333333333337</ele><time>2026-04-12T08:13:30.06Z</time></trkpt><trkpt lat="43.8444116" lon="10.3919194"><ele>284.0</ele><time>2026-04-12T08:13:31.058Z</time></trkpt><trkpt lat="43.8443494" lon="10.3920725"><ele>282.33333333333337</ele><time>2026-04-12T08:13:33.059Z</time></trkpt><trkpt lat="43.8442847" lon="10.3921157"><ele>280.6666666666667</ele><time>2026-04-12T08:13:34.056Z</time></trkpt><trkpt lat="43.8442075" lon="10.3921329"><ele>279.0</ele><time>2026-04-12T08:13:35.054Z</time></trkpt><trkpt lat="43.844127" lon="10.3921359"><ele>277.3333333333333</ele><time>2026-04-12T08:13:36.054Z</time></trkpt><trkpt lat="43.84405" lon="10.3921448"><ele>275.66666666666663</ele><time>2026-04-12T08:13:37.057Z</time></trkpt><trkpt lat="43.8439369" lon="10.3921717"><ele>274.0</ele><time>2026-04-12T08:13:39.056Z</time></trkpt><trkpt lat="43.8438411" lon="10.3921851"><ele>274.0</ele><time>2026-04-12T08:13:41.059Z</time></trkpt><trkpt lat="43.8437318" lon="10.3921946"><ele>274.0</ele><time>2026-04-12T08:13:43.06Z</time></trkpt><trkpt lat="43.8436655" lon="10.392188"><ele>274.0</ele><time>2026-04-12T08:13:44.054Z</time></trkpt><trkpt lat="43.8435967" lon="10.3921838"><ele>274.0</ele><time>2026-04-12T08:13:45.054Z</time></trkpt><trkpt lat="43.8435213" lon="10.3921958"><ele>274.0</ele><time>2026-04-12T08:13:46.055Z</time></trkpt><trkpt lat="43.8434339" lon="10.3922113"><ele>274.0</ele><time>2026-04-12T08:13:47.056Z</time></trkpt><trkpt lat="43.8433522" lon="10.3922202"><ele>272.0</ele><time>2026-04-12T08:13:48.053Z</time></trkpt><trkpt lat="43.8432826" lon="10.3922135"><ele>270.0</ele><time>2026-04-12T08:13:49.055Z</time></trkpt><trkpt lat="43.8432204" lon="10.3921837"><ele>268.0</ele><time>2026-04-12T08:13:50.051Z</time></trkpt><trkpt lat="43.8431156" lon="10.3921359"><ele>266.0</ele><time>2026-04-12T08:13:52.056Z</time></trkpt><trkpt lat="43.8430289" lon="10.3921264"><ele>264.0</ele><time>2026-04-12T08:13:54.061Z</time></trkpt><trkpt lat="43.8429689" lon="10.3921836"><ele>262.0</ele><time>2026-04-12T08:13:56.053Z</time></trkpt><trkpt lat="43.8429154" lon="10.3923189"><ele>262.0</ele><time>2026-04-12T08:13:58.056Z</time></trkpt><trkpt lat="43.8428725" lon="10.3923995"><ele>262.0</ele><time>2026-04-12T08:13:59.061Z</time></trkpt><trkpt lat="43.8428182" lon="10.3924794"><ele>262.0</ele><time>2026-04-12T08:14:00.057Z</time></trkpt><trkpt lat="43.8427596" lon="10.3925639"><ele>262.0</ele><time>2026-04-12T08:14:01.05Z</time></trkpt><trkpt lat="43.842701" lon="10.3926384"><ele>262.0</ele><time>2026-04-12T08:14:02.055Z</time></trkpt><trkpt lat="43.8426389" lon="10.3927025"><ele>262.0</ele><time>2026-04-12T08:14:03.059Z</time></trkpt><trkpt lat="43.8425756" lon="10.392745"><ele>259.42857142857144</ele><time>2026-04-12T08:14:04.056Z</time></trkpt><trkpt lat="43.8425135" lon="10.3927628"><ele>256.8571428571429</ele><time>2026-04-12T08:14:05.056Z</time></trkpt><trkpt lat="43.8424502" lon="10.3927627"><ele>254.28571428571428</ele><time>2026-04-12T08:14:06.057Z</time></trkpt><trkpt lat="43.8423782" lon="10.3927689"><ele>251.71428571428572</ele><time>2026-04-12T08:14:07.059Z</time></trkpt><trkpt lat="43.8423118" lon="10.392766"><ele>249.14285714285714</ele><time>2026-04-12T08:14:08.061Z</time></trkpt><trkpt lat="43.8422474" lon="10.3927664"><ele>246.57142857142856</ele><time>2026-04-12T08:14:09.058Z</time></trkpt><trkpt lat="43.8421377" lon="10.3927779"><ele>243.99999999999997</ele><time>2026-04-12T08:14:11.06Z</time></trkpt><trkpt lat="43.8420383" lon="10.3927827"><ele>244.0</ele><time>2026-04-12T08:14:13.068Z</time></trkpt><trkpt lat="43.8419114" lon="10.3927964"><ele>243.99999999999997</ele><time>2026-04-12T08:14:15.059Z</time></trkpt><trkpt lat="43.8418321" lon="10.392805"><ele>243.99999999999997</ele><time>2026-04-12T08:14:16.062Z</time></trkpt><trkpt lat="43.8417464" lon="10.3928092"><ele>244.0</ele><time>2026-04-12T08:14:17.064Z</time></trkpt><trkpt lat="43.841663" lon="10.392807"><ele>244.0</ele><time>2026-04-12T08:14:18.062Z</time></trkpt><trkpt lat="43.8415841" lon="10.392808"><ele>242.66666666666666</ele><time>2026-04-12T08:14:19.06Z</time></trkpt><trkpt lat="43.8415057" lon="10.3928222"><ele>241.33333333333331</ele><time>2026-04-12T08:14:20.06Z</time></trkpt><trkpt lat="43.8414253" lon="10.3928571"><ele>240.0</ele><time>2026-04-12T08:14:21.06Z</time></trkpt><trkpt lat="43.8413488" lon="10.3929009"><ele>238.66666666666669</ele><time>2026-04-12T08:14:22.059Z</time></trkpt><trkpt lat="43.8412796" lon="10.3929464"><ele>237.33333333333334</ele><time>2026-04-12T08:14:23.062Z</time></trkpt><trkpt lat="43.8411975" lon="10.3930384"><ele>236.0</ele><time>2026-04-12T08:14:25.065Z</time></trkpt><trkpt lat="43.8412347" lon="10.3931435"><ele>236.0</ele><time>2026-04-12T08:14:27.066Z</time></trkpt><trkpt lat="43.8413071" lon="10.3932368"><ele>236.00000000000003</ele><time>2026-04-12T08:14:29.063Z</time></trkpt><trkpt lat="43.8412587" lon="10.3933513"><ele>236.00000000000003</ele><time>2026-04-12T08:14:32.064Z</time></trkpt><trkpt lat="43.8411464" lon="10.3934234"><ele>236.0</ele><time>2026-04-12T08:14:34.06Z</time></trkpt><trkpt lat="43.8410278" lon="10.3934794"><ele>236.0</ele><time>2026-04-12T08:14:36.062Z</time></trkpt><trkpt lat="43.8409663" lon="10.3935124"><ele>233.20000000000002</ele><time>2026-04-12T08:14:37.058Z</time></trkpt><trkpt lat="43.8408657" lon="10.3935368"><ele>230.40000000000003</ele><time>2026-04-12T08:14:39.059Z</time></trkpt><trkpt lat="43.8407581" lon="10.393523"><ele>227.6</ele><time>2026-04-12T08:14:41.063Z</time></trkpt><trkpt lat="43.8406581" lon="10.3934611"><ele>224.8</ele><time>2026-04-12T08:14:43.06Z</time></trkpt><trkpt lat="43.8405537" lon="10.3933697"><ele>222.0</ele><time>2026-04-12T08:14:45.063Z</time></trkpt><trkpt lat="43.8404669" lon="10.3932606"><ele>222.0</ele><time>2026-04-12T08:14:47.068Z</time></trkpt><trkpt lat="43.8404191" lon="10.3931764"><ele>222.0</ele><time>2026-04-12T08:14:49.064Z</time></trkpt><trkpt lat="43.8403586" lon="10.3931445"><ele>222.0</ele><time>2026-04-12T08:14:51.065Z</time></trkpt><trkpt lat="43.8403155" lon="10.3932523"><ele>222.0</ele><time>2026-04-12T08:14:53.066Z</time></trkpt><trkpt lat="43.840307" lon="10.3933616"><ele>222.0</ele><time>2026-04-12T08:14:54.061Z</time></trkpt><trkpt lat="43.8403048" lon="10.3934772"><ele>222.0</ele><time>2026-04-12T08:14:55.06Z</time></trkpt><trkpt lat="43.840306" lon="10.3935847"><ele>222.0</ele><time>2026-04-12T08:14:56.062Z</time></trkpt><trkpt lat="43.8403095" lon="10.3936859"><ele>222.0</ele><time>2026-04-12T08:14:57.06Z</time></trkpt><trkpt lat="43.840328" lon="10.3938295"><ele>222.0</ele><time>2026-04-12T08:14:59.059Z</time></trkpt><trkpt lat="43.8403195" lon="10.3939217"><ele>222.0</ele><time>2026-04-12T08:15:02.066Z</time></trkpt><trkpt lat="43.8402574" lon="10.393889"><ele>222.0</ele><time>2026-04-12T08:15:04.054Z</time></trkpt><trkpt lat="43.8401834" lon="10.3937413"><ele>222.0</ele><time>2026-04-12T08:15:06.056Z</time></trkpt><trkpt lat="43.8401505" lon="10.3936361"><ele>218.7142857142857</ele><time>2026-04-12T08:15:07.056Z</time></trkpt><trkpt lat="43.8401237" lon="10.3935264"><ele>215.42857142857144</ele><time>2026-04-12T08:15:08.055Z</time></trkpt><trkpt lat="43.8400993" lon="10.3934247"><ele>212.14285714285714</ele><time>2026-04-12T08:15:09.057Z</time></trkpt><trkpt lat="43.8400764" lon="10.3933328"><ele>208.85714285714283</ele><time>2026-04-12T08:15:10.057Z</time></trkpt><trkpt lat="43.8400533" lon="10.3932442"><ele>205.57142857142856</ele><time>2026-04-12T08:15:11.058Z</time></trkpt><trkpt lat="43.8400333" lon="10.3931595"><ele>202.28571428571428</ele><time>2026-04-12T08:15:12.061Z</time></trkpt><trkpt lat="43.8400155" lon="10.3930693"><ele>199.0</ele><time>2026-04-12T08:15:13.059Z</time></trkpt><trkpt lat="43.8399965" lon="10.3929685"><ele>198.99999999999997</ele><time>2026-04-12T08:15:14.063Z</time></trkpt><trkpt lat="43.8399802" lon="10.3928601"><ele>199.0</ele><time>2026-04-12T08:15:15.063Z</time></trkpt><trkpt lat="43.8399624" lon="10.3927537"><ele>199.0</ele><time>2026-04-12T08:15:16.06Z</time></trkpt><trkpt lat="43.8399426" lon="10.3926401"><ele>199.0</ele><time>2026-04-12T08:15:17.058Z</time></trkpt><trkpt lat="43.8399202" lon="10.3925287"><ele>198.99999999999997</ele><time>2026-04-12T08:15:18.057Z</time></trkpt><trkpt lat="43.8398981" lon="10.3924228"><ele>199.0</ele><time>2026-04-12T08:15:19.059Z</time></trkpt><trkpt lat="43.8398805" lon="10.3923251"><ele>198.99999999999997</ele><time>2026-04-12T08:15:20.065Z</time></trkpt><trkpt lat="43.8398576" lon="10.3922433"><ele>199.0</ele><time>2026-04-12T08:15:21.062Z</time></trkpt><trkpt lat="43.8398253" lon="10.3921628"><ele>199.0</ele><time>2026-04-12T08:15:22.06Z</time></trkpt><trkpt lat="43.8397889" lon="10.3920856"><ele>199.0</ele><time>2026-04-12T08:15:23.064Z</time></trkpt><trkpt lat="43.8397192" lon="10.3919391"><ele>198.99999999999997</ele><time>2026-04-12T08:15:25.054Z</time></trkpt><trkpt lat="43.8396843" lon="10.3918636"><ele>199.0</ele><time>2026-04-12T08:15:26.064Z</time></trkpt><trkpt lat="43.8396512" lon="10.3917855"><ele>196.6</ele><time>2026-04-12T08:15:27.065Z</time></trkpt><trkpt lat="43.8396181" lon="10.3916992"><ele>194.2</ele><time>2026-04-12T08:15:28.065Z</time></trkpt><trkpt lat="43.8395842" lon="10.3916033"><ele>191.79999999999998</ele><time>2026-04-12T08:15:29.064Z</time></trkpt><trkpt lat="43.8395482" lon="10.3915131"><ele>189.39999999999998</ele><time>2026-04-12T08:15:30.064Z</time></trkpt><trkpt lat="43.8394603" lon="10.3913883"><ele>187.0</ele><time>2026-04-12T08:15:32.058Z</time></trkpt><trkpt lat="43.83937" lon="10.3912943"><ele>182.6</ele><time>2026-04-12T08:15:34.062Z</time></trkpt><trkpt lat="43.8392985" lon="10.3912641"><ele>178.2</ele><time>2026-04-12T08:15:36.057Z</time></trkpt><trkpt lat="43.8392556" lon="10.3913713"><ele>173.8</ele><time>2026-04-12T08:15:39.057Z</time></trkpt><trkpt lat="43.8392175" lon="10.3915169"><ele>169.4</ele><time>2026-04-12T08:15:41.058Z</time></trkpt><trkpt lat="43.8391812" lon="10.3916813"><ele>165.0</ele><time>2026-04-12T08:15:43.061Z</time></trkpt><trkpt lat="43.8391529" lon="10.3918522"><ele>165.00000000000003</ele><time>2026-04-12T08:15:45.061Z</time></trkpt><trkpt lat="43.8391368" lon="10.3919442"><ele>165.0</ele><time>2026-04-12T08:15:46.062Z</time></trkpt><trkpt lat="43.8391107" lon="10.3920332"><ele>165.0</ele><time>2026-04-12T08:15:47.06Z</time></trkpt><trkpt lat="43.8390752" lon="10.3921226"><ele>165.0</ele><time>2026-04-12T08:15:48.06Z</time></trkpt><trkpt lat="43.8390402" lon="10.3922057"><ele>165.0</ele><time>2026-04-12T08:15:49.062Z</time></trkpt><trkpt lat="43.8390084" lon="10.3922884"><ele>165.00000000000003</ele><time>2026-04-12T08:15:50.061Z</time></trkpt><trkpt lat="43.8389771" lon="10.3923747"><ele>165.0</ele><time>2026-04-12T08:15:51.061Z</time></trkpt><trkpt lat="43.8389532" lon="10.3924627"><ele>165.83333333333334</ele><time>2026-04-12T08:15:52.061Z</time></trkpt><trkpt lat="43.8389369" lon="10.3925537"><ele>166.66666666666666</ele><time>2026-04-12T08:15:53.064Z</time></trkpt><trkpt lat="43.8389237" lon="10.3926455"><ele>167.5</ele><time>2026-04-12T08:15:54.059Z</time></trkpt><trkpt lat="43.8389026" lon="10.3928026"><ele>168.33333333333331</ele><time>2026-04-12T08:15:56.061Z</time></trkpt><trkpt lat="43.8388475" lon="10.3929"><ele>169.16666666666666</ele><time>2026-04-12T08:15:58.061Z</time></trkpt><trkpt lat="43.8387935" lon="10.3929451"><ele>170.0</ele><time>2026-04-12T08:15:59.061Z</time></trkpt><trkpt lat="43.8387161" lon="10.3930056"><ele>169.8</ele><time>2026-04-12T08:16:00.06Z</time></trkpt><trkpt lat="43.8386319" lon="10.3930713"><ele>169.6</ele><time>2026-04-12T08:16:01.058Z</time></trkpt><trkpt lat="43.8385412" lon="10.3931357"><ele>169.39999999999998</ele><time>2026-04-12T08:16:02.058Z</time></trkpt><trkpt lat="43.8384462" lon="10.393187"><ele>169.2</ele><time>2026-04-12T08:16:03.059Z</time></trkpt><trkpt lat="43.8383427" lon="10.3932239"><ele>169.0</ele><time>2026-04-12T08:16:04.057Z</time></trkpt><trkpt lat="43.8382325" lon="10.3932521"><ele>164.5</ele><time>2026-04-12T08:16:05.057Z</time></trkpt><trkpt lat="43.8381178" lon="10.3932643"><ele>160.0</ele><time>2026-04-12T08:16:06.058Z</time></trkpt><trkpt lat="43.8379996" lon="10.3932698"><ele>155.5</ele><time>2026-04-12T08:16:07.059Z</time></trkpt><trkpt lat="43.8378822" lon="10.3932681"><ele>151.0</ele><time>2026-04-12T08:16:08.06Z</time></trkpt><trkpt lat="43.8377663" lon="10.3932679"><ele>151.0</ele><time>2026-04-12T08:16:09.065Z</time></trkpt><trkpt lat="43.8376566" lon="10.393281"><ele>151.0</ele><time>2026-04-12T08:16:10.064Z</time></trkpt><trkpt lat="43.8375593" lon="10.3933174"><ele>151.0</ele><time>2026-04-12T08:16:11.063Z</time></trkpt><trkpt lat="43.8374681" lon="10.3933582"><ele>151.0</ele><time>2026-04-12T08:16:12.062Z</time></trkpt><trkpt lat="43.8373789" lon="10.3933908"><ele>151.0</ele><time>2026-04-12T08:16:13.06Z</time></trkpt><trkpt lat="43.8372833" lon="10.3934133"><ele>147.83333333333334</ele><time>2026-04-12T08:16:14.061Z</time></trkpt><trkpt lat="43.8371866" lon="10.3934214"><ele>144.66666666666669</ele><time>2026-04-12T08:16:15.057Z</time></trkpt><trkpt lat="43.8370925" lon="10.3934227"><ele>141.5</ele><time>2026-04-12T08:16:16.063Z</time></trkpt><trkpt lat="43.8370079" lon="10.3934216"><ele>138.33333333333334</ele><time>2026-04-12T08:16:17.062Z</time></trkpt><trkpt lat="43.8369329" lon="10.3934115"><ele>135.16666666666666</ele><time>2026-04-12T08:16:18.062Z</time></trkpt><trkpt lat="43.8368655" lon="10.3933923"><ele>132.0</ele><time>2026-04-12T08:16:19.062Z</time></trkpt><trkpt lat="43.8367996" lon="10.3933655"><ele>129.71428571428572</ele><time>2026-04-12T08:16:20.062Z</time></trkpt><trkpt lat="43.8367298" lon="10.393343"><ele>127.42857142857144</ele><time>2026-04-12T08:16:21.058Z</time></trkpt><trkpt lat="43.8366604" lon="10.3933313"><ele>125.14285714285715</ele><time>2026-04-12T08:16:22.062Z</time></trkpt><trkpt lat="43.836592" lon="10.3933319"><ele>122.85714285714286</ele><time>2026-04-12T08:16:23.068Z</time></trkpt><trkpt lat="43.8365238" lon="10.3933458"><ele>120.57142857142858</ele><time>2026-04-12T08:16:24.067Z</time></trkpt><trkpt lat="43.8364615" lon="10.3933817"><ele>118.2857142857143</ele><time>2026-04-12T08:16:25.064Z</time></trkpt><trkpt lat="43.8364055" lon="10.3934358"><ele>116.00000000000001</ele><time>2026-04-12T08:16:26.065Z</time></trkpt><trkpt lat="43.8363527" lon="10.3934977"><ele>115.99999999999999</ele><time>2026-04-12T08:16:27.062Z</time></trkpt><trkpt lat="43.836299" lon="10.3935637"><ele>116.0</ele><time>2026-04-12T08:16:28.063Z</time></trkpt><trkpt lat="43.8362432" lon="10.3936382"><ele>116.0</ele><time>2026-04-12T08:16:29.065Z</time></trkpt><trkpt lat="43.8361879" lon="10.3937272"><ele>116.0</ele><time>2026-04-12T08:16:30.063Z</time></trkpt><trkpt lat="43.8361302" lon="10.3938232"><ele>115.99999999999999</ele><time>2026-04-12T08:16:31.06Z</time></trkpt><trkpt lat="43.8360733" lon="10.3939182"><ele>116.0</ele><time>2026-04-12T08:16:32.065Z</time></trkpt><trkpt lat="43.8360228" lon="10.393999"><ele>115.33333333333333</ele><time>2026-04-12T08:16:33.065Z</time></trkpt><trkpt lat="43.8359855" lon="10.3940744"><ele>114.66666666666666</ele><time>2026-04-12T08:16:34.066Z</time></trkpt><trkpt lat="43.8359791" lon="10.3942231"><ele>114.0</ele><time>2026-04-12T08:16:36.064Z</time></trkpt><trkpt lat="43.8360511" lon="10.3943611"><ele>113.33333333333334</ele><time>2026-04-12T08:16:38.064Z</time></trkpt><trkpt lat="43.836107" lon="10.3944335"><ele>112.66666666666667</ele><time>2026-04-12T08:16:39.065Z</time></trkpt><trkpt lat="43.8361628" lon="10.3944962"><ele>112.0</ele><time>2026-04-12T08:16:40.057Z</time></trkpt><trkpt lat="43.8362256" lon="10.3946091"><ele>108.6</ele><time>2026-04-12T08:16:42.063Z</time></trkpt><trkpt lat="43.8361932" lon="10.3947174"><ele>105.19999999999999</ele><time>2026-04-12T08:16:44.067Z</time></trkpt><trkpt lat="43.83606" lon="10.3947438"><ele>101.8</ele><time>2026-04-12T08:16:46.063Z</time></trkpt><trkpt lat="43.8359679" lon="10.3947167"><ele>98.4</ele><time>2026-04-12T08:16:47.061Z</time></trkpt><trkpt lat="43.8358679" lon="10.3946746"><ele>95.0</ele><time>2026-04-12T08:16:48.062Z</time></trkpt><trkpt lat="43.835766" lon="10.3946327"><ele>95.0</ele><time>2026-04-12T08:16:49.06Z</time></trkpt><trkpt lat="43.8356682" lon="10.3945893"><ele>95.0</ele><time>2026-04-12T08:16:50.06Z</time></trkpt><trkpt lat="43.8355793" lon="10.3945404"><ele>95.0</ele><time>2026-04-12T08:16:51.058Z</time></trkpt><trkpt lat="43.8355022" lon="10.3945002"><ele>95.0</ele><time>2026-04-12T08:16:52.059Z</time></trkpt><trkpt lat="43.835437" lon="10.3944669"><ele>95.0</ele><time>2026-04-12T08:16:53.062Z</time></trkpt><trkpt lat="43.8353372" lon="10.3944521"><ele>95.0</ele><time>2026-04-12T08:16:55.067Z</time></trkpt><trkpt lat="43.835271" lon="10.3945524"><ele>95.0</ele><time>2026-04-12T08:16:57.064Z</time></trkpt><trkpt lat="43.8352382" lon="10.394643"><ele>95.0</ele><time>2026-04-12T08:16:58.059Z</time></trkpt><trkpt lat="43.8352082" lon="10.3947375"><ele>95.0</ele><time>2026-04-12T08:16:59.062Z</time></trkpt><trkpt lat="43.8351474" lon="10.3948566"><ele>95.0</ele><time>2026-04-12T08:17:01.059Z</time></trkpt><trkpt lat="43.8350899" lon="10.3948978"><ele>95.0</ele><time>2026-04-12T08:17:03.063Z</time></trkpt><trkpt lat="43.8350335" lon="10.3948452"><ele>91.0</ele><time>2026-04-12T08:17:18.068Z</time></trkpt><trkpt lat="43.8349416" lon="10.3947677"><ele>87.0</ele><time>2026-04-12T08:17:34.067Z</time></trkpt><trkpt lat="43.8348973" lon="10.3947027"><ele>83.0</ele><time>2026-04-12T08:17:35.065Z</time></trkpt><trkpt lat="43.8348518" lon="10.394625"><ele>79.0</ele><time>2026-04-12T08:17:36.056Z</time></trkpt><trkpt lat="43.8348057" lon="10.3945515"><ele>75.0</ele><time>2026-04-12T08:17:37.063Z</time></trkpt><trkpt lat="43.8347057" lon="10.3944799"><ele>71.0</ele><time>2026-04-12T08:17:39.065Z</time></trkpt><trkpt lat="43.8345866" lon="10.3945178"><ele>70.71428571428571</ele><time>2026-04-12T08:17:41.061Z</time></trkpt><trkpt lat="43.8345212" lon="10.3945591"><ele>70.42857142857142</ele><time>2026-04-12T08:17:42.061Z</time></trkpt><trkpt lat="43.8344566" lon="10.3945967"><ele>70.14285714285714</ele><time>2026-04-12T08:17:43.063Z</time></trkpt><trkpt lat="43.8343964" lon="10.3946237"><ele>69.85714285714286</ele><time>2026-04-12T08:17:44.06Z</time></trkpt><trkpt lat="43.8343277" lon="10.394636"><ele>69.57142857142858</ele><time>2026-04-12T08:17:45.061Z</time></trkpt><trkpt lat="43.8342546" lon="10.3946337"><ele>69.28571428571429</ele><time>2026-04-12T08:17:46.058Z</time></trkpt><trkpt lat="43.8341818" lon="10.3946224"><ele>69.0</ele><time>2026-04-12T08:17:47.06Z</time></trkpt><trkpt lat="43.8341043" lon="10.3946095"><ele>66.16666666666667</ele><time>2026-04-12T08:17:48.058Z</time></trkpt><trkpt lat="43.8340255" lon="10.3945967"><ele>63.33333333333333</ele><time>2026-04-12T08:17:49.058Z</time></trkpt><trkpt lat="43.8339499" lon="10.3945885"><ele>60.5</ele><time>2026-04-12T08:17:50.064Z</time></trkpt><trkpt lat="43.833873" lon="10.3945824"><ele>57.666666666666664</ele><time>2026-04-12T08:17:51.059Z</time></trkpt><trkpt lat="43.8337961" lon="10.3945781"><ele>54.83333333333333</ele><time>2026-04-12T08:17:52.059Z</time></trkpt><trkpt lat="43.8337207" lon="10.3945761"><ele>52.0</ele><time>2026-04-12T08:17:53.062Z</time></trkpt><trkpt lat="43.8336503" lon="10.3945692"><ele>51.99999999999999</ele><time>2026-04-12T08:17:54.059Z</time></trkpt><trkpt lat="43.8335839" lon="10.394558"><ele>52.0</ele><time>2026-04-12T08:17:55.06Z</time></trkpt><trkpt lat="43.8335214" lon="10.3945417"><ele>52.0</ele><time>2026-04-12T08:17:56.061Z</time></trkpt><trkpt lat="43.8334096" lon="10.3944722"><ele>52.0</ele><time>2026-04-12T08:17:58.063Z</time></trkpt><trkpt lat="43.8333593" lon="10.3944132"><ele>51.99999999999999</ele><time>2026-04-12T08:17:59.063Z</time></trkpt><trkpt lat="43.8333039" lon="10.3943397"><ele>52.0</ele><time>2026-04-12T08:18:00.064Z</time></trkpt><trkpt lat="43.8332409" lon="10.3942588"><ele>50.400000000000006</ele><time>2026-04-12T08:18:01.061Z</time></trkpt><trkpt lat="43.8331726" lon="10.3941793"><ele>48.800000000000004</ele><time>2026-04-12T08:18:02.059Z</time></trkpt><trkpt lat="43.8331009" lon="10.3941046"><ele>47.2</ele><time>2026-04-12T08:18:03.065Z</time></trkpt><trkpt lat="43.8330276" lon="10.3940269"><ele>45.6</ele><time>2026-04-12T08:18:04.062Z</time></trkpt><trkpt lat="43.8329557" lon="10.3939494"><ele>44.0</ele><time>2026-04-12T08:18:05.063Z</time></trkpt><trkpt lat="43.8328864" lon="10.3938741"><ele>42.83333333333333</ele><time>2026-04-12T08:18:06.062Z</time></trkpt><trkpt lat="43.8328257" lon="10.3937996"><ele>41.666666666666664</ele><time>2026-04-12T08:18:07.062Z</time></trkpt><trkpt lat="43.8327755" lon="10.3937122"><ele>40.5</ele><time>2026-04-12T08:18:08.062Z</time></trkpt><trkpt lat="43.8327358" lon="10.3936125"><ele>39.333333333333336</ele><time>2026-04-12T08:18:09.064Z</time></trkpt><trkpt lat="43.8327064" lon="10.3935132"><ele>38.16666666666667</ele><time>2026-04-12T08:18:10.061Z</time></trkpt><trkpt lat="43.8326885" lon="10.3934149"><ele>37.0</ele><time>2026-04-12T08:18:11.06Z</time></trkpt><trkpt lat="43.832662" lon="10.3932893"><ele>35.66666666666667</ele><time>2026-04-12T08:18:13.065Z</time></trkpt><trkpt lat="43.8325854" lon="10.3933034"><ele>34.333333333333336</ele><time>2026-04-12T08:18:15.067Z</time></trkpt><trkpt lat="43.8325324" lon="10.3933872"><ele>33.0</ele><time>2026-04-12T08:18:16.063Z</time></trkpt><trkpt lat="43.8324823" lon="10.3934917"><ele>31.666666666666664</ele><time>2026-04-12T08:18:17.059Z</time></trkpt><trkpt lat="43.8324464" lon="10.3936031"><ele>30.333333333333332</ele><time>2026-04-12T08:18:18.059Z</time></trkpt><trkpt lat="43.8324281" lon="10.3937047"><ele>29.0</ele><time>2026-04-12T08:18:19.061Z</time></trkpt><trkpt lat="43.8324317" lon="10.3937921"><ele>28.999999999999996</ele><time>2026-04-12T08:18:20.062Z</time></trkpt><trkpt lat="43.8324337" lon="10.3938847"><ele>29.0</ele><time>2026-04-12T08:18:22.063Z</time></trkpt><trkpt lat="43.8323542" lon="10.3938391"><ele>29.0</ele><time>2026-04-12T08:18:24.066Z</time></trkpt><trkpt lat="43.8323097" lon="10.3937384"><ele>29.0</ele><time>2026-04-12T08:18:25.063Z</time></trkpt><trkpt lat="43.8322807" lon="10.3936314"><ele>28.999999999999996</ele><time>2026-04-12T08:18:26.061Z</time></trkpt><trkpt lat="43.8322522" lon="10.3935295"><ele>29.0</ele><time>2026-04-12T08:18:27.062Z</time></trkpt><trkpt lat="43.8322314" lon="10.3934281"><ele>29.0</ele><time>2026-04-12T08:18:28.064Z</time></trkpt><trkpt lat="43.8322181" lon="10.3933309"><ele>29.0</ele><time>2026-04-12T08:18:29.064Z</time></trkpt><trkpt lat="43.8322067" lon="10.3932407"><ele>29.0</ele><time>2026-04-12T08:18:30.065Z</time></trkpt><trkpt lat="43.8321681" lon="10.393082"><ele>29.0</ele><time>2026-04-12T08:18:32.067Z</time></trkpt><trkpt lat="43.8320753" lon="10.3929787"><ele>29.0</ele><time>2026-04-12T08:18:34.065Z</time></trkpt><trkpt lat="43.8319808" lon="10.3929076"><ele>28.999999999999996</ele><time>2026-04-12T08:18:36.062Z</time></trkpt><trkpt lat="43.8319047" lon="10.3929291"><ele>29.0</ele><time>2026-04-12T08:18:39.065Z</time></trkpt><trkpt lat="43.8318583" lon="10.3930224"><ele>29.0</ele><time>2026-04-12T08:18:41.065Z</time></trkpt><trkpt lat="43.8318342" lon="10.3931122"><ele>29.0</ele><time>2026-04-12T08:18:42.063Z</time></trkpt><trkpt lat="43.8318097" lon="10.3932369"><ele>28.999999999999996</ele><time>2026-04-12T08:18:43.066Z</time></trkpt><trkpt lat="43.8317813" lon="10.3933738"><ele>29.0</ele><time>2026-04-12T08:18:44.062Z</time></trkpt><trkpt lat="43.831753" lon="10.3935144"><ele>26.0</ele><time>2026-04-12T08:18:45.064Z</time></trkpt><trkpt lat="43.8317229" lon="10.3936638"><ele>23.0</ele><time>2026-04-12T08:18:46.063Z</time></trkpt><trkpt lat="43.8316873" lon="10.3938124"><ele>20.0</ele><time>2026-04-12T08:18:47.066Z</time></trkpt><trkpt lat="43.8316422" lon="10.393962"><ele>17.0</ele><time>2026-04-12T08:18:48.063Z</time></trkpt><trkpt lat="43.8315878" lon="10.3941123"><ele>17.0</ele><time>2026-04-12T08:18:49.065Z</time></trkpt><trkpt lat="43.8315313" lon="10.3942577"><ele>17.0</ele><time>2026-04-12T08:18:50.063Z</time></trkpt><trkpt lat="43.8314713" lon="10.3943997"><ele>17.0</ele><time>2026-04-12T08:18:51.062Z</time></trkpt><trkpt lat="43.8314167" lon="10.3945459"><ele>17.0</ele><time>2026-04-12T08:18:52.062Z</time></trkpt><trkpt lat="43.8313661" lon="10.3946973"><ele>17.25</ele><time>2026-04-12T08:18:53.064Z</time></trkpt><trkpt lat="43.8313245" lon="10.3948517"><ele>17.5</ele><time>2026-04-12T08:18:54.062Z</time></trkpt><trkpt lat="43.8312946" lon="10.3950136"><ele>17.75</ele><time>2026-04-12T08:18:55.061Z</time></trkpt><trkpt lat="43.8312787" lon="10.3951779"><ele>18.0</ele><time>2026-04-12T08:18:56.06Z</time></trkpt><trkpt lat="43.8312795" lon="10.3953409"><ele>18.0</ele><time>2026-04-12T08:18:57.063Z</time></trkpt><trkpt lat="43.8312943" lon="10.3955009"><ele>18.0</ele><time>2026-04-12T08:18:58.062Z</time></trkpt><trkpt lat="43.8313117" lon="10.3956571"><ele>18.0</ele><time>2026-04-12T08:18:59.063Z</time></trkpt><trkpt lat="43.8313329" lon="10.395815"><ele>18.0</ele><time>2026-04-12T08:19:00.062Z</time></trkpt><trkpt lat="43.8313561" lon="10.3959794"><ele>17.5</ele><time>2026-04-12T08:19:01.06Z</time></trkpt><trkpt lat="43.8313744" lon="10.3961516"><ele>17.0</ele><time>2026-04-12T08:19:02.06Z</time></trkpt><trkpt lat="43.8313898" lon="10.396332"><ele>16.5</ele><time>2026-04-12T08:19:03.064Z</time></trkpt><trkpt lat="43.8314026" lon="10.3965109"><ele>16.0</ele><time>2026-04-12T08:19:04.059Z</time></trkpt><trkpt lat="43.8314187" lon="10.3966882"><ele>16.0</ele><time>2026-04-12T08:19:05.059Z</time></trkpt><trkpt lat="43.8314472" lon="10.3968576"><ele>16.0</ele><time>2026-04-12T08:19:06.061Z</time></trkpt><trkpt lat="43.8314936" lon="10.3970183"><ele>16.0</ele><time>2026-04-12T08:19:07.059Z</time></trkpt><trkpt lat="43.8315463" lon="10.3971714"><ele>16.0</ele><time>2026-04-12T08:19:08.062Z</time></trkpt><trkpt lat="43.831602" lon="10.3973332"><ele>15.5</ele><time>2026-04-12T08:19:09.064Z</time></trkpt><trkpt lat="43.8316531" lon="10.3975071"><ele>15.0</ele><time>2026-04-12T08:19:10.063Z</time></trkpt><trkpt lat="43.8317038" lon="10.3976863"><ele>14.5</ele><time>2026-04-12T08:19:11.062Z</time></trkpt><trkpt lat="43.8317481" lon="10.3978754"><ele>14.0</ele><time>2026-04-12T08:19:12.065Z</time></trkpt><trkpt lat="43.8317893" lon="10.3980677"><ele>15.75</ele><time>2026-04-12T08:19:13.063Z</time></trkpt><trkpt lat="43.8318298" lon="10.3982606"><ele>17.5</ele><time>2026-04-12T08:19:14.062Z</time></trkpt><trkpt lat="43.831871" lon="10.3984547"><ele>19.25</ele><time>2026-04-12T08:19:15.061Z</time></trkpt><trkpt lat="43.8319127" lon="10.3986471"><ele>21.0</ele><time>2026-04-12T08:19:16.062Z</time></trkpt><trkpt lat="43.8319609" lon="10.3988329"><ele>19.75</ele><time>2026-04-12T08:19:17.06Z</time></trkpt><trkpt lat="43.8320193" lon="10.3990156"><ele>18.5</ele><time>2026-04-12T08:19:18.067Z</time></trkpt><trkpt lat="43.8320856" lon="10.3991961"><ele>17.25</ele><time>2026-04-12T08:19:19.063Z</time></trkpt><trkpt lat="43.8321523" lon="10.3993755"><ele>16.0</ele><time>2026-04-12T08:19:20.065Z</time></trkpt><trkpt lat="43.8322193" lon="10.3995561"><ele>15.5</ele><time>2026-04-12T08:19:21.061Z</time></trkpt><trkpt lat="43.8322857" lon="10.399734"><ele>15.0</ele><time>2026-04-12T08:19:22.064Z</time></trkpt><trkpt lat="43.8323499" lon="10.3999073"><ele>14.5</ele><time>2026-04-12T08:19:23.069Z</time></trkpt><trkpt lat="43.8324157" lon="10.4000797"><ele>14.0</ele><time>2026-04-12T08:19:24.066Z</time></trkpt><trkpt lat="43.8324845" lon="10.4002526"><ele>14.0</ele><time>2026-04-12T08:19:25.065Z</time></trkpt><trkpt lat="43.8325571" lon="10.4004211"><ele>14.0</ele><time>2026-04-12T08:19:26.064Z</time></trkpt><trkpt lat="43.8326354" lon="10.4005823"><ele>14.0</ele><time>2026-04-12T08:19:27.062Z</time></trkpt><trkpt lat="43.832722" lon="10.400734"><ele>14.0</ele><time>2026-04-12T08:19:28.063Z</time></trkpt><trkpt lat="43.8328163" lon="10.4008775"><ele>14.5</ele><time>2026-04-12T08:19:29.065Z</time></trkpt><trkpt lat="43.8329201" lon="10.4010167"><ele>15.0</ele><time>2026-04-12T08:19:30.063Z</time></trkpt><trkpt lat="43.8330325" lon="10.4011545"><ele>15.5</ele><time>2026-04-12T08:19:31.065Z</time></trkpt><trkpt lat="43.8331444" lon="10.4012892"><ele>16.0</ele><time>2026-04-12T08:19:32.063Z</time></trkpt><trkpt lat="43.8332552" lon="10.401425"><ele>16.0</ele><time>2026-04-12T08:19:33.065Z</time></trkpt><trkpt lat="43.8333637" lon="10.4015654"><ele>16.0</ele><time>2026-04-12T08:19:34.061Z</time></trkpt><trkpt lat="43.8334691" lon="10.4017123"><ele>16.0</ele><time>2026-04-12T08:19:35.063Z</time></trkpt><trkpt lat="43.8335686" lon="10.4018614"><ele>16.0</ele><time>2026-04-12T08:19:36.064Z</time></trkpt><trkpt lat="43.8336628" lon="10.4020103"><ele>16.75</ele><time>2026-04-12T08:19:37.065Z</time></trkpt><trkpt lat="43.8337339" lon="10.4021679"><ele>17.5</ele><time>2026-04-12T08:19:38.064Z</time></trkpt><trkpt lat="43.8337818" lon="10.4023388"><ele>18.25</ele><time>2026-04-12T08:19:39.061Z</time></trkpt><trkpt lat="43.8338184" lon="10.4025193"><ele>19.0</ele><time>2026-04-12T08:19:40.064Z</time></trkpt><trkpt lat="43.8338628" lon="10.4026898"><ele>19.0</ele><time>2026-04-12T08:19:41.061Z</time></trkpt><trkpt lat="43.8339158" lon="10.4028499"><ele>19.0</ele><time>2026-04-12T08:19:42.063Z</time></trkpt><trkpt lat="43.833979" lon="10.4030067"><ele>19.0</ele><time>2026-04-12T08:19:43.065Z</time></trkpt><trkpt lat="43.8340514" lon="10.4031628"><ele>19.0</ele><time>2026-04-12T08:19:44.063Z</time></trkpt><trkpt lat="43.8341298" lon="10.4033185"><ele>18.5</ele><time>2026-04-12T08:19:45.064Z</time></trkpt><trkpt lat="43.8342123" lon="10.4034812"><ele>18.0</ele><time>2026-04-12T08:19:46.066Z</time></trkpt><trkpt lat="43.8342933" lon="10.4036495"><ele>17.5</ele><time>2026-04-12T08:19:47.064Z</time></trkpt><trkpt lat="43.8343773" lon="10.4038195"><ele>17.0</ele><time>2026-04-12T08:19:48.064Z</time></trkpt><trkpt lat="43.834459" lon="10.4039947"><ele>16.5</ele><time>2026-04-12T08:19:49.067Z</time></trkpt><trkpt lat="43.8345371" lon="10.4041673"><ele>16.0</ele><time>2026-04-12T08:19:50.064Z</time></trkpt><trkpt lat="43.8346133" lon="10.404341"><ele>15.5</ele><time>2026-04-12T08:19:51.063Z</time></trkpt><trkpt lat="43.8346885" lon="10.4045191"><ele>15.0</ele><time>2026-04-12T08:19:52.065Z</time></trkpt><trkpt lat="43.834763" lon="10.4046985"><ele>14.25</ele><time>2026-04-12T08:19:53.068Z</time></trkpt><trkpt lat="43.8348356" lon="10.4048764"><ele>13.5</ele><time>2026-04-12T08:19:54.066Z</time></trkpt><trkpt lat="43.8349058" lon="10.405053"><ele>12.75</ele><time>2026-04-12T08:19:55.064Z</time></trkpt><trkpt lat="43.8349741" lon="10.4052229"><ele>12.0</ele><time>2026-04-12T08:19:56.065Z</time></trkpt><trkpt lat="43.8350429" lon="10.4053903"><ele>12.0</ele><time>2026-04-12T08:19:57.065Z</time></trkpt><trkpt lat="43.835114" lon="10.4055517"><ele>12.0</ele><time>2026-04-12T08:19:58.064Z</time></trkpt><trkpt lat="43.8351939" lon="10.4057071"><ele>12.0</ele><time>2026-04-12T08:19:59.064Z</time></trkpt><trkpt lat="43.8352882" lon="10.4058533"><ele>12.0</ele><time>2026-04-12T08:20:00.062Z</time></trkpt><trkpt lat="43.835388" lon="10.4059869"><ele>12.5</ele><time>2026-04-12T08:20:01.063Z</time></trkpt><trkpt lat="43.8354941" lon="10.4061192"><ele>13.0</ele><time>2026-04-12T08:20:02.064Z</time></trkpt><trkpt lat="43.8356003" lon="10.4062538"><ele>13.5</ele><time>2026-04-12T08:20:03.067Z</time></trkpt><trkpt lat="43.8357053" lon="10.4063852"><ele>14.0</ele><time>2026-04-12T08:20:04.062Z</time></trkpt><trkpt lat="43.8358116" lon="10.4065129"><ele>14.0</ele><time>2026-04-12T08:20:05.062Z</time></trkpt><trkpt lat="43.8359241" lon="10.4066402"><ele>14.0</ele><time>2026-04-12T08:20:06.063Z</time></trkpt><trkpt lat="43.8360371" lon="10.4067625"><ele>14.0</ele><time>2026-04-12T08:20:07.063Z</time></trkpt><trkpt lat="43.8361482" lon="10.4068793"><ele>14.0</ele><time>2026-04-12T08:20:08.062Z</time></trkpt><trkpt lat="43.8362584" lon="10.4069953"><ele>14.75</ele><time>2026-04-12T08:20:09.061Z</time></trkpt><trkpt lat="43.8363642" lon="10.407106"><ele>15.5</ele><time>2026-04-12T08:20:10.063Z</time></trkpt><trkpt lat="43.8364563" lon="10.4072194"><ele>16.25</ele><time>2026-04-12T08:20:11.062Z</time></trkpt><trkpt lat="43.8365297" lon="10.4073377"><ele>17.0</ele><time>2026-04-12T08:20:12.062Z</time></trkpt><trkpt lat="43.8365838" lon="10.4074575"><ele>16.999999999999996</ele><time>2026-04-12T08:20:13.067Z</time></trkpt><trkpt lat="43.836614" lon="10.4075597"><ele>17.0</ele><time>2026-04-12T08:20:14.063Z</time></trkpt><trkpt lat="43.8366156" lon="10.4076478"><ele>17.0</ele><time>2026-04-12T08:20:15.053Z</time></trkpt><trkpt lat="43.8366043" lon="10.4077361"><ele>17.0</ele><time>2026-04-12T08:20:16.06Z</time></trkpt><trkpt lat="43.8365893" lon="10.4078283"><ele>17.0</ele><time>2026-04-12T08:20:17.062Z</time></trkpt><trkpt lat="43.8365748" lon="10.4079265"><ele>16.999999999999996</ele><time>2026-04-12T08:20:18.062Z</time></trkpt><trkpt lat="43.8365577" lon="10.4080351"><ele>17.0</ele><time>2026-04-12T08:20:19.062Z</time></trkpt><trkpt lat="43.8365401" lon="10.4081617"><ele>16.75</ele><time>2026-04-12T08:20:20.064Z</time></trkpt><trkpt lat="43.8365196" lon="10.4083221"><ele>16.5</ele><time>2026-04-12T08:20:21.06Z</time></trkpt><trkpt lat="43.8364945" lon="10.4085134"><ele>16.25</ele><time>2026-04-12T08:20:22.063Z</time></trkpt><trkpt lat="43.8364677" lon="10.4087153"><ele>16.0</ele><time>2026-04-12T08:20:23.066Z</time></trkpt><trkpt lat="43.8364383" lon="10.4089202"><ele>16.0</ele><time>2026-04-12T08:20:24.063Z</time></trkpt><trkpt lat="43.8364013" lon="10.4091213"><ele>16.0</ele><time>2026-04-12T08:20:25.063Z</time></trkpt><trkpt lat="43.8363564" lon="10.4093172"><ele>16.0</ele><time>2026-04-12T08:20:26.064Z</time></trkpt><trkpt lat="43.8363137" lon="10.4095142"><ele>16.0</ele><time>2026-04-12T08:20:27.063Z</time></trkpt><trkpt lat="43.8362771" lon="10.409709"><ele>16.25</ele><time>2026-04-12T08:20:28.064Z</time></trkpt><trkpt lat="43.8362488" lon="10.4099062"><ele>16.5</ele><time>2026-04-12T08:20:29.064Z</time></trkpt><trkpt lat="43.8362257" lon="10.4101041"><ele>16.75</ele><time>2026-04-12T08:20:30.063Z</time></trkpt><trkpt lat="43.836205" lon="10.4103022"><ele>17.0</ele><time>2026-04-12T08:20:31.064Z</time></trkpt><trkpt lat="43.8361877" lon="10.4105049"><ele>16.0</ele><time>2026-04-12T08:20:32.062Z</time></trkpt><trkpt lat="43.8361746" lon="10.410717"><ele>15.0</ele><time>2026-04-12T08:20:33.064Z</time></trkpt><trkpt lat="43.8361663" lon="10.410933"><ele>14.0</ele><time>2026-04-12T08:20:34.064Z</time></trkpt><trkpt lat="43.8361635" lon="10.4111371"><ele>14.0</ele><time>2026-04-12T08:20:35.062Z</time></trkpt><trkpt lat="43.8361689" lon="10.4113257"><ele>14.0</ele><time>2026-04-12T08:20:36.063Z</time></trkpt><trkpt lat="43.83618" lon="10.411509"><ele>14.0</ele><time>2026-04-12T08:20:37.054Z</time></trkpt><trkpt lat="43.8361881" lon="10.4116915"><ele>14.0</ele><time>2026-04-12T08:20:38.063Z</time></trkpt><trkpt lat="43.8361913" lon="10.4118788"><ele>14.0</ele><time>2026-04-12T08:20:39.063Z</time></trkpt><trkpt lat="43.8361884" lon="10.4120654"><ele>14.0</ele><time>2026-04-12T08:20:40.065Z</time></trkpt><trkpt lat="43.8361796" lon="10.4122415"><ele>14.0</ele><time>2026-04-12T08:20:41.061Z</time></trkpt><trkpt lat="43.8361644" lon="10.4124009"><ele>14.0</ele><time>2026-04-12T08:20:42.062Z</time></trkpt><trkpt lat="43.8361478" lon="10.4125507"><ele>14.399999999999999</ele><time>2026-04-12T08:20:43.068Z</time></trkpt><trkpt lat="43.8361346" lon="10.4126921"><ele>14.799999999999999</ele><time>2026-04-12T08:20:44.062Z</time></trkpt><trkpt lat="43.836137" lon="10.4128329"><ele>15.200000000000001</ele><time>2026-04-12T08:20:45.067Z</time></trkpt><trkpt lat="43.8361623" lon="10.4129785"><ele>15.600000000000001</ele><time>2026-04-12T08:20:46.062Z</time></trkpt><trkpt lat="43.8362037" lon="10.4131346"><ele>16.0</ele><time>2026-04-12T08:20:47.061Z</time></trkpt><trkpt lat="43.8362504" lon="10.4132854"><ele>15.999999999999998</ele><time>2026-04-12T08:20:48.064Z</time></trkpt><trkpt lat="43.8363001" lon="10.4134266"><ele>16.0</ele><time>2026-04-12T08:20:49.063Z</time></trkpt><trkpt lat="43.8363449" lon="10.4135476"><ele>16.0</ele><time>2026-04-12T08:20:50.062Z</time></trkpt><trkpt lat="43.8363784" lon="10.4136427"><ele>16.0</ele><time>2026-04-12T08:20:51.063Z</time></trkpt><trkpt lat="43.8363999" lon="10.4137517"><ele>15.999999999999998</ele><time>2026-04-12T08:20:53.057Z</time></trkpt><trkpt lat="43.8364096" lon="10.4138394"><ele>16.0</ele><time>2026-04-12T08:20:55.067Z</time></trkpt><trkpt lat="43.8364986" lon="10.4139338"><ele>15.25</ele><time>2026-04-12T08:20:57.065Z</time></trkpt><trkpt lat="43.8365905" lon="10.4139742"><ele>14.5</ele><time>2026-04-12T08:20:58.064Z</time></trkpt><trkpt lat="43.8367082" lon="10.4140149"><ele>13.75</ele><time>2026-04-12T08:20:59.064Z</time></trkpt><trkpt lat="43.8368387" lon="10.4140569"><ele>13.0</ele><time>2026-04-12T08:21:00.063Z</time></trkpt><trkpt lat="43.8369826" lon="10.4141019"><ele>13.0</ele><time>2026-04-12T08:21:01.064Z</time></trkpt><trkpt lat="43.837146" lon="10.4141478"><ele>13.0</ele><time>2026-04-12T08:21:02.065Z</time></trkpt><trkpt lat="43.8373142" lon="10.4141977"><ele>13.0</ele><time>2026-04-12T08:21:03.066Z</time></trkpt><trkpt lat="43.8374867" lon="10.4142409"><ele>13.333333333333332</ele><time>2026-04-12T08:21:04.065Z</time></trkpt><trkpt lat="43.837654" lon="10.4142874"><ele>13.666666666666668</ele><time>2026-04-12T08:21:05.064Z</time></trkpt><trkpt lat="43.837813" lon="10.4143348"><ele>14.0</ele><time>2026-04-12T08:21:06.065Z</time></trkpt><trkpt lat="43.8379653" lon="10.4143802"><ele>14.0</ele><time>2026-04-12T08:21:07.066Z</time></trkpt><trkpt lat="43.8381106" lon="10.414424"><ele>14.0</ele><time>2026-04-12T08:21:08.066Z</time></trkpt><trkpt lat="43.8382515" lon="10.4144746"><ele>14.0</ele><time>2026-04-12T08:21:09.064Z</time></trkpt><trkpt lat="43.8383918" lon="10.4145241"><ele>14.0</ele><time>2026-04-12T08:21:10.063Z</time></trkpt><trkpt lat="43.8385293" lon="10.4145684"><ele>14.25</ele><time>2026-04-12T08:21:11.062Z</time></trkpt><trkpt lat="43.8386621" lon="10.4146096"><ele>14.5</ele><time>2026-04-12T08:21:12.062Z</time></trkpt><trkpt lat="43.8387899" lon="10.414651"><ele>14.75</ele><time>2026-04-12T08:21:13.069Z</time></trkpt><trkpt lat="43.8389081" lon="10.4146984"><ele>15.0</ele><time>2026-04-12T08:21:14.063Z</time></trkpt><trkpt lat="43.8390066" lon="10.4147499"><ele>15.0</ele><time>2026-04-12T08:21:15.063Z</time></trkpt><trkpt lat="43.8390812" lon="10.4147941"><ele>15.0</ele><time>2026-04-12T08:21:16.065Z</time></trkpt><trkpt lat="43.8391747" lon="10.414785"><ele>15.0</ele><time>2026-04-12T08:21:18.064Z</time></trkpt><trkpt lat="43.8391909" lon="10.4146621"><ele>15.0</ele><time>2026-04-12T08:21:20.065Z</time></trkpt><trkpt lat="43.8391714" lon="10.4145583"><ele>15.0</ele><time>2026-04-12T08:21:21.062Z</time></trkpt><trkpt lat="43.8391474" lon="10.4144621"><ele>15.0</ele><time>2026-04-12T08:21:22.064Z</time></trkpt><trkpt lat="43.8391255" lon="10.4143687"><ele>15.0</ele><time>2026-04-12T08:21:23.069Z</time></trkpt><trkpt lat="43.8391008" lon="10.4142875"><ele>15.0</ele><time>2026-04-12T08:21:24.061Z</time></trkpt><trkpt lat="43.8390712" lon="10.4142047"><ele>15.0</ele><time>2026-04-12T08:21:25.061Z</time></trkpt><trkpt lat="43.8390372" lon="10.4141274"><ele>15.0</ele><time>2026-04-12T08:21:26.062Z</time></trkpt><trkpt lat="43.8390143" lon="10.413987"><ele>15.0</ele><time>2026-04-12T08:21:28.063Z</time></trkpt><trkpt lat="43.8390804" lon="10.4138563"><ele>15.0</ele><time>2026-04-12T08:21:30.064Z</time></trkpt><trkpt lat="43.8391144" lon="10.4137565"><ele>15.333333333333334</ele><time>2026-04-12T08:21:31.064Z</time></trkpt><trkpt lat="43.8391295" lon="10.4136437"><ele>15.666666666666668</ele><time>2026-04-12T08:21:32.065Z</time></trkpt><trkpt lat="43.8391321" lon="10.4135277"><ele>16.0</ele><time>2026-04-12T08:21:33.065Z</time></trkpt><trkpt lat="43.8391337" lon="10.4134164"><ele>16.333333333333336</ele><time>2026-04-12T08:21:34.063Z</time></trkpt><trkpt lat="43.8391294" lon="10.4133035"><ele>16.666666666666668</ele><time>2026-04-12T08:21:35.063Z</time></trkpt><trkpt lat="43.8391121" lon="10.4131974"><ele>17.0</ele><time>2026-04-12T08:21:36.064Z</time></trkpt><trkpt lat="43.8390567" lon="10.4131025"><ele>17.0</ele><time>2026-04-12T08:21:37.065Z</time></trkpt><trkpt lat="43.8389699" lon="10.4130241"><ele>17.0</ele><time>2026-04-12T08:21:38.064Z</time></trkpt><trkpt lat="43.8388712" lon="10.4129425"><ele>17.0</ele><time>2026-04-12T08:21:39.064Z</time></trkpt><trkpt lat="43.8387725" lon="10.4128621"><ele>17.0</ele><time>2026-04-12T08:21:40.064Z</time></trkpt><trkpt lat="43.8386854" lon="10.4127898"><ele>17.0</ele><time>2026-04-12T08:21:41.061Z</time></trkpt><trkpt lat="43.8386088" lon="10.4127308"><ele>19.8</ele><time>2026-04-12T08:21:42.061Z</time></trkpt><trkpt lat="43.838543" lon="10.4126852"><ele>22.6</ele><time>2026-04-12T08:21:43.055Z</time></trkpt><trkpt lat="43.8384861" lon="10.4125899"><ele>25.400000000000002</ele><time>2026-04-12T08:21:45.061Z</time></trkpt><trkpt lat="43.8385782" lon="10.4125203"><ele>28.2</ele><time>2026-04-12T08:21:47.063Z</time></trkpt><trkpt lat="43.838669" lon="10.412534"><ele>31.0</ele><time>2026-04-12T08:21:48.06Z</time></trkpt><trkpt lat="43.838774" lon="10.4125604"><ele>31.0</ele><time>2026-04-12T08:21:49.064Z</time></trkpt><trkpt lat="43.8388847" lon="10.4125858"><ele>31.0</ele><time>2026-04-12T08:21:50.06Z</time></trkpt><trkpt lat="43.8389882" lon="10.4125885"><ele>31.0</ele><time>2026-04-12T08:21:51.061Z</time></trkpt><trkpt lat="43.8390768" lon="10.4125645"><ele>31.0</ele><time>2026-04-12T08:21:52.059Z</time></trkpt><trkpt lat="43.8391553" lon="10.4125148"><ele>31.0</ele><time>2026-04-12T08:21:53.062Z</time></trkpt><trkpt lat="43.8392245" lon="10.4124344"><ele>31.000000000000004</ele><time>2026-04-12T08:21:54.061Z</time></trkpt><trkpt lat="43.839285" lon="10.4123651"><ele>31.0</ele><time>2026-04-12T08:21:55.061Z</time></trkpt><trkpt lat="43.8393402" lon="10.4123058"><ele>31.0</ele><time>2026-04-12T08:21:56.059Z</time></trkpt><trkpt lat="43.8393933" lon="10.4122566"><ele>31.0</ele><time>2026-04-12T08:21:57.059Z</time></trkpt><trkpt lat="43.8394915" lon="10.4121676"><ele>31.000000000000004</ele><time>2026-04-12T08:21:59.064Z</time></trkpt><trkpt lat="43.8395379" lon="10.4120865"><ele>31.0</ele><time>2026-04-12T08:22:01.06Z</time></trkpt><trkpt lat="43.8395425" lon="10.4119863"><ele>33.5</ele><time>2026-04-12T08:22:08.061Z</time></trkpt><trkpt lat="43.8395649" lon="10.4118906"><ele>36.0</ele><time>2026-04-12T08:22:11.059Z</time></trkpt><trkpt lat="43.8396479" lon="10.411856"><ele>38.5</ele><time>2026-04-12T08:22:14.064Z</time></trkpt><trkpt lat="43.8397551" lon="10.4118592"><ele>41.0</ele><time>2026-04-12T08:22:16.062Z</time></trkpt><trkpt lat="43.8398185" lon="10.4118586"><ele>43.5</ele><time>2026-04-12T08:22:17.061Z</time></trkpt><trkpt lat="43.8399276" lon="10.4118666"><ele>46.0</ele><time>2026-04-12T08:22:19.06Z</time></trkpt><trkpt lat="43.8400116" lon="10.4118516"><ele>46.0</ele><time>2026-04-12T08:22:21.06Z</time></trkpt><trkpt lat="43.8400669" lon="10.4117976"><ele>46.0</ele><time>2026-04-12T08:22:23.064Z</time></trkpt><trkpt lat="43.8401161" lon="10.4117082"><ele>46.0</ele><time>2026-04-12T08:22:25.061Z</time></trkpt><trkpt lat="43.8402033" lon="10.4116231"><ele>46.0</ele><time>2026-04-12T08:22:27.061Z</time></trkpt><trkpt lat="43.840308" lon="10.4115783"><ele>46.0</ele><time>2026-04-12T08:22:29.06Z</time></trkpt><trkpt lat="43.8404109" lon="10.4115089"><ele>46.16666666666667</ele><time>2026-04-12T08:22:31.062Z</time></trkpt><trkpt lat="43.8405094" lon="10.4114611"><ele>46.333333333333336</ele><time>2026-04-12T08:22:33.063Z</time></trkpt><trkpt lat="43.8405886" lon="10.4114417"><ele>46.5</ele><time>2026-04-12T08:22:35.06Z</time></trkpt><trkpt lat="43.8405177" lon="10.4113569"><ele>46.666666666666664</ele><time>2026-04-12T08:22:40.06Z</time></trkpt><trkpt lat="43.8404538" lon="10.4113513"><ele>46.83333333333333</ele><time>2026-04-12T08:22:41.061Z</time></trkpt><trkpt lat="43.8403848" lon="10.4113497"><ele>47.0</ele><time>2026-04-12T08:22:42.062Z</time></trkpt><trkpt lat="43.8403186" lon="10.4113524"><ele>47.0</ele><time>2026-04-12T08:22:43.065Z</time></trkpt><trkpt lat="43.8402008" lon="10.411361"><ele>47.0</ele><time>2026-04-12T08:22:45.06Z</time></trkpt><trkpt lat="43.8401097" lon="10.4113552"><ele>47.0</ele><time>2026-04-12T08:22:47.062Z</time></trkpt><trkpt lat="43.8400322" lon="10.4113474"><ele>47.0</ele><time>2026-04-12T08:22:50.061Z</time></trkpt><trkpt lat="43.8399659" lon="10.4113152"><ele>47.0</ele><time>2026-04-12T08:22:53.065Z</time></trkpt><trkpt lat="43.8399119" lon="10.4112674"><ele>47.0</ele><time>2026-04-12T08:22:55.06Z</time></trkpt><trkpt lat="43.8398397" lon="10.4112074"><ele>51.0</ele><time>2026-04-12T08:22:57.062Z</time></trkpt><trkpt lat="43.839753" lon="10.4111569"><ele>55.0</ele><time>2026-04-12T08:22:59.062Z</time></trkpt><trkpt lat="43.839661" lon="10.4111363"><ele>59.0</ele><time>2026-04-12T08:23:01.061Z</time></trkpt><trkpt lat="43.8395978" lon="10.4111007"><ele>63.0</ele><time>2026-04-12T08:23:03.06Z</time></trkpt><trkpt lat="43.8396454" lon="10.4110331"><ele>67.0</ele><time>2026-04-12T08:23:06.061Z</time></trkpt><trkpt lat="43.8397367" lon="10.4110311"><ele>71.0</ele><time>2026-04-12T08:23:08.054Z</time></trkpt><trkpt lat="43.8398426" lon="10.4110163"><ele>71.0</ele><time>2026-04-12T08:23:10.06Z</time></trkpt><trkpt lat="43.8399365" lon="10.4109803"><ele>71.0</ele><time>2026-04-12T08:23:12.059Z</time></trkpt><trkpt lat="43.8400194" lon="10.4109249"><ele>71.0</ele><time>2026-04-12T08:23:14.062Z</time></trkpt><trkpt lat="43.8400928" lon="10.4108419"><ele>71.0</ele><time>2026-04-12T08:23:16.06Z</time></trkpt><trkpt lat="43.8401739" lon="10.4107743"><ele>71.0</ele><time>2026-04-12T08:23:18.059Z</time></trkpt><trkpt lat="43.8402472" lon="10.4107265"><ele>71.16666666666667</ele><time>2026-04-12T08:23:20.061Z</time></trkpt><trkpt lat="43.8403038" lon="10.4106444"><ele>71.33333333333334</ele><time>2026-04-12T08:23:22.06Z</time></trkpt><trkpt lat="43.8403631" lon="10.410554"><ele>71.5</ele><time>2026-04-12T08:23:24.06Z</time></trkpt><trkpt lat="43.8404332" lon="10.4104559"><ele>71.66666666666667</ele><time>2026-04-12T08:23:26.061Z</time></trkpt><trkpt lat="43.8404978" lon="10.4103952"><ele>71.83333333333333</ele><time>2026-04-12T08:23:28.06Z</time></trkpt><trkpt lat="43.840427" lon="10.4103123"><ele>72.0</ele><time>2026-04-12T08:23:35.062Z</time></trkpt><trkpt lat="43.8403742" lon="10.4102452"><ele>73.83333333333333</ele><time>2026-04-12T08:23:37.062Z</time></trkpt><trkpt lat="43.8403565" lon="10.4101401"><ele>75.66666666666667</ele><time>2026-04-12T08:23:39.064Z</time></trkpt><trkpt lat="43.8403296" lon="10.4100182"><ele>77.5</ele><time>2026-04-12T08:23:42.061Z</time></trkpt><trkpt lat="43.8403284" lon="10.4099154"><ele>79.33333333333334</ele><time>2026-04-12T08:23:44.062Z</time></trkpt><trkpt lat="43.8403879" lon="10.4098677"><ele>81.16666666666667</ele><time>2026-04-12T08:23:46.064Z</time></trkpt><trkpt lat="43.8404718" lon="10.409846"><ele>83.0</ele><time>2026-04-12T08:23:48.062Z</time></trkpt><trkpt lat="43.8405469" lon="10.4098524"><ele>83.0</ele><time>2026-04-12T08:23:50.06Z</time></trkpt><trkpt lat="43.8406127" lon="10.4098552"><ele>83.0</ele><time>2026-04-12T08:23:52.064Z</time></trkpt><trkpt lat="43.8406859" lon="10.4098319"><ele>83.0</ele><time>2026-04-12T08:23:55.061Z</time></trkpt><trkpt lat="43.8407724" lon="10.4097929"><ele>83.0</ele><time>2026-04-12T08:23:57.062Z</time></trkpt><trkpt lat="43.8408738" lon="10.4097068"><ele>83.0</ele><time>2026-04-12T08:23:59.064Z</time></trkpt><trkpt lat="43.8409767" lon="10.4096426"><ele>83.0</ele><time>2026-04-12T08:24:01.061Z</time></trkpt><trkpt lat="43.8410899" lon="10.4096084"><ele>83.0</ele><time>2026-04-12T08:24:03.068Z</time></trkpt><trkpt lat="43.8411787" lon="10.4095748"><ele>83.0</ele><time>2026-04-12T08:24:05.064Z</time></trkpt><trkpt lat="43.8412474" lon="10.4095024"><ele>83.0</ele><time>2026-04-12T08:24:07.06Z</time></trkpt><trkpt lat="43.8413266" lon="10.4094495"><ele>83.0</ele><time>2026-04-12T08:24:09.064Z</time></trkpt><trkpt lat="43.8414428" lon="10.4094084"><ele>83.0</ele><time>2026-04-12T08:24:11.062Z</time></trkpt><trkpt lat="43.8415251" lon="10.409366"><ele>83.0</ele><time>2026-04-12T08:24:12.065Z</time></trkpt><trkpt lat="43.8415956" lon="10.4093402"><ele>83.0</ele><time>2026-04-12T08:24:13.063Z</time></trkpt><trkpt lat="43.8416843" lon="10.4093003"><ele>83.0</ele><time>2026-04-12T08:24:15.061Z</time></trkpt><trkpt lat="43.8417487" lon="10.409184"><ele>83.0</ele><time>2026-04-12T08:25:03.068Z</time></trkpt><trkpt lat="43.8417821" lon="10.4091061"><ele>83.0</ele><time>2026-04-12T08:25:04.062Z</time></trkpt><trkpt lat="43.8418135" lon="10.4090064"><ele>82.2</ele><time>2026-04-12T08:25:05.058Z</time></trkpt><trkpt lat="43.8418403" lon="10.4088965"><ele>81.4</ele><time>2026-04-12T08:25:06.06Z</time></trkpt><trkpt lat="43.8418679" lon="10.408783"><ele>80.60000000000001</ele><time>2026-04-12T08:25:07.059Z</time></trkpt><trkpt lat="43.8418986" lon="10.4086852"><ele>79.80000000000001</ele><time>2026-04-12T08:25:08.06Z</time></trkpt><trkpt lat="43.8419986" lon="10.4085996"><ele>79.0</ele><time>2026-04-12T08:25:10.06Z</time></trkpt><trkpt lat="43.8420822" lon="10.4086259"><ele>79.0</ele><time>2026-04-12T08:25:11.06Z</time></trkpt><trkpt lat="43.8421685" lon="10.4086949"><ele>79.0</ele><time>2026-04-12T08:25:12.062Z</time></trkpt><trkpt lat="43.8422492" lon="10.4088109"><ele>79.0</ele><time>2026-04-12T08:25:13.064Z</time></trkpt><trkpt lat="43.8423307" lon="10.4089333"><ele>79.0</ele><time>2026-04-12T08:25:14.062Z</time></trkpt><trkpt lat="43.8424136" lon="10.4090561"><ele>79.0</ele><time>2026-04-12T08:25:15.065Z</time></trkpt><trkpt lat="43.8424954" lon="10.4091533"><ele>79.0</ele><time>2026-04-12T08:25:16.077Z</time></trkpt><trkpt lat="43.8425833" lon="10.4092188"><ele>79.0</ele><time>2026-04-12T08:25:17.075Z</time></trkpt><trkpt lat="43.8426715" lon="10.4092569"><ele>79.0</ele><time>2026-04-12T08:25:18.073Z</time></trkpt><trkpt lat="43.8427513" lon="10.4092939"><ele>79.0</ele><time>2026-04-12T08:25:19.074Z</time></trkpt><trkpt lat="43.842816" lon="10.4093593"><ele>79.80000000000001</ele><time>2026-04-12T08:25:20.072Z</time></trkpt><trkpt lat="43.8428713" lon="10.4094639"><ele>80.60000000000001</ele><time>2026-04-12T08:25:21.07Z</time></trkpt><trkpt lat="43.8429198" lon="10.4095913"><ele>81.4</ele><time>2026-04-12T08:25:22.071Z</time></trkpt><trkpt lat="43.8429611" lon="10.4097144"><ele>82.2</ele><time>2026-04-12T08:25:23.075Z</time></trkpt><trkpt lat="43.8430022" lon="10.4098312"><ele>83.0</ele><time>2026-04-12T08:25:24.072Z</time></trkpt><trkpt lat="43.8430456" lon="10.4099345"><ele>80.16666666666667</ele><time>2026-04-12T08:25:25.072Z</time></trkpt><trkpt lat="43.8431027" lon="10.4099901"><ele>77.33333333333334</ele><time>2026-04-12T08:25:26.076Z</time></trkpt><trkpt lat="43.8431742" lon="10.4099974"><ele>74.5</ele><time>2026-04-12T08:25:27.071Z</time></trkpt><trkpt lat="43.8432529" lon="10.4099958"><ele>71.66666666666667</ele><time>2026-04-12T08:25:28.074Z</time></trkpt><trkpt lat="43.8433303" lon="10.4099942"><ele>68.83333333333333</ele><time>2026-04-12T08:25:29.079Z</time></trkpt><trkpt lat="43.8434085" lon="10.4099833"><ele>66.0</ele><time>2026-04-12T08:25:30.079Z</time></trkpt><trkpt lat="43.8434844" lon="10.4099747"><ele>65.16666666666667</ele><time>2026-04-12T08:25:31.077Z</time></trkpt><trkpt lat="43.8435586" lon="10.4099618"><ele>64.33333333333333</ele><time>2026-04-12T08:25:32.081Z</time></trkpt><trkpt lat="43.8436346" lon="10.4099354"><ele>63.5</ele><time>2026-04-12T08:25:33.082Z</time></trkpt><trkpt lat="43.8437162" lon="10.4098913"><ele>62.666666666666664</ele><time>2026-04-12T08:25:34.075Z</time></trkpt><trkpt lat="43.8438072" lon="10.4098373"><ele>61.83333333333333</ele><time>2026-04-12T08:25:35.078Z</time></trkpt><trkpt lat="43.8439068" lon="10.4097787"><ele>61.0</ele><time>2026-04-12T08:25:36.077Z</time></trkpt><trkpt lat="43.8440136" lon="10.4097052"><ele>60.49999999999999</ele><time>2026-04-12T08:25:37.078Z</time></trkpt><trkpt lat="43.8441103" lon="10.4096319"><ele>60.0</ele><time>2026-04-12T08:25:38.077Z</time></trkpt><trkpt lat="43.8441991" lon="10.4095679"><ele>59.5</ele><time>2026-04-12T08:25:39.078Z</time></trkpt><trkpt lat="43.8442796" lon="10.4095372"><ele>59.0</ele><time>2026-04-12T08:25:40.078Z</time></trkpt><trkpt lat="43.8443472" lon="10.4095496"><ele>58.49999999999999</ele><time>2026-04-12T08:25:41.069Z</time></trkpt><trkpt lat="43.8444099" lon="10.4096174"><ele>58.0</ele><time>2026-04-12T08:25:42.075Z</time></trkpt><trkpt lat="43.8444749" lon="10.4097211"><ele>56.4</ele><time>2026-04-12T08:25:43.078Z</time></trkpt><trkpt lat="43.8445421" lon="10.4098386"><ele>54.8</ele><time>2026-04-12T08:25:44.079Z</time></trkpt><trkpt lat="43.844606" lon="10.4099588"><ele>53.2</ele><time>2026-04-12T08:25:45.078Z</time></trkpt><trkpt lat="43.8446684" lon="10.4100886"><ele>51.6</ele><time>2026-04-12T08:25:46.078Z</time></trkpt><trkpt lat="43.8447275" lon="10.4102188"><ele>50.0</ele><time>2026-04-12T08:25:47.078Z</time></trkpt><trkpt lat="43.8447769" lon="10.4103553"><ele>50.4</ele><time>2026-04-12T08:25:48.078Z</time></trkpt><trkpt lat="43.8448176" lon="10.410498"><ele>50.8</ele><time>2026-04-12T08:25:49.078Z</time></trkpt><trkpt lat="43.8448501" lon="10.410644"><ele>51.2</ele><time>2026-04-12T08:25:50.079Z</time></trkpt><trkpt lat="43.8448744" lon="10.4107948"><ele>51.6</ele><time>2026-04-12T08:25:51.077Z</time></trkpt><trkpt lat="43.8448977" lon="10.4109392"><ele>52.0</ele><time>2026-04-12T08:25:52.078Z</time></trkpt><trkpt lat="43.8449234" lon="10.4110759"><ele>52.0</ele><time>2026-04-12T08:25:53.078Z</time></trkpt><trkpt lat="43.8449595" lon="10.4112058"><ele>52.0</ele><time>2026-04-12T08:25:54.077Z</time></trkpt><trkpt lat="43.8450082" lon="10.4113272"><ele>52.0</ele><time>2026-04-12T08:25:55.077Z</time></trkpt><trkpt lat="43.8450706" lon="10.4114355"><ele>52.0</ele><time>2026-04-12T08:25:56.076Z</time></trkpt><trkpt lat="43.8451403" lon="10.4115338"><ele>52.0</ele><time>2026-04-12T08:25:57.064Z</time></trkpt><trkpt lat="43.8452135" lon="10.4116353"><ele>49.6</ele><time>2026-04-12T08:25:58.076Z</time></trkpt><trkpt lat="43.8452895" lon="10.4117371"><ele>47.2</ele><time>2026-04-12T08:25:59.065Z</time></trkpt><trkpt lat="43.8453621" lon="10.4118345"><ele>44.8</ele><time>2026-04-12T08:26:00.078Z</time></trkpt><trkpt lat="43.8454309" lon="10.411927"><ele>42.4</ele><time>2026-04-12T08:26:01.077Z</time></trkpt><trkpt lat="43.8454968" lon="10.4120146"><ele>40.0</ele><time>2026-04-12T08:26:02.075Z</time></trkpt><trkpt lat="43.8455596" lon="10.4120948"><ele>40.0</ele><time>2026-04-12T08:26:03.077Z</time></trkpt><trkpt lat="43.8456237" lon="10.4121783"><ele>40.0</ele><time>2026-04-12T08:26:04.075Z</time></trkpt><trkpt lat="43.8456864" lon="10.4122523"><ele>40.0</ele><time>2026-04-12T08:26:05.075Z</time></trkpt><trkpt lat="43.8457459" lon="10.4123218"><ele>40.0</ele><time>2026-04-12T08:26:06.076Z</time></trkpt><trkpt lat="43.8457989" lon="10.4123884"><ele>40.0</ele><time>2026-04-12T08:26:07.076Z</time></trkpt><trkpt lat="43.8458682" lon="10.4124945"><ele>40.0</ele><time>2026-04-12T08:26:09.079Z</time></trkpt><trkpt lat="43.845913" lon="10.4126821"><ele>40.0</ele><time>2026-04-12T08:26:11.077Z</time></trkpt><trkpt lat="43.8459248" lon="10.4128166"><ele>40.0</ele><time>2026-04-12T08:26:12.077Z</time></trkpt><trkpt lat="43.8459324" lon="10.4129704"><ele>40.0</ele><time>2026-04-12T08:26:13.079Z</time></trkpt><trkpt lat="43.845946" lon="10.4131346"><ele>40.0</ele><time>2026-04-12T08:26:14.078Z</time></trkpt><trkpt lat="43.8459597" lon="10.4133024"><ele>39.0</ele><time>2026-04-12T08:26:15.078Z</time></trkpt><trkpt lat="43.8459726" lon="10.4134733"><ele>38.0</ele><time>2026-04-12T08:26:16.078Z</time></trkpt><trkpt lat="43.845984" lon="10.4136372"><ele>37.0</ele><time>2026-04-12T08:26:17.08Z</time></trkpt><trkpt lat="43.8459935" lon="10.4137915"><ele>36.0</ele><time>2026-04-12T08:26:18.079Z</time></trkpt><trkpt lat="43.8460002" lon="10.4139387"><ele>35.2</ele><time>2026-04-12T08:26:19.081Z</time></trkpt><trkpt lat="43.8460065" lon="10.414077"><ele>34.400000000000006</ele><time>2026-04-12T08:26:20.079Z</time></trkpt><trkpt lat="43.8460104" lon="10.4142133"><ele>33.6</ele><time>2026-04-12T08:26:21.079Z</time></trkpt><trkpt lat="43.8460099" lon="10.4143419"><ele>32.800000000000004</ele><time>2026-04-12T08:26:22.079Z</time></trkpt><trkpt lat="43.846005" lon="10.414465"><ele>32.0</ele><time>2026-04-12T08:26:23.08Z</time></trkpt><trkpt lat="43.845999" lon="10.4145813"><ele>31.833333333333332</ele><time>2026-04-12T08:26:24.08Z</time></trkpt><trkpt lat="43.8459952" lon="10.4146776"><ele>31.666666666666664</ele><time>2026-04-12T08:26:25.078Z</time></trkpt><trkpt lat="43.8459997" lon="10.414789"><ele>31.5</ele><time>2026-04-12T08:26:27.078Z</time></trkpt><trkpt lat="43.8460326" lon="10.4148638"><ele>31.333333333333336</ele><time>2026-04-12T08:26:29.079Z</time></trkpt><trkpt lat="43.8461096" lon="10.4149807"><ele>31.166666666666668</ele><time>2026-04-12T08:26:31.078Z</time></trkpt><trkpt lat="43.8461706" lon="10.4150591"><ele>31.0</ele><time>2026-04-12T08:26:32.075Z</time></trkpt><trkpt lat="43.8462381" lon="10.4151511"><ele>31.0</ele><time>2026-04-12T08:26:33.077Z</time></trkpt><trkpt lat="43.8463102" lon="10.4152365"><ele>31.0</ele><time>2026-04-12T08:26:34.078Z</time></trkpt><trkpt lat="43.8463809" lon="10.4153297"><ele>31.0</ele><time>2026-04-12T08:26:35.078Z</time></trkpt><trkpt lat="43.8464496" lon="10.4154405"><ele>31.0</ele><time>2026-04-12T08:26:36.079Z</time></trkpt><trkpt lat="43.8465047" lon="10.4155594"><ele>31.0</ele><time>2026-04-12T08:26:37.078Z</time></trkpt><trkpt lat="43.8465424" lon="10.4156768"><ele>31.200000000000003</ele><time>2026-04-12T08:26:38.078Z</time></trkpt><trkpt lat="43.8465621" lon="10.415781"><ele>31.400000000000002</ele><time>2026-04-12T08:26:39.079Z</time></trkpt><trkpt lat="43.8465464" lon="10.4159156"><ele>31.6</ele><time>2026-04-12T08:26:41.079Z</time></trkpt><trkpt lat="43.8464677" lon="10.4160468"><ele>31.8</ele><time>2026-04-12T08:26:43.082Z</time></trkpt><trkpt lat="43.8464017" lon="10.4161401"><ele>32.0</ele><time>2026-04-12T08:26:44.081Z</time></trkpt><trkpt lat="43.8463154" lon="10.4162465"><ele>32.75</ele><time>2026-04-12T08:26:45.08Z</time></trkpt><trkpt lat="43.8462183" lon="10.4163536"><ele>33.5</ele><time>2026-04-12T08:26:46.079Z</time></trkpt><trkpt lat="43.8461072" lon="10.4164544"><ele>34.25</ele><time>2026-04-12T08:26:47.078Z</time></trkpt><trkpt lat="43.8459826" lon="10.4165473"><ele>35.0</ele><time>2026-04-12T08:26:48.077Z</time></trkpt><trkpt lat="43.8458531" lon="10.4166498"><ele>32.5</ele><time>2026-04-12T08:26:49.08Z</time></trkpt><trkpt lat="43.8457348" lon="10.4167588"><ele>30.0</ele><time>2026-04-12T08:26:50.079Z</time></trkpt><trkpt lat="43.8456234" lon="10.416884"><ele>27.5</ele><time>2026-04-12T08:26:51.078Z</time></trkpt><trkpt lat="43.8455112" lon="10.4170123"><ele>25.0</ele><time>2026-04-12T08:26:52.079Z</time></trkpt><trkpt lat="43.8453907" lon="10.4171342"><ele>24.0</ele><time>2026-04-12T08:26:53.079Z</time></trkpt><trkpt lat="43.8452624" lon="10.4172517"><ele>23.0</ele><time>2026-04-12T08:26:54.081Z</time></trkpt><trkpt lat="43.8451295" lon="10.4173546"><ele>22.0</ele><time>2026-04-12T08:26:55.078Z</time></trkpt><trkpt lat="43.8450047" lon="10.4174376"><ele>21.0</ele><time>2026-04-12T08:26:56.078Z</time></trkpt><trkpt lat="43.8448873" lon="10.4175031"><ele>19.5</ele><time>2026-04-12T08:26:57.081Z</time></trkpt><trkpt lat="43.8447725" lon="10.4175487"><ele>18.0</ele><time>2026-04-12T08:26:58.079Z</time></trkpt><trkpt lat="43.8446589" lon="10.4175824"><ele>16.5</ele><time>2026-04-12T08:26:59.065Z</time></trkpt><trkpt lat="43.8445447" lon="10.4176034"><ele>15.0</ele><time>2026-04-12T08:27:00.079Z</time></trkpt><trkpt lat="43.8444296" lon="10.4176016"><ele>15.0</ele><time>2026-04-12T08:27:01.079Z</time></trkpt><trkpt lat="43.8443121" lon="10.4175734"><ele>15.0</ele><time>2026-04-12T08:27:02.082Z</time></trkpt><trkpt lat="43.8441986" lon="10.4175209"><ele>15.0</ele><time>2026-04-12T08:27:03.081Z</time></trkpt><trkpt lat="43.8441027" lon="10.4174531"><ele>15.0</ele><time>2026-04-12T08:27:04.079Z</time></trkpt><trkpt lat="43.8440278" lon="10.4173963"><ele>15.0</ele><time>2026-04-12T08:27:05.08Z</time></trkpt><trkpt lat="43.8439741" lon="10.41735"><ele>15.0</ele><time>2026-04-12T08:27:06.081Z</time></trkpt><trkpt lat="43.8438777" lon="10.4172664"><ele>15.0</ele><time>2026-04-12T08:27:08.08Z</time></trkpt><trkpt lat="43.8437926" lon="10.4171861"><ele>15.0</ele><time>2026-04-12T08:27:09.08Z</time></trkpt><trkpt lat="43.8436867" lon="10.4170822"><ele>15.0</ele><time>2026-04-12T08:27:10.079Z</time></trkpt><trkpt lat="43.8435732" lon="10.416974"><ele>14.25</ele><time>2026-04-12T08:27:11.081Z</time></trkpt><trkpt lat="43.843455" lon="10.416869"><ele>13.5</ele><time>2026-04-12T08:27:12.081Z</time></trkpt><trkpt lat="43.8433395" lon="10.4167638"><ele>12.75</ele><time>2026-04-12T08:27:13.085Z</time></trkpt><trkpt lat="43.8432174" lon="10.4166717"><ele>12.0</ele><time>2026-04-12T08:27:14.08Z</time></trkpt><trkpt lat="43.8430883" lon="10.4165894"><ele>12.0</ele><time>2026-04-12T08:27:15.08Z</time></trkpt><trkpt lat="43.8429516" lon="10.4165221"><ele>12.0</ele><time>2026-04-12T08:27:16.081Z</time></trkpt><trkpt lat="43.8428158" lon="10.4164634"><ele>12.0</ele><time>2026-04-12T08:27:17.081Z</time></trkpt><trkpt lat="43.8426711" lon="10.4164113"><ele>12.0</ele><time>2026-04-12T08:27:18.08Z</time></trkpt><trkpt lat="43.8425228" lon="10.4163669"><ele>12.5</ele><time>2026-04-12T08:27:19.081Z</time></trkpt><trkpt lat="43.8423754" lon="10.4163348"><ele>13.0</ele><time>2026-04-12T08:27:20.078Z</time></trkpt><trkpt lat="43.8422273" lon="10.4163159"><ele>13.5</ele><time>2026-04-12T08:27:21.081Z</time></trkpt><trkpt lat="43.8420781" lon="10.416313"><ele>14.0</ele><time>2026-04-12T08:27:22.079Z</time></trkpt><trkpt lat="43.8419279" lon="10.4163245"><ele>14.5</ele><time>2026-04-12T08:27:23.081Z</time></trkpt><trkpt lat="43.8417797" lon="10.4163414"><ele>15.0</ele><time>2026-04-12T08:27:24.08Z</time></trkpt><trkpt lat="43.8416349" lon="10.4163536"><ele>15.5</ele><time>2026-04-12T08:27:25.08Z</time></trkpt><trkpt lat="43.8415" lon="10.416347"><ele>16.0</ele><time>2026-04-12T08:27:26.082Z</time></trkpt><trkpt lat="43.8413811" lon="10.4163097"><ele>16.0</ele><time>2026-04-12T08:27:27.079Z</time></trkpt><trkpt lat="43.841281" lon="10.4162397"><ele>16.0</ele><time>2026-04-12T08:27:28.082Z</time></trkpt><trkpt lat="43.8412009" lon="10.4161272"><ele>16.0</ele><time>2026-04-12T08:27:29.081Z</time></trkpt><trkpt lat="43.8411355" lon="10.4159733"><ele>16.0</ele><time>2026-04-12T08:27:30.081Z</time></trkpt><trkpt lat="43.8410697" lon="10.4157897"><ele>16.0</ele><time>2026-04-12T08:27:31.08Z</time></trkpt><trkpt lat="43.8410077" lon="10.4155863"><ele>16.0</ele><time>2026-04-12T08:27:32.081Z</time></trkpt><trkpt lat="43.840942" lon="10.4153874"><ele>16.0</ele><time>2026-04-12T08:27:33.083Z</time></trkpt><trkpt lat="43.8408705" lon="10.4152046"><ele>16.400000000000002</ele><time>2026-04-12T08:27:34.079Z</time></trkpt><trkpt lat="43.8408104" lon="10.415021"><ele>16.8</ele><time>2026-04-12T08:27:35.078Z</time></trkpt><trkpt lat="43.840773" lon="10.4148604"><ele>17.200000000000003</ele><time>2026-04-12T08:27:36.079Z</time></trkpt><trkpt lat="43.8407573" lon="10.4147291"><ele>17.6</ele><time>2026-04-12T08:27:37.079Z</time></trkpt><trkpt lat="43.8407439" lon="10.4146251"><ele>18.0</ele><time>2026-04-12T08:27:38.08Z</time></trkpt><trkpt lat="43.8406283" lon="10.414549"><ele>18.0</ele><time>2026-04-12T08:27:40.065Z</time></trkpt><trkpt lat="43.8405401" lon="10.4145817"><ele>18.0</ele><time>2026-04-12T08:27:41.071Z</time></trkpt><trkpt lat="43.8404313" lon="10.4146469"><ele>18.0</ele><time>2026-04-12T08:27:42.065Z</time></trkpt><trkpt lat="43.840309" lon="10.4147409"><ele>18.0</ele><time>2026-04-12T08:27:43.067Z</time></trkpt><trkpt lat="43.840179" lon="10.4148034"><ele>17.25</ele><time>2026-04-12T08:27:44.065Z</time></trkpt><trkpt lat="43.8400503" lon="10.4148418"><ele>16.5</ele><time>2026-04-12T08:27:45.065Z</time></trkpt><trkpt lat="43.8399201" lon="10.4148774"><ele>15.75</ele><time>2026-04-12T08:27:46.065Z</time></trkpt><trkpt lat="43.8397887" lon="10.4149063"><ele>15.0</ele><time>2026-04-12T08:27:47.065Z</time></trkpt><trkpt lat="43.8396598" lon="10.4149221"><ele>15.0</ele><time>2026-04-12T08:27:48.065Z</time></trkpt><trkpt lat="43.8395317" lon="10.4149216"><ele>15.0</ele><time>2026-04-12T08:27:49.062Z</time></trkpt><trkpt lat="43.8394033" lon="10.4149017"><ele>15.0</ele><time>2026-04-12T08:27:50.063Z</time></trkpt><trkpt lat="43.8392739" lon="10.4148538"><ele>15.0</ele><time>2026-04-12T08:27:51.065Z</time></trkpt><trkpt lat="43.8391381" lon="10.4147911"><ele>15.0</ele><time>2026-04-12T08:27:52.064Z</time></trkpt><trkpt lat="43.8389989" lon="10.4147271"><ele>15.0</ele><time>2026-04-12T08:27:53.068Z</time></trkpt><trkpt lat="43.838857" lon="10.4146671"><ele>15.0</ele><time>2026-04-12T08:27:54.06Z</time></trkpt><trkpt lat="43.8387142" lon="10.414606"><ele>15.0</ele><time>2026-04-12T08:27:55.062Z</time></trkpt><trkpt lat="43.8385683" lon="10.4145531"><ele>14.666666666666668</ele><time>2026-04-12T08:27:56.057Z</time></trkpt><trkpt lat="43.8384216" lon="10.4144996"><ele>14.333333333333334</ele><time>2026-04-12T08:27:57.058Z</time></trkpt><trkpt lat="43.8382741" lon="10.4144457"><ele>14.0</ele><time>2026-04-12T08:27:58.064Z</time></trkpt><trkpt lat="43.8381303" lon="10.4143946"><ele>14.0</ele><time>2026-04-12T08:27:59.066Z</time></trkpt><trkpt lat="43.8379879" lon="10.41435"><ele>14.0</ele><time>2026-04-12T08:28:00.063Z</time></trkpt><trkpt lat="43.8378447" lon="10.4143092"><ele>14.0</ele><time>2026-04-12T08:28:01.062Z</time></trkpt><trkpt lat="43.8376987" lon="10.4142711"><ele>14.0</ele><time>2026-04-12T08:28:02.058Z</time></trkpt><trkpt lat="43.8375527" lon="10.4142342"><ele>13.666666666666668</ele><time>2026-04-12T08:28:03.063Z</time></trkpt><trkpt lat="43.8374051" lon="10.4141999"><ele>13.333333333333332</ele><time>2026-04-12T08:28:04.062Z</time></trkpt><trkpt lat="43.8372511" lon="10.4141662"><ele>13.0</ele><time>2026-04-12T08:28:05.063Z</time></trkpt><trkpt lat="43.837095" lon="10.4141186"><ele>13.0</ele><time>2026-04-12T08:28:06.064Z</time></trkpt><trkpt lat="43.8369453" lon="10.4140683"><ele>13.0</ele><time>2026-04-12T08:28:07.063Z</time></trkpt><trkpt lat="43.8368081" lon="10.414018"><ele>13.0</ele><time>2026-04-12T08:28:08.062Z</time></trkpt><trkpt lat="43.8366821" lon="10.4139704"><ele>13.0</ele><time>2026-04-12T08:28:09.064Z</time></trkpt><trkpt lat="43.8365783" lon="10.4139228"><ele>12.8</ele><time>2026-04-12T08:28:10.064Z</time></trkpt><trkpt lat="43.8365014" lon="10.4138691"><ele>12.600000000000001</ele><time>2026-04-12T08:28:11.064Z</time></trkpt><trkpt lat="43.8364497" lon="10.4137998"><ele>12.399999999999999</ele><time>2026-04-12T08:28:12.063Z</time></trkpt><trkpt lat="43.8364115" lon="10.4136912"><ele>12.2</ele><time>2026-04-12T08:28:13.068Z</time></trkpt><trkpt lat="43.8363758" lon="10.4135377"><ele>12.0</ele><time>2026-04-12T08:28:14.065Z</time></trkpt><trkpt lat="43.8363268" lon="10.4133535"><ele>13.0</ele><time>2026-04-12T08:28:15.065Z</time></trkpt><trkpt lat="43.8362646" lon="10.413168"><ele>14.0</ele><time>2026-04-12T08:28:16.065Z</time></trkpt><trkpt lat="43.8362052" lon="10.4129966"><ele>15.0</ele><time>2026-04-12T08:28:17.065Z</time></trkpt><trkpt lat="43.8361631" lon="10.412843"><ele>16.0</ele><time>2026-04-12T08:28:18.069Z</time></trkpt><trkpt lat="43.8361426" lon="10.4126986"><ele>16.0</ele><time>2026-04-12T08:28:19.063Z</time></trkpt><trkpt lat="43.8361476" lon="10.4125642"><ele>16.0</ele><time>2026-04-12T08:28:20.064Z</time></trkpt><trkpt lat="43.8361711" lon="10.4124389"><ele>16.0</ele><time>2026-04-12T08:28:21.064Z</time></trkpt><trkpt lat="43.8361945" lon="10.412296"><ele>16.0</ele><time>2026-04-12T08:28:22.063Z</time></trkpt><trkpt lat="43.8362148" lon="10.4121479"><ele>16.0</ele><time>2026-04-12T08:28:23.07Z</time></trkpt><trkpt lat="43.8362323" lon="10.4119923"><ele>15.5</ele><time>2026-04-12T08:28:24.064Z</time></trkpt><trkpt lat="43.8362398" lon="10.4118265"><ele>15.0</ele><time>2026-04-12T08:28:25.064Z</time></trkpt><trkpt lat="43.8362377" lon="10.4116518"><ele>14.5</ele><time>2026-04-12T08:28:26.066Z</time></trkpt><trkpt lat="43.8362287" lon="10.4114771"><ele>14.0</ele><time>2026-04-12T08:28:27.062Z</time></trkpt><trkpt lat="43.836219" lon="10.4113065"><ele>14.0</ele><time>2026-04-12T08:28:28.066Z</time></trkpt><trkpt lat="43.8362086" lon="10.4111386"><ele>14.0</ele><time>2026-04-12T08:28:29.065Z</time></trkpt><trkpt lat="43.8362016" lon="10.4109728"><ele>14.0</ele><time>2026-04-12T08:28:30.065Z</time></trkpt><trkpt lat="43.8361982" lon="10.4108087"><ele>14.0</ele><time>2026-04-12T08:28:31.064Z</time></trkpt><trkpt lat="43.8362032" lon="10.4106417"><ele>14.75</ele><time>2026-04-12T08:28:32.063Z</time></trkpt><trkpt lat="43.8362171" lon="10.4104752"><ele>15.5</ele><time>2026-04-12T08:28:33.065Z</time></trkpt><trkpt lat="43.8362327" lon="10.4102961"><ele>16.25</ele><time>2026-04-12T08:28:34.064Z</time></trkpt><trkpt lat="43.836249" lon="10.4101063"><ele>17.0</ele><time>2026-04-12T08:28:35.064Z</time></trkpt><trkpt lat="43.8362691" lon="10.4099148"><ele>17.0</ele><time>2026-04-12T08:28:36.067Z</time></trkpt><trkpt lat="43.8362956" lon="10.4097224"><ele>17.0</ele><time>2026-04-12T08:28:37.063Z</time></trkpt><trkpt lat="43.8363298" lon="10.4095321"><ele>17.0</ele><time>2026-04-12T08:28:38.065Z</time></trkpt><trkpt lat="43.8363702" lon="10.4093437"><ele>17.0</ele><time>2026-04-12T08:28:39.066Z</time></trkpt><trkpt lat="43.8364124" lon="10.4091502"><ele>16.75</ele><time>2026-04-12T08:28:40.064Z</time></trkpt><trkpt lat="43.836451" lon="10.4089556"><ele>16.5</ele><time>2026-04-12T08:28:41.066Z</time></trkpt><trkpt lat="43.8364814" lon="10.4087569"><ele>16.25</ele><time>2026-04-12T08:28:42.065Z</time></trkpt><trkpt lat="43.8365059" lon="10.4085537"><ele>16.0</ele><time>2026-04-12T08:28:43.059Z</time></trkpt><trkpt lat="43.8365297" lon="10.40835"><ele>16.0</ele><time>2026-04-12T08:28:44.065Z</time></trkpt><trkpt lat="43.8365528" lon="10.4081535"><ele>16.0</ele><time>2026-04-12T08:28:45.063Z</time></trkpt><trkpt lat="43.8365764" lon="10.4079736"><ele>16.0</ele><time>2026-04-12T08:28:46.063Z</time></trkpt><trkpt lat="43.8365965" lon="10.4078091"><ele>16.0</ele><time>2026-04-12T08:28:47.065Z</time></trkpt><trkpt lat="43.8366134" lon="10.4076638"><ele>16.2</ele><time>2026-04-12T08:28:48.065Z</time></trkpt><trkpt lat="43.8366218" lon="10.4075379"><ele>16.400000000000002</ele><time>2026-04-12T08:28:49.064Z</time></trkpt><trkpt lat="43.8366127" lon="10.407429"><ele>16.6</ele><time>2026-04-12T08:28:50.064Z</time></trkpt><trkpt lat="43.836579" lon="10.4073253"><ele>16.8</ele><time>2026-04-12T08:28:51.064Z</time></trkpt><trkpt lat="43.8365144" lon="10.4072177"><ele>17.0</ele><time>2026-04-12T08:28:52.065Z</time></trkpt><trkpt lat="43.8364303" lon="10.4071094"><ele>17.0</ele><time>2026-04-12T08:28:53.067Z</time></trkpt><trkpt lat="43.8363339" lon="10.4070008"><ele>17.0</ele><time>2026-04-12T08:28:54.064Z</time></trkpt><trkpt lat="43.8362309" lon="10.4068881"><ele>17.0</ele><time>2026-04-12T08:28:55.058Z</time></trkpt><trkpt lat="43.8361234" lon="10.4067767"><ele>17.0</ele><time>2026-04-12T08:28:56.064Z</time></trkpt><trkpt lat="43.8360161" lon="10.4066691"><ele>16.25</ele><time>2026-04-12T08:28:57.065Z</time></trkpt><trkpt lat="43.8359094" lon="10.4065613"><ele>15.5</ele><time>2026-04-12T08:28:58.063Z</time></trkpt><trkpt lat="43.8358097" lon="10.4064543"><ele>14.75</ele><time>2026-04-12T08:28:59.064Z</time></trkpt><trkpt lat="43.8357132" lon="10.4063417"><ele>14.0</ele><time>2026-04-12T08:29:00.062Z</time></trkpt><trkpt lat="43.8356169" lon="10.4062231"><ele>14.0</ele><time>2026-04-12T08:29:01.063Z</time></trkpt><trkpt lat="43.8355203" lon="10.4061023"><ele>14.0</ele><time>2026-04-12T08:29:02.064Z</time></trkpt><trkpt lat="43.8354204" lon="10.4059801"><ele>14.0</ele><time>2026-04-12T08:29:03.064Z</time></trkpt><trkpt lat="43.83532" lon="10.4058545"><ele>14.0</ele><time>2026-04-12T08:29:04.059Z</time></trkpt><trkpt lat="43.835226" lon="10.4057225"><ele>14.0</ele><time>2026-04-12T08:29:05.063Z</time></trkpt><trkpt lat="43.835142" lon="10.4055769"><ele>14.0</ele><time>2026-04-12T08:29:06.063Z</time></trkpt><trkpt lat="43.8350656" lon="10.4054206"><ele>14.0</ele><time>2026-04-12T08:29:07.064Z</time></trkpt><trkpt lat="43.8349941" lon="10.4052487"><ele>14.0</ele><time>2026-04-12T08:29:08.066Z</time></trkpt><trkpt lat="43.8349229" lon="10.4050703"><ele>14.333333333333334</ele><time>2026-04-12T08:29:09.066Z</time></trkpt><trkpt lat="43.8348526" lon="10.4048857"><ele>14.666666666666668</ele><time>2026-04-12T08:29:10.066Z</time></trkpt><trkpt lat="43.8347802" lon="10.4047047"><ele>15.0</ele><time>2026-04-12T08:29:11.063Z</time></trkpt><trkpt lat="43.8347061" lon="10.4045237"><ele>15.0</ele><time>2026-04-12T08:29:12.064Z</time></trkpt><trkpt lat="43.8346315" lon="10.404345"><ele>15.0</ele><time>2026-04-12T08:29:13.071Z</time></trkpt><trkpt lat="43.8345577" lon="10.4041651"><ele>15.0</ele><time>2026-04-12T08:29:14.065Z</time></trkpt><trkpt lat="43.8344834" lon="10.4039943"><ele>15.0</ele><time>2026-04-12T08:29:15.057Z</time></trkpt><trkpt lat="43.8344092" lon="10.4038294"><ele>15.25</ele><time>2026-04-12T08:29:16.066Z</time></trkpt><trkpt lat="43.834336" lon="10.4036704"><ele>15.5</ele><time>2026-04-12T08:29:17.066Z</time></trkpt><trkpt lat="43.8342633" lon="10.4035148"><ele>15.75</ele><time>2026-04-12T08:29:18.065Z</time></trkpt><trkpt lat="43.8341942" lon="10.403363"><ele>16.0</ele><time>2026-04-12T08:29:19.066Z</time></trkpt><trkpt lat="43.8341298" lon="10.403222"><ele>16.0</ele><time>2026-04-12T08:29:20.065Z</time></trkpt><trkpt lat="43.8340694" lon="10.4030888"><ele>16.0</ele><time>2026-04-12T08:29:21.066Z</time></trkpt><trkpt lat="43.834011" lon="10.4029484"><ele>16.0</ele><time>2026-04-12T08:29:22.065Z</time></trkpt><trkpt lat="43.8339494" lon="10.4027992"><ele>16.0</ele><time>2026-04-12T08:29:23.071Z</time></trkpt><trkpt lat="43.83389" lon="10.4026434"><ele>16.75</ele><time>2026-04-12T08:29:24.066Z</time></trkpt><trkpt lat="43.8338389" lon="10.4024786"><ele>17.5</ele><time>2026-04-12T08:29:25.065Z</time></trkpt><trkpt lat="43.8337909" lon="10.4023027"><ele>18.25</ele><time>2026-04-12T08:29:26.066Z</time></trkpt><trkpt lat="43.8337413" lon="10.4021287"><ele>19.0</ele><time>2026-04-12T08:29:27.064Z</time></trkpt><trkpt lat="43.8336855" lon="10.4019632"><ele>19.5</ele><time>2026-04-12T08:29:28.067Z</time></trkpt><trkpt lat="43.8336085" lon="10.4018181"><ele>20.0</ele><time>2026-04-12T08:29:29.066Z</time></trkpt><trkpt lat="43.8335127" lon="10.4016891"><ele>20.5</ele><time>2026-04-12T08:29:30.066Z</time></trkpt><trkpt lat="43.8334129" lon="10.4015638"><ele>21.0</ele><time>2026-04-12T08:29:31.066Z</time></trkpt><trkpt lat="43.8333116" lon="10.4014429"><ele>19.75</ele><time>2026-04-12T08:29:32.064Z</time></trkpt><trkpt lat="43.8332132" lon="10.4013242"><ele>18.5</ele><time>2026-04-12T08:29:33.068Z</time></trkpt><trkpt lat="43.8331176" lon="10.4012042"><ele>17.25</ele><time>2026-04-12T08:29:34.063Z</time></trkpt><trkpt lat="43.8330243" lon="10.4010833"><ele>16.0</ele><time>2026-04-12T08:29:35.065Z</time></trkpt><trkpt lat="43.8329297" lon="10.4009609"><ele>16.0</ele><time>2026-04-12T08:29:36.066Z</time></trkpt><trkpt lat="43.8328357" lon="10.4008345"><ele>16.0</ele><time>2026-04-12T08:29:37.065Z</time></trkpt><trkpt lat="43.8327468" lon="10.4007045"><ele>16.0</ele><time>2026-04-12T08:29:38.065Z</time></trkpt><trkpt lat="43.8326639" lon="10.4005658"><ele>16.0</ele><time>2026-04-12T08:29:39.064Z</time></trkpt><trkpt lat="43.8325909" lon="10.4004171"><ele>15.5</ele><time>2026-04-12T08:29:40.061Z</time></trkpt><trkpt lat="43.8325233" lon="10.4002541"><ele>15.0</ele><time>2026-04-12T08:29:41.063Z</time></trkpt><trkpt lat="43.8324572" lon="10.4000916"><ele>14.5</ele><time>2026-04-12T08:29:42.064Z</time></trkpt><trkpt lat="43.8323885" lon="10.3999324"><ele>14.0</ele><time>2026-04-12T08:29:43.067Z</time></trkpt><trkpt lat="43.8323205" lon="10.399766"><ele>14.5</ele><time>2026-04-12T08:29:44.065Z</time></trkpt><trkpt lat="43.8322539" lon="10.3996006"><ele>15.0</ele><time>2026-04-12T08:29:45.065Z</time></trkpt><trkpt lat="43.8321896" lon="10.3994399"><ele>15.5</ele><time>2026-04-12T08:29:46.064Z</time></trkpt><trkpt lat="43.8321281" lon="10.3992744"><ele>16.0</ele><time>2026-04-12T08:29:47.065Z</time></trkpt><trkpt lat="43.83207" lon="10.3991046"><ele>16.0</ele><time>2026-04-12T08:29:48.065Z</time></trkpt><trkpt lat="43.8320137" lon="10.3989315"><ele>16.0</ele><time>2026-04-12T08:29:49.067Z</time></trkpt><trkpt lat="43.8319619" lon="10.3987541"><ele>16.0</ele><time>2026-04-12T08:29:50.065Z</time></trkpt><trkpt lat="43.8319155" lon="10.3985774"><ele>16.0</ele><time>2026-04-12T08:29:51.066Z</time></trkpt><trkpt lat="43.8318761" lon="10.3983988"><ele>15.5</ele><time>2026-04-12T08:29:52.064Z</time></trkpt><trkpt lat="43.8318418" lon="10.3982198"><ele>15.0</ele><time>2026-04-12T08:29:53.066Z</time></trkpt><trkpt lat="43.8318104" lon="10.3980405"><ele>14.5</ele><time>2026-04-12T08:29:54.066Z</time></trkpt><trkpt lat="43.8317784" lon="10.3978621"><ele>14.0</ele><time>2026-04-12T08:29:55.065Z</time></trkpt><trkpt lat="43.8317422" lon="10.3976907"><ele>14.0</ele><time>2026-04-12T08:29:56.065Z</time></trkpt><trkpt lat="43.8316985" lon="10.3975185"><ele>14.0</ele><time>2026-04-12T08:29:57.065Z</time></trkpt><trkpt lat="43.8316489" lon="10.3973473"><ele>14.0</ele><time>2026-04-12T08:29:58.065Z</time></trkpt><trkpt lat="43.8315962" lon="10.3971828"><ele>14.0</ele><time>2026-04-12T08:29:59.068Z</time></trkpt><trkpt lat="43.8315465" lon="10.3970296"><ele>14.399999999999999</ele><time>2026-04-12T08:30:00.065Z</time></trkpt><trkpt lat="43.8315022" lon="10.3968948"><ele>14.799999999999999</ele><time>2026-04-12T08:30:01.062Z</time></trkpt><trkpt lat="43.8314606" lon="10.3967664"><ele>15.200000000000001</ele><time>2026-04-12T08:30:02.061Z</time></trkpt><trkpt lat="43.8314241" lon="10.3966292"><ele>15.600000000000001</ele><time>2026-04-12T08:30:03.063Z</time></trkpt><trkpt lat="43.8313985" lon="10.3964681"><ele>16.0</ele><time>2026-04-12T08:30:04.061Z</time></trkpt><trkpt lat="43.8313854" lon="10.396281"><ele>16.0</ele><time>2026-04-12T08:30:05.061Z</time></trkpt><trkpt lat="43.831377" lon="10.3960756"><ele>16.0</ele><time>2026-04-12T08:30:06.06Z</time></trkpt><trkpt lat="43.8313645" lon="10.3958535"><ele>16.0</ele><time>2026-04-12T08:30:07.062Z</time></trkpt><trkpt lat="43.8313483" lon="10.3956408"><ele>16.5</ele><time>2026-04-12T08:30:08.061Z</time></trkpt><trkpt lat="43.8313355" lon="10.3954491"><ele>17.0</ele><time>2026-04-12T08:30:09.061Z</time></trkpt><trkpt lat="43.8313336" lon="10.3952758"><ele>17.5</ele><time>2026-04-12T08:30:10.061Z</time></trkpt><trkpt lat="43.8313439" lon="10.3951031"><ele>18.0</ele><time>2026-04-12T08:30:11.066Z</time></trkpt><trkpt lat="43.831368" lon="10.3949282"><ele>18.0</ele><time>2026-04-12T08:30:12.063Z</time></trkpt><trkpt lat="43.8314023" lon="10.3947517"><ele>18.0</ele><time>2026-04-12T08:30:13.066Z</time></trkpt><trkpt lat="43.8314505" lon="10.3945791"><ele>18.0</ele><time>2026-04-12T08:30:14.065Z</time></trkpt><trkpt lat="43.8315153" lon="10.3944033"><ele>18.0</ele><time>2026-04-12T08:30:15.064Z</time></trkpt><trkpt lat="43.831586" lon="10.3942218"><ele>17.75</ele><time>2026-04-12T08:30:16.065Z</time></trkpt><trkpt lat="43.8316525" lon="10.3940492"><ele>17.5</ele><time>2026-04-12T08:30:17.065Z</time></trkpt><trkpt lat="43.8317095" lon="10.3938778"><ele>17.25</ele><time>2026-04-12T08:30:18.065Z</time></trkpt><trkpt lat="43.8317532" lon="10.3936977"><ele>17.0</ele><time>2026-04-12T08:30:19.067Z</time></trkpt><trkpt lat="43.831784" lon="10.3935094"><ele>18.0</ele><time>2026-04-12T08:30:20.066Z</time></trkpt><trkpt lat="43.8318081" lon="10.3933171"><ele>19.0</ele><time>2026-04-12T08:30:21.066Z</time></trkpt><trkpt lat="43.8318373" lon="10.3931373"><ele>20.0</ele><time>2026-04-12T08:30:22.065Z</time></trkpt><trkpt lat="43.8318786" lon="10.3929602"><ele>21.0</ele><time>2026-04-12T08:30:23.071Z</time></trkpt><trkpt lat="43.8319251" lon="10.3927756"><ele>21.0</ele><time>2026-04-12T08:30:24.067Z</time></trkpt><trkpt lat="43.831967" lon="10.3925729"><ele>21.0</ele><time>2026-04-12T08:30:25.065Z</time></trkpt><trkpt lat="43.8319971" lon="10.3923712"><ele>21.0</ele><time>2026-04-12T08:30:26.065Z</time></trkpt><trkpt lat="43.8320156" lon="10.392186"><ele>21.0</ele><time>2026-04-12T08:30:27.067Z</time></trkpt><trkpt lat="43.8320238" lon="10.3920242"><ele>20.833333333333332</ele><time>2026-04-12T08:30:28.065Z</time></trkpt><trkpt lat="43.8320267" lon="10.3918882"><ele>20.666666666666668</ele><time>2026-04-12T08:30:29.066Z</time></trkpt><trkpt lat="43.8320229" lon="10.3917793"><ele>20.5</ele><time>2026-04-12T08:30:30.066Z</time></trkpt><trkpt lat="43.8320039" lon="10.3916829"><ele>20.333333333333336</ele><time>2026-04-12T08:30:31.066Z</time></trkpt><trkpt lat="43.8319713" lon="10.3916042"><ele>20.166666666666668</ele><time>2026-04-12T08:30:32.063Z</time></trkpt><trkpt lat="43.8319227" lon="10.391533"><ele>20.0</ele><time>2026-04-12T08:30:33.064Z</time></trkpt><trkpt lat="43.8318583" lon="10.3914636"><ele>19.833333333333336</ele><time>2026-04-12T08:30:34.061Z</time></trkpt><trkpt lat="43.8317953" lon="10.3913857"><ele>19.666666666666668</ele><time>2026-04-12T08:30:35.06Z</time></trkpt><trkpt lat="43.8317373" lon="10.3912941"><ele>19.5</ele><time>2026-04-12T08:30:36.059Z</time></trkpt><trkpt lat="43.8316873" lon="10.3912117"><ele>19.333333333333332</ele><time>2026-04-12T08:30:37.06Z</time></trkpt><trkpt lat="43.8316518" lon="10.3911353"><ele>19.166666666666664</ele><time>2026-04-12T08:30:38.059Z</time></trkpt><trkpt lat="43.8315964" lon="10.3910225"><ele>19.0</ele><time>2026-04-12T08:30:40.057Z</time></trkpt><trkpt lat="43.8315533" lon="10.3909346"><ele>19.0</ele><time>2026-04-12T08:30:42.061Z</time></trkpt><trkpt lat="43.8315577" lon="10.3908381"><ele>19.0</ele><time>2026-04-12T08:30:44.064Z</time></trkpt><trkpt lat="43.8315839" lon="10.3907297"><ele>19.0</ele><time>2026-04-12T08:30:47.056Z</time></trkpt><trkpt lat="43.831582" lon="10.3906108"><ele>19.0</ele><time>2026-04-12T08:31:19.072Z</time></trkpt><trkpt lat="43.8315275" lon="10.3905275"><ele>19.0</ele><time>2026-04-12T08:31:21.068Z</time></trkpt><trkpt lat="43.8314421" lon="10.3905181"><ele>19.0</ele><time>2026-04-12T08:31:23.069Z</time></trkpt><trkpt lat="43.8313761" lon="10.3905424"><ele>19.0</ele><time>2026-04-12T08:31:25.065Z</time></trkpt><trkpt lat="43.8312873" lon="10.3906118"><ele>19.0</ele><time>2026-04-12T08:31:35.064Z</time></trkpt><trkpt lat="43.8311559" lon="10.390595"><ele>19.0</ele><time>2026-04-12T08:31:37.065Z</time></trkpt><trkpt lat="43.8310823" lon="10.3905541"><ele>19.0</ele><time>2026-04-12T08:31:38.064Z</time></trkpt><trkpt lat="43.8310157" lon="10.390517"><ele>19.0</ele><time>2026-04-12T08:31:39.064Z</time></trkpt><trkpt lat="43.8309554" lon="10.3904756"><ele>19.666666666666664</ele><time>2026-04-12T08:31:40.064Z</time></trkpt><trkpt lat="43.8308964" lon="10.3904393"><ele>20.333333333333332</ele><time>2026-04-12T08:31:41.063Z</time></trkpt><trkpt lat="43.8307931" lon="10.3903773"><ele>21.0</ele><time>2026-04-12T08:31:43.061Z</time></trkpt><trkpt lat="43.8307006" lon="10.3903342"><ele>21.666666666666668</ele><time>2026-04-12T08:31:45.062Z</time></trkpt><trkpt lat="43.8306324" lon="10.3903101"><ele>22.333333333333336</ele><time>2026-04-12T08:31:47.062Z</time></trkpt><trkpt lat="43.8305677" lon="10.3903129"><ele>23.0</ele><time>2026-04-12T08:31:49.061Z</time></trkpt><trkpt lat="43.8304621" lon="10.3903106"><ele>23.0</ele><time>2026-04-12T08:31:51.062Z</time></trkpt><trkpt lat="43.830345" lon="10.3902789"><ele>23.0</ele><time>2026-04-12T08:31:53.066Z</time></trkpt><trkpt lat="43.8302276" lon="10.3902305"><ele>23.0</ele><time>2026-04-12T08:31:55.066Z</time></trkpt><trkpt lat="43.8301628" lon="10.3901958"><ele>23.0</ele><time>2026-04-12T08:31:56.064Z</time></trkpt><trkpt lat="43.8300941" lon="10.3901612"><ele>23.0</ele><time>2026-04-12T08:31:57.063Z</time></trkpt><trkpt lat="43.8300224" lon="10.3901301"><ele>22.0</ele><time>2026-04-12T08:31:58.065Z</time></trkpt><trkpt lat="43.8299477" lon="10.3901101"><ele>21.0</ele><time>2026-04-12T08:31:59.068Z</time></trkpt><trkpt lat="43.8298715" lon="10.3900961"><ele>20.0</ele><time>2026-04-12T08:32:00.064Z</time></trkpt><trkpt lat="43.8298022" lon="10.3900869"><ele>19.0</ele><time>2026-04-12T08:32:01.066Z</time></trkpt><trkpt lat="43.8297352" lon="10.3900821"><ele>18.0</ele><time>2026-04-12T08:32:02.065Z</time></trkpt><trkpt lat="43.8296051" lon="10.3900749"><ele>17.0</ele><time>2026-04-12T08:32:04.067Z</time></trkpt><trkpt lat="43.8295343" lon="10.3900677"><ele>16.999999999999996</ele><time>2026-04-12T08:32:05.065Z</time></trkpt><trkpt lat="43.8294641" lon="10.3900518"><ele>17.0</ele><time>2026-04-12T08:32:06.066Z</time></trkpt><trkpt lat="43.8293947" lon="10.3900255"><ele>17.0</ele><time>2026-04-12T08:32:07.066Z</time></trkpt><trkpt lat="43.8293246" lon="10.3899983"><ele>17.0</ele><time>2026-04-12T08:32:08.067Z</time></trkpt><trkpt lat="43.8292554" lon="10.3899749"><ele>17.0</ele><time>2026-04-12T08:32:09.065Z</time></trkpt><trkpt lat="43.8291866" lon="10.3899664"><ele>16.999999999999996</ele><time>2026-04-12T08:32:10.067Z</time></trkpt><trkpt lat="43.8291124" lon="10.3899861"><ele>17.0</ele><time>2026-04-12T08:32:11.065Z</time></trkpt><trkpt lat="43.8290318" lon="10.3900214"><ele>17.0</ele><time>2026-04-12T08:32:12.064Z</time></trkpt><trkpt lat="43.8289559" lon="10.3900581"><ele>17.0</ele><time>2026-04-12T08:32:13.063Z</time></trkpt><trkpt lat="43.8288888" lon="10.3900873"><ele>17.0</ele><time>2026-04-12T08:32:14.065Z</time></trkpt><trkpt lat="43.828788" lon="10.3901099"><ele>17.0</ele><time>2026-04-12T08:32:16.063Z</time></trkpt><trkpt lat="43.8287126" lon="10.3900336"><ele>17.0</ele><time>2026-04-12T08:32:18.067Z</time></trkpt><trkpt lat="43.82868" lon="10.389951"><ele>17.0</ele><time>2026-04-12T08:32:19.064Z</time></trkpt><trkpt lat="43.828647" lon="10.3898404"><ele>17.0</ele><time>2026-04-12T08:32:20.063Z</time></trkpt><trkpt lat="43.8286218" lon="10.3897187"><ele>17.0</ele><time>2026-04-12T08:32:21.065Z</time></trkpt><trkpt lat="43.8286046" lon="10.389602"><ele>17.0</ele><time>2026-04-12T08:32:22.065Z</time></trkpt><trkpt lat="43.8285877" lon="10.3894892"><ele>17.0</ele><time>2026-04-12T08:32:23.063Z</time></trkpt><trkpt lat="43.8285688" lon="10.3893789"><ele>17.0</ele><time>2026-04-12T08:32:24.062Z</time></trkpt><trkpt lat="43.8285449" lon="10.3892702"><ele>17.0</ele><time>2026-04-12T08:32:25.061Z</time></trkpt><trkpt lat="43.8285202" lon="10.3891579"><ele>16.833333333333336</ele><time>2026-04-12T08:32:26.067Z</time></trkpt><trkpt lat="43.8284935" lon="10.3890406"><ele>16.666666666666668</ele><time>2026-04-12T08:32:27.067Z</time></trkpt><trkpt lat="43.8284664" lon="10.3889245"><ele>16.5</ele><time>2026-04-12T08:32:28.063Z</time></trkpt><trkpt lat="43.8284427" lon="10.3888079"><ele>16.333333333333332</ele><time>2026-04-12T08:32:29.065Z</time></trkpt><trkpt lat="43.8284196" lon="10.388701"><ele>16.166666666666664</ele><time>2026-04-12T08:32:30.066Z</time></trkpt><trkpt lat="43.8283886" lon="10.3886019"><ele>16.0</ele><time>2026-04-12T08:32:31.063Z</time></trkpt><trkpt lat="43.8283202" lon="10.3884785"><ele>17.166666666666664</ele><time>2026-04-12T08:32:33.062Z</time></trkpt><trkpt lat="43.8282641" lon="10.3883904"><ele>18.333333333333332</ele><time>2026-04-12T08:32:35.057Z</time></trkpt><trkpt lat="43.8282091" lon="10.3882506"><ele>19.5</ele><time>2026-04-12T08:32:37.061Z</time></trkpt><trkpt lat="43.8281853" lon="10.3881583"><ele>20.666666666666668</ele><time>2026-04-12T08:32:38.061Z</time></trkpt><trkpt lat="43.828168" lon="10.3880691"><ele>21.833333333333336</ele><time>2026-04-12T08:32:39.063Z</time></trkpt><trkpt lat="43.8281536" lon="10.3879833"><ele>23.0</ele><time>2026-04-12T08:32:40.066Z</time></trkpt><trkpt lat="43.8281116" lon="10.387825"><ele>23.0</ele><time>2026-04-12T08:32:42.061Z</time></trkpt><trkpt lat="43.8280394" lon="10.3876893"><ele>23.0</ele><time>2026-04-12T08:32:44.064Z</time></trkpt><trkpt lat="43.8279924" lon="10.3876246"><ele>23.0</ele><time>2026-04-12T08:32:45.063Z</time></trkpt><trkpt lat="43.8279387" lon="10.387557"><ele>23.0</ele><time>2026-04-12T08:32:46.062Z</time></trkpt><trkpt lat="43.8278848" lon="10.3874854"><ele>23.0</ele><time>2026-04-12T08:32:47.064Z</time></trkpt><trkpt lat="43.8278345" lon="10.3874133"><ele>23.0</ele><time>2026-04-12T08:32:48.062Z</time></trkpt><trkpt lat="43.8277904" lon="10.3873346"><ele>23.0</ele><time>2026-04-12T08:32:49.061Z</time></trkpt><trkpt lat="43.8277493" lon="10.3872441"><ele>23.0</ele><time>2026-04-12T08:32:50.06Z</time></trkpt><trkpt lat="43.8277138" lon="10.3871522"><ele>23.0</ele><time>2026-04-12T08:32:51.063Z</time></trkpt><trkpt lat="43.8276842" lon="10.3870607"><ele>23.0</ele><time>2026-04-12T08:32:52.061Z</time></trkpt><trkpt lat="43.8276555" lon="10.3869746"><ele>23.0</ele><time>2026-04-12T08:32:53.062Z</time></trkpt><trkpt lat="43.8276227" lon="10.386892"><ele>23.0</ele><time>2026-04-12T08:32:54.063Z</time></trkpt><trkpt lat="43.8275822" lon="10.3868117"><ele>23.0</ele><time>2026-04-12T08:32:55.063Z</time></trkpt><trkpt lat="43.827536" lon="10.3867341"><ele>23.833333333333336</ele><time>2026-04-12T08:32:56.062Z</time></trkpt><trkpt lat="43.8274887" lon="10.3866576"><ele>24.666666666666668</ele><time>2026-04-12T08:32:57.062Z</time></trkpt><trkpt lat="43.8274418" lon="10.3865851"><ele>25.5</ele><time>2026-04-12T08:32:58.062Z</time></trkpt><trkpt lat="43.8273933" lon="10.3865132"><ele>26.333333333333336</ele><time>2026-04-12T08:32:59.065Z</time></trkpt><trkpt lat="43.8273503" lon="10.3864349"><ele>27.166666666666668</ele><time>2026-04-12T08:33:00.062Z</time></trkpt><trkpt lat="43.8273144" lon="10.3863544"><ele>28.0</ele><time>2026-04-12T08:33:01.063Z</time></trkpt><trkpt lat="43.8272485" lon="10.3862191"><ele>28.0</ele><time>2026-04-12T08:33:03.061Z</time></trkpt><trkpt lat="43.8271669" lon="10.3860961"><ele>27.999999999999996</ele><time>2026-04-12T08:33:05.065Z</time></trkpt><trkpt lat="43.8271198" lon="10.3860336"><ele>27.999999999999996</ele><time>2026-04-12T08:33:06.055Z</time></trkpt><trkpt lat="43.8270297" lon="10.3859249"><ele>28.0</ele><time>2026-04-12T08:33:08.063Z</time></trkpt><trkpt lat="43.8269293" lon="10.3858903"><ele>28.0</ele><time>2026-04-12T08:33:10.062Z</time></trkpt><trkpt lat="43.8268496" lon="10.3858965"><ele>30.2</ele><time>2026-04-12T08:33:12.061Z</time></trkpt><trkpt lat="43.826777" lon="10.3858945"><ele>32.4</ele><time>2026-04-12T08:33:14.065Z</time></trkpt><trkpt lat="43.8266856" lon="10.3858413"><ele>34.599999999999994</ele><time>2026-04-12T08:33:16.06Z</time></trkpt><trkpt lat="43.8266034" lon="10.3857489"><ele>36.8</ele><time>2026-04-12T08:33:18.062Z</time></trkpt><trkpt lat="43.8265471" lon="10.3856523"><ele>39.0</ele><time>2026-04-12T08:33:21.063Z</time></trkpt><trkpt lat="43.8264811" lon="10.385566"><ele>39.0</ele><time>2026-04-12T08:33:23.062Z</time></trkpt><trkpt lat="43.8264015" lon="10.3854933"><ele>39.0</ele><time>2026-04-12T08:33:25.062Z</time></trkpt><trkpt lat="43.8263055" lon="10.385443"><ele>39.0</ele><time>2026-04-12T08:33:27.061Z</time></trkpt><trkpt lat="43.8262354" lon="10.3854242"><ele>39.0</ele><time>2026-04-12T08:33:29.063Z</time></trkpt><trkpt lat="43.8261551" lon="10.385459"><ele>39.0</ele><time>2026-04-12T08:33:32.061Z</time></trkpt><trkpt lat="43.826079" lon="10.3855338"><ele>39.0</ele><time>2026-04-12T08:33:34.063Z</time></trkpt><trkpt lat="43.8259808" lon="10.3856135"><ele>40.833333333333336</ele><time>2026-04-12T08:33:36.065Z</time></trkpt><trkpt lat="43.8258932" lon="10.3856522"><ele>42.66666666666667</ele><time>2026-04-12T08:33:38.062Z</time></trkpt><trkpt lat="43.82581" lon="10.3856797"><ele>44.5</ele><time>2026-04-12T08:33:41.063Z</time></trkpt><trkpt lat="43.8257368" lon="10.3857036"><ele>46.333333333333336</ele><time>2026-04-12T08:33:44.062Z</time></trkpt><trkpt lat="43.8256757" lon="10.3857395"><ele>48.16666666666667</ele><time>2026-04-12T08:33:46.058Z</time></trkpt><trkpt lat="43.8255999" lon="10.3857642"><ele>50.0</ele><time>2026-04-12T08:33:48.062Z</time></trkpt><trkpt lat="43.8255251" lon="10.3857775"><ele>50.00000000000001</ele><time>2026-04-12T08:33:50.063Z</time></trkpt><trkpt lat="43.8254423" lon="10.3857794"><ele>50.0</ele><time>2026-04-12T08:33:53.062Z</time></trkpt><trkpt lat="43.8253763" lon="10.3857861"><ele>50.0</ele><time>2026-04-12T08:33:55.063Z</time></trkpt><trkpt lat="43.8252934" lon="10.3857863"><ele>50.0</ele><time>2026-04-12T08:33:57.063Z</time></trkpt><trkpt lat="43.8252269" lon="10.3857197"><ele>50.00000000000001</ele><time>2026-04-12T08:33:59.063Z</time></trkpt><trkpt lat="43.8252062" lon="10.3856018"><ele>50.0</ele><time>2026-04-12T08:34:01.061Z</time></trkpt><trkpt lat="43.8252094" lon="10.3854852"><ele>51.00000000000001</ele><time>2026-04-12T08:34:03.064Z</time></trkpt><trkpt lat="43.8252057" lon="10.3853815"><ele>52.0</ele><time>2026-04-12T08:34:05.058Z</time></trkpt><trkpt lat="43.8252203" lon="10.3852715"><ele>53.0</ele><time>2026-04-12T08:34:07.061Z</time></trkpt><trkpt lat="43.825277" lon="10.3851824"><ele>54.0</ele><time>2026-04-12T08:34:09.062Z</time></trkpt><trkpt lat="43.825335" lon="10.3851024"><ele>55.00000000000001</ele><time>2026-04-12T08:34:17.061Z</time></trkpt><trkpt lat="43.8253305" lon="10.3849955"><ele>56.0</ele><time>2026-04-12T08:34:20.061Z</time></trkpt><trkpt lat="43.8252587" lon="10.3849476"><ele>56.0</ele><time>2026-04-12T08:34:22.061Z</time></trkpt><trkpt lat="43.8251638" lon="10.3849037"><ele>55.99999999999999</ele><time>2026-04-12T08:34:24.059Z</time></trkpt><trkpt lat="43.8250821" lon="10.384824"><ele>55.99999999999999</ele><time>2026-04-12T08:34:26.064Z</time></trkpt><trkpt lat="43.8250135" lon="10.384767"><ele>56.0</ele><time>2026-04-12T08:34:28.061Z</time></trkpt><trkpt lat="43.8249283" lon="10.384759"><ele>56.0</ele><time>2026-04-12T08:34:46.062Z</time></trkpt><trkpt lat="43.8248169" lon="10.3848216"><ele>58.199999999999996</ele><time>2026-04-12T08:34:48.054Z</time></trkpt><trkpt lat="43.8247432" lon="10.3848673"><ele>60.39999999999999</ele><time>2026-04-12T08:34:49.061Z</time></trkpt><trkpt lat="43.8246444" lon="10.3849314"><ele>62.6</ele><time>2026-04-12T08:34:51.062Z</time></trkpt><trkpt lat="43.8245777" lon="10.3849979"><ele>64.8</ele><time>2026-04-12T08:34:53.057Z</time></trkpt><trkpt lat="43.8245181" lon="10.3850426"><ele>67.0</ele><time>2026-04-12T08:34:55.062Z</time></trkpt><trkpt lat="43.8244419" lon="10.3851658"><ele>67.0</ele><time>2026-04-12T08:35:02.062Z</time></trkpt><trkpt lat="43.8244018" lon="10.3852382"><ele>67.0</ele><time>2026-04-12T08:35:03.061Z</time></trkpt><trkpt lat="43.8243367" lon="10.38537"><ele>67.0</ele><time>2026-04-12T08:35:05.062Z</time></trkpt><trkpt lat="43.824301" lon="10.3854546"><ele>67.0</ele><time>2026-04-12T08:35:08.061Z</time></trkpt><trkpt lat="43.8243315" lon="10.3853398"><ele>67.0</ele><time>2026-04-12T08:41:01.069Z</time></trkpt><trkpt lat="43.8243582" lon="10.3852345"><ele>67.0</ele><time>2026-04-12T08:41:03.072Z</time></trkpt><trkpt lat="43.824415" lon="10.3851326"><ele>67.0</ele><time>2026-04-12T08:41:05.071Z</time></trkpt><trkpt lat="43.8244998" lon="10.3850408"><ele>67.0</ele><time>2026-04-12T08:41:07.071Z</time></trkpt><trkpt lat="43.8245924" lon="10.3849589"><ele>67.0</ele><time>2026-04-12T08:41:09.067Z</time></trkpt><trkpt lat="43.8246812" lon="10.3848764"><ele>67.0</ele><time>2026-04-12T08:41:11.068Z</time></trkpt><trkpt lat="43.8247844" lon="10.3848096"><ele>67.0</ele><time>2026-04-12T08:41:13.064Z</time></trkpt><trkpt lat="43.824889" lon="10.3847473"><ele>67.0</ele><time>2026-04-12T08:41:15.066Z</time></trkpt><trkpt lat="43.8249717" lon="10.3846984"><ele>67.0</ele><time>2026-04-12T08:41:17.071Z</time></trkpt><trkpt lat="43.8249491" lon="10.3845977"><ele>67.0</ele><time>2026-04-12T08:41:21.071Z</time></trkpt><trkpt lat="43.8249078" lon="10.384509"><ele>67.0</ele><time>2026-04-12T08:41:23.069Z</time></trkpt><trkpt lat="43.824869" lon="10.3843832"><ele>67.0</ele><time>2026-04-12T08:41:25.065Z</time></trkpt><trkpt lat="43.8248588" lon="10.3842946"><ele>67.0</ele><time>2026-04-12T08:41:26.065Z</time></trkpt><trkpt lat="43.8248515" lon="10.3841947"><ele>66.8</ele><time>2026-04-12T08:41:27.064Z</time></trkpt><trkpt lat="43.8248422" lon="10.3840926"><ele>66.6</ele><time>2026-04-12T08:41:28.064Z</time></trkpt><trkpt lat="43.8248303" lon="10.383987"><ele>66.39999999999999</ele><time>2026-04-12T08:41:29.063Z</time></trkpt><trkpt lat="43.8248137" lon="10.3838355"><ele>66.2</ele><time>2026-04-12T08:41:31.066Z</time></trkpt><trkpt lat="43.8248074" lon="10.3836878"><ele>66.0</ele><time>2026-04-12T08:41:33.069Z</time></trkpt><trkpt lat="43.824804" lon="10.3835056"><ele>64.2</ele><time>2026-04-12T08:41:35.071Z</time></trkpt><trkpt lat="43.8248128" lon="10.3833554"><ele>62.39999999999999</ele><time>2026-04-12T08:41:37.069Z</time></trkpt><trkpt lat="43.8248204" lon="10.3832395"><ele>60.6</ele><time>2026-04-12T08:41:39.069Z</time></trkpt><trkpt lat="43.8247962" lon="10.3831354"><ele>58.8</ele><time>2026-04-12T08:41:41.069Z</time></trkpt><trkpt lat="43.824744" lon="10.3830166"><ele>57.0</ele><time>2026-04-12T08:41:43.068Z</time></trkpt><trkpt lat="43.8246642" lon="10.3828792"><ele>54.6</ele><time>2026-04-12T08:41:45.061Z</time></trkpt><trkpt lat="43.8245856" lon="10.3828043"><ele>52.2</ele><time>2026-04-12T08:41:47.067Z</time></trkpt><trkpt lat="43.8244929" lon="10.3828161"><ele>49.8</ele><time>2026-04-12T08:41:49.068Z</time></trkpt><trkpt lat="43.8244265" lon="10.3829036"><ele>47.4</ele><time>2026-04-12T08:41:51.061Z</time></trkpt><trkpt lat="43.8243581" lon="10.3829716"><ele>45.0</ele><time>2026-04-12T08:41:53.059Z</time></trkpt><trkpt lat="43.8242641" lon="10.382977"><ele>45.0</ele><time>2026-04-12T08:41:55.066Z</time></trkpt><trkpt lat="43.8241734" lon="10.382915"><ele>45.0</ele><time>2026-04-12T08:41:57.065Z</time></trkpt><trkpt lat="43.8241383" lon="10.3828416"><ele>45.0</ele><time>2026-04-12T08:42:00.062Z</time></trkpt><trkpt lat="43.8241787" lon="10.3827627"><ele>45.0</ele><time>2026-04-12T08:42:35.063Z</time></trkpt><trkpt lat="43.8242499" lon="10.3826773"><ele>45.0</ele><time>2026-04-12T08:42:37.063Z</time></trkpt><trkpt lat="43.8243119" lon="10.3825841"><ele>45.0</ele><time>2026-04-12T08:42:39.064Z</time></trkpt><trkpt lat="43.8243657" lon="10.3824807"><ele>44.6</ele><time>2026-04-12T08:42:41.063Z</time></trkpt><trkpt lat="43.8244121" lon="10.3823541"><ele>44.2</ele><time>2026-04-12T08:42:43.064Z</time></trkpt><trkpt lat="43.8244741" lon="10.3822116"><ele>43.8</ele><time>2026-04-12T08:42:45.063Z</time></trkpt><trkpt lat="43.8245155" lon="10.3821214"><ele>43.4</ele><time>2026-04-12T08:42:46.063Z</time></trkpt><trkpt lat="43.8245615" lon="10.3820277"><ele>43.0</ele><time>2026-04-12T08:42:47.064Z</time></trkpt><trkpt lat="43.8245985" lon="10.3819336"><ele>43.0</ele><time>2026-04-12T08:42:48.061Z</time></trkpt><trkpt lat="43.8246239" lon="10.3818447"><ele>43.0</ele><time>2026-04-12T08:42:49.064Z</time></trkpt><trkpt lat="43.8246341" lon="10.3816796"><ele>43.0</ele><time>2026-04-12T08:42:51.065Z</time></trkpt><trkpt lat="43.8246191" lon="10.3815505"><ele>43.0</ele><time>2026-04-12T08:42:53.066Z</time></trkpt><trkpt lat="43.8246458" lon="10.3814342"><ele>43.0</ele><time>2026-04-12T08:42:55.063Z</time></trkpt><trkpt lat="43.8247216" lon="10.3813214"><ele>44.2</ele><time>2026-04-12T08:42:57.061Z</time></trkpt><trkpt lat="43.8247764" lon="10.3812761"><ele>45.4</ele><time>2026-04-12T08:42:58.064Z</time></trkpt><trkpt lat="43.824895" lon="10.3812209"><ele>46.6</ele><time>2026-04-12T08:43:00.065Z</time></trkpt><trkpt lat="43.8250164" lon="10.3811807"><ele>47.800000000000004</ele><time>2026-04-12T08:43:02.064Z</time></trkpt><trkpt lat="43.825088" lon="10.381158"><ele>49.0</ele><time>2026-04-12T08:43:03.067Z</time></trkpt><trkpt lat="43.8251776" lon="10.3811317"><ele>49.0</ele><time>2026-04-12T08:43:04.067Z</time></trkpt><trkpt lat="43.8252742" lon="10.381109"><ele>49.0</ele><time>2026-04-12T08:43:05.063Z</time></trkpt><trkpt lat="43.8253747" lon="10.381088"><ele>49.0</ele><time>2026-04-12T08:43:06.063Z</time></trkpt><trkpt lat="43.8254801" lon="10.3810697"><ele>49.0</ele><time>2026-04-12T08:43:07.064Z</time></trkpt><trkpt lat="43.8255882" lon="10.3810582"><ele>49.0</ele><time>2026-04-12T08:43:08.063Z</time></trkpt><trkpt lat="43.8256996" lon="10.3810613"><ele>49.0</ele><time>2026-04-12T08:43:09.077Z</time></trkpt><trkpt lat="43.8258107" lon="10.3810863"><ele>49.0</ele><time>2026-04-12T08:43:10.074Z</time></trkpt><trkpt lat="43.8259237" lon="10.3811284"><ele>49.0</ele><time>2026-04-12T08:43:11.065Z</time></trkpt><trkpt lat="43.8260398" lon="10.3811724"><ele>49.0</ele><time>2026-04-12T08:43:12.062Z</time></trkpt><trkpt lat="43.8261525" lon="10.3812061"><ele>49.800000000000004</ele><time>2026-04-12T08:43:13.066Z</time></trkpt><trkpt lat="43.8262598" lon="10.3812245"><ele>50.6</ele><time>2026-04-12T08:43:14.065Z</time></trkpt><trkpt lat="43.8263574" lon="10.3812349"><ele>51.4</ele><time>2026-04-12T08:43:15.065Z</time></trkpt><trkpt lat="43.8264493" lon="10.3812413"><ele>52.2</ele><time>2026-04-12T08:43:16.064Z</time></trkpt><trkpt lat="43.8265363" lon="10.3812515"><ele>53.0</ele><time>2026-04-12T08:43:17.064Z</time></trkpt><trkpt lat="43.8266198" lon="10.3812681"><ele>53.0</ele><time>2026-04-12T08:43:18.063Z</time></trkpt><trkpt lat="43.8266997" lon="10.3812947"><ele>53.0</ele><time>2026-04-12T08:43:19.063Z</time></trkpt><trkpt lat="43.826787" lon="10.3813341"><ele>53.0</ele><time>2026-04-12T08:43:20.066Z</time></trkpt><trkpt lat="43.8268845" lon="10.3813834"><ele>53.0</ele><time>2026-04-12T08:43:21.064Z</time></trkpt><trkpt lat="43.8269911" lon="10.381443"><ele>53.0</ele><time>2026-04-12T08:43:22.067Z</time></trkpt><trkpt lat="43.8271081" lon="10.3815087"><ele>49.25</ele><time>2026-04-12T08:43:23.059Z</time></trkpt><trkpt lat="43.8272277" lon="10.3815757"><ele>45.5</ele><time>2026-04-12T08:43:24.064Z</time></trkpt><trkpt lat="43.8273401" lon="10.3816332"><ele>41.75</ele><time>2026-04-12T08:43:25.064Z</time></trkpt><trkpt lat="43.8274418" lon="10.3816801"><ele>38.0</ele><time>2026-04-12T08:43:26.065Z</time></trkpt><trkpt lat="43.8275387" lon="10.381705"><ele>38.0</ele><time>2026-04-12T08:43:27.066Z</time></trkpt><trkpt lat="43.8276327" lon="10.3816969"><ele>38.0</ele><time>2026-04-12T08:43:28.069Z</time></trkpt><trkpt lat="43.8277345" lon="10.3816447"><ele>38.0</ele><time>2026-04-12T08:43:29.066Z</time></trkpt><trkpt lat="43.8278421" lon="10.3815709"><ele>38.0</ele><time>2026-04-12T08:43:30.067Z</time></trkpt><trkpt lat="43.8279578" lon="10.3815114"><ele>38.0</ele><time>2026-04-12T08:43:31.065Z</time></trkpt><trkpt lat="43.8280779" lon="10.3814727"><ele>38.0</ele><time>2026-04-12T08:43:32.064Z</time></trkpt><trkpt lat="43.8281963" lon="10.3814454"><ele>38.0</ele><time>2026-04-12T08:43:33.066Z</time></trkpt><trkpt lat="43.8283141" lon="10.381399"><ele>38.0</ele><time>2026-04-12T08:43:34.064Z</time></trkpt><trkpt lat="43.828424" lon="10.3813281"><ele>38.0</ele><time>2026-04-12T08:43:35.065Z</time></trkpt><trkpt lat="43.8285236" lon="10.3812421"><ele>38.0</ele><time>2026-04-12T08:43:36.067Z</time></trkpt><trkpt lat="43.8286127" lon="10.3811568"><ele>38.0</ele><time>2026-04-12T08:43:37.066Z</time></trkpt><trkpt lat="43.828686" lon="10.3810853"><ele>38.0</ele><time>2026-04-12T08:43:38.068Z</time></trkpt><trkpt lat="43.8287495" lon="10.3810382"><ele>38.0</ele><time>2026-04-12T08:43:39.068Z</time></trkpt><trkpt lat="43.8288429" lon="10.3809679"><ele>38.0</ele><time>2026-04-12T08:43:41.067Z</time></trkpt><trkpt lat="43.8288954" lon="10.3808815"><ele>38.0</ele><time>2026-04-12T08:43:43.071Z</time></trkpt><trkpt lat="43.8289398" lon="10.380788"><ele>38.0</ele><time>2026-04-12T08:43:46.067Z</time></trkpt><trkpt lat="43.8289989" lon="10.3807136"><ele>38.0</ele><time>2026-04-12T08:43:48.066Z</time></trkpt><trkpt lat="43.8290884" lon="10.380626"><ele>38.0</ele><time>2026-04-12T08:43:50.065Z</time></trkpt><trkpt lat="43.8291405" lon="10.3805766"><ele>38.0</ele><time>2026-04-12T08:43:51.067Z</time></trkpt><trkpt lat="43.8291952" lon="10.3805257"><ele>38.0</ele><time>2026-04-12T08:43:52.066Z</time></trkpt><trkpt lat="43.8292498" lon="10.3804736"><ele>39.33333333333333</ele><time>2026-04-12T08:43:53.068Z</time></trkpt><trkpt lat="43.8293107" lon="10.3804186"><ele>40.666666666666664</ele><time>2026-04-12T08:43:54.064Z</time></trkpt><trkpt lat="43.8293775" lon="10.3803572"><ele>42.0</ele><time>2026-04-12T08:43:55.063Z</time></trkpt><trkpt lat="43.8294484" lon="10.3802951"><ele>43.333333333333336</ele><time>2026-04-12T08:43:56.065Z</time></trkpt><trkpt lat="43.8295248" lon="10.3802407"><ele>44.66666666666667</ele><time>2026-04-12T08:43:57.065Z</time></trkpt><trkpt lat="43.8296031" lon="10.3801939"><ele>46.0</ele><time>2026-04-12T08:43:58.066Z</time></trkpt><trkpt lat="43.829683" lon="10.3801525"><ele>46.0</ele><time>2026-04-12T08:43:59.057Z</time></trkpt><trkpt lat="43.8297608" lon="10.3801069"><ele>46.0</ele><time>2026-04-12T08:44:00.064Z</time></trkpt><trkpt lat="43.8298351" lon="10.380061"><ele>46.0</ele><time>2026-04-12T08:44:01.066Z</time></trkpt><trkpt lat="43.8299065" lon="10.3800077"><ele>46.0</ele><time>2026-04-12T08:44:02.064Z</time></trkpt><trkpt lat="43.8299773" lon="10.3799474"><ele>46.0</ele><time>2026-04-12T08:44:03.066Z</time></trkpt><trkpt lat="43.8300493" lon="10.3798808"><ele>46.0</ele><time>2026-04-12T08:44:04.065Z</time></trkpt><trkpt lat="43.8301209" lon="10.3798071"><ele>46.199999999999996</ele><time>2026-04-12T08:44:05.058Z</time></trkpt><trkpt lat="43.8301941" lon="10.3797293"><ele>46.4</ele><time>2026-04-12T08:44:06.066Z</time></trkpt><trkpt lat="43.8302683" lon="10.3796498"><ele>46.6</ele><time>2026-04-12T08:44:07.064Z</time></trkpt><trkpt lat="43.8303432" lon="10.3795807"><ele>46.8</ele><time>2026-04-12T08:44:08.065Z</time></trkpt><trkpt lat="43.8304192" lon="10.3795156"><ele>47.0</ele><time>2026-04-12T08:44:09.065Z</time></trkpt><trkpt lat="43.8304935" lon="10.3794494"><ele>47.33333333333333</ele><time>2026-04-12T08:44:10.064Z</time></trkpt><trkpt lat="43.8305575" lon="10.3793855"><ele>47.666666666666664</ele><time>2026-04-12T08:44:11.061Z</time></trkpt><trkpt lat="43.8306051" lon="10.3793254"><ele>48.0</ele><time>2026-04-12T08:44:12.063Z</time></trkpt><trkpt lat="43.8306508" lon="10.379242"><ele>48.33333333333333</ele><time>2026-04-12T08:44:14.063Z</time></trkpt><trkpt lat="43.8307033" lon="10.3791753"><ele>48.666666666666664</ele><time>2026-04-12T08:44:29.064Z</time></trkpt><trkpt lat="43.8307929" lon="10.3790716"><ele>49.0</ele><time>2026-04-12T08:44:31.065Z</time></trkpt><trkpt lat="43.8308991" lon="10.3789755"><ele>48.99999999999999</ele><time>2026-04-12T08:44:33.07Z</time></trkpt><trkpt lat="43.8309539" lon="10.3789239"><ele>49.0</ele><time>2026-04-12T08:44:34.065Z</time></trkpt><trkpt lat="43.8310044" lon="10.3788667"><ele>49.0</ele><time>2026-04-12T08:44:35.068Z</time></trkpt><trkpt lat="43.8310903" lon="10.3787305"><ele>49.0</ele><time>2026-04-12T08:44:37.065Z</time></trkpt><trkpt lat="43.8311437" lon="10.3786609"><ele>48.99999999999999</ele><time>2026-04-12T08:44:38.065Z</time></trkpt><trkpt lat="43.8311966" lon="10.3785993"><ele>49.0</ele><time>2026-04-12T08:44:39.066Z</time></trkpt><trkpt lat="43.8312479" lon="10.3785472"><ele>49.166666666666664</ele><time>2026-04-12T08:44:40.065Z</time></trkpt><trkpt lat="43.831329" lon="10.3784603"><ele>49.33333333333333</ele><time>2026-04-12T08:44:42.065Z</time></trkpt><trkpt lat="43.8313827" lon="10.3784145"><ele>49.5</ele><time>2026-04-12T08:44:44.064Z</time></trkpt><trkpt lat="43.8314447" lon="10.3783867"><ele>49.66666666666667</ele><time>2026-04-12T08:44:46.064Z</time></trkpt><trkpt lat="43.8315167" lon="10.3783422"><ele>49.833333333333336</ele><time>2026-04-12T08:44:49.058Z</time></trkpt><trkpt lat="43.8315843" lon="10.3782911"><ele>50.0</ele><time>2026-04-12T08:44:53.065Z</time></trkpt><trkpt lat="43.8316947" lon="10.3782084"><ele>50.00000000000001</ele><time>2026-04-12T08:44:55.063Z</time></trkpt><trkpt lat="43.8317483" lon="10.3781521"><ele>50.0</ele><time>2026-04-12T08:44:56.065Z</time></trkpt><trkpt lat="43.8317939" lon="10.3780909"><ele>50.0</ele><time>2026-04-12T08:44:57.064Z</time></trkpt><trkpt lat="43.8318718" lon="10.3780097"><ele>50.0</ele><time>2026-04-12T08:44:59.065Z</time></trkpt><trkpt lat="43.8319573" lon="10.3779727"><ele>50.00000000000001</ele><time>2026-04-12T08:45:01.064Z</time></trkpt><trkpt lat="43.8320412" lon="10.3779386"><ele>50.0</ele><time>2026-04-12T08:45:03.066Z</time></trkpt><trkpt lat="43.8321115" lon="10.3778845"><ele>51.333333333333336</ele><time>2026-04-12T08:45:06.064Z</time></trkpt><trkpt lat="43.8321541" lon="10.3778109"><ele>52.66666666666667</ele><time>2026-04-12T08:45:13.064Z</time></trkpt><trkpt lat="43.8322033" lon="10.3777442"><ele>54.0</ele><time>2026-04-12T08:45:41.065Z</time></trkpt><trkpt lat="43.8322563" lon="10.3776915"><ele>55.33333333333333</ele><time>2026-04-12T08:45:45.071Z</time></trkpt><trkpt lat="43.8323508" lon="10.3776401"><ele>56.666666666666664</ele><time>2026-04-12T08:45:48.063Z</time></trkpt><trkpt lat="43.8324253" lon="10.377584"><ele>58.0</ele><time>2026-04-12T08:45:50.065Z</time></trkpt><trkpt lat="43.8325042" lon="10.3775141"><ele>57.99999999999999</ele><time>2026-04-12T08:45:52.062Z</time></trkpt><trkpt lat="43.832551" lon="10.3774496"><ele>58.0</ele><time>2026-04-12T08:45:55.063Z</time></trkpt><trkpt lat="43.8326066" lon="10.3773867"><ele>58.0</ele><time>2026-04-12T08:47:41.065Z</time></trkpt><trkpt lat="43.8326329" lon="10.3772794"><ele>58.0</ele><time>2026-04-12T08:48:07.063Z</time></trkpt><trkpt lat="43.8326467" lon="10.3771912"><ele>57.99999999999999</ele><time>2026-04-12T08:49:04.065Z</time></trkpt><trkpt lat="43.8326735" lon="10.3770664"><ele>58.0</ele><time>2026-04-12T08:49:06.064Z</time></trkpt><trkpt lat="43.8326915" lon="10.3769664"><ele>58.571428571428584</ele><time>2026-04-12T08:49:08.065Z</time></trkpt><trkpt lat="43.8327143" lon="10.3768841"><ele>59.142857142857146</ele><time>2026-04-12T08:49:30.064Z</time></trkpt><trkpt lat="43.8327675" lon="10.3768313"><ele>59.71428571428572</ele><time>2026-04-12T08:53:21.067Z</time></trkpt><trkpt lat="43.8327784" lon="10.3767445"><ele>60.28571428571429</ele><time>2026-04-12T08:54:02.068Z</time></trkpt><trkpt lat="43.8328062" lon="10.3766652"><ele>60.85714285714286</ele><time>2026-04-12T08:54:07.066Z</time></trkpt><trkpt lat="43.8328593" lon="10.3766057"><ele>61.42857142857143</ele><time>2026-04-12T08:57:00.069Z</time></trkpt><trkpt lat="43.832912" lon="10.3765474"><ele>62.0</ele><time>2026-04-12T08:57:03.068Z</time></trkpt><trkpt lat="43.8329718" lon="10.3765137"><ele>62.0</ele><time>2026-04-12T08:57:05.066Z</time></trkpt><trkpt lat="43.8330396" lon="10.3764728"><ele>62.0</ele><time>2026-04-12T08:58:30.07Z</time></trkpt><trkpt lat="43.8331147" lon="10.3763999"><ele>62.0</ele><time>2026-04-12T08:58:32.067Z</time></trkpt><trkpt lat="43.8331961" lon="10.3763243"><ele>62.0</ele><time>2026-04-12T08:58:34.065Z</time></trkpt><trkpt lat="43.833269" lon="10.3762065"><ele>62.0</ele><time>2026-04-12T08:58:36.065Z</time></trkpt><trkpt lat="43.8333226" lon="10.3760689"><ele>63.66666666666667</ele><time>2026-04-12T08:58:38.066Z</time></trkpt><trkpt lat="43.8333701" lon="10.3759704"><ele>65.33333333333334</ele><time>2026-04-12T08:58:40.065Z</time></trkpt><trkpt lat="43.8334637" lon="10.375973"><ele>67.0</ele><time>2026-04-12T08:58:44.068Z</time></trkpt><trkpt lat="43.8335406" lon="10.3760276"><ele>68.66666666666667</ele><time>2026-04-12T08:58:46.068Z</time></trkpt><trkpt lat="43.8336061" lon="10.3760685"><ele>70.33333333333333</ele><time>2026-04-12T08:58:48.065Z</time></trkpt><trkpt lat="43.8335439" lon="10.376032"><ele>72.0</ele><time>2026-04-12T09:00:17.068Z</time></trkpt><trkpt lat="43.8334643" lon="10.3759811"><ele>72.0</ele><time>2026-04-12T09:01:51.068Z</time></trkpt><trkpt lat="43.8334013" lon="10.375987"><ele>72.0</ele><time>2026-04-12T09:01:53.073Z</time></trkpt><trkpt lat="43.8333494" lon="10.3760399"><ele>72.0</ele><time>2026-04-12T09:01:55.071Z</time></trkpt><trkpt lat="43.8333124" lon="10.3761457"><ele>72.0</ele><time>2026-04-12T09:01:57.068Z</time></trkpt><trkpt lat="43.8332742" lon="10.3762547"><ele>72.0</ele><time>2026-04-12T09:01:59.071Z</time></trkpt><trkpt lat="43.8332197" lon="10.376341"><ele>72.0</ele><time>2026-04-12T09:02:01.068Z</time></trkpt><trkpt lat="43.833154" lon="10.3763986"><ele>70.33333333333333</ele><time>2026-04-12T09:02:03.07Z</time></trkpt><trkpt lat="43.8330615" lon="10.3764457"><ele>68.66666666666667</ele><time>2026-04-12T09:02:06.067Z</time></trkpt><trkpt lat="43.8329913" lon="10.3765089"><ele>67.0</ele><time>2026-04-12T09:02:08.067Z</time></trkpt><trkpt lat="43.8329198" lon="10.376557"><ele>65.33333333333334</ele><time>2026-04-12T09:02:11.068Z</time></trkpt><trkpt lat="43.8328401" lon="10.3766434"><ele>63.66666666666667</ele><time>2026-04-12T09:02:18.073Z</time></trkpt><trkpt lat="43.8328061" lon="10.376726"><ele>62.0</ele><time>2026-04-12T09:02:57.069Z</time></trkpt><trkpt lat="43.8327665" lon="10.3768038"><ele>62.0</ele><time>2026-04-12T09:03:08.073Z</time></trkpt><trkpt lat="43.8327539" lon="10.3768953"><ele>62.00000000000001</ele><time>2026-04-12T09:04:17.074Z</time></trkpt><trkpt lat="43.8327307" lon="10.3769939"><ele>62.0</ele><time>2026-04-12T09:05:31.069Z</time></trkpt><trkpt lat="43.8327118" lon="10.3770992"><ele>62.0</ele><time>2026-04-12T09:05:33.069Z</time></trkpt><trkpt lat="43.8326923" lon="10.3772005"><ele>62.00000000000001</ele><time>2026-04-12T09:05:35.069Z</time></trkpt><trkpt lat="43.8326726" lon="10.377285"><ele>62.0</ele><time>2026-04-12T09:05:38.069Z</time></trkpt><trkpt lat="43.8326417" lon="10.3773797"><ele>62.0</ele><time>2026-04-12T09:05:42.07Z</time></trkpt><trkpt lat="43.8325741" lon="10.3774816"><ele>61.333333333333336</ele><time>2026-04-12T09:05:45.07Z</time></trkpt><trkpt lat="43.8325012" lon="10.3775553"><ele>60.66666666666667</ele><time>2026-04-12T09:05:48.07Z</time></trkpt><trkpt lat="43.8324385" lon="10.3775968"><ele>60.0</ele><time>2026-04-12T09:05:58.069Z</time></trkpt><trkpt lat="43.8323741" lon="10.3776498"><ele>59.33333333333333</ele><time>2026-04-12T09:06:00.067Z</time></trkpt><trkpt lat="43.8323028" lon="10.3776823"><ele>58.666666666666664</ele><time>2026-04-12T09:06:02.067Z</time></trkpt><trkpt lat="43.8322453" lon="10.3777436"><ele>58.0</ele><time>2026-04-12T09:06:09.069Z</time></trkpt><trkpt lat="43.8321925" lon="10.3778179"><ele>57.99999999999999</ele><time>2026-04-12T09:06:17.069Z</time></trkpt><trkpt lat="43.8321439" lon="10.3778851"><ele>58.0</ele><time>2026-04-12T09:06:19.063Z</time></trkpt><trkpt lat="43.8320719" lon="10.3779401"><ele>58.0</ele><time>2026-04-12T09:06:21.067Z</time></trkpt><trkpt lat="43.8319809" lon="10.3779774"><ele>58.0</ele><time>2026-04-12T09:06:23.075Z</time></trkpt><trkpt lat="43.8318873" lon="10.3780127"><ele>57.99999999999999</ele><time>2026-04-12T09:06:25.069Z</time></trkpt><trkpt lat="43.8317999" lon="10.3780609"><ele>58.0</ele><time>2026-04-12T09:06:27.072Z</time></trkpt><trkpt lat="43.8317404" lon="10.378145"><ele>56.666666666666664</ele><time>2026-04-12T09:06:29.069Z</time></trkpt><trkpt lat="43.8316744" lon="10.3782344"><ele>55.33333333333333</ele><time>2026-04-12T09:06:31.067Z</time></trkpt><trkpt lat="43.8315931" lon="10.3783042"><ele>54.0</ele><time>2026-04-12T09:06:33.071Z</time></trkpt><trkpt lat="43.8315197" lon="10.378341"><ele>52.66666666666667</ele><time>2026-04-12T09:06:35.067Z</time></trkpt><trkpt lat="43.8314497" lon="10.3783734"><ele>51.333333333333336</ele><time>2026-04-12T09:06:37.068Z</time></trkpt><trkpt lat="43.8313774" lon="10.3784048"><ele>50.0</ele><time>2026-04-12T09:06:39.064Z</time></trkpt><trkpt lat="43.83132" lon="10.378462"><ele>50.00000000000001</ele><time>2026-04-12T09:06:42.068Z</time></trkpt><trkpt lat="43.8312624" lon="10.3785609"><ele>50.0</ele><time>2026-04-12T09:06:45.069Z</time></trkpt><trkpt lat="43.8311978" lon="10.3786225"><ele>50.0</ele><time>2026-04-12T09:06:47.068Z</time></trkpt><trkpt lat="43.8311344" lon="10.3786918"><ele>50.0</ele><time>2026-04-12T09:06:49.068Z</time></trkpt><trkpt lat="43.8310597" lon="10.3787992"><ele>50.00000000000001</ele><time>2026-04-12T09:06:51.069Z</time></trkpt><trkpt lat="43.831012" lon="10.378864"><ele>50.0</ele><time>2026-04-12T09:06:52.067Z</time></trkpt><trkpt lat="43.8309609" lon="10.3789276"><ele>49.833333333333336</ele><time>2026-04-12T09:06:53.071Z</time></trkpt><trkpt lat="43.8309103" lon="10.3789813"><ele>49.66666666666667</ele><time>2026-04-12T09:06:54.068Z</time></trkpt><trkpt lat="43.8308091" lon="10.3790644"><ele>49.5</ele><time>2026-04-12T09:06:56.068Z</time></trkpt><trkpt lat="43.8307427" lon="10.3791342"><ele>49.33333333333333</ele><time>2026-04-12T09:06:58.069Z</time></trkpt><trkpt lat="43.8307927" lon="10.3792364"><ele>49.166666666666664</ele><time>2026-04-12T09:07:02.066Z</time></trkpt><trkpt lat="43.8308613" lon="10.3792794"><ele>49.0</ele><time>2026-04-12T09:07:03.066Z</time></trkpt><trkpt lat="43.8309217" lon="10.3793531"><ele>48.99999999999999</ele><time>2026-04-12T09:07:04.066Z</time></trkpt><trkpt lat="43.8309643" lon="10.3794263"><ele>49.0</ele><time>2026-04-12T09:07:05.067Z</time></trkpt><trkpt lat="43.8309817" lon="10.3795331"><ele>49.0</ele><time>2026-04-12T09:07:07.067Z</time></trkpt><trkpt lat="43.8309504" lon="10.3796261"><ele>49.0</ele><time>2026-04-12T09:07:11.07Z</time></trkpt><trkpt lat="43.8309422" lon="10.3797431"><ele>48.99999999999999</ele><time>2026-04-12T09:07:13.07Z</time></trkpt><trkpt lat="43.8309816" lon="10.3798401"><ele>49.0</ele><time>2026-04-12T09:07:15.074Z</time></trkpt><trkpt lat="43.8310678" lon="10.3798635"><ele>50.6</ele><time>2026-04-12T09:07:17.067Z</time></trkpt><trkpt lat="43.8311815" lon="10.3798394"><ele>52.2</ele><time>2026-04-12T09:07:19.069Z</time></trkpt><trkpt lat="43.8312809" lon="10.3797761"><ele>53.800000000000004</ele><time>2026-04-12T09:07:21.068Z</time></trkpt><trkpt lat="43.8313412" lon="10.3796405"><ele>55.400000000000006</ele><time>2026-04-12T09:07:23.069Z</time></trkpt><trkpt lat="43.8313522" lon="10.3795441"><ele>57.0</ele><time>2026-04-12T09:07:24.069Z</time></trkpt><trkpt lat="43.8313608" lon="10.3794512"><ele>57.0</ele><time>2026-04-12T09:07:25.067Z</time></trkpt><trkpt lat="43.8313743" lon="10.3793558"><ele>57.0</ele><time>2026-04-12T09:07:26.067Z</time></trkpt><trkpt lat="43.8314085" lon="10.3792715"><ele>57.0</ele><time>2026-04-12T09:07:27.066Z</time></trkpt><trkpt lat="43.8314589" lon="10.3791893"><ele>57.0</ele><time>2026-04-12T09:07:28.068Z</time></trkpt><trkpt lat="43.8315223" lon="10.3791081"><ele>57.0</ele><time>2026-04-12T09:07:29.068Z</time></trkpt><trkpt lat="43.8315898" lon="10.3790292"><ele>57.0</ele><time>2026-04-12T09:07:30.066Z</time></trkpt><trkpt lat="43.8316526" lon="10.3789522"><ele>57.0</ele><time>2026-04-12T09:07:31.063Z</time></trkpt><trkpt lat="43.8317192" lon="10.378889"><ele>57.0</ele><time>2026-04-12T09:07:32.065Z</time></trkpt><trkpt lat="43.8317921" lon="10.378827"><ele>57.0</ele><time>2026-04-12T09:07:33.066Z</time></trkpt><trkpt lat="43.8318693" lon="10.3787686"><ele>57.0</ele><time>2026-04-12T09:07:34.064Z</time></trkpt><trkpt lat="43.8319472" lon="10.3787098"><ele>57.0</ele><time>2026-04-12T09:07:35.062Z</time></trkpt><trkpt lat="43.8320207" lon="10.3786592"><ele>57.0</ele><time>2026-04-12T09:07:36.064Z</time></trkpt><trkpt lat="43.8320928" lon="10.3786101"><ele>56.5</ele><time>2026-04-12T09:07:37.064Z</time></trkpt><trkpt lat="43.8321704" lon="10.3785672"><ele>56.0</ele><time>2026-04-12T09:07:38.063Z</time></trkpt><trkpt lat="43.8322561" lon="10.3785333"><ele>55.5</ele><time>2026-04-12T09:07:39.064Z</time></trkpt><trkpt lat="43.8323452" lon="10.3785056"><ele>55.0</ele><time>2026-04-12T09:07:40.064Z</time></trkpt><trkpt lat="43.832433" lon="10.3784813"><ele>54.5</ele><time>2026-04-12T09:07:41.067Z</time></trkpt><trkpt lat="43.8325174" lon="10.3784542"><ele>54.0</ele><time>2026-04-12T09:07:42.067Z</time></trkpt><trkpt lat="43.8325988" lon="10.3784149"><ele>54.5</ele><time>2026-04-12T09:07:43.07Z</time></trkpt><trkpt lat="43.8326725" lon="10.3783631"><ele>55.0</ele><time>2026-04-12T09:07:44.07Z</time></trkpt><trkpt lat="43.832737" lon="10.3783131"><ele>55.5</ele><time>2026-04-12T09:07:45.064Z</time></trkpt><trkpt lat="43.8327942" lon="10.3782756"><ele>56.0</ele><time>2026-04-12T09:07:46.069Z</time></trkpt><trkpt lat="43.8328931" lon="10.378233"><ele>56.5</ele><time>2026-04-12T09:07:48.067Z</time></trkpt><trkpt lat="43.8329571" lon="10.3782439"><ele>57.0</ele><time>2026-04-12T09:07:49.063Z</time></trkpt><trkpt lat="43.8330299" lon="10.3782756"><ele>57.0</ele><time>2026-04-12T09:07:50.068Z</time></trkpt><trkpt lat="43.8331091" lon="10.3783302"><ele>57.0</ele><time>2026-04-12T09:07:51.067Z</time></trkpt><trkpt lat="43.8331931" lon="10.3784021"><ele>57.0</ele><time>2026-04-12T09:07:52.068Z</time></trkpt><trkpt lat="43.833282" lon="10.3784899"><ele>57.0</ele><time>2026-04-12T09:07:53.071Z</time></trkpt><trkpt lat="43.8333606" lon="10.3785796"><ele>57.0</ele><time>2026-04-12T09:07:54.068Z</time></trkpt><trkpt lat="43.833423" lon="10.3786653"><ele>58.0</ele><time>2026-04-12T09:07:55.068Z</time></trkpt><trkpt lat="43.8334742" lon="10.3787576"><ele>59.0</ele><time>2026-04-12T09:07:56.072Z</time></trkpt><trkpt lat="43.8335173" lon="10.3788594"><ele>60.0</ele><time>2026-04-12T09:07:57.07Z</time></trkpt><trkpt lat="43.8335486" lon="10.3789663"><ele>61.0</ele><time>2026-04-12T09:07:58.072Z</time></trkpt><trkpt lat="43.8335673" lon="10.3790724"><ele>62.0</ele><time>2026-04-12T09:07:59.069Z</time></trkpt><trkpt lat="43.8335816" lon="10.3791781"><ele>63.0</ele><time>2026-04-12T09:08:00.072Z</time></trkpt><trkpt lat="43.8335976" lon="10.3792775"><ele>63.85714285714286</ele><time>2026-04-12T09:08:01.066Z</time></trkpt><trkpt lat="43.8336092" lon="10.3793738"><ele>64.71428571428572</ele><time>2026-04-12T09:08:02.067Z</time></trkpt><trkpt lat="43.833618" lon="10.3794693"><ele>65.57142857142857</ele><time>2026-04-12T09:08:03.067Z</time></trkpt><trkpt lat="43.8336207" lon="10.3795676"><ele>66.42857142857143</ele><time>2026-04-12T09:08:04.073Z</time></trkpt><trkpt lat="43.8336194" lon="10.3796732"><ele>67.28571428571429</ele><time>2026-04-12T09:08:05.066Z</time></trkpt><trkpt lat="43.8336112" lon="10.3797813"><ele>68.14285714285714</ele><time>2026-04-12T09:08:06.065Z</time></trkpt><trkpt lat="43.8335988" lon="10.3798905"><ele>69.0</ele><time>2026-04-12T09:08:07.064Z</time></trkpt><trkpt lat="43.8335862" lon="10.3799998"><ele>69.83333333333333</ele><time>2026-04-12T09:08:08.058Z</time></trkpt><trkpt lat="43.8335753" lon="10.3801065"><ele>70.66666666666667</ele><time>2026-04-12T09:08:09.065Z</time></trkpt><trkpt lat="43.8335663" lon="10.3802119"><ele>71.5</ele><time>2026-04-12T09:08:10.064Z</time></trkpt><trkpt lat="43.8335608" lon="10.3803101"><ele>72.33333333333334</ele><time>2026-04-12T09:08:11.067Z</time></trkpt><trkpt lat="43.8335625" lon="10.3804677"><ele>73.16666666666667</ele><time>2026-04-12T09:08:13.069Z</time></trkpt><trkpt lat="43.8335536" lon="10.3805829"><ele>74.0</ele><time>2026-04-12T09:08:15.069Z</time></trkpt><trkpt lat="43.8334981" lon="10.3806653"><ele>75.66666666666667</ele><time>2026-04-12T09:08:17.068Z</time></trkpt><trkpt lat="43.8333992" lon="10.3807445"><ele>77.33333333333334</ele><time>2026-04-12T09:08:19.07Z</time></trkpt><trkpt lat="43.833336" lon="10.3807943"><ele>79.0</ele><time>2026-04-12T09:08:20.07Z</time></trkpt><trkpt lat="43.8332678" lon="10.3808439"><ele>80.66666666666667</ele><time>2026-04-12T09:08:21.069Z</time></trkpt><trkpt lat="43.8331944" lon="10.3808909"><ele>82.33333333333333</ele><time>2026-04-12T09:08:22.07Z</time></trkpt><trkpt lat="43.8331148" lon="10.380934"><ele>84.0</ele><time>2026-04-12T09:08:23.074Z</time></trkpt><trkpt lat="43.8330314" lon="10.3809754"><ele>84.0</ele><time>2026-04-12T09:08:24.07Z</time></trkpt><trkpt lat="43.8329577" lon="10.3810188"><ele>84.0</ele><time>2026-04-12T09:08:25.073Z</time></trkpt><trkpt lat="43.8329041" lon="10.3810679"><ele>84.0</ele><time>2026-04-12T09:08:26.072Z</time></trkpt><trkpt lat="43.8328708" lon="10.3812029"><ele>84.0</ele><time>2026-04-12T09:08:28.07Z</time></trkpt><trkpt lat="43.8328884" lon="10.3813102"><ele>84.0</ele><time>2026-04-12T09:08:30.07Z</time></trkpt><trkpt lat="43.8328931" lon="10.3814531"><ele>84.0</ele><time>2026-04-12T09:08:32.068Z</time></trkpt><trkpt lat="43.8328751" lon="10.3815454"><ele>83.5</ele><time>2026-04-12T09:08:33.068Z</time></trkpt><trkpt lat="43.8328488" lon="10.3816431"><ele>83.0</ele><time>2026-04-12T09:08:34.066Z</time></trkpt><trkpt lat="43.8328244" lon="10.3817451"><ele>82.5</ele><time>2026-04-12T09:08:35.067Z</time></trkpt><trkpt lat="43.8327976" lon="10.3818473"><ele>82.0</ele><time>2026-04-12T09:08:36.07Z</time></trkpt><trkpt lat="43.8327699" lon="10.3819528"><ele>81.5</ele><time>2026-04-12T09:08:37.071Z</time></trkpt><trkpt lat="43.8327451" lon="10.3820595"><ele>81.0</ele><time>2026-04-12T09:08:38.07Z</time></trkpt><trkpt lat="43.8327251" lon="10.382175"><ele>81.0</ele><time>2026-04-12T09:08:39.071Z</time></trkpt><trkpt lat="43.8327073" lon="10.3822956"><ele>81.0</ele><time>2026-04-12T09:08:40.068Z</time></trkpt><trkpt lat="43.8326931" lon="10.382408"><ele>81.0</ele><time>2026-04-12T09:08:41.07Z</time></trkpt><trkpt lat="43.8326811" lon="10.3825144"><ele>81.0</ele><time>2026-04-12T09:08:42.069Z</time></trkpt><trkpt lat="43.8326729" lon="10.3826034"><ele>81.0</ele><time>2026-04-12T09:08:43.073Z</time></trkpt><trkpt lat="43.8326538" lon="10.3827413"><ele>81.0</ele><time>2026-04-12T09:08:45.07Z</time></trkpt><trkpt lat="43.8325969" lon="10.3828449"><ele>83.16666666666667</ele><time>2026-04-12T09:08:47.073Z</time></trkpt><trkpt lat="43.8325109" lon="10.3829389"><ele>85.33333333333333</ele><time>2026-04-12T09:08:49.07Z</time></trkpt><trkpt lat="43.8324433" lon="10.3830475"><ele>87.5</ele><time>2026-04-12T09:08:51.071Z</time></trkpt><trkpt lat="43.8324194" lon="10.3831314"><ele>89.66666666666666</ele><time>2026-04-12T09:09:03.08Z</time></trkpt><trkpt lat="43.8324533" lon="10.3830423"><ele>91.83333333333333</ele><time>2026-04-12T09:09:33.072Z</time></trkpt><trkpt lat="43.8325004" lon="10.382967"><ele>94.0</ele><time>2026-04-12T09:09:35.071Z</time></trkpt><trkpt lat="43.8325603" lon="10.3828759"><ele>94.0</ele><time>2026-04-12T09:09:37.071Z</time></trkpt><trkpt lat="43.8326177" lon="10.3827747"><ele>94.0</ele><time>2026-04-12T09:09:39.075Z</time></trkpt><trkpt lat="43.8326527" lon="10.3826499"><ele>94.0</ele><time>2026-04-12T09:09:41.074Z</time></trkpt><trkpt lat="43.8326616" lon="10.3824848"><ele>94.0</ele><time>2026-04-12T09:09:43.074Z</time></trkpt><trkpt lat="43.8326663" lon="10.3823935"><ele>94.0</ele><time>2026-04-12T09:09:44.071Z</time></trkpt><trkpt lat="43.8326717" lon="10.3822903"><ele>91.83333333333333</ele><time>2026-04-12T09:09:45.072Z</time></trkpt><trkpt lat="43.8326803" lon="10.3821807"><ele>89.66666666666666</ele><time>2026-04-12T09:09:46.072Z</time></trkpt><trkpt lat="43.8326953" lon="10.3820741"><ele>87.5</ele><time>2026-04-12T09:09:47.072Z</time></trkpt><trkpt lat="43.8327171" lon="10.3819767"><ele>85.33333333333333</ele><time>2026-04-12T09:09:48.07Z</time></trkpt><trkpt lat="43.8327409" lon="10.3818862"><ele>83.16666666666667</ele><time>2026-04-12T09:09:49.074Z</time></trkpt><trkpt lat="43.8327707" lon="10.3817967"><ele>81.0</ele><time>2026-04-12T09:09:50.073Z</time></trkpt><trkpt lat="43.8327988" lon="10.3816948"><ele>81.0</ele><time>2026-04-12T09:09:51.076Z</time></trkpt><trkpt lat="43.8328233" lon="10.3815868"><ele>81.0</ele><time>2026-04-12T09:09:52.072Z</time></trkpt><trkpt lat="43.8328436" lon="10.3814867"><ele>81.0</ele><time>2026-04-12T09:09:53.077Z</time></trkpt><trkpt lat="43.8328597" lon="10.3813923"><ele>81.0</ele><time>2026-04-12T09:09:54.072Z</time></trkpt><trkpt lat="43.8328678" lon="10.3813037"><ele>81.0</ele><time>2026-04-12T09:09:55.068Z</time></trkpt><trkpt lat="43.8328768" lon="10.3811742"><ele>81.0</ele><time>2026-04-12T09:09:57.071Z</time></trkpt><trkpt lat="43.8329231" lon="10.3810707"><ele>81.5</ele><time>2026-04-12T09:14:06.072Z</time></trkpt><trkpt lat="43.8330152" lon="10.3809806"><ele>82.0</ele><time>2026-04-12T09:14:08.072Z</time></trkpt><trkpt lat="43.8330729" lon="10.3809404"><ele>82.5</ele><time>2026-04-12T09:14:09.083Z</time></trkpt><trkpt lat="43.8331404" lon="10.3809083"><ele>83.0</ele><time>2026-04-12T09:14:10.083Z</time></trkpt><trkpt lat="43.8332097" lon="10.3808799"><ele>83.5</ele><time>2026-04-12T09:14:11.082Z</time></trkpt><trkpt lat="43.8332767" lon="10.3808522"><ele>84.0</ele><time>2026-04-12T09:14:12.085Z</time></trkpt><trkpt lat="43.8333379" lon="10.3808236"><ele>84.0</ele><time>2026-04-12T09:14:13.091Z</time></trkpt><trkpt lat="43.8334498" lon="10.3807556"><ele>84.0</ele><time>2026-04-12T09:14:15.082Z</time></trkpt><trkpt lat="43.83354" lon="10.3806698"><ele>84.0</ele><time>2026-04-12T09:14:17.093Z</time></trkpt><trkpt lat="43.8335699" lon="10.3805593"><ele>84.0</ele><time>2026-04-12T09:14:19.088Z</time></trkpt><trkpt lat="43.8335624" lon="10.3804717"><ele>84.0</ele><time>2026-04-12T09:14:21.086Z</time></trkpt><trkpt lat="43.8335473" lon="10.380351"><ele>82.5</ele><time>2026-04-12T09:24:55.079Z</time></trkpt><trkpt lat="43.8335486" lon="10.3802413"><ele>81.0</ele><time>2026-04-12T09:24:56.094Z</time></trkpt><trkpt lat="43.8335561" lon="10.3801266"><ele>79.5</ele><time>2026-04-12T09:24:57.088Z</time></trkpt><trkpt lat="43.8335591" lon="10.3800015"><ele>78.0</ele><time>2026-04-12T09:24:58.087Z</time></trkpt><trkpt lat="43.8335646" lon="10.3798855"><ele>76.5</ele><time>2026-04-12T09:24:59.081Z</time></trkpt><trkpt lat="43.833574" lon="10.3797738"><ele>75.0</ele><time>2026-04-12T09:25:00.089Z</time></trkpt><trkpt lat="43.8335824" lon="10.3796696"><ele>74.0</ele><time>2026-04-12T09:25:01.081Z</time></trkpt><trkpt lat="43.8335864" lon="10.379572"><ele>73.0</ele><time>2026-04-12T09:25:02.083Z</time></trkpt><trkpt lat="43.8335854" lon="10.3794762"><ele>72.0</ele><time>2026-04-12T09:25:03.088Z</time></trkpt><trkpt lat="43.8335799" lon="10.3793849"><ele>71.0</ele><time>2026-04-12T09:25:04.082Z</time></trkpt><trkpt lat="43.8335559" lon="10.379213"><ele>70.0</ele><time>2026-04-12T09:25:06.083Z</time></trkpt><trkpt lat="43.8335408" lon="10.3791243"><ele>69.0</ele><time>2026-04-12T09:25:07.077Z</time></trkpt><trkpt lat="43.8335232" lon="10.3790308"><ele>69.0</ele><time>2026-04-12T09:25:08.083Z</time></trkpt><trkpt lat="43.8335008" lon="10.3789375"><ele>69.0</ele><time>2026-04-12T09:25:09.082Z</time></trkpt><trkpt lat="43.8334733" lon="10.3788454"><ele>69.0</ele><time>2026-04-12T09:25:10.083Z</time></trkpt><trkpt lat="43.833439" lon="10.3787508"><ele>69.0</ele><time>2026-04-12T09:25:11.084Z</time></trkpt><trkpt lat="43.8334018" lon="10.378669"><ele>69.0</ele><time>2026-04-12T09:25:12.085Z</time></trkpt><trkpt lat="43.8333527" lon="10.378594"><ele>69.0</ele><time>2026-04-12T09:25:13.09Z</time></trkpt><trkpt lat="43.8332897" lon="10.3785199"><ele>69.0</ele><time>2026-04-12T09:25:14.081Z</time></trkpt><trkpt lat="43.8332146" lon="10.3784476"><ele>67.0</ele><time>2026-04-12T09:25:15.08Z</time></trkpt><trkpt lat="43.8331325" lon="10.3783798"><ele>65.0</ele><time>2026-04-12T09:25:16.083Z</time></trkpt><trkpt lat="43.8330493" lon="10.3783214"><ele>63.0</ele><time>2026-04-12T09:25:17.07Z</time></trkpt><trkpt lat="43.8329688" lon="10.3782808"><ele>61.0</ele><time>2026-04-12T09:25:18.084Z</time></trkpt><trkpt lat="43.8328898" lon="10.3782556"><ele>59.0</ele><time>2026-04-12T09:25:19.087Z</time></trkpt><trkpt lat="43.8328114" lon="10.3782578"><ele>57.0</ele><time>2026-04-12T09:25:20.085Z</time></trkpt><trkpt lat="43.832736" lon="10.378286"><ele>57.0</ele><time>2026-04-12T09:25:21.088Z</time></trkpt><trkpt lat="43.832656" lon="10.3783373"><ele>57.0</ele><time>2026-04-12T09:25:22.086Z</time></trkpt><trkpt lat="43.8325609" lon="10.3784056"><ele>57.0</ele><time>2026-04-12T09:25:23.087Z</time></trkpt><trkpt lat="43.8324494" lon="10.3784719"><ele>57.0</ele><time>2026-04-12T09:25:24.086Z</time></trkpt><trkpt lat="43.8323287" lon="10.3785194"><ele>57.0</ele><time>2026-04-12T09:25:25.084Z</time></trkpt><trkpt lat="43.8322046" lon="10.3785573"><ele>56.25</ele><time>2026-04-12T09:25:26.083Z</time></trkpt><trkpt lat="43.8320813" lon="10.3786001"><ele>55.5</ele><time>2026-04-12T09:25:27.082Z</time></trkpt><trkpt lat="43.8319747" lon="10.3786504"><ele>54.75</ele><time>2026-04-12T09:25:28.082Z</time></trkpt><trkpt lat="43.8318795" lon="10.3787123"><ele>54.0</ele><time>2026-04-12T09:25:29.085Z</time></trkpt><trkpt lat="43.8317832" lon="10.3787992"><ele>54.75</ele><time>2026-04-12T09:25:30.082Z</time></trkpt><trkpt lat="43.8316823" lon="10.3789041"><ele>55.5</ele><time>2026-04-12T09:25:31.079Z</time></trkpt><trkpt lat="43.831582" lon="10.3790159"><ele>56.25</ele><time>2026-04-12T09:25:32.08Z</time></trkpt><trkpt lat="43.8314927" lon="10.3791345"><ele>57.0</ele><time>2026-04-12T09:25:33.081Z</time></trkpt><trkpt lat="43.8314252" lon="10.3792425"><ele>57.0</ele><time>2026-04-12T09:25:34.086Z</time></trkpt><trkpt lat="43.8313763" lon="10.3793343"><ele>57.0</ele><time>2026-04-12T09:25:35.087Z</time></trkpt><trkpt lat="43.8313413" lon="10.3794087"><ele>57.0</ele><time>2026-04-12T09:25:36.084Z</time></trkpt><trkpt lat="43.8313219" lon="10.3794966"><ele>57.0</ele><time>2026-04-12T09:25:37.082Z</time></trkpt><trkpt lat="43.8313119" lon="10.3796021"><ele>57.0</ele><time>2026-04-12T09:25:38.081Z</time></trkpt><trkpt lat="43.8312988" lon="10.3796883"><ele>57.0</ele><time>2026-04-12T09:25:39.084Z</time></trkpt><trkpt lat="43.8312143" lon="10.379798"><ele>55.666666666666664</ele><time>2026-04-12T09:25:41.083Z</time></trkpt><trkpt lat="43.8311347" lon="10.3798215"><ele>54.33333333333333</ele><time>2026-04-12T09:25:42.082Z</time></trkpt><trkpt lat="43.8310497" lon="10.3798225"><ele>53.0</ele><time>2026-04-12T09:25:43.086Z</time></trkpt><trkpt lat="43.8309801" lon="10.3798041"><ele>51.666666666666664</ele><time>2026-04-12T09:25:44.077Z</time></trkpt><trkpt lat="43.8309162" lon="10.379706"><ele>50.33333333333333</ele><time>2026-04-12T09:25:46.079Z</time></trkpt><trkpt lat="43.8309201" lon="10.3796138"><ele>49.0</ele><time>2026-04-12T09:25:47.08Z</time></trkpt><trkpt lat="43.8309325" lon="10.3794991"><ele>48.99999999999999</ele><time>2026-04-12T09:25:48.079Z</time></trkpt><trkpt lat="43.8309308" lon="10.3793916"><ele>49.0</ele><time>2026-04-12T09:25:49.083Z</time></trkpt><trkpt lat="43.8309033" lon="10.3793018"><ele>49.0</ele><time>2026-04-12T09:25:50.085Z</time></trkpt><trkpt lat="43.8308563" lon="10.3792432"><ele>49.0</ele><time>2026-04-12T09:25:51.085Z</time></trkpt><trkpt lat="43.8307848" lon="10.379205"><ele>48.99999999999999</ele><time>2026-04-12T09:25:53.086Z</time></trkpt><trkpt lat="43.8307139" lon="10.3792166"><ele>49.0</ele><time>2026-04-12T09:26:08.078Z</time></trkpt><trkpt lat="43.8306123" lon="10.3792302"><ele>48.99999999999999</ele><time>2026-04-12T09:26:10.086Z</time></trkpt><trkpt lat="43.8305649" lon="10.3792922"><ele>49.0</ele><time>2026-04-12T09:26:11.086Z</time></trkpt><trkpt lat="43.8305169" lon="10.3793765"><ele>49.0</ele><time>2026-04-12T09:26:12.084Z</time></trkpt><trkpt lat="43.8304675" lon="10.3794642"><ele>49.0</ele><time>2026-04-12T09:26:13.087Z</time></trkpt><trkpt lat="43.8304094" lon="10.3795375"><ele>48.99999999999999</ele><time>2026-04-12T09:26:14.082Z</time></trkpt><trkpt lat="43.8303387" lon="10.3796031"><ele>49.0</ele><time>2026-04-12T09:26:15.086Z</time></trkpt><trkpt lat="43.8302585" lon="10.3796701"><ele>48.6</ele><time>2026-04-12T09:26:16.086Z</time></trkpt><trkpt lat="43.8301804" lon="10.3797481"><ele>48.2</ele><time>2026-04-12T09:26:17.088Z</time></trkpt><trkpt lat="43.8301052" lon="10.3798313"><ele>47.800000000000004</ele><time>2026-04-12T09:26:18.084Z</time></trkpt><trkpt lat="43.8300325" lon="10.3799093"><ele>47.400000000000006</ele><time>2026-04-12T09:26:19.085Z</time></trkpt><trkpt lat="43.8299568" lon="10.3799769"><ele>47.0</ele><time>2026-04-12T09:26:20.084Z</time></trkpt><trkpt lat="43.8298789" lon="10.3800326"><ele>46.83333333333333</ele><time>2026-04-12T09:26:21.087Z</time></trkpt><trkpt lat="43.8297972" lon="10.3800861"><ele>46.666666666666664</ele><time>2026-04-12T09:26:22.09Z</time></trkpt><trkpt lat="43.8297163" lon="10.3801399"><ele>46.5</ele><time>2026-04-12T09:26:23.091Z</time></trkpt><trkpt lat="43.8296371" lon="10.380188"><ele>46.333333333333336</ele><time>2026-04-12T09:26:24.09Z</time></trkpt><trkpt lat="43.8295608" lon="10.380226"><ele>46.16666666666667</ele><time>2026-04-12T09:26:25.09Z</time></trkpt><trkpt lat="43.8294875" lon="10.3802692"><ele>46.0</ele><time>2026-04-12T09:26:26.085Z</time></trkpt><trkpt lat="43.8294092" lon="10.3803306"><ele>46.0</ele><time>2026-04-12T09:26:27.085Z</time></trkpt><trkpt lat="43.8293228" lon="10.3804137"><ele>46.0</ele><time>2026-04-12T09:26:28.085Z</time></trkpt><trkpt lat="43.8292338" lon="10.3805049"><ele>46.0</ele><time>2026-04-12T09:26:29.092Z</time></trkpt><trkpt lat="43.829149" lon="10.3805888"><ele>46.0</ele><time>2026-04-12T09:26:30.087Z</time></trkpt><trkpt lat="43.8290733" lon="10.3806611"><ele>46.0</ele><time>2026-04-12T09:26:31.09Z</time></trkpt><trkpt lat="43.8290071" lon="10.3807227"><ele>44.66666666666667</ele><time>2026-04-12T09:26:32.09Z</time></trkpt><trkpt lat="43.8289552" lon="10.3807809"><ele>43.333333333333336</ele><time>2026-04-12T09:26:33.088Z</time></trkpt><trkpt lat="43.8289034" lon="10.3808834"><ele>42.0</ele><time>2026-04-12T09:26:35.091Z</time></trkpt><trkpt lat="43.8289119" lon="10.3810262"><ele>40.666666666666664</ele><time>2026-04-12T09:26:38.096Z</time></trkpt><trkpt lat="43.828945" lon="10.3811033"><ele>39.33333333333333</ele><time>2026-04-12T09:26:39.093Z</time></trkpt><trkpt lat="43.8289805" lon="10.3811998"><ele>38.0</ele><time>2026-04-12T09:26:40.089Z</time></trkpt><trkpt lat="43.8289982" lon="10.3813183"><ele>38.199999999999996</ele><time>2026-04-12T09:26:41.077Z</time></trkpt><trkpt lat="43.8289928" lon="10.38145"><ele>38.4</ele><time>2026-04-12T09:26:42.093Z</time></trkpt><trkpt lat="43.828956" lon="10.3815816"><ele>38.599999999999994</ele><time>2026-04-12T09:26:43.095Z</time></trkpt><trkpt lat="43.82889" lon="10.3817202"><ele>38.8</ele><time>2026-04-12T09:26:44.093Z</time></trkpt><trkpt lat="43.8288107" lon="10.3818652"><ele>39.0</ele><time>2026-04-12T09:26:45.092Z</time></trkpt><trkpt lat="43.8287393" lon="10.3820103"><ele>39.0</ele><time>2026-04-12T09:26:46.088Z</time></trkpt><trkpt lat="43.8286795" lon="10.3821555"><ele>39.0</ele><time>2026-04-12T09:26:47.091Z</time></trkpt><trkpt lat="43.8286346" lon="10.3823131"><ele>39.0</ele><time>2026-04-12T09:26:48.091Z</time></trkpt><trkpt lat="43.8286042" lon="10.3824843"><ele>39.0</ele><time>2026-04-12T09:26:49.093Z</time></trkpt><trkpt lat="43.8285919" lon="10.3826698"><ele>39.0</ele><time>2026-04-12T09:26:50.093Z</time></trkpt><trkpt lat="43.8285952" lon="10.3828664"><ele>39.0</ele><time>2026-04-12T09:26:51.093Z</time></trkpt><trkpt lat="43.8286092" lon="10.3830579"><ele>39.0</ele><time>2026-04-12T09:26:52.093Z</time></trkpt><trkpt lat="43.8286339" lon="10.3832328"><ele>39.0</ele><time>2026-04-12T09:26:53.09Z</time></trkpt><trkpt lat="43.8286733" lon="10.3833991"><ele>39.0</ele><time>2026-04-12T09:26:54.094Z</time></trkpt><trkpt lat="43.8287319" lon="10.3835593"><ele>39.0</ele><time>2026-04-12T09:26:55.094Z</time></trkpt><trkpt lat="43.8288098" lon="10.3837175"><ele>39.0</ele><time>2026-04-12T09:26:56.09Z</time></trkpt><trkpt lat="43.8288953" lon="10.3838857"><ele>39.0</ele><time>2026-04-12T09:26:57.094Z</time></trkpt><trkpt lat="43.828976" lon="10.3840555"><ele>39.0</ele><time>2026-04-12T09:26:58.093Z</time></trkpt><trkpt lat="43.8290433" lon="10.3842325"><ele>39.0</ele><time>2026-04-12T09:26:59.093Z</time></trkpt><trkpt lat="43.8290928" lon="10.3844194"><ele>39.0</ele><time>2026-04-12T09:27:00.093Z</time></trkpt><trkpt lat="43.8291267" lon="10.3846148"><ele>39.0</ele><time>2026-04-12T09:27:01.093Z</time></trkpt><trkpt lat="43.8291554" lon="10.3848066"><ele>38.6</ele><time>2026-04-12T09:27:02.088Z</time></trkpt><trkpt lat="43.8291887" lon="10.3849788"><ele>38.2</ele><time>2026-04-12T09:27:03.096Z</time></trkpt><trkpt lat="43.8292325" lon="10.3851313"><ele>37.800000000000004</ele><time>2026-04-12T09:27:04.094Z</time></trkpt><trkpt lat="43.8292701" lon="10.3852162"><ele>37.4</ele><time>2026-04-12T09:27:05.093Z</time></trkpt><trkpt lat="43.8293555" lon="10.3853529"><ele>37.0</ele><time>2026-04-12T09:27:06.093Z</time></trkpt><trkpt lat="43.8294542" lon="10.385487"><ele>37.66666666666667</ele><time>2026-04-12T09:27:07.093Z</time></trkpt><trkpt lat="43.8295627" lon="10.3856333"><ele>38.333333333333336</ele><time>2026-04-12T09:27:08.094Z</time></trkpt><trkpt lat="43.8296663" lon="10.385784"><ele>39.0</ele><time>2026-04-12T09:27:09.092Z</time></trkpt><trkpt lat="43.8297681" lon="10.385941"><ele>39.0</ele><time>2026-04-12T09:27:10.092Z</time></trkpt><trkpt lat="43.8298605" lon="10.3860848"><ele>39.0</ele><time>2026-04-12T09:27:11.091Z</time></trkpt><trkpt lat="43.8299588" lon="10.3862172"><ele>39.0</ele><time>2026-04-12T09:27:12.094Z</time></trkpt><trkpt lat="43.8300729" lon="10.3863343"><ele>39.0</ele><time>2026-04-12T09:27:13.096Z</time></trkpt><trkpt lat="43.8301978" lon="10.3864384"><ele>39.0</ele><time>2026-04-12T09:27:14.089Z</time></trkpt><trkpt lat="43.8303229" lon="10.3865398"><ele>39.0</ele><time>2026-04-12T09:27:15.093Z</time></trkpt><trkpt lat="43.830434" lon="10.3866531"><ele>39.0</ele><time>2026-04-12T09:27:16.094Z</time></trkpt><trkpt lat="43.8305244" lon="10.3867729"><ele>39.0</ele><time>2026-04-12T09:27:17.094Z</time></trkpt><trkpt lat="43.8306094" lon="10.3868938"><ele>39.0</ele><time>2026-04-12T09:27:18.091Z</time></trkpt><trkpt lat="43.8306902" lon="10.3870145"><ele>39.0</ele><time>2026-04-12T09:27:19.094Z</time></trkpt><trkpt lat="43.8307682" lon="10.3871306"><ele>39.0</ele><time>2026-04-12T09:27:20.091Z</time></trkpt><trkpt lat="43.8308328" lon="10.3872456"><ele>39.0</ele><time>2026-04-12T09:27:21.095Z</time></trkpt><trkpt lat="43.8308734" lon="10.3873633"><ele>39.0</ele><time>2026-04-12T09:27:22.089Z</time></trkpt><trkpt lat="43.83089" lon="10.3875038"><ele>37.25</ele><time>2026-04-12T09:27:23.098Z</time></trkpt><trkpt lat="43.8308886" lon="10.3876756"><ele>35.5</ele><time>2026-04-12T09:27:24.094Z</time></trkpt><trkpt lat="43.8308867" lon="10.3878662"><ele>33.75</ele><time>2026-04-12T09:27:25.089Z</time></trkpt><trkpt lat="43.830881" lon="10.3880554"><ele>32.0</ele><time>2026-04-12T09:27:26.096Z</time></trkpt><trkpt lat="43.8308617" lon="10.3882498"><ele>31.5</ele><time>2026-04-12T09:27:27.089Z</time></trkpt><trkpt lat="43.8308415" lon="10.3884248"><ele>31.0</ele><time>2026-04-12T09:27:28.094Z</time></trkpt><trkpt lat="43.8308243" lon="10.3885964"><ele>30.5</ele><time>2026-04-12T09:27:29.092Z</time></trkpt><trkpt lat="43.8308102" lon="10.3887516"><ele>30.0</ele><time>2026-04-12T09:27:30.092Z</time></trkpt><trkpt lat="43.8308023" lon="10.3889069"><ele>29.5</ele><time>2026-04-12T09:27:31.089Z</time></trkpt><trkpt lat="43.8308105" lon="10.389057"><ele>29.0</ele><time>2026-04-12T09:27:32.092Z</time></trkpt><trkpt lat="43.830841" lon="10.3892098"><ele>28.5</ele><time>2026-04-12T09:27:33.092Z</time></trkpt><trkpt lat="43.8308892" lon="10.3893718"><ele>28.0</ele><time>2026-04-12T09:27:34.094Z</time></trkpt><trkpt lat="43.8309529" lon="10.3895387"><ele>27.25</ele><time>2026-04-12T09:27:35.093Z</time></trkpt><trkpt lat="43.8310325" lon="10.389698"><ele>26.5</ele><time>2026-04-12T09:27:36.092Z</time></trkpt><trkpt lat="43.8311101" lon="10.3898674"><ele>25.75</ele><time>2026-04-12T09:27:37.092Z</time></trkpt><trkpt lat="43.8311973" lon="10.3900272"><ele>25.0</ele><time>2026-04-12T09:27:38.091Z</time></trkpt><trkpt lat="43.8312837" lon="10.3901843"><ele>25.0</ele><time>2026-04-12T09:27:39.091Z</time></trkpt><trkpt lat="43.8313648" lon="10.3903306"><ele>25.0</ele><time>2026-04-12T09:27:40.089Z</time></trkpt><trkpt lat="43.8314369" lon="10.3904704"><ele>25.0</ele><time>2026-04-12T09:27:41.087Z</time></trkpt><trkpt lat="43.8314917" lon="10.3905904"><ele>25.0</ele><time>2026-04-12T09:27:42.094Z</time></trkpt><trkpt lat="43.8315333" lon="10.3906884"><ele>25.0</ele><time>2026-04-12T09:27:43.096Z</time></trkpt><trkpt lat="43.831581" lon="10.3907728"><ele>24.166666666666668</ele><time>2026-04-12T09:27:44.094Z</time></trkpt><trkpt lat="43.8316327" lon="10.390862"><ele>23.333333333333336</ele><time>2026-04-12T09:27:45.095Z</time></trkpt><trkpt lat="43.831676" lon="10.3909561"><ele>22.5</ele><time>2026-04-12T09:27:46.093Z</time></trkpt><trkpt lat="43.8317226" lon="10.3910474"><ele>21.666666666666668</ele><time>2026-04-12T09:27:47.091Z</time></trkpt><trkpt lat="43.8317736" lon="10.3911334"><ele>20.833333333333336</ele><time>2026-04-12T09:27:48.093Z</time></trkpt><trkpt lat="43.8318295" lon="10.3912203"><ele>20.0</ele><time>2026-04-12T09:27:49.083Z</time></trkpt><trkpt lat="43.8318896" lon="10.3913141"><ele>20.0</ele><time>2026-04-12T09:27:50.092Z</time></trkpt><trkpt lat="43.8319437" lon="10.3914043"><ele>20.0</ele><time>2026-04-12T09:27:51.09Z</time></trkpt><trkpt lat="43.831989" lon="10.3914928"><ele>20.0</ele><time>2026-04-12T09:27:52.094Z</time></trkpt><trkpt lat="43.8320541" lon="10.391609"><ele>20.0</ele><time>2026-04-12T09:27:54.094Z</time></trkpt><trkpt lat="43.8320778" lon="10.3917457"><ele>20.0</ele><time>2026-04-12T09:27:56.094Z</time></trkpt><trkpt lat="43.8320807" lon="10.3918336"><ele>20.0</ele><time>2026-04-12T09:27:57.093Z</time></trkpt><trkpt lat="43.8320806" lon="10.3919349"><ele>20.0</ele><time>2026-04-12T09:27:58.097Z</time></trkpt><trkpt lat="43.8320761" lon="10.392061"><ele>20.0</ele><time>2026-04-12T09:27:59.096Z</time></trkpt><trkpt lat="43.8320569" lon="10.3922032"><ele>20.0</ele><time>2026-04-12T09:28:00.096Z</time></trkpt><trkpt lat="43.8320479" lon="10.3923369"><ele>20.0</ele><time>2026-04-12T09:28:01.093Z</time></trkpt><trkpt lat="43.832032" lon="10.3924776"><ele>20.0</ele><time>2026-04-12T09:28:02.087Z</time></trkpt><trkpt lat="43.8320114" lon="10.3926197"><ele>20.2</ele><time>2026-04-12T09:28:03.091Z</time></trkpt><trkpt lat="43.8319839" lon="10.3927625"><ele>20.4</ele><time>2026-04-12T09:28:04.093Z</time></trkpt><trkpt lat="43.8319527" lon="10.3929047"><ele>20.6</ele><time>2026-04-12T09:28:05.093Z</time></trkpt><trkpt lat="43.8319185" lon="10.3930528"><ele>20.8</ele><time>2026-04-12T09:28:06.092Z</time></trkpt><trkpt lat="43.8318871" lon="10.3932068"><ele>21.0</ele><time>2026-04-12T09:28:07.088Z</time></trkpt><trkpt lat="43.8318611" lon="10.3933641"><ele>20.2</ele><time>2026-04-12T09:28:08.09Z</time></trkpt><trkpt lat="43.8318307" lon="10.3935146"><ele>19.400000000000002</ele><time>2026-04-12T09:28:09.093Z</time></trkpt><trkpt lat="43.8318006" lon="10.3936488"><ele>18.6</ele><time>2026-04-12T09:28:10.096Z</time></trkpt><trkpt lat="43.8317671" lon="10.3937714"><ele>17.8</ele><time>2026-04-12T09:28:11.095Z</time></trkpt><trkpt lat="43.8317319" lon="10.3938833"><ele>17.0</ele><time>2026-04-12T09:28:12.095Z</time></trkpt><trkpt lat="43.8316918" lon="10.3939815"><ele>17.0</ele><time>2026-04-12T09:28:13.096Z</time></trkpt><trkpt lat="43.8316495" lon="10.3940698"><ele>17.0</ele><time>2026-04-12T09:28:14.095Z</time></trkpt><trkpt lat="43.8316087" lon="10.3941517"><ele>17.0</ele><time>2026-04-12T09:28:15.096Z</time></trkpt><trkpt lat="43.8315699" lon="10.3942265"><ele>17.0</ele><time>2026-04-12T09:28:16.093Z</time></trkpt><trkpt lat="43.8315105" lon="10.39433"><ele>17.0</ele><time>2026-04-12T09:28:18.095Z</time></trkpt><trkpt lat="43.8314663" lon="10.3944212"><ele>17.0</ele><time>2026-04-12T09:28:22.094Z</time></trkpt><trkpt lat="43.8314017" lon="10.394606"><ele>17.25</ele><time>2026-04-12T09:29:33.104Z</time></trkpt><trkpt lat="43.8313677" lon="10.3947419"><ele>17.5</ele><time>2026-04-12T09:29:34.1Z</time></trkpt><trkpt lat="43.8313359" lon="10.3948888"><ele>17.75</ele><time>2026-04-12T09:29:35.097Z</time></trkpt><trkpt lat="43.831315" lon="10.3950447"><ele>18.0</ele><time>2026-04-12T09:29:36.099Z</time></trkpt><trkpt lat="43.8313074" lon="10.3952144"><ele>18.0</ele><time>2026-04-12T09:29:37.098Z</time></trkpt><trkpt lat="43.8313179" lon="10.3954183"><ele>18.0</ele><time>2026-04-12T09:29:38.098Z</time></trkpt><trkpt lat="43.8313393" lon="10.395672"><ele>18.0</ele><time>2026-04-12T09:29:39.078Z</time></trkpt><trkpt lat="43.8313723" lon="10.395966"><ele>17.0</ele><time>2026-04-12T09:29:40.078Z</time></trkpt><trkpt lat="43.8314075" lon="10.3962988"><ele>16.0</ele><time>2026-04-12T09:29:41.077Z</time></trkpt><trkpt lat="43.8314352" lon="10.396624"><ele>16.0</ele><time>2026-04-12T09:29:42.076Z</time></trkpt><trkpt lat="43.8314712" lon="10.3969196"><ele>16.0</ele><time>2026-04-12T09:29:43.077Z</time></trkpt><trkpt lat="43.8315365" lon="10.3971938"><ele>16.0</ele><time>2026-04-12T09:29:44.077Z</time></trkpt><trkpt lat="43.8316234" lon="10.3974391"><ele>15.333333333333332</ele><time>2026-04-12T09:29:45.079Z</time></trkpt><trkpt lat="43.8317042" lon="10.3976568"><ele>14.666666666666668</ele><time>2026-04-12T09:29:46.08Z</time></trkpt><trkpt lat="43.8317621" lon="10.397852"><ele>14.0</ele><time>2026-04-12T09:29:47.079Z</time></trkpt><trkpt lat="43.8317961" lon="10.398022"><ele>15.75</ele><time>2026-04-12T09:29:48.079Z</time></trkpt><trkpt lat="43.8318266" lon="10.3981912"><ele>17.5</ele><time>2026-04-12T09:29:49.079Z</time></trkpt><trkpt lat="43.8318544" lon="10.3983673"><ele>19.25</ele><time>2026-04-12T09:29:50.077Z</time></trkpt><trkpt lat="43.8318851" lon="10.39855"><ele>21.0</ele><time>2026-04-12T09:29:51.078Z</time></trkpt><trkpt lat="43.8319251" lon="10.3987316"><ele>19.75</ele><time>2026-04-12T09:29:52.078Z</time></trkpt><trkpt lat="43.8319766" lon="10.3989038"><ele>18.5</ele><time>2026-04-12T09:29:53.079Z</time></trkpt><trkpt lat="43.8320334" lon="10.399067"><ele>17.25</ele><time>2026-04-12T09:29:54.077Z</time></trkpt><trkpt lat="43.832091" lon="10.3992248"><ele>16.0</ele><time>2026-04-12T09:29:55.077Z</time></trkpt><trkpt lat="43.8321497" lon="10.3993818"><ele>16.0</ele><time>2026-04-12T09:29:56.078Z</time></trkpt><trkpt lat="43.8322112" lon="10.3995448"><ele>16.0</ele><time>2026-04-12T09:29:57.079Z</time></trkpt><trkpt lat="43.8322766" lon="10.3997155"><ele>16.0</ele><time>2026-04-12T09:29:58.078Z</time></trkpt><trkpt lat="43.8323446" lon="10.3998879"><ele>16.0</ele><time>2026-04-12T09:29:59.079Z</time></trkpt><trkpt lat="43.8324122" lon="10.4000629"><ele>16.0</ele><time>2026-04-12T09:30:00.077Z</time></trkpt><trkpt lat="43.8324796" lon="10.4002401"><ele>16.0</ele><time>2026-04-12T09:30:01.073Z</time></trkpt><trkpt lat="43.8325479" lon="10.4004068"><ele>16.0</ele><time>2026-04-12T09:30:02.075Z</time></trkpt><trkpt lat="43.8326198" lon="10.4005556"><ele>16.0</ele><time>2026-04-12T09:30:03.076Z</time></trkpt><trkpt lat="43.8326987" lon="10.4006958"><ele>16.0</ele><time>2026-04-12T09:30:04.074Z</time></trkpt><trkpt lat="43.8327873" lon="10.4008327"><ele>16.0</ele><time>2026-04-12T09:30:05.075Z</time></trkpt><trkpt lat="43.8328858" lon="10.4009691"><ele>16.0</ele><time>2026-04-12T09:30:06.073Z</time></trkpt><trkpt lat="43.8329925" lon="10.4011115"><ele>16.0</ele><time>2026-04-12T09:30:07.076Z</time></trkpt><trkpt lat="43.8331081" lon="10.4012552"><ele>16.0</ele><time>2026-04-12T09:30:08.076Z</time></trkpt><trkpt lat="43.8332267" lon="10.4014053"><ele>16.0</ele><time>2026-04-12T09:30:09.076Z</time></trkpt><trkpt lat="43.8333442" lon="10.401558"><ele>16.0</ele><time>2026-04-12T09:30:10.074Z</time></trkpt><trkpt lat="43.8334543" lon="10.4017047"><ele>16.75</ele><time>2026-04-12T09:30:11.078Z</time></trkpt><trkpt lat="43.8335559" lon="10.4018426"><ele>17.5</ele><time>2026-04-12T09:30:12.079Z</time></trkpt><trkpt lat="43.833641" lon="10.4019745"><ele>18.25</ele><time>2026-04-12T09:30:13.084Z</time></trkpt><trkpt lat="43.8337115" lon="10.4021089"><ele>19.0</ele><time>2026-04-12T09:30:14.08Z</time></trkpt><trkpt lat="43.8337642" lon="10.4022678"><ele>19.0</ele><time>2026-04-12T09:30:15.078Z</time></trkpt><trkpt lat="43.8338073" lon="10.402449"><ele>19.0</ele><time>2026-04-12T09:30:16.079Z</time></trkpt><trkpt lat="43.8338498" lon="10.4026392"><ele>19.0</ele><time>2026-04-12T09:30:17.078Z</time></trkpt><trkpt lat="43.8339061" lon="10.4028274"><ele>19.0</ele><time>2026-04-12T09:30:18.078Z</time></trkpt><trkpt lat="43.8339788" lon="10.4030076"><ele>18.0</ele><time>2026-04-12T09:30:19.078Z</time></trkpt><trkpt lat="43.8340593" lon="10.4031862"><ele>17.0</ele><time>2026-04-12T09:30:20.079Z</time></trkpt><trkpt lat="43.8341468" lon="10.403358"><ele>16.0</ele><time>2026-04-12T09:30:21.078Z</time></trkpt><trkpt lat="43.8342355" lon="10.403531"><ele>16.333333333333332</ele><time>2026-04-12T09:30:22.077Z</time></trkpt><trkpt lat="43.8343217" lon="10.4037077"><ele>16.666666666666668</ele><time>2026-04-12T09:30:23.081Z</time></trkpt><trkpt lat="43.8344046" lon="10.4038889"><ele>17.0</ele><time>2026-04-12T09:30:24.079Z</time></trkpt><trkpt lat="43.8344888" lon="10.4040768"><ele>16.333333333333336</ele><time>2026-04-12T09:30:25.078Z</time></trkpt><trkpt lat="43.8345738" lon="10.4042716"><ele>15.666666666666668</ele><time>2026-04-12T09:30:26.079Z</time></trkpt><trkpt lat="43.8346543" lon="10.4044695"><ele>15.0</ele><time>2026-04-12T09:30:27.078Z</time></trkpt><trkpt lat="43.8347377" lon="10.4046666"><ele>14.0</ele><time>2026-04-12T09:30:28.077Z</time></trkpt><trkpt lat="43.8348198" lon="10.4048631"><ele>13.0</ele><time>2026-04-12T09:30:29.078Z</time></trkpt><trkpt lat="43.834901" lon="10.40506"><ele>12.0</ele><time>2026-04-12T09:30:30.079Z</time></trkpt><trkpt lat="43.8349806" lon="10.4052572"><ele>12.0</ele><time>2026-04-12T09:30:31.076Z</time></trkpt><trkpt lat="43.8350582" lon="10.4054494"><ele>12.0</ele><time>2026-04-12T09:30:32.076Z</time></trkpt><trkpt lat="43.8351415" lon="10.4056321"><ele>12.0</ele><time>2026-04-12T09:30:33.078Z</time></trkpt><trkpt lat="43.8352363" lon="10.405798"><ele>12.5</ele><time>2026-04-12T09:30:34.075Z</time></trkpt><trkpt lat="43.8353419" lon="10.4059458"><ele>13.0</ele><time>2026-04-12T09:30:35.076Z</time></trkpt><trkpt lat="43.835451" lon="10.4060825"><ele>13.5</ele><time>2026-04-12T09:30:36.074Z</time></trkpt><trkpt lat="43.8355617" lon="10.4062196"><ele>14.0</ele><time>2026-04-12T09:30:37.072Z</time></trkpt><trkpt lat="43.8356719" lon="10.4063508"><ele>14.0</ele><time>2026-04-12T09:30:38.075Z</time></trkpt><trkpt lat="43.8357802" lon="10.4064755"><ele>14.0</ele><time>2026-04-12T09:30:39.078Z</time></trkpt><trkpt lat="43.8358835" lon="10.4065859"><ele>14.0</ele><time>2026-04-12T09:30:40.077Z</time></trkpt><trkpt lat="43.8359883" lon="10.4066867"><ele>14.0</ele><time>2026-04-12T09:30:41.078Z</time></trkpt><trkpt lat="43.8360945" lon="10.4067846"><ele>14.75</ele><time>2026-04-12T09:30:42.078Z</time></trkpt><trkpt lat="43.8362002" lon="10.4068843"><ele>15.5</ele><time>2026-04-12T09:30:43.083Z</time></trkpt><trkpt lat="43.8363011" lon="10.4069872"><ele>16.25</ele><time>2026-04-12T09:30:44.077Z</time></trkpt><trkpt lat="43.8363897" lon="10.4070903"><ele>17.0</ele><time>2026-04-12T09:30:45.078Z</time></trkpt><trkpt lat="43.8364601" lon="10.4071851"><ele>17.0</ele><time>2026-04-12T09:30:46.079Z</time></trkpt><trkpt lat="43.8365144" lon="10.4072698"><ele>17.0</ele><time>2026-04-12T09:30:47.077Z</time></trkpt><trkpt lat="43.8365608" lon="10.4073609"><ele>17.0</ele><time>2026-04-12T09:30:48.077Z</time></trkpt><trkpt lat="43.8366019" lon="10.4074775"><ele>17.0</ele><time>2026-04-12T09:30:49.078Z</time></trkpt><trkpt lat="43.8366134" lon="10.4076295"><ele>17.0</ele><time>2026-04-12T09:30:50.08Z</time></trkpt><trkpt lat="43.8365942" lon="10.4078306"><ele>16.666666666666668</ele><time>2026-04-12T09:30:51.078Z</time></trkpt><trkpt lat="43.8365591" lon="10.4080565"><ele>16.333333333333332</ele><time>2026-04-12T09:30:52.081Z</time></trkpt><trkpt lat="43.836528" lon="10.4082795"><ele>16.0</ele><time>2026-04-12T09:30:53.084Z</time></trkpt><trkpt lat="43.8365003" lon="10.4084868"><ele>16.0</ele><time>2026-04-12T09:30:54.08Z</time></trkpt><trkpt lat="43.8364733" lon="10.4086806"><ele>16.0</ele><time>2026-04-12T09:30:55.079Z</time></trkpt><trkpt lat="43.8364484" lon="10.4088598"><ele>16.0</ele><time>2026-04-12T09:30:56.078Z</time></trkpt><trkpt lat="43.8364211" lon="10.4090257"><ele>16.0</ele><time>2026-04-12T09:30:57.077Z</time></trkpt><trkpt lat="43.8363884" lon="10.40919"><ele>16.0</ele><time>2026-04-12T09:30:58.077Z</time></trkpt><trkpt lat="43.8363504" lon="10.4093594"><ele>16.0</ele><time>2026-04-12T09:30:59.08Z</time></trkpt><trkpt lat="43.8363096" lon="10.4095334"><ele>16.0</ele><time>2026-04-12T09:31:00.079Z</time></trkpt><trkpt lat="43.8362724" lon="10.409712"><ele>16.0</ele><time>2026-04-12T09:31:01.078Z</time></trkpt><trkpt lat="43.8362431" lon="10.4098945"><ele>16.25</ele><time>2026-04-12T09:31:02.078Z</time></trkpt><trkpt lat="43.8362225" lon="10.4100829"><ele>16.5</ele><time>2026-04-12T09:31:03.078Z</time></trkpt><trkpt lat="43.8362059" lon="10.4102765"><ele>16.75</ele><time>2026-04-12T09:31:04.076Z</time></trkpt><trkpt lat="43.8361933" lon="10.4104711"><ele>17.0</ele><time>2026-04-12T09:31:05.077Z</time></trkpt><trkpt lat="43.8361835" lon="10.4106685"><ele>16.25</ele><time>2026-04-12T09:31:06.079Z</time></trkpt><trkpt lat="43.8361776" lon="10.4108654"><ele>15.5</ele><time>2026-04-12T09:31:07.079Z</time></trkpt><trkpt lat="43.8361766" lon="10.4110596"><ele>14.75</ele><time>2026-04-12T09:31:08.079Z</time></trkpt><trkpt lat="43.8361831" lon="10.4112517"><ele>14.0</ele><time>2026-04-12T09:31:09.078Z</time></trkpt><trkpt lat="43.836196" lon="10.4114417"><ele>14.0</ele><time>2026-04-12T09:31:10.079Z</time></trkpt><trkpt lat="43.8362064" lon="10.4116259"><ele>14.0</ele><time>2026-04-12T09:31:11.08Z</time></trkpt><trkpt lat="43.8362098" lon="10.4118041"><ele>14.0</ele><time>2026-04-12T09:31:12.077Z</time></trkpt><trkpt lat="43.8362065" lon="10.4119716"><ele>14.0</ele><time>2026-04-12T09:31:13.081Z</time></trkpt><trkpt lat="43.8361986" lon="10.4121317"><ele>14.5</ele><time>2026-04-12T09:31:14.078Z</time></trkpt><trkpt lat="43.8361853" lon="10.4122888"><ele>15.0</ele><time>2026-04-12T09:31:15.078Z</time></trkpt><trkpt lat="43.8361658" lon="10.4124482"><ele>15.5</ele><time>2026-04-12T09:31:16.078Z</time></trkpt><trkpt lat="43.8361427" lon="10.4126047"><ele>16.0</ele><time>2026-04-12T09:31:17.08Z</time></trkpt><trkpt lat="43.836124" lon="10.4127569"><ele>16.0</ele><time>2026-04-12T09:31:18.079Z</time></trkpt><trkpt lat="43.8361331" lon="10.4129081"><ele>16.0</ele><time>2026-04-12T09:31:19.083Z</time></trkpt><trkpt lat="43.8361785" lon="10.4130553"><ele>16.0</ele><time>2026-04-12T09:31:20.079Z</time></trkpt><trkpt lat="43.8362335" lon="10.4131985"><ele>16.0</ele><time>2026-04-12T09:31:21.076Z</time></trkpt><trkpt lat="43.836289" lon="10.4133432"><ele>16.0</ele><time>2026-04-12T09:31:22.079Z</time></trkpt><trkpt lat="43.8363361" lon="10.4134793"><ele>16.0</ele><time>2026-04-12T09:31:23.08Z</time></trkpt><trkpt lat="43.8363705" lon="10.4135949"><ele>16.0</ele><time>2026-04-12T09:31:24.079Z</time></trkpt><trkpt lat="43.8363892" lon="10.4137171"><ele>16.0</ele><time>2026-04-12T09:31:26.079Z</time></trkpt><trkpt lat="43.8363777" lon="10.413809"><ele>16.0</ele><time>2026-04-12T09:31:30.087Z</time></trkpt><trkpt lat="43.83646" lon="10.4139071"><ele>15.25</ele><time>2026-04-12T09:31:32.084Z</time></trkpt><trkpt lat="43.8365499" lon="10.4139515"><ele>14.5</ele><time>2026-04-12T09:31:33.079Z</time></trkpt><trkpt lat="43.8366699" lon="10.4139957"><ele>13.75</ele><time>2026-04-12T09:31:34.07Z</time></trkpt><trkpt lat="43.8367979" lon="10.4140406"><ele>13.0</ele><time>2026-04-12T09:31:35.078Z</time></trkpt><trkpt lat="43.8369298" lon="10.414087"><ele>13.0</ele><time>2026-04-12T09:31:36.078Z</time></trkpt><trkpt lat="43.8370658" lon="10.4141354"><ele>13.0</ele><time>2026-04-12T09:31:37.078Z</time></trkpt><trkpt lat="43.8372026" lon="10.4141799"><ele>13.0</ele><time>2026-04-12T09:31:38.08Z</time></trkpt><trkpt lat="43.8373416" lon="10.4142199"><ele>13.0</ele><time>2026-04-12T09:31:39.079Z</time></trkpt><trkpt lat="43.8374858" lon="10.4142561"><ele>13.0</ele><time>2026-04-12T09:31:40.079Z</time></trkpt><trkpt lat="43.8376339" lon="10.4142906"><ele>13.0</ele><time>2026-04-12T09:31:41.078Z</time></trkpt><trkpt lat="43.837784" lon="10.4143299"><ele>13.0</ele><time>2026-04-12T09:31:42.079Z</time></trkpt><trkpt lat="43.8379352" lon="10.4143786"><ele>13.333333333333332</ele><time>2026-04-12T09:31:43.079Z</time></trkpt><trkpt lat="43.8380869" lon="10.4144305"><ele>13.666666666666668</ele><time>2026-04-12T09:31:44.082Z</time></trkpt><trkpt lat="43.8382367" lon="10.4144833"><ele>14.0</ele><time>2026-04-12T09:31:45.079Z</time></trkpt><trkpt lat="43.8383851" lon="10.4145373"><ele>14.333333333333334</ele><time>2026-04-12T09:31:46.08Z</time></trkpt><trkpt lat="43.8385317" lon="10.41459"><ele>14.666666666666668</ele><time>2026-04-12T09:31:47.08Z</time></trkpt><trkpt lat="43.8386775" lon="10.4146437"><ele>15.0</ele><time>2026-04-12T09:31:48.08Z</time></trkpt><trkpt lat="43.8388226" lon="10.414697"><ele>15.0</ele><time>2026-04-12T09:31:49.073Z</time></trkpt><trkpt lat="43.8389664" lon="10.4147509"><ele>15.0</ele><time>2026-04-12T09:31:50.079Z</time></trkpt><trkpt lat="43.8391" lon="10.4147997"><ele>15.0</ele><time>2026-04-12T09:31:51.08Z</time></trkpt><trkpt lat="43.8392186" lon="10.4148453"><ele>15.0</ele><time>2026-04-12T09:31:52.078Z</time></trkpt><trkpt lat="43.8393276" lon="10.4148925"><ele>15.0</ele><time>2026-04-12T09:31:53.084Z</time></trkpt><trkpt lat="43.8394403" lon="10.4149331"><ele>15.0</ele><time>2026-04-12T09:31:54.081Z</time></trkpt><trkpt lat="43.8395616" lon="10.414955"><ele>15.0</ele><time>2026-04-12T09:31:55.082Z</time></trkpt><trkpt lat="43.8396834" lon="10.4149554"><ele>15.0</ele><time>2026-04-12T09:31:56.08Z</time></trkpt><trkpt lat="43.8397962" lon="10.4149432"><ele>15.0</ele><time>2026-04-12T09:31:57.079Z</time></trkpt><trkpt lat="43.8399044" lon="10.414922"><ele>15.0</ele><time>2026-04-12T09:31:58.079Z</time></trkpt><trkpt lat="43.8400039" lon="10.4148989"><ele>15.0</ele><time>2026-04-12T09:31:59.079Z</time></trkpt><trkpt lat="43.8400913" lon="10.4148805"><ele>15.0</ele><time>2026-04-12T09:32:00.081Z</time></trkpt><trkpt lat="43.8401673" lon="10.4148598"><ele>15.0</ele><time>2026-04-12T09:32:01.078Z</time></trkpt><trkpt lat="43.8402727" lon="10.4148191"><ele>15.6</ele><time>2026-04-12T09:32:03.082Z</time></trkpt><trkpt lat="43.8403487" lon="10.4147718"><ele>16.2</ele><time>2026-04-12T09:32:06.078Z</time></trkpt><trkpt lat="43.8404244" lon="10.4147192"><ele>16.8</ele><time>2026-04-12T09:32:10.075Z</time></trkpt><trkpt lat="43.8405104" lon="10.4146718"><ele>17.4</ele><time>2026-04-12T09:32:12.078Z</time></trkpt><trkpt lat="43.8406298" lon="10.4146715"><ele>18.0</ele><time>2026-04-12T09:32:14.081Z</time></trkpt><trkpt lat="43.8407122" lon="10.4148066"><ele>18.0</ele><time>2026-04-12T09:32:16.08Z</time></trkpt><trkpt lat="43.8407309" lon="10.4149326"><ele>18.0</ele><time>2026-04-12T09:32:17.08Z</time></trkpt><trkpt lat="43.8407539" lon="10.4150648"><ele>18.0</ele><time>2026-04-12T09:32:18.08Z</time></trkpt><trkpt lat="43.8407859" lon="10.4151946"><ele>18.0</ele><time>2026-04-12T09:32:19.072Z</time></trkpt><trkpt lat="43.8408283" lon="10.41532"><ele>18.0</ele><time>2026-04-12T09:32:20.079Z</time></trkpt><trkpt lat="43.8408774" lon="10.4154372"><ele>18.0</ele><time>2026-04-12T09:32:21.081Z</time></trkpt><trkpt lat="43.8409295" lon="10.4155499"><ele>18.0</ele><time>2026-04-12T09:32:22.08Z</time></trkpt><trkpt lat="43.8409857" lon="10.4156602"><ele>18.0</ele><time>2026-04-12T09:32:23.083Z</time></trkpt><trkpt lat="43.8410415" lon="10.4157678"><ele>18.0</ele><time>2026-04-12T09:32:24.079Z</time></trkpt><trkpt lat="43.8410963" lon="10.4158733"><ele>18.0</ele><time>2026-04-12T09:32:25.079Z</time></trkpt><trkpt lat="43.8411488" lon="10.4159769"><ele>17.666666666666668</ele><time>2026-04-12T09:32:26.078Z</time></trkpt><trkpt lat="43.8412003" lon="10.4160716"><ele>17.333333333333332</ele><time>2026-04-12T09:32:27.079Z</time></trkpt><trkpt lat="43.8412556" lon="10.4161567"><ele>17.0</ele><time>2026-04-12T09:32:28.078Z</time></trkpt><trkpt lat="43.841318" lon="10.4162241"><ele>16.666666666666664</ele><time>2026-04-12T09:32:29.079Z</time></trkpt><trkpt lat="43.8413892" lon="10.4162765"><ele>16.333333333333332</ele><time>2026-04-12T09:32:30.079Z</time></trkpt><trkpt lat="43.8414679" lon="10.4163125"><ele>16.0</ele><time>2026-04-12T09:32:31.076Z</time></trkpt><trkpt lat="43.8415545" lon="10.4163344"><ele>16.0</ele><time>2026-04-12T09:32:32.077Z</time></trkpt><trkpt lat="43.8416501" lon="10.4163449"><ele>16.0</ele><time>2026-04-12T09:32:33.077Z</time></trkpt><trkpt lat="43.8417501" lon="10.4163459"><ele>16.0</ele><time>2026-04-12T09:32:34.076Z</time></trkpt><trkpt lat="43.8418575" lon="10.4163433"><ele>16.0</ele><time>2026-04-12T09:32:35.076Z</time></trkpt><trkpt lat="43.8419701" lon="10.4163435"><ele>16.0</ele><time>2026-04-12T09:32:36.078Z</time></trkpt><trkpt lat="43.8420852" lon="10.4163464"><ele>15.5</ele><time>2026-04-12T09:32:37.076Z</time></trkpt><trkpt lat="43.8422002" lon="10.4163534"><ele>15.0</ele><time>2026-04-12T09:32:38.075Z</time></trkpt><trkpt lat="43.8423104" lon="10.4163647"><ele>14.5</ele><time>2026-04-12T09:32:39.077Z</time></trkpt><trkpt lat="43.8424196" lon="10.4163823"><ele>14.0</ele><time>2026-04-12T09:32:40.075Z</time></trkpt><trkpt lat="43.842535" lon="10.4164074"><ele>13.5</ele><time>2026-04-12T09:32:41.077Z</time></trkpt><trkpt lat="43.8426655" lon="10.4164511"><ele>13.0</ele><time>2026-04-12T09:32:42.078Z</time></trkpt><trkpt lat="43.8428055" lon="10.4165122"><ele>12.5</ele><time>2026-04-12T09:32:43.084Z</time></trkpt><trkpt lat="43.8429501" lon="10.4165824"><ele>12.0</ele><time>2026-04-12T09:32:44.079Z</time></trkpt><trkpt lat="43.8430924" lon="10.4166555"><ele>12.0</ele><time>2026-04-12T09:32:45.078Z</time></trkpt><trkpt lat="43.8432326" lon="10.4167379"><ele>12.0</ele><time>2026-04-12T09:32:46.079Z</time></trkpt><trkpt lat="43.8433741" lon="10.4168311"><ele>12.0</ele><time>2026-04-12T09:32:47.079Z</time></trkpt><trkpt lat="43.8435116" lon="10.4169341"><ele>12.0</ele><time>2026-04-12T09:32:48.08Z</time></trkpt><trkpt lat="43.8436378" lon="10.4170456"><ele>12.0</ele><time>2026-04-12T09:32:49.079Z</time></trkpt><trkpt lat="43.8437445" lon="10.4171552"><ele>12.0</ele><time>2026-04-12T09:32:50.079Z</time></trkpt><trkpt lat="43.84383" lon="10.4172638"><ele>12.0</ele><time>2026-04-12T09:32:51.078Z</time></trkpt><trkpt lat="43.8438823" lon="10.4173863"><ele>12.0</ele><time>2026-04-12T09:32:52.079Z</time></trkpt><trkpt lat="43.8438938" lon="10.417539"><ele>12.0</ele><time>2026-04-12T09:32:53.073Z</time></trkpt><trkpt lat="43.8438691" lon="10.4177166"><ele>12.0</ele><time>2026-04-12T09:32:54.079Z</time></trkpt><trkpt lat="43.8438231" lon="10.4179073"><ele>12.0</ele><time>2026-04-12T09:32:55.082Z</time></trkpt><trkpt lat="43.8437785" lon="10.4181066"><ele>12.0</ele><time>2026-04-12T09:32:56.081Z</time></trkpt><trkpt lat="43.8437385" lon="10.4183107"><ele>12.0</ele><time>2026-04-12T09:32:57.08Z</time></trkpt><trkpt lat="43.843707" lon="10.4185115"><ele>12.0</ele><time>2026-04-12T09:32:58.08Z</time></trkpt><trkpt lat="43.843681" lon="10.4187036"><ele>12.0</ele><time>2026-04-12T09:32:59.081Z</time></trkpt><trkpt lat="43.8436543" lon="10.4188804"><ele>12.0</ele><time>2026-04-12T09:33:00.08Z</time></trkpt><trkpt lat="43.8436191" lon="10.4190374"><ele>12.0</ele><time>2026-04-12T09:33:01.076Z</time></trkpt><trkpt lat="43.8435656" lon="10.4191756"><ele>12.0</ele><time>2026-04-12T09:33:02.075Z</time></trkpt><trkpt lat="43.8434878" lon="10.4192994"><ele>12.0</ele><time>2026-04-12T09:33:03.077Z</time></trkpt><trkpt lat="43.8433782" lon="10.4193937"><ele>12.0</ele><time>2026-04-12T09:33:04.076Z</time></trkpt><trkpt lat="43.8432484" lon="10.4194463"><ele>12.0</ele><time>2026-04-12T09:33:05.077Z</time></trkpt><trkpt lat="43.8431192" lon="10.4194745"><ele>12.0</ele><time>2026-04-12T09:33:06.077Z</time></trkpt><trkpt lat="43.8430025" lon="10.4195096"><ele>12.0</ele><time>2026-04-12T09:33:07.077Z</time></trkpt><trkpt lat="43.842899" lon="10.4195763"><ele>12.0</ele><time>2026-04-12T09:33:08.077Z</time></trkpt><trkpt lat="43.8428118" lon="10.4196845"><ele>12.0</ele><time>2026-04-12T09:33:09.081Z</time></trkpt><trkpt lat="43.8427385" lon="10.4198308"><ele>12.0</ele><time>2026-04-12T09:33:10.079Z</time></trkpt><trkpt lat="43.8426675" lon="10.4199996"><ele>12.0</ele><time>2026-04-12T09:33:11.078Z</time></trkpt><trkpt lat="43.8426011" lon="10.4201799"><ele>12.0</ele><time>2026-04-12T09:33:12.079Z</time></trkpt><trkpt lat="43.8425522" lon="10.4203649"><ele>12.0</ele><time>2026-04-12T09:33:13.085Z</time></trkpt><trkpt lat="43.8425286" lon="10.4205584"><ele>12.0</ele><time>2026-04-12T09:33:14.08Z</time></trkpt><trkpt lat="43.842532" lon="10.4207569"><ele>12.0</ele><time>2026-04-12T09:33:15.078Z</time></trkpt><trkpt lat="43.8425439" lon="10.4209595"><ele>12.0</ele><time>2026-04-12T09:33:16.079Z</time></trkpt><trkpt lat="43.8425468" lon="10.4211623"><ele>12.0</ele><time>2026-04-12T09:33:17.079Z</time></trkpt><trkpt lat="43.8425309" lon="10.4213669"><ele>12.0</ele><time>2026-04-12T09:33:18.078Z</time></trkpt><trkpt lat="43.8424999" lon="10.4215732"><ele>12.0</ele><time>2026-04-12T09:33:19.079Z</time></trkpt><trkpt lat="43.8424664" lon="10.4217761"><ele>12.5</ele><time>2026-04-12T09:33:20.08Z</time></trkpt><trkpt lat="43.8424346" lon="10.4219749"><ele>13.0</ele><time>2026-04-12T09:33:21.08Z</time></trkpt><trkpt lat="43.8424085" lon="10.4221674"><ele>13.5</ele><time>2026-04-12T09:33:22.082Z</time></trkpt><trkpt lat="43.8423898" lon="10.4223541"><ele>14.0</ele><time>2026-04-12T09:33:23.084Z</time></trkpt><trkpt lat="43.8423788" lon="10.4225397"><ele>14.25</ele><time>2026-04-12T09:33:24.087Z</time></trkpt><trkpt lat="43.8423793" lon="10.4227272"><ele>14.5</ele><time>2026-04-12T09:33:25.081Z</time></trkpt><trkpt lat="43.8423959" lon="10.4229209"><ele>14.75</ele><time>2026-04-12T09:33:26.078Z</time></trkpt><trkpt lat="43.8424256" lon="10.4231223"><ele>15.0</ele><time>2026-04-12T09:33:27.078Z</time></trkpt><trkpt lat="43.8424675" lon="10.4233206"><ele>14.25</ele><time>2026-04-12T09:33:28.079Z</time></trkpt><trkpt lat="43.8425109" lon="10.423515"><ele>13.5</ele><time>2026-04-12T09:33:29.08Z</time></trkpt><trkpt lat="43.8425573" lon="10.4236961"><ele>12.75</ele><time>2026-04-12T09:33:30.078Z</time></trkpt><trkpt lat="43.8426071" lon="10.4238569"><ele>12.0</ele><time>2026-04-12T09:33:31.078Z</time></trkpt><trkpt lat="43.8426537" lon="10.4239965"><ele>12.0</ele><time>2026-04-12T09:33:32.077Z</time></trkpt><trkpt lat="43.8426857" lon="10.42412"><ele>12.0</ele><time>2026-04-12T09:33:33.08Z</time></trkpt><trkpt lat="43.8426835" lon="10.4242394"><ele>12.0</ele><time>2026-04-12T09:33:34.079Z</time></trkpt><trkpt lat="43.8426398" lon="10.4243617"><ele>12.0</ele><time>2026-04-12T09:33:35.079Z</time></trkpt><trkpt lat="43.8425567" lon="10.4244702"><ele>12.0</ele><time>2026-04-12T09:33:36.079Z</time></trkpt><trkpt lat="43.8424573" lon="10.4245793"><ele>12.0</ele><time>2026-04-12T09:33:37.079Z</time></trkpt><trkpt lat="43.8423582" lon="10.4247064"><ele>12.0</ele><time>2026-04-12T09:33:38.08Z</time></trkpt><trkpt lat="43.8422788" lon="10.4248584"><ele>12.0</ele><time>2026-04-12T09:33:39.081Z</time></trkpt><trkpt lat="43.8422307" lon="10.4250353"><ele>12.0</ele><time>2026-04-12T09:33:40.078Z</time></trkpt><trkpt lat="43.8422137" lon="10.4252299"><ele>12.0</ele><time>2026-04-12T09:33:41.079Z</time></trkpt><trkpt lat="43.8422139" lon="10.4254416"><ele>12.0</ele><time>2026-04-12T09:33:42.074Z</time></trkpt><trkpt lat="43.8422157" lon="10.4256687"><ele>12.0</ele><time>2026-04-12T09:33:43.084Z</time></trkpt><trkpt lat="43.8422159" lon="10.4259015"><ele>11.666666666666666</ele><time>2026-04-12T09:33:44.08Z</time></trkpt><trkpt lat="43.8422149" lon="10.426143"><ele>11.333333333333332</ele><time>2026-04-12T09:33:45.078Z</time></trkpt><trkpt lat="43.8422109" lon="10.4263897"><ele>11.0</ele><time>2026-04-12T09:33:46.078Z</time></trkpt><trkpt lat="43.8422024" lon="10.4266335"><ele>11.0</ele><time>2026-04-12T09:33:47.074Z</time></trkpt><trkpt lat="43.8421921" lon="10.4268765"><ele>11.0</ele><time>2026-04-12T09:33:48.079Z</time></trkpt><trkpt lat="43.8421842" lon="10.4271219"><ele>11.0</ele><time>2026-04-12T09:33:49.079Z</time></trkpt><trkpt lat="43.842179" lon="10.4273724"><ele>10.666666666666666</ele><time>2026-04-12T09:33:50.078Z</time></trkpt><trkpt lat="43.8421812" lon="10.4276197"><ele>10.333333333333334</ele><time>2026-04-12T09:33:51.081Z</time></trkpt><trkpt lat="43.8421837" lon="10.4278663"><ele>10.0</ele><time>2026-04-12T09:33:52.081Z</time></trkpt><trkpt lat="43.842187" lon="10.4281138"><ele>10.0</ele><time>2026-04-12T09:33:53.088Z</time></trkpt><trkpt lat="43.8421922" lon="10.4283561"><ele>10.0</ele><time>2026-04-12T09:33:54.08Z</time></trkpt><trkpt lat="43.8421985" lon="10.4285861"><ele>10.0</ele><time>2026-04-12T09:33:55.08Z</time></trkpt><trkpt lat="43.8422056" lon="10.4288011"><ele>10.25</ele><time>2026-04-12T09:33:56.081Z</time></trkpt><trkpt lat="43.842212" lon="10.4289996"><ele>10.5</ele><time>2026-04-12T09:33:57.081Z</time></trkpt><trkpt lat="43.8422173" lon="10.429184"><ele>10.75</ele><time>2026-04-12T09:33:58.079Z</time></trkpt><trkpt lat="43.8422209" lon="10.4293674"><ele>11.0</ele><time>2026-04-12T09:33:59.081Z</time></trkpt><trkpt lat="43.8422236" lon="10.4295532"><ele>11.5</ele><time>2026-04-12T09:34:00.08Z</time></trkpt><trkpt lat="43.8422275" lon="10.4297426"><ele>12.0</ele><time>2026-04-12T09:34:01.077Z</time></trkpt><trkpt lat="43.8422321" lon="10.4299401"><ele>12.5</ele><time>2026-04-12T09:34:02.077Z</time></trkpt><trkpt lat="43.8422412" lon="10.4301404"><ele>13.0</ele><time>2026-04-12T09:34:03.084Z</time></trkpt><trkpt lat="43.8422502" lon="10.43034"><ele>12.75</ele><time>2026-04-12T09:34:04.078Z</time></trkpt><trkpt lat="43.8422538" lon="10.4305326"><ele>12.5</ele><time>2026-04-12T09:34:05.077Z</time></trkpt><trkpt lat="43.8422558" lon="10.430719"><ele>12.25</ele><time>2026-04-12T09:34:06.076Z</time></trkpt><trkpt lat="43.8422544" lon="10.4309038"><ele>12.0</ele><time>2026-04-12T09:34:07.077Z</time></trkpt><trkpt lat="43.8422502" lon="10.4310893"><ele>12.0</ele><time>2026-04-12T09:34:08.078Z</time></trkpt><trkpt lat="43.8422496" lon="10.4312769"><ele>12.0</ele><time>2026-04-12T09:34:09.079Z</time></trkpt><trkpt lat="43.842252" lon="10.43147"><ele>12.0</ele><time>2026-04-12T09:34:10.078Z</time></trkpt><trkpt lat="43.8422558" lon="10.4316715"><ele>12.0</ele><time>2026-04-12T09:34:11.079Z</time></trkpt><trkpt lat="43.842263" lon="10.4318756"><ele>12.0</ele><time>2026-04-12T09:34:12.079Z</time></trkpt><trkpt lat="43.8422739" lon="10.432079"><ele>12.0</ele><time>2026-04-12T09:34:13.085Z</time></trkpt><trkpt lat="43.8422887" lon="10.4322772"><ele>12.0</ele><time>2026-04-12T09:34:14.081Z</time></trkpt><trkpt lat="43.8423158" lon="10.432468"><ele>12.0</ele><time>2026-04-12T09:34:15.08Z</time></trkpt><trkpt lat="43.842363" lon="10.4326467"><ele>12.0</ele><time>2026-04-12T09:34:16.08Z</time></trkpt><trkpt lat="43.8424325" lon="10.4328074"><ele>12.0</ele><time>2026-04-12T09:34:17.079Z</time></trkpt><trkpt lat="43.8425212" lon="10.432958"><ele>12.0</ele><time>2026-04-12T09:34:18.08Z</time></trkpt><trkpt lat="43.8426241" lon="10.4331116"><ele>12.0</ele><time>2026-04-12T09:34:19.084Z</time></trkpt><trkpt lat="43.8427355" lon="10.433276"><ele>12.0</ele><time>2026-04-12T09:34:20.08Z</time></trkpt><trkpt lat="43.8428478" lon="10.4334359"><ele>12.0</ele><time>2026-04-12T09:34:21.08Z</time></trkpt><trkpt lat="43.8429578" lon="10.4335878"><ele>12.0</ele><time>2026-04-12T09:34:22.081Z</time></trkpt><trkpt lat="43.8430667" lon="10.4337313"><ele>12.333333333333332</ele><time>2026-04-12T09:34:23.083Z</time></trkpt><trkpt lat="43.8431782" lon="10.433876"><ele>12.666666666666666</ele><time>2026-04-12T09:34:24.081Z</time></trkpt><trkpt lat="43.8432895" lon="10.434024"><ele>13.0</ele><time>2026-04-12T09:34:25.079Z</time></trkpt><trkpt lat="43.8433897" lon="10.4341861"><ele>12.666666666666666</ele><time>2026-04-12T09:34:26.081Z</time></trkpt><trkpt lat="43.8434768" lon="10.4343743"><ele>12.333333333333332</ele><time>2026-04-12T09:34:27.081Z</time></trkpt><trkpt lat="43.8435424" lon="10.4345812"><ele>12.0</ele><time>2026-04-12T09:34:28.081Z</time></trkpt><trkpt lat="43.8436026" lon="10.4347946"><ele>12.5</ele><time>2026-04-12T09:34:29.081Z</time></trkpt><trkpt lat="43.8436606" lon="10.4350053"><ele>13.0</ele><time>2026-04-12T09:34:30.081Z</time></trkpt><trkpt lat="43.8437189" lon="10.4351928"><ele>13.5</ele><time>2026-04-12T09:34:31.081Z</time></trkpt><trkpt lat="43.8437753" lon="10.435366"><ele>14.0</ele><time>2026-04-12T09:34:32.08Z</time></trkpt><trkpt lat="43.8438265" lon="10.4355265"><ele>14.5</ele><time>2026-04-12T09:34:33.082Z</time></trkpt><trkpt lat="43.8438781" lon="10.4356815"><ele>15.0</ele><time>2026-04-12T09:34:34.08Z</time></trkpt><trkpt lat="43.8439256" lon="10.4358354"><ele>15.5</ele><time>2026-04-12T09:34:35.081Z</time></trkpt><trkpt lat="43.8439711" lon="10.4359866"><ele>16.0</ele><time>2026-04-12T09:34:36.081Z</time></trkpt><trkpt lat="43.8440132" lon="10.4361277"><ele>16.0</ele><time>2026-04-12T09:34:37.079Z</time></trkpt><trkpt lat="43.8440505" lon="10.436261"><ele>16.0</ele><time>2026-04-12T09:34:38.078Z</time></trkpt><trkpt lat="43.8440848" lon="10.4363864"><ele>16.0</ele><time>2026-04-12T09:34:39.077Z</time></trkpt><trkpt lat="43.8441142" lon="10.4364974"><ele>16.0</ele><time>2026-04-12T09:34:40.078Z</time></trkpt><trkpt lat="43.8441386" lon="10.4365851"><ele>16.0</ele><time>2026-04-12T09:34:41.078Z</time></trkpt><trkpt lat="43.8441728" lon="10.4367107"><ele>15.75</ele><time>2026-04-12T09:34:43.081Z</time></trkpt><trkpt lat="43.8441987" lon="10.4368969"><ele>15.5</ele><time>2026-04-12T09:34:45.078Z</time></trkpt><trkpt lat="43.8442048" lon="10.4370361"><ele>15.25</ele><time>2026-04-12T09:34:46.079Z</time></trkpt><trkpt lat="43.8442104" lon="10.4371946"><ele>15.0</ele><time>2026-04-12T09:34:47.079Z</time></trkpt><trkpt lat="43.8442196" lon="10.4373704"><ele>14.5</ele><time>2026-04-12T09:34:48.08Z</time></trkpt><trkpt lat="43.8442285" lon="10.4375624"><ele>14.0</ele><time>2026-04-12T09:34:49.079Z</time></trkpt><trkpt lat="43.8442409" lon="10.4377657"><ele>13.5</ele><time>2026-04-12T09:34:50.079Z</time></trkpt><trkpt lat="43.844263" lon="10.4379671"><ele>13.0</ele><time>2026-04-12T09:34:51.08Z</time></trkpt><trkpt lat="43.8443021" lon="10.4381684"><ele>13.0</ele><time>2026-04-12T09:34:52.079Z</time></trkpt><trkpt lat="43.8443643" lon="10.4383659"><ele>13.0</ele><time>2026-04-12T09:34:53.082Z</time></trkpt><trkpt lat="43.8444389" lon="10.4385546"><ele>13.0</ele><time>2026-04-12T09:34:54.078Z</time></trkpt><trkpt lat="43.8445214" lon="10.4387449"><ele>13.0</ele><time>2026-04-12T09:34:55.078Z</time></trkpt><trkpt lat="43.8446045" lon="10.4389354"><ele>13.0</ele><time>2026-04-12T09:34:56.079Z</time></trkpt><trkpt lat="43.8446818" lon="10.4391206"><ele>13.0</ele><time>2026-04-12T09:34:57.077Z</time></trkpt><trkpt lat="43.8447558" lon="10.4393027"><ele>13.0</ele><time>2026-04-12T09:34:58.077Z</time></trkpt><trkpt lat="43.8448311" lon="10.4394845"><ele>13.0</ele><time>2026-04-12T09:34:59.08Z</time></trkpt><trkpt lat="43.8448972" lon="10.4396587"><ele>13.0</ele><time>2026-04-12T09:35:00.08Z</time></trkpt><trkpt lat="43.8449491" lon="10.4398191"><ele>13.0</ele><time>2026-04-12T09:35:01.079Z</time></trkpt><trkpt lat="43.8449872" lon="10.4399757"><ele>13.0</ele><time>2026-04-12T09:35:02.079Z</time></trkpt><trkpt lat="43.8450098" lon="10.4401265"><ele>13.0</ele><time>2026-04-12T09:35:03.081Z</time></trkpt><trkpt lat="43.8450233" lon="10.4402642"><ele>13.0</ele><time>2026-04-12T09:35:04.08Z</time></trkpt><trkpt lat="43.8450293" lon="10.4403867"><ele>13.0</ele><time>2026-04-12T09:35:05.079Z</time></trkpt><trkpt lat="43.8450343" lon="10.440513"><ele>13.0</ele><time>2026-04-12T09:35:06.084Z</time></trkpt><trkpt lat="43.8450471" lon="10.4406596"><ele>13.0</ele><time>2026-04-12T09:35:07.081Z</time></trkpt><trkpt lat="43.8450759" lon="10.4408314"><ele>13.0</ele><time>2026-04-12T09:35:08.08Z</time></trkpt><trkpt lat="43.8451091" lon="10.4410107"><ele>13.0</ele><time>2026-04-12T09:35:09.08Z</time></trkpt><trkpt lat="43.845142" lon="10.4411845"><ele>13.0</ele><time>2026-04-12T09:35:10.08Z</time></trkpt><trkpt lat="43.8451713" lon="10.4413566"><ele>13.0</ele><time>2026-04-12T09:35:11.08Z</time></trkpt><trkpt lat="43.8451925" lon="10.4415321"><ele>13.0</ele><time>2026-04-12T09:35:12.08Z</time></trkpt><trkpt lat="43.8452128" lon="10.4417197"><ele>13.0</ele><time>2026-04-12T09:35:13.085Z</time></trkpt><trkpt lat="43.8452318" lon="10.4419098"><ele>13.0</ele><time>2026-04-12T09:35:14.076Z</time></trkpt><trkpt lat="43.8452545" lon="10.4420999"><ele>13.25</ele><time>2026-04-12T09:35:15.079Z</time></trkpt><trkpt lat="43.8452856" lon="10.4422809"><ele>13.5</ele><time>2026-04-12T09:35:16.081Z</time></trkpt><trkpt lat="43.8453306" lon="10.4424525"><ele>13.75</ele><time>2026-04-12T09:35:17.085Z</time></trkpt><trkpt lat="43.8454008" lon="10.4426134"><ele>14.0</ele><time>2026-04-12T09:35:18.085Z</time></trkpt><trkpt lat="43.8454945" lon="10.442763"><ele>14.0</ele><time>2026-04-12T09:35:19.085Z</time></trkpt><trkpt lat="43.845601" lon="10.4428968"><ele>14.0</ele><time>2026-04-12T09:35:20.081Z</time></trkpt><trkpt lat="43.8457104" lon="10.443028"><ele>14.0</ele><time>2026-04-12T09:35:21.081Z</time></trkpt><trkpt lat="43.8458212" lon="10.4431578"><ele>14.0</ele><time>2026-04-12T09:35:22.08Z</time></trkpt><trkpt lat="43.8459325" lon="10.4432872"><ele>14.0</ele><time>2026-04-12T09:35:23.086Z</time></trkpt><trkpt lat="43.8460425" lon="10.4434161"><ele>14.0</ele><time>2026-04-12T09:35:24.084Z</time></trkpt><trkpt lat="43.8461497" lon="10.443539"><ele>14.0</ele><time>2026-04-12T09:35:25.085Z</time></trkpt><trkpt lat="43.8462474" lon="10.4436479"><ele>14.0</ele><time>2026-04-12T09:35:26.084Z</time></trkpt><trkpt lat="43.8463286" lon="10.4437444"><ele>14.399999999999999</ele><time>2026-04-12T09:35:27.084Z</time></trkpt><trkpt lat="43.8463865" lon="10.4438354"><ele>14.799999999999999</ele><time>2026-04-12T09:35:28.084Z</time></trkpt><trkpt lat="43.846418" lon="10.4439113"><ele>15.200000000000001</ele><time>2026-04-12T09:35:29.086Z</time></trkpt><trkpt lat="43.8464389" lon="10.4440081"><ele>15.600000000000001</ele><time>2026-04-12T09:35:31.091Z</time></trkpt><trkpt lat="43.8465366" lon="10.4441356"><ele>16.0</ele><time>2026-04-12T09:35:33.091Z</time></trkpt><trkpt lat="43.8466344" lon="10.444199"><ele>16.0</ele><time>2026-04-12T09:35:34.088Z</time></trkpt><trkpt lat="43.8467585" lon="10.4442718"><ele>16.0</ele><time>2026-04-12T09:35:35.084Z</time></trkpt><trkpt lat="43.846895" lon="10.4443594"><ele>16.0</ele><time>2026-04-12T09:35:36.083Z</time></trkpt><trkpt lat="43.8470412" lon="10.4444645"><ele>15.666666666666666</ele><time>2026-04-12T09:35:37.082Z</time></trkpt><trkpt lat="43.8471949" lon="10.4445763"><ele>15.333333333333332</ele><time>2026-04-12T09:35:38.086Z</time></trkpt><trkpt lat="43.8473466" lon="10.4446836"><ele>15.0</ele><time>2026-04-12T09:35:39.089Z</time></trkpt><trkpt lat="43.8474959" lon="10.4447879"><ele>15.0</ele><time>2026-04-12T09:35:40.086Z</time></trkpt><trkpt lat="43.8476471" lon="10.4448876"><ele>15.0</ele><time>2026-04-12T09:35:41.086Z</time></trkpt><trkpt lat="43.8477976" lon="10.4449879"><ele>15.0</ele><time>2026-04-12T09:35:42.081Z</time></trkpt><trkpt lat="43.8479475" lon="10.4450888"><ele>15.0</ele><time>2026-04-12T09:35:43.09Z</time></trkpt><trkpt lat="43.8480961" lon="10.4451897"><ele>15.0</ele><time>2026-04-12T09:35:44.084Z</time></trkpt><trkpt lat="43.8482436" lon="10.445289"><ele>15.0</ele><time>2026-04-12T09:35:45.086Z</time></trkpt><trkpt lat="43.848389" lon="10.4453888"><ele>14.333333333333332</ele><time>2026-04-12T09:35:46.085Z</time></trkpt><trkpt lat="43.8485333" lon="10.445489"><ele>13.666666666666666</ele><time>2026-04-12T09:35:47.087Z</time></trkpt><trkpt lat="43.848676" lon="10.4455883"><ele>13.0</ele><time>2026-04-12T09:35:48.087Z</time></trkpt><trkpt lat="43.8488171" lon="10.4456864"><ele>13.0</ele><time>2026-04-12T09:35:49.079Z</time></trkpt><trkpt lat="43.8489559" lon="10.4457832"><ele>13.0</ele><time>2026-04-12T09:35:50.087Z</time></trkpt><trkpt lat="43.8490913" lon="10.4458726"><ele>13.0</ele><time>2026-04-12T09:35:51.08Z</time></trkpt><trkpt lat="43.8492308" lon="10.4459491"><ele>13.0</ele><time>2026-04-12T09:35:52.083Z</time></trkpt><trkpt lat="43.8493842" lon="10.4460197"><ele>13.0</ele><time>2026-04-12T09:35:53.084Z</time></trkpt><trkpt lat="43.8495476" lon="10.4460948"><ele>13.0</ele><time>2026-04-12T09:35:54.082Z</time></trkpt><trkpt lat="43.8497138" lon="10.4461774"><ele>13.0</ele><time>2026-04-12T09:35:55.083Z</time></trkpt><trkpt lat="43.8498868" lon="10.4462596"><ele>13.0</ele><time>2026-04-12T09:35:56.083Z</time></trkpt><trkpt lat="43.8500636" lon="10.4463384"><ele>13.0</ele><time>2026-04-12T09:35:57.084Z</time></trkpt><trkpt lat="43.8502421" lon="10.4464131"><ele>13.666666666666666</ele><time>2026-04-12T09:35:58.085Z</time></trkpt><trkpt lat="43.8504202" lon="10.4464838"><ele>14.333333333333332</ele><time>2026-04-12T09:35:59.082Z</time></trkpt><trkpt lat="43.8505967" lon="10.4465557"><ele>15.0</ele><time>2026-04-12T09:36:00.081Z</time></trkpt><trkpt lat="43.8507712" lon="10.4466287"><ele>15.0</ele><time>2026-04-12T09:36:01.083Z</time></trkpt><trkpt lat="43.8509437" lon="10.4466989"><ele>15.0</ele><time>2026-04-12T09:36:02.082Z</time></trkpt><trkpt lat="43.8511121" lon="10.4467681"><ele>15.0</ele><time>2026-04-12T09:36:03.084Z</time></trkpt><trkpt lat="43.8512716" lon="10.4468359"><ele>14.75</ele><time>2026-04-12T09:36:04.081Z</time></trkpt><trkpt lat="43.8514192" lon="10.4469006"><ele>14.5</ele><time>2026-04-12T09:36:05.08Z</time></trkpt><trkpt lat="43.8515551" lon="10.4469656"><ele>14.25</ele><time>2026-04-12T09:36:06.081Z</time></trkpt><trkpt lat="43.8516831" lon="10.4470379"><ele>14.0</ele><time>2026-04-12T09:36:07.081Z</time></trkpt><trkpt lat="43.8518069" lon="10.4471265"><ele>14.0</ele><time>2026-04-12T09:36:08.08Z</time></trkpt><trkpt lat="43.8519276" lon="10.4472301"><ele>14.0</ele><time>2026-04-12T09:36:09.082Z</time></trkpt><trkpt lat="43.8520477" lon="10.4473467"><ele>14.0</ele><time>2026-04-12T09:36:10.082Z</time></trkpt><trkpt lat="43.8521649" lon="10.4474657"><ele>14.0</ele><time>2026-04-12T09:36:11.081Z</time></trkpt><trkpt lat="43.8522735" lon="10.4475799"><ele>14.0</ele><time>2026-04-12T09:36:12.083Z</time></trkpt><trkpt lat="43.8523666" lon="10.4476873"><ele>13.999999999999998</ele><time>2026-04-12T09:36:13.084Z</time></trkpt><trkpt lat="43.8524448" lon="10.4477833"><ele>13.999999999999998</ele><time>2026-04-12T09:36:14.082Z</time></trkpt><trkpt lat="43.8525116" lon="10.4478697"><ele>14.0</ele><time>2026-04-12T09:36:15.082Z</time></trkpt><trkpt lat="43.8525632" lon="10.4479404"><ele>14.0</ele><time>2026-04-12T09:36:16.076Z</time></trkpt><trkpt lat="43.8526187" lon="10.448026"><ele>13.833333333333334</ele><time>2026-04-12T09:36:18.085Z</time></trkpt><trkpt lat="43.8526485" lon="10.448116"><ele>13.666666666666668</ele><time>2026-04-12T09:36:21.08Z</time></trkpt><trkpt lat="43.8526614" lon="10.4482331"><ele>13.5</ele><time>2026-04-12T09:36:23.088Z</time></trkpt><trkpt lat="43.8526484" lon="10.4483242"><ele>13.333333333333332</ele><time>2026-04-12T09:36:24.084Z</time></trkpt><trkpt lat="43.8526282" lon="10.4484193"><ele>13.166666666666666</ele><time>2026-04-12T09:36:25.085Z</time></trkpt><trkpt lat="43.8526081" lon="10.4485053"><ele>13.0</ele><time>2026-04-12T09:36:26.084Z</time></trkpt><trkpt lat="43.8525817" lon="10.4486454"><ele>13.0</ele><time>2026-04-12T09:36:28.084Z</time></trkpt><trkpt lat="43.8525599" lon="10.4487762"><ele>13.0</ele><time>2026-04-12T09:36:30.086Z</time></trkpt><trkpt lat="43.852522" lon="10.4489205"><ele>13.0</ele><time>2026-04-12T09:36:32.085Z</time></trkpt><trkpt lat="43.8524888" lon="10.4490664"><ele>13.0</ele><time>2026-04-12T09:36:34.085Z</time></trkpt><trkpt lat="43.8524581" lon="10.4492174"><ele>13.0</ele><time>2026-04-12T09:36:36.084Z</time></trkpt><trkpt lat="43.8524265" lon="10.4493508"><ele>12.666666666666666</ele><time>2026-04-12T09:36:38.085Z</time></trkpt><trkpt lat="43.852398" lon="10.4494704"><ele>12.333333333333332</ele><time>2026-04-12T09:36:40.083Z</time></trkpt><trkpt lat="43.852379" lon="10.4495778"><ele>12.0</ele><time>2026-04-12T09:36:42.083Z</time></trkpt><trkpt lat="43.8523643" lon="10.449672"><ele>11.666666666666666</ele><time>2026-04-12T09:40:30.091Z</time></trkpt><trkpt lat="43.852337" lon="10.4498151"><ele>11.333333333333332</ele><time>2026-04-12T09:40:32.087Z</time></trkpt><trkpt lat="43.8523218" lon="10.4499121"><ele>11.0</ele><time>2026-04-12T09:40:33.092Z</time></trkpt><trkpt lat="43.8523039" lon="10.4500197"><ele>11.666666666666666</ele><time>2026-04-12T09:40:34.086Z</time></trkpt><trkpt lat="43.8522807" lon="10.4501289"><ele>12.333333333333332</ele><time>2026-04-12T09:40:35.086Z</time></trkpt><trkpt lat="43.8522577" lon="10.4502415"><ele>13.0</ele><time>2026-04-12T09:40:36.085Z</time></trkpt><trkpt lat="43.8522345" lon="10.4503532"><ele>13.666666666666666</ele><time>2026-04-12T09:40:37.086Z</time></trkpt><trkpt lat="43.8522089" lon="10.4504613"><ele>14.333333333333334</ele><time>2026-04-12T09:40:38.087Z</time></trkpt><trkpt lat="43.852186" lon="10.4505632"><ele>15.0</ele><time>2026-04-12T09:40:39.089Z</time></trkpt><trkpt lat="43.8521641" lon="10.4506582"><ele>15.333333333333334</ele><time>2026-04-12T09:40:40.078Z</time></trkpt><trkpt lat="43.8521443" lon="10.4507532"><ele>15.666666666666668</ele><time>2026-04-12T09:40:41.086Z</time></trkpt><trkpt lat="43.8521225" lon="10.4508612"><ele>16.0</ele><time>2026-04-12T09:40:42.085Z</time></trkpt><trkpt lat="43.8520975" lon="10.4509796"><ele>16.333333333333336</ele><time>2026-04-12T09:40:43.086Z</time></trkpt><trkpt lat="43.8520708" lon="10.451101"><ele>16.666666666666668</ele><time>2026-04-12T09:40:44.086Z</time></trkpt><trkpt lat="43.8520425" lon="10.4512194"><ele>17.0</ele><time>2026-04-12T09:40:45.087Z</time></trkpt><trkpt lat="43.8520157" lon="10.4513375"><ele>17.0</ele><time>2026-04-12T09:40:46.085Z</time></trkpt><trkpt lat="43.8519881" lon="10.451464"><ele>17.0</ele><time>2026-04-12T09:40:47.086Z</time></trkpt><trkpt lat="43.8519584" lon="10.4515993"><ele>17.0</ele><time>2026-04-12T09:40:48.086Z</time></trkpt><trkpt lat="43.8519271" lon="10.4517415"><ele>17.0</ele><time>2026-04-12T09:40:49.085Z</time></trkpt><trkpt lat="43.8518944" lon="10.4518894"><ele>17.0</ele><time>2026-04-12T09:40:50.087Z</time></trkpt><trkpt lat="43.8518616" lon="10.4520382"><ele>16.6</ele><time>2026-04-12T09:40:51.103Z</time></trkpt><trkpt lat="43.8518304" lon="10.4521897"><ele>16.2</ele><time>2026-04-12T09:40:52.101Z</time></trkpt><trkpt lat="43.8517979" lon="10.4523388"><ele>15.8</ele><time>2026-04-12T09:40:53.087Z</time></trkpt><trkpt lat="43.8517656" lon="10.4524859"><ele>15.4</ele><time>2026-04-12T09:40:54.1Z</time></trkpt><trkpt lat="43.8517331" lon="10.4526326"><ele>15.0</ele><time>2026-04-12T09:40:55.101Z</time></trkpt><trkpt lat="43.8517018" lon="10.4527765"><ele>15.0</ele><time>2026-04-12T09:40:56.103Z</time></trkpt><trkpt lat="43.8516691" lon="10.4529168"><ele>15.0</ele><time>2026-04-12T09:40:57.103Z</time></trkpt><trkpt lat="43.851638" lon="10.4530551"><ele>15.0</ele><time>2026-04-12T09:40:58.102Z</time></trkpt><trkpt lat="43.8516064" lon="10.4531947"><ele>15.0</ele><time>2026-04-12T09:40:59.103Z</time></trkpt><trkpt lat="43.8515749" lon="10.4533371"><ele>15.0</ele><time>2026-04-12T09:41:00.102Z</time></trkpt><trkpt lat="43.8515431" lon="10.4534829"><ele>15.0</ele><time>2026-04-12T09:41:01.103Z</time></trkpt><trkpt lat="43.8515124" lon="10.4536316"><ele>15.0</ele><time>2026-04-12T09:41:02.104Z</time></trkpt><trkpt lat="43.8514796" lon="10.4537812"><ele>15.0</ele><time>2026-04-12T09:41:03.104Z</time></trkpt><trkpt lat="43.8514453" lon="10.4539315"><ele>15.0</ele><time>2026-04-12T09:41:04.102Z</time></trkpt><trkpt lat="43.8514123" lon="10.4540777"><ele>15.0</ele><time>2026-04-12T09:41:05.102Z</time></trkpt><trkpt lat="43.851379" lon="10.454221"><ele>15.0</ele><time>2026-04-12T09:41:06.078Z</time></trkpt><trkpt lat="43.851347" lon="10.4543635"><ele>15.0</ele><time>2026-04-12T09:41:07.102Z</time></trkpt><trkpt lat="43.8513155" lon="10.4545056"><ele>15.0</ele><time>2026-04-12T09:41:08.086Z</time></trkpt><trkpt lat="43.851284" lon="10.4546476"><ele>15.0</ele><time>2026-04-12T09:41:09.102Z</time></trkpt><trkpt lat="43.8512502" lon="10.4547891"><ele>15.0</ele><time>2026-04-12T09:41:10.104Z</time></trkpt><trkpt lat="43.8512181" lon="10.4549317"><ele>15.0</ele><time>2026-04-12T09:41:11.103Z</time></trkpt><trkpt lat="43.851187" lon="10.4550792"><ele>15.0</ele><time>2026-04-12T09:41:12.103Z</time></trkpt><trkpt lat="43.8511548" lon="10.4552228"><ele>15.0</ele><time>2026-04-12T09:41:13.103Z</time></trkpt><trkpt lat="43.8511221" lon="10.4553695"><ele>15.0</ele><time>2026-04-12T09:41:14.094Z</time></trkpt><trkpt lat="43.8510884" lon="10.4555161"><ele>15.0</ele><time>2026-04-12T09:41:15.102Z</time></trkpt><trkpt lat="43.851053" lon="10.4556651"><ele>15.0</ele><time>2026-04-12T09:41:16.103Z</time></trkpt><trkpt lat="43.8510186" lon="10.4558174"><ele>15.0</ele><time>2026-04-12T09:41:17.102Z</time></trkpt><trkpt lat="43.8509836" lon="10.4559736"><ele>15.0</ele><time>2026-04-12T09:41:18.103Z</time></trkpt><trkpt lat="43.8509496" lon="10.4561327"><ele>15.0</ele><time>2026-04-12T09:41:19.091Z</time></trkpt><trkpt lat="43.8509143" lon="10.4562905"><ele>14.75</ele><time>2026-04-12T09:41:20.104Z</time></trkpt><trkpt lat="43.8508752" lon="10.4564438"><ele>14.5</ele><time>2026-04-12T09:41:21.104Z</time></trkpt><trkpt lat="43.8508353" lon="10.4566003"><ele>14.25</ele><time>2026-04-12T09:41:22.106Z</time></trkpt><trkpt lat="43.8507946" lon="10.4567607"><ele>14.0</ele><time>2026-04-12T09:41:23.105Z</time></trkpt><trkpt lat="43.8507563" lon="10.4569238"><ele>14.0</ele><time>2026-04-12T09:41:24.103Z</time></trkpt><trkpt lat="43.8507189" lon="10.4570938"><ele>14.0</ele><time>2026-04-12T09:41:25.103Z</time></trkpt><trkpt lat="43.8506814" lon="10.4572691"><ele>14.0</ele><time>2026-04-12T09:41:26.085Z</time></trkpt><trkpt lat="43.8506441" lon="10.457444"><ele>14.0</ele><time>2026-04-12T09:41:27.103Z</time></trkpt><trkpt lat="43.8506087" lon="10.4576162"><ele>13.75</ele><time>2026-04-12T09:41:28.103Z</time></trkpt><trkpt lat="43.8505712" lon="10.4577853"><ele>13.5</ele><time>2026-04-12T09:41:29.104Z</time></trkpt><trkpt lat="43.8505345" lon="10.4579529"><ele>13.25</ele><time>2026-04-12T09:41:30.102Z</time></trkpt><trkpt lat="43.8504975" lon="10.4581158"><ele>13.0</ele><time>2026-04-12T09:41:31.101Z</time></trkpt><trkpt lat="43.8504616" lon="10.4582758"><ele>13.0</ele><time>2026-04-12T09:41:32.102Z</time></trkpt><trkpt lat="43.8504275" lon="10.4584325"><ele>13.0</ele><time>2026-04-12T09:41:33.105Z</time></trkpt><trkpt lat="43.8503939" lon="10.4585826"><ele>13.0</ele><time>2026-04-12T09:41:34.102Z</time></trkpt><trkpt lat="43.8503616" lon="10.4587236"><ele>13.0</ele><time>2026-04-12T09:41:35.102Z</time></trkpt><trkpt lat="43.8503318" lon="10.4588556"><ele>13.0</ele><time>2026-04-12T09:41:36.1Z</time></trkpt><trkpt lat="43.8503045" lon="10.4589785"><ele>12.999999999999998</ele><time>2026-04-12T09:41:37.088Z</time></trkpt><trkpt lat="43.8502814" lon="10.4590889"><ele>13.0</ele><time>2026-04-12T09:41:38.102Z</time></trkpt><trkpt lat="43.8502608" lon="10.4591842"><ele>13.0</ele><time>2026-04-12T09:41:39.103Z</time></trkpt><trkpt lat="43.8502421" lon="10.4592693"><ele>13.0</ele><time>2026-04-12T09:41:40.103Z</time></trkpt><trkpt lat="43.8502084" lon="10.4594327"><ele>12.999999999999998</ele><time>2026-04-12T09:41:42.105Z</time></trkpt><trkpt lat="43.8501811" lon="10.4595677"><ele>13.0</ele><time>2026-04-12T09:41:44.104Z</time></trkpt><trkpt lat="43.8501163" lon="10.4597093"><ele>13.0</ele><time>2026-04-12T09:41:46.102Z</time></trkpt><trkpt lat="43.850069" lon="10.4598043"><ele>13.0</ele><time>2026-04-12T09:41:47.104Z</time></trkpt><trkpt lat="43.8500386" lon="10.4599151"><ele>13.0</ele><time>2026-04-12T09:41:48.097Z</time></trkpt><trkpt lat="43.850024" lon="10.4600408"><ele>13.0</ele><time>2026-04-12T09:41:49.111Z</time></trkpt><trkpt lat="43.8500114" lon="10.4601791"><ele>13.0</ele><time>2026-04-12T09:41:50.104Z</time></trkpt><trkpt lat="43.8499876" lon="10.4603348"><ele>13.25</ele><time>2026-04-12T09:41:51.105Z</time></trkpt><trkpt lat="43.8499518" lon="10.4605138"><ele>13.5</ele><time>2026-04-12T09:41:52.103Z</time></trkpt><trkpt lat="43.8499152" lon="10.4606967"><ele>13.75</ele><time>2026-04-12T09:41:53.107Z</time></trkpt><trkpt lat="43.8498813" lon="10.4608616"><ele>14.0</ele><time>2026-04-12T09:41:54.104Z</time></trkpt><trkpt lat="43.8498484" lon="10.4610109"><ele>14.0</ele><time>2026-04-12T09:41:55.104Z</time></trkpt><trkpt lat="43.8498133" lon="10.4611561"><ele>13.999999999999998</ele><time>2026-04-12T09:41:56.105Z</time></trkpt><trkpt lat="43.8497787" lon="10.4613028"><ele>13.999999999999998</ele><time>2026-04-12T09:41:57.104Z</time></trkpt><trkpt lat="43.8497459" lon="10.461442"><ele>14.0</ele><time>2026-04-12T09:41:58.103Z</time></trkpt><trkpt lat="43.8497166" lon="10.4615749"><ele>14.0</ele><time>2026-04-12T09:41:59.104Z</time></trkpt><trkpt lat="43.8496885" lon="10.4617042"><ele>14.0</ele><time>2026-04-12T09:42:00.104Z</time></trkpt><trkpt lat="43.8496599" lon="10.461835"><ele>13.999999999999998</ele><time>2026-04-12T09:42:01.103Z</time></trkpt><trkpt lat="43.8496279" lon="10.4619671"><ele>13.999999999999998</ele><time>2026-04-12T09:42:02.103Z</time></trkpt><trkpt lat="43.8495952" lon="10.462103"><ele>14.0</ele><time>2026-04-12T09:42:03.104Z</time></trkpt><trkpt lat="43.8495633" lon="10.4622438"><ele>14.0</ele><time>2026-04-12T09:42:04.103Z</time></trkpt><trkpt lat="43.8495308" lon="10.462391"><ele>14.0</ele><time>2026-04-12T09:42:05.105Z</time></trkpt><trkpt lat="43.8494977" lon="10.462544"><ele>14.0</ele><time>2026-04-12T09:42:06.102Z</time></trkpt><trkpt lat="43.8494635" lon="10.4626974"><ele>14.0</ele><time>2026-04-12T09:42:07.104Z</time></trkpt><trkpt lat="43.849429" lon="10.4628485"><ele>14.0</ele><time>2026-04-12T09:42:08.096Z</time></trkpt><trkpt lat="43.8493945" lon="10.4629994"><ele>14.0</ele><time>2026-04-12T09:42:09.101Z</time></trkpt><trkpt lat="43.8493594" lon="10.4631493"><ele>14.0</ele><time>2026-04-12T09:42:10.102Z</time></trkpt><trkpt lat="43.8493247" lon="10.4632982"><ele>14.0</ele><time>2026-04-12T09:42:11.102Z</time></trkpt><trkpt lat="43.8492908" lon="10.4634466"><ele>14.0</ele><time>2026-04-12T09:42:12.102Z</time></trkpt><trkpt lat="43.8492566" lon="10.4635936"><ele>14.25</ele><time>2026-04-12T09:42:13.104Z</time></trkpt><trkpt lat="43.8492237" lon="10.463741"><ele>14.5</ele><time>2026-04-12T09:42:14.103Z</time></trkpt><trkpt lat="43.8491897" lon="10.4638909"><ele>14.75</ele><time>2026-04-12T09:42:15.103Z</time></trkpt><trkpt lat="43.849157" lon="10.4640437"><ele>15.0</ele><time>2026-04-12T09:42:16.097Z</time></trkpt><trkpt lat="43.8491234" lon="10.4641974"><ele>14.75</ele><time>2026-04-12T09:42:17.104Z</time></trkpt><trkpt lat="43.8490877" lon="10.4643509"><ele>14.5</ele><time>2026-04-12T09:42:18.103Z</time></trkpt><trkpt lat="43.8490516" lon="10.4645086"><ele>14.25</ele><time>2026-04-12T09:42:19.103Z</time></trkpt><trkpt lat="43.8490142" lon="10.4646696"><ele>14.0</ele><time>2026-04-12T09:42:20.103Z</time></trkpt><trkpt lat="43.8489754" lon="10.4648347"><ele>14.0</ele><time>2026-04-12T09:42:21.103Z</time></trkpt><trkpt lat="43.8489366" lon="10.4650029"><ele>14.0</ele><time>2026-04-12T09:42:22.103Z</time></trkpt><trkpt lat="43.8488992" lon="10.4651709"><ele>14.0</ele><time>2026-04-12T09:42:23.105Z</time></trkpt><trkpt lat="43.8488627" lon="10.4653363"><ele>14.0</ele><time>2026-04-12T09:42:24.103Z</time></trkpt><trkpt lat="43.848828" lon="10.4654987"><ele>13.75</ele><time>2026-04-12T09:42:25.103Z</time></trkpt><trkpt lat="43.8487937" lon="10.465662"><ele>13.5</ele><time>2026-04-12T09:42:26.106Z</time></trkpt><trkpt lat="43.848759" lon="10.4658285"><ele>13.25</ele><time>2026-04-12T09:42:27.104Z</time></trkpt><trkpt lat="43.8487214" lon="10.4659955"><ele>13.0</ele><time>2026-04-12T09:42:28.103Z</time></trkpt><trkpt lat="43.8486828" lon="10.4661625"><ele>13.25</ele><time>2026-04-12T09:42:29.103Z</time></trkpt><trkpt lat="43.8486449" lon="10.4663309"><ele>13.5</ele><time>2026-04-12T09:42:30.104Z</time></trkpt><trkpt lat="43.8486078" lon="10.4664969"><ele>13.75</ele><time>2026-04-12T09:42:31.101Z</time></trkpt><trkpt lat="43.8485711" lon="10.46666"><ele>14.0</ele><time>2026-04-12T09:42:32.102Z</time></trkpt><trkpt lat="43.8485346" lon="10.4668204"><ele>14.0</ele><time>2026-04-12T09:42:33.106Z</time></trkpt><trkpt lat="43.8484987" lon="10.4669755"><ele>14.0</ele><time>2026-04-12T09:42:34.102Z</time></trkpt><trkpt lat="43.8484653" lon="10.4671262"><ele>14.0</ele><time>2026-04-12T09:42:35.101Z</time></trkpt><trkpt lat="43.8484326" lon="10.4672739"><ele>14.0</ele><time>2026-04-12T09:42:36.101Z</time></trkpt><trkpt lat="43.8484" lon="10.4674206"><ele>14.0</ele><time>2026-04-12T09:42:37.102Z</time></trkpt><trkpt lat="43.8483665" lon="10.4675667"><ele>13.999999999999998</ele><time>2026-04-12T09:42:38.101Z</time></trkpt><trkpt lat="43.848333" lon="10.4677144"><ele>13.999999999999998</ele><time>2026-04-12T09:42:39.102Z</time></trkpt><trkpt lat="43.8483005" lon="10.4678638"><ele>14.0</ele><time>2026-04-12T09:42:40.103Z</time></trkpt><trkpt lat="43.8482677" lon="10.4680134"><ele>14.0</ele><time>2026-04-12T09:42:41.102Z</time></trkpt><trkpt lat="43.8482331" lon="10.4681665"><ele>14.0</ele><time>2026-04-12T09:42:42.102Z</time></trkpt><trkpt lat="43.8482" lon="10.4683154"><ele>13.999999999999998</ele><time>2026-04-12T09:42:43.109Z</time></trkpt><trkpt lat="43.8481703" lon="10.468454"><ele>13.999999999999998</ele><time>2026-04-12T09:42:44.104Z</time></trkpt><trkpt lat="43.848141" lon="10.4685823"><ele>14.0</ele><time>2026-04-12T09:42:45.102Z</time></trkpt><trkpt lat="43.8481142" lon="10.4687005"><ele>14.0</ele><time>2026-04-12T09:42:46.102Z</time></trkpt><trkpt lat="43.8480907" lon="10.4688059"><ele>14.000000000000002</ele><time>2026-04-12T09:42:47.104Z</time></trkpt><trkpt lat="43.8480675" lon="10.4689236"><ele>14.0</ele><time>2026-04-12T09:42:49.102Z</time></trkpt><trkpt lat="43.8480299" lon="10.4690379"><ele>14.0</ele><time>2026-04-12T09:42:54.102Z</time></trkpt><trkpt lat="43.8479983" lon="10.4691923"><ele>14.0</ele><time>2026-04-12T09:42:56.102Z</time></trkpt><trkpt lat="43.8479798" lon="10.4692853"><ele>14.000000000000002</ele><time>2026-04-12T09:42:57.102Z</time></trkpt><trkpt lat="43.8479594" lon="10.4693886"><ele>14.0</ele><time>2026-04-12T09:42:58.102Z</time></trkpt><trkpt lat="43.8479351" lon="10.4694998"><ele>14.2</ele><time>2026-04-12T09:42:59.103Z</time></trkpt><trkpt lat="43.8479066" lon="10.4696224"><ele>14.399999999999999</ele><time>2026-04-12T09:43:00.103Z</time></trkpt><trkpt lat="43.8478781" lon="10.4697456"><ele>14.6</ele><time>2026-04-12T09:43:01.102Z</time></trkpt><trkpt lat="43.8478496" lon="10.469867"><ele>14.8</ele><time>2026-04-12T09:43:02.101Z</time></trkpt><trkpt lat="43.847824" lon="10.4699879"><ele>15.0</ele><time>2026-04-12T09:43:03.104Z</time></trkpt><trkpt lat="43.847801" lon="10.470108"><ele>15.0</ele><time>2026-04-12T09:43:04.101Z</time></trkpt><trkpt lat="43.8477766" lon="10.4702269"><ele>15.0</ele><time>2026-04-12T09:43:05.102Z</time></trkpt><trkpt lat="43.8477524" lon="10.4703412"><ele>15.0</ele><time>2026-04-12T09:43:06.104Z</time></trkpt><trkpt lat="43.8477267" lon="10.4704579"><ele>15.0</ele><time>2026-04-12T09:43:07.103Z</time></trkpt><trkpt lat="43.8476989" lon="10.4705857"><ele>15.0</ele><time>2026-04-12T09:43:08.101Z</time></trkpt><trkpt lat="43.8476704" lon="10.4707173"><ele>15.0</ele><time>2026-04-12T09:43:09.104Z</time></trkpt><trkpt lat="43.8476413" lon="10.4708473"><ele>15.0</ele><time>2026-04-12T09:43:10.104Z</time></trkpt><trkpt lat="43.8476083" lon="10.4709799"><ele>15.0</ele><time>2026-04-12T09:43:11.102Z</time></trkpt><trkpt lat="43.84757" lon="10.4711195"><ele>15.0</ele><time>2026-04-12T09:43:12.102Z</time></trkpt><trkpt lat="43.8475312" lon="10.4712666"><ele>15.0</ele><time>2026-04-12T09:43:13.106Z</time></trkpt><trkpt lat="43.8474945" lon="10.4714219"><ele>15.0</ele><time>2026-04-12T09:43:14.104Z</time></trkpt><trkpt lat="43.8474613" lon="10.4715837"><ele>15.0</ele><time>2026-04-12T09:43:15.104Z</time></trkpt><trkpt lat="43.8474287" lon="10.471746"><ele>15.0</ele><time>2026-04-12T09:43:16.103Z</time></trkpt><trkpt lat="43.8473936" lon="10.4719111"><ele>15.0</ele><time>2026-04-12T09:43:17.103Z</time></trkpt><trkpt lat="43.8473545" lon="10.4720742"><ele>14.8</ele><time>2026-04-12T09:43:18.102Z</time></trkpt><trkpt lat="43.8473142" lon="10.4722322"><ele>14.6</ele><time>2026-04-12T09:43:19.103Z</time></trkpt><trkpt lat="43.8472769" lon="10.4723779"><ele>14.399999999999999</ele><time>2026-04-12T09:43:20.102Z</time></trkpt><trkpt lat="43.8472434" lon="10.4725082"><ele>14.2</ele><time>2026-04-12T09:43:21.104Z</time></trkpt><trkpt lat="43.8472145" lon="10.4726298"><ele>14.0</ele><time>2026-04-12T09:43:22.102Z</time></trkpt><trkpt lat="43.8471848" lon="10.4727499"><ele>14.000000000000002</ele><time>2026-04-12T09:43:23.107Z</time></trkpt><trkpt lat="43.8471562" lon="10.4728637"><ele>14.0</ele><time>2026-04-12T09:43:24.102Z</time></trkpt><trkpt lat="43.8471276" lon="10.4729686"><ele>14.0</ele><time>2026-04-12T09:43:25.103Z</time></trkpt><trkpt lat="43.8470908" lon="10.473062"><ele>14.0</ele><time>2026-04-12T09:43:26.103Z</time></trkpt><trkpt lat="43.8470348" lon="10.473148"><ele>14.000000000000002</ele><time>2026-04-12T09:43:27.103Z</time></trkpt><trkpt lat="43.8469529" lon="10.4732125"><ele>14.0</ele><time>2026-04-12T09:43:28.104Z</time></trkpt><trkpt lat="43.846847" lon="10.473236"><ele>14.0</ele><time>2026-04-12T09:43:29.104Z</time></trkpt><trkpt lat="43.8467246" lon="10.4732312"><ele>14.0</ele><time>2026-04-12T09:43:30.103Z</time></trkpt><trkpt lat="43.8465928" lon="10.4732276"><ele>14.0</ele><time>2026-04-12T09:43:31.104Z</time></trkpt><trkpt lat="43.8464551" lon="10.4732411"><ele>14.0</ele><time>2026-04-12T09:43:32.103Z</time></trkpt><trkpt lat="43.8463167" lon="10.4732688"><ele>14.0</ele><time>2026-04-12T09:43:33.105Z</time></trkpt><trkpt lat="43.8461794" lon="10.4733101"><ele>14.0</ele><time>2026-04-12T09:43:34.098Z</time></trkpt><trkpt lat="43.8460399" lon="10.4733665"><ele>14.0</ele><time>2026-04-12T09:43:35.101Z</time></trkpt><trkpt lat="43.8458992" lon="10.4734384"><ele>14.0</ele><time>2026-04-12T09:43:36.103Z</time></trkpt><trkpt lat="43.8457614" lon="10.4735283"><ele>14.333333333333334</ele><time>2026-04-12T09:43:37.103Z</time></trkpt><trkpt lat="43.8456258" lon="10.4736309"><ele>14.666666666666668</ele><time>2026-04-12T09:43:38.086Z</time></trkpt><trkpt lat="43.8454959" lon="10.4737386"><ele>15.0</ele><time>2026-04-12T09:43:39.102Z</time></trkpt><trkpt lat="43.8453704" lon="10.4738475"><ele>15.0</ele><time>2026-04-12T09:43:40.102Z</time></trkpt><trkpt lat="43.8452495" lon="10.4739534"><ele>15.0</ele><time>2026-04-12T09:43:41.102Z</time></trkpt><trkpt lat="43.8451343" lon="10.474063"><ele>15.0</ele><time>2026-04-12T09:43:42.101Z</time></trkpt><trkpt lat="43.8450233" lon="10.4741795"><ele>15.0</ele><time>2026-04-12T09:43:43.107Z</time></trkpt><trkpt lat="43.8449142" lon="10.4743013"><ele>15.0</ele><time>2026-04-12T09:43:44.101Z</time></trkpt><trkpt lat="43.8448063" lon="10.4744259"><ele>15.0</ele><time>2026-04-12T09:43:45.101Z</time></trkpt><trkpt lat="43.8446989" lon="10.4745529"><ele>15.0</ele><time>2026-04-12T09:43:46.102Z</time></trkpt><trkpt lat="43.8445905" lon="10.4746783"><ele>15.0</ele><time>2026-04-12T09:43:47.103Z</time></trkpt><trkpt lat="43.8444802" lon="10.474804"><ele>14.5</ele><time>2026-04-12T09:43:48.102Z</time></trkpt><trkpt lat="43.8443687" lon="10.4749284"><ele>14.0</ele><time>2026-04-12T09:43:49.089Z</time></trkpt><trkpt lat="43.8442559" lon="10.4750535"><ele>13.5</ele><time>2026-04-12T09:43:50.103Z</time></trkpt><trkpt lat="43.8441442" lon="10.4751764"><ele>13.0</ele><time>2026-04-12T09:43:51.103Z</time></trkpt><trkpt lat="43.8440322" lon="10.475301"><ele>13.0</ele><time>2026-04-12T09:43:52.103Z</time></trkpt><trkpt lat="43.8439202" lon="10.475427"><ele>13.0</ele><time>2026-04-12T09:43:53.111Z</time></trkpt><trkpt lat="43.8438077" lon="10.4755543"><ele>13.0</ele><time>2026-04-12T09:43:54.103Z</time></trkpt><trkpt lat="43.8436949" lon="10.4756836"><ele>13.0</ele><time>2026-04-12T09:43:55.103Z</time></trkpt><trkpt lat="43.8435821" lon="10.4758131"><ele>13.0</ele><time>2026-04-12T09:43:56.104Z</time></trkpt><trkpt lat="43.8434686" lon="10.4759432"><ele>13.0</ele><time>2026-04-12T09:43:57.104Z</time></trkpt><trkpt lat="43.8433525" lon="10.4760737"><ele>13.0</ele><time>2026-04-12T09:43:58.106Z</time></trkpt><trkpt lat="43.8432341" lon="10.4762"><ele>13.0</ele><time>2026-04-12T09:43:59.105Z</time></trkpt><trkpt lat="43.8431096" lon="10.4763115"><ele>13.0</ele><time>2026-04-12T09:44:00.104Z</time></trkpt><trkpt lat="43.8429758" lon="10.4763989"><ele>13.0</ele><time>2026-04-12T09:44:01.104Z</time></trkpt><trkpt lat="43.842833" lon="10.476464"><ele>13.0</ele><time>2026-04-12T09:44:02.104Z</time></trkpt><trkpt lat="43.842685" lon="10.4765057"><ele>13.0</ele><time>2026-04-12T09:44:03.108Z</time></trkpt><trkpt lat="43.8425377" lon="10.47652"><ele>13.0</ele><time>2026-04-12T09:44:04.104Z</time></trkpt><trkpt lat="43.8423945" lon="10.4765095"><ele>13.0</ele><time>2026-04-12T09:44:05.102Z</time></trkpt><trkpt lat="43.8422624" lon="10.4764906"><ele>13.0</ele><time>2026-04-12T09:44:06.103Z</time></trkpt><trkpt lat="43.8421429" lon="10.4764726"><ele>13.0</ele><time>2026-04-12T09:44:07.103Z</time></trkpt><trkpt lat="43.8420436" lon="10.4764531"><ele>13.0</ele><time>2026-04-12T09:44:08.104Z</time></trkpt><trkpt lat="43.8419657" lon="10.476433"><ele>13.0</ele><time>2026-04-12T09:44:09.107Z</time></trkpt><trkpt lat="43.8419044" lon="10.4764075"><ele>13.0</ele><time>2026-04-12T09:44:10.103Z</time></trkpt><trkpt lat="43.8417874" lon="10.4763465"><ele>13.0</ele><time>2026-04-12T09:44:12.088Z</time></trkpt><trkpt lat="43.8417074" lon="10.4763369"><ele>13.0</ele><time>2026-04-12T09:44:13.111Z</time></trkpt><trkpt lat="43.8416051" lon="10.4763484"><ele>13.25</ele><time>2026-04-12T09:44:14.1Z</time></trkpt><trkpt lat="43.8414894" lon="10.476353"><ele>13.5</ele><time>2026-04-12T09:44:15.098Z</time></trkpt><trkpt lat="43.8413654" lon="10.4763383"><ele>13.75</ele><time>2026-04-12T09:44:16.104Z</time></trkpt><trkpt lat="43.8412434" lon="10.4763157"><ele>14.0</ele><time>2026-04-12T09:44:17.102Z</time></trkpt><trkpt lat="43.8411319" lon="10.4762965"><ele>14.000000000000002</ele><time>2026-04-12T09:44:18.102Z</time></trkpt><trkpt lat="43.841032" lon="10.4762827"><ele>14.0</ele><time>2026-04-12T09:44:19.103Z</time></trkpt><trkpt lat="43.8409424" lon="10.4762779"><ele>14.0</ele><time>2026-04-12T09:44:20.103Z</time></trkpt><trkpt lat="43.8408639" lon="10.4762788"><ele>14.0</ele><time>2026-04-12T09:44:21.103Z</time></trkpt><trkpt lat="43.8407871" lon="10.4762784"><ele>14.000000000000002</ele><time>2026-04-12T09:44:22.103Z</time></trkpt><trkpt lat="43.8406982" lon="10.4762679"><ele>14.0</ele><time>2026-04-12T09:44:23.091Z</time></trkpt><trkpt lat="43.8405802" lon="10.4762567"><ele>13.5</ele><time>2026-04-12T09:44:24.087Z</time></trkpt><trkpt lat="43.8404385" lon="10.4762482"><ele>13.0</ele><time>2026-04-12T09:44:25.087Z</time></trkpt><trkpt lat="43.8402987" lon="10.4762292"><ele>12.5</ele><time>2026-04-12T09:44:26.084Z</time></trkpt><trkpt lat="43.8401575" lon="10.4761977"><ele>12.0</ele><time>2026-04-12T09:44:27.085Z</time></trkpt><trkpt lat="43.8400004" lon="10.4761712"><ele>12.0</ele><time>2026-04-12T09:44:28.086Z</time></trkpt><trkpt lat="43.8398348" lon="10.4761633"><ele>12.0</ele><time>2026-04-12T09:44:29.082Z</time></trkpt><trkpt lat="43.8396672" lon="10.4761646"><ele>12.0</ele><time>2026-04-12T09:44:30.08Z</time></trkpt><trkpt lat="43.8395001" lon="10.4761715"><ele>12.0</ele><time>2026-04-12T09:44:31.089Z</time></trkpt><trkpt lat="43.8393342" lon="10.4761778"><ele>12.0</ele><time>2026-04-12T09:44:32.087Z</time></trkpt><trkpt lat="43.8391658" lon="10.4761856"><ele>12.0</ele><time>2026-04-12T09:44:33.09Z</time></trkpt><trkpt lat="43.8389928" lon="10.4762034"><ele>12.0</ele><time>2026-04-12T09:44:34.08Z</time></trkpt><trkpt lat="43.8388153" lon="10.4762241"><ele>12.0</ele><time>2026-04-12T09:44:35.087Z</time></trkpt><trkpt lat="43.8386366" lon="10.4762435"><ele>12.0</ele><time>2026-04-12T09:44:36.087Z</time></trkpt><trkpt lat="43.8384614" lon="10.4762618"><ele>12.0</ele><time>2026-04-12T09:44:37.086Z</time></trkpt><trkpt lat="43.8382921" lon="10.4762776"><ele>12.0</ele><time>2026-04-12T09:44:38.087Z</time></trkpt><trkpt lat="43.8381302" lon="10.4762893"><ele>12.0</ele><time>2026-04-12T09:44:39.084Z</time></trkpt><trkpt lat="43.8379669" lon="10.476302"><ele>12.0</ele><time>2026-04-12T09:44:40.086Z</time></trkpt><trkpt lat="43.8378098" lon="10.4763098"><ele>12.0</ele><time>2026-04-12T09:44:41.086Z</time></trkpt><trkpt lat="43.8376566" lon="10.4763134"><ele>12.0</ele><time>2026-04-12T09:44:42.088Z</time></trkpt><trkpt lat="43.8375078" lon="10.4763186"><ele>12.25</ele><time>2026-04-12T09:44:43.091Z</time></trkpt><trkpt lat="43.8373661" lon="10.4763283"><ele>12.5</ele><time>2026-04-12T09:44:44.088Z</time></trkpt><trkpt lat="43.837229" lon="10.4763419"><ele>12.75</ele><time>2026-04-12T09:44:45.087Z</time></trkpt><trkpt lat="43.8370988" lon="10.476359"><ele>13.0</ele><time>2026-04-12T09:44:46.09Z</time></trkpt><trkpt lat="43.8369732" lon="10.4763758"><ele>13.0</ele><time>2026-04-12T09:44:47.087Z</time></trkpt><trkpt lat="43.8368508" lon="10.4763732"><ele>13.0</ele><time>2026-04-12T09:44:48.088Z</time></trkpt><trkpt lat="43.8367245" lon="10.4763457"><ele>13.0</ele><time>2026-04-12T09:44:49.089Z</time></trkpt><trkpt lat="43.8365871" lon="10.4763111"><ele>13.0</ele><time>2026-04-12T09:44:50.086Z</time></trkpt><trkpt lat="43.8364395" lon="10.4762875"><ele>12.666666666666666</ele><time>2026-04-12T09:44:51.086Z</time></trkpt><trkpt lat="43.836284" lon="10.4762636"><ele>12.333333333333332</ele><time>2026-04-12T09:44:52.086Z</time></trkpt><trkpt lat="43.8361246" lon="10.476223"><ele>12.0</ele><time>2026-04-12T09:44:53.093Z</time></trkpt><trkpt lat="43.835963" lon="10.4761623"><ele>11.666666666666666</ele><time>2026-04-12T09:44:54.088Z</time></trkpt><trkpt lat="43.8357999" lon="10.4760834"><ele>11.333333333333332</ele><time>2026-04-12T09:44:55.085Z</time></trkpt><trkpt lat="43.8356394" lon="10.4759858"><ele>11.0</ele><time>2026-04-12T09:44:56.088Z</time></trkpt><trkpt lat="43.835482" lon="10.475882"><ele>11.0</ele><time>2026-04-12T09:44:57.089Z</time></trkpt><trkpt lat="43.8353385" lon="10.475784"><ele>11.0</ele><time>2026-04-12T09:44:58.078Z</time></trkpt><trkpt lat="43.8352078" lon="10.4756898"><ele>11.0</ele><time>2026-04-12T09:44:59.088Z</time></trkpt><trkpt lat="43.8350878" lon="10.4755954"><ele>11.0</ele><time>2026-04-12T09:45:00.086Z</time></trkpt><trkpt lat="43.8349793" lon="10.4755017"><ele>11.0</ele><time>2026-04-12T09:45:01.082Z</time></trkpt><trkpt lat="43.8348918" lon="10.475394"><ele>11.0</ele><time>2026-04-12T09:45:02.083Z</time></trkpt><trkpt lat="43.8348323" lon="10.4752634"><ele>11.0</ele><time>2026-04-12T09:45:03.087Z</time></trkpt><trkpt lat="43.8347996" lon="10.4751153"><ele>11.0</ele><time>2026-04-12T09:45:04.083Z</time></trkpt><trkpt lat="43.8347885" lon="10.4749491"><ele>11.0</ele><time>2026-04-12T09:45:05.082Z</time></trkpt><trkpt lat="43.8347791" lon="10.4747851"><ele>11.0</ele><time>2026-04-12T09:45:06.083Z</time></trkpt><trkpt lat="43.8347552" lon="10.4746247"><ele>11.0</ele><time>2026-04-12T09:45:07.084Z</time></trkpt><trkpt lat="43.8347238" lon="10.4744737"><ele>11.0</ele><time>2026-04-12T09:45:08.084Z</time></trkpt><trkpt lat="43.8346852" lon="10.4743466"><ele>11.200000000000001</ele><time>2026-04-12T09:45:09.081Z</time></trkpt><trkpt lat="43.8346044" lon="10.4742763"><ele>11.4</ele><time>2026-04-12T09:45:10.08Z</time></trkpt><trkpt lat="43.8344982" lon="10.4742588"><ele>11.6</ele><time>2026-04-12T09:45:11.085Z</time></trkpt><trkpt lat="43.8343872" lon="10.4742664"><ele>11.8</ele><time>2026-04-12T09:45:12.085Z</time></trkpt><trkpt lat="43.8342625" lon="10.4743275"><ele>12.0</ele><time>2026-04-12T09:45:13.086Z</time></trkpt><trkpt lat="43.8341291" lon="10.4744256"><ele>12.666666666666668</ele><time>2026-04-12T09:45:14.092Z</time></trkpt><trkpt lat="43.8339996" lon="10.4745516"><ele>13.333333333333334</ele><time>2026-04-12T09:45:15.084Z</time></trkpt><trkpt lat="43.8338799" lon="10.4747052"><ele>14.0</ele><time>2026-04-12T09:45:16.092Z</time></trkpt><trkpt lat="43.8337705" lon="10.4748768"><ele>14.0</ele><time>2026-04-12T09:45:17.091Z</time></trkpt><trkpt lat="43.8336726" lon="10.4750677"><ele>14.0</ele><time>2026-04-12T09:45:18.092Z</time></trkpt><trkpt lat="43.8335886" lon="10.4752792"><ele>14.0</ele><time>2026-04-12T09:45:19.093Z</time></trkpt><trkpt lat="43.8335168" lon="10.4754956"><ele>14.0</ele><time>2026-04-12T09:45:20.093Z</time></trkpt><trkpt lat="43.8334566" lon="10.4757266"><ele>14.0</ele><time>2026-04-12T09:45:21.095Z</time></trkpt><trkpt lat="43.833402" lon="10.4759623"><ele>14.0</ele><time>2026-04-12T09:45:22.09Z</time></trkpt><trkpt lat="43.8333531" lon="10.4761873"><ele>13.333333333333334</ele><time>2026-04-12T09:45:23.089Z</time></trkpt><trkpt lat="43.8333028" lon="10.4764065"><ele>12.666666666666668</ele><time>2026-04-12T09:45:24.092Z</time></trkpt><trkpt lat="43.8332471" lon="10.4766261"><ele>12.0</ele><time>2026-04-12T09:45:25.092Z</time></trkpt><trkpt lat="43.833187" lon="10.47685"><ele>12.0</ele><time>2026-04-12T09:45:26.093Z</time></trkpt><trkpt lat="43.8331279" lon="10.4770874"><ele>12.0</ele><time>2026-04-12T09:45:27.093Z</time></trkpt><trkpt lat="43.8330689" lon="10.477333"><ele>12.0</ele><time>2026-04-12T09:45:28.093Z</time></trkpt><trkpt lat="43.8330126" lon="10.4775797"><ele>11.666666666666666</ele><time>2026-04-12T09:45:29.091Z</time></trkpt><trkpt lat="43.8329615" lon="10.4778279"><ele>11.333333333333332</ele><time>2026-04-12T09:45:30.094Z</time></trkpt><trkpt lat="43.8329179" lon="10.4780742"><ele>11.0</ele><time>2026-04-12T09:45:31.09Z</time></trkpt><trkpt lat="43.8328799" lon="10.4783212"><ele>10.666666666666666</ele><time>2026-04-12T09:45:32.087Z</time></trkpt><trkpt lat="43.8328409" lon="10.4785707"><ele>10.333333333333334</ele><time>2026-04-12T09:45:33.085Z</time></trkpt><trkpt lat="43.8328023" lon="10.4788176"><ele>10.0</ele><time>2026-04-12T09:45:34.083Z</time></trkpt><trkpt lat="43.8327638" lon="10.4790667"><ele>10.333333333333334</ele><time>2026-04-12T09:45:35.083Z</time></trkpt><trkpt lat="43.8327261" lon="10.4793212"><ele>10.666666666666666</ele><time>2026-04-12T09:45:36.082Z</time></trkpt><trkpt lat="43.8326854" lon="10.4795713"><ele>11.0</ele><time>2026-04-12T09:45:37.082Z</time></trkpt><trkpt lat="43.8326456" lon="10.479824"><ele>11.0</ele><time>2026-04-12T09:45:38.079Z</time></trkpt><trkpt lat="43.8326061" lon="10.4800768"><ele>11.0</ele><time>2026-04-12T09:45:39.086Z</time></trkpt><trkpt lat="43.832568" lon="10.4803262"><ele>11.0</ele><time>2026-04-12T09:45:40.084Z</time></trkpt><trkpt lat="43.8325287" lon="10.4805715"><ele>11.0</ele><time>2026-04-12T09:45:41.086Z</time></trkpt><trkpt lat="43.8324879" lon="10.4808155"><ele>11.0</ele><time>2026-04-12T09:45:42.085Z</time></trkpt><trkpt lat="43.8324421" lon="10.4810601"><ele>11.0</ele><time>2026-04-12T09:45:43.086Z</time></trkpt><trkpt lat="43.8323973" lon="10.4813043"><ele>11.0</ele><time>2026-04-12T09:45:44.084Z</time></trkpt><trkpt lat="43.8323507" lon="10.4815521"><ele>11.0</ele><time>2026-04-12T09:45:45.086Z</time></trkpt><trkpt lat="43.8323049" lon="10.4817981"><ele>11.0</ele><time>2026-04-12T09:45:46.084Z</time></trkpt><trkpt lat="43.8322605" lon="10.4820442"><ele>10.666666666666666</ele><time>2026-04-12T09:45:47.086Z</time></trkpt><trkpt lat="43.832216" lon="10.4822906"><ele>10.333333333333334</ele><time>2026-04-12T09:45:48.085Z</time></trkpt><trkpt lat="43.8321717" lon="10.4825394"><ele>10.0</ele><time>2026-04-12T09:45:49.085Z</time></trkpt><trkpt lat="43.8321261" lon="10.4827872"><ele>10.333333333333334</ele><time>2026-04-12T09:45:50.085Z</time></trkpt><trkpt lat="43.83208" lon="10.4830364"><ele>10.666666666666666</ele><time>2026-04-12T09:45:51.084Z</time></trkpt><trkpt lat="43.8320348" lon="10.483286"><ele>11.0</ele><time>2026-04-12T09:45:52.085Z</time></trkpt><trkpt lat="43.8319903" lon="10.4835369"><ele>11.333333333333332</ele><time>2026-04-12T09:45:53.086Z</time></trkpt><trkpt lat="43.8319458" lon="10.4837898"><ele>11.666666666666666</ele><time>2026-04-12T09:45:54.086Z</time></trkpt><trkpt lat="43.8319014" lon="10.4840424"><ele>12.0</ele><time>2026-04-12T09:45:55.085Z</time></trkpt><trkpt lat="43.831858" lon="10.4842936"><ele>12.0</ele><time>2026-04-12T09:45:56.085Z</time></trkpt><trkpt lat="43.8318139" lon="10.4845445"><ele>12.0</ele><time>2026-04-12T09:45:57.086Z</time></trkpt><trkpt lat="43.8317688" lon="10.4847941"><ele>12.0</ele><time>2026-04-12T09:45:58.087Z</time></trkpt><trkpt lat="43.8317226" lon="10.4850423"><ele>11.666666666666666</ele><time>2026-04-12T09:45:59.088Z</time></trkpt><trkpt lat="43.8316759" lon="10.4852922"><ele>11.333333333333332</ele><time>2026-04-12T09:46:00.089Z</time></trkpt><trkpt lat="43.8316298" lon="10.4855422"><ele>11.0</ele><time>2026-04-12T09:46:01.091Z</time></trkpt><trkpt lat="43.8315859" lon="10.485792"><ele>11.0</ele><time>2026-04-12T09:46:02.092Z</time></trkpt><trkpt lat="43.8315486" lon="10.4860368"><ele>11.0</ele><time>2026-04-12T09:46:03.091Z</time></trkpt><trkpt lat="43.8315179" lon="10.4862802"><ele>11.0</ele><time>2026-04-12T09:46:04.083Z</time></trkpt><trkpt lat="43.8315046" lon="10.4865255"><ele>11.0</ele><time>2026-04-12T09:46:05.083Z</time></trkpt><trkpt lat="43.8315175" lon="10.4867671"><ele>11.0</ele><time>2026-04-12T09:46:06.085Z</time></trkpt><trkpt lat="43.831564" lon="10.4869999"><ele>11.0</ele><time>2026-04-12T09:46:07.085Z</time></trkpt><trkpt lat="43.8316441" lon="10.487215"><ele>11.333333333333332</ele><time>2026-04-12T09:46:08.086Z</time></trkpt><trkpt lat="43.8317518" lon="10.4874162"><ele>11.666666666666666</ele><time>2026-04-12T09:46:09.093Z</time></trkpt><trkpt lat="43.8318713" lon="10.4876103"><ele>12.0</ele><time>2026-04-12T09:46:10.092Z</time></trkpt><trkpt lat="43.8319883" lon="10.4878079"><ele>12.333333333333332</ele><time>2026-04-12T09:46:11.092Z</time></trkpt><trkpt lat="43.8320923" lon="10.4880088"><ele>12.666666666666666</ele><time>2026-04-12T09:46:12.096Z</time></trkpt><trkpt lat="43.8321795" lon="10.4882199"><ele>13.0</ele><time>2026-04-12T09:46:13.091Z</time></trkpt><trkpt lat="43.8322456" lon="10.4884406"><ele>13.0</ele><time>2026-04-12T09:46:14.078Z</time></trkpt><trkpt lat="43.832285" lon="10.4886667"><ele>13.0</ele><time>2026-04-12T09:46:15.088Z</time></trkpt><trkpt lat="43.8322885" lon="10.4888977"><ele>13.0</ele><time>2026-04-12T09:46:16.086Z</time></trkpt><trkpt lat="43.8322517" lon="10.489124"><ele>12.666666666666666</ele><time>2026-04-12T09:46:17.089Z</time></trkpt><trkpt lat="43.8321874" lon="10.4893503"><ele>12.333333333333332</ele><time>2026-04-12T09:46:18.089Z</time></trkpt><trkpt lat="43.8321066" lon="10.489563"><ele>12.0</ele><time>2026-04-12T09:46:19.088Z</time></trkpt><trkpt lat="43.8320178" lon="10.4897716"><ele>12.0</ele><time>2026-04-12T09:46:20.087Z</time></trkpt><trkpt lat="43.8319211" lon="10.4899826"><ele>12.0</ele><time>2026-04-12T09:46:21.086Z</time></trkpt><trkpt lat="43.8318236" lon="10.4901965"><ele>12.0</ele><time>2026-04-12T09:46:22.086Z</time></trkpt><trkpt lat="43.8317286" lon="10.4904063"><ele>12.0</ele><time>2026-04-12T09:46:23.091Z</time></trkpt><trkpt lat="43.8316345" lon="10.4906141"><ele>12.0</ele><time>2026-04-12T09:46:24.088Z</time></trkpt><trkpt lat="43.8315437" lon="10.4908179"><ele>12.0</ele><time>2026-04-12T09:46:25.086Z</time></trkpt><trkpt lat="43.8314496" lon="10.4910207"><ele>12.0</ele><time>2026-04-12T09:46:26.087Z</time></trkpt><trkpt lat="43.8313583" lon="10.4912254"><ele>12.0</ele><time>2026-04-12T09:46:27.088Z</time></trkpt><trkpt lat="43.8312701" lon="10.4914281"><ele>12.0</ele><time>2026-04-12T09:46:28.089Z</time></trkpt><trkpt lat="43.8311837" lon="10.491619"><ele>12.0</ele><time>2026-04-12T09:46:29.086Z</time></trkpt><trkpt lat="43.831102" lon="10.4918002"><ele>12.0</ele><time>2026-04-12T09:46:30.086Z</time></trkpt><trkpt lat="43.8310175" lon="10.4919873"><ele>12.0</ele><time>2026-04-12T09:46:31.086Z</time></trkpt><trkpt lat="43.830934" lon="10.492177"><ele>12.0</ele><time>2026-04-12T09:46:32.086Z</time></trkpt><trkpt lat="43.8308541" lon="10.4923606"><ele>12.0</ele><time>2026-04-12T09:46:33.089Z</time></trkpt><trkpt lat="43.8307784" lon="10.4925331"><ele>12.0</ele><time>2026-04-12T09:46:34.085Z</time></trkpt><trkpt lat="43.8307156" lon="10.4926879"><ele>12.0</ele><time>2026-04-12T09:46:35.084Z</time></trkpt><trkpt lat="43.8306629" lon="10.4928121"><ele>12.0</ele><time>2026-04-12T09:46:36.084Z</time></trkpt><trkpt lat="43.8306079" lon="10.492903"><ele>12.0</ele><time>2026-04-12T09:46:37.085Z</time></trkpt><trkpt lat="43.8305334" lon="10.4929608"><ele>12.0</ele><time>2026-04-12T09:46:38.086Z</time></trkpt><trkpt lat="43.8304329" lon="10.4929682"><ele>12.0</ele><time>2026-04-12T09:46:39.089Z</time></trkpt><trkpt lat="43.8303225" lon="10.4929345"><ele>12.0</ele><time>2026-04-12T09:46:40.086Z</time></trkpt><trkpt lat="43.8302041" lon="10.4928772"><ele>11.5</ele><time>2026-04-12T09:46:41.086Z</time></trkpt><trkpt lat="43.830083" lon="10.4928105"><ele>11.0</ele><time>2026-04-12T09:46:42.088Z</time></trkpt><trkpt lat="43.8299746" lon="10.4927315"><ele>10.5</ele><time>2026-04-12T09:46:43.094Z</time></trkpt><trkpt lat="43.8298851" lon="10.4926251"><ele>10.0</ele><time>2026-04-12T09:46:44.089Z</time></trkpt><trkpt lat="43.8298225" lon="10.4924888"><ele>10.0</ele><time>2026-04-12T09:46:45.086Z</time></trkpt><trkpt lat="43.829794" lon="10.4923298"><ele>10.0</ele><time>2026-04-12T09:46:46.085Z</time></trkpt><trkpt lat="43.8298077" lon="10.4921639"><ele>10.0</ele><time>2026-04-12T09:46:47.086Z</time></trkpt><trkpt lat="43.8298647" lon="10.4919936"><ele>10.0</ele><time>2026-04-12T09:46:48.086Z</time></trkpt><trkpt lat="43.8299554" lon="10.4918137"><ele>10.333333333333334</ele><time>2026-04-12T09:46:49.088Z</time></trkpt><trkpt lat="43.8300527" lon="10.4916338"><ele>10.666666666666666</ele><time>2026-04-12T09:46:50.087Z</time></trkpt><trkpt lat="43.8301456" lon="10.4914504"><ele>11.0</ele><time>2026-04-12T09:46:51.09Z</time></trkpt><trkpt lat="43.8302245" lon="10.4912612"><ele>11.333333333333332</ele><time>2026-04-12T09:46:52.087Z</time></trkpt><trkpt lat="43.8302802" lon="10.491052"><ele>11.666666666666666</ele><time>2026-04-12T09:46:53.09Z</time></trkpt><trkpt lat="43.8303092" lon="10.4908229"><ele>12.0</ele><time>2026-04-12T09:46:54.087Z</time></trkpt><trkpt lat="43.8303197" lon="10.490587"><ele>12.333333333333332</ele><time>2026-04-12T09:46:55.093Z</time></trkpt><trkpt lat="43.8303213" lon="10.4903535"><ele>12.666666666666666</ele><time>2026-04-12T09:46:56.087Z</time></trkpt><trkpt lat="43.8303166" lon="10.4901199"><ele>13.0</ele><time>2026-04-12T09:46:57.086Z</time></trkpt><trkpt lat="43.8302932" lon="10.4898825"><ele>13.0</ele><time>2026-04-12T09:46:58.086Z</time></trkpt><trkpt lat="43.8302483" lon="10.4896458"><ele>13.0</ele><time>2026-04-12T09:46:59.087Z</time></trkpt><trkpt lat="43.8301907" lon="10.4894189"><ele>13.0</ele><time>2026-04-12T09:47:00.086Z</time></trkpt><trkpt lat="43.8301151" lon="10.4891989"><ele>13.0</ele><time>2026-04-12T09:47:01.08Z</time></trkpt><trkpt lat="43.83003" lon="10.4889902"><ele>13.0</ele><time>2026-04-12T09:47:02.083Z</time></trkpt><trkpt lat="43.8299428" lon="10.4887819"><ele>13.0</ele><time>2026-04-12T09:47:03.087Z</time></trkpt><trkpt lat="43.8298583" lon="10.4885748"><ele>13.0</ele><time>2026-04-12T09:47:04.085Z</time></trkpt><trkpt lat="43.8297715" lon="10.4883599"><ele>13.0</ele><time>2026-04-12T09:47:05.086Z</time></trkpt><trkpt lat="43.8296741" lon="10.4881587"><ele>13.0</ele><time>2026-04-12T09:47:06.085Z</time></trkpt><trkpt lat="43.829564" lon="10.4879701"><ele>12.666666666666666</ele><time>2026-04-12T09:47:07.083Z</time></trkpt><trkpt lat="43.8294399" lon="10.4878031"><ele>12.333333333333332</ele><time>2026-04-12T09:47:08.086Z</time></trkpt><trkpt lat="43.8293079" lon="10.4876571"><ele>12.0</ele><time>2026-04-12T09:47:09.083Z</time></trkpt><trkpt lat="43.8291607" lon="10.4875311"><ele>11.666666666666666</ele><time>2026-04-12T09:47:10.082Z</time></trkpt><trkpt lat="43.8290058" lon="10.4874234"><ele>11.333333333333332</ele><time>2026-04-12T09:47:11.086Z</time></trkpt><trkpt lat="43.8288436" lon="10.487335"><ele>11.0</ele><time>2026-04-12T09:47:12.086Z</time></trkpt><trkpt lat="43.8286767" lon="10.4872634"><ele>11.0</ele><time>2026-04-12T09:47:13.089Z</time></trkpt><trkpt lat="43.8285013" lon="10.4872069"><ele>11.0</ele><time>2026-04-12T09:47:14.085Z</time></trkpt><trkpt lat="43.8283194" lon="10.4871586"><ele>11.0</ele><time>2026-04-12T09:47:15.085Z</time></trkpt><trkpt lat="43.8281318" lon="10.487111"><ele>10.666666666666666</ele><time>2026-04-12T09:47:16.088Z</time></trkpt><trkpt lat="43.8279391" lon="10.4870582"><ele>10.333333333333334</ele><time>2026-04-12T09:47:17.085Z</time></trkpt><trkpt lat="43.8277463" lon="10.4870049"><ele>10.0</ele><time>2026-04-12T09:47:18.086Z</time></trkpt><trkpt lat="43.827558" lon="10.4869506"><ele>10.0</ele><time>2026-04-12T09:47:19.088Z</time></trkpt><trkpt lat="43.8273746" lon="10.486899"><ele>10.0</ele><time>2026-04-12T09:47:20.086Z</time></trkpt><trkpt lat="43.8271963" lon="10.4868479"><ele>10.0</ele><time>2026-04-12T09:47:21.087Z</time></trkpt><trkpt lat="43.827019" lon="10.4867993"><ele>10.0</ele><time>2026-04-12T09:47:22.088Z</time></trkpt><trkpt lat="43.8268389" lon="10.4867481"><ele>10.0</ele><time>2026-04-12T09:47:23.09Z</time></trkpt><trkpt lat="43.8266543" lon="10.4866972"><ele>10.0</ele><time>2026-04-12T09:47:24.086Z</time></trkpt><trkpt lat="43.826465" lon="10.4866482"><ele>10.0</ele><time>2026-04-12T09:47:25.077Z</time></trkpt><trkpt lat="43.8262744" lon="10.486602"><ele>10.0</ele><time>2026-04-12T09:47:26.089Z</time></trkpt><trkpt lat="43.8260839" lon="10.486566"><ele>10.0</ele><time>2026-04-12T09:47:27.086Z</time></trkpt><trkpt lat="43.8258944" lon="10.4865506"><ele>10.0</ele><time>2026-04-12T09:47:28.087Z</time></trkpt><trkpt lat="43.8257055" lon="10.4865546"><ele>10.0</ele><time>2026-04-12T09:47:29.093Z</time></trkpt><trkpt lat="43.8255157" lon="10.4865768"><ele>10.0</ele><time>2026-04-12T09:47:30.093Z</time></trkpt><trkpt lat="43.8253258" lon="10.4866177"><ele>10.666666666666668</ele><time>2026-04-12T09:47:31.089Z</time></trkpt><trkpt lat="43.8251381" lon="10.4866759"><ele>11.333333333333334</ele><time>2026-04-12T09:47:32.091Z</time></trkpt><trkpt lat="43.824954" lon="10.4867518"><ele>12.0</ele><time>2026-04-12T09:47:33.093Z</time></trkpt><trkpt lat="43.8247795" lon="10.4868433"><ele>12.0</ele><time>2026-04-12T09:47:34.091Z</time></trkpt><trkpt lat="43.8246117" lon="10.4869524"><ele>12.0</ele><time>2026-04-12T09:47:35.083Z</time></trkpt><trkpt lat="43.8244458" lon="10.4870724"><ele>12.0</ele><time>2026-04-12T09:47:36.087Z</time></trkpt><trkpt lat="43.8242791" lon="10.4871972"><ele>11.666666666666666</ele><time>2026-04-12T09:47:37.089Z</time></trkpt><trkpt lat="43.8241142" lon="10.4873187"><ele>11.333333333333332</ele><time>2026-04-12T09:47:38.088Z</time></trkpt><trkpt lat="43.8239489" lon="10.4874401"><ele>11.0</ele><time>2026-04-12T09:47:39.088Z</time></trkpt><trkpt lat="43.823783" lon="10.4875588"><ele>11.0</ele><time>2026-04-12T09:47:40.086Z</time></trkpt><trkpt lat="43.823619" lon="10.4876732"><ele>11.0</ele><time>2026-04-12T09:47:41.091Z</time></trkpt><trkpt lat="43.8234536" lon="10.4877899"><ele>11.0</ele><time>2026-04-12T09:47:42.094Z</time></trkpt><trkpt lat="43.8232886" lon="10.4879087"><ele>10.666666666666666</ele><time>2026-04-12T09:47:43.098Z</time></trkpt><trkpt lat="43.8231244" lon="10.488029"><ele>10.333333333333334</ele><time>2026-04-12T09:47:44.09Z</time></trkpt><trkpt lat="43.8229587" lon="10.4881426"><ele>10.0</ele><time>2026-04-12T09:47:45.088Z</time></trkpt><trkpt lat="43.8227911" lon="10.488243"><ele>10.333333333333334</ele><time>2026-04-12T09:47:46.088Z</time></trkpt><trkpt lat="43.8226184" lon="10.4883275"><ele>10.666666666666666</ele><time>2026-04-12T09:47:47.085Z</time></trkpt><trkpt lat="43.822442" lon="10.4883934"><ele>11.0</ele><time>2026-04-12T09:47:48.087Z</time></trkpt><trkpt lat="43.8222655" lon="10.4884434"><ele>11.0</ele><time>2026-04-12T09:47:49.082Z</time></trkpt><trkpt lat="43.8220856" lon="10.4884755"><ele>11.0</ele><time>2026-04-12T09:47:50.088Z</time></trkpt><trkpt lat="43.8219051" lon="10.4884872"><ele>11.0</ele><time>2026-04-12T09:47:51.086Z</time></trkpt><trkpt lat="43.8217238" lon="10.4884825"><ele>11.333333333333332</ele><time>2026-04-12T09:47:52.087Z</time></trkpt><trkpt lat="43.8215411" lon="10.4884631"><ele>11.666666666666666</ele><time>2026-04-12T09:47:53.094Z</time></trkpt><trkpt lat="43.8213584" lon="10.4884268"><ele>12.0</ele><time>2026-04-12T09:47:54.089Z</time></trkpt><trkpt lat="43.8211742" lon="10.4883825"><ele>12.0</ele><time>2026-04-12T09:47:55.085Z</time></trkpt><trkpt lat="43.8209893" lon="10.4883329"><ele>12.0</ele><time>2026-04-12T09:47:56.087Z</time></trkpt><trkpt lat="43.8208024" lon="10.4882843"><ele>12.0</ele><time>2026-04-12T09:47:57.088Z</time></trkpt><trkpt lat="43.8206186" lon="10.4882373"><ele>12.0</ele><time>2026-04-12T09:47:58.087Z</time></trkpt><trkpt lat="43.8204348" lon="10.4881882"><ele>12.0</ele><time>2026-04-12T09:47:59.09Z</time></trkpt><trkpt lat="43.820249" lon="10.4881405"><ele>12.0</ele><time>2026-04-12T09:48:00.088Z</time></trkpt><trkpt lat="43.8200638" lon="10.4880914"><ele>12.333333333333332</ele><time>2026-04-12T09:48:01.083Z</time></trkpt><trkpt lat="43.8198801" lon="10.4880416"><ele>12.666666666666666</ele><time>2026-04-12T09:48:02.085Z</time></trkpt><trkpt lat="43.819696" lon="10.4879941"><ele>13.0</ele><time>2026-04-12T09:48:03.089Z</time></trkpt><trkpt lat="43.8195108" lon="10.4879471"><ele>12.666666666666666</ele><time>2026-04-12T09:48:04.087Z</time></trkpt><trkpt lat="43.8193262" lon="10.4879021"><ele>12.333333333333332</ele><time>2026-04-12T09:48:05.084Z</time></trkpt><trkpt lat="43.8191401" lon="10.4878664"><ele>12.0</ele><time>2026-04-12T09:48:06.085Z</time></trkpt><trkpt lat="43.8189516" lon="10.4878449"><ele>12.0</ele><time>2026-04-12T09:48:07.084Z</time></trkpt><trkpt lat="43.8187612" lon="10.4878446"><ele>12.0</ele><time>2026-04-12T09:48:08.084Z</time></trkpt><trkpt lat="43.8185699" lon="10.4878644"><ele>12.0</ele><time>2026-04-12T09:48:09.087Z</time></trkpt><trkpt lat="43.8183793" lon="10.4879046"><ele>12.0</ele><time>2026-04-12T09:48:10.088Z</time></trkpt><trkpt lat="43.818189" lon="10.4879536"><ele>12.0</ele><time>2026-04-12T09:48:11.087Z</time></trkpt><trkpt lat="43.8180026" lon="10.4880042"><ele>12.0</ele><time>2026-04-12T09:48:12.085Z</time></trkpt><trkpt lat="43.81782" lon="10.4880535"><ele>11.333333333333334</ele><time>2026-04-12T09:48:13.09Z</time></trkpt><trkpt lat="43.8176453" lon="10.4880966"><ele>10.666666666666668</ele><time>2026-04-12T09:48:14.086Z</time></trkpt><trkpt lat="43.817481" lon="10.4881319"><ele>10.0</ele><time>2026-04-12T09:48:15.089Z</time></trkpt><trkpt lat="43.8173271" lon="10.4881619"><ele>10.0</ele><time>2026-04-12T09:48:16.087Z</time></trkpt><trkpt lat="43.8171823" lon="10.4881928"><ele>10.0</ele><time>2026-04-12T09:48:17.085Z</time></trkpt><trkpt lat="43.8170454" lon="10.4882259"><ele>10.0</ele><time>2026-04-12T09:48:18.078Z</time></trkpt><trkpt lat="43.8169164" lon="10.4882618"><ele>10.0</ele><time>2026-04-12T09:48:19.096Z</time></trkpt><trkpt lat="43.8167971" lon="10.4883042"><ele>10.4</ele><time>2026-04-12T09:48:20.094Z</time></trkpt><trkpt lat="43.8166905" lon="10.4883503"><ele>10.8</ele><time>2026-04-12T09:48:21.088Z</time></trkpt><trkpt lat="43.8166021" lon="10.4883869"><ele>11.2</ele><time>2026-04-12T09:48:22.087Z</time></trkpt><trkpt lat="43.8165114" lon="10.4884268"><ele>11.6</ele><time>2026-04-12T09:48:24.08Z</time></trkpt><trkpt lat="43.8164376" lon="10.4884128"><ele>12.0</ele><time>2026-04-12T09:48:27.088Z</time></trkpt><trkpt lat="43.8163089" lon="10.4884333"><ele>12.0</ele><time>2026-04-12T09:48:29.094Z</time></trkpt><trkpt lat="43.8162345" lon="10.4884658"><ele>12.0</ele><time>2026-04-12T09:48:30.095Z</time></trkpt><trkpt lat="43.8161622" lon="10.4884989"><ele>12.0</ele><time>2026-04-12T09:48:31.087Z</time></trkpt><trkpt lat="43.8160838" lon="10.4885177"><ele>12.0</ele><time>2026-04-12T09:48:32.086Z</time></trkpt><trkpt lat="43.8159952" lon="10.4885124"><ele>12.0</ele><time>2026-04-12T09:48:33.09Z</time></trkpt><trkpt lat="43.815888" lon="10.488481"><ele>12.0</ele><time>2026-04-12T09:48:34.086Z</time></trkpt><trkpt lat="43.8157545" lon="10.48842"><ele>12.333333333333332</ele><time>2026-04-12T09:48:35.085Z</time></trkpt><trkpt lat="43.8156062" lon="10.4883362"><ele>12.666666666666666</ele><time>2026-04-12T09:48:36.086Z</time></trkpt><trkpt lat="43.8154494" lon="10.488238"><ele>13.0</ele><time>2026-04-12T09:48:37.086Z</time></trkpt><trkpt lat="43.8152882" lon="10.4881277"><ele>12.666666666666666</ele><time>2026-04-12T09:48:38.086Z</time></trkpt><trkpt lat="43.815119" lon="10.4880075"><ele>12.333333333333332</ele><time>2026-04-12T09:48:39.088Z</time></trkpt><trkpt lat="43.8149477" lon="10.4878843"><ele>12.0</ele><time>2026-04-12T09:48:40.088Z</time></trkpt><trkpt lat="43.8147735" lon="10.4877629"><ele>12.666666666666668</ele><time>2026-04-12T09:48:41.089Z</time></trkpt><trkpt lat="43.8146002" lon="10.4876435"><ele>13.333333333333334</ele><time>2026-04-12T09:48:42.086Z</time></trkpt><trkpt lat="43.8144401" lon="10.4875273"><ele>14.0</ele><time>2026-04-12T09:48:43.089Z</time></trkpt><trkpt lat="43.8142949" lon="10.4874185"><ele>14.0</ele><time>2026-04-12T09:48:44.086Z</time></trkpt><trkpt lat="43.8141614" lon="10.4873258"><ele>14.0</ele><time>2026-04-12T09:48:45.086Z</time></trkpt><trkpt lat="43.8140306" lon="10.4872538"><ele>14.0</ele><time>2026-04-12T09:48:46.086Z</time></trkpt><trkpt lat="43.8139037" lon="10.4871927"><ele>14.0</ele><time>2026-04-12T09:48:47.085Z</time></trkpt><trkpt lat="43.813776" lon="10.4871398"><ele>14.5</ele><time>2026-04-12T09:48:48.086Z</time></trkpt><trkpt lat="43.8136454" lon="10.4870879"><ele>15.0</ele><time>2026-04-12T09:48:49.086Z</time></trkpt><trkpt lat="43.8135153" lon="10.4870357"><ele>15.5</ele><time>2026-04-12T09:48:50.088Z</time></trkpt><trkpt lat="43.8133792" lon="10.486981"><ele>16.0</ele><time>2026-04-12T09:48:51.087Z</time></trkpt><trkpt lat="43.8132391" lon="10.4869236"><ele>16.0</ele><time>2026-04-12T09:48:52.087Z</time></trkpt><trkpt lat="43.8130972" lon="10.4868646"><ele>16.0</ele><time>2026-04-12T09:48:53.088Z</time></trkpt><trkpt lat="43.812953" lon="10.4868029"><ele>16.0</ele><time>2026-04-12T09:48:54.086Z</time></trkpt><trkpt lat="43.812805" lon="10.4867384"><ele>16.666666666666664</ele><time>2026-04-12T09:48:55.085Z</time></trkpt><trkpt lat="43.8126515" lon="10.486671"><ele>17.333333333333332</ele><time>2026-04-12T09:48:56.085Z</time></trkpt><trkpt lat="43.8124937" lon="10.4865998"><ele>18.0</ele><time>2026-04-12T09:48:57.085Z</time></trkpt><trkpt lat="43.8123354" lon="10.486527"><ele>18.0</ele><time>2026-04-12T09:48:58.086Z</time></trkpt><trkpt lat="43.8121774" lon="10.4864529"><ele>18.0</ele><time>2026-04-12T09:48:59.088Z</time></trkpt><trkpt lat="43.8120197" lon="10.486379"><ele>18.0</ele><time>2026-04-12T09:49:00.087Z</time></trkpt><trkpt lat="43.8118616" lon="10.4863055"><ele>18.666666666666668</ele><time>2026-04-12T09:49:01.087Z</time></trkpt><trkpt lat="43.8117022" lon="10.4862313"><ele>19.333333333333336</ele><time>2026-04-12T09:49:02.084Z</time></trkpt><trkpt lat="43.8115423" lon="10.4861577"><ele>20.0</ele><time>2026-04-12T09:49:03.09Z</time></trkpt><trkpt lat="43.8113812" lon="10.486088"><ele>20.0</ele><time>2026-04-12T09:49:04.086Z</time></trkpt><trkpt lat="43.8112185" lon="10.486023"><ele>20.0</ele><time>2026-04-12T09:49:05.088Z</time></trkpt><trkpt lat="43.811055" lon="10.4859637"><ele>20.0</ele><time>2026-04-12T09:49:06.088Z</time></trkpt><trkpt lat="43.8108963" lon="10.4859096"><ele>19.666666666666668</ele><time>2026-04-12T09:49:07.087Z</time></trkpt><trkpt lat="43.810743" lon="10.4858624"><ele>19.333333333333332</ele><time>2026-04-12T09:49:08.088Z</time></trkpt><trkpt lat="43.8105925" lon="10.4858136"><ele>19.0</ele><time>2026-04-12T09:49:09.088Z</time></trkpt><trkpt lat="43.8104406" lon="10.4857642"><ele>19.0</ele><time>2026-04-12T09:49:10.088Z</time></trkpt><trkpt lat="43.8102861" lon="10.4857135"><ele>19.0</ele><time>2026-04-12T09:49:11.085Z</time></trkpt><trkpt lat="43.8101289" lon="10.4856616"><ele>19.0</ele><time>2026-04-12T09:49:12.087Z</time></trkpt><trkpt lat="43.8099684" lon="10.485607"><ele>18.666666666666664</ele><time>2026-04-12T09:49:13.093Z</time></trkpt><trkpt lat="43.8098073" lon="10.4855511"><ele>18.333333333333332</ele><time>2026-04-12T09:49:14.09Z</time></trkpt><trkpt lat="43.8096472" lon="10.485496"><ele>18.0</ele><time>2026-04-12T09:49:15.086Z</time></trkpt><trkpt lat="43.809487" lon="10.4854415"><ele>19.0</ele><time>2026-04-12T09:49:16.087Z</time></trkpt><trkpt lat="43.8093286" lon="10.4853883"><ele>20.0</ele><time>2026-04-12T09:49:17.085Z</time></trkpt><trkpt lat="43.8091715" lon="10.485334"><ele>21.0</ele><time>2026-04-12T09:49:18.086Z</time></trkpt><trkpt lat="43.8090137" lon="10.485278"><ele>23.0</ele><time>2026-04-12T09:49:19.088Z</time></trkpt><trkpt lat="43.8088546" lon="10.4852209"><ele>25.0</ele><time>2026-04-12T09:49:20.086Z</time></trkpt><trkpt lat="43.8086931" lon="10.4851641"><ele>27.0</ele><time>2026-04-12T09:49:21.085Z</time></trkpt><trkpt lat="43.8085291" lon="10.4851073"><ele>25.666666666666668</ele><time>2026-04-12T09:49:22.086Z</time></trkpt><trkpt lat="43.8083616" lon="10.4850494"><ele>24.333333333333336</ele><time>2026-04-12T09:49:23.091Z</time></trkpt><trkpt lat="43.8081927" lon="10.4849899"><ele>23.0</ele><time>2026-04-12T09:49:24.087Z</time></trkpt><trkpt lat="43.8080206" lon="10.4849278"><ele>23.0</ele><time>2026-04-12T09:49:25.086Z</time></trkpt><trkpt lat="43.8078525" lon="10.4848683"><ele>23.0</ele><time>2026-04-12T09:49:26.085Z</time></trkpt><trkpt lat="43.8076894" lon="10.4848138"><ele>23.0</ele><time>2026-04-12T09:49:27.086Z</time></trkpt><trkpt lat="43.807534" lon="10.4847674"><ele>22.75</ele><time>2026-04-12T09:49:28.084Z</time></trkpt><trkpt lat="43.8073905" lon="10.4847291"><ele>22.5</ele><time>2026-04-12T09:49:29.085Z</time></trkpt><trkpt lat="43.807261" lon="10.4846973"><ele>22.25</ele><time>2026-04-12T09:49:30.085Z</time></trkpt><trkpt lat="43.8071414" lon="10.484674"><ele>22.0</ele><time>2026-04-12T09:49:31.086Z</time></trkpt><trkpt lat="43.8070229" lon="10.4846555"><ele>22.0</ele><time>2026-04-12T09:49:32.085Z</time></trkpt><trkpt lat="43.8069039" lon="10.4846402"><ele>22.0</ele><time>2026-04-12T09:49:33.089Z</time></trkpt><trkpt lat="43.8067875" lon="10.4846285"><ele>22.0</ele><time>2026-04-12T09:49:34.084Z</time></trkpt><trkpt lat="43.806675" lon="10.4846172"><ele>22.0</ele><time>2026-04-12T09:49:35.086Z</time></trkpt><trkpt lat="43.8065606" lon="10.4846"><ele>22.0</ele><time>2026-04-12T09:49:36.084Z</time></trkpt><trkpt lat="43.8064399" lon="10.4845759"><ele>22.0</ele><time>2026-04-12T09:49:37.086Z</time></trkpt><trkpt lat="43.8063109" lon="10.4845502"><ele>22.0</ele><time>2026-04-12T09:49:38.086Z</time></trkpt><trkpt lat="43.8061754" lon="10.4845242"><ele>22.0</ele><time>2026-04-12T09:49:39.085Z</time></trkpt><trkpt lat="43.806039" lon="10.4844994"><ele>21.5</ele><time>2026-04-12T09:49:40.085Z</time></trkpt><trkpt lat="43.8059057" lon="10.484474"><ele>21.0</ele><time>2026-04-12T09:49:41.085Z</time></trkpt><trkpt lat="43.8057748" lon="10.4844518"><ele>20.5</ele><time>2026-04-12T09:49:42.084Z</time></trkpt><trkpt lat="43.805646" lon="10.4844334"><ele>20.0</ele><time>2026-04-12T09:49:43.087Z</time></trkpt><trkpt lat="43.8055182" lon="10.484414"><ele>20.0</ele><time>2026-04-12T09:49:44.085Z</time></trkpt><trkpt lat="43.8053904" lon="10.4843939"><ele>20.0</ele><time>2026-04-12T09:49:45.086Z</time></trkpt><trkpt lat="43.8052638" lon="10.4843757"><ele>20.0</ele><time>2026-04-12T09:49:46.086Z</time></trkpt><trkpt lat="43.8051407" lon="10.4843545"><ele>20.0</ele><time>2026-04-12T09:49:47.086Z</time></trkpt><trkpt lat="43.8050166" lon="10.4843276"><ele>20.0</ele><time>2026-04-12T09:49:48.086Z</time></trkpt><trkpt lat="43.8048903" lon="10.4843012"><ele>20.0</ele><time>2026-04-12T09:49:49.087Z</time></trkpt><trkpt lat="43.8047667" lon="10.4842774"><ele>20.0</ele><time>2026-04-12T09:49:50.085Z</time></trkpt><trkpt lat="43.8046456" lon="10.4842524"><ele>20.0</ele><time>2026-04-12T09:49:51.086Z</time></trkpt><trkpt lat="43.8045269" lon="10.4842255"><ele>20.0</ele><time>2026-04-12T09:49:52.084Z</time></trkpt><trkpt lat="43.8044074" lon="10.4842051"><ele>20.0</ele><time>2026-04-12T09:49:53.089Z</time></trkpt><trkpt lat="43.8042848" lon="10.4841988"><ele>20.0</ele><time>2026-04-12T09:49:54.085Z</time></trkpt><trkpt lat="43.8041586" lon="10.4842106"><ele>20.0</ele><time>2026-04-12T09:49:55.084Z</time></trkpt><trkpt lat="43.8040343" lon="10.4842455"><ele>20.5</ele><time>2026-04-12T09:49:56.089Z</time></trkpt><trkpt lat="43.8039114" lon="10.4842942"><ele>21.0</ele><time>2026-04-12T09:49:57.089Z</time></trkpt><trkpt lat="43.8037865" lon="10.4843409"><ele>21.5</ele><time>2026-04-12T09:49:58.09Z</time></trkpt><trkpt lat="43.8036574" lon="10.4843883"><ele>22.0</ele><time>2026-04-12T09:49:59.092Z</time></trkpt><trkpt lat="43.8035268" lon="10.4844331"><ele>21.75</ele><time>2026-04-12T09:50:00.089Z</time></trkpt><trkpt lat="43.8034" lon="10.4844772"><ele>21.5</ele><time>2026-04-12T09:50:01.087Z</time></trkpt><trkpt lat="43.803271" lon="10.4845183"><ele>21.25</ele><time>2026-04-12T09:50:02.085Z</time></trkpt><trkpt lat="43.8031418" lon="10.4845605"><ele>21.0</ele><time>2026-04-12T09:50:03.089Z</time></trkpt><trkpt lat="43.8030128" lon="10.484604"><ele>21.0</ele><time>2026-04-12T09:50:04.086Z</time></trkpt><trkpt lat="43.8028803" lon="10.4846457"><ele>21.0</ele><time>2026-04-12T09:50:05.085Z</time></trkpt><trkpt lat="43.8027486" lon="10.4846805"><ele>21.0</ele><time>2026-04-12T09:50:06.083Z</time></trkpt><trkpt lat="43.8026166" lon="10.4847023"><ele>21.0</ele><time>2026-04-12T09:50:07.084Z</time></trkpt><trkpt lat="43.8024841" lon="10.4847107"><ele>21.75</ele><time>2026-04-12T09:50:08.084Z</time></trkpt><trkpt lat="43.8023492" lon="10.4847079"><ele>22.5</ele><time>2026-04-12T09:50:09.089Z</time></trkpt><trkpt lat="43.8022125" lon="10.4846961"><ele>23.25</ele><time>2026-04-12T09:50:10.087Z</time></trkpt><trkpt lat="43.8020735" lon="10.4846822"><ele>24.0</ele><time>2026-04-12T09:50:11.085Z</time></trkpt><trkpt lat="43.8019325" lon="10.4846663"><ele>24.75</ele><time>2026-04-12T09:50:12.086Z</time></trkpt><trkpt lat="43.8017875" lon="10.4846504"><ele>25.5</ele><time>2026-04-12T09:50:13.089Z</time></trkpt><trkpt lat="43.8016395" lon="10.4846357"><ele>26.25</ele><time>2026-04-12T09:50:14.086Z</time></trkpt><trkpt lat="43.8014909" lon="10.4846215"><ele>27.0</ele><time>2026-04-12T09:50:15.086Z</time></trkpt><trkpt lat="43.8013397" lon="10.4846069"><ele>26.666666666666664</ele><time>2026-04-12T09:50:16.085Z</time></trkpt><trkpt lat="43.8011866" lon="10.4845909"><ele>26.333333333333332</ele><time>2026-04-12T09:50:17.088Z</time></trkpt><trkpt lat="43.8010338" lon="10.4845777"><ele>26.0</ele><time>2026-04-12T09:50:18.087Z</time></trkpt><trkpt lat="43.8008803" lon="10.4845635"><ele>27.0</ele><time>2026-04-12T09:50:19.087Z</time></trkpt><trkpt lat="43.8007256" lon="10.48455"><ele>28.0</ele><time>2026-04-12T09:50:20.085Z</time></trkpt><trkpt lat="43.8005702" lon="10.4845341"><ele>29.0</ele><time>2026-04-12T09:50:21.086Z</time></trkpt><trkpt lat="43.8004153" lon="10.4845159"><ele>29.0</ele><time>2026-04-12T09:50:22.086Z</time></trkpt><trkpt lat="43.800269" lon="10.4844979"><ele>29.0</ele><time>2026-04-12T09:50:23.089Z</time></trkpt><trkpt lat="43.8001306" lon="10.4844823"><ele>29.0</ele><time>2026-04-12T09:50:24.087Z</time></trkpt><trkpt lat="43.7999974" lon="10.4844656"><ele>29.0</ele><time>2026-04-12T09:50:25.086Z</time></trkpt><trkpt lat="43.7998697" lon="10.484446"><ele>29.166666666666664</ele><time>2026-04-12T09:50:26.085Z</time></trkpt><trkpt lat="43.7997563" lon="10.484415"><ele>29.333333333333332</ele><time>2026-04-12T09:50:27.086Z</time></trkpt><trkpt lat="43.7996598" lon="10.4843757"><ele>29.5</ele><time>2026-04-12T09:50:28.088Z</time></trkpt><trkpt lat="43.7995807" lon="10.4843343"><ele>29.666666666666664</ele><time>2026-04-12T09:50:29.086Z</time></trkpt><trkpt lat="43.7995205" lon="10.4842998"><ele>29.833333333333332</ele><time>2026-04-12T09:50:30.086Z</time></trkpt><trkpt lat="43.7994626" lon="10.484262"><ele>30.0</ele><time>2026-04-12T09:50:33.093Z</time></trkpt><trkpt lat="43.7993997" lon="10.4843351"><ele>30.0</ele><time>2026-04-12T09:50:36.093Z</time></trkpt><trkpt lat="43.7993821" lon="10.4844237"><ele>30.0</ele><time>2026-04-12T09:50:37.092Z</time></trkpt><trkpt lat="43.7993686" lon="10.4845528"><ele>30.0</ele><time>2026-04-12T09:50:38.092Z</time></trkpt><trkpt lat="43.7993524" lon="10.4847064"><ele>30.0</ele><time>2026-04-12T09:50:39.093Z</time></trkpt><trkpt lat="43.7993322" lon="10.4848795"><ele>30.0</ele><time>2026-04-12T09:50:40.092Z</time></trkpt><trkpt lat="43.799314" lon="10.4850628"><ele>29.5</ele><time>2026-04-12T09:50:41.089Z</time></trkpt><trkpt lat="43.7992966" lon="10.4852457"><ele>29.0</ele><time>2026-04-12T09:50:42.09Z</time></trkpt><trkpt lat="43.7992803" lon="10.4854279"><ele>28.5</ele><time>2026-04-12T09:50:43.094Z</time></trkpt><trkpt lat="43.7992668" lon="10.4856051"><ele>28.0</ele><time>2026-04-12T09:50:44.088Z</time></trkpt><trkpt lat="43.7992572" lon="10.4857811"><ele>27.5</ele><time>2026-04-12T09:50:45.094Z</time></trkpt><trkpt lat="43.7992565" lon="10.4859564"><ele>27.0</ele><time>2026-04-12T09:50:46.092Z</time></trkpt><trkpt lat="43.7992637" lon="10.4861271"><ele>26.5</ele><time>2026-04-12T09:50:47.088Z</time></trkpt><trkpt lat="43.7992738" lon="10.4862901"><ele>26.0</ele><time>2026-04-12T09:50:48.086Z</time></trkpt><trkpt lat="43.7992843" lon="10.4864439"><ele>25.5</ele><time>2026-04-12T09:50:49.088Z</time></trkpt><trkpt lat="43.7992908" lon="10.4865935"><ele>25.0</ele><time>2026-04-12T09:50:50.08Z</time></trkpt><trkpt lat="43.7992931" lon="10.4867432"><ele>24.5</ele><time>2026-04-12T09:50:51.088Z</time></trkpt><trkpt lat="43.7992848" lon="10.4869012"><ele>24.0</ele><time>2026-04-12T09:50:52.078Z</time></trkpt><trkpt lat="43.7992623" lon="10.4870659"><ele>24.0</ele><time>2026-04-12T09:50:53.09Z</time></trkpt><trkpt lat="43.7992272" lon="10.4872351"><ele>24.0</ele><time>2026-04-12T09:50:54.085Z</time></trkpt><trkpt lat="43.7991864" lon="10.487396"><ele>24.0</ele><time>2026-04-12T09:50:55.089Z</time></trkpt><trkpt lat="43.7991483" lon="10.4875419"><ele>24.0</ele><time>2026-04-12T09:50:56.09Z</time></trkpt><trkpt lat="43.7991187" lon="10.4876776"><ele>24.0</ele><time>2026-04-12T09:50:57.09Z</time></trkpt><trkpt lat="43.7990968" lon="10.487808"><ele>24.0</ele><time>2026-04-12T09:50:58.09Z</time></trkpt><trkpt lat="43.7990786" lon="10.4879194"><ele>24.0</ele><time>2026-04-12T09:50:59.089Z</time></trkpt><trkpt lat="43.7990524" lon="10.4880063"><ele>24.0</ele><time>2026-04-12T09:51:00.089Z</time></trkpt><trkpt lat="43.7990125" lon="10.4880775"><ele>24.0</ele><time>2026-04-12T09:51:01.086Z</time></trkpt><trkpt lat="43.7989617" lon="10.4881516"><ele>24.0</ele><time>2026-04-12T09:51:02.086Z</time></trkpt><trkpt lat="43.7989071" lon="10.4882347"><ele>23.833333333333332</ele><time>2026-04-12T09:51:03.091Z</time></trkpt><trkpt lat="43.7988476" lon="10.4883306"><ele>23.666666666666668</ele><time>2026-04-12T09:51:04.085Z</time></trkpt><trkpt lat="43.7987879" lon="10.4884294"><ele>23.5</ele><time>2026-04-12T09:51:05.084Z</time></trkpt><trkpt lat="43.7987312" lon="10.4885277"><ele>23.333333333333336</ele><time>2026-04-12T09:51:06.086Z</time></trkpt><trkpt lat="43.7986764" lon="10.4886243"><ele>23.166666666666668</ele><time>2026-04-12T09:51:07.087Z</time></trkpt><trkpt lat="43.7986279" lon="10.4887142"><ele>23.0</ele><time>2026-04-12T09:51:08.088Z</time></trkpt><trkpt lat="43.7985865" lon="10.4887946"><ele>22.857142857142858</ele><time>2026-04-12T09:51:09.078Z</time></trkpt><trkpt lat="43.7985481" lon="10.4888765"><ele>22.71428571428571</ele><time>2026-04-12T09:51:10.086Z</time></trkpt><trkpt lat="43.7985076" lon="10.4889588"><ele>22.57142857142857</ele><time>2026-04-12T09:51:11.084Z</time></trkpt><trkpt lat="43.7984577" lon="10.48904"><ele>22.42857142857143</ele><time>2026-04-12T09:51:12.085Z</time></trkpt><trkpt lat="43.7984006" lon="10.4891148"><ele>22.285714285714285</ele><time>2026-04-12T09:51:13.086Z</time></trkpt><trkpt lat="43.7983403" lon="10.4891762"><ele>22.142857142857142</ele><time>2026-04-12T09:51:14.084Z</time></trkpt><trkpt lat="43.7982796" lon="10.4892212"><ele>22.0</ele><time>2026-04-12T09:51:15.084Z</time></trkpt><trkpt lat="43.7982146" lon="10.4892436"><ele>23.166666666666664</ele><time>2026-04-12T09:51:16.084Z</time></trkpt><trkpt lat="43.7981503" lon="10.4892491"><ele>24.333333333333332</ele><time>2026-04-12T09:51:17.085Z</time></trkpt><trkpt lat="43.7980499" lon="10.4892642"><ele>25.5</ele><time>2026-04-12T09:51:19.084Z</time></trkpt><trkpt lat="43.7979957" lon="10.4893868"><ele>26.666666666666664</ele><time>2026-04-12T09:51:21.082Z</time></trkpt><trkpt lat="43.7979797" lon="10.4894861"><ele>27.833333333333332</ele><time>2026-04-12T09:51:22.084Z</time></trkpt><trkpt lat="43.7979574" lon="10.4895893"><ele>29.0</ele><time>2026-04-12T09:51:23.088Z</time></trkpt><trkpt lat="43.7979165" lon="10.4896934"><ele>29.799999999999997</ele><time>2026-04-12T09:51:24.084Z</time></trkpt><trkpt lat="43.7978549" lon="10.489797"><ele>30.599999999999998</ele><time>2026-04-12T09:51:25.085Z</time></trkpt><trkpt lat="43.7977724" lon="10.4898885"><ele>31.4</ele><time>2026-04-12T09:51:26.084Z</time></trkpt><trkpt lat="43.7976811" lon="10.4899703"><ele>32.199999999999996</ele><time>2026-04-12T09:51:27.084Z</time></trkpt><trkpt lat="43.7975872" lon="10.4900542"><ele>33.0</ele><time>2026-04-12T09:51:28.084Z</time></trkpt><trkpt lat="43.7974954" lon="10.4901465"><ele>34.599999999999994</ele><time>2026-04-12T09:51:29.087Z</time></trkpt><trkpt lat="43.7974057" lon="10.4902301"><ele>36.199999999999996</ele><time>2026-04-12T09:51:30.086Z</time></trkpt><trkpt lat="43.7973218" lon="10.4903074"><ele>37.8</ele><time>2026-04-12T09:51:31.086Z</time></trkpt><trkpt lat="43.7972419" lon="10.4903783"><ele>39.4</ele><time>2026-04-12T09:51:32.085Z</time></trkpt><trkpt lat="43.7971622" lon="10.4904486"><ele>41.0</ele><time>2026-04-12T09:51:33.091Z</time></trkpt><trkpt lat="43.797082" lon="10.49052"><ele>41.0</ele><time>2026-04-12T09:51:34.083Z</time></trkpt><trkpt lat="43.797" lon="10.4905948"><ele>41.0</ele><time>2026-04-12T09:51:35.085Z</time></trkpt><trkpt lat="43.796915" lon="10.4906717"><ele>41.0</ele><time>2026-04-12T09:51:36.083Z</time></trkpt><trkpt lat="43.7968264" lon="10.490754"><ele>41.0</ele><time>2026-04-12T09:51:37.086Z</time></trkpt><trkpt lat="43.7967361" lon="10.4908357"><ele>41.0</ele><time>2026-04-12T09:51:38.086Z</time></trkpt><trkpt lat="43.7966517" lon="10.4909237"><ele>44.8</ele><time>2026-04-12T09:51:39.085Z</time></trkpt><trkpt lat="43.7965738" lon="10.4910246"><ele>48.599999999999994</ele><time>2026-04-12T09:51:40.082Z</time></trkpt><trkpt lat="43.7965027" lon="10.4911294"><ele>52.4</ele><time>2026-04-12T09:51:41.082Z</time></trkpt><trkpt lat="43.7964355" lon="10.4912303"><ele>56.2</ele><time>2026-04-12T09:51:42.083Z</time></trkpt><trkpt lat="43.7963699" lon="10.4913306"><ele>60.0</ele><time>2026-04-12T09:51:43.084Z</time></trkpt><trkpt lat="43.7963065" lon="10.4914172"><ele>60.0</ele><time>2026-04-12T09:51:44.083Z</time></trkpt><trkpt lat="43.7962465" lon="10.4914859"><ele>60.0</ele><time>2026-04-12T09:51:45.082Z</time></trkpt><trkpt lat="43.7961796" lon="10.4915414"><ele>60.0</ele><time>2026-04-12T09:51:46.082Z</time></trkpt><trkpt lat="43.796103" lon="10.4915845"><ele>60.0</ele><time>2026-04-12T09:51:47.074Z</time></trkpt><trkpt lat="43.7960168" lon="10.4916316"><ele>60.0</ele><time>2026-04-12T09:51:48.082Z</time></trkpt><trkpt lat="43.7959275" lon="10.4916772"><ele>60.0</ele><time>2026-04-12T09:51:49.079Z</time></trkpt><trkpt lat="43.7958397" lon="10.4917351"><ele>63.166666666666664</ele><time>2026-04-12T09:51:50.082Z</time></trkpt><trkpt lat="43.7957579" lon="10.4917988"><ele>66.33333333333333</ele><time>2026-04-12T09:51:51.083Z</time></trkpt><trkpt lat="43.7956917" lon="10.4918567"><ele>69.5</ele><time>2026-04-12T09:51:52.076Z</time></trkpt><trkpt lat="43.7956401" lon="10.4919092"><ele>72.66666666666666</ele><time>2026-04-12T09:51:53.084Z</time></trkpt><trkpt lat="43.7955749" lon="10.4920035"><ele>75.83333333333333</ele><time>2026-04-12T09:51:55.084Z</time></trkpt><trkpt lat="43.795561" lon="10.4921648"><ele>79.0</ele><time>2026-04-12T09:51:57.086Z</time></trkpt><trkpt lat="43.7955758" lon="10.4922628"><ele>80.16666666666666</ele><time>2026-04-12T09:51:58.085Z</time></trkpt><trkpt lat="43.7956088" lon="10.4923591"><ele>81.33333333333333</ele><time>2026-04-12T09:51:59.086Z</time></trkpt><trkpt lat="43.7956494" lon="10.4924616"><ele>82.5</ele><time>2026-04-12T09:52:00.084Z</time></trkpt><trkpt lat="43.7956863" lon="10.4925717"><ele>83.66666666666667</ele><time>2026-04-12T09:52:01.087Z</time></trkpt><trkpt lat="43.7957259" lon="10.4926799"><ele>84.83333333333334</ele><time>2026-04-12T09:52:02.085Z</time></trkpt><trkpt lat="43.7957698" lon="10.4927755"><ele>86.0</ele><time>2026-04-12T09:52:03.088Z</time></trkpt><trkpt lat="43.7958202" lon="10.4928609"><ele>86.5</ele><time>2026-04-12T09:52:04.085Z</time></trkpt><trkpt lat="43.795872" lon="10.4929373"><ele>87.0</ele><time>2026-04-12T09:52:05.085Z</time></trkpt><trkpt lat="43.7959204" lon="10.4930113"><ele>87.5</ele><time>2026-04-12T09:52:06.084Z</time></trkpt><trkpt lat="43.7959689" lon="10.4930812"><ele>88.0</ele><time>2026-04-12T09:52:07.086Z</time></trkpt><trkpt lat="43.7960187" lon="10.4931376"><ele>88.5</ele><time>2026-04-12T09:52:08.085Z</time></trkpt><trkpt lat="43.7961335" lon="10.4932053"><ele>89.0</ele><time>2026-04-12T09:52:10.086Z</time></trkpt><trkpt lat="43.7962005" lon="10.4932423"><ele>89.0</ele><time>2026-04-12T09:52:11.084Z</time></trkpt><trkpt lat="43.7962658" lon="10.4932953"><ele>89.0</ele><time>2026-04-12T09:52:12.082Z</time></trkpt><trkpt lat="43.7963297" lon="10.4933637"><ele>89.0</ele><time>2026-04-12T09:52:13.089Z</time></trkpt><trkpt lat="43.7963948" lon="10.4934413"><ele>89.0</ele><time>2026-04-12T09:52:14.085Z</time></trkpt><trkpt lat="43.7964635" lon="10.4935246"><ele>89.0</ele><time>2026-04-12T09:52:15.083Z</time></trkpt><trkpt lat="43.7965326" lon="10.4936154"><ele>89.0</ele><time>2026-04-12T09:52:16.081Z</time></trkpt><trkpt lat="43.7965976" lon="10.4937129"><ele>88.6</ele><time>2026-04-12T09:52:17.084Z</time></trkpt><trkpt lat="43.7966587" lon="10.4938198"><ele>88.2</ele><time>2026-04-12T09:52:18.084Z</time></trkpt><trkpt lat="43.7967174" lon="10.493938"><ele>87.8</ele><time>2026-04-12T09:52:19.086Z</time></trkpt><trkpt lat="43.7967662" lon="10.4940616"><ele>87.39999999999999</ele><time>2026-04-12T09:52:20.084Z</time></trkpt><trkpt lat="43.7968065" lon="10.4941786"><ele>87.0</ele><time>2026-04-12T09:52:21.086Z</time></trkpt><trkpt lat="43.7968458" lon="10.49429"><ele>87.0</ele><time>2026-04-12T09:52:22.083Z</time></trkpt><trkpt lat="43.796881" lon="10.494391"><ele>87.0</ele><time>2026-04-12T09:52:23.087Z</time></trkpt><trkpt lat="43.7969101" lon="10.4944816"><ele>87.0</ele><time>2026-04-12T09:52:24.084Z</time></trkpt><trkpt lat="43.7969443" lon="10.4946213"><ele>87.0</ele><time>2026-04-12T09:52:26.09Z</time></trkpt><trkpt lat="43.7968846" lon="10.4947118"><ele>87.0</ele><time>2026-04-12T09:52:29.088Z</time></trkpt><trkpt lat="43.7968233" lon="10.4946725"><ele>87.0</ele><time>2026-04-12T09:52:31.086Z</time></trkpt><trkpt lat="43.7967434" lon="10.4945436"><ele>89.83333333333333</ele><time>2026-04-12T09:52:33.089Z</time></trkpt><trkpt lat="43.7966828" lon="10.4944721"><ele>92.66666666666666</ele><time>2026-04-12T09:52:34.086Z</time></trkpt><trkpt lat="43.7966055" lon="10.4944023"><ele>95.5</ele><time>2026-04-12T09:52:35.085Z</time></trkpt><trkpt lat="43.7965244" lon="10.4943348"><ele>98.33333333333333</ele><time>2026-04-12T09:52:36.086Z</time></trkpt><trkpt lat="43.7964453" lon="10.4942732"><ele>101.16666666666666</ele><time>2026-04-12T09:52:37.087Z</time></trkpt><trkpt lat="43.7963674" lon="10.4942183"><ele>104.0</ele><time>2026-04-12T09:52:38.085Z</time></trkpt><trkpt lat="43.7962874" lon="10.4941735"><ele>103.99999999999999</ele><time>2026-04-12T09:52:39.088Z</time></trkpt><trkpt lat="43.7962046" lon="10.4941427"><ele>104.0</ele><time>2026-04-12T09:52:40.085Z</time></trkpt><trkpt lat="43.7961149" lon="10.4941242"><ele>104.0</ele><time>2026-04-12T09:52:41.084Z</time></trkpt><trkpt lat="43.7960257" lon="10.494111"><ele>104.0</ele><time>2026-04-12T09:52:42.085Z</time></trkpt><trkpt lat="43.7959433" lon="10.4940974"><ele>103.99999999999999</ele><time>2026-04-12T09:52:43.089Z</time></trkpt><trkpt lat="43.7958642" lon="10.4940742"><ele>104.0</ele><time>2026-04-12T09:52:44.085Z</time></trkpt><trkpt lat="43.795787" lon="10.4940363"><ele>104.80000000000001</ele><time>2026-04-12T09:52:45.085Z</time></trkpt><trkpt lat="43.7957057" lon="10.4939815"><ele>105.60000000000001</ele><time>2026-04-12T09:52:46.083Z</time></trkpt><trkpt lat="43.7956166" lon="10.4939149"><ele>106.4</ele><time>2026-04-12T09:52:47.083Z</time></trkpt><trkpt lat="43.7955235" lon="10.4938412"><ele>107.2</ele><time>2026-04-12T09:52:48.084Z</time></trkpt><trkpt lat="43.7954285" lon="10.4937713"><ele>108.0</ele><time>2026-04-12T09:52:49.084Z</time></trkpt><trkpt lat="43.7953355" lon="10.4937054"><ele>108.0</ele><time>2026-04-12T09:52:50.083Z</time></trkpt><trkpt lat="43.7952478" lon="10.4936405"><ele>108.00000000000001</ele><time>2026-04-12T09:52:51.083Z</time></trkpt><trkpt lat="43.7951552" lon="10.4935673"><ele>108.00000000000001</ele><time>2026-04-12T09:52:52.082Z</time></trkpt><trkpt lat="43.7950532" lon="10.4934824"><ele>108.0</ele><time>2026-04-12T09:52:53.087Z</time></trkpt><trkpt lat="43.7949479" lon="10.4933927"><ele>108.0</ele><time>2026-04-12T09:52:54.083Z</time></trkpt><trkpt lat="43.7948475" lon="10.4933148"><ele>111.0</ele><time>2026-04-12T09:52:55.082Z</time></trkpt><trkpt lat="43.794753" lon="10.4932462"><ele>114.00000000000001</ele><time>2026-04-12T09:52:56.083Z</time></trkpt><trkpt lat="43.7946571" lon="10.4931934"><ele>117.00000000000001</ele><time>2026-04-12T09:52:57.084Z</time></trkpt><trkpt lat="43.7945583" lon="10.4931589"><ele>120.0</ele><time>2026-04-12T09:52:58.084Z</time></trkpt><trkpt lat="43.794456" lon="10.4931365"><ele>123.0</ele><time>2026-04-12T09:52:59.084Z</time></trkpt><trkpt lat="43.7943514" lon="10.493117"><ele>123.2</ele><time>2026-04-12T09:53:00.085Z</time></trkpt><trkpt lat="43.7942553" lon="10.4930943"><ele>123.4</ele><time>2026-04-12T09:53:01.085Z</time></trkpt><trkpt lat="43.794163" lon="10.4930707"><ele>123.60000000000001</ele><time>2026-04-12T09:53:02.083Z</time></trkpt><trkpt lat="43.7940754" lon="10.4930437"><ele>123.80000000000001</ele><time>2026-04-12T09:53:03.087Z</time></trkpt><trkpt lat="43.7939892" lon="10.4930127"><ele>124.0</ele><time>2026-04-12T09:53:04.085Z</time></trkpt><trkpt lat="43.7938985" lon="10.4929837"><ele>124.0</ele><time>2026-04-12T09:53:05.075Z</time></trkpt><trkpt lat="43.793802" lon="10.492961"><ele>124.0</ele><time>2026-04-12T09:53:06.085Z</time></trkpt><trkpt lat="43.7936957" lon="10.4929424"><ele>124.0</ele><time>2026-04-12T09:53:07.086Z</time></trkpt><trkpt lat="43.7935872" lon="10.4929175"><ele>124.0</ele><time>2026-04-12T09:53:08.086Z</time></trkpt><trkpt lat="43.7934839" lon="10.4928819"><ele>124.0</ele><time>2026-04-12T09:53:09.087Z</time></trkpt><trkpt lat="43.7933836" lon="10.4928357"><ele>124.2</ele><time>2026-04-12T09:53:10.086Z</time></trkpt><trkpt lat="43.7932829" lon="10.4927961"><ele>124.4</ele><time>2026-04-12T09:53:11.084Z</time></trkpt><trkpt lat="43.793183" lon="10.4927603"><ele>124.6</ele><time>2026-04-12T09:53:12.084Z</time></trkpt><trkpt lat="43.7930801" lon="10.4927381"><ele>124.8</ele><time>2026-04-12T09:53:13.087Z</time></trkpt><trkpt lat="43.7929771" lon="10.4927269"><ele>125.0</ele><time>2026-04-12T09:53:14.084Z</time></trkpt><trkpt lat="43.7928809" lon="10.4927213"><ele>124.99999999999999</ele><time>2026-04-12T09:53:15.085Z</time></trkpt><trkpt lat="43.7927954" lon="10.4927153"><ele>125.0</ele><time>2026-04-12T09:53:16.087Z</time></trkpt><trkpt lat="43.7927171" lon="10.4926968"><ele>125.0</ele><time>2026-04-12T09:53:17.084Z</time></trkpt><trkpt lat="43.7926384" lon="10.4926596"><ele>125.0</ele><time>2026-04-12T09:53:18.084Z</time></trkpt><trkpt lat="43.7925625" lon="10.4926014"><ele>124.99999999999999</ele><time>2026-04-12T09:53:19.084Z</time></trkpt><trkpt lat="43.7924927" lon="10.4925329"><ele>125.0</ele><time>2026-04-12T09:53:20.084Z</time></trkpt><trkpt lat="43.7924356" lon="10.4924609"><ele>126.16666666666666</ele><time>2026-04-12T09:53:21.084Z</time></trkpt><trkpt lat="43.7923855" lon="10.4923894"><ele>127.33333333333333</ele><time>2026-04-12T09:53:22.084Z</time></trkpt><trkpt lat="43.7923302" lon="10.4923245"><ele>128.5</ele><time>2026-04-12T09:53:23.085Z</time></trkpt><trkpt lat="43.792265" lon="10.4922787"><ele>129.66666666666666</ele><time>2026-04-12T09:53:24.084Z</time></trkpt><trkpt lat="43.7921863" lon="10.4922501"><ele>130.83333333333334</ele><time>2026-04-12T09:53:25.085Z</time></trkpt><trkpt lat="43.7920928" lon="10.4922336"><ele>132.0</ele><time>2026-04-12T09:53:26.084Z</time></trkpt><trkpt lat="43.7919954" lon="10.4922263"><ele>132.0</ele><time>2026-04-12T09:53:27.085Z</time></trkpt><trkpt lat="43.7919038" lon="10.4922329"><ele>132.0</ele><time>2026-04-12T09:53:28.084Z</time></trkpt><trkpt lat="43.7918248" lon="10.4922435"><ele>132.0</ele><time>2026-04-12T09:53:29.083Z</time></trkpt><trkpt lat="43.7917574" lon="10.4922488"><ele>132.0</ele><time>2026-04-12T09:53:30.082Z</time></trkpt><trkpt lat="43.7916925" lon="10.4922316"><ele>132.0</ele><time>2026-04-12T09:53:31.086Z</time></trkpt><trkpt lat="43.7916222" lon="10.4921814"><ele>132.0</ele><time>2026-04-12T09:53:32.085Z</time></trkpt><trkpt lat="43.7915531" lon="10.4921076"><ele>136.4</ele><time>2026-04-12T09:53:33.09Z</time></trkpt><trkpt lat="43.7914814" lon="10.4920203"><ele>140.79999999999998</ele><time>2026-04-12T09:53:34.085Z</time></trkpt><trkpt lat="43.7914023" lon="10.4919291"><ele>145.2</ele><time>2026-04-12T09:53:35.085Z</time></trkpt><trkpt lat="43.791321" lon="10.4918364"><ele>149.6</ele><time>2026-04-12T09:53:36.085Z</time></trkpt><trkpt lat="43.7912392" lon="10.4917534"><ele>154.0</ele><time>2026-04-12T09:53:37.086Z</time></trkpt><trkpt lat="43.7911573" lon="10.4916921"><ele>154.0</ele><time>2026-04-12T09:53:38.085Z</time></trkpt><trkpt lat="43.7910761" lon="10.4916526"><ele>154.0</ele><time>2026-04-12T09:53:39.085Z</time></trkpt><trkpt lat="43.7909877" lon="10.4916311"><ele>154.0</ele><time>2026-04-12T09:53:40.086Z</time></trkpt><trkpt lat="43.7908936" lon="10.491625"><ele>154.0</ele><time>2026-04-12T09:53:41.085Z</time></trkpt><trkpt lat="43.7908063" lon="10.4916191"><ele>154.0</ele><time>2026-04-12T09:53:42.082Z</time></trkpt><trkpt lat="43.7907308" lon="10.4916081"><ele>154.0</ele><time>2026-04-12T09:53:43.085Z</time></trkpt><trkpt lat="43.7906633" lon="10.4915787"><ele>153.57142857142858</ele><time>2026-04-12T09:53:44.083Z</time></trkpt><trkpt lat="43.7905966" lon="10.4915255"><ele>153.14285714285714</ele><time>2026-04-12T09:53:45.084Z</time></trkpt><trkpt lat="43.7905296" lon="10.4914674"><ele>152.71428571428572</ele><time>2026-04-12T09:53:46.083Z</time></trkpt><trkpt lat="43.7904679" lon="10.4914266"><ele>152.28571428571428</ele><time>2026-04-12T09:53:47.085Z</time></trkpt><trkpt lat="43.7904011" lon="10.4914071"><ele>151.85714285714286</ele><time>2026-04-12T09:53:48.086Z</time></trkpt><trkpt lat="43.7903298" lon="10.4914045"><ele>151.42857142857144</ele><time>2026-04-12T09:53:49.085Z</time></trkpt><trkpt lat="43.7902551" lon="10.4914065"><ele>151.0</ele><time>2026-04-12T09:53:50.084Z</time></trkpt><trkpt lat="43.7901868" lon="10.4914051"><ele>150.16666666666669</ele><time>2026-04-12T09:53:51.083Z</time></trkpt><trkpt lat="43.7901208" lon="10.4913912"><ele>149.33333333333334</ele><time>2026-04-12T09:53:52.087Z</time></trkpt><trkpt lat="43.790051" lon="10.4913534"><ele>148.5</ele><time>2026-04-12T09:53:53.085Z</time></trkpt><trkpt lat="43.7899776" lon="10.4912993"><ele>147.66666666666666</ele><time>2026-04-12T09:53:54.084Z</time></trkpt><trkpt lat="43.7899046" lon="10.4912308"><ele>146.83333333333331</ele><time>2026-04-12T09:53:55.084Z</time></trkpt><trkpt lat="43.7898341" lon="10.4911482"><ele>146.0</ele><time>2026-04-12T09:53:56.084Z</time></trkpt><trkpt lat="43.7897717" lon="10.49106"><ele>148.6</ele><time>2026-04-12T09:53:57.083Z</time></trkpt><trkpt lat="43.7897147" lon="10.4909742"><ele>151.2</ele><time>2026-04-12T09:53:58.084Z</time></trkpt><trkpt lat="43.7896605" lon="10.4908945"><ele>153.8</ele><time>2026-04-12T09:53:59.084Z</time></trkpt><trkpt lat="43.7896092" lon="10.4908263"><ele>156.4</ele><time>2026-04-12T09:54:00.083Z</time></trkpt><trkpt lat="43.7895122" lon="10.4907428"><ele>159.0</ele><time>2026-04-12T09:54:02.085Z</time></trkpt><trkpt lat="43.789405" lon="10.4907405"><ele>160.0</ele><time>2026-04-12T09:54:04.086Z</time></trkpt><trkpt lat="43.789339" lon="10.4907451"><ele>161.0</ele><time>2026-04-12T09:54:05.086Z</time></trkpt><trkpt lat="43.7892709" lon="10.4907336"><ele>162.0</ele><time>2026-04-12T09:54:06.087Z</time></trkpt><trkpt lat="43.7892035" lon="10.4907102"><ele>163.0</ele><time>2026-04-12T09:54:07.086Z</time></trkpt><trkpt lat="43.7891357" lon="10.4906813"><ele>164.0</ele><time>2026-04-12T09:54:08.086Z</time></trkpt><trkpt lat="43.7890647" lon="10.4906591"><ele>165.0</ele><time>2026-04-12T09:54:09.087Z</time></trkpt><trkpt lat="43.7889852" lon="10.490649"><ele>166.0</ele><time>2026-04-12T09:54:10.087Z</time></trkpt><trkpt lat="43.7888949" lon="10.4906498"><ele>166.0</ele><time>2026-04-12T09:54:11.085Z</time></trkpt><trkpt lat="43.7887944" lon="10.4906572"><ele>166.0</ele><time>2026-04-12T09:54:12.085Z</time></trkpt><trkpt lat="43.7886883" lon="10.4906793"><ele>166.0</ele><time>2026-04-12T09:54:13.086Z</time></trkpt><trkpt lat="43.7885826" lon="10.4907135"><ele>166.0</ele><time>2026-04-12T09:54:14.085Z</time></trkpt><trkpt lat="43.7884778" lon="10.490743"><ele>166.0</ele><time>2026-04-12T09:54:15.084Z</time></trkpt><trkpt lat="43.7883765" lon="10.4907705"><ele>168.0</ele><time>2026-04-12T09:54:16.085Z</time></trkpt><trkpt lat="43.7882777" lon="10.4908011"><ele>170.0</ele><time>2026-04-12T09:54:17.086Z</time></trkpt><trkpt lat="43.7881821" lon="10.4908291"><ele>172.0</ele><time>2026-04-12T09:54:18.082Z</time></trkpt><trkpt lat="43.7880923" lon="10.4908557"><ele>174.0</ele><time>2026-04-12T09:54:19.086Z</time></trkpt><trkpt lat="43.7880194" lon="10.4908781"><ele>176.0</ele><time>2026-04-12T09:54:20.084Z</time></trkpt><trkpt lat="43.7879173" lon="10.4908816"><ele>176.0</ele><time>2026-04-12T09:54:22.085Z</time></trkpt><trkpt lat="43.7878647" lon="10.49081"><ele>176.0</ele><time>2026-04-12T09:54:24.084Z</time></trkpt><trkpt lat="43.7878527" lon="10.4906616"><ele>176.0</ele><time>2026-04-12T09:54:26.084Z</time></trkpt><trkpt lat="43.7878551" lon="10.4905459"><ele>176.0</ele><time>2026-04-12T09:54:27.082Z</time></trkpt><trkpt lat="43.7878551" lon="10.4904055"><ele>176.0</ele><time>2026-04-12T09:54:28.085Z</time></trkpt><trkpt lat="43.787842" lon="10.490241"><ele>174.5</ele><time>2026-04-12T09:54:29.085Z</time></trkpt><trkpt lat="43.7878201" lon="10.4900764"><ele>173.0</ele><time>2026-04-12T09:54:30.084Z</time></trkpt><trkpt lat="43.7877881" lon="10.4899133"><ele>171.5</ele><time>2026-04-12T09:54:31.084Z</time></trkpt><trkpt lat="43.7877473" lon="10.4897701"><ele>170.0</ele><time>2026-04-12T09:54:32.085Z</time></trkpt><trkpt lat="43.7876938" lon="10.4896525"><ele>174.0</ele><time>2026-04-12T09:54:33.085Z</time></trkpt><trkpt lat="43.7876318" lon="10.4895547"><ele>178.0</ele><time>2026-04-12T09:54:34.083Z</time></trkpt><trkpt lat="43.7875608" lon="10.4894728"><ele>182.0</ele><time>2026-04-12T09:54:35.084Z</time></trkpt><trkpt lat="43.7874821" lon="10.4894063"><ele>186.0</ele><time>2026-04-12T09:54:36.086Z</time></trkpt><trkpt lat="43.7874283" lon="10.4893466"><ele>190.00000000000003</ele><time>2026-04-12T09:54:37.084Z</time></trkpt><trkpt lat="43.7873957" lon="10.489228"><ele>194.0</ele><time>2026-04-12T09:54:39.081Z</time></trkpt><trkpt lat="43.7874334" lon="10.4890542"><ele>194.0</ele><time>2026-04-12T09:54:41.082Z</time></trkpt><trkpt lat="43.7874566" lon="10.4889298"><ele>194.0</ele><time>2026-04-12T09:54:42.081Z</time></trkpt><trkpt lat="43.787462" lon="10.4887962"><ele>194.0</ele><time>2026-04-12T09:54:43.081Z</time></trkpt><trkpt lat="43.7874496" lon="10.4886653"><ele>194.0</ele><time>2026-04-12T09:54:44.081Z</time></trkpt><trkpt lat="43.7874225" lon="10.4885419"><ele>194.0</ele><time>2026-04-12T09:54:45.081Z</time></trkpt><trkpt lat="43.7873845" lon="10.4884353"><ele>193.16666666666669</ele><time>2026-04-12T09:54:46.082Z</time></trkpt><trkpt lat="43.7873395" lon="10.488348"><ele>192.33333333333334</ele><time>2026-04-12T09:54:47.083Z</time></trkpt><trkpt lat="43.7872899" lon="10.4882738"><ele>191.5</ele><time>2026-04-12T09:54:48.081Z</time></trkpt><trkpt lat="43.7872325" lon="10.4882126"><ele>190.66666666666669</ele><time>2026-04-12T09:54:49.083Z</time></trkpt><trkpt lat="43.7871583" lon="10.4881542"><ele>189.83333333333334</ele><time>2026-04-12T09:54:50.082Z</time></trkpt><trkpt lat="43.787069" lon="10.4880983"><ele>189.0</ele><time>2026-04-12T09:54:51.084Z</time></trkpt><trkpt lat="43.7869785" lon="10.4880329"><ele>189.0</ele><time>2026-04-12T09:54:52.082Z</time></trkpt><trkpt lat="43.7868968" lon="10.4879587"><ele>189.0</ele><time>2026-04-12T09:54:53.081Z</time></trkpt><trkpt lat="43.7868224" lon="10.4878785"><ele>189.0</ele><time>2026-04-12T09:54:54.082Z</time></trkpt><trkpt lat="43.7867571" lon="10.4877938"><ele>189.0</ele><time>2026-04-12T09:54:55.081Z</time></trkpt><trkpt lat="43.7867055" lon="10.4876983"><ele>189.0</ele><time>2026-04-12T09:54:56.082Z</time></trkpt><trkpt lat="43.7866626" lon="10.4875927"><ele>191.66666666666666</ele><time>2026-04-12T09:54:57.083Z</time></trkpt><trkpt lat="43.7866129" lon="10.4874968"><ele>194.33333333333331</ele><time>2026-04-12T09:54:58.08Z</time></trkpt><trkpt lat="43.786549" lon="10.4874219"><ele>197.0</ele><time>2026-04-12T09:54:59.08Z</time></trkpt><trkpt lat="43.7864726" lon="10.4873669"><ele>199.66666666666666</ele><time>2026-04-12T09:55:00.08Z</time></trkpt><trkpt lat="43.7864054" lon="10.4873333"><ele>202.33333333333331</ele><time>2026-04-12T09:55:01.081Z</time></trkpt><trkpt lat="43.7863297" lon="10.4873087"><ele>205.0</ele><time>2026-04-12T09:55:04.08Z</time></trkpt><trkpt lat="43.7862673" lon="10.4872669"><ele>204.99999999999997</ele><time>2026-04-12T09:55:07.077Z</time></trkpt><trkpt lat="43.786209" lon="10.4872307"><ele>205.0</ele><time>2026-04-12T09:55:09.083Z</time></trkpt><trkpt lat="43.7861242" lon="10.4871545"><ele>205.0</ele><time>2026-04-12T09:55:12.08Z</time></trkpt><trkpt lat="43.7860624" lon="10.4871102"><ele>205.0</ele><time>2026-04-12T09:55:14.082Z</time></trkpt><trkpt lat="43.7859835" lon="10.487067"><ele>204.99999999999997</ele><time>2026-04-12T09:55:16.079Z</time></trkpt><trkpt lat="43.7858769" lon="10.4870168"><ele>205.0</ele><time>2026-04-12T09:55:18.079Z</time></trkpt><trkpt lat="43.7858161" lon="10.4869937"><ele>205.2857142857143</ele><time>2026-04-12T09:55:19.08Z</time></trkpt><trkpt lat="43.785755" lon="10.4869655"><ele>205.57142857142856</ele><time>2026-04-12T09:55:20.08Z</time></trkpt><trkpt lat="43.7856935" lon="10.4869241"><ele>205.85714285714286</ele><time>2026-04-12T09:55:21.079Z</time></trkpt><trkpt lat="43.785629" lon="10.4868634"><ele>206.14285714285717</ele><time>2026-04-12T09:55:22.08Z</time></trkpt><trkpt lat="43.785571" lon="10.4867904"><ele>206.42857142857144</ele><time>2026-04-12T09:55:23.077Z</time></trkpt><trkpt lat="43.785525" lon="10.4867208"><ele>206.71428571428572</ele><time>2026-04-12T09:55:24.082Z</time></trkpt><trkpt lat="43.7854521" lon="10.4866569"><ele>207.0</ele><time>2026-04-12T09:55:26.079Z</time></trkpt><trkpt lat="43.785392" lon="10.486702"><ele>207.0</ele><time>2026-04-12T09:55:28.085Z</time></trkpt><trkpt lat="43.7854318" lon="10.4868123"><ele>207.0</ele><time>2026-04-12T09:55:30.081Z</time></trkpt><trkpt lat="43.7854763" lon="10.4868894"><ele>207.0</ele><time>2026-04-12T09:55:31.077Z</time></trkpt><trkpt lat="43.7855262" lon="10.4869778"><ele>207.0</ele><time>2026-04-12T09:55:32.082Z</time></trkpt><trkpt lat="43.7855731" lon="10.4870813"><ele>207.0</ele><time>2026-04-12T09:55:33.083Z</time></trkpt><trkpt lat="43.7856111" lon="10.4871912"><ele>207.0</ele><time>2026-04-12T09:55:34.082Z</time></trkpt><trkpt lat="43.7856447" lon="10.487304"><ele>210.16666666666666</ele><time>2026-04-12T09:55:35.082Z</time></trkpt><trkpt lat="43.7856787" lon="10.4874161"><ele>213.33333333333331</ele><time>2026-04-12T09:55:36.082Z</time></trkpt><trkpt lat="43.7857098" lon="10.4875299"><ele>216.5</ele><time>2026-04-12T09:55:37.083Z</time></trkpt><trkpt lat="43.7857359" lon="10.4876421"><ele>219.66666666666666</ele><time>2026-04-12T09:55:38.082Z</time></trkpt><trkpt lat="43.7857566" lon="10.4877509"><ele>222.83333333333331</ele><time>2026-04-12T09:55:39.086Z</time></trkpt><trkpt lat="43.7857702" lon="10.4878677"><ele>226.0</ele><time>2026-04-12T09:55:40.082Z</time></trkpt><trkpt lat="43.7857779" lon="10.4879964"><ele>228.60000000000002</ele><time>2026-04-12T09:55:41.081Z</time></trkpt><trkpt lat="43.7857798" lon="10.4881245"><ele>231.20000000000002</ele><time>2026-04-12T09:55:42.081Z</time></trkpt><trkpt lat="43.7857786" lon="10.4882396"><ele>233.79999999999998</ele><time>2026-04-12T09:55:43.08Z</time></trkpt><trkpt lat="43.7857847" lon="10.4883346"><ele>236.39999999999998</ele><time>2026-04-12T09:55:44.082Z</time></trkpt><trkpt lat="43.7858387" lon="10.4884879"><ele>239.0</ele><time>2026-04-12T09:55:46.08Z</time></trkpt><trkpt lat="43.7859042" lon="10.4886224"><ele>241.0</ele><time>2026-04-12T09:55:48.08Z</time></trkpt><trkpt lat="43.7859085" lon="10.4887827"><ele>242.99999999999997</ele><time>2026-04-12T09:55:50.083Z</time></trkpt><trkpt lat="43.7858889" lon="10.4888964"><ele>244.99999999999997</ele><time>2026-04-12T09:55:51.082Z</time></trkpt><trkpt lat="43.7858724" lon="10.4890124"><ele>247.0</ele><time>2026-04-12T09:55:52.083Z</time></trkpt><trkpt lat="43.7858694" lon="10.4891396"><ele>249.0</ele><time>2026-04-12T09:55:53.08Z</time></trkpt><trkpt lat="43.7858734" lon="10.4892484"><ele>249.0</ele><time>2026-04-12T09:55:54.081Z</time></trkpt><trkpt lat="43.7858749" lon="10.4893525"><ele>249.0</ele><time>2026-04-12T09:55:55.081Z</time></trkpt><trkpt lat="43.7858663" lon="10.4894598"><ele>249.0</ele><time>2026-04-12T09:55:56.082Z</time></trkpt><trkpt lat="43.7858519" lon="10.4895746"><ele>249.0</ele><time>2026-04-12T09:55:57.082Z</time></trkpt><trkpt lat="43.7858309" lon="10.4896964"><ele>249.0</ele><time>2026-04-12T09:55:58.08Z</time></trkpt><trkpt lat="43.7858137" lon="10.4898177"><ele>249.0</ele><time>2026-04-12T09:55:59.082Z</time></trkpt><trkpt lat="43.7858115" lon="10.4899262"><ele>250.0</ele><time>2026-04-12T09:56:00.082Z</time></trkpt><trkpt lat="43.7858304" lon="10.4900332"><ele>251.0</ele><time>2026-04-12T09:56:01.083Z</time></trkpt><trkpt lat="43.7858594" lon="10.4901285"><ele>252.0</ele><time>2026-04-12T09:56:02.083Z</time></trkpt><trkpt lat="43.7859016" lon="10.4902774"><ele>253.0</ele><time>2026-04-12T09:56:04.081Z</time></trkpt><trkpt lat="43.7858862" lon="10.4903927"><ele>254.0</ele><time>2026-04-12T09:56:07.086Z</time></trkpt><trkpt lat="43.7858169" lon="10.4904042"><ele>255.0</ele><time>2026-04-12T09:56:09.086Z</time></trkpt><trkpt lat="43.7857753" lon="10.4902831"><ele>255.0</ele><time>2026-04-12T09:56:11.082Z</time></trkpt><trkpt lat="43.7857612" lon="10.490186"><ele>255.0</ele><time>2026-04-12T09:56:12.078Z</time></trkpt><trkpt lat="43.7857339" lon="10.4901051"><ele>255.0</ele><time>2026-04-12T09:56:13.082Z</time></trkpt><trkpt lat="43.7856869" lon="10.4900209"><ele>255.0</ele><time>2026-04-12T09:56:14.081Z</time></trkpt><trkpt lat="43.7856354" lon="10.4899272"><ele>255.0</ele><time>2026-04-12T09:56:15.082Z</time></trkpt><trkpt lat="43.7855908" lon="10.489821"><ele>255.0</ele><time>2026-04-12T09:56:16.083Z</time></trkpt><trkpt lat="43.7855456" lon="10.4897156"><ele>255.0</ele><time>2026-04-12T09:56:17.076Z</time></trkpt><trkpt lat="43.7854882" lon="10.4896139"><ele>255.0</ele><time>2026-04-12T09:56:18.083Z</time></trkpt><trkpt lat="43.7854299" lon="10.4895287"><ele>255.0</ele><time>2026-04-12T09:56:19.082Z</time></trkpt><trkpt lat="43.7853737" lon="10.4894547"><ele>255.0</ele><time>2026-04-12T09:56:20.085Z</time></trkpt><trkpt lat="43.7853136" lon="10.4893853"><ele>255.0</ele><time>2026-04-12T09:56:21.081Z</time></trkpt><trkpt lat="43.785249" lon="10.4893189"><ele>255.0</ele><time>2026-04-12T09:56:22.082Z</time></trkpt><trkpt lat="43.7851799" lon="10.489257"><ele>258.8333333333333</ele><time>2026-04-12T09:56:23.081Z</time></trkpt><trkpt lat="43.7851103" lon="10.4891993"><ele>262.6666666666667</ele><time>2026-04-12T09:56:24.082Z</time></trkpt><trkpt lat="43.7850417" lon="10.4891508"><ele>266.5</ele><time>2026-04-12T09:56:25.082Z</time></trkpt><trkpt lat="43.7849762" lon="10.4891091"><ele>270.33333333333337</ele><time>2026-04-12T09:56:26.082Z</time></trkpt><trkpt lat="43.7848761" lon="10.4890929"><ele>274.1666666666667</ele><time>2026-04-12T09:56:28.082Z</time></trkpt><trkpt lat="43.7848492" lon="10.4891997"><ele>278.0</ele><time>2026-04-12T09:56:30.084Z</time></trkpt><trkpt lat="43.784921" lon="10.4893002"><ele>278.0</ele><time>2026-04-12T09:56:32.085Z</time></trkpt><trkpt lat="43.7849751" lon="10.4893475"><ele>278.0</ele><time>2026-04-12T09:56:33.084Z</time></trkpt><trkpt lat="43.7850252" lon="10.4894137"><ele>278.0</ele><time>2026-04-12T09:56:34.084Z</time></trkpt><trkpt lat="43.7850605" lon="10.4895139"><ele>278.0</ele><time>2026-04-12T09:56:35.084Z</time></trkpt><trkpt lat="43.7850952" lon="10.4896383"><ele>278.0</ele><time>2026-04-12T09:56:36.083Z</time></trkpt><trkpt lat="43.7851288" lon="10.4897597"><ele>278.0</ele><time>2026-04-12T09:56:37.083Z</time></trkpt><trkpt lat="43.7851554" lon="10.4898617"><ele>280.2</ele><time>2026-04-12T09:56:38.082Z</time></trkpt><trkpt lat="43.7851908" lon="10.4899834"><ele>282.4</ele><time>2026-04-12T09:56:40.083Z</time></trkpt><trkpt lat="43.7851338" lon="10.4900258"><ele>284.59999999999997</ele><time>2026-04-12T09:56:43.082Z</time></trkpt><trkpt lat="43.7850676" lon="10.4899114"><ele>286.8</ele><time>2026-04-12T09:56:46.075Z</time></trkpt><trkpt lat="43.7849929" lon="10.4897828"><ele>289.0</ele><time>2026-04-12T09:56:48.083Z</time></trkpt><trkpt lat="43.7849266" lon="10.4897272"><ele>289.0</ele><time>2026-04-12T09:56:49.086Z</time></trkpt><trkpt lat="43.784858" lon="10.4896791"><ele>289.0</ele><time>2026-04-12T09:56:50.082Z</time></trkpt><trkpt lat="43.7847972" lon="10.4896405"><ele>289.0</ele><time>2026-04-12T09:56:51.082Z</time></trkpt><trkpt lat="43.7846962" lon="10.4895914"><ele>289.0</ele><time>2026-04-12T09:56:53.084Z</time></trkpt><trkpt lat="43.7846187" lon="10.4895625"><ele>289.0</ele><time>2026-04-12T09:56:55.082Z</time></trkpt><trkpt lat="43.7845381" lon="10.4895359"><ele>289.0</ele><time>2026-04-12T09:56:57.077Z</time></trkpt><trkpt lat="43.784459" lon="10.4895093"><ele>287.16666666666663</ele><time>2026-04-12T09:56:59.082Z</time></trkpt><trkpt lat="43.7843713" lon="10.4894863"><ele>285.3333333333333</ele><time>2026-04-12T09:57:01.084Z</time></trkpt><trkpt lat="43.7842856" lon="10.4894703"><ele>283.5</ele><time>2026-04-12T09:57:03.085Z</time></trkpt><trkpt lat="43.7841725" lon="10.4894534"><ele>281.6666666666667</ele><time>2026-04-12T09:57:05.084Z</time></trkpt><trkpt lat="43.7840995" lon="10.4894351"><ele>279.83333333333337</ele><time>2026-04-12T09:57:06.083Z</time></trkpt><trkpt lat="43.7840191" lon="10.4894128"><ele>278.0</ele><time>2026-04-12T09:57:07.086Z</time></trkpt><trkpt lat="43.7839356" lon="10.4893934"><ele>282.6666666666667</ele><time>2026-04-12T09:57:08.084Z</time></trkpt><trkpt lat="43.7838548" lon="10.4893774"><ele>287.33333333333337</ele><time>2026-04-12T09:57:09.082Z</time></trkpt><trkpt lat="43.7837785" lon="10.4893527"><ele>292.0</ele><time>2026-04-12T09:57:10.084Z</time></trkpt><trkpt lat="43.7837183" lon="10.4893205"><ele>296.6666666666667</ele><time>2026-04-12T09:57:11.081Z</time></trkpt><trkpt lat="43.783649" lon="10.4892246"><ele>301.3333333333333</ele><time>2026-04-12T09:57:13.083Z</time></trkpt><trkpt lat="43.7835811" lon="10.4891841"><ele>306.0</ele><time>2026-04-12T09:57:15.084Z</time></trkpt><trkpt lat="43.7835407" lon="10.4892659"><ele>306.0</ele><time>2026-04-12T09:57:17.087Z</time></trkpt><trkpt lat="43.7835871" lon="10.4893677"><ele>306.0</ele><time>2026-04-12T09:57:19.083Z</time></trkpt><trkpt lat="43.783644" lon="10.4894696"><ele>306.0</ele><time>2026-04-12T09:57:21.084Z</time></trkpt><trkpt lat="43.7836513" lon="10.4895937"><ele>306.0</ele><time>2026-04-12T09:57:23.084Z</time></trkpt><trkpt lat="43.7835771" lon="10.489684"><ele>306.0</ele><time>2026-04-12T09:57:25.084Z</time></trkpt><trkpt lat="43.7835152" lon="10.4897064"><ele>306.0</ele><time>2026-04-12T09:57:26.089Z</time></trkpt><trkpt lat="43.7834351" lon="10.4897143"><ele>307.40000000000003</ele><time>2026-04-12T09:57:27.083Z</time></trkpt><trkpt lat="43.7833451" lon="10.4897012"><ele>308.8</ele><time>2026-04-12T09:57:28.083Z</time></trkpt><trkpt lat="43.783254" lon="10.4896658"><ele>310.20000000000005</ele><time>2026-04-12T09:57:29.085Z</time></trkpt><trkpt lat="43.7831673" lon="10.4896089"><ele>311.6</ele><time>2026-04-12T09:57:30.084Z</time></trkpt><trkpt lat="43.7830903" lon="10.4895415"><ele>313.0</ele><time>2026-04-12T09:57:31.083Z</time></trkpt><trkpt lat="43.7830154" lon="10.4894799"><ele>314.0</ele><time>2026-04-12T09:57:32.088Z</time></trkpt><trkpt lat="43.7829391" lon="10.4894354"><ele>315.0</ele><time>2026-04-12T09:57:33.088Z</time></trkpt><trkpt lat="43.7828583" lon="10.4894164"><ele>316.0</ele><time>2026-04-12T09:57:34.084Z</time></trkpt><trkpt lat="43.7827702" lon="10.4894197"><ele>317.0</ele><time>2026-04-12T09:57:35.084Z</time></trkpt><trkpt lat="43.7826813" lon="10.4894386"><ele>318.0</ele><time>2026-04-12T09:57:36.084Z</time></trkpt><trkpt lat="43.7825943" lon="10.4894597"><ele>319.0</ele><time>2026-04-12T09:57:37.085Z</time></trkpt><trkpt lat="43.7825121" lon="10.4894626"><ele>319.16666666666663</ele><time>2026-04-12T09:57:38.088Z</time></trkpt><trkpt lat="43.7824343" lon="10.4894429"><ele>319.3333333333333</ele><time>2026-04-12T09:57:39.086Z</time></trkpt><trkpt lat="43.7823638" lon="10.4894114"><ele>319.5</ele><time>2026-04-12T09:57:40.085Z</time></trkpt><trkpt lat="43.7822953" lon="10.4893881"><ele>319.6666666666667</ele><time>2026-04-12T09:57:41.085Z</time></trkpt><trkpt lat="43.7822213" lon="10.4893829"><ele>319.83333333333337</ele><time>2026-04-12T09:57:42.086Z</time></trkpt><trkpt lat="43.7821377" lon="10.4893947"><ele>320.0</ele><time>2026-04-12T09:57:43.085Z</time></trkpt><trkpt lat="43.7820497" lon="10.4894162"><ele>320.0</ele><time>2026-04-12T09:57:44.086Z</time></trkpt><trkpt lat="43.7819712" lon="10.4894414"><ele>320.0</ele><time>2026-04-12T09:57:45.085Z</time></trkpt><trkpt lat="43.7818969" lon="10.4894772"><ele>320.0</ele><time>2026-04-12T09:57:46.086Z</time></trkpt><trkpt lat="43.7818198" lon="10.4895222"><ele>320.0</ele><time>2026-04-12T09:57:47.083Z</time></trkpt><trkpt lat="43.7817408" lon="10.4895672"><ele>320.0</ele><time>2026-04-12T09:57:48.084Z</time></trkpt><trkpt lat="43.781671" lon="10.4896136"><ele>320.0</ele><time>2026-04-12T09:57:49.085Z</time></trkpt><trkpt lat="43.7816074" lon="10.4896581"><ele>319.5</ele><time>2026-04-12T09:57:50.08Z</time></trkpt><trkpt lat="43.7815488" lon="10.4897049"><ele>319.0</ele><time>2026-04-12T09:57:51.083Z</time></trkpt><trkpt lat="43.7814919" lon="10.489747"><ele>318.5</ele><time>2026-04-12T09:57:52.084Z</time></trkpt><trkpt lat="43.7813819" lon="10.4898036"><ele>318.0</ele><time>2026-04-12T09:57:54.084Z</time></trkpt><trkpt lat="43.7812697" lon="10.4897707"><ele>317.5</ele><time>2026-04-12T09:57:56.082Z</time></trkpt><trkpt lat="43.7812094" lon="10.4897175"><ele>317.0</ele><time>2026-04-12T09:57:57.084Z</time></trkpt><trkpt lat="43.7811477" lon="10.4896468"><ele>318.83333333333337</ele><time>2026-04-12T09:57:58.083Z</time></trkpt><trkpt lat="43.7810842" lon="10.4895704"><ele>320.6666666666667</ele><time>2026-04-12T09:57:59.085Z</time></trkpt><trkpt lat="43.7810207" lon="10.489496"><ele>322.5</ele><time>2026-04-12T09:58:00.084Z</time></trkpt><trkpt lat="43.7809605" lon="10.4894136"><ele>324.3333333333333</ele><time>2026-04-12T09:58:01.084Z</time></trkpt><trkpt lat="43.7809145" lon="10.4893214"><ele>326.16666666666663</ele><time>2026-04-12T09:58:02.084Z</time></trkpt><trkpt lat="43.780876" lon="10.4892214"><ele>328.0</ele><time>2026-04-12T09:58:03.084Z</time></trkpt><trkpt lat="43.7808301" lon="10.4891286"><ele>330.0</ele><time>2026-04-12T09:58:04.082Z</time></trkpt><trkpt lat="43.7807694" lon="10.4890428"><ele>332.0</ele><time>2026-04-12T09:58:05.083Z</time></trkpt><trkpt lat="43.7807012" lon="10.4889707"><ele>334.0</ele><time>2026-04-12T09:58:06.085Z</time></trkpt><trkpt lat="43.7806407" lon="10.4889132"><ele>336.0</ele><time>2026-04-12T09:58:07.084Z</time></trkpt><trkpt lat="43.7805423" lon="10.488878"><ele>338.0</ele><time>2026-04-12T09:58:09.086Z</time></trkpt><trkpt lat="43.7804428" lon="10.4888812"><ele>340.0</ele><time>2026-04-12T09:58:11.084Z</time></trkpt><trkpt lat="43.7803512" lon="10.4888298"><ele>340.0</ele><time>2026-04-12T09:58:13.082Z</time></trkpt><trkpt lat="43.7802959" lon="10.488776"><ele>340.0</ele><time>2026-04-12T09:58:14.084Z</time></trkpt><trkpt lat="43.7802323" lon="10.4887127"><ele>340.0</ele><time>2026-04-12T09:58:15.081Z</time></trkpt><trkpt lat="43.7801683" lon="10.4886571"><ele>340.0</ele><time>2026-04-12T09:58:16.082Z</time></trkpt><trkpt lat="43.7801083" lon="10.4886173"><ele>340.0</ele><time>2026-04-12T09:58:17.082Z</time></trkpt><trkpt lat="43.780043" lon="10.4885944"><ele>340.0</ele><time>2026-04-12T09:58:18.081Z</time></trkpt><trkpt lat="43.7799369" lon="10.4886169"><ele>342.2</ele><time>2026-04-12T09:58:20.083Z</time></trkpt><trkpt lat="43.7798389" lon="10.4886209"><ele>344.4</ele><time>2026-04-12T09:58:22.084Z</time></trkpt><trkpt lat="43.7797728" lon="10.4885916"><ele>346.6</ele><time>2026-04-12T09:58:24.082Z</time></trkpt><trkpt lat="43.7796717" lon="10.488545"><ele>348.8</ele><time>2026-04-12T09:58:35.082Z</time></trkpt><trkpt lat="43.7795527" lon="10.4885293"><ele>351.0</ele><time>2026-04-12T09:58:37.086Z</time></trkpt><trkpt lat="43.7794509" lon="10.488502"><ele>351.0</ele><time>2026-04-12T09:58:39.082Z</time></trkpt><trkpt lat="43.7793664" lon="10.4884682"><ele>351.0</ele><time>2026-04-12T09:58:41.082Z</time></trkpt><trkpt lat="43.7792856" lon="10.4884362"><ele>351.0</ele><time>2026-04-12T09:58:43.084Z</time></trkpt><trkpt lat="43.7792016" lon="10.4884329"><ele>351.0</ele><time>2026-04-12T09:58:45.082Z</time></trkpt><trkpt lat="43.7791221" lon="10.4884447"><ele>351.0</ele><time>2026-04-12T09:58:47.084Z</time></trkpt><trkpt lat="43.7790394" lon="10.4884522"><ele>351.0</ele><time>2026-04-12T09:58:49.083Z</time></trkpt><trkpt lat="43.7789489" lon="10.4884317"><ele>352.20000000000005</ele><time>2026-04-12T09:58:51.083Z</time></trkpt><trkpt lat="43.7788601" lon="10.4884041"><ele>353.40000000000003</ele><time>2026-04-12T09:58:53.081Z</time></trkpt><trkpt lat="43.7787594" lon="10.4883819"><ele>354.6</ele><time>2026-04-12T09:58:55.084Z</time></trkpt><trkpt lat="43.7786404" lon="10.4883566"><ele>355.8</ele><time>2026-04-12T09:58:57.081Z</time></trkpt><trkpt lat="43.7785206" lon="10.4883847"><ele>357.0</ele><time>2026-04-12T09:58:59.086Z</time></trkpt><trkpt lat="43.7784547" lon="10.4884244"><ele>359.6666666666667</ele><time>2026-04-12T09:59:00.081Z</time></trkpt><trkpt lat="43.7783851" lon="10.4884622"><ele>362.3333333333333</ele><time>2026-04-12T09:59:01.082Z</time></trkpt><trkpt lat="43.7783097" lon="10.4884902"><ele>365.0</ele><time>2026-04-12T09:59:02.082Z</time></trkpt><trkpt lat="43.7782287" lon="10.4885156"><ele>367.66666666666663</ele><time>2026-04-12T09:59:03.084Z</time></trkpt><trkpt lat="43.7781487" lon="10.4885399"><ele>370.3333333333333</ele><time>2026-04-12T09:59:04.081Z</time></trkpt><trkpt lat="43.7780723" lon="10.4885497"><ele>373.0</ele><time>2026-04-12T09:59:05.084Z</time></trkpt><trkpt lat="43.7779964" lon="10.4885505"><ele>373.0</ele><time>2026-04-12T09:59:06.083Z</time></trkpt><trkpt lat="43.7779179" lon="10.4885399"><ele>373.0</ele><time>2026-04-12T09:59:07.083Z</time></trkpt><trkpt lat="43.7778402" lon="10.4885196"><ele>373.0</ele><time>2026-04-12T09:59:08.082Z</time></trkpt><trkpt lat="43.7777638" lon="10.4884863"><ele>373.0</ele><time>2026-04-12T09:59:09.082Z</time></trkpt><trkpt lat="43.7776909" lon="10.4884504"><ele>373.0</ele><time>2026-04-12T09:59:10.083Z</time></trkpt><trkpt lat="43.7776174" lon="10.4884107"><ele>373.0</ele><time>2026-04-12T09:59:11.082Z</time></trkpt><trkpt lat="43.7775449" lon="10.4883795"><ele>376.2</ele><time>2026-04-12T09:59:12.079Z</time></trkpt><trkpt lat="43.7774782" lon="10.4883738"><ele>379.4</ele><time>2026-04-12T09:59:13.082Z</time></trkpt><trkpt lat="43.7773563" lon="10.4884178"><ele>382.59999999999997</ele><time>2026-04-12T09:59:15.082Z</time></trkpt><trkpt lat="43.7772771" lon="10.4884573"><ele>385.79999999999995</ele><time>2026-04-12T09:59:16.08Z</time></trkpt><trkpt lat="43.7771915" lon="10.4884844"><ele>389.0</ele><time>2026-04-12T09:59:17.077Z</time></trkpt><trkpt lat="43.7771045" lon="10.4885176"><ele>389.0</ele><time>2026-04-12T09:59:18.077Z</time></trkpt><trkpt lat="43.7770236" lon="10.4885691"><ele>389.0</ele><time>2026-04-12T09:59:19.078Z</time></trkpt><trkpt lat="43.7769449" lon="10.4886376"><ele>389.0</ele><time>2026-04-12T09:59:20.081Z</time></trkpt><trkpt lat="43.7768631" lon="10.4887168"><ele>389.0</ele><time>2026-04-12T09:59:21.077Z</time></trkpt><trkpt lat="43.7767872" lon="10.4887871"><ele>389.0</ele><time>2026-04-12T09:59:22.078Z</time></trkpt><trkpt lat="43.7767076" lon="10.4888589"><ele>386.79999999999995</ele><time>2026-04-12T09:59:23.079Z</time></trkpt><trkpt lat="43.7766212" lon="10.4889224"><ele>384.59999999999997</ele><time>2026-04-12T09:59:24.079Z</time></trkpt><trkpt lat="43.7765308" lon="10.4889707"><ele>382.4</ele><time>2026-04-12T09:59:25.077Z</time></trkpt><trkpt lat="43.776439" lon="10.4890118"><ele>380.2</ele><time>2026-04-12T09:59:26.077Z</time></trkpt><trkpt lat="43.7763422" lon="10.4890671"><ele>378.0</ele><time>2026-04-12T09:59:27.077Z</time></trkpt><trkpt lat="43.7762556" lon="10.4891222"><ele>378.0</ele><time>2026-04-12T09:59:28.08Z</time></trkpt><trkpt lat="43.7761692" lon="10.4891782"><ele>378.0</ele><time>2026-04-12T09:59:29.078Z</time></trkpt><trkpt lat="43.7760868" lon="10.4892346"><ele>378.0</ele><time>2026-04-12T09:59:30.078Z</time></trkpt><trkpt lat="43.7760093" lon="10.4892824"><ele>378.0</ele><time>2026-04-12T09:59:31.082Z</time></trkpt><trkpt lat="43.7759385" lon="10.4893239"><ele>378.0</ele><time>2026-04-12T09:59:32.082Z</time></trkpt><trkpt lat="43.7758749" lon="10.4893633"><ele>378.0</ele><time>2026-04-12T09:59:33.081Z</time></trkpt><trkpt lat="43.7758133" lon="10.4894028"><ele>378.85714285714283</ele><time>2026-04-12T09:59:34.079Z</time></trkpt><trkpt lat="43.7757546" lon="10.4894374"><ele>379.7142857142857</ele><time>2026-04-12T09:59:35.081Z</time></trkpt><trkpt lat="43.7756952" lon="10.4894778"><ele>380.57142857142856</ele><time>2026-04-12T09:59:36.079Z</time></trkpt><trkpt lat="43.7756375" lon="10.489531"><ele>381.42857142857144</ele><time>2026-04-12T09:59:37.08Z</time></trkpt><trkpt lat="43.7755858" lon="10.4895976"><ele>382.2857142857143</ele><time>2026-04-12T09:59:38.08Z</time></trkpt><trkpt lat="43.7755503" lon="10.4896767"><ele>383.1428571428571</ele><time>2026-04-12T09:59:39.082Z</time></trkpt><trkpt lat="43.7755311" lon="10.4897632"><ele>384.0</ele><time>2026-04-12T09:59:40.076Z</time></trkpt><trkpt lat="43.7755241" lon="10.489855"><ele>384.0</ele><time>2026-04-12T09:59:41.081Z</time></trkpt><trkpt lat="43.7755401" lon="10.4899469"><ele>384.0</ele><time>2026-04-12T09:59:42.083Z</time></trkpt><trkpt lat="43.7755679" lon="10.4900438"><ele>384.0</ele><time>2026-04-12T09:59:43.086Z</time></trkpt><trkpt lat="43.775592" lon="10.4901446"><ele>384.0</ele><time>2026-04-12T09:59:44.084Z</time></trkpt><trkpt lat="43.7756041" lon="10.4902427"><ele>384.0</ele><time>2026-04-12T09:59:45.078Z</time></trkpt><trkpt lat="43.7756004" lon="10.4903338"><ele>384.0</ele><time>2026-04-12T09:59:46.086Z</time></trkpt><trkpt lat="43.7755441" lon="10.4904778"><ele>384.0</ele><time>2026-04-12T09:59:48.085Z</time></trkpt><trkpt lat="43.7754669" lon="10.4905728"><ele>384.0</ele><time>2026-04-12T09:59:50.082Z</time></trkpt><trkpt lat="43.7754035" lon="10.4906002"><ele>384.0</ele><time>2026-04-12T10:00:04.078Z</time></trkpt><trkpt lat="43.775457" lon="10.4905295"><ele>384.0</ele><time>2026-04-12T10:00:26.08Z</time></trkpt><trkpt lat="43.7755112" lon="10.4903976"><ele>384.0</ele><time>2026-04-12T10:00:28.08Z</time></trkpt><trkpt lat="43.7755375" lon="10.4902749"><ele>384.0</ele><time>2026-04-12T10:00:30.079Z</time></trkpt><trkpt lat="43.7755112" lon="10.4901548"><ele>384.0</ele><time>2026-04-12T10:00:32.078Z</time></trkpt><trkpt lat="43.7754332" lon="10.4900001"><ele>384.0</ele><time>2026-04-12T10:00:34.079Z</time></trkpt><trkpt lat="43.7753878" lon="10.4899141"><ele>384.0</ele><time>2026-04-12T10:00:35.078Z</time></trkpt><trkpt lat="43.7753551" lon="10.4898319"><ele>384.0</ele><time>2026-04-12T10:00:36.072Z</time></trkpt><trkpt lat="43.7753318" lon="10.4896779"><ele>384.0</ele><time>2026-04-12T10:00:38.076Z</time></trkpt><trkpt lat="43.7753955" lon="10.4895152"><ele>387.0</ele><time>2026-04-12T10:00:40.077Z</time></trkpt><trkpt lat="43.7754532" lon="10.4894098"><ele>390.0</ele><time>2026-04-12T10:00:41.079Z</time></trkpt><trkpt lat="43.775524" lon="10.4893014"><ele>393.0</ele><time>2026-04-12T10:00:42.081Z</time></trkpt><trkpt lat="43.7755966" lon="10.489201"><ele>396.0</ele><time>2026-04-12T10:00:43.078Z</time></trkpt><trkpt lat="43.7756612" lon="10.4891093"><ele>399.0</ele><time>2026-04-12T10:00:44.078Z</time></trkpt><trkpt lat="43.7757259" lon="10.4890226"><ele>399.0</ele><time>2026-04-12T10:00:45.079Z</time></trkpt><trkpt lat="43.775793" lon="10.4889456"><ele>399.0</ele><time>2026-04-12T10:00:46.077Z</time></trkpt><trkpt lat="43.7758576" lon="10.4888693"><ele>399.0</ele><time>2026-04-12T10:00:47.08Z</time></trkpt><trkpt lat="43.7759212" lon="10.4887904"><ele>399.0</ele><time>2026-04-12T10:00:48.078Z</time></trkpt><trkpt lat="43.7759803" lon="10.4887202"><ele>399.0</ele><time>2026-04-12T10:00:49.078Z</time></trkpt><trkpt lat="43.7760349" lon="10.4886629"><ele>399.0</ele><time>2026-04-12T10:00:50.079Z</time></trkpt><trkpt lat="43.7761366" lon="10.4885776"><ele>401.0</ele><time>2026-04-12T10:00:52.078Z</time></trkpt><trkpt lat="43.7762511" lon="10.4885083"><ele>403.0</ele><time>2026-04-12T10:00:54.081Z</time></trkpt><trkpt lat="43.7763625" lon="10.4884568"><ele>405.0</ele><time>2026-04-12T10:00:56.077Z</time></trkpt><trkpt lat="43.7764429" lon="10.4883971"><ele>407.0</ele><time>2026-04-12T10:00:58.077Z</time></trkpt><trkpt lat="43.7765067" lon="10.4883132"><ele>409.0</ele><time>2026-04-12T10:01:00.077Z</time></trkpt><trkpt lat="43.7765735" lon="10.4882143"><ele>409.0</ele><time>2026-04-12T10:01:02.074Z</time></trkpt><trkpt lat="43.7766474" lon="10.4881125"><ele>409.0</ele><time>2026-04-12T10:01:04.074Z</time></trkpt><trkpt lat="43.7767088" lon="10.4880253"><ele>409.0</ele><time>2026-04-12T10:01:06.077Z</time></trkpt><trkpt lat="43.7767511" lon="10.4879203"><ele>409.0</ele><time>2026-04-12T10:01:08.077Z</time></trkpt><trkpt lat="43.7767781" lon="10.487785"><ele>409.0</ele><time>2026-04-12T10:01:10.078Z</time></trkpt><trkpt lat="43.7768649" lon="10.4876656"><ele>409.1428571428571</ele><time>2026-04-12T10:01:12.078Z</time></trkpt><trkpt lat="43.7769258" lon="10.4875981"><ele>409.28571428571433</ele><time>2026-04-12T10:01:13.078Z</time></trkpt><trkpt lat="43.7769806" lon="10.4875381"><ele>409.42857142857144</ele><time>2026-04-12T10:01:14.081Z</time></trkpt><trkpt lat="43.77703" lon="10.4874822"><ele>409.57142857142856</ele><time>2026-04-12T10:01:15.079Z</time></trkpt><trkpt lat="43.7771015" lon="10.4874066"><ele>409.71428571428567</ele><time>2026-04-12T10:01:17.079Z</time></trkpt><trkpt lat="43.7771515" lon="10.4873206"><ele>409.8571428571429</ele><time>2026-04-12T10:01:20.08Z</time></trkpt><trkpt lat="43.7771825" lon="10.4872418"><ele>410.0</ele><time>2026-04-12T10:01:22.081Z</time></trkpt><trkpt lat="43.7771875" lon="10.4871214"><ele>410.8333333333333</ele><time>2026-04-12T10:01:25.084Z</time></trkpt><trkpt lat="43.777181" lon="10.4870048"><ele>411.66666666666663</ele><time>2026-04-12T10:01:27.082Z</time></trkpt><trkpt lat="43.7771566" lon="10.4868448"><ele>412.5</ele><time>2026-04-12T10:01:29.082Z</time></trkpt><trkpt lat="43.7771372" lon="10.4867615"><ele>413.33333333333337</ele><time>2026-04-12T10:01:30.082Z</time></trkpt><trkpt lat="43.7771136" lon="10.4866754"><ele>414.1666666666667</ele><time>2026-04-12T10:01:31.077Z</time></trkpt><trkpt lat="43.7770927" lon="10.4865907"><ele>415.0</ele><time>2026-04-12T10:01:32.079Z</time></trkpt><trkpt lat="43.7770571" lon="10.4864381"><ele>415.00000000000006</ele><time>2026-04-12T10:01:34.078Z</time></trkpt><trkpt lat="43.7770241" lon="10.4862712"><ele>415.0</ele><time>2026-04-12T10:01:36.082Z</time></trkpt><trkpt lat="43.7770069" lon="10.4861765"><ele>415.0</ele><time>2026-04-12T10:01:37.077Z</time></trkpt><trkpt lat="43.7769911" lon="10.4860764"><ele>415.0</ele><time>2026-04-12T10:01:38.079Z</time></trkpt><trkpt lat="43.7769721" lon="10.4859725"><ele>415.00000000000006</ele><time>2026-04-12T10:01:39.08Z</time></trkpt><trkpt lat="43.7769491" lon="10.4858616"><ele>415.0</ele><time>2026-04-12T10:01:40.08Z</time></trkpt><trkpt lat="43.7769241" lon="10.4857458"><ele>414.83333333333337</ele><time>2026-04-12T10:01:41.08Z</time></trkpt><trkpt lat="43.7768937" lon="10.4856392"><ele>414.6666666666667</ele><time>2026-04-12T10:01:42.083Z</time></trkpt><trkpt lat="43.77686" lon="10.4855507"><ele>414.5</ele><time>2026-04-12T10:01:43.082Z</time></trkpt><trkpt lat="43.7768309" lon="10.4854561"><ele>414.33333333333337</ele><time>2026-04-12T10:01:44.082Z</time></trkpt><trkpt lat="43.7767965" lon="10.4853512"><ele>414.1666666666667</ele><time>2026-04-12T10:01:45.084Z</time></trkpt><trkpt lat="43.7767652" lon="10.4852562"><ele>414.0</ele><time>2026-04-12T10:01:46.083Z</time></trkpt><trkpt lat="43.7767304" lon="10.4850885"><ele>418.3333333333333</ele><time>2026-04-12T10:01:48.081Z</time></trkpt><trkpt lat="43.7766997" lon="10.4850085"><ele>422.66666666666663</ele><time>2026-04-12T10:01:49.087Z</time></trkpt><trkpt lat="43.7766565" lon="10.4849261"><ele>427.0</ele><time>2026-04-12T10:01:50.087Z</time></trkpt><trkpt lat="43.7766024" lon="10.4848426"><ele>431.3333333333333</ele><time>2026-04-12T10:01:51.088Z</time></trkpt><trkpt lat="43.7765487" lon="10.4847678"><ele>435.66666666666663</ele><time>2026-04-12T10:01:52.088Z</time></trkpt><trkpt lat="43.7764899" lon="10.4846899"><ele>440.0</ele><time>2026-04-12T10:01:53.088Z</time></trkpt><trkpt lat="43.7764302" lon="10.4846063"><ele>437.16666666666663</ele><time>2026-04-12T10:01:54.09Z</time></trkpt><trkpt lat="43.7763733" lon="10.4845211"><ele>434.3333333333333</ele><time>2026-04-12T10:01:55.088Z</time></trkpt><trkpt lat="43.7763152" lon="10.4844318"><ele>431.5</ele><time>2026-04-12T10:01:56.086Z</time></trkpt><trkpt lat="43.7762539" lon="10.4843525"><ele>428.66666666666663</ele><time>2026-04-12T10:01:57.089Z</time></trkpt><trkpt lat="43.7761834" lon="10.4842803"><ele>425.8333333333333</ele><time>2026-04-12T10:01:58.087Z</time></trkpt><trkpt lat="43.7761069" lon="10.4842191"><ele>423.0</ele><time>2026-04-12T10:01:59.088Z</time></trkpt><trkpt lat="43.7760276" lon="10.4841623"><ele>426.3333333333333</ele><time>2026-04-12T10:02:00.083Z</time></trkpt><trkpt lat="43.7759592" lon="10.4841092"><ele>429.66666666666663</ele><time>2026-04-12T10:02:01.081Z</time></trkpt><trkpt lat="43.7758991" lon="10.4840552"><ele>433.0</ele><time>2026-04-12T10:02:02.085Z</time></trkpt><trkpt lat="43.7758454" lon="10.4839975"><ele>436.3333333333333</ele><time>2026-04-12T10:02:03.084Z</time></trkpt><trkpt lat="43.7757486" lon="10.4839069"><ele>439.66666666666663</ele><time>2026-04-12T10:02:05.083Z</time></trkpt><trkpt lat="43.775692" lon="10.4838675"><ele>443.0</ele><time>2026-04-12T10:02:06.083Z</time></trkpt><trkpt lat="43.7755909" lon="10.4838122"><ele>443.0</ele><time>2026-04-12T10:02:08.081Z</time></trkpt><trkpt lat="43.775508" lon="10.483795"><ele>442.99999999999994</ele><time>2026-04-12T10:02:10.085Z</time></trkpt><trkpt lat="43.7754064" lon="10.4837931"><ele>442.99999999999994</ele><time>2026-04-12T10:02:12.082Z</time></trkpt><trkpt lat="43.7752928" lon="10.4837505"><ele>443.0</ele><time>2026-04-12T10:02:14.083Z</time></trkpt><trkpt lat="43.7752169" lon="10.4837048"><ele>443.0</ele><time>2026-04-12T10:02:15.085Z</time></trkpt><trkpt lat="43.7751301" lon="10.4836578"><ele>441.2</ele><time>2026-04-12T10:02:16.087Z</time></trkpt><trkpt lat="43.7750385" lon="10.4836236"><ele>439.4</ele><time>2026-04-12T10:02:17.085Z</time></trkpt><trkpt lat="43.7749446" lon="10.4836048"><ele>437.59999999999997</ele><time>2026-04-12T10:02:18.085Z</time></trkpt><trkpt lat="43.7748472" lon="10.4835936"><ele>435.79999999999995</ele><time>2026-04-12T10:02:19.082Z</time></trkpt><trkpt lat="43.7747614" lon="10.4835747"><ele>434.0</ele><time>2026-04-12T10:02:20.083Z</time></trkpt><trkpt lat="43.7746839" lon="10.483558"><ele>433.99999999999994</ele><time>2026-04-12T10:02:21.082Z</time></trkpt><trkpt lat="43.7746062" lon="10.4835417"><ele>434.0</ele><time>2026-04-12T10:02:22.082Z</time></trkpt><trkpt lat="43.7745218" lon="10.4835193"><ele>434.0</ele><time>2026-04-12T10:02:23.084Z</time></trkpt><trkpt lat="43.7744367" lon="10.4834939"><ele>434.0</ele><time>2026-04-12T10:02:24.083Z</time></trkpt><trkpt lat="43.7743543" lon="10.4834696"><ele>433.99999999999994</ele><time>2026-04-12T10:02:25.085Z</time></trkpt><trkpt lat="43.7742671" lon="10.4834545"><ele>434.0</ele><time>2026-04-12T10:02:26.082Z</time></trkpt><trkpt lat="43.774179" lon="10.4834443"><ele>436.16666666666663</ele><time>2026-04-12T10:02:27.086Z</time></trkpt><trkpt lat="43.774092" lon="10.483438"><ele>438.3333333333333</ele><time>2026-04-12T10:02:28.084Z</time></trkpt><trkpt lat="43.7740098" lon="10.4834445"><ele>440.5</ele><time>2026-04-12T10:02:29.082Z</time></trkpt><trkpt lat="43.773925" lon="10.4834573"><ele>442.66666666666663</ele><time>2026-04-12T10:02:30.083Z</time></trkpt><trkpt lat="43.773839" lon="10.4834675"><ele>444.8333333333333</ele><time>2026-04-12T10:02:31.082Z</time></trkpt><trkpt lat="43.7737611" lon="10.4834714"><ele>447.0</ele><time>2026-04-12T10:02:32.078Z</time></trkpt><trkpt lat="43.7736955" lon="10.4834676"><ele>447.0</ele><time>2026-04-12T10:02:33.079Z</time></trkpt><trkpt lat="43.7736298" lon="10.4834572"><ele>447.0</ele><time>2026-04-12T10:03:03.081Z</time></trkpt><trkpt lat="43.7735694" lon="10.4835221"><ele>447.0</ele><time>2026-04-12T10:03:06.08Z</time></trkpt><trkpt lat="43.7734972" lon="10.483571"><ele>447.0</ele><time>2026-04-12T10:03:11.083Z</time></trkpt><trkpt lat="43.7734117" lon="10.4836363"><ele>447.0</ele><time>2026-04-12T10:03:13.085Z</time></trkpt><trkpt lat="43.773343" lon="10.4836627"><ele>447.0</ele><time>2026-04-12T10:03:22.082Z</time></trkpt><trkpt lat="43.7732771" lon="10.4837107"><ele>452.40000000000003</ele><time>2026-04-12T10:03:24.081Z</time></trkpt><trkpt lat="43.7731918" lon="10.4837781"><ele>457.80000000000007</ele><time>2026-04-12T10:03:26.081Z</time></trkpt><trkpt lat="43.773083" lon="10.4838737"><ele>463.2</ele><time>2026-04-12T10:03:28.082Z</time></trkpt><trkpt lat="43.7730131" lon="10.4839411"><ele>468.6</ele><time>2026-04-12T10:03:29.081Z</time></trkpt><trkpt lat="43.7729354" lon="10.4840108"><ele>474.0</ele><time>2026-04-12T10:03:30.08Z</time></trkpt><trkpt lat="43.7728616" lon="10.4840643"><ele>474.0</ele><time>2026-04-12T10:03:31.08Z</time></trkpt><trkpt lat="43.7728016" lon="10.4840993"><ele>474.0</ele><time>2026-04-12T10:03:32.079Z</time></trkpt><trkpt lat="43.7726784" lon="10.4841484"><ele>474.0</ele><time>2026-04-12T10:03:34.079Z</time></trkpt><trkpt lat="43.7726131" lon="10.4841864"><ele>474.0</ele><time>2026-04-12T10:03:35.073Z</time></trkpt><trkpt lat="43.7725504" lon="10.4842363"><ele>474.0</ele><time>2026-04-12T10:03:36.079Z</time></trkpt><trkpt lat="43.7724889" lon="10.4842975"><ele>474.0</ele><time>2026-04-12T10:03:37.08Z</time></trkpt><trkpt lat="43.7724286" lon="10.4843554"><ele>472.6666666666667</ele><time>2026-04-12T10:03:38.08Z</time></trkpt><trkpt lat="43.7723648" lon="10.4844107"><ele>471.33333333333337</ele><time>2026-04-12T10:03:39.081Z</time></trkpt><trkpt lat="43.7722999" lon="10.4844763"><ele>470.0</ele><time>2026-04-12T10:03:40.081Z</time></trkpt><trkpt lat="43.7722334" lon="10.4845495"><ele>468.6666666666667</ele><time>2026-04-12T10:03:41.082Z</time></trkpt><trkpt lat="43.7721724" lon="10.4846149"><ele>467.33333333333337</ele><time>2026-04-12T10:03:42.081Z</time></trkpt><trkpt lat="43.7721258" lon="10.4846745"><ele>466.0</ele><time>2026-04-12T10:03:43.081Z</time></trkpt><trkpt lat="43.7720394" lon="10.4847562"><ele>466.20000000000005</ele><time>2026-04-12T10:03:45.082Z</time></trkpt><trkpt lat="43.7719573" lon="10.4848392"><ele>466.40000000000003</ele><time>2026-04-12T10:03:47.082Z</time></trkpt><trkpt lat="43.7718611" lon="10.4849528"><ele>466.6</ele><time>2026-04-12T10:03:49.076Z</time></trkpt><trkpt lat="43.7718081" lon="10.4850269"><ele>466.8</ele><time>2026-04-12T10:03:50.081Z</time></trkpt><trkpt lat="43.7717602" lon="10.4851056"><ele>467.0</ele><time>2026-04-12T10:03:51.083Z</time></trkpt><trkpt lat="43.7717202" lon="10.4851898"><ele>466.99999999999994</ele><time>2026-04-12T10:03:52.083Z</time></trkpt><trkpt lat="43.7716843" lon="10.4852829"><ele>467.0</ele><time>2026-04-12T10:03:53.083Z</time></trkpt><trkpt lat="43.7716466" lon="10.4853786"><ele>466.99999999999994</ele><time>2026-04-12T10:03:54.085Z</time></trkpt><trkpt lat="43.7716038" lon="10.4854723"><ele>466.99999999999994</ele><time>2026-04-12T10:03:55.083Z</time></trkpt><trkpt lat="43.7715591" lon="10.4855543"><ele>467.0</ele><time>2026-04-12T10:03:56.082Z</time></trkpt><trkpt lat="43.7715121" lon="10.4856235"><ele>466.99999999999994</ele><time>2026-04-12T10:03:57.08Z</time></trkpt><trkpt lat="43.7714608" lon="10.4856903"><ele>466.99999999999994</ele><time>2026-04-12T10:03:58.08Z</time></trkpt><trkpt lat="43.7714053" lon="10.4857653"><ele>470.66666666666663</ele><time>2026-04-12T10:03:59.08Z</time></trkpt><trkpt lat="43.7713445" lon="10.4858487"><ele>474.3333333333333</ele><time>2026-04-12T10:04:00.082Z</time></trkpt><trkpt lat="43.7712805" lon="10.4859381"><ele>478.0</ele><time>2026-04-12T10:04:01.08Z</time></trkpt><trkpt lat="43.7712248" lon="10.486027"><ele>481.66666666666663</ele><time>2026-04-12T10:04:02.081Z</time></trkpt><trkpt lat="43.7711753" lon="10.4861186"><ele>485.3333333333333</ele><time>2026-04-12T10:04:03.079Z</time></trkpt><trkpt lat="43.7711318" lon="10.4861975"><ele>489.0</ele><time>2026-04-12T10:04:04.079Z</time></trkpt><trkpt lat="43.7710893" lon="10.4862661"><ele>488.6666666666667</ele><time>2026-04-12T10:04:05.081Z</time></trkpt><trkpt lat="43.7710425" lon="10.4863296"><ele>488.33333333333337</ele><time>2026-04-12T10:04:06.08Z</time></trkpt><trkpt lat="43.7709874" lon="10.4863957"><ele>488.0</ele><time>2026-04-12T10:04:07.077Z</time></trkpt><trkpt lat="43.7709285" lon="10.4864751"><ele>487.6666666666667</ele><time>2026-04-12T10:04:08.079Z</time></trkpt><trkpt lat="43.7708701" lon="10.4865634"><ele>487.33333333333337</ele><time>2026-04-12T10:04:09.08Z</time></trkpt><trkpt lat="43.7708187" lon="10.4866493"><ele>487.0</ele><time>2026-04-12T10:04:10.08Z</time></trkpt><trkpt lat="43.7707794" lon="10.486727"><ele>487.0</ele><time>2026-04-12T10:04:11.084Z</time></trkpt><trkpt lat="43.7707428" lon="10.4868001"><ele>487.0</ele><time>2026-04-12T10:04:12.078Z</time></trkpt><trkpt lat="43.7706976" lon="10.4868763"><ele>487.0</ele><time>2026-04-12T10:04:13.081Z</time></trkpt><trkpt lat="43.7706499" lon="10.4869481"><ele>487.0</ele><time>2026-04-12T10:04:14.084Z</time></trkpt><trkpt lat="43.7706033" lon="10.4870162"><ele>487.0</ele><time>2026-04-12T10:04:15.082Z</time></trkpt><trkpt lat="43.7705562" lon="10.4870865"><ele>487.0</ele><time>2026-04-12T10:04:16.082Z</time></trkpt><trkpt lat="43.7705112" lon="10.4871646"><ele>487.0</ele><time>2026-04-12T10:04:17.083Z</time></trkpt><trkpt lat="43.7704763" lon="10.4872412"><ele>486.6666666666667</ele><time>2026-04-12T10:04:18.082Z</time></trkpt><trkpt lat="43.7704015" lon="10.4873382"><ele>486.33333333333337</ele><time>2026-04-12T10:04:20.081Z</time></trkpt><trkpt lat="43.7703529" lon="10.487438"><ele>486.0</ele><time>2026-04-12T10:04:26.082Z</time></trkpt><trkpt lat="43.7703063" lon="10.4875023"><ele>485.66666666666663</ele><time>2026-04-12T10:04:27.082Z</time></trkpt><trkpt lat="43.7702504" lon="10.4875858"><ele>485.3333333333333</ele><time>2026-04-12T10:04:28.082Z</time></trkpt><trkpt lat="43.7701938" lon="10.4876881"><ele>485.0</ele><time>2026-04-12T10:04:29.081Z</time></trkpt><trkpt lat="43.7701456" lon="10.4877835"><ele>485.0</ele><time>2026-04-12T10:04:30.082Z</time></trkpt><trkpt lat="43.7701067" lon="10.4878735"><ele>485.0</ele><time>2026-04-12T10:04:31.08Z</time></trkpt><trkpt lat="43.7700765" lon="10.4879563"><ele>485.0</ele><time>2026-04-12T10:04:32.079Z</time></trkpt><trkpt lat="43.7700259" lon="10.4881089"><ele>485.0</ele><time>2026-04-12T10:04:34.081Z</time></trkpt><trkpt lat="43.7699754" lon="10.4882648"><ele>485.0</ele><time>2026-04-12T10:04:36.081Z</time></trkpt><trkpt lat="43.7699121" lon="10.4884053"><ele>487.16666666666663</ele><time>2026-04-12T10:04:38.079Z</time></trkpt><trkpt lat="43.7698606" lon="10.4885165"><ele>489.3333333333333</ele><time>2026-04-12T10:04:40.081Z</time></trkpt><trkpt lat="43.7698057" lon="10.4886017"><ele>491.5</ele><time>2026-04-12T10:04:42.082Z</time></trkpt><trkpt lat="43.7697398" lon="10.4886804"><ele>493.66666666666663</ele><time>2026-04-12T10:04:45.083Z</time></trkpt><trkpt lat="43.7697468" lon="10.4887737"><ele>495.8333333333333</ele><time>2026-04-12T10:04:48.084Z</time></trkpt><trkpt lat="43.7698202" lon="10.488764"><ele>498.0</ele><time>2026-04-12T10:04:50.083Z</time></trkpt><trkpt lat="43.769934" lon="10.4886763"><ele>498.0</ele><time>2026-04-12T10:04:52.082Z</time></trkpt><trkpt lat="43.7699904" lon="10.4886289"><ele>498.0</ele><time>2026-04-12T10:04:53.085Z</time></trkpt><trkpt lat="43.7700465" lon="10.4885855"><ele>498.0</ele><time>2026-04-12T10:04:54.082Z</time></trkpt><trkpt lat="43.7701392" lon="10.4884899"><ele>498.0</ele><time>2026-04-12T10:04:56.082Z</time></trkpt><trkpt lat="43.7702234" lon="10.4883783"><ele>498.0</ele><time>2026-04-12T10:04:58.083Z</time></trkpt><trkpt lat="43.7702639" lon="10.4883092"><ele>498.0</ele><time>2026-04-12T10:04:59.084Z</time></trkpt><trkpt lat="43.7703319" lon="10.4881923"><ele>499.79999999999995</ele><time>2026-04-12T10:05:01.077Z</time></trkpt><trkpt lat="43.7704032" lon="10.4880837"><ele>501.59999999999997</ele><time>2026-04-12T10:05:03.08Z</time></trkpt><trkpt lat="43.770494" lon="10.4879731"><ele>503.40000000000003</ele><time>2026-04-12T10:05:05.078Z</time></trkpt><trkpt lat="43.7705952" lon="10.4878931"><ele>505.20000000000005</ele><time>2026-04-12T10:05:07.079Z</time></trkpt><trkpt lat="43.7706522" lon="10.4878497"><ele>507.0</ele><time>2026-04-12T10:05:08.078Z</time></trkpt><trkpt lat="43.7707483" lon="10.4877526"><ele>507.0</ele><time>2026-04-12T10:05:10.079Z</time></trkpt><trkpt lat="43.770803" lon="10.4876543"><ele>507.0</ele><time>2026-04-12T10:05:12.076Z</time></trkpt><trkpt lat="43.7708543" lon="10.487602"><ele>507.0</ele><time>2026-04-12T10:05:14.084Z</time></trkpt><trkpt lat="43.7709192" lon="10.4876109"><ele>507.0</ele><time>2026-04-12T10:05:51.081Z</time></trkpt><trkpt lat="43.7709058" lon="10.4877181"><ele>507.0</ele><time>2026-04-12T10:05:54.083Z</time></trkpt><trkpt lat="43.7708152" lon="10.4878694"><ele>507.0</ele><time>2026-04-12T10:05:56.084Z</time></trkpt><trkpt lat="43.7707651" lon="10.4879522"><ele>509.3333333333333</ele><time>2026-04-12T10:05:57.084Z</time></trkpt><trkpt lat="43.7707208" lon="10.488046"><ele>511.66666666666663</ele><time>2026-04-12T10:05:58.084Z</time></trkpt><trkpt lat="43.7706781" lon="10.4881543"><ele>514.0</ele><time>2026-04-12T10:05:59.084Z</time></trkpt><trkpt lat="43.7706416" lon="10.48826"><ele>516.3333333333333</ele><time>2026-04-12T10:06:00.081Z</time></trkpt><trkpt lat="43.7706058" lon="10.4883533"><ele>518.6666666666666</ele><time>2026-04-12T10:06:01.081Z</time></trkpt><trkpt lat="43.7705778" lon="10.4884355"><ele>521.0</ele><time>2026-04-12T10:06:02.083Z</time></trkpt><trkpt lat="43.7705641" lon="10.4885911"><ele>521.0</ele><time>2026-04-12T10:06:04.082Z</time></trkpt><trkpt lat="43.7705509" lon="10.4887416"><ele>521.0</ele><time>2026-04-12T10:06:06.083Z</time></trkpt><trkpt lat="43.7705444" lon="10.4888477"><ele>521.0</ele><time>2026-04-12T10:06:07.082Z</time></trkpt><trkpt lat="43.7705391" lon="10.4889748"><ele>521.0</ele><time>2026-04-12T10:06:08.082Z</time></trkpt><trkpt lat="43.7705425" lon="10.4891"><ele>521.0</ele><time>2026-04-12T10:06:09.082Z</time></trkpt><trkpt lat="43.7705512" lon="10.4892172"><ele>522.5</ele><time>2026-04-12T10:06:10.082Z</time></trkpt><trkpt lat="43.7705626" lon="10.4893218"><ele>524.0</ele><time>2026-04-12T10:06:11.081Z</time></trkpt><trkpt lat="43.7705782" lon="10.4894082"><ele>525.5</ele><time>2026-04-12T10:06:12.083Z</time></trkpt><trkpt lat="43.7705965" lon="10.4895423"><ele>527.0</ele><time>2026-04-12T10:06:14.083Z</time></trkpt><trkpt lat="43.7705567" lon="10.4896684"><ele>528.5</ele><time>2026-04-12T10:06:16.082Z</time></trkpt><trkpt lat="43.7705177" lon="10.4897502"><ele>530.0</ele><time>2026-04-12T10:06:17.081Z</time></trkpt><trkpt lat="43.7704809" lon="10.4898466"><ele>530.1428571428571</ele><time>2026-04-12T10:06:18.082Z</time></trkpt><trkpt lat="43.7704553" lon="10.4899481"><ele>530.2857142857142</ele><time>2026-04-12T10:06:19.084Z</time></trkpt><trkpt lat="43.7704549" lon="10.490041"><ele>530.4285714285714</ele><time>2026-04-12T10:06:20.078Z</time></trkpt><trkpt lat="43.7704772" lon="10.4901341"><ele>530.5714285714286</ele><time>2026-04-12T10:06:21.083Z</time></trkpt><trkpt lat="43.77051" lon="10.4902232"><ele>530.7142857142858</ele><time>2026-04-12T10:06:22.085Z</time></trkpt><trkpt lat="43.7705549" lon="10.4902939"><ele>530.8571428571429</ele><time>2026-04-12T10:06:23.084Z</time></trkpt><trkpt lat="43.7706109" lon="10.4903539"><ele>531.0</ele><time>2026-04-12T10:06:24.082Z</time></trkpt><trkpt lat="43.7706793" lon="10.490415"><ele>532.0</ele><time>2026-04-12T10:06:25.079Z</time></trkpt><trkpt lat="43.7707471" lon="10.4904858"><ele>533.0</ele><time>2026-04-12T10:06:26.083Z</time></trkpt><trkpt lat="43.7708062" lon="10.490561"><ele>534.0</ele><time>2026-04-12T10:06:27.082Z</time></trkpt><trkpt lat="43.7708578" lon="10.4906482"><ele>535.0</ele><time>2026-04-12T10:06:28.083Z</time></trkpt><trkpt lat="43.770892" lon="10.490735"><ele>536.0</ele><time>2026-04-12T10:06:29.083Z</time></trkpt><trkpt lat="43.7709097" lon="10.4908189"><ele>537.0</ele><time>2026-04-12T10:06:30.085Z</time></trkpt><trkpt lat="43.7709316" lon="10.49097"><ele>536.9999999999999</ele><time>2026-04-12T10:06:32.082Z</time></trkpt><trkpt lat="43.7709458" lon="10.4910602"><ele>537.0</ele><time>2026-04-12T10:06:34.083Z</time></trkpt><trkpt lat="43.7709015" lon="10.4911276"><ele>537.0</ele><time>2026-04-12T10:06:37.084Z</time></trkpt><trkpt lat="43.7708247" lon="10.4911211"><ele>537.0</ele><time>2026-04-12T10:06:40.085Z</time></trkpt><trkpt lat="43.7707478" lon="10.4910848"><ele>537.0</ele><time>2026-04-12T10:06:42.084Z</time></trkpt><trkpt lat="43.770684" lon="10.4910688"><ele>536.9999999999999</ele><time>2026-04-12T10:06:43.084Z</time></trkpt><trkpt lat="43.7706105" lon="10.4910462"><ele>537.0</ele><time>2026-04-12T10:06:44.085Z</time></trkpt><trkpt lat="43.7705432" lon="10.49101"><ele>537.0</ele><time>2026-04-12T10:06:45.082Z</time></trkpt><trkpt lat="43.7704743" lon="10.4909808"><ele>537.0</ele><time>2026-04-12T10:06:46.083Z</time></trkpt><trkpt lat="43.7704012" lon="10.4909608"><ele>537.0</ele><time>2026-04-12T10:06:47.084Z</time></trkpt><trkpt lat="43.770329" lon="10.490941"><ele>537.0</ele><time>2026-04-12T10:06:48.084Z</time></trkpt><trkpt lat="43.7702609" lon="10.4909193"><ele>537.0</ele><time>2026-04-12T10:06:49.084Z</time></trkpt><trkpt lat="43.7701954" lon="10.4908988"><ele>537.0</ele><time>2026-04-12T10:06:50.082Z</time></trkpt><trkpt lat="43.7700951" lon="10.4908999"><ele>537.0</ele><time>2026-04-12T10:06:52.082Z</time></trkpt><trkpt lat="43.7700983" lon="10.4910113"><ele>537.0</ele><time>2026-04-12T10:06:55.085Z</time></trkpt><trkpt lat="43.770138" lon="10.4911092"><ele>537.0</ele><time>2026-04-12T10:07:03.084Z</time></trkpt><trkpt lat="43.7702053" lon="10.4912462"><ele>537.0</ele><time>2026-04-12T10:07:05.082Z</time></trkpt><trkpt lat="43.7702343" lon="10.4913459"><ele>537.0</ele><time>2026-04-12T10:07:06.082Z</time></trkpt><trkpt lat="43.7702518" lon="10.4914477"><ele>537.0</ele><time>2026-04-12T10:07:07.081Z</time></trkpt><trkpt lat="43.770271" lon="10.4915503"><ele>538.3333333333334</ele><time>2026-04-12T10:07:08.083Z</time></trkpt><trkpt lat="43.7702978" lon="10.4916637"><ele>539.6666666666666</ele><time>2026-04-12T10:07:09.083Z</time></trkpt><trkpt lat="43.770326" lon="10.4917815"><ele>541.0</ele><time>2026-04-12T10:07:10.084Z</time></trkpt><trkpt lat="43.7703438" lon="10.4919008"><ele>542.3333333333333</ele><time>2026-04-12T10:07:11.077Z</time></trkpt><trkpt lat="43.7703484" lon="10.4920159"><ele>543.6666666666666</ele><time>2026-04-12T10:07:12.083Z</time></trkpt><trkpt lat="43.7703408" lon="10.4921315"><ele>545.0</ele><time>2026-04-12T10:07:13.083Z</time></trkpt><trkpt lat="43.7703246" lon="10.4922418"><ele>546.0</ele><time>2026-04-12T10:07:14.083Z</time></trkpt><trkpt lat="43.770305" lon="10.4923475"><ele>547.0</ele><time>2026-04-12T10:07:15.082Z</time></trkpt><trkpt lat="43.7702778" lon="10.4924461"><ele>548.0</ele><time>2026-04-12T10:07:16.084Z</time></trkpt><trkpt lat="43.7702389" lon="10.4925378"><ele>549.0</ele><time>2026-04-12T10:07:17.084Z</time></trkpt><trkpt lat="43.770197" lon="10.4926269"><ele>550.0</ele><time>2026-04-12T10:07:18.082Z</time></trkpt><trkpt lat="43.7701571" lon="10.4927193"><ele>551.0</ele><time>2026-04-12T10:07:19.085Z</time></trkpt><trkpt lat="43.7701137" lon="10.4928068"><ele>554.2</ele><time>2026-04-12T10:07:20.083Z</time></trkpt><trkpt lat="43.7700612" lon="10.4928894"><ele>557.4000000000001</ele><time>2026-04-12T10:07:21.082Z</time></trkpt><trkpt lat="43.7700137" lon="10.4929715"><ele>560.6</ele><time>2026-04-12T10:07:22.083Z</time></trkpt><trkpt lat="43.7699812" lon="10.4930522"><ele>563.8000000000001</ele><time>2026-04-12T10:07:23.084Z</time></trkpt><trkpt lat="43.7699727" lon="10.4932406"><ele>567.0</ele><time>2026-04-12T10:07:25.084Z</time></trkpt><trkpt lat="43.7699909" lon="10.4933782"><ele>567.0</ele><time>2026-04-12T10:07:26.092Z</time></trkpt><trkpt lat="43.7700193" lon="10.4935353"><ele>567.0</ele><time>2026-04-12T10:07:27.084Z</time></trkpt><trkpt lat="43.7700457" lon="10.4936956"><ele>567.0</ele><time>2026-04-12T10:07:28.084Z</time></trkpt><trkpt lat="43.7700666" lon="10.4938541"><ele>567.0</ele><time>2026-04-12T10:07:29.085Z</time></trkpt><trkpt lat="43.7700807" lon="10.4940032"><ele>567.6</ele><time>2026-04-12T10:07:30.084Z</time></trkpt><trkpt lat="43.7700937" lon="10.4941498"><ele>568.2</ele><time>2026-04-12T10:07:31.083Z</time></trkpt><trkpt lat="43.770104" lon="10.4942918"><ele>568.8</ele><time>2026-04-12T10:07:32.078Z</time></trkpt><trkpt lat="43.7701136" lon="10.4944422"><ele>569.4</ele><time>2026-04-12T10:07:33.085Z</time></trkpt><trkpt lat="43.7701232" lon="10.4945924"><ele>570.0</ele><time>2026-04-12T10:07:34.083Z</time></trkpt><trkpt lat="43.7701374" lon="10.4947367"><ele>571.0</ele><time>2026-04-12T10:07:35.083Z</time></trkpt><trkpt lat="43.770159" lon="10.4948773"><ele>572.0</ele><time>2026-04-12T10:07:36.085Z</time></trkpt><trkpt lat="43.770197" lon="10.4950139"><ele>573.0</ele><time>2026-04-12T10:07:37.087Z</time></trkpt><trkpt lat="43.7702489" lon="10.4951475"><ele>574.0</ele><time>2026-04-12T10:07:38.086Z</time></trkpt><trkpt lat="43.770307" lon="10.4952774"><ele>575.0</ele><time>2026-04-12T10:07:39.093Z</time></trkpt><trkpt lat="43.7703675" lon="10.4954037"><ele>571.4</ele><time>2026-04-12T10:07:40.089Z</time></trkpt><trkpt lat="43.7704315" lon="10.4955358"><ele>567.8</ele><time>2026-04-12T10:07:41.085Z</time></trkpt><trkpt lat="43.7704964" lon="10.4956662"><ele>564.2</ele><time>2026-04-12T10:07:42.083Z</time></trkpt><trkpt lat="43.770559" lon="10.4957854"><ele>560.6</ele><time>2026-04-12T10:07:43.083Z</time></trkpt><trkpt lat="43.7706114" lon="10.4959146"><ele>557.0</ele><time>2026-04-12T10:07:44.084Z</time></trkpt><trkpt lat="43.770654" lon="10.496049"><ele>557.0</ele><time>2026-04-12T10:07:45.084Z</time></trkpt><trkpt lat="43.7706844" lon="10.496178"><ele>557.0</ele><time>2026-04-12T10:07:46.085Z</time></trkpt><trkpt lat="43.7707056" lon="10.4963043"><ele>557.0</ele><time>2026-04-12T10:07:47.085Z</time></trkpt><trkpt lat="43.7707232" lon="10.4964259"><ele>557.0</ele><time>2026-04-12T10:07:48.084Z</time></trkpt><trkpt lat="43.7707372" lon="10.496545"><ele>557.0</ele><time>2026-04-12T10:07:49.079Z</time></trkpt><trkpt lat="43.7707529" lon="10.4966625"><ele>557.3333333333333</ele><time>2026-04-12T10:07:50.084Z</time></trkpt><trkpt lat="43.7707826" lon="10.4967657"><ele>557.6666666666666</ele><time>2026-04-12T10:07:51.082Z</time></trkpt><trkpt lat="43.770831" lon="10.4968478"><ele>558.0</ele><time>2026-04-12T10:07:52.085Z</time></trkpt><trkpt lat="43.7708979" lon="10.4969141"><ele>558.3333333333334</ele><time>2026-04-12T10:07:53.085Z</time></trkpt><trkpt lat="43.7709726" lon="10.4969765"><ele>558.6666666666667</ele><time>2026-04-12T10:07:54.084Z</time></trkpt><trkpt lat="43.7710342" lon="10.4970541"><ele>559.0</ele><time>2026-04-12T10:07:55.084Z</time></trkpt><trkpt lat="43.7710747" lon="10.4971546"><ele>559.0</ele><time>2026-04-12T10:07:56.082Z</time></trkpt><trkpt lat="43.7710908" lon="10.4972675"><ele>559.0</ele><time>2026-04-12T10:07:57.078Z</time></trkpt><trkpt lat="43.7710911" lon="10.4973696"><ele>559.0</ele><time>2026-04-12T10:07:58.083Z</time></trkpt><trkpt lat="43.771077" lon="10.4974732"><ele>559.0</ele><time>2026-04-12T10:07:59.085Z</time></trkpt><trkpt lat="43.7710484" lon="10.4975926"><ele>559.0</ele><time>2026-04-12T10:08:00.084Z</time></trkpt><trkpt lat="43.7710126" lon="10.4977229"><ele>559.0</ele><time>2026-04-12T10:08:01.085Z</time></trkpt><trkpt lat="43.7709855" lon="10.497848"><ele>563.0</ele><time>2026-04-12T10:08:02.083Z</time></trkpt><trkpt lat="43.7709776" lon="10.4979637"><ele>567.0</ele><time>2026-04-12T10:08:03.088Z</time></trkpt><trkpt lat="43.770981" lon="10.4980733"><ele>571.0</ele><time>2026-04-12T10:08:04.084Z</time></trkpt><trkpt lat="43.7709755" lon="10.4981763"><ele>575.0</ele><time>2026-04-12T10:08:05.084Z</time></trkpt><trkpt lat="43.7709598" lon="10.4982721"><ele>579.0</ele><time>2026-04-12T10:08:06.086Z</time></trkpt><trkpt lat="43.7709471" lon="10.4983581"><ele>583.0</ele><time>2026-04-12T10:08:07.086Z</time></trkpt><trkpt lat="43.77094" lon="10.498484"><ele>583.0</ele><time>2026-04-12T10:08:09.085Z</time></trkpt><trkpt lat="43.770903" lon="10.4985919"><ele>583.0</ele><time>2026-04-12T10:08:11.084Z</time></trkpt><trkpt lat="43.7708576" lon="10.4986599"><ele>583.0</ele><time>2026-04-12T10:08:12.082Z</time></trkpt><trkpt lat="43.7707961" lon="10.4987329"><ele>583.0</ele><time>2026-04-12T10:08:13.082Z</time></trkpt><trkpt lat="43.7707365" lon="10.4987949"><ele>583.0</ele><time>2026-04-12T10:08:14.084Z</time></trkpt><trkpt lat="43.7706746" lon="10.4988571"><ele>583.0</ele><time>2026-04-12T10:08:15.077Z</time></trkpt><trkpt lat="43.7706067" lon="10.4989186"><ele>581.1666666666667</ele><time>2026-04-12T10:08:16.083Z</time></trkpt><trkpt lat="43.770541" lon="10.4989726"><ele>579.3333333333334</ele><time>2026-04-12T10:08:17.083Z</time></trkpt><trkpt lat="43.7704746" lon="10.4990175"><ele>577.5</ele><time>2026-04-12T10:08:18.083Z</time></trkpt><trkpt lat="43.770411" lon="10.499055"><ele>575.6666666666666</ele><time>2026-04-12T10:08:19.084Z</time></trkpt><trkpt lat="43.7703397" lon="10.4990869"><ele>573.8333333333333</ele><time>2026-04-12T10:08:20.082Z</time></trkpt><trkpt lat="43.7702568" lon="10.4991196"><ele>572.0</ele><time>2026-04-12T10:08:21.084Z</time></trkpt><trkpt lat="43.7701729" lon="10.4991653"><ele>575.1666666666666</ele><time>2026-04-12T10:08:22.082Z</time></trkpt><trkpt lat="43.7701045" lon="10.4992164"><ele>578.3333333333333</ele><time>2026-04-12T10:08:23.086Z</time></trkpt><trkpt lat="43.77005" lon="10.4992756"><ele>581.5</ele><time>2026-04-12T10:08:24.083Z</time></trkpt><trkpt lat="43.7700032" lon="10.4993541"><ele>584.6666666666666</ele><time>2026-04-12T10:08:25.084Z</time></trkpt><trkpt lat="43.7699575" lon="10.4994469"><ele>587.8333333333334</ele><time>2026-04-12T10:08:26.083Z</time></trkpt><trkpt lat="43.7699179" lon="10.4995427"><ele>591.0</ele><time>2026-04-12T10:08:27.085Z</time></trkpt><trkpt lat="43.7698871" lon="10.4996337"><ele>591.0</ele><time>2026-04-12T10:08:28.083Z</time></trkpt><trkpt lat="43.7698537" lon="10.4997224"><ele>591.0</ele><time>2026-04-12T10:08:29.077Z</time></trkpt><trkpt lat="43.7698168" lon="10.4998069"><ele>591.0</ele><time>2026-04-12T10:08:30.081Z</time></trkpt><trkpt lat="43.7697756" lon="10.4998922"><ele>591.0</ele><time>2026-04-12T10:08:31.086Z</time></trkpt><trkpt lat="43.7697297" lon="10.4999847"><ele>591.0</ele><time>2026-04-12T10:08:32.084Z</time></trkpt><trkpt lat="43.7696869" lon="10.5000795"><ele>591.0</ele><time>2026-04-12T10:08:33.082Z</time></trkpt><trkpt lat="43.7696501" lon="10.500172"><ele>591.0</ele><time>2026-04-12T10:08:34.086Z</time></trkpt><trkpt lat="43.7696228" lon="10.5002584"><ele>591.0</ele><time>2026-04-12T10:08:35.086Z</time></trkpt><trkpt lat="43.7695967" lon="10.5003436"><ele>591.0</ele><time>2026-04-12T10:08:36.086Z</time></trkpt><trkpt lat="43.7695674" lon="10.5004213"><ele>591.0</ele><time>2026-04-12T10:08:37.086Z</time></trkpt><trkpt lat="43.7695126" lon="10.5005164"><ele>591.0</ele><time>2026-04-12T10:08:39.086Z</time></trkpt><trkpt lat="43.769448" lon="10.5005294"><ele>591.0</ele><time>2026-04-12T10:08:41.084Z</time></trkpt><trkpt lat="43.7693584" lon="10.5004731"><ele>590.4</ele><time>2026-04-12T10:08:43.088Z</time></trkpt><trkpt lat="43.76929" lon="10.5004301"><ele>589.8</ele><time>2026-04-12T10:08:44.085Z</time></trkpt><trkpt lat="43.7692069" lon="10.5003764"><ele>589.1999999999999</ele><time>2026-04-12T10:08:45.087Z</time></trkpt><trkpt lat="43.769109" lon="10.5003074"><ele>588.6</ele><time>2026-04-12T10:08:46.086Z</time></trkpt><trkpt lat="43.7690073" lon="10.5002345"><ele>588.0</ele><time>2026-04-12T10:08:47.085Z</time></trkpt><trkpt lat="43.768915" lon="10.5001785"><ele>591.1999999999999</ele><time>2026-04-12T10:08:48.084Z</time></trkpt><trkpt lat="43.768825" lon="10.500134"><ele>594.4</ele><time>2026-04-12T10:08:49.085Z</time></trkpt><trkpt lat="43.7687292" lon="10.5000922"><ele>597.5999999999999</ele><time>2026-04-12T10:08:50.085Z</time></trkpt><trkpt lat="43.7686304" lon="10.5000481"><ele>600.8</ele><time>2026-04-12T10:08:51.084Z</time></trkpt><trkpt lat="43.7685329" lon="10.5000129"><ele>604.0</ele><time>2026-04-12T10:08:52.084Z</time></trkpt><trkpt lat="43.7684412" lon="10.4999861"><ele>604.0</ele><time>2026-04-12T10:08:53.084Z</time></trkpt><trkpt lat="43.7683563" lon="10.4999651"><ele>604.0</ele><time>2026-04-12T10:08:54.083Z</time></trkpt><trkpt lat="43.7682722" lon="10.4999512"><ele>604.0</ele><time>2026-04-12T10:08:55.083Z</time></trkpt><trkpt lat="43.7681827" lon="10.4999478"><ele>604.0</ele><time>2026-04-12T10:08:56.085Z</time></trkpt><trkpt lat="43.7680916" lon="10.4999584"><ele>604.0</ele><time>2026-04-12T10:08:57.082Z</time></trkpt><trkpt lat="43.7680014" lon="10.4999827"><ele>604.0</ele><time>2026-04-12T10:08:58.083Z</time></trkpt><trkpt lat="43.7679091" lon="10.5000164"><ele>604.0</ele><time>2026-04-12T10:08:59.085Z</time></trkpt><trkpt lat="43.7678108" lon="10.5000581"><ele>604.0</ele><time>2026-04-12T10:09:00.081Z</time></trkpt><trkpt lat="43.7677044" lon="10.5001159"><ele>604.0</ele><time>2026-04-12T10:09:01.084Z</time></trkpt><trkpt lat="43.7675975" lon="10.5001852"><ele>604.0</ele><time>2026-04-12T10:09:02.084Z</time></trkpt><trkpt lat="43.7674992" lon="10.5002551"><ele>604.0</ele><time>2026-04-12T10:09:03.084Z</time></trkpt><trkpt lat="43.7674137" lon="10.5003205"><ele>604.6</ele><time>2026-04-12T10:09:04.08Z</time></trkpt><trkpt lat="43.7673417" lon="10.5003788"><ele>605.2</ele><time>2026-04-12T10:09:05.081Z</time></trkpt><trkpt lat="43.7672812" lon="10.5004183"><ele>605.8000000000001</ele><time>2026-04-12T10:09:06.081Z</time></trkpt><trkpt lat="43.7671432" lon="10.5004518"><ele>606.4</ele><time>2026-04-12T10:09:08.081Z</time></trkpt><trkpt lat="43.7670456" lon="10.5004579"><ele>607.0</ele><time>2026-04-12T10:09:09.083Z</time></trkpt><trkpt lat="43.766944" lon="10.5004636"><ele>602.8000000000001</ele><time>2026-04-12T10:09:10.081Z</time></trkpt><trkpt lat="43.7668496" lon="10.5004796"><ele>598.6</ele><time>2026-04-12T10:09:11.08Z</time></trkpt><trkpt lat="43.7667592" lon="10.5005102"><ele>594.4000000000001</ele><time>2026-04-12T10:09:12.08Z</time></trkpt><trkpt lat="43.7666757" lon="10.5005544"><ele>590.2</ele><time>2026-04-12T10:09:13.081Z</time></trkpt><trkpt lat="43.7666039" lon="10.5006207"><ele>586.0</ele><time>2026-04-12T10:09:14.083Z</time></trkpt><trkpt lat="43.7665396" lon="10.5006995"><ele>586.0</ele><time>2026-04-12T10:09:15.082Z</time></trkpt><trkpt lat="43.7664755" lon="10.5007875"><ele>586.0</ele><time>2026-04-12T10:09:16.08Z</time></trkpt><trkpt lat="43.7664095" lon="10.5008709"><ele>586.0</ele><time>2026-04-12T10:09:17.08Z</time></trkpt><trkpt lat="43.7663482" lon="10.5009477"><ele>586.0</ele><time>2026-04-12T10:09:18.079Z</time></trkpt><trkpt lat="43.7663026" lon="10.5010271"><ele>586.0</ele><time>2026-04-12T10:09:19.076Z</time></trkpt><trkpt lat="43.7662715" lon="10.5011732"><ele>586.0</ele><time>2026-04-12T10:09:21.081Z</time></trkpt><trkpt lat="43.7662302" lon="10.5013324"><ele>586.5</ele><time>2026-04-12T10:09:23.081Z</time></trkpt><trkpt lat="43.7661867" lon="10.5014222"><ele>587.0</ele><time>2026-04-12T10:09:24.08Z</time></trkpt><trkpt lat="43.7661376" lon="10.5015111"><ele>587.5</ele><time>2026-04-12T10:09:25.081Z</time></trkpt><trkpt lat="43.7660873" lon="10.5015918"><ele>588.0</ele><time>2026-04-12T10:09:26.082Z</time></trkpt><trkpt lat="43.7660342" lon="10.5016699"><ele>588.5</ele><time>2026-04-12T10:09:27.082Z</time></trkpt><trkpt lat="43.7659751" lon="10.5017528"><ele>589.0</ele><time>2026-04-12T10:09:28.082Z</time></trkpt><trkpt lat="43.7659105" lon="10.5018439"><ele>589.0</ele><time>2026-04-12T10:09:29.084Z</time></trkpt><trkpt lat="43.7658458" lon="10.5019374"><ele>589.0</ele><time>2026-04-12T10:09:30.081Z</time></trkpt><trkpt lat="43.7657831" lon="10.5020258"><ele>589.0</ele><time>2026-04-12T10:09:31.083Z</time></trkpt><trkpt lat="43.7657233" lon="10.5021061"><ele>589.0</ele><time>2026-04-12T10:09:32.084Z</time></trkpt><trkpt lat="43.7656645" lon="10.502185"><ele>589.0</ele><time>2026-04-12T10:09:33.086Z</time></trkpt><trkpt lat="43.7656069" lon="10.5022662"><ele>589.0</ele><time>2026-04-12T10:09:34.085Z</time></trkpt><trkpt lat="43.765555" lon="10.5023598"><ele>585.1666666666667</ele><time>2026-04-12T10:09:35.087Z</time></trkpt><trkpt lat="43.7655082" lon="10.5024714"><ele>581.3333333333334</ele><time>2026-04-12T10:09:36.086Z</time></trkpt><trkpt lat="43.7654689" lon="10.5025904"><ele>577.5</ele><time>2026-04-12T10:09:37.084Z</time></trkpt><trkpt lat="43.7654399" lon="10.5027047"><ele>573.6666666666666</ele><time>2026-04-12T10:09:38.086Z</time></trkpt><trkpt lat="43.7654106" lon="10.5028038"><ele>569.8333333333333</ele><time>2026-04-12T10:09:39.083Z</time></trkpt><trkpt lat="43.7653779" lon="10.5028936"><ele>566.0</ele><time>2026-04-12T10:09:40.082Z</time></trkpt><trkpt lat="43.7653329" lon="10.5029693"><ele>566.1666666666666</ele><time>2026-04-12T10:09:41.082Z</time></trkpt><trkpt lat="43.7652667" lon="10.5030352"><ele>566.3333333333333</ele><time>2026-04-12T10:09:42.078Z</time></trkpt><trkpt lat="43.7651862" lon="10.5031011"><ele>566.5</ele><time>2026-04-12T10:09:43.083Z</time></trkpt><trkpt lat="43.7651026" lon="10.5031706"><ele>566.6666666666666</ele><time>2026-04-12T10:09:44.084Z</time></trkpt><trkpt lat="43.7650266" lon="10.5032415"><ele>566.8333333333334</ele><time>2026-04-12T10:09:45.083Z</time></trkpt><trkpt lat="43.7649533" lon="10.5032927"><ele>567.0</ele><time>2026-04-12T10:09:46.085Z</time></trkpt><trkpt lat="43.7648946" lon="10.5033361"><ele>567.0</ele><time>2026-04-12T10:09:47.085Z</time></trkpt><trkpt lat="43.7648061" lon="10.5034338"><ele>567.0</ele><time>2026-04-12T10:09:49.086Z</time></trkpt><trkpt lat="43.7647288" lon="10.5035468"><ele>567.0</ele><time>2026-04-12T10:09:51.086Z</time></trkpt><trkpt lat="43.7646545" lon="10.5036026"><ele>567.0</ele><time>2026-04-12T10:09:53.087Z</time></trkpt><trkpt lat="43.7645463" lon="10.5035531"><ele>567.0</ele><time>2026-04-12T10:09:55.088Z</time></trkpt><trkpt lat="43.7644585" lon="10.5034847"><ele>567.5</ele><time>2026-04-12T10:09:56.08Z</time></trkpt><trkpt lat="43.7643599" lon="10.5034013"><ele>568.0</ele><time>2026-04-12T10:09:57.092Z</time></trkpt><trkpt lat="43.7642557" lon="10.5033219"><ele>568.5</ele><time>2026-04-12T10:09:58.081Z</time></trkpt><trkpt lat="43.7641523" lon="10.5032655"><ele>569.0</ele><time>2026-04-12T10:09:59.089Z</time></trkpt><trkpt lat="43.7640436" lon="10.5032407"><ele>569.0</ele><time>2026-04-12T10:10:00.087Z</time></trkpt><trkpt lat="43.763934" lon="10.5032458"><ele>569.0</ele><time>2026-04-12T10:10:01.085Z</time></trkpt><trkpt lat="43.7638219" lon="10.503269"><ele>569.0</ele><time>2026-04-12T10:10:02.086Z</time></trkpt><trkpt lat="43.7637126" lon="10.5032987"><ele>569.0</ele><time>2026-04-12T10:10:03.079Z</time></trkpt><trkpt lat="43.7636194" lon="10.5033175"><ele>569.0</ele><time>2026-04-12T10:10:04.076Z</time></trkpt><trkpt lat="43.7635365" lon="10.503315"><ele>566.0</ele><time>2026-04-12T10:10:05.087Z</time></trkpt><trkpt lat="43.765555" lon="10.5023598"><ele>566.0</ele><time>2026-04-12T10:09:35.087Z</time></trkpt><trkpt lat="43.7655082" lon="10.5024714"><ele>566.0</ele><time>2026-04-12T10:09:36.086Z</time></trkpt><trkpt lat="43.7654689" lon="10.5025904"><ele>566.0</ele><time>2026-04-12T10:09:37.084Z</time></trkpt><trkpt lat="43.7654399" lon="10.5027047"><ele>566.0</ele><time>2026-04-12T10:09:38.086Z</time></trkpt><trkpt lat="43.7654106" lon="10.5028038"><ele>566.0</ele><time>2026-04-12T10:09:39.083Z</time></trkpt><trkpt lat="43.7653779" lon="10.5028936"><ele>566.0</ele><time>2026-04-12T10:09:40.082Z</time></trkpt><trkpt lat="43.7653329" lon="10.5029693"><ele>566.1666666666666</ele><time>2026-04-12T10:09:41.082Z</time></trkpt><trkpt lat="43.7652667" lon="10.5030352"><ele>566.3333333333333</ele><time>2026-04-12T10:09:42.078Z</time></trkpt><trkpt lat="43.7651862" lon="10.5031011"><ele>566.5</ele><time>2026-04-12T10:09:43.083Z</time></trkpt><trkpt lat="43.7651026" lon="10.5031706"><ele>566.6666666666666</ele><time>2026-04-12T10:09:44.084Z</time></trkpt><trkpt lat="43.7650266" lon="10.5032415"><ele>566.8333333333334</ele><time>2026-04-12T10:09:45.083Z</time></trkpt><trkpt lat="43.7649533" lon="10.5032927"><ele>567.0</ele><time>2026-04-12T10:09:46.085Z</time></trkpt><trkpt lat="43.7648946" lon="10.5033361"><ele>567.0</ele><time>2026-04-12T10:09:47.085Z</time></trkpt><trkpt lat="43.7648061" lon="10.5034338"><ele>567.0</ele><time>2026-04-12T10:09:49.086Z</time></trkpt><trkpt lat="43.7647288" lon="10.5035468"><ele>567.0</ele><time>2026-04-12T10:09:51.086Z</time></trkpt><trkpt lat="43.7646545" lon="10.5036026"><ele>567.0</ele><time>2026-04-12T10:09:53.087Z</time></trkpt><trkpt lat="43.7645463" lon="10.5035531"><ele>567.0</ele><time>2026-04-12T10:09:55.088Z</time></trkpt><trkpt lat="43.7644585" lon="10.5034847"><ele>567.5</ele><time>2026-04-12T10:09:56.08Z</time></trkpt><trkpt lat="43.7643599" lon="10.5034013"><ele>568.0</ele><time>2026-04-12T10:09:57.092Z</time></trkpt><trkpt lat="43.7642557" lon="10.5033219"><ele>568.5</ele><time>2026-04-12T10:09:58.081Z</time></trkpt><trkpt lat="43.7641523" lon="10.5032655"><ele>569.0</ele><time>2026-04-12T10:09:59.089Z</time></trkpt><trkpt lat="43.7640436" lon="10.5032407"><ele>569.0</ele><time>2026-04-12T10:10:00.087Z</time></trkpt><trkpt lat="43.763934" lon="10.5032458"><ele>569.0</ele><time>2026-04-12T10:10:01.085Z</time></trkpt><trkpt lat="43.7638219" lon="10.503269"><ele>569.0</ele><time>2026-04-12T10:10:02.086Z</time></trkpt><trkpt lat="43.7637126" lon="10.5032987"><ele>569.0</ele><time>2026-04-12T10:10:03.079Z</time></trkpt><trkpt lat="43.7636194" lon="10.5033175"><ele>569.0</ele><time>2026-04-12T10:10:04.076Z</time></trkpt><trkpt lat="43.7635365" lon="10.503315"><ele>568.1666666666666</ele><time>2026-04-12T10:10:05.087Z</time></trkpt><trkpt lat="43.763457" lon="10.5032879"><ele>567.3333333333333</ele><time>2026-04-12T10:10:06.084Z</time></trkpt><trkpt lat="43.7633792" lon="10.5032372"><ele>566.5</ele><time>2026-04-12T10:10:07.085Z</time></trkpt><trkpt lat="43.763305" lon="10.5031727"><ele>565.6666666666666</ele><time>2026-04-12T10:10:08.084Z</time></trkpt><trkpt lat="43.7632372" lon="10.5030957"><ele>564.8333333333334</ele><time>2026-04-12T10:10:09.083Z</time></trkpt><trkpt lat="43.7631753" lon="10.5030104"><ele>564.0</ele><time>2026-04-12T10:10:10.084Z</time></trkpt><trkpt lat="43.7631202" lon="10.5029137"><ele>564.0</ele><time>2026-04-12T10:10:11.08Z</time></trkpt><trkpt lat="43.7630727" lon="10.5028226"><ele>564.0</ele><time>2026-04-12T10:10:12.082Z</time></trkpt><trkpt lat="43.7630326" lon="10.5027486"><ele>564.0</ele><time>2026-04-12T10:10:13.083Z</time></trkpt><trkpt lat="43.7629451" lon="10.5026915"><ele>564.0</ele><time>2026-04-12T10:10:15.087Z</time></trkpt><trkpt lat="43.7628599" lon="10.5027532"><ele>564.0</ele><time>2026-04-12T10:10:17.082Z</time></trkpt><trkpt lat="43.7628233" lon="10.5028552"><ele>564.0</ele><time>2026-04-12T10:10:18.084Z</time></trkpt><trkpt lat="43.7628055" lon="10.5029741"><ele>564.0</ele><time>2026-04-12T10:10:19.082Z</time></trkpt><trkpt lat="43.7627872" lon="10.5030937"><ele>564.0</ele><time>2026-04-12T10:10:20.08Z</time></trkpt><trkpt lat="43.7627458" lon="10.5032106"><ele>564.0</ele><time>2026-04-12T10:10:21.08Z</time></trkpt><trkpt lat="43.7626905" lon="10.5033226"><ele>564.0</ele><time>2026-04-12T10:10:22.073Z</time></trkpt><trkpt lat="43.7626371" lon="10.5034282"><ele>564.0</ele><time>2026-04-12T10:10:23.081Z</time></trkpt><trkpt lat="43.7625926" lon="10.5035107"><ele>564.0</ele><time>2026-04-12T10:10:24.081Z</time></trkpt><trkpt lat="43.7624976" lon="10.5035972"><ele>566.6</ele><time>2026-04-12T10:10:26.081Z</time></trkpt><trkpt lat="43.7623828" lon="10.5035823"><ele>569.2</ele><time>2026-04-12T10:10:28.084Z</time></trkpt><trkpt lat="43.7623247" lon="10.5035407"><ele>571.8000000000001</ele><time>2026-04-12T10:10:29.084Z</time></trkpt><trkpt lat="43.7622" lon="10.5035599"><ele>574.4</ele><time>2026-04-12T10:10:31.082Z</time></trkpt><trkpt lat="43.7621258" lon="10.503608"><ele>577.0</ele><time>2026-04-12T10:10:32.084Z</time></trkpt><trkpt lat="43.7620501" lon="10.5036837"><ele>575.3333333333334</ele><time>2026-04-12T10:10:33.085Z</time></trkpt><trkpt lat="43.7619826" lon="10.5037724"><ele>573.6666666666667</ele><time>2026-04-12T10:10:34.084Z</time></trkpt><trkpt lat="43.7619248" lon="10.5038607"><ele>572.0</ele><time>2026-04-12T10:10:35.085Z</time></trkpt><trkpt lat="43.7618686" lon="10.5039447"><ele>570.3333333333334</ele><time>2026-04-12T10:10:36.083Z</time></trkpt><trkpt lat="43.7618053" lon="10.5040242"><ele>568.6666666666666</ele><time>2026-04-12T10:10:37.085Z</time></trkpt><trkpt lat="43.7617358" lon="10.5040866"><ele>567.0</ele><time>2026-04-12T10:10:38.085Z</time></trkpt><trkpt lat="43.761658" lon="10.5041369"><ele>567.0</ele><time>2026-04-12T10:10:39.087Z</time></trkpt><trkpt lat="43.7615662" lon="10.5041669"><ele>567.0</ele><time>2026-04-12T10:10:40.086Z</time></trkpt><trkpt lat="43.761468" lon="10.5041949"><ele>567.0</ele><time>2026-04-12T10:10:41.083Z</time></trkpt><trkpt lat="43.7613718" lon="10.5042012"><ele>567.0</ele><time>2026-04-12T10:10:42.082Z</time></trkpt><trkpt lat="43.7612788" lon="10.5042046"><ele>567.0</ele><time>2026-04-12T10:10:43.085Z</time></trkpt><trkpt lat="43.7611865" lon="10.504207"><ele>567.0</ele><time>2026-04-12T10:10:44.083Z</time></trkpt><trkpt lat="43.7611008" lon="10.5042084"><ele>567.0</ele><time>2026-04-12T10:10:45.082Z</time></trkpt><trkpt lat="43.7610135" lon="10.5042017"><ele>567.0</ele><time>2026-04-12T10:10:46.086Z</time></trkpt><trkpt lat="43.7609262" lon="10.5041831"><ele>567.0</ele><time>2026-04-12T10:10:47.083Z</time></trkpt><trkpt lat="43.7608407" lon="10.5041518"><ele>567.0</ele><time>2026-04-12T10:10:48.086Z</time></trkpt><trkpt lat="43.7607563" lon="10.5041121"><ele>567.0</ele><time>2026-04-12T10:10:49.088Z</time></trkpt><trkpt lat="43.760673" lon="10.5040597"><ele>567.3333333333334</ele><time>2026-04-12T10:10:50.083Z</time></trkpt><trkpt lat="43.7605963" lon="10.5039974"><ele>567.6666666666666</ele><time>2026-04-12T10:10:51.084Z</time></trkpt><trkpt lat="43.7605273" lon="10.5039238"><ele>568.0</ele><time>2026-04-12T10:10:52.084Z</time></trkpt><trkpt lat="43.7604672" lon="10.5038429"><ele>568.3333333333333</ele><time>2026-04-12T10:10:53.081Z</time></trkpt><trkpt lat="43.760409" lon="10.5037548"><ele>568.6666666666666</ele><time>2026-04-12T10:10:54.087Z</time></trkpt><trkpt lat="43.7603509" lon="10.5036551"><ele>569.0</ele><time>2026-04-12T10:10:55.084Z</time></trkpt><trkpt lat="43.7602906" lon="10.503543"><ele>569.4</ele><time>2026-04-12T10:10:56.083Z</time></trkpt><trkpt lat="43.760234" lon="10.5034299"><ele>569.8</ele><time>2026-04-12T10:10:57.083Z</time></trkpt><trkpt lat="43.7601777" lon="10.5033143"><ele>570.2</ele><time>2026-04-12T10:10:58.082Z</time></trkpt><trkpt lat="43.7601175" lon="10.5031906"><ele>570.6</ele><time>2026-04-12T10:10:59.083Z</time></trkpt><trkpt lat="43.7600632" lon="10.5030622"><ele>571.0</ele><time>2026-04-12T10:11:00.082Z</time></trkpt><trkpt lat="43.7600123" lon="10.502936"><ele>574.0</ele><time>2026-04-12T10:11:01.087Z</time></trkpt><trkpt lat="43.7599663" lon="10.5028202"><ele>577.0</ele><time>2026-04-12T10:11:02.085Z</time></trkpt><trkpt lat="43.7599267" lon="10.5027082"><ele>580.0</ele><time>2026-04-12T10:11:03.086Z</time></trkpt><trkpt lat="43.759892" lon="10.5025865"><ele>583.0</ele><time>2026-04-12T10:11:04.085Z</time></trkpt><trkpt lat="43.7598606" lon="10.5024622"><ele>586.0</ele><time>2026-04-12T10:11:05.086Z</time></trkpt><trkpt lat="43.7598302" lon="10.5023466"><ele>586.0</ele><time>2026-04-12T10:11:06.082Z</time></trkpt><trkpt lat="43.7597978" lon="10.5022424"><ele>586.0</ele><time>2026-04-12T10:11:07.084Z</time></trkpt><trkpt lat="43.7597607" lon="10.5021518"><ele>586.0</ele><time>2026-04-12T10:11:08.083Z</time></trkpt><trkpt lat="43.7597153" lon="10.5020695"><ele>586.0</ele><time>2026-04-12T10:11:09.084Z</time></trkpt><trkpt lat="43.7596628" lon="10.5020047"><ele>586.0</ele><time>2026-04-12T10:11:10.084Z</time></trkpt><trkpt lat="43.7595988" lon="10.501966"><ele>586.0</ele><time>2026-04-12T10:11:11.08Z</time></trkpt><trkpt lat="43.7595219" lon="10.5019486"><ele>588.5</ele><time>2026-04-12T10:11:12.08Z</time></trkpt><trkpt lat="43.7594432" lon="10.5019422"><ele>591.0</ele><time>2026-04-12T10:11:13.082Z</time></trkpt><trkpt lat="43.7593733" lon="10.5019305"><ele>593.5</ele><time>2026-04-12T10:11:14.081Z</time></trkpt><trkpt lat="43.759311" lon="10.5018933"><ele>596.0</ele><time>2026-04-12T10:11:15.081Z</time></trkpt><trkpt lat="43.7592519" lon="10.5018536"><ele>598.5</ele><time>2026-04-12T10:11:16.082Z</time></trkpt><trkpt lat="43.7591572" lon="10.5018371"><ele>601.0</ele><time>2026-04-12T10:11:18.082Z</time></trkpt><trkpt lat="43.759105" lon="10.5019313"><ele>598.6</ele><time>2026-04-12T10:11:20.082Z</time></trkpt><trkpt lat="43.7591449" lon="10.5021091"><ele>596.2</ele><time>2026-04-12T10:11:22.08Z</time></trkpt><trkpt lat="43.7591638" lon="10.5022211"><ele>593.8</ele><time>2026-04-12T10:11:23.08Z</time></trkpt><trkpt lat="43.7591783" lon="10.5023467"><ele>591.4</ele><time>2026-04-12T10:11:24.08Z</time></trkpt><trkpt lat="43.7591807" lon="10.5024713"><ele>589.0</ele><time>2026-04-12T10:11:25.08Z</time></trkpt><trkpt lat="43.7591672" lon="10.5025911"><ele>589.0</ele><time>2026-04-12T10:11:26.079Z</time></trkpt><trkpt lat="43.7591419" lon="10.5027052"><ele>589.0</ele><time>2026-04-12T10:11:27.079Z</time></trkpt><trkpt lat="43.759106" lon="10.5028221"><ele>589.0</ele><time>2026-04-12T10:11:28.079Z</time></trkpt><trkpt lat="43.7590622" lon="10.5029526"><ele>589.0</ele><time>2026-04-12T10:11:29.081Z</time></trkpt><trkpt lat="43.75902" lon="10.5030899"><ele>589.0</ele><time>2026-04-12T10:11:30.081Z</time></trkpt><trkpt lat="43.7589779" lon="10.5032309"><ele>587.2</ele><time>2026-04-12T10:11:31.082Z</time></trkpt><trkpt lat="43.7589424" lon="10.5033692"><ele>585.4</ele><time>2026-04-12T10:11:32.082Z</time></trkpt><trkpt lat="43.7589107" lon="10.503504"><ele>583.6</ele><time>2026-04-12T10:11:33.086Z</time></trkpt><trkpt lat="43.7588792" lon="10.5036348"><ele>581.8</ele><time>2026-04-12T10:11:34.083Z</time></trkpt><trkpt lat="43.7588429" lon="10.503753"><ele>580.0</ele><time>2026-04-12T10:11:35.082Z</time></trkpt><trkpt lat="43.7588057" lon="10.5038613"><ele>578.1666666666667</ele><time>2026-04-12T10:11:36.086Z</time></trkpt><trkpt lat="43.7587681" lon="10.5039554"><ele>576.3333333333334</ele><time>2026-04-12T10:11:37.086Z</time></trkpt><trkpt lat="43.7587243" lon="10.5040352"><ele>574.5</ele><time>2026-04-12T10:11:38.085Z</time></trkpt><trkpt lat="43.7586754" lon="10.5040934"><ele>572.6666666666666</ele><time>2026-04-12T10:11:39.085Z</time></trkpt><trkpt lat="43.7586137" lon="10.5041486"><ele>570.8333333333333</ele><time>2026-04-12T10:11:40.084Z</time></trkpt><trkpt lat="43.7585334" lon="10.5041995"><ele>569.0</ele><time>2026-04-12T10:11:41.082Z</time></trkpt><trkpt lat="43.7584427" lon="10.5042488"><ele>573.6</ele><time>2026-04-12T10:11:42.082Z</time></trkpt><trkpt lat="43.7583504" lon="10.5042942"><ele>578.2</ele><time>2026-04-12T10:11:43.082Z</time></trkpt><trkpt lat="43.7582548" lon="10.5043321"><ele>582.8000000000001</ele><time>2026-04-12T10:11:44.084Z</time></trkpt><trkpt lat="43.758161" lon="10.5043639"><ele>587.4</ele><time>2026-04-12T10:11:45.083Z</time></trkpt><trkpt lat="43.7580681" lon="10.5043941"><ele>592.0</ele><time>2026-04-12T10:11:46.084Z</time></trkpt><trkpt lat="43.7579785" lon="10.5044125"><ele>592.0</ele><time>2026-04-12T10:11:47.084Z</time></trkpt><trkpt lat="43.7578859" lon="10.5044243"><ele>592.0</ele><time>2026-04-12T10:11:48.084Z</time></trkpt><trkpt lat="43.7577925" lon="10.5044255"><ele>592.0</ele><time>2026-04-12T10:11:49.08Z</time></trkpt><trkpt lat="43.7577043" lon="10.5044214"><ele>592.0</ele><time>2026-04-12T10:11:50.086Z</time></trkpt><trkpt lat="43.7576179" lon="10.5044143"><ele>592.0</ele><time>2026-04-12T10:11:51.084Z</time></trkpt><trkpt lat="43.7575396" lon="10.5044091"><ele>592.0</ele><time>2026-04-12T10:11:52.083Z</time></trkpt><trkpt lat="43.7574673" lon="10.5043916"><ele>593.6666666666667</ele><time>2026-04-12T10:11:53.082Z</time></trkpt><trkpt lat="43.7573961" lon="10.5043598"><ele>595.3333333333334</ele><time>2026-04-12T10:11:54.083Z</time></trkpt><trkpt lat="43.7573324" lon="10.5043156"><ele>597.0</ele><time>2026-04-12T10:11:55.083Z</time></trkpt><trkpt lat="43.7572742" lon="10.5042759"><ele>598.6666666666666</ele><time>2026-04-12T10:11:56.077Z</time></trkpt><trkpt lat="43.7571627" lon="10.5042933"><ele>600.3333333333333</ele><time>2026-04-12T10:11:58.083Z</time></trkpt><trkpt lat="43.757104" lon="10.5043482"><ele>602.0</ele><time>2026-04-12T10:11:59.083Z</time></trkpt><trkpt lat="43.757045" lon="10.5044134"><ele>602.0</ele><time>2026-04-12T10:12:00.083Z</time></trkpt><trkpt lat="43.7569818" lon="10.5044789"><ele>602.0</ele><time>2026-04-12T10:12:01.084Z</time></trkpt><trkpt lat="43.756913" lon="10.5045559"><ele>602.0</ele><time>2026-04-12T10:12:02.084Z</time></trkpt><trkpt lat="43.7568364" lon="10.5046452"><ele>602.0</ele><time>2026-04-12T10:12:03.085Z</time></trkpt><trkpt lat="43.7567592" lon="10.5047398"><ele>602.0</ele><time>2026-04-12T10:12:04.084Z</time></trkpt><trkpt lat="43.7566848" lon="10.5048413"><ele>601.6</ele><time>2026-04-12T10:12:05.084Z</time></trkpt><trkpt lat="43.7566139" lon="10.5049427"><ele>601.2</ele><time>2026-04-12T10:12:06.083Z</time></trkpt><trkpt lat="43.7565465" lon="10.5050375"><ele>600.8</ele><time>2026-04-12T10:12:07.087Z</time></trkpt><trkpt lat="43.7564801" lon="10.5051249"><ele>600.4</ele><time>2026-04-12T10:12:08.085Z</time></trkpt><trkpt lat="43.7564144" lon="10.5052022"><ele>600.0</ele><time>2026-04-12T10:12:09.082Z</time></trkpt><trkpt lat="43.7563473" lon="10.5052834"><ele>600.0</ele><time>2026-04-12T10:12:10.083Z</time></trkpt><trkpt lat="43.7562786" lon="10.5053652"><ele>600.0</ele><time>2026-04-12T10:12:11.082Z</time></trkpt><trkpt lat="43.7562083" lon="10.5054433"><ele>600.0</ele><time>2026-04-12T10:12:12.082Z</time></trkpt><trkpt lat="43.7561357" lon="10.5055171"><ele>600.0</ele><time>2026-04-12T10:12:13.082Z</time></trkpt><trkpt lat="43.7560567" lon="10.5055868"><ele>600.0</ele><time>2026-04-12T10:12:14.082Z</time></trkpt><trkpt lat="43.7559684" lon="10.5056537"><ele>603.6</ele><time>2026-04-12T10:12:15.085Z</time></trkpt><trkpt lat="43.7558873" lon="10.505728"><ele>607.2</ele><time>2026-04-12T10:12:16.085Z</time></trkpt><trkpt lat="43.7558228" lon="10.5058182"><ele>610.8</ele><time>2026-04-12T10:12:17.083Z</time></trkpt><trkpt lat="43.7557738" lon="10.5059355"><ele>614.4</ele><time>2026-04-12T10:12:18.086Z</time></trkpt><trkpt lat="43.7557561" lon="10.5060494"><ele>618.0</ele><time>2026-04-12T10:12:19.082Z</time></trkpt><trkpt lat="43.7557617" lon="10.5061641"><ele>617.5714285714287</ele><time>2026-04-12T10:12:20.082Z</time></trkpt><trkpt lat="43.7557783" lon="10.5062704"><ele>617.1428571428571</ele><time>2026-04-12T10:12:21.083Z</time></trkpt><trkpt lat="43.7557853" lon="10.5063725"><ele>616.7142857142858</ele><time>2026-04-12T10:12:22.081Z</time></trkpt><trkpt lat="43.7557899" lon="10.5064691"><ele>616.2857142857143</ele><time>2026-04-12T10:12:23.077Z</time></trkpt><trkpt lat="43.7558004" lon="10.5065654"><ele>615.8571428571429</ele><time>2026-04-12T10:12:24.084Z</time></trkpt><trkpt lat="43.7558237" lon="10.5066613"><ele>615.4285714285714</ele><time>2026-04-12T10:12:25.085Z</time></trkpt><trkpt lat="43.7558614" lon="10.5067542"><ele>615.0</ele><time>2026-04-12T10:12:26.087Z</time></trkpt><trkpt lat="43.755909" lon="10.506835"><ele>615.0</ele><time>2026-04-12T10:12:27.085Z</time></trkpt><trkpt lat="43.755961" lon="10.5069048"><ele>615.0</ele><time>2026-04-12T10:12:28.084Z</time></trkpt><trkpt lat="43.756018" lon="10.5069768"><ele>615.0</ele><time>2026-04-12T10:12:29.086Z</time></trkpt><trkpt lat="43.7560768" lon="10.5070465"><ele>615.0</ele><time>2026-04-12T10:12:30.086Z</time></trkpt><trkpt lat="43.7561366" lon="10.5071171"><ele>615.0</ele><time>2026-04-12T10:12:31.085Z</time></trkpt><trkpt lat="43.7562031" lon="10.5071843"><ele>615.0</ele><time>2026-04-12T10:12:32.085Z</time></trkpt><trkpt lat="43.756275" lon="10.5072611"><ele>616.2</ele><time>2026-04-12T10:12:33.089Z</time></trkpt><trkpt lat="43.7563507" lon="10.507343"><ele>617.4</ele><time>2026-04-12T10:12:34.087Z</time></trkpt><trkpt lat="43.7564356" lon="10.5074287"><ele>618.6</ele><time>2026-04-12T10:12:35.086Z</time></trkpt><trkpt lat="43.7565284" lon="10.5075158"><ele>619.8</ele><time>2026-04-12T10:12:36.084Z</time></trkpt><trkpt lat="43.756619" lon="10.5076025"><ele>621.0</ele><time>2026-04-12T10:12:37.087Z</time></trkpt><trkpt lat="43.756709" lon="10.5076927"><ele>621.0</ele><time>2026-04-12T10:12:38.085Z</time></trkpt><trkpt lat="43.7567944" lon="10.5077763"><ele>621.0</ele><time>2026-04-12T10:12:39.087Z</time></trkpt><trkpt lat="43.7568685" lon="10.5078585"><ele>621.0</ele><time>2026-04-12T10:12:40.085Z</time></trkpt><trkpt lat="43.7569365" lon="10.5079497"><ele>621.0</ele><time>2026-04-12T10:12:41.085Z</time></trkpt><trkpt lat="43.7570124" lon="10.5080443"><ele>621.0</ele><time>2026-04-12T10:12:42.084Z</time></trkpt><trkpt lat="43.7570909" lon="10.5081344"><ele>621.5</ele><time>2026-04-12T10:12:43.088Z</time></trkpt><trkpt lat="43.7571605" lon="10.5082123"><ele>622.0</ele><time>2026-04-12T10:12:44.084Z</time></trkpt><trkpt lat="43.7572299" lon="10.5082856"><ele>622.5</ele><time>2026-04-12T10:12:45.087Z</time></trkpt><trkpt lat="43.7572987" lon="10.5083543"><ele>623.0</ele><time>2026-04-12T10:12:46.088Z</time></trkpt><trkpt lat="43.7573545" lon="10.5084144"><ele>623.5</ele><time>2026-04-12T10:12:47.085Z</time></trkpt><trkpt lat="43.7574109" lon="10.5084739"><ele>624.0</ele><time>2026-04-12T10:12:48.084Z</time></trkpt><trkpt lat="43.7574671" lon="10.508539"><ele>624.0</ele><time>2026-04-12T10:12:49.086Z</time></trkpt><trkpt lat="43.7575249" lon="10.508613"><ele>624.0</ele><time>2026-04-12T10:12:50.085Z</time></trkpt><trkpt lat="43.7575845" lon="10.5086982"><ele>624.0</ele><time>2026-04-12T10:12:51.085Z</time></trkpt><trkpt lat="43.757644" lon="10.5087852"><ele>624.0</ele><time>2026-04-12T10:12:52.084Z</time></trkpt><trkpt lat="43.7577089" lon="10.5088763"><ele>624.0</ele><time>2026-04-12T10:12:53.088Z</time></trkpt><trkpt lat="43.7577804" lon="10.5089682"><ele>624.0</ele><time>2026-04-12T10:12:54.084Z</time></trkpt><trkpt lat="43.7578499" lon="10.5090585"><ele>623.6</ele><time>2026-04-12T10:12:55.078Z</time></trkpt><trkpt lat="43.7579148" lon="10.5091501"><ele>623.2</ele><time>2026-04-12T10:12:56.084Z</time></trkpt><trkpt lat="43.7579789" lon="10.5092325"><ele>622.8000000000001</ele><time>2026-04-12T10:12:57.083Z</time></trkpt><trkpt lat="43.7580465" lon="10.5093127"><ele>622.4</ele><time>2026-04-12T10:12:58.084Z</time></trkpt><trkpt lat="43.7581192" lon="10.5093937"><ele>622.0</ele><time>2026-04-12T10:12:59.084Z</time></trkpt><trkpt lat="43.7581987" lon="10.5094727"><ele>622.0</ele><time>2026-04-12T10:13:00.083Z</time></trkpt><trkpt lat="43.7582769" lon="10.5095531"><ele>622.0</ele><time>2026-04-12T10:13:01.083Z</time></trkpt><trkpt lat="43.7583472" lon="10.5096293"><ele>622.0</ele><time>2026-04-12T10:13:02.087Z</time></trkpt><trkpt lat="43.7584095" lon="10.5097056"><ele>622.0</ele><time>2026-04-12T10:13:03.088Z</time></trkpt><trkpt lat="43.7584662" lon="10.509783"><ele>622.0</ele><time>2026-04-12T10:13:04.088Z</time></trkpt><trkpt lat="43.7585203" lon="10.509867"><ele>622.0</ele><time>2026-04-12T10:13:05.083Z</time></trkpt><trkpt lat="43.758572" lon="10.5099618"><ele>621.2</ele><time>2026-04-12T10:13:06.084Z</time></trkpt><trkpt lat="43.7586187" lon="10.5100625"><ele>620.4000000000001</ele><time>2026-04-12T10:13:07.086Z</time></trkpt><trkpt lat="43.7586634" lon="10.5101706"><ele>619.5999999999999</ele><time>2026-04-12T10:13:08.084Z</time></trkpt><trkpt lat="43.7587045" lon="10.5102869"><ele>618.8</ele><time>2026-04-12T10:13:09.088Z</time></trkpt><trkpt lat="43.7587382" lon="10.510416"><ele>618.0</ele><time>2026-04-12T10:13:10.085Z</time></trkpt><trkpt lat="43.7587626" lon="10.5105615"><ele>619.8</ele><time>2026-04-12T10:13:11.083Z</time></trkpt><trkpt lat="43.7587806" lon="10.5107112"><ele>621.5999999999999</ele><time>2026-04-12T10:13:12.084Z</time></trkpt><trkpt lat="43.7587956" lon="10.5108564"><ele>623.4000000000001</ele><time>2026-04-12T10:13:13.083Z</time></trkpt><trkpt lat="43.7588212" lon="10.5109907"><ele>625.2</ele><time>2026-04-12T10:13:14.082Z</time></trkpt><trkpt lat="43.7588602" lon="10.5111185"><ele>627.0</ele><time>2026-04-12T10:13:15.082Z</time></trkpt><trkpt lat="43.7589045" lon="10.5112397"><ele>630.2</ele><time>2026-04-12T10:13:16.084Z</time></trkpt><trkpt lat="43.7589565" lon="10.5113469"><ele>633.4000000000001</ele><time>2026-04-12T10:13:17.082Z</time></trkpt><trkpt lat="43.7590178" lon="10.5114497"><ele>636.5999999999999</ele><time>2026-04-12T10:13:18.082Z</time></trkpt><trkpt lat="43.7590833" lon="10.5115589"><ele>639.8</ele><time>2026-04-12T10:13:19.082Z</time></trkpt><trkpt lat="43.7591445" lon="10.5116711"><ele>643.0</ele><time>2026-04-12T10:13:20.083Z</time></trkpt><trkpt lat="43.7592065" lon="10.511789"><ele>643.0</ele><time>2026-04-12T10:13:21.083Z</time></trkpt><trkpt lat="43.759268" lon="10.5119116"><ele>643.0</ele><time>2026-04-12T10:13:22.081Z</time></trkpt><trkpt lat="43.7593288" lon="10.512032"><ele>643.0</ele><time>2026-04-12T10:13:23.083Z</time></trkpt><trkpt lat="43.7593874" lon="10.5121481"><ele>643.0</ele><time>2026-04-12T10:13:24.081Z</time></trkpt><trkpt lat="43.7594443" lon="10.5122646"><ele>643.0</ele><time>2026-04-12T10:13:25.081Z</time></trkpt><trkpt lat="43.7594991" lon="10.5123797"><ele>642.4</ele><time>2026-04-12T10:13:26.083Z</time></trkpt><trkpt lat="43.7595549" lon="10.5124907"><ele>641.8</ele><time>2026-04-12T10:13:27.081Z</time></trkpt><trkpt lat="43.7596099" lon="10.5125923"><ele>641.2</ele><time>2026-04-12T10:13:28.082Z</time></trkpt><trkpt lat="43.7596593" lon="10.5126823"><ele>640.6</ele><time>2026-04-12T10:13:29.081Z</time></trkpt><trkpt lat="43.7596959" lon="10.5127658"><ele>640.0</ele><time>2026-04-12T10:13:30.082Z</time></trkpt><trkpt lat="43.7597341" lon="10.5129189"><ele>640.0</ele><time>2026-04-12T10:13:32.083Z</time></trkpt><trkpt lat="43.7597473" lon="10.5130118"><ele>640.0</ele><time>2026-04-12T10:13:33.087Z</time></trkpt><trkpt lat="43.7597642" lon="10.5131272"><ele>640.0</ele><time>2026-04-12T10:13:34.082Z</time></trkpt><trkpt lat="43.7597799" lon="10.5132499"><ele>640.0</ele><time>2026-04-12T10:13:35.082Z</time></trkpt><trkpt lat="43.7597955" lon="10.513368"><ele>640.0</ele><time>2026-04-12T10:13:36.084Z</time></trkpt><trkpt lat="43.7598164" lon="10.5134763"><ele>640.0</ele><time>2026-04-12T10:13:37.084Z</time></trkpt><trkpt lat="43.7598466" lon="10.5135816"><ele>640.0</ele><time>2026-04-12T10:13:38.084Z</time></trkpt><trkpt lat="43.7598884" lon="10.5136965"><ele>640.0</ele><time>2026-04-12T10:13:39.083Z</time></trkpt><trkpt lat="43.7599333" lon="10.5138216"><ele>640.0</ele><time>2026-04-12T10:13:40.083Z</time></trkpt><trkpt lat="43.7599816" lon="10.5139444"><ele>640.0</ele><time>2026-04-12T10:13:41.08Z</time></trkpt><trkpt lat="43.7600361" lon="10.5140552"><ele>640.0</ele><time>2026-04-12T10:13:42.082Z</time></trkpt><trkpt lat="43.7600937" lon="10.5141538"><ele>641.3333333333334</ele><time>2026-04-12T10:13:43.086Z</time></trkpt><trkpt lat="43.760153" lon="10.5142384"><ele>642.6666666666667</ele><time>2026-04-12T10:13:44.083Z</time></trkpt><trkpt lat="43.7602187" lon="10.5142982"><ele>644.0</ele><time>2026-04-12T10:13:45.084Z</time></trkpt><trkpt lat="43.7602992" lon="10.514342"><ele>645.3333333333334</ele><time>2026-04-12T10:13:46.082Z</time></trkpt><trkpt lat="43.7603824" lon="10.5143856"><ele>646.6666666666666</ele><time>2026-04-12T10:13:47.082Z</time></trkpt><trkpt lat="43.7604573" lon="10.5144258"><ele>648.0</ele><time>2026-04-12T10:13:48.083Z</time></trkpt><trkpt lat="43.7605338" lon="10.5144525"><ele>648.0</ele><time>2026-04-12T10:13:49.083Z</time></trkpt><trkpt lat="43.760622" lon="10.5144532"><ele>648.0</ele><time>2026-04-12T10:13:50.083Z</time></trkpt><trkpt lat="43.7607177" lon="10.5144425"><ele>648.0</ele><time>2026-04-12T10:13:51.082Z</time></trkpt><trkpt lat="43.7608152" lon="10.5144357"><ele>648.0</ele><time>2026-04-12T10:13:52.083Z</time></trkpt><trkpt lat="43.7609123" lon="10.5144406"><ele>648.0</ele><time>2026-04-12T10:13:53.081Z</time></trkpt><trkpt lat="43.7610058" lon="10.514454"><ele>650.0</ele><time>2026-04-12T10:13:54.085Z</time></trkpt><trkpt lat="43.7610962" lon="10.5144756"><ele>652.0</ele><time>2026-04-12T10:13:55.083Z</time></trkpt><trkpt lat="43.7611772" lon="10.5145103"><ele>654.0</ele><time>2026-04-12T10:13:56.083Z</time></trkpt><trkpt lat="43.7612528" lon="10.5145594"><ele>656.0</ele><time>2026-04-12T10:13:57.078Z</time></trkpt><trkpt lat="43.761321" lon="10.5146274"><ele>658.0</ele><time>2026-04-12T10:13:58.083Z</time></trkpt><trkpt lat="43.7613894" lon="10.5147181"><ele>660.0</ele><time>2026-04-12T10:13:59.083Z</time></trkpt><trkpt lat="43.7614595" lon="10.5148284"><ele>660.0</ele><time>2026-04-12T10:14:00.082Z</time></trkpt><trkpt lat="43.7615255" lon="10.514942"><ele>660.0</ele><time>2026-04-12T10:14:01.084Z</time></trkpt><trkpt lat="43.7615911" lon="10.5150511"><ele>660.0</ele><time>2026-04-12T10:14:02.083Z</time></trkpt><trkpt lat="43.7616512" lon="10.5151484"><ele>660.0</ele><time>2026-04-12T10:14:03.088Z</time></trkpt><trkpt lat="43.7617134" lon="10.5152284"><ele>660.0</ele><time>2026-04-12T10:14:04.086Z</time></trkpt><trkpt lat="43.7617794" lon="10.5152873"><ele>660.0</ele><time>2026-04-12T10:14:05.084Z</time></trkpt><trkpt lat="43.761844" lon="10.5153397"><ele>660.0</ele><time>2026-04-12T10:14:06.085Z</time></trkpt><trkpt lat="43.7619133" lon="10.5154458"><ele>660.0</ele><time>2026-04-12T10:14:08.086Z</time></trkpt><trkpt lat="43.7618982" lon="10.5155835"><ele>660.0</ele><time>2026-04-12T10:14:10.084Z</time></trkpt><trkpt lat="43.7618654" lon="10.5156708"><ele>660.0</ele><time>2026-04-12T10:14:11.076Z</time></trkpt><trkpt lat="43.7618432" lon="10.5157629"><ele>660.0</ele><time>2026-04-12T10:14:12.082Z</time></trkpt><trkpt lat="43.7618569" lon="10.5158893"><ele>662.0</ele><time>2026-04-12T10:14:14.086Z</time></trkpt><trkpt lat="43.7619222" lon="10.5159265"><ele>664.0</ele><time>2026-04-12T10:14:16.082Z</time></trkpt><trkpt lat="43.762014" lon="10.5159262"><ele>666.0</ele><time>2026-04-12T10:14:18.086Z</time></trkpt><trkpt lat="43.7621396" lon="10.5158803"><ele>668.0</ele><time>2026-04-12T10:14:20.085Z</time></trkpt><trkpt lat="43.7622154" lon="10.5158334"><ele>670.0</ele><time>2026-04-12T10:14:21.084Z</time></trkpt><trkpt lat="43.7623012" lon="10.5157813"><ele>670.0</ele><time>2026-04-12T10:14:22.084Z</time></trkpt><trkpt lat="43.7623859" lon="10.5157405"><ele>670.0</ele><time>2026-04-12T10:14:23.084Z</time></trkpt><trkpt lat="43.7624631" lon="10.5157159"><ele>670.0</ele><time>2026-04-12T10:14:24.085Z</time></trkpt><trkpt lat="43.7625294" lon="10.5157001"><ele>670.0</ele><time>2026-04-12T10:14:25.084Z</time></trkpt><trkpt lat="43.7626438" lon="10.5157261"><ele>670.0</ele><time>2026-04-12T10:14:27.084Z</time></trkpt><trkpt lat="43.7627199" lon="10.5158682"><ele>669.8333333333334</ele><time>2026-04-12T10:14:29.085Z</time></trkpt><trkpt lat="43.7627378" lon="10.5159652"><ele>669.6666666666667</ele><time>2026-04-12T10:14:30.084Z</time></trkpt><trkpt lat="43.7627446" lon="10.5160698"><ele>669.5</ele><time>2026-04-12T10:14:31.086Z</time></trkpt><trkpt lat="43.7627371" lon="10.5161852"><ele>669.3333333333334</ele><time>2026-04-12T10:14:32.085Z</time></trkpt><trkpt lat="43.7627186" lon="10.5163156"><ele>669.1666666666666</ele><time>2026-04-12T10:14:33.089Z</time></trkpt><trkpt lat="43.7626962" lon="10.5164534"><ele>669.0</ele><time>2026-04-12T10:14:34.084Z</time></trkpt><trkpt lat="43.7626722" lon="10.5165885"><ele>669.0</ele><time>2026-04-12T10:14:35.085Z</time></trkpt><trkpt lat="43.7626585" lon="10.5167195"><ele>669.0</ele><time>2026-04-12T10:14:36.085Z</time></trkpt><trkpt lat="43.7626696" lon="10.5168383"><ele>669.0</ele><time>2026-04-12T10:14:37.086Z</time></trkpt><trkpt lat="43.7627142" lon="10.5169391"><ele>669.0</ele><time>2026-04-12T10:14:38.085Z</time></trkpt><trkpt lat="43.7627774" lon="10.5170276"><ele>669.0</ele><time>2026-04-12T10:14:39.083Z</time></trkpt><trkpt lat="43.7628393" lon="10.517097"><ele>669.0</ele><time>2026-04-12T10:14:40.084Z</time></trkpt><trkpt lat="43.7629002" lon="10.5171467"><ele>672.0</ele><time>2026-04-12T10:14:41.085Z</time></trkpt><trkpt lat="43.7629712" lon="10.5171855"><ele>675.0</ele><time>2026-04-12T10:14:42.086Z</time></trkpt><trkpt lat="43.7630575" lon="10.5172178"><ele>678.0</ele><time>2026-04-12T10:14:43.086Z</time></trkpt><trkpt lat="43.7631433" lon="10.5172525"><ele>681.0</ele><time>2026-04-12T10:14:44.084Z</time></trkpt><trkpt lat="43.7632254" lon="10.5172911"><ele>684.0</ele><time>2026-04-12T10:14:45.084Z</time></trkpt><trkpt lat="43.7632986" lon="10.5173389"><ele>687.0</ele><time>2026-04-12T10:14:46.087Z</time></trkpt><trkpt lat="43.7633624" lon="10.5173853"><ele>687.0</ele><time>2026-04-12T10:14:47.084Z</time></trkpt><trkpt lat="43.7634194" lon="10.5174252"><ele>687.0</ele><time>2026-04-12T10:14:48.086Z</time></trkpt><trkpt lat="43.7635173" lon="10.5174959"><ele>687.0</ele><time>2026-04-12T10:14:50.085Z</time></trkpt><trkpt lat="43.7636207" lon="10.5175469"><ele>687.0</ele><time>2026-04-12T10:14:52.086Z</time></trkpt><trkpt lat="43.7637391" lon="10.5176169"><ele>687.0</ele><time>2026-04-12T10:14:54.086Z</time></trkpt><trkpt lat="43.7638" lon="10.517663"><ele>687.8</ele><time>2026-04-12T10:14:55.086Z</time></trkpt><trkpt lat="43.7638637" lon="10.5177186"><ele>688.6</ele><time>2026-04-12T10:14:56.086Z</time></trkpt><trkpt lat="43.7639291" lon="10.5177858"><ele>689.4</ele><time>2026-04-12T10:14:57.086Z</time></trkpt><trkpt lat="43.7639982" lon="10.5178658"><ele>690.1999999999999</ele><time>2026-04-12T10:14:58.081Z</time></trkpt><trkpt lat="43.7640741" lon="10.5179635"><ele>691.0</ele><time>2026-04-12T10:14:59.088Z</time></trkpt><trkpt lat="43.7641547" lon="10.5180757"><ele>691.0</ele><time>2026-04-12T10:15:00.085Z</time></trkpt><trkpt lat="43.764242" lon="10.5181947"><ele>691.0</ele><time>2026-04-12T10:15:01.086Z</time></trkpt><trkpt lat="43.764334" lon="10.5183179"><ele>691.0</ele><time>2026-04-12T10:15:02.086Z</time></trkpt><trkpt lat="43.7644228" lon="10.5184515"><ele>691.0</ele><time>2026-04-12T10:15:03.081Z</time></trkpt><trkpt lat="43.7644991" lon="10.5185886"><ele>689.8333333333334</ele><time>2026-04-12T10:15:04.084Z</time></trkpt><trkpt lat="43.7645577" lon="10.5187154"><ele>688.6666666666667</ele><time>2026-04-12T10:15:05.085Z</time></trkpt><trkpt lat="43.7646096" lon="10.5188316"><ele>687.5</ele><time>2026-04-12T10:15:06.083Z</time></trkpt><trkpt lat="43.764655" lon="10.5189363"><ele>686.3333333333334</ele><time>2026-04-12T10:15:07.085Z</time></trkpt><trkpt lat="43.7646896" lon="10.519023"><ele>685.1666666666666</ele><time>2026-04-12T10:15:08.086Z</time></trkpt><trkpt lat="43.7647181" lon="10.5191053"><ele>684.0</ele><time>2026-04-12T10:15:09.089Z</time></trkpt><trkpt lat="43.7647638" lon="10.5192581"><ele>684.0</ele><time>2026-04-12T10:15:11.086Z</time></trkpt><trkpt lat="43.7648117" lon="10.5194148"><ele>684.0</ele><time>2026-04-12T10:15:13.09Z</time></trkpt><trkpt lat="43.7648347" lon="10.5195026"><ele>684.0</ele><time>2026-04-12T10:15:14.085Z</time></trkpt><trkpt lat="43.7648578" lon="10.5195972"><ele>684.0</ele><time>2026-04-12T10:15:15.084Z</time></trkpt><trkpt lat="43.7648814" lon="10.5196987"><ele>684.0</ele><time>2026-04-12T10:15:16.084Z</time></trkpt><trkpt lat="43.7649066" lon="10.5198144"><ele>684.0</ele><time>2026-04-12T10:15:17.084Z</time></trkpt><trkpt lat="43.7649368" lon="10.5199499"><ele>686.0</ele><time>2026-04-12T10:15:18.078Z</time></trkpt><trkpt lat="43.7649604" lon="10.5201026"><ele>688.0</ele><time>2026-04-12T10:15:19.084Z</time></trkpt><trkpt lat="43.7649801" lon="10.5202544"><ele>690.0</ele><time>2026-04-12T10:15:20.086Z</time></trkpt><trkpt lat="43.7649924" lon="10.520401"><ele>692.0</ele><time>2026-04-12T10:15:21.085Z</time></trkpt><trkpt lat="43.7650007" lon="10.5205394"><ele>694.0</ele><time>2026-04-12T10:15:22.085Z</time></trkpt><trkpt lat="43.7650085" lon="10.520665"><ele>696.0</ele><time>2026-04-12T10:15:23.085Z</time></trkpt><trkpt lat="43.7650132" lon="10.5207931"><ele>698.0</ele><time>2026-04-12T10:15:24.085Z</time></trkpt><trkpt lat="43.7650129" lon="10.520931"><ele>700.0</ele><time>2026-04-12T10:15:25.085Z</time></trkpt><trkpt lat="43.7650146" lon="10.5210717"><ele>702.0</ele><time>2026-04-12T10:15:26.085Z</time></trkpt><trkpt lat="43.7650266" lon="10.5212131"><ele>704.0</ele><time>2026-04-12T10:15:27.084Z</time></trkpt><trkpt lat="43.7650406" lon="10.5213471"><ele>706.4000000000001</ele><time>2026-04-12T10:15:28.085Z</time></trkpt><trkpt lat="43.76506" lon="10.5214757"><ele>708.8</ele><time>2026-04-12T10:15:29.085Z</time></trkpt><trkpt lat="43.7650882" lon="10.5215981"><ele>711.2</ele><time>2026-04-12T10:15:30.085Z</time></trkpt><trkpt lat="43.7651253" lon="10.5217229"><ele>713.5999999999999</ele><time>2026-04-12T10:15:31.087Z</time></trkpt><trkpt lat="43.7651636" lon="10.5218518"><ele>716.0</ele><time>2026-04-12T10:15:32.085Z</time></trkpt><trkpt lat="43.7652035" lon="10.5219797"><ele>714.0</ele><time>2026-04-12T10:15:33.088Z</time></trkpt><trkpt lat="43.7652494" lon="10.5221045"><ele>712.0</ele><time>2026-04-12T10:15:34.084Z</time></trkpt><trkpt lat="43.7653084" lon="10.5222251"><ele>710.0</ele><time>2026-04-12T10:15:35.086Z</time></trkpt><trkpt lat="43.7653801" lon="10.5223367"><ele>708.0</ele><time>2026-04-12T10:15:36.079Z</time></trkpt><trkpt lat="43.7654586" lon="10.5224413"><ele>706.0</ele><time>2026-04-12T10:15:37.087Z</time></trkpt><trkpt lat="43.7655301" lon="10.5225467"><ele>706.0</ele><time>2026-04-12T10:15:38.085Z</time></trkpt><trkpt lat="43.7655871" lon="10.5226573"><ele>706.0</ele><time>2026-04-12T10:15:39.086Z</time></trkpt><trkpt lat="43.7656313" lon="10.5227742"><ele>706.0</ele><time>2026-04-12T10:15:40.087Z</time></trkpt><trkpt lat="43.7656625" lon="10.5228969"><ele>706.0</ele><time>2026-04-12T10:15:41.085Z</time></trkpt><trkpt lat="43.7656847" lon="10.5230202"><ele>706.0</ele><time>2026-04-12T10:15:42.084Z</time></trkpt><trkpt lat="43.7657" lon="10.5231444"><ele>707.5714285714286</ele><time>2026-04-12T10:15:43.086Z</time></trkpt><trkpt lat="43.7657155" lon="10.5232612"><ele>709.1428571428572</ele><time>2026-04-12T10:15:44.085Z</time></trkpt><trkpt lat="43.7657312" lon="10.5233663"><ele>710.7142857142858</ele><time>2026-04-12T10:15:45.084Z</time></trkpt><trkpt lat="43.7657487" lon="10.5234568"><ele>712.2857142857142</ele><time>2026-04-12T10:15:46.083Z</time></trkpt><trkpt lat="43.7657661" lon="10.5235454"><ele>713.8571428571429</ele><time>2026-04-12T10:15:47.085Z</time></trkpt><trkpt lat="43.7657797" lon="10.523639"><ele>715.4285714285714</ele><time>2026-04-12T10:15:48.084Z</time></trkpt><trkpt lat="43.7657852" lon="10.5237279"><ele>717.0</ele><time>2026-04-12T10:15:49.079Z</time></trkpt><trkpt lat="43.7657766" lon="10.5238834"><ele>718.2</ele><time>2026-04-12T10:15:51.084Z</time></trkpt><trkpt lat="43.7657369" lon="10.5240257"><ele>719.4000000000001</ele><time>2026-04-12T10:15:53.087Z</time></trkpt><trkpt lat="43.7656638" lon="10.5241689"><ele>720.5999999999999</ele><time>2026-04-12T10:15:55.085Z</time></trkpt><trkpt lat="43.7656213" lon="10.5242357"><ele>721.8</ele><time>2026-04-12T10:15:56.085Z</time></trkpt><trkpt lat="43.765562" lon="10.5243272"><ele>723.0</ele><time>2026-04-12T10:15:58.084Z</time></trkpt><trkpt lat="43.765552" lon="10.5244233"><ele>723.0</ele><time>2026-04-12T10:16:02.088Z</time></trkpt></trkseg></trk></gpx>